<?xml version='1.0' encoding='UTF-8'?><gpx version="1.1" creator="JPX - https://github.com/jenetics/jpx" xmlns="http://www.topografix.com/GPX/1/1"><trk><trkseg><trkpt lat="37.86557737776516" lon="15.195342517085384"><ele>134.0</ele><time>2026-04-18T07:28:10Z</time></trkpt><trkpt lat="37.86569234728527" lon="15.195225378348097"><ele>134.0</ele><time>2026-04-18T07:28:11Z</time></trkpt><trkpt lat="37.865792246797554" lon="15.195096603458014"><ele>134.0</ele><time>2026-04-18T07:28:12Z</time></trkpt><trkpt lat="37.86587882300297" lon="15.194951980138203"><ele>134.0</ele><time>2026-04-18T07:28:13Z</time></trkpt><trkpt lat="37.86595323134417" lon="15.194790695419266"><ele>132.66666666666666</ele><time>2026-04-18T07:28:14Z</time></trkpt><trkpt lat="37.866027661662166" lon="15.194616616895972"><ele>131.33333333333334</ele><time>2026-04-18T07:28:15Z</time></trkpt><trkpt lat="37.86609919541815" lon="15.194428376827599"><ele>130.0</ele><time>2026-04-18T07:28:16Z</time></trkpt><trkpt lat="37.86616676875226" lon="15.194233246848315"><ele>130.0</ele><time>2026-04-18T07:28:17Z</time></trkpt><trkpt lat="37.866242215699295" lon="15.194044557818161"><ele>130.0</ele><time>2026-04-18T07:28:18Z</time></trkpt><trkpt lat="37.866322051591396" lon="15.193839955079603"><ele>130.0</ele><time>2026-04-18T07:28:19Z</time></trkpt><trkpt lat="37.86642482800118" lon="15.193659914802472"><ele>130.75</ele><time>2026-04-18T07:28:20Z</time></trkpt><trkpt lat="37.8665135382902" lon="15.193489667819183"><ele>131.5</ele><time>2026-04-18T07:28:21Z</time></trkpt><trkpt lat="37.86659174383359" lon="15.193330760968307"><ele>132.25</ele><time>2026-04-18T07:28:22Z</time></trkpt><trkpt lat="37.86665042515523" lon="15.19317103414412"><ele>133.0</ele><time>2026-04-18T07:28:23Z</time></trkpt><trkpt lat="37.866731933323884" lon="15.193025357195761"><ele>135.33333333333334</ele><time>2026-04-18T07:28:23.999Z</time></trkpt><trkpt lat="37.86684628843255" lon="15.192881207851771"><ele>137.66666666666666</ele><time>2026-04-18T07:28:24.999Z</time></trkpt><trkpt lat="37.866962761751196" lon="15.19272535780292"><ele>140.0</ele><time>2026-04-18T07:28:25.999Z</time></trkpt><trkpt lat="37.86706423244818" lon="15.19255880047087"><ele>140.0</ele><time>2026-04-18T07:28:26.999Z</time></trkpt><trkpt lat="37.86718464220562" lon="15.192422361989058"><ele>140.0</ele><time>2026-04-18T07:28:27.999Z</time></trkpt><trkpt lat="37.86730651440119" lon="15.19230325032263"><ele>140.0</ele><time>2026-04-18T07:28:28.999Z</time></trkpt><trkpt lat="37.86743112445849" lon="15.19220136891896"><ele>141.0</ele><time>2026-04-18T07:28:29.999Z</time></trkpt><trkpt lat="37.86755928338075" lon="15.192143346547574"><ele>142.0</ele><time>2026-04-18T07:28:30.999Z</time></trkpt><trkpt lat="37.86765901385123" lon="15.19208465186155"><ele>143.0</ele><time>2026-04-18T07:28:31.999Z</time></trkpt><trkpt lat="37.86774711946557" lon="15.192039103283808"><ele>144.0</ele><time>2026-04-18T07:28:32.999Z</time></trkpt><trkpt lat="37.86783807388112" lon="15.19199026353578"><ele>145.0</ele><time>2026-04-18T07:28:33.999Z</time></trkpt><trkpt lat="37.867933100863446" lon="15.191939960723923"><ele>142.5</ele><time>2026-04-18T07:28:34.999Z</time></trkpt><trkpt lat="37.86803062006514" lon="15.191888338645542"><ele>140.0</ele><time>2026-04-18T07:28:35.999Z</time></trkpt><trkpt lat="37.86813341680393" lon="15.191833922886483"><ele>137.5</ele><time>2026-04-18T07:28:36.999Z</time></trkpt><trkpt lat="37.86824116462609" lon="15.191776820005028"><ele>135.0</ele><time>2026-04-18T07:28:37.999Z</time></trkpt><trkpt lat="37.868354187776404" lon="15.191716798398113"><ele>134.75</ele><time>2026-04-18T07:28:38.999Z</time></trkpt><trkpt lat="37.86846893174388" lon="15.191655862940417"><ele>134.5</ele><time>2026-04-18T07:28:39.999Z</time></trkpt><trkpt lat="37.8686031909258" lon="15.191584905375729"><ele>134.25</ele><time>2026-04-18T07:28:40.999Z</time></trkpt><trkpt lat="37.868761980907834" lon="15.191504282412325"><ele>134.0</ele><time>2026-04-18T07:28:41.999Z</time></trkpt><trkpt lat="37.86893015548803" lon="15.191428579553282"><ele>134.0</ele><time>2026-04-18T07:28:42.999Z</time></trkpt><trkpt lat="37.869127389854064" lon="15.191347339532713"><ele>134.0</ele><time>2026-04-18T07:28:43.999Z</time></trkpt><trkpt lat="37.86932159342069" lon="15.191247749424177"><ele>134.0</ele><time>2026-04-18T07:28:44.999Z</time></trkpt><trkpt lat="37.86951773126304" lon="15.19116571111565"><ele>133.0</ele><time>2026-04-18T07:28:45.999Z</time></trkpt><trkpt lat="37.86972441589411" lon="15.191104524782494"><ele>132.0</ele><time>2026-04-18T07:28:46.999Z</time></trkpt><trkpt lat="37.86992582350689" lon="15.191022564957855"><ele>131.0</ele><time>2026-04-18T07:28:47.999Z</time></trkpt><trkpt lat="37.87011671658176" lon="15.190941129345372"><ele>130.66666666666666</ele><time>2026-04-18T07:28:49Z</time></trkpt><trkpt lat="37.87028584407313" lon="15.19085372060354"><ele>130.33333333333334</ele><time>2026-04-18T07:28:50Z</time></trkpt><trkpt lat="37.870448429434006" lon="15.190789574491076"><ele>130.0</ele><time>2026-04-18T07:28:51Z</time></trkpt><trkpt lat="37.87061343624744" lon="15.190723176160217"><ele>131.33333333333334</ele><time>2026-04-18T07:28:52Z</time></trkpt><trkpt lat="37.87077155003698" lon="15.190657402102087"><ele>132.66666666666666</ele><time>2026-04-18T07:28:53Z</time></trkpt><trkpt lat="37.87092306535264" lon="15.190591282461167"><ele>134.0</ele><time>2026-04-18T07:28:54Z</time></trkpt><trkpt lat="37.87108098621712" lon="15.190546494003083"><ele>134.0</ele><time>2026-04-18T07:28:55Z</time></trkpt><trkpt lat="37.87122403156342" lon="15.190485991299637"><ele>134.0</ele><time>2026-04-18T07:28:56Z</time></trkpt><trkpt lat="37.87136437736062" lon="15.190391054620521"><ele>134.0</ele><time>2026-04-18T07:28:57Z</time></trkpt><trkpt lat="37.87150808532298" lon="15.190328039197057"><ele>134.0</ele><time>2026-04-18T07:28:58Z</time></trkpt><trkpt lat="37.871616442021285" lon="15.19023658326777"><ele>134.0</ele><time>2026-04-18T07:28:59Z</time></trkpt><trkpt lat="37.871708492319954" lon="15.19017337118592"><ele>134.0</ele><time>2026-04-18T07:29:00Z</time></trkpt><trkpt lat="37.8717820042974" lon="15.19013785760066"><ele>134.0</ele><time>2026-04-18T07:29:01Z</time></trkpt><trkpt lat="37.8718861646413" lon="15.190061493562391"><ele>134.0</ele><time>2026-04-18T07:29:03Z</time></trkpt><trkpt lat="37.87197050012855" lon="15.18998951024686"><ele>134.0</ele><time>2026-04-18T07:29:05Z</time></trkpt><trkpt lat="37.87204515981197" lon="15.18990654336147"><ele>134.0</ele><time>2026-04-18T07:29:06.999Z</time></trkpt><trkpt lat="37.87210808923137" lon="15.189829956716832"><ele>134.0</ele><time>2026-04-18T07:29:08.999Z</time></trkpt><trkpt lat="37.87219746209523" lon="15.18972908708625"><ele>134.0</ele><time>2026-04-18T07:29:10.999Z</time></trkpt><trkpt lat="37.872249406638694" lon="15.189677477292612"><ele>134.0</ele><time>2026-04-18T07:29:11.999Z</time></trkpt><trkpt lat="37.872302957061564" lon="15.189629567924872"><ele>134.0</ele><time>2026-04-18T07:29:12.999Z</time></trkpt><trkpt lat="37.872381758017845" lon="15.18958443882565"><ele>134.5</ele><time>2026-04-18T07:29:13.999Z</time></trkpt><trkpt lat="37.87245585618061" lon="15.18954162656121"><ele>135.0</ele><time>2026-04-18T07:29:14.999Z</time></trkpt><trkpt lat="37.87253091479221" lon="15.189487431020613"><ele>135.5</ele><time>2026-04-18T07:29:15.999Z</time></trkpt><trkpt lat="37.87259711937634" lon="15.189399812849963"><ele>136.0</ele><time>2026-04-18T07:29:16.999Z</time></trkpt><trkpt lat="37.872661996805995" lon="15.189323075923374"><ele>136.5</ele><time>2026-04-18T07:29:17.999Z</time></trkpt><trkpt lat="37.87270392216894" lon="15.189246316535378"><ele>137.0</ele><time>2026-04-18T07:29:18.999Z</time></trkpt><trkpt lat="37.872727809995595" lon="15.18915783872611"><ele>137.0</ele><time>2026-04-18T07:29:19.999Z</time></trkpt><trkpt lat="37.87273125983369" lon="15.18905112329743"><ele>137.0</ele><time>2026-04-18T07:29:20.999Z</time></trkpt><trkpt lat="37.87271860679333" lon="15.188941366391603"><ele>137.0</ele><time>2026-04-18T07:29:21.999Z</time></trkpt><trkpt lat="37.87272489978544" lon="15.188834273491494"><ele>137.0</ele><time>2026-04-18T07:29:22.999Z</time></trkpt><trkpt lat="37.87273156088869" lon="15.188740374684363"><ele>137.0</ele><time>2026-04-18T07:29:23.999Z</time></trkpt><trkpt lat="37.87274976437862" lon="15.18864781162794"><ele>137.0</ele><time>2026-04-18T07:29:24.999Z</time></trkpt><trkpt lat="37.87275152695666" lon="15.188557960011114"><ele>137.66666666666666</ele><time>2026-04-18T07:29:25.999Z</time></trkpt><trkpt lat="37.872758169098724" lon="15.188423979694369"><ele>138.33333333333331</ele><time>2026-04-18T07:29:27.999Z</time></trkpt><trkpt lat="37.87277318446194" lon="15.18832866123847"><ele>139.0</ele><time>2026-04-18T07:29:29.999Z</time></trkpt><trkpt lat="37.872834935168555" lon="15.188259596950864"><ele>139.66666666666666</ele><time>2026-04-18T07:29:31.999Z</time></trkpt><trkpt lat="37.87292830195508" lon="15.18824927355355"><ele>140.33333333333334</ele><time>2026-04-18T07:29:33.999Z</time></trkpt><trkpt lat="37.87300023021439" lon="15.188231665903391"><ele>141.0</ele><time>2026-04-18T07:29:34.999Z</time></trkpt><trkpt lat="37.87307799735308" lon="15.18823279802587"><ele>141.0</ele><time>2026-04-18T07:29:35.999Z</time></trkpt><trkpt lat="37.873174819271284" lon="15.188227114417792"><ele>141.0</ele><time>2026-04-18T07:29:36.999Z</time></trkpt><trkpt lat="37.8732652531042" lon="15.188179048058496"><ele>141.0</ele><time>2026-04-18T07:29:37.999Z</time></trkpt><trkpt lat="37.873354594927186" lon="15.188149838116528"><ele>141.0</ele><time>2026-04-18T07:29:38.999Z</time></trkpt><trkpt lat="37.87342495964235" lon="15.188112882189126"><ele>141.0</ele><time>2026-04-18T07:29:39.999Z</time></trkpt><trkpt lat="37.87347861869509" lon="15.188054291266415"><ele>141.0</ele><time>2026-04-18T07:29:40.999Z</time></trkpt><trkpt lat="37.873530099796895" lon="15.187968308664521"><ele>141.25</ele><time>2026-04-18T07:29:41.999Z</time></trkpt><trkpt lat="37.87356781426607" lon="15.187865974856656"><ele>141.5</ele><time>2026-04-18T07:29:42.999Z</time></trkpt><trkpt lat="37.87358952065361" lon="15.187739329975999"><ele>141.75</ele><time>2026-04-18T07:29:43.999Z</time></trkpt><trkpt lat="37.87364089675666" lon="15.187598971506892"><ele>142.0</ele><time>2026-04-18T07:29:44.999Z</time></trkpt><trkpt lat="37.87369156131921" lon="15.187433707398931"><ele>142.5</ele><time>2026-04-18T07:29:45.999Z</time></trkpt><trkpt lat="37.87374827498966" lon="15.187253526956495"><ele>143.0</ele><time>2026-04-18T07:29:46.999Z</time></trkpt><trkpt lat="37.87378181625574" lon="15.187090344291654"><ele>143.5</ele><time>2026-04-18T07:29:47.999Z</time></trkpt><trkpt lat="37.87382914202589" lon="15.186965672880133"><ele>144.0</ele><time>2026-04-18T07:29:48.999Z</time></trkpt><trkpt lat="37.87386856841311" lon="15.18685246133996"><ele>144.0</ele><time>2026-04-18T07:29:49.999Z</time></trkpt><trkpt lat="37.873895064700996" lon="15.18673355261764"><ele>144.0</ele><time>2026-04-18T07:29:50.999Z</time></trkpt><trkpt lat="37.873912637043006" lon="15.186615499180672"><ele>144.0</ele><time>2026-04-18T07:29:51.999Z</time></trkpt><trkpt lat="37.87390180743771" lon="15.186463842275842"><ele>144.0</ele><time>2026-04-18T07:29:52.999Z</time></trkpt><trkpt lat="37.87388859214801" lon="15.186291798044238"><ele>144.0</ele><time>2026-04-18T07:29:53.999Z</time></trkpt><trkpt lat="37.87386147592288" lon="15.186103850666585"><ele>145.0</ele><time>2026-04-18T07:29:54.999Z</time></trkpt><trkpt lat="37.8738318761946" lon="15.185899704383772"><ele>146.0</ele><time>2026-04-18T07:29:55.999Z</time></trkpt><trkpt lat="37.87379862629678" lon="15.185700923904848"><ele>147.0</ele><time>2026-04-18T07:29:56.999Z</time></trkpt><trkpt lat="37.873778558789446" lon="15.18554169783685"><ele>147.0</ele><time>2026-04-18T07:29:57.999Z</time></trkpt><trkpt lat="37.8737568015394" lon="15.185400120050154"><ele>147.0</ele><time>2026-04-18T07:29:58.999Z</time></trkpt><trkpt lat="37.87375883687333" lon="15.18524578867195"><ele>147.0</ele><time>2026-04-18T07:29:59.999Z</time></trkpt><trkpt lat="37.873758177623706" lon="15.185077080836786"><ele>147.0</ele><time>2026-04-18T07:30:00.999Z</time></trkpt><trkpt lat="37.87375488092686" lon="15.184898074071025"><ele>147.25</ele><time>2026-04-18T07:30:01.999Z</time></trkpt><trkpt lat="37.8737692869875" lon="15.18473706453666"><ele>147.5</ele><time>2026-04-18T07:30:02.999Z</time></trkpt><trkpt lat="37.87379679849198" lon="15.184567051642581"><ele>147.75</ele><time>2026-04-18T07:30:03.999Z</time></trkpt><trkpt lat="37.87379913841991" lon="15.184408617362477"><ele>148.0</ele><time>2026-04-18T07:30:04.999Z</time></trkpt><trkpt lat="37.873814400358306" lon="15.184288654559355"><ele>148.0</ele><time>2026-04-18T07:30:05.999Z</time></trkpt><trkpt lat="37.873811353581914" lon="15.184168052768728"><ele>148.0</ele><time>2026-04-18T07:30:06.999Z</time></trkpt><trkpt lat="37.873789178892245" lon="15.184006008917567"><ele>148.0</ele><time>2026-04-18T07:30:07.999Z</time></trkpt><trkpt lat="37.87375012898829" lon="15.183827354120073"><ele>148.0</ele><time>2026-04-18T07:30:08.999Z</time></trkpt><trkpt lat="37.873728311249415" lon="15.183644060142736"><ele>148.0</ele><time>2026-04-18T07:30:09.999Z</time></trkpt><trkpt lat="37.873702183388076" lon="15.183464233609941"><ele>148.0</ele><time>2026-04-18T07:30:10.999Z</time></trkpt><trkpt lat="37.87367375918221" lon="15.183277629416414"><ele>148.0</ele><time>2026-04-18T07:30:11.998Z</time></trkpt><trkpt lat="37.873625965077245" lon="15.183097216040949"><ele>148.0</ele><time>2026-04-18T07:30:12.998Z</time></trkpt><trkpt lat="37.87360047920637" lon="15.182934721640322"><ele>148.0</ele><time>2026-04-18T07:30:13.998Z</time></trkpt><trkpt lat="37.873597099843465" lon="15.18276627359"><ele>148.0</ele><time>2026-04-18T07:30:14.998Z</time></trkpt><trkpt lat="37.87358469562913" lon="15.182619389062378"><ele>148.0</ele><time>2026-04-18T07:30:15.998Z</time></trkpt><trkpt lat="37.8735611878064" lon="15.182501802627602"><ele>148.0</ele><time>2026-04-18T07:30:16.998Z</time></trkpt><trkpt lat="37.873570358234296" lon="15.182398079059961"><ele>148.0</ele><time>2026-04-18T07:30:17.998Z</time></trkpt><trkpt lat="37.87356897477609" lon="15.182299853859881"><ele>148.75</ele><time>2026-04-18T07:30:18.998Z</time></trkpt><trkpt lat="37.87359289161529" lon="15.182225009898955"><ele>149.5</ele><time>2026-04-18T07:30:19.998Z</time></trkpt><trkpt lat="37.873648192263545" lon="15.182053045696414"><ele>150.25</ele><time>2026-04-18T07:30:21.998Z</time></trkpt><trkpt lat="37.87368118895277" lon="15.181902428504321"><ele>151.0</ele><time>2026-04-18T07:30:22.998Z</time></trkpt><trkpt lat="37.873722250948" lon="15.181732998082948"><ele>151.0</ele><time>2026-04-18T07:30:23.998Z</time></trkpt><trkpt lat="37.87377239004753" lon="15.18154394212371"><ele>151.0</ele><time>2026-04-18T07:30:24.998Z</time></trkpt><trkpt lat="37.873789440045414" lon="15.181365127401278"><ele>151.0</ele><time>2026-04-18T07:30:25.998Z</time></trkpt><trkpt lat="37.87380219929879" lon="15.181188575473819"><ele>151.0</ele><time>2026-04-18T07:30:26.998Z</time></trkpt><trkpt lat="37.87381222329175" lon="15.181026848697323"><ele>151.6</ele><time>2026-04-18T07:30:27.998Z</time></trkpt><trkpt lat="37.87382969381747" lon="15.18089927562395"><ele>152.2</ele><time>2026-04-18T07:30:28.998Z</time></trkpt><trkpt lat="37.87386256125187" lon="15.180788068564159"><ele>152.8</ele><time>2026-04-18T07:30:29.998Z</time></trkpt><trkpt lat="37.8738976110585" lon="15.180653314065026"><ele>153.4</ele><time>2026-04-18T07:30:30.998Z</time></trkpt><trkpt lat="37.8739233734503" lon="15.180510529113915"><ele>154.0</ele><time>2026-04-18T07:30:31.998Z</time></trkpt><trkpt lat="37.87395598401314" lon="15.180370896507528"><ele>155.0</ele><time>2026-04-18T07:30:32.998Z</time></trkpt><trkpt lat="37.873961422138926" lon="15.1802142431747"><ele>156.0</ele><time>2026-04-18T07:30:33.998Z</time></trkpt><trkpt lat="37.87397347978376" lon="15.180028879107995"><ele>157.0</ele><time>2026-04-18T07:30:34.998Z</time></trkpt><trkpt lat="37.87398751119853" lon="15.179856370803206"><ele>158.0</ele><time>2026-04-18T07:30:35.998Z</time></trkpt><trkpt lat="37.87400347447784" lon="15.179700539686534"><ele>159.5</ele><time>2026-04-18T07:30:36.998Z</time></trkpt><trkpt lat="37.87402752294339" lon="15.179536635877815"><ele>161.0</ele><time>2026-04-18T07:30:37.998Z</time></trkpt><trkpt lat="37.874037624846295" lon="15.17938667166171"><ele>162.5</ele><time>2026-04-18T07:30:38.998Z</time></trkpt><trkpt lat="37.874067938671" lon="15.179256444730932"><ele>164.0</ele><time>2026-04-18T07:30:39.998Z</time></trkpt><trkpt lat="37.8740800691618" lon="15.1791200023515"><ele>165.25</ele><time>2026-04-18T07:30:40.998Z</time></trkpt><trkpt lat="37.874091838641206" lon="15.178984515869118"><ele>166.5</ele><time>2026-04-18T07:30:41.998Z</time></trkpt><trkpt lat="37.87409264598188" lon="15.178839039545213"><ele>167.75</ele><time>2026-04-18T07:30:42.998Z</time></trkpt><trkpt lat="37.874106708616424" lon="15.178704916984294"><ele>169.0</ele><time>2026-04-18T07:30:43.998Z</time></trkpt><trkpt lat="37.87415100038115" lon="15.17856201378571"><ele>169.0</ele><time>2026-04-18T07:30:44.998Z</time></trkpt><trkpt lat="37.874178619417364" lon="15.178414551151961"><ele>169.0</ele><time>2026-04-18T07:30:45.998Z</time></trkpt><trkpt lat="37.8741966750081" lon="15.17826008749089"><ele>169.0</ele><time>2026-04-18T07:30:46.998Z</time></trkpt><trkpt lat="37.87419836224042" lon="15.178113119375361"><ele>169.0</ele><time>2026-04-18T07:30:47.998Z</time></trkpt><trkpt lat="37.87418051081965" lon="15.177975339589002"><ele>168.79999999999998</ele><time>2026-04-18T07:30:48.998Z</time></trkpt><trkpt lat="37.874161915393394" lon="15.177836538642094"><ele>168.6</ele><time>2026-04-18T07:30:49.998Z</time></trkpt><trkpt lat="37.87415058130273" lon="15.17768888689389"><ele>168.4</ele><time>2026-04-18T07:30:50.998Z</time></trkpt><trkpt lat="37.87413245567733" lon="15.177560505052398"><ele>168.2</ele><time>2026-04-18T07:30:51.998Z</time></trkpt><trkpt lat="37.874119854090694" lon="15.177445425101386"><ele>168.0</ele><time>2026-04-18T07:30:52.998Z</time></trkpt><trkpt lat="37.8741120340106" lon="15.177316886018428"><ele>169.0</ele><time>2026-04-18T07:30:53.998Z</time></trkpt><trkpt lat="37.874100395931855" lon="15.177158837926061"><ele>170.0</ele><time>2026-04-18T07:30:54.999Z</time></trkpt><trkpt lat="37.8740738468586" lon="15.177035689982905"><ele>171.0</ele><time>2026-04-18T07:30:55.999Z</time></trkpt><trkpt lat="37.87405816147098" lon="15.17692603237693"><ele>172.0</ele><time>2026-04-18T07:30:56.999Z</time></trkpt><trkpt lat="37.87405098028523" lon="15.1768397405579"><ele>173.0</ele><time>2026-04-18T07:30:57.999Z</time></trkpt><trkpt lat="37.87399241897814" lon="15.176788217195375"><ele>173.0</ele><time>2026-04-18T07:30:58.999Z</time></trkpt><trkpt lat="37.87397000557919" lon="15.17669730383319"><ele>173.0</ele><time>2026-04-18T07:30:59.999Z</time></trkpt><trkpt lat="37.87398790119304" lon="15.176531102630447"><ele>173.0</ele><time>2026-04-18T07:31:01.999Z</time></trkpt><trkpt lat="37.87399312611558" lon="15.176414879793436"><ele>173.0</ele><time>2026-04-18T07:31:02.999Z</time></trkpt><trkpt lat="37.87400347376535" lon="15.176292303025898"><ele>173.0</ele><time>2026-04-18T07:31:03.999Z</time></trkpt><trkpt lat="37.874016210743434" lon="15.176181470350357"><ele>174.66666666666666</ele><time>2026-04-18T07:31:04.999Z</time></trkpt><trkpt lat="37.8740455108102" lon="15.176075030188718"><ele>176.33333333333331</ele><time>2026-04-18T07:31:05.999Z</time></trkpt><trkpt lat="37.87406533517237" lon="15.17596670758391"><ele>178.0</ele><time>2026-04-18T07:31:06.999Z</time></trkpt><trkpt lat="37.87406649471124" lon="15.175868596059383"><ele>179.66666666666666</ele><time>2026-04-18T07:31:07.999Z</time></trkpt><trkpt lat="37.8740835184475" lon="15.17576012959002"><ele>181.33333333333334</ele><time>2026-04-18T07:31:08.999Z</time></trkpt><trkpt lat="37.87410533704643" lon="15.17567740433937"><ele>183.0</ele><time>2026-04-18T07:31:09.999Z</time></trkpt><trkpt lat="37.87413030950129" lon="15.175584553960327"><ele>182.16666666666666</ele><time>2026-04-18T07:31:10.999Z</time></trkpt><trkpt lat="37.87416074032038" lon="15.175490494802629"><ele>181.33333333333334</ele><time>2026-04-18T07:31:11.999Z</time></trkpt><trkpt lat="37.874193353485346" lon="15.175412127370885"><ele>180.5</ele><time>2026-04-18T07:31:12.999Z</time></trkpt><trkpt lat="37.874235672898294" lon="15.17533235704813"><ele>179.66666666666669</ele><time>2026-04-18T07:31:13.999Z</time></trkpt><trkpt lat="37.87426913757043" lon="15.175260530730567"><ele>178.83333333333334</ele><time>2026-04-18T07:31:14.999Z</time></trkpt><trkpt lat="37.87429631101105" lon="15.175167130161817"><ele>178.0</ele><time>2026-04-18T07:31:15.999Z</time></trkpt><trkpt lat="37.87435498956568" lon="15.175066226600153"><ele>178.0</ele><time>2026-04-18T07:31:16.999Z</time></trkpt><trkpt lat="37.874428563279075" lon="15.174985104219884"><ele>178.0</ele><time>2026-04-18T07:31:17.999Z</time></trkpt><trkpt lat="37.87448203080838" lon="15.174848389059244"><ele>178.0</ele><time>2026-04-18T07:31:19.999Z</time></trkpt><trkpt lat="37.87447171183417" lon="15.174719049558801"><ele>178.0</ele><time>2026-04-18T07:31:21.999Z</time></trkpt><trkpt lat="37.87441572821186" lon="15.174618726502542"><ele>178.0</ele><time>2026-04-18T07:31:23.999Z</time></trkpt><trkpt lat="37.874422218562465" lon="15.174468455182875"><ele>178.66666666666669</ele><time>2026-04-18T07:31:25.999Z</time></trkpt><trkpt lat="37.87446989887302" lon="15.174346668621158"><ele>179.33333333333334</ele><time>2026-04-18T07:31:27.999Z</time></trkpt><trkpt lat="37.874539004260406" lon="15.174249424238079"><ele>180.0</ele><time>2026-04-18T07:31:29.999Z</time></trkpt><trkpt lat="37.87459200383548" lon="15.174191743873715"><ele>180.66666666666666</ele><time>2026-04-18T07:32:19.999Z</time></trkpt><trkpt lat="37.874672574487704" lon="15.174187633897583"><ele>181.33333333333331</ele><time>2026-04-18T07:32:22.999Z</time></trkpt><trkpt lat="37.874674957678344" lon="15.174088683308382"><ele>182.0</ele><time>2026-04-18T07:32:26.999Z</time></trkpt><trkpt lat="37.874584103185676" lon="15.174092431232388"><ele>182.0</ele><time>2026-04-18T07:32:29.999Z</time></trkpt><trkpt lat="37.87450393965808" lon="15.17409473238946"><ele>182.0</ele><time>2026-04-18T07:32:52.998Z</time></trkpt><trkpt lat="37.874434269528784" lon="15.174082464306336"><ele>182.0</ele><time>2026-04-18T07:32:53.998Z</time></trkpt><trkpt lat="37.874368647220216" lon="15.174048617295897"><ele>182.0</ele><time>2026-04-18T07:32:54.998Z</time></trkpt><trkpt lat="37.87431754520716" lon="15.173967084919795"><ele>182.0</ele><time>2026-04-18T07:32:56.998Z</time></trkpt><trkpt lat="37.874447616376045" lon="15.173964604229282"><ele>182.0</ele><time>2026-04-18T07:33:00.999Z</time></trkpt><trkpt lat="37.874555187919185" lon="15.173958873274575"><ele>185.16666666666666</ele><time>2026-04-18T07:33:02.999Z</time></trkpt><trkpt lat="37.87459859063115" lon="15.17385036174807"><ele>188.33333333333331</ele><time>2026-04-18T07:33:04.999Z</time></trkpt><trkpt lat="37.874588827481155" lon="15.173771436488732"><ele>191.5</ele><time>2026-04-18T07:33:05.999Z</time></trkpt><trkpt lat="37.87458071335454" lon="15.173689164685312"><ele>194.66666666666666</ele><time>2026-04-18T07:33:06.999Z</time></trkpt><trkpt lat="37.87457908314158" lon="15.1735935622003"><ele>197.83333333333334</ele><time>2026-04-18T07:33:07.999Z</time></trkpt><trkpt lat="37.87459844542479" lon="15.17349524204005"><ele>201.0</ele><time>2026-04-18T07:33:08.999Z</time></trkpt><trkpt lat="37.874617116808395" lon="15.17339375080992"><ele>201.0</ele><time>2026-04-18T07:33:09.999Z</time></trkpt><trkpt lat="37.874640694648825" lon="15.173301052907618"><ele>201.0</ele><time>2026-04-18T07:33:10.999Z</time></trkpt><trkpt lat="37.874662147595835" lon="15.17321647957811"><ele>201.0</ele><time>2026-04-18T07:33:11.999Z</time></trkpt><trkpt lat="37.87467038762219" lon="15.17311533472025"><ele>201.0</ele><time>2026-04-18T07:33:12.999Z</time></trkpt><trkpt lat="37.87467792231098" lon="15.173018143091934"><ele>201.0</ele><time>2026-04-18T07:33:13.999Z</time></trkpt><trkpt lat="37.87470423125272" lon="15.172926010708373"><ele>201.0</ele><time>2026-04-18T07:33:14.999Z</time></trkpt><trkpt lat="37.87473064604332" lon="15.172803390932847"><ele>207.0</ele><time>2026-04-18T07:33:16.999Z</time></trkpt><trkpt lat="37.874711224289726" lon="15.172668102014425"><ele>213.0</ele><time>2026-04-18T07:33:18.999Z</time></trkpt><trkpt lat="37.874747159887725" lon="15.172598116738335"><ele>219.0</ele><time>2026-04-18T07:33:20.999Z</time></trkpt><trkpt lat="37.87481275460243" lon="15.172596402328553"><ele>225.0</ele><time>2026-04-18T07:33:22.999Z</time></trkpt><trkpt lat="37.87487920809025" lon="15.172605957373847"><ele>231.0</ele><time>2026-04-18T07:33:24.999Z</time></trkpt><trkpt lat="37.874959225243515" lon="15.172623586520919"><ele>237.0</ele><time>2026-04-18T07:33:46.999Z</time></trkpt><trkpt lat="37.87502422232516" lon="15.172646748166626"><ele>236.99999999999997</ele><time>2026-04-18T07:33:49.999Z</time></trkpt><trkpt lat="37.87509456412328" lon="15.172667723750198"><ele>237.0</ele><time>2026-04-18T07:33:53.999Z</time></trkpt><trkpt lat="37.87516813553873" lon="15.172684236682503"><ele>236.99999999999997</ele><time>2026-04-18T07:33:58.999Z</time></trkpt><trkpt lat="37.875236286759986" lon="15.17263713763112"><ele>236.99999999999997</ele><time>2026-04-18T07:34:00.999Z</time></trkpt><trkpt lat="37.875309363534534" lon="15.172623475765038"><ele>237.0</ele><time>2026-04-18T07:34:03.999Z</time></trkpt><trkpt lat="37.87538387803447" lon="15.172624762845418"><ele>236.99999999999997</ele><time>2026-04-18T07:34:11.999Z</time></trkpt><trkpt lat="37.87545033550405" lon="15.172619034794446"><ele>236.99999999999997</ele><time>2026-04-18T07:34:13.999Z</time></trkpt><trkpt lat="37.87551912639641" lon="15.172604556494724"><ele>234.0</ele><time>2026-04-18T07:34:15.999Z</time></trkpt><trkpt lat="37.87558495948158" lon="15.172608743717213"><ele>231.0</ele><time>2026-04-18T07:34:17.999Z</time></trkpt><trkpt lat="37.875671804266005" lon="15.172627854728507"><ele>228.0</ele><time>2026-04-18T07:34:20.999Z</time></trkpt><trkpt lat="37.875753073608834" lon="15.17262747648695"><ele>225.0</ele><time>2026-04-18T07:34:22.999Z</time></trkpt><trkpt lat="37.875815996436245" lon="15.172623165100301"><ele>222.0</ele><time>2026-04-18T07:34:25.999Z</time></trkpt><trkpt lat="37.8758885164862" lon="15.172631107804907"><ele>219.0</ele><time>2026-04-18T07:34:53.999Z</time></trkpt><trkpt lat="37.87601880277828" lon="15.172653606731124"><ele>218.66666666666666</ele><time>2026-04-18T07:34:55.999Z</time></trkpt><trkpt lat="37.87608913487598" lon="15.172656350666736"><ele>218.33333333333331</ele><time>2026-04-18T07:34:56.999Z</time></trkpt><trkpt lat="37.87618105606998" lon="15.172683650228452"><ele>218.0</ele><time>2026-04-18T07:34:58.999Z</time></trkpt><trkpt lat="37.87628111503357" lon="15.172644696665648"><ele>217.66666666666666</ele><time>2026-04-18T07:35:01.999Z</time></trkpt><trkpt lat="37.87634761495567" lon="15.172635576949805"><ele>217.33333333333331</ele><time>2026-04-18T07:35:02.999Z</time></trkpt><trkpt lat="37.87640799435056" lon="15.172611629007301"><ele>217.0</ele><time>2026-04-18T07:35:03.999Z</time></trkpt><trkpt lat="37.876471784315505" lon="15.172587694649778"><ele>217.0</ele><time>2026-04-18T07:35:04.999Z</time></trkpt><trkpt lat="37.876566378861675" lon="15.17256013712383"><ele>217.0</ele><time>2026-04-18T07:35:06.999Z</time></trkpt><trkpt lat="37.87665669520322" lon="15.172573714573513"><ele>217.0</ele><time>2026-04-18T07:35:08.999Z</time></trkpt><trkpt lat="37.87671444781045" lon="15.17261478797031"><ele>217.0</ele><time>2026-04-18T07:35:09.999Z</time></trkpt><trkpt lat="37.876818675610004" lon="15.172636959020895"><ele>217.0</ele><time>2026-04-18T07:35:11.999Z</time></trkpt><trkpt lat="37.876925256250885" lon="15.172636315060364"><ele>217.66666666666666</ele><time>2026-04-18T07:35:13.999Z</time></trkpt><trkpt lat="37.87701223334958" lon="15.172560511613863"><ele>218.33333333333331</ele><time>2026-04-18T07:35:15.999Z</time></trkpt><trkpt lat="37.87705733003605" lon="15.172437964998021"><ele>219.0</ele><time>2026-04-18T07:35:17.999Z</time></trkpt><trkpt lat="37.87709434109041" lon="15.172336894049907"><ele>219.66666666666669</ele><time>2026-04-18T07:35:19.999Z</time></trkpt><trkpt lat="37.87713982728448" lon="15.17227969119875"><ele>220.33333333333334</ele><time>2026-04-18T07:35:21.999Z</time></trkpt><trkpt lat="37.877213433324705" lon="15.172309287322904"><ele>221.0</ele><time>2026-04-18T07:35:23.999Z</time></trkpt><trkpt lat="37.877252621110365" lon="15.17240657971297"><ele>221.0</ele><time>2026-04-18T07:35:25.999Z</time></trkpt><trkpt lat="37.87730904576992" lon="15.172507884119694"><ele>221.00000000000003</ele><time>2026-04-18T07:35:27.999Z</time></trkpt><trkpt lat="37.87736066452524" lon="15.172575018390503"><ele>221.00000000000003</ele><time>2026-04-18T07:35:29.999Z</time></trkpt><trkpt lat="37.877365003677866" lon="15.172740933492992"><ele>221.0</ele><time>2026-04-18T07:35:31.999Z</time></trkpt><trkpt lat="37.877377910496435" lon="15.172841137393918"><ele>221.0</ele><time>2026-04-18T07:35:33.999Z</time></trkpt><trkpt lat="37.87744805104775" lon="15.172922774290912"><ele>221.00000000000003</ele><time>2026-04-18T07:35:35.999Z</time></trkpt><trkpt lat="37.87752374816703" lon="15.172901364820406"><ele>221.0</ele><time>2026-04-18T07:35:36.999Z</time></trkpt><trkpt lat="37.87759412851433" lon="15.172890043118313"><ele>221.0</ele><time>2026-04-18T07:35:37.999Z</time></trkpt><trkpt lat="37.87766907597625" lon="15.172891902932072"><ele>221.0</ele><time>2026-04-18T07:35:38.999Z</time></trkpt><trkpt lat="37.87774061772214" lon="15.172903913448092"><ele>221.0</ele><time>2026-04-18T07:35:39.999Z</time></trkpt><trkpt lat="37.877811425714874" lon="15.172941160915263"><ele>221.00000000000003</ele><time>2026-04-18T07:35:40.999Z</time></trkpt><trkpt lat="37.87787022675182" lon="15.17297049977968"><ele>221.0</ele><time>2026-04-18T07:35:41.999Z</time></trkpt><trkpt lat="37.877929106433825" lon="15.173011207996458"><ele>223.0</ele><time>2026-04-18T07:35:42.999Z</time></trkpt><trkpt lat="37.8780434401771" lon="15.173077172157871"><ele>225.00000000000003</ele><time>2026-04-18T07:35:44.999Z</time></trkpt><trkpt lat="37.878158284525824" lon="15.173069513594394"><ele>227.00000000000003</ele><time>2026-04-18T07:35:46.999Z</time></trkpt><trkpt lat="37.87824991653273" lon="15.173099614444652"><ele>229.0</ele><time>2026-04-18T07:35:48.999Z</time></trkpt><trkpt lat="37.878347959704385" lon="15.173165052838886"><ele>231.0</ele><time>2026-04-18T07:35:50.999Z</time></trkpt><trkpt lat="37.87847301410624" lon="15.1731988844659"><ele>228.20000000000002</ele><time>2026-04-18T07:35:52.999Z</time></trkpt><trkpt lat="37.878551907820444" lon="15.1731814796762"><ele>225.40000000000003</ele><time>2026-04-18T07:35:53.999Z</time></trkpt><trkpt lat="37.8786296992741" lon="15.173151263070546"><ele>222.6</ele><time>2026-04-18T07:35:54.999Z</time></trkpt><trkpt lat="37.878715742005035" lon="15.17311785257189"><ele>219.8</ele><time>2026-04-18T07:35:55.999Z</time></trkpt><trkpt lat="37.878778195073835" lon="15.173040780023843"><ele>217.0</ele><time>2026-04-18T07:35:56.999Z</time></trkpt><trkpt lat="37.878885611599564" lon="15.172983272597786"><ele>217.0</ele><time>2026-04-18T07:35:58.999Z</time></trkpt><trkpt lat="37.87899167936897" lon="15.17302567656897"><ele>217.0</ele><time>2026-04-18T07:36:00.999Z</time></trkpt><trkpt lat="37.879070225930896" lon="15.17308494444158"><ele>217.0</ele><time>2026-04-18T07:36:02.999Z</time></trkpt><trkpt lat="37.8791582116763" lon="15.173140675744998"><ele>217.0</ele><time>2026-04-18T07:36:04.999Z</time></trkpt><trkpt lat="37.87925166085444" lon="15.173143739393376"><ele>217.0</ele><time>2026-04-18T07:36:06.999Z</time></trkpt><trkpt lat="37.87931217466677" lon="15.173099476790929"><ele>215.2</ele><time>2026-04-18T07:36:07.999Z</time></trkpt><trkpt lat="37.87935730444008" lon="15.173018882072622"><ele>213.39999999999998</ele><time>2026-04-18T07:36:08.999Z</time></trkpt><trkpt lat="37.87944453567405" lon="15.172902083168767"><ele>211.60000000000002</ele><time>2026-04-18T07:36:10.999Z</time></trkpt><trkpt lat="37.87951326573419" lon="15.172830639722587"><ele>209.8</ele><time>2026-04-18T07:36:11.999Z</time></trkpt><trkpt lat="37.8795562026886" lon="15.172762823094722"><ele>208.0</ele><time>2026-04-18T07:36:12.999Z</time></trkpt><trkpt lat="37.87962223599356" lon="15.172658883405086"><ele>208.0</ele><time>2026-04-18T07:36:13.999Z</time></trkpt><trkpt lat="37.87969742771046" lon="15.1725509996925"><ele>208.0</ele><time>2026-04-18T07:36:14.999Z</time></trkpt><trkpt lat="37.87976753289426" lon="15.17244820955794"><ele>208.0</ele><time>2026-04-18T07:36:15.999Z</time></trkpt><trkpt lat="37.879829753188424" lon="15.172339911064018"><ele>208.0</ele><time>2026-04-18T07:36:16.999Z</time></trkpt><trkpt lat="37.87987704406011" lon="15.172244266237808"><ele>208.0</ele><time>2026-04-18T07:36:17.999Z</time></trkpt><trkpt lat="37.87991090272342" lon="15.172169819452892"><ele>208.60000000000002</ele><time>2026-04-18T07:36:18.999Z</time></trkpt><trkpt lat="37.879945116332486" lon="15.172072039788652"><ele>209.20000000000002</ele><time>2026-04-18T07:36:19.999Z</time></trkpt><trkpt lat="37.87997012867792" lon="15.171954474539977"><ele>209.8</ele><time>2026-04-18T07:36:20.999Z</time></trkpt><trkpt lat="37.87998263085936" lon="15.171823757997677"><ele>210.4</ele><time>2026-04-18T07:36:21.999Z</time></trkpt><trkpt lat="37.87999994163139" lon="15.171691320136535"><ele>211.0</ele><time>2026-04-18T07:36:22.999Z</time></trkpt><trkpt lat="37.88001831289276" lon="15.171554811030092"><ele>212.20000000000002</ele><time>2026-04-18T07:36:23.999Z</time></trkpt><trkpt lat="37.88004063286496" lon="15.171422138478444"><ele>213.4</ele><time>2026-04-18T07:36:24.999Z</time></trkpt><trkpt lat="37.88006857001684" lon="15.17129016833633"><ele>214.6</ele><time>2026-04-18T07:36:25.999Z</time></trkpt><trkpt lat="37.880096275015504" lon="15.17116194613417"><ele>215.8</ele><time>2026-04-18T07:36:26.999Z</time></trkpt><trkpt lat="37.880125026414525" lon="15.1710365356827"><ele>217.0</ele><time>2026-04-18T07:36:27.999Z</time></trkpt><trkpt lat="37.88015507985929" lon="15.170905444000303"><ele>215.39999999999998</ele><time>2026-04-18T07:36:28.999Z</time></trkpt><trkpt lat="37.88018412142636" lon="15.170776863542017"><ele>213.79999999999998</ele><time>2026-04-18T07:36:29.999Z</time></trkpt><trkpt lat="37.88022232171404" lon="15.170647294213062"><ele>212.2</ele><time>2026-04-18T07:36:30.999Z</time></trkpt><trkpt lat="37.88027523969293" lon="15.170501285613902"><ele>210.6</ele><time>2026-04-18T07:36:31.999Z</time></trkpt><trkpt lat="37.88032401706948" lon="15.170380632211684"><ele>209.0</ele><time>2026-04-18T07:36:32.999Z</time></trkpt><trkpt lat="37.8803643656073" lon="15.17025474736432"><ele>209.00000000000003</ele><time>2026-04-18T07:36:33.999Z</time></trkpt><trkpt lat="37.880425441469484" lon="15.170161157483525"><ele>209.0</ele><time>2026-04-18T07:36:34.999Z</time></trkpt><trkpt lat="37.88044774671028" lon="15.170057012276992"><ele>209.0</ele><time>2026-04-18T07:36:35.999Z</time></trkpt><trkpt lat="37.88045701865591" lon="15.169971013068263"><ele>209.0</ele><time>2026-04-18T07:36:36.999Z</time></trkpt><trkpt lat="37.88044397809385" lon="15.169888194960524"><ele>209.00000000000003</ele><time>2026-04-18T07:36:37.999Z</time></trkpt><trkpt lat="37.88046358563757" lon="15.169752254261759"><ele>209.0</ele><time>2026-04-18T07:36:39.999Z</time></trkpt><trkpt lat="37.88051379553115" lon="15.16968415634492"><ele>210.6</ele><time>2026-04-18T07:36:40.999Z</time></trkpt><trkpt lat="37.88057441196606" lon="15.169595022068632"><ele>212.2</ele><time>2026-04-18T07:36:41.999Z</time></trkpt><trkpt lat="37.88062882038003" lon="15.169483988072983"><ele>213.79999999999998</ele><time>2026-04-18T07:36:42.999Z</time></trkpt><trkpt lat="37.88067947315122" lon="15.169363641490591"><ele>215.39999999999998</ele><time>2026-04-18T07:36:43.999Z</time></trkpt><trkpt lat="37.88071211354494" lon="15.169231954809781"><ele>217.0</ele><time>2026-04-18T07:36:44.999Z</time></trkpt><trkpt lat="37.8807286360715" lon="15.16909030074105"><ele>217.39999999999998</ele><time>2026-04-18T07:36:45.999Z</time></trkpt><trkpt lat="37.88076427421153" lon="15.168968245093232"><ele>217.79999999999998</ele><time>2026-04-18T07:36:46.999Z</time></trkpt><trkpt lat="37.8807781896045" lon="15.168863746593077"><ele>218.2</ele><time>2026-04-18T07:36:47.999Z</time></trkpt><trkpt lat="37.880804735037955" lon="15.168781208950277"><ele>218.6</ele><time>2026-04-18T07:36:48.999Z</time></trkpt><trkpt lat="37.880851240236986" lon="15.168686016502852"><ele>219.0</ele><time>2026-04-18T07:36:49.999Z</time></trkpt><trkpt lat="37.88090854477618" lon="15.168562978721454"><ele>218.79999999999998</ele><time>2026-04-18T07:36:50.999Z</time></trkpt><trkpt lat="37.88096674265872" lon="15.168448453804931"><ele>218.59999999999997</ele><time>2026-04-18T07:36:51.999Z</time></trkpt><trkpt lat="37.8810171563756" lon="15.168352735011075"><ele>218.4</ele><time>2026-04-18T07:36:52.999Z</time></trkpt><trkpt lat="37.8810674588825" lon="15.168283134841284"><ele>218.2</ele><time>2026-04-18T07:36:53.999Z</time></trkpt><trkpt lat="37.88112596131525" lon="15.16819271616105"><ele>218.0</ele><time>2026-04-18T07:36:54.999Z</time></trkpt><trkpt lat="37.881198722644896" lon="15.168126138152715"><ele>218.0</ele><time>2026-04-18T07:36:55.999Z</time></trkpt><trkpt lat="37.88125852829839" lon="15.168044325749957"><ele>218.0</ele><time>2026-04-18T07:36:56.999Z</time></trkpt><trkpt lat="37.881337293953536" lon="15.167977634674177"><ele>218.0</ele><time>2026-04-18T07:36:57.999Z</time></trkpt><trkpt lat="37.881400489044196" lon="15.167888113208194"><ele>218.0</ele><time>2026-04-18T07:36:58.999Z</time></trkpt><trkpt lat="37.88149927195974" lon="15.167892847731455"><ele>218.0</ele><time>2026-04-18T07:36:59.999Z</time></trkpt><trkpt lat="37.881594422121935" lon="15.167838492266275"><ele>218.0</ele><time>2026-04-18T07:37:00.999Z</time></trkpt><trkpt lat="37.881698337624755" lon="15.167815662405504"><ele>218.0</ele><time>2026-04-18T07:37:01.999Z</time></trkpt><trkpt lat="37.881800944499176" lon="15.167771676288371"><ele>218.0</ele><time>2026-04-18T07:37:02.999Z</time></trkpt><trkpt lat="37.88190155136367" lon="15.167710835414665"><ele>218.0</ele><time>2026-04-18T07:37:03.999Z</time></trkpt><trkpt lat="37.88199834939227" lon="15.167651776933624"><ele>218.0</ele><time>2026-04-18T07:37:04.999Z</time></trkpt><trkpt lat="37.882082973210636" lon="15.167581036913344"><ele>217.8</ele><time>2026-04-18T07:37:05.999Z</time></trkpt><trkpt lat="37.88217677740004" lon="15.167528336050601"><ele>217.60000000000002</ele><time>2026-04-18T07:37:06.999Z</time></trkpt><trkpt lat="37.882259974654396" lon="15.167432872415427"><ele>217.39999999999998</ele><time>2026-04-18T07:37:07.999Z</time></trkpt><trkpt lat="37.88236504631641" lon="15.167353732593671"><ele>217.2</ele><time>2026-04-18T07:37:08.999Z</time></trkpt><trkpt lat="37.88245020133442" lon="15.16726267597144"><ele>217.0</ele><time>2026-04-18T07:37:09.999Z</time></trkpt><trkpt lat="37.88255334361194" lon="15.167197814914346"><ele>217.75</ele><time>2026-04-18T07:37:10.999Z</time></trkpt><trkpt lat="37.88264160580611" lon="15.167122440201457"><ele>218.5</ele><time>2026-04-18T07:37:11.999Z</time></trkpt><trkpt lat="37.882752662628505" lon="15.167025744384263"><ele>219.25</ele><time>2026-04-18T07:37:12.999Z</time></trkpt><trkpt lat="37.882840244972364" lon="15.166929872080454"><ele>220.0</ele><time>2026-04-18T07:37:13.999Z</time></trkpt><trkpt lat="37.882935310289504" lon="15.166857196190252"><ele>220.0</ele><time>2026-04-18T07:37:14.999Z</time></trkpt><trkpt lat="37.88303419248879" lon="15.16679773886402"><ele>220.0</ele><time>2026-04-18T07:37:15.999Z</time></trkpt><trkpt lat="37.883142908221544" lon="15.166729839461327"><ele>220.0</ele><time>2026-04-18T07:37:16.999Z</time></trkpt><trkpt lat="37.88324983231798" lon="15.166656935637187"><ele>220.0</ele><time>2026-04-18T07:37:17.999Z</time></trkpt><trkpt lat="37.88335985022609" lon="15.166589013407984"><ele>219.6</ele><time>2026-04-18T07:37:18.999Z</time></trkpt><trkpt lat="37.88345960607845" lon="15.166519208630634"><ele>219.2</ele><time>2026-04-18T07:37:19.999Z</time></trkpt><trkpt lat="37.883548706526625" lon="15.166452921372802"><ele>218.8</ele><time>2026-04-18T07:37:20.999Z</time></trkpt><trkpt lat="37.88364153464272" lon="15.166411858271028"><ele>218.4</ele><time>2026-04-18T07:37:21.999Z</time></trkpt><trkpt lat="37.88371783181084" lon="15.166365641327193"><ele>218.0</ele><time>2026-04-18T07:37:23Z</time></trkpt><trkpt lat="37.88378185142677" lon="15.166298675070921"><ele>218.00000000000003</ele><time>2026-04-18T07:37:24Z</time></trkpt><trkpt lat="37.883841795213556" lon="15.166242711631787"><ele>218.0</ele><time>2026-04-18T07:37:25Z</time></trkpt><trkpt lat="37.88387920269163" lon="15.16615734137601"><ele>218.0</ele><time>2026-04-18T07:37:26Z</time></trkpt><trkpt lat="37.883883452080084" lon="15.166055247886248"><ele>218.0</ele><time>2026-04-18T07:37:27Z</time></trkpt><trkpt lat="37.883868921765064" lon="15.165933898002848"><ele>218.00000000000003</ele><time>2026-04-18T07:37:28Z</time></trkpt><trkpt lat="37.88384246358769" lon="15.165809238487169"><ele>218.0</ele><time>2026-04-18T07:37:29Z</time></trkpt><trkpt lat="37.883823130870084" lon="15.165678263916039"><ele>219.0</ele><time>2026-04-18T07:37:30Z</time></trkpt><trkpt lat="37.8837976050584" lon="15.1655686076817"><ele>220.0</ele><time>2026-04-18T07:37:31Z</time></trkpt><trkpt lat="37.883730770604416" lon="15.165436617650549"><ele>221.0</ele><time>2026-04-18T07:37:32Z</time></trkpt><trkpt lat="37.88367157461684" lon="15.165328509315431"><ele>222.0</ele><time>2026-04-18T07:37:33Z</time></trkpt><trkpt lat="37.883652927548624" lon="15.165225437355279"><ele>223.0</ele><time>2026-04-18T07:37:34Z</time></trkpt><trkpt lat="37.88364184577116" lon="15.165144423150906"><ele>223.0</ele><time>2026-04-18T07:37:35Z</time></trkpt><trkpt lat="37.88369293424452" lon="15.165078644019458"><ele>223.0</ele><time>2026-04-18T07:37:36Z</time></trkpt><trkpt lat="37.88372482351099" lon="15.164975963852134"><ele>223.0</ele><time>2026-04-18T07:37:37Z</time></trkpt><trkpt lat="37.883765837215385" lon="15.164840779885564"><ele>223.0</ele><time>2026-04-18T07:37:38Z</time></trkpt><trkpt lat="37.88380230551447" lon="15.164719979211007"><ele>223.0</ele><time>2026-04-18T07:37:39Z</time></trkpt><trkpt lat="37.883851205240255" lon="15.164611532442624"><ele>223.5</ele><time>2026-04-18T07:37:40Z</time></trkpt><trkpt lat="37.88393550006973" lon="15.164528549995136"><ele>224.0</ele><time>2026-04-18T07:37:41Z</time></trkpt><trkpt lat="37.88402768713471" lon="15.164424621118187"><ele>224.5</ele><time>2026-04-18T07:37:42Z</time></trkpt><trkpt lat="37.88411427674558" lon="15.164330890009625"><ele>225.0</ele><time>2026-04-18T07:37:43Z</time></trkpt><trkpt lat="37.88420472740134" lon="15.16424991952125"><ele>225.16666666666666</ele><time>2026-04-18T07:37:44Z</time></trkpt><trkpt lat="37.88429523210013" lon="15.164175708981052"><ele>225.33333333333331</ele><time>2026-04-18T07:37:45Z</time></trkpt><trkpt lat="37.88436735520353" lon="15.164106010657502"><ele>225.5</ele><time>2026-04-18T07:37:46Z</time></trkpt><trkpt lat="37.884453735483774" lon="15.164087093536084"><ele>225.66666666666666</ele><time>2026-04-18T07:37:47Z</time></trkpt><trkpt lat="37.88453152827487" lon="15.164148929111683"><ele>225.83333333333331</ele><time>2026-04-18T07:37:48Z</time></trkpt><trkpt lat="37.884598221289316" lon="15.164133605233284"><ele>226.0</ele><time>2026-04-18T07:37:49Z</time></trkpt><trkpt lat="37.88466618781253" lon="15.164140307605285"><ele>228.5</ele><time>2026-04-18T07:37:50Z</time></trkpt><trkpt lat="37.88472380802914" lon="15.163988257310596"><ele>231.0</ele><time>2026-04-18T07:37:51Z</time></trkpt><trkpt lat="37.884818651004196" lon="15.163904877087665"><ele>233.5</ele><time>2026-04-18T07:37:52Z</time></trkpt><trkpt lat="37.88490249519055" lon="15.163807897888951"><ele>236.0</ele><time>2026-04-18T07:37:53Z</time></trkpt><trkpt lat="37.88498631450779" lon="15.163695825088796"><ele>236.0</ele><time>2026-04-18T07:37:54Z</time></trkpt><trkpt lat="37.88507214989788" lon="15.163585569654188"><ele>236.0</ele><time>2026-04-18T07:37:55Z</time></trkpt><trkpt lat="37.885168858855046" lon="15.163489934996502"><ele>236.0</ele><time>2026-04-18T07:37:55.999Z</time></trkpt><trkpt lat="37.88526527121149" lon="15.1634025727799"><ele>236.0</ele><time>2026-04-18T07:37:56.999Z</time></trkpt><trkpt lat="37.88537498174567" lon="15.16335942474086"><ele>234.5</ele><time>2026-04-18T07:37:57.999Z</time></trkpt><trkpt lat="37.88547432672639" lon="15.163283647898682"><ele>233.0</ele><time>2026-04-18T07:37:58.999Z</time></trkpt><trkpt lat="37.88557696492068" lon="15.163220803473342"><ele>231.5</ele><time>2026-04-18T07:37:59.999Z</time></trkpt><trkpt lat="37.885675525479975" lon="15.16314768777652"><ele>230.0</ele><time>2026-04-18T07:38:00.999Z</time></trkpt><trkpt lat="37.885769956288556" lon="15.163071960173198"><ele>230.2</ele><time>2026-04-18T07:38:01.999Z</time></trkpt><trkpt lat="37.885861595148405" lon="15.16299116906501"><ele>230.4</ele><time>2026-04-18T07:38:02.999Z</time></trkpt><trkpt lat="37.88595331157702" lon="15.162907785618671"><ele>230.60000000000002</ele><time>2026-04-18T07:38:03.999Z</time></trkpt><trkpt lat="37.88603143158753" lon="15.162823211288227"><ele>230.8</ele><time>2026-04-18T07:38:04.999Z</time></trkpt><trkpt lat="37.886123517821744" lon="15.162765714343342"><ele>231.0</ele><time>2026-04-18T07:38:05.999Z</time></trkpt><trkpt lat="37.88621931937926" lon="15.162705675601346"><ele>231.0</ele><time>2026-04-18T07:38:06.999Z</time></trkpt><trkpt lat="37.886310206133395" lon="15.16263682541123"><ele>231.00000000000003</ele><time>2026-04-18T07:38:07.999Z</time></trkpt><trkpt lat="37.886406496745515" lon="15.162627203999824"><ele>231.00000000000003</ele><time>2026-04-18T07:38:08.999Z</time></trkpt><trkpt lat="37.88650445354319" lon="15.162610600540704"><ele>231.0</ele><time>2026-04-18T07:38:09.999Z</time></trkpt><trkpt lat="37.88660979239997" lon="15.162572694631692"><ele>231.0</ele><time>2026-04-18T07:38:10.999Z</time></trkpt><trkpt lat="37.88671687264576" lon="15.16254556828949"><ele>231.4</ele><time>2026-04-18T07:38:11.999Z</time></trkpt><trkpt lat="37.88681686520405" lon="15.162496684173263"><ele>231.8</ele><time>2026-04-18T07:38:12.999Z</time></trkpt><trkpt lat="37.88691202321017" lon="15.162454142646812"><ele>232.20000000000002</ele><time>2026-04-18T07:38:13.999Z</time></trkpt><trkpt lat="37.88700828594502" lon="15.162391716383528"><ele>232.60000000000002</ele><time>2026-04-18T07:38:14.999Z</time></trkpt><trkpt lat="37.887097126427676" lon="15.162292287952313"><ele>233.0</ele><time>2026-04-18T07:38:15.999Z</time></trkpt><trkpt lat="37.88717313124722" lon="15.162182326891957"><ele>233.0</ele><time>2026-04-18T07:38:16.999Z</time></trkpt><trkpt lat="37.88725287238537" lon="15.162080258414283"><ele>233.0</ele><time>2026-04-18T07:38:17.999Z</time></trkpt><trkpt lat="37.8873252198329" lon="15.161994219532968"><ele>233.0</ele><time>2026-04-18T07:38:18.999Z</time></trkpt><trkpt lat="37.88739662725468" lon="15.161927649003525"><ele>233.0</ele><time>2026-04-18T07:38:19.999Z</time></trkpt><trkpt lat="37.88746541015504" lon="15.161870218021098"><ele>233.0</ele><time>2026-04-18T07:38:20.999Z</time></trkpt><trkpt lat="37.887557136438694" lon="15.161889055786238"><ele>231.2</ele><time>2026-04-18T07:38:21.999Z</time></trkpt><trkpt lat="37.88763787967645" lon="15.161896439730985"><ele>229.4</ele><time>2026-04-18T07:38:22.999Z</time></trkpt><trkpt lat="37.88771116171264" lon="15.16186325199734"><ele>227.59999999999997</ele><time>2026-04-18T07:38:23.999Z</time></trkpt><trkpt lat="37.887778946844406" lon="15.16179944808424"><ele>225.79999999999998</ele><time>2026-04-18T07:38:24.999Z</time></trkpt><trkpt lat="37.88785148398961" lon="15.161717596956622"><ele>224.0</ele><time>2026-04-18T07:38:25.999Z</time></trkpt><trkpt lat="37.88787843220524" lon="15.161582379377284"><ele>224.75</ele><time>2026-04-18T07:38:26.999Z</time></trkpt><trkpt lat="37.88790660213748" lon="15.161443250270793"><ele>225.5</ele><time>2026-04-18T07:38:27.999Z</time></trkpt><trkpt lat="37.88791410644362" lon="15.161275485247474"><ele>226.25</ele><time>2026-04-18T07:38:28.999Z</time></trkpt><trkpt lat="37.887915666929274" lon="15.161097525605838"><ele>227.0</ele><time>2026-04-18T07:38:29.999Z</time></trkpt><trkpt lat="37.88791798428562" lon="15.160935063181407"><ele>227.0</ele><time>2026-04-18T07:38:30.999Z</time></trkpt><trkpt lat="37.88792630706691" lon="15.160791744273968"><ele>227.0</ele><time>2026-04-18T07:38:31.999Z</time></trkpt><trkpt lat="37.88796029484654" lon="15.160668236888734"><ele>227.0</ele><time>2026-04-18T07:38:32.999Z</time></trkpt><trkpt lat="37.88800419015864" lon="15.160543551073589"><ele>227.0</ele><time>2026-04-18T07:38:33.999Z</time></trkpt><trkpt lat="37.88805487228661" lon="15.160394640554763"><ele>228.0</ele><time>2026-04-18T07:38:34.999Z</time></trkpt><trkpt lat="37.888105828984116" lon="15.160244923226395"><ele>229.0</ele><time>2026-04-18T07:38:35.999Z</time></trkpt><trkpt lat="37.88815209320051" lon="15.160108995710418"><ele>230.0</ele><time>2026-04-18T07:38:36.999Z</time></trkpt><trkpt lat="37.888185239467255" lon="15.159975025457136"><ele>231.0</ele><time>2026-04-18T07:38:37.999Z</time></trkpt><trkpt lat="37.88824018020269" lon="15.159870070760206"><ele>231.75</ele><time>2026-04-18T07:38:38.999Z</time></trkpt><trkpt lat="37.88827021048543" lon="15.159747833740889"><ele>232.5</ele><time>2026-04-18T07:38:39.999Z</time></trkpt><trkpt lat="37.88826466546701" lon="15.159614827039531"><ele>233.25</ele><time>2026-04-18T07:38:40.999Z</time></trkpt><trkpt lat="37.88820454308013" lon="15.159476965043359"><ele>234.0</ele><time>2026-04-18T07:38:41.999Z</time></trkpt><trkpt lat="37.88815041124769" lon="15.159340294324265"><ele>234.0</ele><time>2026-04-18T07:38:42.999Z</time></trkpt><trkpt lat="37.88808897810449" lon="15.159181975139655"><ele>234.0</ele><time>2026-04-18T07:38:43.999Z</time></trkpt><trkpt lat="37.88804572756402" lon="15.159012572759298"><ele>234.0</ele><time>2026-04-18T07:38:44.999Z</time></trkpt><trkpt lat="37.88799611472684" lon="15.158867161492545"><ele>234.0</ele><time>2026-04-18T07:38:45.999Z</time></trkpt><trkpt lat="37.88796929762132" lon="15.158746193327175"><ele>234.39999999999998</ele><time>2026-04-18T07:38:46.999Z</time></trkpt><trkpt lat="37.887967034872275" lon="15.158636737040558"><ele>234.79999999999998</ele><time>2026-04-18T07:38:47.999Z</time></trkpt><trkpt lat="37.88801022492057" lon="15.158547806069135"><ele>235.20000000000002</ele><time>2026-04-18T07:38:48.999Z</time></trkpt><trkpt lat="37.888068819357485" lon="15.158451537299328"><ele>235.60000000000002</ele><time>2026-04-18T07:38:49.999Z</time></trkpt><trkpt lat="37.88815319621985" lon="15.158351181675801"><ele>236.0</ele><time>2026-04-18T07:38:50.999Z</time></trkpt><trkpt lat="37.888243659293174" lon="15.158226563400126"><ele>237.0</ele><time>2026-04-18T07:38:51.999Z</time></trkpt><trkpt lat="37.88832908124713" lon="15.15808985757251"><ele>238.0</ele><time>2026-04-18T07:38:52.999Z</time></trkpt><trkpt lat="37.88838901837193" lon="15.157920657596838"><ele>239.0</ele><time>2026-04-18T07:38:53.999Z</time></trkpt><trkpt lat="37.88844658241621" lon="15.157752493545352"><ele>240.0</ele><time>2026-04-18T07:38:54.999Z</time></trkpt><trkpt lat="37.88853685491298" lon="15.157615046501666"><ele>239.25</ele><time>2026-04-18T07:38:55.999Z</time></trkpt><trkpt lat="37.888623168460555" lon="15.157496391265948"><ele>238.5</ele><time>2026-04-18T07:38:56.999Z</time></trkpt><trkpt lat="37.88870616970117" lon="15.157387594266831"><ele>237.75</ele><time>2026-04-18T07:38:57.999Z</time></trkpt><trkpt lat="37.88879099194372" lon="15.157280083405949"><ele>237.0</ele><time>2026-04-18T07:38:58.999Z</time></trkpt><trkpt lat="37.8888783022821" lon="15.157169955359139"><ele>237.0</ele><time>2026-04-18T07:38:59.999Z</time></trkpt><trkpt lat="37.88896724948716" lon="15.15705854063648"><ele>237.0</ele><time>2026-04-18T07:39:00.999Z</time></trkpt><trkpt lat="37.889048122269436" lon="15.156957239829893"><ele>237.0</ele><time>2026-04-18T07:39:01.999Z</time></trkpt><trkpt lat="37.889115934496694" lon="15.156856079257167"><ele>237.0</ele><time>2026-04-18T07:39:02.999Z</time></trkpt><trkpt lat="37.88918109136302" lon="15.156742712716817"><ele>237.0</ele><time>2026-04-18T07:39:03.999Z</time></trkpt><trkpt lat="37.88921430324139" lon="15.156606522328005"><ele>237.0</ele><time>2026-04-18T07:39:04.999Z</time></trkpt><trkpt lat="37.88922217213816" lon="15.156450875854814"><ele>237.0</ele><time>2026-04-18T07:39:05.999Z</time></trkpt><trkpt lat="37.889216005388455" lon="15.15629415624827"><ele>237.0</ele><time>2026-04-18T07:39:06.999Z</time></trkpt><trkpt lat="37.88922941131829" lon="15.156141383602149"><ele>238.0</ele><time>2026-04-18T07:39:07.999Z</time></trkpt><trkpt lat="37.88924651498594" lon="15.156004323109105"><ele>239.0</ele><time>2026-04-18T07:39:08.999Z</time></trkpt><trkpt lat="37.88928489543572" lon="15.155876282619733"><ele>240.0</ele><time>2026-04-18T07:39:09.999Z</time></trkpt><trkpt lat="37.88932732598995" lon="15.155738798316836"><ele>241.0</ele><time>2026-04-18T07:39:10.999Z</time></trkpt><trkpt lat="37.88937023290296" lon="15.155612262119238"><ele>242.0</ele><time>2026-04-18T07:39:11.999Z</time></trkpt><trkpt lat="37.889418578585996" lon="15.155499458523671"><ele>243.25</ele><time>2026-04-18T07:39:12.999Z</time></trkpt><trkpt lat="37.88949047517043" lon="15.155400838423581"><ele>244.5</ele><time>2026-04-18T07:39:13.999Z</time></trkpt><trkpt lat="37.889588355776915" lon="15.155286851089906"><ele>245.75</ele><time>2026-04-18T07:39:14.999Z</time></trkpt><trkpt lat="37.88970393980686" lon="15.155162155799074"><ele>247.0</ele><time>2026-04-18T07:39:15.999Z</time></trkpt><trkpt lat="37.88981784107913" lon="15.155044166789537"><ele>247.0</ele><time>2026-04-18T07:39:16.999Z</time></trkpt><trkpt lat="37.88993365964501" lon="15.154904899717195"><ele>247.0</ele><time>2026-04-18T07:39:17.999Z</time></trkpt><trkpt lat="37.89005384427602" lon="15.154785840224433"><ele>247.0</ele><time>2026-04-18T07:39:19Z</time></trkpt><trkpt lat="37.89016067766949" lon="15.154673553423983"><ele>247.5</ele><time>2026-04-18T07:39:20Z</time></trkpt><trkpt lat="37.89025859951995" lon="15.154549073652204"><ele>248.0</ele><time>2026-04-18T07:39:21Z</time></trkpt><trkpt lat="37.89034875429117" lon="15.15441567888084"><ele>248.5</ele><time>2026-04-18T07:39:22Z</time></trkpt><trkpt lat="37.89043658846776" lon="15.154269794226792"><ele>249.0</ele><time>2026-04-18T07:39:23Z</time></trkpt><trkpt lat="37.89052278829108" lon="15.154117519090333"><ele>250.5</ele><time>2026-04-18T07:39:24Z</time></trkpt><trkpt lat="37.89060409875685" lon="15.153980008927256"><ele>252.0</ele><time>2026-04-18T07:39:25Z</time></trkpt><trkpt lat="37.890656687796735" lon="15.153850062291873"><ele>253.5</ele><time>2026-04-18T07:39:26Z</time></trkpt><trkpt lat="37.89071199481819" lon="15.153738402417963"><ele>255.0</ele><time>2026-04-18T07:39:27Z</time></trkpt><trkpt lat="37.89079885702837" lon="15.153655673851892"><ele>255.0</ele><time>2026-04-18T07:39:28Z</time></trkpt><trkpt lat="37.8908941570885" lon="15.1535683481745"><ele>255.0</ele><time>2026-04-18T07:39:29Z</time></trkpt><trkpt lat="37.89099112070825" lon="15.153447920382359"><ele>255.0</ele><time>2026-04-18T07:39:30Z</time></trkpt><trkpt lat="37.89110793059963" lon="15.153356868834258"><ele>255.0</ele><time>2026-04-18T07:39:31Z</time></trkpt><trkpt lat="37.89120186431009" lon="15.153247748266068"><ele>255.0</ele><time>2026-04-18T07:39:32Z</time></trkpt><trkpt lat="37.89128608034619" lon="15.153160125107505"><ele>255.0</ele><time>2026-04-18T07:39:33Z</time></trkpt><trkpt lat="37.89136668296831" lon="15.153084984324073"><ele>255.0</ele><time>2026-04-18T07:39:34Z</time></trkpt><trkpt lat="37.891445485784104" lon="15.153000306772912"><ele>255.0</ele><time>2026-04-18T07:39:35Z</time></trkpt><trkpt lat="37.891513577304245" lon="15.152891297550205"><ele>255.0</ele><time>2026-04-18T07:39:36Z</time></trkpt><trkpt lat="37.89156263518263" lon="15.152751590520433"><ele>255.0</ele><time>2026-04-18T07:39:37Z</time></trkpt><trkpt lat="37.89160611696666" lon="15.152582138686327"><ele>255.0</ele><time>2026-04-18T07:39:38Z</time></trkpt><trkpt lat="37.89167670087442" lon="15.15241421109731"><ele>255.0</ele><time>2026-04-18T07:39:39Z</time></trkpt><trkpt lat="37.891715136405075" lon="15.152237743489977"><ele>255.0</ele><time>2026-04-18T07:39:40Z</time></trkpt><trkpt lat="37.89176800144905" lon="15.152076442266827"><ele>256.25</ele><time>2026-04-18T07:39:41Z</time></trkpt><trkpt lat="37.89181812950776" lon="15.151924103556645"><ele>257.5</ele><time>2026-04-18T07:39:42Z</time></trkpt><trkpt lat="37.89187106533411" lon="15.151774956851447"><ele>258.75</ele><time>2026-04-18T07:39:43Z</time></trkpt><trkpt lat="37.89192178866785" lon="15.151630051120511"><ele>260.0</ele><time>2026-04-18T07:39:44Z</time></trkpt><trkpt lat="37.89197080062091" lon="15.151477145103609"><ele>261.5</ele><time>2026-04-18T07:39:45Z</time></trkpt><trkpt lat="37.8920123349609" lon="15.151330706415218"><ele>263.0</ele><time>2026-04-18T07:39:46Z</time></trkpt><trkpt lat="37.89205499482161" lon="15.151180829976855"><ele>264.5</ele><time>2026-04-18T07:39:47Z</time></trkpt><trkpt lat="37.89208973890475" lon="15.151030905105232"><ele>266.0</ele><time>2026-04-18T07:39:48Z</time></trkpt><trkpt lat="37.89212286234385" lon="15.15088606371986"><ele>266.0</ele><time>2026-04-18T07:39:49Z</time></trkpt><trkpt lat="37.89215636201417" lon="15.150750060124013"><ele>266.0</ele><time>2026-04-18T07:39:50Z</time></trkpt><trkpt lat="37.89218580628351" lon="15.150630571024392"><ele>266.0</ele><time>2026-04-18T07:39:51Z</time></trkpt><trkpt lat="37.892215430303494" lon="15.150526053397924"><ele>266.0</ele><time>2026-04-18T07:39:52Z</time></trkpt><trkpt lat="37.89223546379933" lon="15.150446242628433"><ele>266.0</ele><time>2026-04-18T07:39:53Z</time></trkpt><trkpt lat="37.89228303129552" lon="15.150361910557963"><ele>266.0</ele><time>2026-04-18T07:39:55Z</time></trkpt><trkpt lat="37.89239728375389" lon="15.150397400653048"><ele>266.8</ele><time>2026-04-18T07:39:58Z</time></trkpt><trkpt lat="37.892495124445716" lon="15.150409584800363"><ele>267.6</ele><time>2026-04-18T07:40:00Z</time></trkpt><trkpt lat="37.89263113140043" lon="15.150426521822693"><ele>268.4</ele><time>2026-04-18T07:40:02Z</time></trkpt><trkpt lat="37.892715337457936" lon="15.150437008046547"><ele>269.2</ele><time>2026-04-18T07:40:03Z</time></trkpt><trkpt lat="37.89280224073018" lon="15.15044997770212"><ele>270.0</ele><time>2026-04-18T07:40:04Z</time></trkpt><trkpt lat="37.89288738206408" lon="15.150465901430056"><ele>270.0</ele><time>2026-04-18T07:40:05Z</time></trkpt><trkpt lat="37.89297887332423" lon="15.15049196696881"><ele>270.0</ele><time>2026-04-18T07:40:06Z</time></trkpt><trkpt lat="37.89306319451388" lon="15.150519622442486"><ele>270.0</ele><time>2026-04-18T07:40:07Z</time></trkpt><trkpt lat="37.893146354085616" lon="15.150524920245191"><ele>270.0</ele><time>2026-04-18T07:40:08Z</time></trkpt><trkpt lat="37.89322858205085" lon="15.150561177006765"><ele>270.0</ele><time>2026-04-18T07:40:09Z</time></trkpt><trkpt lat="37.89331796573411" lon="15.150595905661884"><ele>270.0</ele><time>2026-04-18T07:40:10Z</time></trkpt><trkpt lat="37.89341752378718" lon="15.15062912821704"><ele>269.8</ele><time>2026-04-18T07:40:11Z</time></trkpt><trkpt lat="37.893519797722625" lon="15.150661071674183"><ele>269.6</ele><time>2026-04-18T07:40:12Z</time></trkpt><trkpt lat="37.89362924742993" lon="15.150696606087115"><ele>269.4</ele><time>2026-04-18T07:40:13Z</time></trkpt><trkpt lat="37.893732275529516" lon="15.150752186083869"><ele>269.2</ele><time>2026-04-18T07:40:14Z</time></trkpt><trkpt lat="37.89384775607604" lon="15.150774132639778"><ele>269.0</ele><time>2026-04-18T07:40:15Z</time></trkpt><trkpt lat="37.89396067094398" lon="15.150835925234327"><ele>268.5</ele><time>2026-04-18T07:40:16Z</time></trkpt><trkpt lat="37.894070476086185" lon="15.150876183656933"><ele>268.0</ele><time>2026-04-18T07:40:17Z</time></trkpt><trkpt lat="37.89417315343062" lon="15.15091399565733"><ele>267.5</ele><time>2026-04-18T07:40:18Z</time></trkpt><trkpt lat="37.894281990825824" lon="15.150954135121031"><ele>267.0</ele><time>2026-04-18T07:40:19Z</time></trkpt><trkpt lat="37.894395943818544" lon="15.150995673837679"><ele>266.6</ele><time>2026-04-18T07:40:20Z</time></trkpt><trkpt lat="37.89450776396252" lon="15.151013083501914"><ele>266.2</ele><time>2026-04-18T07:40:21Z</time></trkpt><trkpt lat="37.894611416198984" lon="15.151053045907918"><ele>265.8</ele><time>2026-04-18T07:40:22Z</time></trkpt><trkpt lat="37.89471988291908" lon="15.15108934879178"><ele>265.4</ele><time>2026-04-18T07:40:23Z</time></trkpt><trkpt lat="37.894830171554624" lon="15.151126572529265"><ele>265.0</ele><time>2026-04-18T07:40:24Z</time></trkpt><trkpt lat="37.89494446677088" lon="15.151167346847677"><ele>265.0</ele><time>2026-04-18T07:40:24.999Z</time></trkpt><trkpt lat="37.89506182126098" lon="15.151210477244021"><ele>265.0</ele><time>2026-04-18T07:40:25.999Z</time></trkpt><trkpt lat="37.895180275675024" lon="15.151229931509837"><ele>265.0</ele><time>2026-04-18T07:40:26.999Z</time></trkpt><trkpt lat="37.89530073989802" lon="15.151254847092162"><ele>265.0</ele><time>2026-04-18T07:40:27.999Z</time></trkpt><trkpt lat="37.89541238354649" lon="15.151277668872982"><ele>264.8</ele><time>2026-04-18T07:40:28.999Z</time></trkpt><trkpt lat="37.895521823841854" lon="15.151298584478694"><ele>264.6</ele><time>2026-04-18T07:40:29.999Z</time></trkpt><trkpt lat="37.89563160023475" lon="15.15131794499635"><ele>264.4</ele><time>2026-04-18T07:40:30.999Z</time></trkpt><trkpt lat="37.89573281018454" lon="15.151338646300966"><ele>264.2</ele><time>2026-04-18T07:40:31.999Z</time></trkpt><trkpt lat="37.89582715615543" lon="15.151357386445309"><ele>264.0</ele><time>2026-04-18T07:40:32.999Z</time></trkpt><trkpt lat="37.89591511616444" lon="15.151380977671073"><ele>264.0</ele><time>2026-04-18T07:40:33.999Z</time></trkpt><trkpt lat="37.89599699001143" lon="15.151395746512422"><ele>264.0</ele><time>2026-04-18T07:40:34.999Z</time></trkpt><trkpt lat="37.89606815139242" lon="15.151410479209932"><ele>264.0</ele><time>2026-04-18T07:40:35.999Z</time></trkpt><trkpt lat="37.89612979481209" lon="15.151427508649634"><ele>264.0</ele><time>2026-04-18T07:40:36.999Z</time></trkpt><trkpt lat="37.896234039795615" lon="15.151459230807538"><ele>264.0</ele><time>2026-04-18T07:40:38.999Z</time></trkpt><trkpt lat="37.89630851262983" lon="15.151490154924863"><ele>264.0</ele><time>2026-04-18T07:40:40.999Z</time></trkpt><trkpt lat="37.89638091373646" lon="15.15149208018869"><ele>264.0</ele><time>2026-04-18T07:40:44.999Z</time></trkpt><trkpt lat="37.896474200991236" lon="15.151377255678998"><ele>264.0</ele><time>2026-04-18T07:40:46.999Z</time></trkpt><trkpt lat="37.89652066512018" lon="15.151249350387287"><ele>264.0</ele><time>2026-04-18T07:40:47.999Z</time></trkpt><trkpt lat="37.896567566113816" lon="15.151108666096357"><ele>264.0</ele><time>2026-04-18T07:40:48.999Z</time></trkpt><trkpt lat="37.89663747501961" lon="15.150928319501094"><ele>264.0</ele><time>2026-04-18T07:40:49.999Z</time></trkpt><trkpt lat="37.89670943189471" lon="15.150744707596347"><ele>264.0</ele><time>2026-04-18T07:40:50.999Z</time></trkpt><trkpt lat="37.896790159283135" lon="15.150569742972955"><ele>264.0</ele><time>2026-04-18T07:40:51.999Z</time></trkpt><trkpt lat="37.89684697188985" lon="15.150365457986485"><ele>264.6666666666667</ele><time>2026-04-18T07:40:52.999Z</time></trkpt><trkpt lat="37.89691244350573" lon="15.150183396271647"><ele>265.33333333333337</ele><time>2026-04-18T07:40:53.999Z</time></trkpt><trkpt lat="37.896979062127365" lon="15.15000971241633"><ele>266.0</ele><time>2026-04-18T07:40:54.999Z</time></trkpt><trkpt lat="37.89706745465039" lon="15.149822643926687"><ele>267.0</ele><time>2026-04-18T07:40:55.999Z</time></trkpt><trkpt lat="37.897157671040816" lon="15.14964816513016"><ele>268.0</ele><time>2026-04-18T07:40:56.999Z</time></trkpt><trkpt lat="37.89725556345214" lon="15.149481600806128"><ele>269.0</ele><time>2026-04-18T07:40:57.999Z</time></trkpt><trkpt lat="37.89735981687649" lon="15.149320505408873"><ele>269.0</ele><time>2026-04-18T07:40:58.999Z</time></trkpt><trkpt lat="37.897480866363516" lon="15.149186237039688"><ele>269.0</ele><time>2026-04-18T07:40:59.999Z</time></trkpt><trkpt lat="37.89757324011607" lon="15.14904411401736"><ele>269.0</ele><time>2026-04-18T07:41:00.999Z</time></trkpt><trkpt lat="37.89766690698698" lon="15.148926398647099"><ele>269.0</ele><time>2026-04-18T07:41:01.999Z</time></trkpt><trkpt lat="37.89774465038543" lon="15.14881736517918"><ele>270.25</ele><time>2026-04-18T07:41:02.999Z</time></trkpt><trkpt lat="37.89782811003821" lon="15.148706479826856"><ele>271.5</ele><time>2026-04-18T07:41:03.999Z</time></trkpt><trkpt lat="37.897913838767955" lon="15.148596685434303"><ele>272.75</ele><time>2026-04-18T07:41:04.999Z</time></trkpt><trkpt lat="37.898005291090016" lon="15.148493356582287"><ele>274.0</ele><time>2026-04-18T07:41:05.999Z</time></trkpt><trkpt lat="37.89808684628407" lon="15.148366925919836"><ele>274.0</ele><time>2026-04-18T07:41:06.999Z</time></trkpt><trkpt lat="37.89816651436476" lon="15.14824797528991"><ele>274.0</ele><time>2026-04-18T07:41:07.999Z</time></trkpt><trkpt lat="37.89822085800706" lon="15.148145374822802"><ele>274.0</ele><time>2026-04-18T07:41:08.999Z</time></trkpt><trkpt lat="37.89826552231894" lon="15.1480519703825"><ele>274.0</ele><time>2026-04-18T07:41:09.999Z</time></trkpt><trkpt lat="37.89830794215132" lon="15.147961752487394"><ele>274.0</ele><time>2026-04-18T07:41:10.999Z</time></trkpt><trkpt lat="37.898340806727894" lon="15.147885461353386"><ele>274.4</ele><time>2026-04-18T07:41:11.999Z</time></trkpt><trkpt lat="37.89836688697977" lon="15.147811061168305"><ele>274.79999999999995</ele><time>2026-04-18T07:41:13.999Z</time></trkpt><trkpt lat="37.89840368500008" lon="15.147695656999936"><ele>275.20000000000005</ele><time>2026-04-18T07:41:16.999Z</time></trkpt><trkpt lat="37.89843635400527" lon="15.147609340617322"><ele>275.6</ele><time>2026-04-18T07:41:17.999Z</time></trkpt><trkpt lat="37.89848105004953" lon="15.147493798024954"><ele>276.0</ele><time>2026-04-18T07:41:18.999Z</time></trkpt><trkpt lat="37.89853072841411" lon="15.147349682399861"><ele>277.0</ele><time>2026-04-18T07:41:19.999Z</time></trkpt><trkpt lat="37.898583630504014" lon="15.147186914783349"><ele>278.0</ele><time>2026-04-18T07:41:20.999Z</time></trkpt><trkpt lat="37.898643909490666" lon="15.147002079355557"><ele>279.0</ele><time>2026-04-18T07:41:21.999Z</time></trkpt><trkpt lat="37.898707508357546" lon="15.146811073694028"><ele>279.0</ele><time>2026-04-18T07:41:22.999Z</time></trkpt><trkpt lat="37.89877252701413" lon="15.146614476170486"><ele>279.0</ele><time>2026-04-18T07:41:23.999Z</time></trkpt><trkpt lat="37.89884625437844" lon="15.146401622863973"><ele>279.0</ele><time>2026-04-18T07:41:25Z</time></trkpt><trkpt lat="37.89891087911649" lon="15.14621032169411"><ele>279.25</ele><time>2026-04-18T07:41:26Z</time></trkpt><trkpt lat="37.89896456192296" lon="15.146033245369658"><ele>279.5</ele><time>2026-04-18T07:41:27Z</time></trkpt><trkpt lat="37.89902535487019" lon="15.145861197308397"><ele>279.75</ele><time>2026-04-18T07:41:28Z</time></trkpt><trkpt lat="37.899081868111914" lon="15.145696778806535"><ele>280.0</ele><time>2026-04-18T07:41:29Z</time></trkpt><trkpt lat="37.899129175220814" lon="15.145556213215245"><ele>280.16666666666663</ele><time>2026-04-18T07:41:30Z</time></trkpt><trkpt lat="37.8991705203212" lon="15.145433444950081"><ele>280.3333333333333</ele><time>2026-04-18T07:41:31Z</time></trkpt><trkpt lat="37.89920732981819" lon="15.14532766125146"><ele>280.5</ele><time>2026-04-18T07:41:32Z</time></trkpt><trkpt lat="37.8992473655535" lon="15.145231285876518"><ele>280.6666666666667</ele><time>2026-04-18T07:41:33Z</time></trkpt><trkpt lat="37.89929064445868" lon="15.145158311184234"><ele>280.83333333333337</ele><time>2026-04-18T07:41:34Z</time></trkpt><trkpt lat="37.89933602144998" lon="15.145091313091093"><ele>281.0</ele><time>2026-04-18T07:41:35Z</time></trkpt><trkpt lat="37.89942685091859" lon="15.144968487547136"><ele>281.0</ele><time>2026-04-18T07:41:37Z</time></trkpt><trkpt lat="37.899480642600274" lon="15.144885140910658"><ele>281.0</ele><time>2026-04-18T07:41:38Z</time></trkpt><trkpt lat="37.899546490419915" lon="15.144801745844202"><ele>281.0</ele><time>2026-04-18T07:41:39Z</time></trkpt><trkpt lat="37.899629684479216" lon="15.144709720800698"><ele>281.0</ele><time>2026-04-18T07:41:40Z</time></trkpt><trkpt lat="37.899711398543836" lon="15.144624781086918"><ele>281.0</ele><time>2026-04-18T07:41:41Z</time></trkpt><trkpt lat="37.8997942790835" lon="15.144550440128832"><ele>281.33333333333337</ele><time>2026-04-18T07:41:42Z</time></trkpt><trkpt lat="37.899861649385066" lon="15.144489346256549"><ele>281.6666666666667</ele><time>2026-04-18T07:41:43Z</time></trkpt><trkpt lat="37.89992890699183" lon="15.144430689358197"><ele>282.0</ele><time>2026-04-18T07:41:44Z</time></trkpt><trkpt lat="37.90000538859707" lon="15.144385568558281"><ele>282.3333333333333</ele><time>2026-04-18T07:41:45Z</time></trkpt><trkpt lat="37.900068747326024" lon="15.144344081215014"><ele>282.66666666666663</ele><time>2026-04-18T07:41:46Z</time></trkpt><trkpt lat="37.90016073552651" lon="15.144262896162484"><ele>283.0</ele><time>2026-04-18T07:41:48Z</time></trkpt><trkpt lat="37.900222844394854" lon="15.144223255376346"><ele>283.0</ele><time>2026-04-18T07:41:50Z</time></trkpt><trkpt lat="37.90026890158268" lon="15.144149083127294"><ele>283.0</ele><time>2026-04-18T07:42:01Z</time></trkpt><trkpt lat="37.90033176569713" lon="15.144105690329315"><ele>283.0</ele><time>2026-04-18T07:42:02Z</time></trkpt><trkpt lat="37.90042810409891" lon="15.14405204667112"><ele>283.0</ele><time>2026-04-18T07:42:03Z</time></trkpt><trkpt lat="37.90051673207658" lon="15.143984120117771"><ele>283.0</ele><time>2026-04-18T07:42:04Z</time></trkpt><trkpt lat="37.900592274263744" lon="15.143916991132816"><ele>283.0</ele><time>2026-04-18T07:42:05Z</time></trkpt><trkpt lat="37.90067423706611" lon="15.14385350958127"><ele>284.0</ele><time>2026-04-18T07:42:06Z</time></trkpt><trkpt lat="37.90075919597229" lon="15.143787037441824"><ele>285.0</ele><time>2026-04-18T07:42:07Z</time></trkpt><trkpt lat="37.900846859531" lon="15.143720524401102"><ele>286.0</ele><time>2026-04-18T07:42:08Z</time></trkpt><trkpt lat="37.90093714649221" lon="15.143653499437054"><ele>287.0</ele><time>2026-04-18T07:42:09Z</time></trkpt><trkpt lat="37.90102522749691" lon="15.143581637618565"><ele>288.0</ele><time>2026-04-18T07:42:10Z</time></trkpt><trkpt lat="37.90111499684425" lon="15.14350648991198"><ele>288.0</ele><time>2026-04-18T07:42:11Z</time></trkpt><trkpt lat="37.901205721510046" lon="15.143433100828382"><ele>288.0</ele><time>2026-04-18T07:42:12Z</time></trkpt><trkpt lat="37.90129676021422" lon="15.143362461026278"><ele>288.0</ele><time>2026-04-18T07:42:13Z</time></trkpt><trkpt lat="37.90138487523157" lon="15.14329248602888"><ele>288.0</ele><time>2026-04-18T07:42:14Z</time></trkpt><trkpt lat="37.901472764292315" lon="15.143219185090034"><ele>288.0</ele><time>2026-04-18T07:42:15Z</time></trkpt><trkpt lat="37.90156292546288" lon="15.143143635490894"><ele>289.2</ele><time>2026-04-18T07:42:16Z</time></trkpt><trkpt lat="37.90165487433728" lon="15.143070459873902"><ele>290.4</ele><time>2026-04-18T07:42:17Z</time></trkpt><trkpt lat="37.90174685614497" lon="15.143000053520623"><ele>291.59999999999997</ele><time>2026-04-18T07:42:18Z</time></trkpt><trkpt lat="37.90183402894765" lon="15.142931096249455"><ele>292.8</ele><time>2026-04-18T07:42:19Z</time></trkpt><trkpt lat="37.90193202940223" lon="15.142853400864965"><ele>294.0</ele><time>2026-04-18T07:42:20Z</time></trkpt><trkpt lat="37.902035988277554" lon="15.142766837151242"><ele>294.0</ele><time>2026-04-18T07:42:21Z</time></trkpt><trkpt lat="37.90214219396324" lon="15.142682769458421"><ele>294.0</ele><time>2026-04-18T07:42:22Z</time></trkpt><trkpt lat="37.90224131668613" lon="15.14260320882223"><ele>294.0</ele><time>2026-04-18T07:42:23Z</time></trkpt><trkpt lat="37.90233728479095" lon="15.142522806737636"><ele>294.0</ele><time>2026-04-18T07:42:24Z</time></trkpt><trkpt lat="37.902435351529874" lon="15.14244486990204"><ele>295.8</ele><time>2026-04-18T07:42:25Z</time></trkpt><trkpt lat="37.9025318846579" lon="15.14236401481056"><ele>297.59999999999997</ele><time>2026-04-18T07:42:26Z</time></trkpt><trkpt lat="37.902630285369554" lon="15.14228917920858"><ele>299.4</ele><time>2026-04-18T07:42:27Z</time></trkpt><trkpt lat="37.90272379889252" lon="15.142214880736201"><ele>301.2</ele><time>2026-04-18T07:42:28Z</time></trkpt><trkpt lat="37.902813969047614" lon="15.142144491193385"><ele>303.0</ele><time>2026-04-18T07:42:29Z</time></trkpt><trkpt lat="37.90290553638819" lon="15.142072024877388"><ele>303.4</ele><time>2026-04-18T07:42:30Z</time></trkpt><trkpt lat="37.9029951817171" lon="15.141992236825557"><ele>303.8</ele><time>2026-04-18T07:42:31Z</time></trkpt><trkpt lat="37.90308521300993" lon="15.141916716246042"><ele>304.2</ele><time>2026-04-18T07:42:32Z</time></trkpt><trkpt lat="37.9031838587023" lon="15.141840361296323"><ele>304.6</ele><time>2026-04-18T07:42:33Z</time></trkpt><trkpt lat="37.90326852582281" lon="15.141775179168894"><ele>305.0</ele><time>2026-04-18T07:42:34Z</time></trkpt><trkpt lat="37.90335429392704" lon="15.14170322055386"><ele>305.0</ele><time>2026-04-18T07:42:35Z</time></trkpt><trkpt lat="37.90343769931626" lon="15.141633580683063"><ele>305.0</ele><time>2026-04-18T07:42:36Z</time></trkpt><trkpt lat="37.90352324704199" lon="15.141567009066744"><ele>305.0</ele><time>2026-04-18T07:42:37Z</time></trkpt><trkpt lat="37.90360610413482" lon="15.14149600332526"><ele>305.0</ele><time>2026-04-18T07:42:38Z</time></trkpt><trkpt lat="37.903692070711436" lon="15.141426350456204"><ele>305.0</ele><time>2026-04-18T07:42:39Z</time></trkpt><trkpt lat="37.90378013713383" lon="15.141360204793555"><ele>305.6</ele><time>2026-04-18T07:42:40Z</time></trkpt><trkpt lat="37.90386628577966" lon="15.141294642654534"><ele>306.2</ele><time>2026-04-18T07:42:41Z</time></trkpt><trkpt lat="37.90395163694966" lon="15.141240098913133"><ele>306.8</ele><time>2026-04-18T07:42:42Z</time></trkpt><trkpt lat="37.90402531738409" lon="15.141182731037082"><ele>307.4</ele><time>2026-04-18T07:42:43Z</time></trkpt><trkpt lat="37.90408860491428" lon="15.141118447397329"><ele>308.0</ele><time>2026-04-18T07:42:44Z</time></trkpt><trkpt lat="37.904182057832976" lon="15.141051619579061"><ele>308.2</ele><time>2026-04-18T07:42:45Z</time></trkpt><trkpt lat="37.90426405661278" lon="15.140983920562073"><ele>308.4</ele><time>2026-04-18T07:42:46Z</time></trkpt><trkpt lat="37.90436160281958" lon="15.140905825618502"><ele>308.59999999999997</ele><time>2026-04-18T07:42:47Z</time></trkpt><trkpt lat="37.904464548259014" lon="15.140834468639003"><ele>308.8</ele><time>2026-04-18T07:42:48Z</time></trkpt><trkpt lat="37.904555751863235" lon="15.140762769906745"><ele>309.0</ele><time>2026-04-18T07:42:49Z</time></trkpt><trkpt lat="37.90462728505678" lon="15.140696689719325"><ele>309.0</ele><time>2026-04-18T07:42:50Z</time></trkpt><trkpt lat="37.90470173704381" lon="15.140631036749452"><ele>309.0</ele><time>2026-04-18T07:42:51Z</time></trkpt><trkpt lat="37.90476927260929" lon="15.140591387205445"><ele>309.0</ele><time>2026-04-18T07:42:52Z</time></trkpt><trkpt lat="37.9048346614771" lon="15.1405444101695"><ele>309.0</ele><time>2026-04-18T07:42:53Z</time></trkpt><trkpt lat="37.904906290315" lon="15.140511922735572"><ele>309.0</ele><time>2026-04-18T07:42:54Z</time></trkpt><trkpt lat="37.904944721225775" lon="15.140425174778265"><ele>309.0</ele><time>2026-04-18T07:42:56Z</time></trkpt><trkpt lat="37.905004766222234" lon="15.140475951472883"><ele>309.0</ele><time>2026-04-18T07:42:58Z</time></trkpt><trkpt lat="37.90500944158457" lon="15.140564798801165"><ele>309.0</ele><time>2026-04-18T07:42:59Z</time></trkpt><trkpt lat="37.90506669075164" lon="15.140656070021986"><ele>309.0</ele><time>2026-04-18T07:43:00Z</time></trkpt><trkpt lat="37.90511685853577" lon="15.140780505171913"><ele>309.0</ele><time>2026-04-18T07:43:01Z</time></trkpt><trkpt lat="37.90517786320602" lon="15.140914652054743"><ele>309.0</ele><time>2026-04-18T07:43:02Z</time></trkpt><trkpt lat="37.905266337735775" lon="15.141150387639467"><ele>307.4</ele><time>2026-04-18T07:43:04Z</time></trkpt><trkpt lat="37.90531225139278" lon="15.1412494633572"><ele>305.79999999999995</ele><time>2026-04-18T07:43:05Z</time></trkpt><trkpt lat="37.905358357077596" lon="15.141352856014548"><ele>304.20000000000005</ele><time>2026-04-18T07:43:06Z</time></trkpt><trkpt lat="37.90544336804214" lon="15.14143183217342"><ele>302.6</ele><time>2026-04-18T07:43:06.999Z</time></trkpt><trkpt lat="37.905526261366944" lon="15.141549637908431"><ele>301.0</ele><time>2026-04-18T07:43:07.999Z</time></trkpt><trkpt lat="37.90560930155311" lon="15.141644032969813"><ele>301.0</ele><time>2026-04-18T07:43:08.999Z</time></trkpt><trkpt lat="37.905683766448796" lon="15.141731918865666"><ele>301.0</ele><time>2026-04-18T07:43:09.999Z</time></trkpt><trkpt lat="37.90575128255288" lon="15.141804784281925"><ele>301.0</ele><time>2026-04-18T07:43:10.999Z</time></trkpt><trkpt lat="37.90582144631645" lon="15.141883913401845"><ele>301.0</ele><time>2026-04-18T07:43:11.999Z</time></trkpt><trkpt lat="37.90591699833627" lon="15.141951821873993"><ele>301.0</ele><time>2026-04-18T07:43:12.999Z</time></trkpt><trkpt lat="37.90601694488474" lon="15.14200440068151"><ele>300.0</ele><time>2026-04-18T07:43:13.999Z</time></trkpt><trkpt lat="37.906096098378754" lon="15.142077104971314"><ele>299.0</ele><time>2026-04-18T07:43:14.999Z</time></trkpt><trkpt lat="37.90617269035959" lon="15.142139966510843"><ele>298.0</ele><time>2026-04-18T07:43:15.999Z</time></trkpt><trkpt lat="37.906238106872046" lon="15.142217013138099"><ele>297.0</ele><time>2026-04-18T07:43:16.999Z</time></trkpt><trkpt lat="37.90631649532509" lon="15.142303422287004"><ele>296.0</ele><time>2026-04-18T07:43:17.999Z</time></trkpt><trkpt lat="37.906394548434974" lon="15.14238634972679"><ele>296.0</ele><time>2026-04-18T07:43:18.999Z</time></trkpt><trkpt lat="37.90647644654651" lon="15.14244342209213"><ele>296.0</ele><time>2026-04-18T07:43:19.999Z</time></trkpt><trkpt lat="37.90656194866588" lon="15.142522632517927"><ele>296.0</ele><time>2026-04-18T07:43:20.999Z</time></trkpt><trkpt lat="37.90668110876349" lon="15.142595825794185"><ele>296.0</ele><time>2026-04-18T07:43:21.999Z</time></trkpt><trkpt lat="37.90682513336644" lon="15.142665669756637"><ele>297.25</ele><time>2026-04-18T07:43:22.999Z</time></trkpt><trkpt lat="37.90697146706881" lon="15.14276021645621"><ele>298.5</ele><time>2026-04-18T07:43:23.999Z</time></trkpt><trkpt lat="37.9070993504514" lon="15.14282582926126"><ele>299.75</ele><time>2026-04-18T07:43:24.999Z</time></trkpt><trkpt lat="37.907211747484865" lon="15.1428628375422"><ele>301.0</ele><time>2026-04-18T07:43:25.999Z</time></trkpt><trkpt lat="37.907311460572636" lon="15.142929622595418"><ele>301.0</ele><time>2026-04-18T07:43:26.999Z</time></trkpt><trkpt lat="37.907404420375414" lon="15.143020887617087"><ele>301.0</ele><time>2026-04-18T07:43:27.999Z</time></trkpt><trkpt lat="37.9074605470835" lon="15.143156509562623"><ele>301.0</ele><time>2026-04-18T07:43:28.999Z</time></trkpt><trkpt lat="37.90752530419136" lon="15.143294524247676"><ele>301.0</ele><time>2026-04-18T07:43:30Z</time></trkpt><trkpt lat="37.90759311114006" lon="15.143417582024039"><ele>301.40000000000003</ele><time>2026-04-18T07:43:31Z</time></trkpt><trkpt lat="37.907631100172814" lon="15.143533850999583"><ele>301.8</ele><time>2026-04-18T07:43:32Z</time></trkpt><trkpt lat="37.90765693601143" lon="15.143631071464926"><ele>302.20000000000005</ele><time>2026-04-18T07:43:33Z</time></trkpt><trkpt lat="37.90768228958278" lon="15.143713449957131"><ele>302.6</ele><time>2026-04-18T07:43:34Z</time></trkpt><trkpt lat="37.90770184484366" lon="15.14382865776831"><ele>303.0</ele><time>2026-04-18T07:43:36Z</time></trkpt><trkpt lat="37.90782007767395" lon="15.14383003443721"><ele>303.0</ele><time>2026-04-18T07:43:37Z</time></trkpt><trkpt lat="37.90789095867222" lon="15.143766152799195"><ele>303.0</ele><time>2026-04-18T07:43:38Z</time></trkpt><trkpt lat="37.907976599970596" lon="15.143687973136458"><ele>303.0</ele><time>2026-04-18T07:43:39Z</time></trkpt><trkpt lat="37.908065434480086" lon="15.143605539768702"><ele>303.0</ele><time>2026-04-18T07:43:40Z</time></trkpt><trkpt lat="37.90815526508704" lon="15.143533451790978"><ele>303.0</ele><time>2026-04-18T07:43:41Z</time></trkpt><trkpt lat="37.9082502573985" lon="15.143470582325367"><ele>303.0</ele><time>2026-04-18T07:43:42Z</time></trkpt><trkpt lat="37.90834101605738" lon="15.143410763023033"><ele>303.0</ele><time>2026-04-18T07:43:43Z</time></trkpt><trkpt lat="37.908423915602306" lon="15.143347606545575"><ele>303.0</ele><time>2026-04-18T07:43:44Z</time></trkpt><trkpt lat="37.90850807516429" lon="15.143280502294495"><ele>303.0</ele><time>2026-04-18T07:43:45Z</time></trkpt><trkpt lat="37.90859555055989" lon="15.143213293325568"><ele>303.0</ele><time>2026-04-18T07:43:46Z</time></trkpt><trkpt lat="37.90868849341984" lon="15.143145911598973"><ele>303.8</ele><time>2026-04-18T07:43:47Z</time></trkpt><trkpt lat="37.90878096877688" lon="15.143082495714687"><ele>304.6</ele><time>2026-04-18T07:43:48Z</time></trkpt><trkpt lat="37.90887285885142" lon="15.143010622133959"><ele>305.4</ele><time>2026-04-18T07:43:49Z</time></trkpt><trkpt lat="37.908965227664446" lon="15.142940608910711"><ele>306.2</ele><time>2026-04-18T07:43:50Z</time></trkpt><trkpt lat="37.90905869434204" lon="15.142864784184441"><ele>307.0</ele><time>2026-04-18T07:43:51Z</time></trkpt><trkpt lat="37.9091593195943" lon="15.142787062037627"><ele>307.25</ele><time>2026-04-18T07:43:52Z</time></trkpt><trkpt lat="37.90926146733043" lon="15.14270737952214"><ele>307.5</ele><time>2026-04-18T07:43:53Z</time></trkpt><trkpt lat="37.909366491443386" lon="15.14263200505145"><ele>307.75</ele><time>2026-04-18T07:43:54Z</time></trkpt><trkpt lat="37.90946512975308" lon="15.142561141479764"><ele>308.0</ele><time>2026-04-18T07:43:55Z</time></trkpt><trkpt lat="37.90954759086773" lon="15.14249864960016"><ele>308.0</ele><time>2026-04-18T07:43:56Z</time></trkpt><trkpt lat="37.90962671328973" lon="15.142440782604888"><ele>308.0</ele><time>2026-04-18T07:43:57Z</time></trkpt><trkpt lat="37.909703122664396" lon="15.142381696012011"><ele>308.0</ele><time>2026-04-18T07:43:58Z</time></trkpt><trkpt lat="37.90977482055954" lon="15.142329923978995"><ele>308.0</ele><time>2026-04-18T07:43:59Z</time></trkpt><trkpt lat="37.909842108548965" lon="15.142287247563637"><ele>308.0</ele><time>2026-04-18T07:44:00Z</time></trkpt><trkpt lat="37.909935449490035" lon="15.142220136386186"><ele>308.0</ele><time>2026-04-18T07:44:02Z</time></trkpt><trkpt lat="37.90999122359074" lon="15.14212643327402"><ele>310.8</ele><time>2026-04-18T07:44:04Z</time></trkpt><trkpt lat="37.91011059937362" lon="15.142245523797746"><ele>313.6</ele><time>2026-04-18T07:44:05Z</time></trkpt><trkpt lat="37.91022804493753" lon="15.142285092871434"><ele>316.40000000000003</ele><time>2026-04-18T07:44:07Z</time></trkpt><trkpt lat="37.91030657793061" lon="15.14228292782484"><ele>319.20000000000005</ele><time>2026-04-18T07:44:08Z</time></trkpt><trkpt lat="37.910388700438524" lon="15.142266541294278"><ele>322.0</ele><time>2026-04-18T07:44:09Z</time></trkpt><trkpt lat="37.91051731892201" lon="15.142242520637744"><ele>322.0</ele><time>2026-04-18T07:44:10.999Z</time></trkpt><trkpt lat="37.9106426775818" lon="15.142238077665239"><ele>322.0</ele><time>2026-04-18T07:44:12.999Z</time></trkpt><trkpt lat="37.91069830272367" lon="15.142308719071469"><ele>322.0</ele><time>2026-04-18T07:44:13.999Z</time></trkpt><trkpt lat="37.91075048649116" lon="15.142369321515508"><ele>322.0</ele><time>2026-04-18T07:44:14.999Z</time></trkpt><trkpt lat="37.910788339902375" lon="15.142470635958457"><ele>322.0</ele><time>2026-04-18T07:44:15.999Z</time></trkpt><trkpt lat="37.91084965833765" lon="15.142559013310413"><ele>320.0</ele><time>2026-04-18T07:44:16.999Z</time></trkpt><trkpt lat="37.91094638205815" lon="15.142730657801414"><ele>318.0</ele><time>2026-04-18T07:44:18.999Z</time></trkpt><trkpt lat="37.91102221663873" lon="15.142804014960593"><ele>316.0</ele><time>2026-04-18T07:44:19.999Z</time></trkpt><trkpt lat="37.911083399292515" lon="15.142863199312426"><ele>314.0</ele><time>2026-04-18T07:44:20.999Z</time></trkpt><trkpt lat="37.91113819954546" lon="15.14292431513651"><ele>312.0</ele><time>2026-04-18T07:44:21.999Z</time></trkpt><trkpt lat="37.91119719442233" lon="15.142980696758029"><ele>312.0</ele><time>2026-04-18T07:44:22.999Z</time></trkpt><trkpt lat="37.91125976730947" lon="15.143026368125195"><ele>312.0</ele><time>2026-04-18T07:44:23.999Z</time></trkpt><trkpt lat="37.911544470212945" lon="15.143277929198023"><ele>312.0</ele><time>2026-04-18T07:44:24.999Z</time></trkpt><trkpt lat="37.9119244342032" lon="15.143145989103894"><ele>313.6</ele><time>2026-04-18T07:44:32.999Z</time></trkpt><trkpt lat="37.912056719053695" lon="15.143220528512765"><ele>315.2</ele><time>2026-04-18T07:44:37.999Z</time></trkpt><trkpt lat="37.91212227415733" lon="15.143254273819414"><ele>316.8</ele><time>2026-04-18T07:44:38.999Z</time></trkpt><trkpt lat="37.912256900199" lon="15.143301143535883"><ele>318.4</ele><time>2026-04-18T07:44:39.999Z</time></trkpt><trkpt lat="37.91232422142205" lon="15.143320969332516"><ele>320.0</ele><time>2026-04-18T07:44:40.999Z</time></trkpt><trkpt lat="37.91240452134965" lon="15.143344617329674"><ele>319.6666666666667</ele><time>2026-04-18T07:44:41.999Z</time></trkpt><trkpt lat="37.91264706837396" lon="15.143224769242144"><ele>319.3333333333333</ele><time>2026-04-18T07:44:43.999Z</time></trkpt><trkpt lat="37.9127676320136" lon="15.143185223636465"><ele>319.0</ele><time>2026-04-18T07:44:44.999Z</time></trkpt><trkpt lat="37.91290887625741" lon="15.143266905156743"><ele>320.75</ele><time>2026-04-18T07:44:45.999Z</time></trkpt><trkpt lat="37.91301694892604" lon="15.143350475736016"><ele>322.5</ele><time>2026-04-18T07:44:46.999Z</time></trkpt><trkpt lat="37.91310448779117" lon="15.14341573133406"><ele>324.25</ele><time>2026-04-18T07:44:47.999Z</time></trkpt><trkpt lat="37.91318764700368" lon="15.143461984041545"><ele>326.0</ele><time>2026-04-18T07:44:48.999Z</time></trkpt><trkpt lat="37.9133177619197" lon="15.14338740859751"><ele>327.5</ele><time>2026-04-18T07:44:49.999Z</time></trkpt><trkpt lat="37.913436112130064" lon="15.14335322392943"><ele>329.0</ele><time>2026-04-18T07:44:50.999Z</time></trkpt><trkpt lat="37.91357024598815" lon="15.143310389890532"><ele>330.5</ele><time>2026-04-18T07:44:51.999Z</time></trkpt><trkpt lat="37.91373751947346" lon="15.14327629196005"><ele>332.0</ele><time>2026-04-18T07:44:52.999Z</time></trkpt><trkpt lat="37.9138882530903" lon="15.1432314054032"><ele>331.33333333333337</ele><time>2026-04-18T07:44:53.999Z</time></trkpt><trkpt lat="37.91402821879567" lon="15.14320689546389"><ele>330.6666666666667</ele><time>2026-04-18T07:44:54.999Z</time></trkpt><trkpt lat="37.91418156568979" lon="15.143202383448708"><ele>330.0</ele><time>2026-04-18T07:44:55.999Z</time></trkpt><trkpt lat="37.914338537483545" lon="15.143211973925558"><ele>330.0</ele><time>2026-04-18T07:44:56.999Z</time></trkpt><trkpt lat="37.91449338450023" lon="15.143212068010351"><ele>330.0</ele><time>2026-04-18T07:44:57.999Z</time></trkpt><trkpt lat="37.914644858506044" lon="15.143213072185517"><ele>330.0</ele><time>2026-04-18T07:44:58.999Z</time></trkpt><trkpt lat="37.914788523102736" lon="15.143225402870932"><ele>332.2</ele><time>2026-04-18T07:44:59.999Z</time></trkpt><trkpt lat="37.91490474454254" lon="15.143244970669699"><ele>334.4</ele><time>2026-04-18T07:45:00.999Z</time></trkpt><trkpt lat="37.91499611102507" lon="15.14327724803096"><ele>336.6</ele><time>2026-04-18T07:45:01.999Z</time></trkpt><trkpt lat="37.91507756358284" lon="15.143286766226057"><ele>338.8</ele><time>2026-04-18T07:45:02.999Z</time></trkpt><trkpt lat="37.915166519683346" lon="15.143270831527763"><ele>341.0</ele><time>2026-04-18T07:45:03.999Z</time></trkpt><trkpt lat="37.915271677235765" lon="15.143265904168475"><ele>342.25</ele><time>2026-04-18T07:45:04.999Z</time></trkpt><trkpt lat="37.91537085846593" lon="15.143221670867744"><ele>343.5</ele><time>2026-04-18T07:45:05.999Z</time></trkpt><trkpt lat="37.91547552018088" lon="15.143171443486272"><ele>344.75</ele><time>2026-04-18T07:45:06.999Z</time></trkpt><trkpt lat="37.91559900614674" lon="15.143105197791089"><ele>346.0</ele><time>2026-04-18T07:45:07.999Z</time></trkpt><trkpt lat="37.91571888489137" lon="15.143028845840574"><ele>344.20000000000005</ele><time>2026-04-18T07:45:08.999Z</time></trkpt><trkpt lat="37.91581894581664" lon="15.142954005314177"><ele>342.40000000000003</ele><time>2026-04-18T07:45:09.999Z</time></trkpt><trkpt lat="37.915905816050035" lon="15.142961270485127"><ele>340.6</ele><time>2026-04-18T07:45:10.999Z</time></trkpt><trkpt lat="37.91598209562036" lon="15.14303645113747"><ele>338.8</ele><time>2026-04-18T07:45:11.999Z</time></trkpt><trkpt lat="37.91609087622818" lon="15.143044360005"><ele>337.0</ele><time>2026-04-18T07:45:12.999Z</time></trkpt><trkpt lat="37.91618612170388" lon="15.143090084230622"><ele>337.0</ele><time>2026-04-18T07:45:13.999Z</time></trkpt><trkpt lat="37.91626091999399" lon="15.143131252530779"><ele>337.0</ele><time>2026-04-18T07:45:14.999Z</time></trkpt><trkpt lat="37.916371801664496" lon="15.14320845360412"><ele>337.0</ele><time>2026-04-18T07:45:15.999Z</time></trkpt><trkpt lat="37.91645385552998" lon="15.143276169866187"><ele>337.0</ele><time>2026-04-18T07:45:16.999Z</time></trkpt><trkpt lat="37.91658489331859" lon="15.14326008420395"><ele>337.0</ele><time>2026-04-18T07:45:18.999Z</time></trkpt><trkpt lat="37.916661333722885" lon="15.143216971096168"><ele>337.8</ele><time>2026-04-18T07:45:19.999Z</time></trkpt><trkpt lat="37.91677430456822" lon="15.143185579090256"><ele>338.6</ele><time>2026-04-18T07:45:20.999Z</time></trkpt><trkpt lat="37.9168914309313" lon="15.143179997077116"><ele>339.40000000000003</ele><time>2026-04-18T07:45:21.999Z</time></trkpt><trkpt lat="37.91694021390706" lon="15.143268146963681"><ele>340.20000000000005</ele><time>2026-04-18T07:45:22.999Z</time></trkpt><trkpt lat="37.917059506419484" lon="15.143302095229567"><ele>341.0</ele><time>2026-04-18T07:45:23.999Z</time></trkpt><trkpt lat="37.91719138126363" lon="15.143290101455543"><ele>343.0</ele><time>2026-04-18T07:45:24.999Z</time></trkpt><trkpt lat="37.917303020407324" lon="15.143236271819491"><ele>345.0</ele><time>2026-04-18T07:45:25.999Z</time></trkpt><trkpt lat="37.91741860630938" lon="15.143247105178624"><ele>347.0</ele><time>2026-04-18T07:45:26.999Z</time></trkpt><trkpt lat="37.917528928640486" lon="15.143290881906282"><ele>349.0</ele><time>2026-04-18T07:45:27.999Z</time></trkpt><trkpt lat="37.917641518816566" lon="15.143309239374464"><ele>349.25</ele><time>2026-04-18T07:45:28.999Z</time></trkpt><trkpt lat="37.917753236013496" lon="15.143361142496707"><ele>349.5</ele><time>2026-04-18T07:45:29.999Z</time></trkpt><trkpt lat="37.917851007672155" lon="15.143453196604836"><ele>349.75</ele><time>2026-04-18T07:45:30.999Z</time></trkpt><trkpt lat="37.91796925293024" lon="15.143499971490597"><ele>350.0</ele><time>2026-04-18T07:45:31.999Z</time></trkpt><trkpt lat="37.918095809107584" lon="15.143500748570299"><ele>350.0</ele><time>2026-04-18T07:45:32.999Z</time></trkpt><trkpt lat="37.918227812258095" lon="15.143519542979186"><ele>350.0</ele><time>2026-04-18T07:45:33.999Z</time></trkpt><trkpt lat="37.91832533925383" lon="15.14360284788171"><ele>350.0</ele><time>2026-04-18T07:45:35Z</time></trkpt><trkpt lat="37.918403328865615" lon="15.143693776681303"><ele>350.0</ele><time>2026-04-18T07:45:36Z</time></trkpt><trkpt lat="37.91850338049942" lon="15.143779077440346"><ele>351.25</ele><time>2026-04-18T07:45:37Z</time></trkpt><trkpt lat="37.91862432211035" lon="15.143809081061528"><ele>352.5</ele><time>2026-04-18T07:45:38Z</time></trkpt><trkpt lat="37.918734163863924" lon="15.143856966254193"><ele>353.75</ele><time>2026-04-18T07:45:39Z</time></trkpt><trkpt lat="37.9188523443399" lon="15.143907312050569"><ele>355.0</ele><time>2026-04-18T07:45:40Z</time></trkpt><trkpt lat="37.91894578749689" lon="15.143997168408056"><ele>356.0</ele><time>2026-04-18T07:45:41Z</time></trkpt><trkpt lat="37.919038045384326" lon="15.14410188277341"><ele>357.0</ele><time>2026-04-18T07:45:42Z</time></trkpt><trkpt lat="37.91913644504402" lon="15.14417980904264"><ele>358.0</ele><time>2026-04-18T07:45:43Z</time></trkpt><trkpt lat="37.919191464925625" lon="15.144313651549524"><ele>359.0</ele><time>2026-04-18T07:45:44Z</time></trkpt><trkpt lat="37.9192917193824" lon="15.144451132466843"><ele>359.0</ele><time>2026-04-18T07:45:45Z</time></trkpt><trkpt lat="37.91937785716792" lon="15.144580486067811"><ele>359.0</ele><time>2026-04-18T07:45:46Z</time></trkpt><trkpt lat="37.91944256216983" lon="15.144710259307582"><ele>359.0</ele><time>2026-04-18T07:45:47Z</time></trkpt><trkpt lat="37.919522903354064" lon="15.144814299106377"><ele>359.0</ele><time>2026-04-18T07:45:48Z</time></trkpt><trkpt lat="37.91961721297681" lon="15.144896390115578"><ele>360.25</ele><time>2026-04-18T07:45:49Z</time></trkpt><trkpt lat="37.919726386956214" lon="15.1449493109278"><ele>361.5</ele><time>2026-04-18T07:45:50Z</time></trkpt><trkpt lat="37.91983203004194" lon="15.145027683533513"><ele>362.75</ele><time>2026-04-18T07:45:51Z</time></trkpt><trkpt lat="37.919952158094546" lon="15.145079214883513"><ele>364.0</ele><time>2026-04-18T07:45:52Z</time></trkpt><trkpt lat="37.9200546614276" lon="15.145159129704847"><ele>363.5</ele><time>2026-04-18T07:45:53Z</time></trkpt><trkpt lat="37.92016195369494" lon="15.145211990313838"><ele>363.0</ele><time>2026-04-18T07:45:54Z</time></trkpt><trkpt lat="37.92029432726623" lon="15.145220544345232"><ele>362.5</ele><time>2026-04-18T07:45:55Z</time></trkpt><trkpt lat="37.920407978483475" lon="15.145275017677433"><ele>362.0</ele><time>2026-04-18T07:45:56Z</time></trkpt><trkpt lat="37.92052005917738" lon="15.145345591479064"><ele>362.0</ele><time>2026-04-18T07:45:57Z</time></trkpt><trkpt lat="37.92066937562233" lon="15.14532484024006"><ele>362.0</ele><time>2026-04-18T07:45:58Z</time></trkpt><trkpt lat="37.92080210966517" lon="15.145120629858297"><ele>362.0</ele><time>2026-04-18T07:45:59Z</time></trkpt><trkpt lat="37.92093963581358" lon="15.145099373401651"><ele>365.5</ele><time>2026-04-18T07:46:00Z</time></trkpt><trkpt lat="37.92110841764807" lon="15.145087428887505"><ele>369.0</ele><time>2026-04-18T07:46:01Z</time></trkpt><trkpt lat="37.92139554573041" lon="15.145169106085243"><ele>369.0</ele><time>2026-04-18T07:46:03Z</time></trkpt><trkpt lat="37.9214994277384" lon="15.145274003547058"><ele>369.0</ele><time>2026-04-18T07:46:04Z</time></trkpt><trkpt lat="37.92163489228205" lon="15.145338368932576"><ele>369.0</ele><time>2026-04-18T07:46:05Z</time></trkpt><trkpt lat="37.921775765372075" lon="15.14532989875154"><ele>369.0</ele><time>2026-04-18T07:46:06Z</time></trkpt><trkpt lat="37.921910305600974" lon="15.145348662543645"><ele>370.25</ele><time>2026-04-18T07:46:07Z</time></trkpt><trkpt lat="37.922040853028015" lon="15.145381799566787"><ele>371.5</ele><time>2026-04-18T07:46:08Z</time></trkpt><trkpt lat="37.922176187736504" lon="15.145410075934484"><ele>372.75</ele><time>2026-04-18T07:46:09Z</time></trkpt><trkpt lat="37.92232376508565" lon="15.145313666890388"><ele>374.0</ele><time>2026-04-18T07:46:10Z</time></trkpt><trkpt lat="37.92248105712534" lon="15.14529643260999"><ele>374.6666666666667</ele><time>2026-04-18T07:46:11Z</time></trkpt><trkpt lat="37.922637102503266" lon="15.145258600487788"><ele>375.3333333333333</ele><time>2026-04-18T07:46:12Z</time></trkpt><trkpt lat="37.9227546991361" lon="15.14516451358431"><ele>376.0</ele><time>2026-04-18T07:46:13Z</time></trkpt><trkpt lat="37.92290074307617" lon="15.145081222432237"><ele>376.0</ele><time>2026-04-18T07:46:14Z</time></trkpt><trkpt lat="37.92308042371686" lon="15.145041222317337"><ele>376.0</ele><time>2026-04-18T07:46:15Z</time></trkpt><trkpt lat="37.923250547128276" lon="15.145035847612574"><ele>376.0</ele><time>2026-04-18T07:46:16Z</time></trkpt><trkpt lat="37.92342619487791" lon="15.145075633228497"><ele>376.75</ele><time>2026-04-18T07:46:17Z</time></trkpt><trkpt lat="37.92359016972513" lon="15.145101813788097"><ele>377.5</ele><time>2026-04-18T07:46:18Z</time></trkpt><trkpt lat="37.92372528070633" lon="15.145106521412414"><ele>378.25</ele><time>2026-04-18T07:46:19Z</time></trkpt><trkpt lat="37.923841772018605" lon="15.14507173119215"><ele>379.0</ele><time>2026-04-18T07:46:20Z</time></trkpt><trkpt lat="37.92397653404755" lon="15.145029140218552"><ele>379.0</ele><time>2026-04-18T07:46:21Z</time></trkpt><trkpt lat="37.92410723542417" lon="15.144987832530704"><ele>379.0</ele><time>2026-04-18T07:46:22Z</time></trkpt><trkpt lat="37.924291812210214" lon="15.145286678204831"><ele>379.0</ele><time>2026-04-18T07:46:23Z</time></trkpt><trkpt lat="37.924396565953266" lon="15.145278424117862"><ele>379.79999999999995</ele><time>2026-04-18T07:46:24Z</time></trkpt><trkpt lat="37.924508535310906" lon="15.145272190254305"><ele>380.59999999999997</ele><time>2026-04-18T07:46:25Z</time></trkpt><trkpt lat="37.9246142123026" lon="15.1452790207471"><ele>381.4</ele><time>2026-04-18T07:46:26Z</time></trkpt><trkpt lat="37.924710523880954" lon="15.145295163707212"><ele>382.2</ele><time>2026-04-18T07:46:27Z</time></trkpt><trkpt lat="37.92478644371904" lon="15.145340040035473"><ele>383.0</ele><time>2026-04-18T07:46:28Z</time></trkpt><trkpt lat="37.92486153719816" lon="15.14539199787104"><ele>383.0</ele><time>2026-04-18T07:46:29Z</time></trkpt><trkpt lat="37.924959658532366" lon="15.145433603383855"><ele>383.0</ele><time>2026-04-18T07:46:30Z</time></trkpt><trkpt lat="37.92507101390152" lon="15.145476448911603"><ele>383.0</ele><time>2026-04-18T07:46:31Z</time></trkpt><trkpt lat="37.92516716178597" lon="15.14551432358693"><ele>383.0</ele><time>2026-04-18T07:46:32Z</time></trkpt><trkpt lat="37.925253659549874" lon="15.145559782994221"><ele>383.0</ele><time>2026-04-18T07:46:33Z</time></trkpt><trkpt lat="37.92532475597314" lon="15.1456345970067"><ele>384.59999999999997</ele><time>2026-04-18T07:46:34Z</time></trkpt><trkpt lat="37.92539699682859" lon="15.145707207693741"><ele>386.2</ele><time>2026-04-18T07:46:35Z</time></trkpt><trkpt lat="37.92547665635673" lon="15.14576379802024"><ele>387.8</ele><time>2026-04-18T07:46:36Z</time></trkpt><trkpt lat="37.925546912643384" lon="15.145793913889742"><ele>389.4</ele><time>2026-04-18T07:46:37Z</time></trkpt><trkpt lat="37.92566034158558" lon="15.145817046946048"><ele>391.0</ele><time>2026-04-18T07:46:39Z</time></trkpt><trkpt lat="37.92576845851987" lon="15.14582964507772"><ele>391.6</ele><time>2026-04-18T07:46:41Z</time></trkpt><trkpt lat="37.92587077530343" lon="15.14581021798062"><ele>392.20000000000005</ele><time>2026-04-18T07:46:43Z</time></trkpt><trkpt lat="37.925962235938215" lon="15.145757379012618"><ele>392.79999999999995</ele><time>2026-04-18T07:46:45Z</time></trkpt><trkpt lat="37.926085496596805" lon="15.145756618115303"><ele>393.4</ele><time>2026-04-18T07:53:48.999Z</time></trkpt><trkpt lat="37.92618881999973" lon="15.145803075439698"><ele>394.0</ele><time>2026-04-18T07:53:50.999Z</time></trkpt><trkpt lat="37.92631105302895" lon="15.145886610073989"><ele>394.00000000000006</ele><time>2026-04-18T07:53:52.999Z</time></trkpt><trkpt lat="37.926379353678364" lon="15.145942360231963"><ele>394.0</ele><time>2026-04-18T07:53:53.999Z</time></trkpt><trkpt lat="37.92644532970231" lon="15.145997217128771"><ele>394.0</ele><time>2026-04-18T07:53:54.999Z</time></trkpt><trkpt lat="37.926524274986946" lon="15.146063195812621"><ele>394.0</ele><time>2026-04-18T07:53:55.999Z</time></trkpt><trkpt lat="37.926588350932356" lon="15.14610758520868"><ele>394.00000000000006</ele><time>2026-04-18T07:53:56.999Z</time></trkpt><trkpt lat="37.92666420623795" lon="15.14614584346801"><ele>394.0</ele><time>2026-04-18T07:53:57.999Z</time></trkpt><trkpt lat="37.926757410842775" lon="15.146177777448285"><ele>395.6</ele><time>2026-04-18T07:53:59Z</time></trkpt><trkpt lat="37.92683685521596" lon="15.146204595618606"><ele>397.2</ele><time>2026-04-18T07:54:00Z</time></trkpt><trkpt lat="37.92692610651306" lon="15.146228037411523"><ele>398.8</ele><time>2026-04-18T07:54:01Z</time></trkpt><trkpt lat="37.92703874210335" lon="15.14625508924521"><ele>400.40000000000003</ele><time>2026-04-18T07:54:02Z</time></trkpt><trkpt lat="37.92713783706307" lon="15.146266508137431"><ele>402.0</ele><time>2026-04-18T07:54:03Z</time></trkpt><trkpt lat="37.9272036398343" lon="15.146284846904008"><ele>402.0</ele><time>2026-04-18T07:54:04Z</time></trkpt><trkpt lat="37.92731827559661" lon="15.146297420234337"><ele>402.0</ele><time>2026-04-18T07:54:06Z</time></trkpt><trkpt lat="37.92740267272388" lon="15.146306751226176"><ele>402.0</ele><time>2026-04-18T07:54:08Z</time></trkpt><trkpt lat="37.92749660767285" lon="15.146301671149454"><ele>402.0</ele><time>2026-04-18T07:54:10Z</time></trkpt><trkpt lat="37.927589164796494" lon="15.146305400976384"><ele>402.0</ele><time>2026-04-18T07:54:12Z</time></trkpt><trkpt lat="37.92771224434124" lon="15.146281847781877"><ele>403.6</ele><time>2026-04-18T07:54:14Z</time></trkpt><trkpt lat="37.927817717674095" lon="15.146316765503657"><ele>405.20000000000005</ele><time>2026-04-18T07:54:16Z</time></trkpt><trkpt lat="37.92789523513133" lon="15.146410958786213"><ele>406.8</ele><time>2026-04-18T07:54:18Z</time></trkpt><trkpt lat="37.927952915756634" lon="15.14645884674072"><ele>408.4</ele><time>2026-04-18T07:54:19Z</time></trkpt><trkpt lat="37.92806219880836" lon="15.146535956818902"><ele>410.0</ele><time>2026-04-18T07:54:21Z</time></trkpt><trkpt lat="37.92813686698192" lon="15.146593450323286"><ele>409.99999999999994</ele><time>2026-04-18T07:54:22Z</time></trkpt><trkpt lat="37.928209364120455" lon="15.146638680451613"><ele>410.0</ele><time>2026-04-18T07:54:23Z</time></trkpt><trkpt lat="37.92828272835714" lon="15.146679174804682"><ele>410.0</ele><time>2026-04-18T07:54:24Z</time></trkpt><trkpt lat="37.92834892151255" lon="15.146702216576788"><ele>410.0</ele><time>2026-04-18T07:54:25Z</time></trkpt><trkpt lat="37.9284254254334" lon="15.146727651386678"><ele>409.99999999999994</ele><time>2026-04-18T07:54:26Z</time></trkpt><trkpt lat="37.92850580048579" lon="15.146764696807919"><ele>410.0</ele><time>2026-04-18T07:54:27Z</time></trkpt><trkpt lat="37.92858371383523" lon="15.146802149068927"><ele>410.49999999999994</ele><time>2026-04-18T07:54:28Z</time></trkpt><trkpt lat="37.92865591911605" lon="15.146845843521572"><ele>411.0</ele><time>2026-04-18T07:54:29Z</time></trkpt><trkpt lat="37.928739807630016" lon="15.146890073016298"><ele>411.5</ele><time>2026-04-18T07:54:30Z</time></trkpt><trkpt lat="37.92880681267761" lon="15.146922608836409"><ele>412.0</ele><time>2026-04-18T07:54:31Z</time></trkpt><trkpt lat="37.92888652298355" lon="15.146924010294635"><ele>412.49999999999994</ele><time>2026-04-18T07:54:32Z</time></trkpt><trkpt lat="37.92900999955704" lon="15.14691187787607"><ele>413.0</ele><time>2026-04-18T07:54:34Z</time></trkpt><trkpt lat="37.92908370603599" lon="15.146905022736618"><ele>412.99999999999994</ele><time>2026-04-18T07:54:35Z</time></trkpt><trkpt lat="37.92915708192986" lon="15.146903687907836"><ele>413.0</ele><time>2026-04-18T07:54:36Z</time></trkpt><trkpt lat="37.92925044337646" lon="15.14690277808872"><ele>413.0</ele><time>2026-04-18T07:54:37Z</time></trkpt><trkpt lat="37.929336254724376" lon="15.146908278350733"><ele>413.0</ele><time>2026-04-18T07:54:38Z</time></trkpt><trkpt lat="37.929416500128475" lon="15.146912460493144"><ele>412.99999999999994</ele><time>2026-04-18T07:54:39Z</time></trkpt><trkpt lat="37.92948901341871" lon="15.146911486706818"><ele>413.0</ele><time>2026-04-18T07:54:40Z</time></trkpt><trkpt lat="37.9295597907154" lon="15.146905216141057"><ele>414.66666666666663</ele><time>2026-04-18T07:54:41Z</time></trkpt><trkpt lat="37.929625797353154" lon="15.146890464042619"><ele>416.3333333333333</ele><time>2026-04-18T07:54:42Z</time></trkpt><trkpt lat="37.929744268386855" lon="15.146881028671283"><ele>418.0</ele><time>2026-04-18T07:54:44Z</time></trkpt><trkpt lat="37.929827399603376" lon="15.14687708508447"><ele>419.66666666666663</ele><time>2026-04-18T07:54:45Z</time></trkpt><trkpt lat="37.92990726486666" lon="15.146863233495507"><ele>421.3333333333333</ele><time>2026-04-18T07:54:46Z</time></trkpt><trkpt lat="37.92998927523815" lon="15.14684173281507"><ele>423.0</ele><time>2026-04-18T07:54:47Z</time></trkpt><trkpt lat="37.9300816539387" lon="15.146786563840733"><ele>423.79999999999995</ele><time>2026-04-18T07:54:48Z</time></trkpt><trkpt lat="37.93017241816944" lon="15.146742211499152"><ele>424.6</ele><time>2026-04-18T07:54:49Z</time></trkpt><trkpt lat="37.93026793699859" lon="15.146715899924194"><ele>425.40000000000003</ele><time>2026-04-18T07:54:50Z</time></trkpt><trkpt lat="37.93036746428484" lon="15.146706738985776"><ele>426.20000000000005</ele><time>2026-04-18T07:54:51Z</time></trkpt><trkpt lat="37.93046918497928" lon="15.146702388773575"><ele>427.0</ele><time>2026-04-18T07:54:52Z</time></trkpt><trkpt lat="37.93056261174089" lon="15.146693300422742"><ele>427.0</ele><time>2026-04-18T07:54:53Z</time></trkpt><trkpt lat="37.930681243054366" lon="15.1466739529187"><ele>427.00000000000006</ele><time>2026-04-18T07:54:54Z</time></trkpt><trkpt lat="37.93078175375531" lon="15.146654426362257"><ele>427.00000000000006</ele><time>2026-04-18T07:54:55Z</time></trkpt><trkpt lat="37.93088193230687" lon="15.146631954059053"><ele>427.0</ele><time>2026-04-18T07:54:56Z</time></trkpt><trkpt lat="37.93097601159925" lon="15.146608213740224"><ele>427.0</ele><time>2026-04-18T07:54:57Z</time></trkpt><trkpt lat="37.931078775549906" lon="15.146573710265036"><ele>428.8</ele><time>2026-04-18T07:54:58Z</time></trkpt><trkpt lat="37.93117116942696" lon="15.146544745788185"><ele>430.6</ele><time>2026-04-18T07:54:59Z</time></trkpt><trkpt lat="37.93127641265598" lon="15.1465194000622"><ele>432.40000000000003</ele><time>2026-04-18T07:55:00Z</time></trkpt><trkpt lat="37.93137759806563" lon="15.146498951921306"><ele>434.20000000000005</ele><time>2026-04-18T07:55:01Z</time></trkpt><trkpt lat="37.93148419549919" lon="15.146487988733606"><ele>436.0</ele><time>2026-04-18T07:55:02Z</time></trkpt><trkpt lat="37.93161279939282" lon="15.146469949497984"><ele>437.75</ele><time>2026-04-18T07:55:02.999Z</time></trkpt><trkpt lat="37.93172801227941" lon="15.146450067184544"><ele>439.5</ele><time>2026-04-18T07:55:03.999Z</time></trkpt><trkpt lat="37.9318505829892" lon="15.146419577263398"><ele>441.25</ele><time>2026-04-18T07:55:04.999Z</time></trkpt><trkpt lat="37.931974374754496" lon="15.146371879197225"><ele>443.0</ele><time>2026-04-18T07:55:05.999Z</time></trkpt><trkpt lat="37.93207919801354" lon="15.14633322792639"><ele>443.0</ele><time>2026-04-18T07:55:06.999Z</time></trkpt><trkpt lat="37.93217370023917" lon="15.146306335631024"><ele>442.99999999999994</ele><time>2026-04-18T07:55:07.999Z</time></trkpt><trkpt lat="37.93228249742551" lon="15.14626667029854"><ele>442.99999999999994</ele><time>2026-04-18T07:55:08.999Z</time></trkpt><trkpt lat="37.932377252293236" lon="15.146242969072356"><ele>443.0</ele><time>2026-04-18T07:55:09.999Z</time></trkpt><trkpt lat="37.932479829932326" lon="15.146242175652093"><ele>443.0</ele><time>2026-04-18T07:55:10.999Z</time></trkpt><trkpt lat="37.93259826601855" lon="15.14622902811579"><ele>444.75</ele><time>2026-04-18T07:55:11.999Z</time></trkpt><trkpt lat="37.93272539479152" lon="15.1462240600103"><ele>446.5</ele><time>2026-04-18T07:55:12.999Z</time></trkpt><trkpt lat="37.93285469915964" lon="15.146216749591055"><ele>448.25</ele><time>2026-04-18T07:55:13.999Z</time></trkpt><trkpt lat="37.9329816639533" lon="15.146197988137018"><ele>450.0</ele><time>2026-04-18T07:55:14.999Z</time></trkpt><trkpt lat="37.933088464271776" lon="15.146184918320303"><ele>450.0</ele><time>2026-04-18T07:55:15.999Z</time></trkpt><trkpt lat="37.93319415158799" lon="15.146187989782483"><ele>450.0</ele><time>2026-04-18T07:55:16.999Z</time></trkpt><trkpt lat="37.93330377818107" lon="15.146176816811051"><ele>450.0</ele><time>2026-04-18T07:55:17.999Z</time></trkpt><trkpt lat="37.93341438088755" lon="15.14618062291429"><ele>450.0</ele><time>2026-04-18T07:55:18.999Z</time></trkpt><trkpt lat="37.93352661267971" lon="15.146176503352617"><ele>450.0</ele><time>2026-04-18T07:55:19.999Z</time></trkpt><trkpt lat="37.93363744454638" lon="15.146163512911071"><ele>451.0</ele><time>2026-04-18T07:55:20.999Z</time></trkpt><trkpt lat="37.93375399012925" lon="15.146149059937448"><ele>452.0</ele><time>2026-04-18T07:55:21.999Z</time></trkpt><trkpt lat="37.933866187259234" lon="15.146131326779114"><ele>453.0</ele><time>2026-04-18T07:55:22.999Z</time></trkpt><trkpt lat="37.93397171880444" lon="15.146123481610784"><ele>454.0</ele><time>2026-04-18T07:55:23.999Z</time></trkpt><trkpt lat="37.93407177352386" lon="15.146142781164437"><ele>455.0</ele><time>2026-04-18T07:55:24.999Z</time></trkpt><trkpt lat="37.93416545771934" lon="15.1461700885202"><ele>456.0</ele><time>2026-04-18T07:55:25.999Z</time></trkpt><trkpt lat="37.93424792469147" lon="15.146215849639754"><ele>457.0</ele><time>2026-04-18T07:55:26.999Z</time></trkpt><trkpt lat="37.93434546257702" lon="15.146256662761672"><ele>458.0</ele><time>2026-04-18T07:55:27.999Z</time></trkpt><trkpt lat="37.93445260211457" lon="15.146304322753615"><ele>459.0</ele><time>2026-04-18T07:55:28.999Z</time></trkpt><trkpt lat="37.9345506893811" lon="15.146340667741319"><ele>460.0</ele><time>2026-04-18T07:55:29.999Z</time></trkpt><trkpt lat="37.93465433270148" lon="15.146376063289022"><ele>460.0</ele><time>2026-04-18T07:55:30.999Z</time></trkpt><trkpt lat="37.93475381994116" lon="15.146398717601308"><ele>460.0</ele><time>2026-04-18T07:55:31.999Z</time></trkpt><trkpt lat="37.93485806598363" lon="15.146400650735057"><ele>460.0</ele><time>2026-04-18T07:55:32.999Z</time></trkpt><trkpt lat="37.93496035627995" lon="15.146391669288542"><ele>460.0</ele><time>2026-04-18T07:55:33.999Z</time></trkpt><trkpt lat="37.93505595958412" lon="15.146364530658083"><ele>460.0</ele><time>2026-04-18T07:55:34.999Z</time></trkpt><trkpt lat="37.93517220181973" lon="15.146319120669347"><ele>460.8</ele><time>2026-04-18T07:55:35.999Z</time></trkpt><trkpt lat="37.93527779875523" lon="15.14626662516356"><ele>461.6</ele><time>2026-04-18T07:55:36.999Z</time></trkpt><trkpt lat="37.935375761409986" lon="15.146229574746474"><ele>462.4</ele><time>2026-04-18T07:55:37.999Z</time></trkpt><trkpt lat="37.935465581095876" lon="15.146187463223411"><ele>463.2</ele><time>2026-04-18T07:55:38.999Z</time></trkpt><trkpt lat="37.93554617716078" lon="15.146140402233883"><ele>464.0</ele><time>2026-04-18T07:55:39.999Z</time></trkpt><trkpt lat="37.935624894271314" lon="15.146094736186882"><ele>463.99999999999994</ele><time>2026-04-18T07:55:40.999Z</time></trkpt><trkpt lat="37.93570271620632" lon="15.14604478637401"><ele>464.0</ele><time>2026-04-18T07:55:41.999Z</time></trkpt><trkpt lat="37.93577940539261" lon="15.145996117384321"><ele>464.0</ele><time>2026-04-18T07:55:42.999Z</time></trkpt><trkpt lat="37.93584454945956" lon="15.145950865140092"><ele>464.0</ele><time>2026-04-18T07:55:43.999Z</time></trkpt><trkpt lat="37.93592744117551" lon="15.145890558376655"><ele>463.99999999999994</ele><time>2026-04-18T07:55:44.999Z</time></trkpt><trkpt lat="37.93601545398838" lon="15.145830477686294"><ele>464.0</ele><time>2026-04-18T07:55:45.999Z</time></trkpt><trkpt lat="37.93609853337474" lon="15.145773695364898"><ele>465.66666666666663</ele><time>2026-04-18T07:55:46.999Z</time></trkpt><trkpt lat="37.936175897556396" lon="15.145710600371777"><ele>467.3333333333333</ele><time>2026-04-18T07:55:47.999Z</time></trkpt><trkpt lat="37.93626924213806" lon="15.145619409975183"><ele>469.0</ele><time>2026-04-18T07:55:49.999Z</time></trkpt><trkpt lat="37.93631656197777" lon="15.14555505115642"><ele>470.66666666666663</ele><time>2026-04-18T07:55:51.999Z</time></trkpt><trkpt lat="37.936352569212325" lon="15.145454031070416"><ele>472.3333333333333</ele><time>2026-04-18T07:55:54.999Z</time></trkpt><trkpt lat="37.93637720582146" lon="15.145365940286762"><ele>474.0</ele><time>2026-04-18T07:55:57.999Z</time></trkpt><trkpt lat="37.93646537835649" lon="15.145361046659254"><ele>474.0</ele><time>2026-04-18T07:56:13Z</time></trkpt><trkpt lat="37.93656555325304" lon="15.145347569473074"><ele>474.0</ele><time>2026-04-18T07:56:15Z</time></trkpt><trkpt lat="37.93668800118512" lon="15.145322839547621"><ele>474.0</ele><time>2026-04-18T07:56:17Z</time></trkpt><trkpt lat="37.93676418945106" lon="15.145292886117689"><ele>474.0</ele><time>2026-04-18T07:56:18Z</time></trkpt><trkpt lat="37.93684061496527" lon="15.145261553129671"><ele>474.0</ele><time>2026-04-18T07:56:19Z</time></trkpt><trkpt lat="37.93692328944218" lon="15.14522048877984"><ele>475.5</ele><time>2026-04-18T07:56:20Z</time></trkpt><trkpt lat="37.93697486972721" lon="15.145172965312545"><ele>477.0</ele><time>2026-04-18T07:56:21Z</time></trkpt><trkpt lat="37.93702416986277" lon="15.145099660684824"><ele>478.5</ele><time>2026-04-18T07:56:22Z</time></trkpt><trkpt lat="37.937070309545014" lon="15.145010973423538"><ele>480.0</ele><time>2026-04-18T07:56:23Z</time></trkpt><trkpt lat="37.93711658632035" lon="15.144896993563203"><ele>481.5</ele><time>2026-04-18T07:56:25Z</time></trkpt><trkpt lat="37.937201109205645" lon="15.144916058288953"><ele>483.0</ele><time>2026-04-18T07:56:29Z</time></trkpt><trkpt lat="37.93723419604667" lon="15.145030156486003"><ele>483.0</ele><time>2026-04-18T07:56:32Z</time></trkpt><trkpt lat="37.93721950345666" lon="15.145187952767944"><ele>482.99999999999994</ele><time>2026-04-18T07:56:34Z</time></trkpt><trkpt lat="37.93728876078834" lon="15.145268506185396"><ele>482.99999999999994</ele><time>2026-04-18T07:56:36Z</time></trkpt><trkpt lat="37.93736313615974" lon="15.145280462366737"><ele>483.0</ele><time>2026-04-18T07:56:37Z</time></trkpt><trkpt lat="37.93745222256456" lon="15.145260246095097"><ele>483.0</ele><time>2026-04-18T07:56:38Z</time></trkpt><trkpt lat="37.93754672094051" lon="15.145216534690615"><ele>484.6666666666667</ele><time>2026-04-18T07:56:39Z</time></trkpt><trkpt lat="37.937639365163086" lon="15.145158680226894"><ele>486.33333333333337</ele><time>2026-04-18T07:56:40Z</time></trkpt><trkpt lat="37.93772383705874" lon="15.145125935312436"><ele>488.0</ele><time>2026-04-18T07:56:41Z</time></trkpt><trkpt lat="37.93779922448826" lon="15.145115063167074"><ele>489.6666666666667</ele><time>2026-04-18T07:56:42Z</time></trkpt><trkpt lat="37.9378681845253" lon="15.145071946047281"><ele>491.33333333333337</ele><time>2026-04-18T07:56:43Z</time></trkpt><trkpt lat="37.93792893954287" lon="15.144992260396855"><ele>493.0</ele><time>2026-04-18T07:56:44Z</time></trkpt><trkpt lat="37.937980686637005" lon="15.144915960559217"><ele>493.0</ele><time>2026-04-18T07:56:45Z</time></trkpt><trkpt lat="37.93811157332929" lon="15.144945254363883"><ele>492.99999999999994</ele><time>2026-04-18T07:56:47Z</time></trkpt><trkpt lat="37.93819241597185" lon="15.145013000140212"><ele>492.99999999999994</ele><time>2026-04-18T07:56:48Z</time></trkpt><trkpt lat="37.93827032995166" lon="15.14507867743297"><ele>493.0</ele><time>2026-04-18T07:56:49Z</time></trkpt><trkpt lat="37.938355214079564" lon="15.145118775524978"><ele>493.0</ele><time>2026-04-18T07:56:50Z</time></trkpt><trkpt lat="37.93844414548422" lon="15.14513254387403"><ele>495.4</ele><time>2026-04-18T07:56:51Z</time></trkpt><trkpt lat="37.93853409528957" lon="15.145123514220646"><ele>497.79999999999995</ele><time>2026-04-18T07:56:52Z</time></trkpt><trkpt lat="37.93864509746632" lon="15.145096630691349"><ele>500.2</ele><time>2026-04-18T07:56:53Z</time></trkpt><trkpt lat="37.938744604290584" lon="15.145078921370311"><ele>502.6</ele><time>2026-04-18T07:56:54Z</time></trkpt><trkpt lat="37.93884639587867" lon="15.145097864718299"><ele>505.0</ele><time>2026-04-18T07:56:55Z</time></trkpt><trkpt lat="37.93892847068525" lon="15.145122589368412"><ele>505.0</ele><time>2026-04-18T07:56:56Z</time></trkpt><trkpt lat="37.93901501338975" lon="15.145130201698251"><ele>505.0</ele><time>2026-04-18T07:56:57Z</time></trkpt><trkpt lat="37.939109109160945" lon="15.145091069042785"><ele>505.0</ele><time>2026-04-18T07:56:58Z</time></trkpt><trkpt lat="37.939196291213186" lon="15.145039509395097"><ele>505.0</ele><time>2026-04-18T07:56:59Z</time></trkpt><trkpt lat="37.93929229387507" lon="15.14500668338474"><ele>505.0</ele><time>2026-04-18T07:57:00Z</time></trkpt><trkpt lat="37.93938912308196" lon="15.145007859673061"><ele>506.6666666666667</ele><time>2026-04-18T07:57:01Z</time></trkpt><trkpt lat="37.939483560984" lon="15.144987994984456"><ele>508.33333333333337</ele><time>2026-04-18T07:57:02Z</time></trkpt><trkpt lat="37.939563399912046" lon="15.14496562526127"><ele>510.0</ele><time>2026-04-18T07:57:03Z</time></trkpt><trkpt lat="37.939642008336506" lon="15.144962183440452"><ele>511.66666666666663</ele><time>2026-04-18T07:57:04Z</time></trkpt><trkpt lat="37.93972468763786" lon="15.14498131117774"><ele>513.3333333333333</ele><time>2026-04-18T07:57:05Z</time></trkpt><trkpt lat="37.939807080726965" lon="15.144986967280536"><ele>515.0</ele><time>2026-04-18T07:57:06Z</time></trkpt><trkpt lat="37.939879068820545" lon="15.144995710894971"><ele>515.0</ele><time>2026-04-18T07:57:07Z</time></trkpt><trkpt lat="37.939953591004375" lon="15.145021688757538"><ele>515.0</ele><time>2026-04-18T07:57:08Z</time></trkpt><trkpt lat="37.940011504479415" lon="15.145065872216483"><ele>515.0</ele><time>2026-04-18T07:57:09Z</time></trkpt><trkpt lat="37.94007140946896" lon="15.145138725400113"><ele>515.0</ele><time>2026-04-18T07:57:10Z</time></trkpt><trkpt lat="37.940123837002254" lon="15.145245083456508"><ele>515.0</ele><time>2026-04-18T07:57:11Z</time></trkpt><trkpt lat="37.940176175119326" lon="15.1453382050245"><ele>515.0</ele><time>2026-04-18T07:57:12Z</time></trkpt><trkpt lat="37.940233275995595" lon="15.14540205922843"><ele>517.2</ele><time>2026-04-18T07:57:13Z</time></trkpt><trkpt lat="37.94029631287178" lon="15.14546876221783"><ele>519.4</ele><time>2026-04-18T07:57:14Z</time></trkpt><trkpt lat="37.94037558908886" lon="15.145525914925603"><ele>521.6</ele><time>2026-04-18T07:57:15Z</time></trkpt><trkpt lat="37.94047359522935" lon="15.145565500827447"><ele>523.8</ele><time>2026-04-18T07:57:15.999Z</time></trkpt><trkpt lat="37.9405696708027" lon="15.145590596798076"><ele>526.0</ele><time>2026-04-18T07:57:16.999Z</time></trkpt><trkpt lat="37.940662243687896" lon="15.14562115332197"><ele>526.0</ele><time>2026-04-18T07:57:17.999Z</time></trkpt><trkpt lat="37.940750225204624" lon="15.145659615501065"><ele>526.0</ele><time>2026-04-18T07:57:18.999Z</time></trkpt><trkpt lat="37.940840283830624" lon="15.14566792922517"><ele>526.0</ele><time>2026-04-18T07:57:19.999Z</time></trkpt><trkpt lat="37.94095188560089" lon="15.14565852322214"><ele>526.0</ele><time>2026-04-18T07:57:20.999Z</time></trkpt><trkpt lat="37.94106902951491" lon="15.145649125292422"><ele>526.0</ele><time>2026-04-18T07:57:21.999Z</time></trkpt><trkpt lat="37.94118250929821" lon="15.145659918532669"><ele>527.6</ele><time>2026-04-18T07:57:22.999Z</time></trkpt><trkpt lat="37.941284793304156" lon="15.145703802150075"><ele>529.2</ele><time>2026-04-18T07:57:23.999Z</time></trkpt><trkpt lat="37.9413484027458" lon="15.14573726477412"><ele>530.8</ele><time>2026-04-18T07:57:24.999Z</time></trkpt><trkpt lat="37.941415194234715" lon="15.1457336116441"><ele>532.4</ele><time>2026-04-18T07:57:25.999Z</time></trkpt><trkpt lat="37.94154034172641" lon="15.145620459493452"><ele>534.0</ele><time>2026-04-18T07:57:27.999Z</time></trkpt><trkpt lat="37.941621263596225" lon="15.145595821827905"><ele>535.2</ele><time>2026-04-18T07:57:28.999Z</time></trkpt><trkpt lat="37.941718902508114" lon="15.145603949274303"><ele>536.4</ele><time>2026-04-18T07:57:29.999Z</time></trkpt><trkpt lat="37.941808422383815" lon="15.145638661537056"><ele>537.6</ele><time>2026-04-18T07:57:30.999Z</time></trkpt><trkpt lat="37.94190260413648" lon="15.145679750722746"><ele>538.8</ele><time>2026-04-18T07:57:31.999Z</time></trkpt><trkpt lat="37.94199682636012" lon="15.145739696375681"><ele>540.0</ele><time>2026-04-18T07:57:32.999Z</time></trkpt><trkpt lat="37.94208774938129" lon="15.145813338495596"><ele>541.2</ele><time>2026-04-18T07:57:33.999Z</time></trkpt><trkpt lat="37.94217456951096" lon="15.1459045680235"><ele>542.4</ele><time>2026-04-18T07:57:34.999Z</time></trkpt><trkpt lat="37.942249497102246" lon="15.145996222073148"><ele>543.6</ele><time>2026-04-18T07:57:35.999Z</time></trkpt><trkpt lat="37.94231938002406" lon="15.146094083388233"><ele>544.8</ele><time>2026-04-18T07:57:36.999Z</time></trkpt><trkpt lat="37.942391180879405" lon="15.146198797379757"><ele>546.0</ele><time>2026-04-18T07:57:37.999Z</time></trkpt><trkpt lat="37.942454504600946" lon="15.146300847009574"><ele>546.0</ele><time>2026-04-18T07:57:38.999Z</time></trkpt><trkpt lat="37.942487446001294" lon="15.146412837018135"><ele>546.0</ele><time>2026-04-18T07:57:39.999Z</time></trkpt><trkpt lat="37.94249683271574" lon="15.146529271363166"><ele>546.0</ele><time>2026-04-18T07:57:40.999Z</time></trkpt><trkpt lat="37.9425205938812" lon="15.146637529662083"><ele>546.0</ele><time>2026-04-18T07:57:41.999Z</time></trkpt><trkpt lat="37.9425708525978" lon="15.14671027735352"><ele>546.0</ele><time>2026-04-18T07:57:42.999Z</time></trkpt><trkpt lat="37.94264604280146" lon="15.14679256396473"><ele>548.4</ele><time>2026-04-18T07:57:43.999Z</time></trkpt><trkpt lat="37.94271010362301" lon="15.14687779348685"><ele>550.8</ele><time>2026-04-18T07:57:44.999Z</time></trkpt><trkpt lat="37.942792331766626" lon="15.146958204456942"><ele>553.1999999999999</ele><time>2026-04-18T07:57:45.999Z</time></trkpt><trkpt lat="37.942873857266186" lon="15.147041532198713"><ele>555.6</ele><time>2026-04-18T07:57:46.999Z</time></trkpt><trkpt lat="37.9429439138514" lon="15.147109188210788"><ele>558.0</ele><time>2026-04-18T07:57:47.999Z</time></trkpt><trkpt lat="37.943018032750714" lon="15.147174177675137"><ele>558.0</ele><time>2026-04-18T07:57:48.999Z</time></trkpt><trkpt lat="37.94308764164764" lon="15.147239484657401"><ele>558.0</ele><time>2026-04-18T07:57:49.999Z</time></trkpt><trkpt lat="37.94315204484552" lon="15.147310515863227"><ele>558.0</ele><time>2026-04-18T07:57:50.999Z</time></trkpt><trkpt lat="37.943223725474255" lon="15.147397675936022"><ele>558.0</ele><time>2026-04-18T07:57:51.999Z</time></trkpt><trkpt lat="37.94329344681253" lon="15.147496784864925"><ele>558.0</ele><time>2026-04-18T07:57:52.999Z</time></trkpt><trkpt lat="37.9433236427543" lon="15.147592726739738"><ele>559.1666666666666</ele><time>2026-04-18T07:57:53.999Z</time></trkpt><trkpt lat="37.943376314772266" lon="15.147688006661824"><ele>560.3333333333334</ele><time>2026-04-18T07:57:54.999Z</time></trkpt><trkpt lat="37.94344731010571" lon="15.147739999784378"><ele>561.5</ele><time>2026-04-18T07:57:55.999Z</time></trkpt><trkpt lat="37.943526190363954" lon="15.147771447065422"><ele>562.6666666666667</ele><time>2026-04-18T07:57:56.999Z</time></trkpt><trkpt lat="37.94358368525903" lon="15.147804281014164"><ele>563.8333333333334</ele><time>2026-04-18T07:57:57.999Z</time></trkpt><trkpt lat="37.94361462487774" lon="15.147891135829267"><ele>565.0</ele><time>2026-04-18T07:58:00.999Z</time></trkpt><trkpt lat="37.94365143575931" lon="15.14796585946876"><ele>566.2</ele><time>2026-04-18T07:58:26Z</time></trkpt><trkpt lat="37.94373875771977" lon="15.147971253244956"><ele>567.4</ele><time>2026-04-18T07:58:29Z</time></trkpt><trkpt lat="37.94383519357463" lon="15.147916068613123"><ele>568.6</ele><time>2026-04-18T07:58:31Z</time></trkpt><trkpt lat="37.94391380108055" lon="15.14782068227643"><ele>569.8</ele><time>2026-04-18T07:58:33Z</time></trkpt><trkpt lat="37.94394729464143" lon="15.147728660039386"><ele>571.0</ele><time>2026-04-18T07:58:34Z</time></trkpt><trkpt lat="37.94394901675204" lon="15.147620730195442"><ele>571.0</ele><time>2026-04-18T07:58:35Z</time></trkpt><trkpt lat="37.943948720631376" lon="15.147535017083095"><ele>571.0</ele><time>2026-04-18T07:58:36Z</time></trkpt><trkpt lat="37.943943359705514" lon="15.147430649667184"><ele>571.0</ele><time>2026-04-18T07:58:38Z</time></trkpt><trkpt lat="37.94397030134777" lon="15.1473306909645"><ele>571.0</ele><time>2026-04-18T07:58:52Z</time></trkpt><trkpt lat="37.94398391216224" lon="15.147187090012638"><ele>571.0</ele><time>2026-04-18T07:58:54Z</time></trkpt><trkpt lat="37.9439965792306" lon="15.147098119120097"><ele>571.0</ele><time>2026-04-18T07:58:55Z</time></trkpt><trkpt lat="37.94381612368811" lon="15.146956773019383"><ele>570.3333333333334</ele><time>2026-04-18T07:58:56Z</time></trkpt><trkpt lat="37.94380149778043" lon="15.146850912175028"><ele>569.6666666666667</ele><time>2026-04-18T07:58:57Z</time></trkpt><trkpt lat="37.94377621657135" lon="15.1467414926997"><ele>569.0</ele><time>2026-04-18T07:58:58Z</time></trkpt><trkpt lat="37.94374430575368" lon="15.146637108677721"><ele>568.3333333333334</ele><time>2026-04-18T07:58:59Z</time></trkpt><trkpt lat="37.94369549693159" lon="15.146552209896939"><ele>567.6666666666666</ele><time>2026-04-18T07:59:00Z</time></trkpt><trkpt lat="37.9436214121235" lon="15.146487249015713"><ele>567.0</ele><time>2026-04-18T07:59:01Z</time></trkpt><trkpt lat="37.9435419127608" lon="15.146434710615358"><ele>565.8333333333334</ele><time>2026-04-18T07:59:02Z</time></trkpt><trkpt lat="37.943461894403974" lon="15.146381358507218"><ele>564.6666666666666</ele><time>2026-04-18T07:59:03Z</time></trkpt><trkpt lat="37.94338168243651" lon="15.146332579152697"><ele>563.5</ele><time>2026-04-18T07:59:04Z</time></trkpt><trkpt lat="37.94331775512774" lon="15.1462733297586"><ele>562.3333333333333</ele><time>2026-04-18T07:59:05Z</time></trkpt><trkpt lat="37.94326067018696" lon="15.146194907332161"><ele>561.1666666666666</ele><time>2026-04-18T07:59:06Z</time></trkpt><trkpt lat="37.94322214214696" lon="15.146110744490123"><ele>560.0</ele><time>2026-04-18T07:59:07Z</time></trkpt><trkpt lat="37.94318866388636" lon="15.146005848491859"><ele>559.0</ele><time>2026-04-18T07:59:08Z</time></trkpt><trkpt lat="37.943172005335484" lon="15.14590162510267"><ele>558.0</ele><time>2026-04-18T07:59:09Z</time></trkpt><trkpt lat="37.94317077140536" lon="15.14580944182806"><ele>557.0</ele><time>2026-04-18T07:59:10Z</time></trkpt><trkpt lat="37.9431546186639" lon="15.145715549238899"><ele>556.0</ele><time>2026-04-18T07:59:11Z</time></trkpt><trkpt lat="37.943129474399505" lon="15.145628831804695"><ele>555.0</ele><time>2026-04-18T07:59:12Z</time></trkpt><trkpt lat="37.9430917763584" lon="15.145538266073983"><ele>554.0</ele><time>2026-04-18T07:59:13Z</time></trkpt><trkpt lat="37.943046903824495" lon="15.145467276843117"><ele>552.8333333333333</ele><time>2026-04-18T07:59:14Z</time></trkpt><trkpt lat="37.94299868630794" lon="15.145408210998122"><ele>551.6666666666666</ele><time>2026-04-18T07:59:15Z</time></trkpt><trkpt lat="37.942960124618395" lon="15.145336834642121"><ele>550.5</ele><time>2026-04-18T07:59:16Z</time></trkpt><trkpt lat="37.942940431561006" lon="15.145180128226833"><ele>549.3333333333334</ele><time>2026-04-18T07:59:18Z</time></trkpt><trkpt lat="37.94296181814002" lon="15.145101220188263"><ele>548.1666666666667</ele><time>2026-04-18T07:59:19Z</time></trkpt><trkpt lat="37.942995619536504" lon="15.144964585315487"><ele>547.0</ele><time>2026-04-18T07:59:21Z</time></trkpt><trkpt lat="37.94298506483899" lon="15.144856364102901"><ele>545.8333333333334</ele><time>2026-04-18T07:59:23Z</time></trkpt><trkpt lat="37.94291804827488" lon="15.144733244212915"><ele>544.6666666666667</ele><time>2026-04-18T07:59:25Z</time></trkpt><trkpt lat="37.942866391311505" lon="15.14467458202691"><ele>543.5</ele><time>2026-04-18T07:59:26Z</time></trkpt><trkpt lat="37.942808670964816" lon="15.144623355969888"><ele>542.3333333333334</ele><time>2026-04-18T07:59:27Z</time></trkpt><trkpt lat="37.94275939783431" lon="15.144564133942097"><ele>541.1666666666666</ele><time>2026-04-18T07:59:28Z</time></trkpt><trkpt lat="37.9427235331932" lon="15.14449748897936"><ele>540.0</ele><time>2026-04-18T07:59:29Z</time></trkpt><trkpt lat="37.94267674169069" lon="15.144362300512752"><ele>540.0</ele><time>2026-04-18T07:59:31Z</time></trkpt><trkpt lat="37.942667987965315" lon="15.14421681657712"><ele>540.0</ele><time>2026-04-18T07:59:33Z</time></trkpt><trkpt lat="37.94265810182839" lon="15.144137087251616"><ele>540.0</ele><time>2026-04-18T07:59:34Z</time></trkpt><trkpt lat="37.94265794862564" lon="15.144050887012481"><ele>540.0</ele><time>2026-04-18T07:59:35Z</time></trkpt><trkpt lat="37.942679689699446" lon="15.143909673341534"><ele>540.0</ele><time>2026-04-18T07:59:37Z</time></trkpt><trkpt lat="37.942706577954134" lon="15.143807947985628"><ele>540.0</ele><time>2026-04-18T07:59:39Z</time></trkpt><trkpt lat="37.94274213759274" lon="15.14371252642669"><ele>539.0</ele><time>2026-04-18T07:59:41Z</time></trkpt><trkpt lat="37.9427908206241" lon="15.14357077055867"><ele>538.0</ele><time>2026-04-18T07:59:43Z</time></trkpt><trkpt lat="37.94282355995418" lon="15.143501254185008"><ele>537.0</ele><time>2026-04-18T07:59:44Z</time></trkpt><trkpt lat="37.942884155304625" lon="15.143402949734341"><ele>536.0</ele><time>2026-04-18T07:59:46Z</time></trkpt><trkpt lat="37.94293998748035" lon="15.143316468009488"><ele>535.0</ele><time>2026-04-18T07:59:48Z</time></trkpt><trkpt lat="37.943019636340416" lon="15.143257768005071"><ele>535.0</ele><time>2026-04-18T07:59:50Z</time></trkpt><trkpt lat="37.94313277540877" lon="15.14323868587659"><ele>535.0</ele><time>2026-04-18T07:59:52Z</time></trkpt><trkpt lat="37.94320959036107" lon="15.143212161756225"><ele>535.0</ele><time>2026-04-18T07:59:54Z</time></trkpt><trkpt lat="37.94331182251233" lon="15.14315244850495"><ele>535.0</ele><time>2026-04-18T07:59:56Z</time></trkpt><trkpt lat="37.94342858732879" lon="15.14311852431092"><ele>535.0</ele><time>2026-04-18T07:59:58Z</time></trkpt><trkpt lat="37.94350894977782" lon="15.143125457367786"><ele>536.0</ele><time>2026-04-18T07:59:59Z</time></trkpt><trkpt lat="37.9436027091413" lon="15.143108618127824"><ele>537.0</ele><time>2026-04-18T08:00:00Z</time></trkpt><trkpt lat="37.943683348616" lon="15.143058809471308"><ele>538.0</ele><time>2026-04-18T08:00:01Z</time></trkpt><trkpt lat="37.943766682899344" lon="15.143001182758073"><ele>539.0</ele><time>2026-04-18T08:00:02Z</time></trkpt><trkpt lat="37.9438568689106" lon="15.142937872877702"><ele>540.0</ele><time>2026-04-18T08:00:03Z</time></trkpt><trkpt lat="37.94394227988511" lon="15.142894484359486"><ele>540.0</ele><time>2026-04-18T08:00:04Z</time></trkpt><trkpt lat="37.94402143576103" lon="15.142849098716704"><ele>540.0</ele><time>2026-04-18T08:00:05Z</time></trkpt><trkpt lat="37.944104796705716" lon="15.142807203847797"><ele>540.0</ele><time>2026-04-18T08:00:06Z</time></trkpt><trkpt lat="37.94418851415967" lon="15.142779343440973"><ele>540.0</ele><time>2026-04-18T08:00:07Z</time></trkpt><trkpt lat="37.94427213297467" lon="15.142762248726916"><ele>540.0</ele><time>2026-04-18T08:00:07.999Z</time></trkpt><trkpt lat="37.94435546845041" lon="15.142762360693524"><ele>540.0</ele><time>2026-04-18T08:00:08.999Z</time></trkpt><trkpt lat="37.944436570750135" lon="15.142753330608164"><ele>541.1666666666666</ele><time>2026-04-18T08:00:09.999Z</time></trkpt><trkpt lat="37.94453650269353" lon="15.142720292174348"><ele>542.3333333333334</ele><time>2026-04-18T08:00:10.999Z</time></trkpt><trkpt lat="37.94462117583612" lon="15.142687162000227"><ele>543.5</ele><time>2026-04-18T08:00:11.999Z</time></trkpt><trkpt lat="37.94469967546815" lon="15.142639300371215"><ele>544.6666666666667</ele><time>2026-04-18T08:00:12.999Z</time></trkpt><trkpt lat="37.94477629014531" lon="15.142587620221706"><ele>545.8333333333334</ele><time>2026-04-18T08:00:13.999Z</time></trkpt><trkpt lat="37.94484897665403" lon="15.142538885211769"><ele>547.0</ele><time>2026-04-18T08:00:14.999Z</time></trkpt><trkpt lat="37.94491862482821" lon="15.1424801308329"><ele>547.0</ele><time>2026-04-18T08:00:15.999Z</time></trkpt><trkpt lat="37.94497386588701" lon="15.14242213891972"><ele>547.0</ele><time>2026-04-18T08:00:17Z</time></trkpt><trkpt lat="37.945019522768064" lon="15.142345745254056"><ele>547.0</ele><time>2026-04-18T08:00:18Z</time></trkpt><trkpt lat="37.945074486555555" lon="15.142281091487192"><ele>547.0</ele><time>2026-04-18T08:00:19Z</time></trkpt><trkpt lat="37.94514345128246" lon="15.142218281096788"><ele>547.0</ele><time>2026-04-18T08:00:20Z</time></trkpt><trkpt lat="37.94521733294399" lon="15.142175622828892"><ele>547.0</ele><time>2026-04-18T08:00:21Z</time></trkpt><trkpt lat="37.94528859472128" lon="15.142124753325987"><ele>548.3333333333334</ele><time>2026-04-18T08:00:22Z</time></trkpt><trkpt lat="37.94537374133943" lon="15.142064429049682"><ele>549.6666666666667</ele><time>2026-04-18T08:00:23Z</time></trkpt><trkpt lat="37.94546124352263" lon="15.14199845574675"><ele>551.0</ele><time>2026-04-18T08:00:24Z</time></trkpt><trkpt lat="37.94553065642227" lon="15.14194719614166"><ele>552.3333333333334</ele><time>2026-04-18T08:00:25Z</time></trkpt><trkpt lat="37.945597379004425" lon="15.141894515147843"><ele>553.6666666666666</ele><time>2026-04-18T08:00:26Z</time></trkpt><trkpt lat="37.94567757306041" lon="15.141853751640726"><ele>555.0</ele><time>2026-04-18T08:00:27Z</time></trkpt><trkpt lat="37.945766325249494" lon="15.141817808439173"><ele>555.0</ele><time>2026-04-18T08:00:28Z</time></trkpt><trkpt lat="37.94584313708431" lon="15.141790720030746"><ele>555.0</ele><time>2026-04-18T08:00:29Z</time></trkpt><trkpt lat="37.9459291772733" lon="15.141735069713581"><ele>555.0</ele><time>2026-04-18T08:00:30Z</time></trkpt><trkpt lat="37.946009071874734" lon="15.141670865042727"><ele>555.0</ele><time>2026-04-18T08:00:31Z</time></trkpt><trkpt lat="37.94608573378742" lon="15.141595662500956"><ele>555.0</ele><time>2026-04-18T08:00:32Z</time></trkpt><trkpt lat="37.94615602980119" lon="15.141518567401157"><ele>556.3333333333334</ele><time>2026-04-18T08:00:33Z</time></trkpt><trkpt lat="37.946224308777545" lon="15.141444299826441"><ele>557.6666666666666</ele><time>2026-04-18T08:00:34Z</time></trkpt><trkpt lat="37.946286882443076" lon="15.141376048700543"><ele>559.0</ele><time>2026-04-18T08:00:35Z</time></trkpt><trkpt lat="37.9463619281026" lon="15.141316369071752"><ele>560.3333333333333</ele><time>2026-04-18T08:00:36Z</time></trkpt><trkpt lat="37.946437131055696" lon="15.141279162049932"><ele>561.6666666666666</ele><time>2026-04-18T08:00:37Z</time></trkpt><trkpt lat="37.94650157006789" lon="15.141252897199593"><ele>563.0</ele><time>2026-04-18T08:00:38Z</time></trkpt><trkpt lat="37.94657378833949" lon="15.14114164278064"><ele>563.0</ele><time>2026-04-18T08:00:40Z</time></trkpt><trkpt lat="37.94658818943147" lon="15.141049445770024"><ele>563.0</ele><time>2026-04-18T08:00:41Z</time></trkpt><trkpt lat="37.94662352638714" lon="15.140952577537808"><ele>563.0</ele><time>2026-04-18T08:00:42Z</time></trkpt><trkpt lat="37.94668997905981" lon="15.140848562478908"><ele>563.0</ele><time>2026-04-18T08:00:43Z</time></trkpt><trkpt lat="37.94676388022079" lon="15.14076134068292"><ele>563.0</ele><time>2026-04-18T08:00:44Z</time></trkpt><trkpt lat="37.94683128529397" lon="15.140670755983736"><ele>564.6666666666666</ele><time>2026-04-18T08:00:45Z</time></trkpt><trkpt lat="37.94689221859234" lon="15.140582658335932"><ele>566.3333333333333</ele><time>2026-04-18T08:00:46Z</time></trkpt><trkpt lat="37.94695694608321" lon="15.140505668834209"><ele>568.0</ele><time>2026-04-18T08:00:47Z</time></trkpt><trkpt lat="37.94702386821778" lon="15.140462646142032"><ele>569.6666666666666</ele><time>2026-04-18T08:00:48Z</time></trkpt><trkpt lat="37.94712011060198" lon="15.140415592932607"><ele>571.3333333333334</ele><time>2026-04-18T08:00:50Z</time></trkpt><trkpt lat="37.94718021282714" lon="15.140351200128462"><ele>573.0</ele><time>2026-04-18T08:00:53Z</time></trkpt><trkpt lat="37.94714129224705" lon="15.140286830024747"><ele>573.0</ele><time>2026-04-18T08:00:56Z</time></trkpt><trkpt lat="37.947115588651315" lon="15.140369511478594"><ele>573.0</ele><time>2026-04-18T08:01:09Z</time></trkpt><trkpt lat="37.94715086192033" lon="15.140490227439022"><ele>573.0</ele><time>2026-04-18T08:01:11Z</time></trkpt><trkpt lat="37.94718679422339" lon="15.14063212027019"><ele>573.0</ele><time>2026-04-18T08:01:13Z</time></trkpt><trkpt lat="37.94722800533956" lon="15.140765062694145"><ele>573.0</ele><time>2026-04-18T08:01:15Z</time></trkpt><trkpt lat="37.94730552067723" lon="15.140858329991461"><ele>575.0</ele><time>2026-04-18T08:01:17Z</time></trkpt><trkpt lat="37.947309998928986" lon="15.14101251524036"><ele>577.0</ele><time>2026-04-18T08:01:19Z</time></trkpt><trkpt lat="37.94731862004225" lon="15.141105220004272"><ele>579.0</ele><time>2026-04-18T08:01:20Z</time></trkpt><trkpt lat="37.947331206431826" lon="15.14120358622374"><ele>581.0</ele><time>2026-04-18T08:01:21Z</time></trkpt><trkpt lat="37.94735365685644" lon="15.141290861178222"><ele>583.0</ele><time>2026-04-18T08:01:22Z</time></trkpt><trkpt lat="37.94736601854747" lon="15.141455716379891"><ele>584.6666666666667</ele><time>2026-04-18T08:01:24Z</time></trkpt><trkpt lat="37.9473686264258" lon="15.141567016386498"><ele>586.3333333333334</ele><time>2026-04-18T08:01:25Z</time></trkpt><trkpt lat="37.94737751765756" lon="15.141663754147034"><ele>588.0</ele><time>2026-04-18T08:01:26Z</time></trkpt><trkpt lat="37.94732779397086" lon="15.141812512860481"><ele>589.6666666666666</ele><time>2026-04-18T08:01:28Z</time></trkpt><trkpt lat="37.94727537584746" lon="15.141859900668429"><ele>591.3333333333333</ele><time>2026-04-18T08:01:29Z</time></trkpt><trkpt lat="37.94720785373029" lon="15.141897447496856"><ele>593.0</ele><time>2026-04-18T08:01:30Z</time></trkpt><trkpt lat="37.94714640713213" lon="15.141926425956832"><ele>593.0</ele><time>2026-04-18T08:01:31Z</time></trkpt><trkpt lat="37.94705596597081" lon="15.141975850042904"><ele>593.0</ele><time>2026-04-18T08:01:32Z</time></trkpt><trkpt lat="37.94698806179699" lon="15.142028594767396"><ele>593.0</ele><time>2026-04-18T08:01:33Z</time></trkpt><trkpt lat="37.946920195544365" lon="15.14210400611382"><ele>593.0</ele><time>2026-04-18T08:01:34Z</time></trkpt><trkpt lat="37.94684515093445" lon="15.1421821682062"><ele>593.0</ele><time>2026-04-18T08:01:35Z</time></trkpt><trkpt lat="37.946769887799825" lon="15.14223545626244"><ele>593.0</ele><time>2026-04-18T08:01:36Z</time></trkpt><trkpt lat="37.946706486820595" lon="15.14227016101571"><ele>593.0</ele><time>2026-04-18T08:01:37Z</time></trkpt><trkpt lat="37.94662606674749" lon="15.142293210024388"><ele>593.0</ele><time>2026-04-18T08:01:39Z</time></trkpt><trkpt lat="37.946659954229006" lon="15.14236640189385"><ele>593.0</ele><time>2026-04-18T08:01:41Z</time></trkpt><trkpt lat="37.946772622196185" lon="15.142357531191466"><ele>593.0</ele><time>2026-04-18T08:01:43Z</time></trkpt><trkpt lat="37.94684854803146" lon="15.142351323159167"><ele>593.0</ele><time>2026-04-18T08:01:44Z</time></trkpt><trkpt lat="37.9469297755754" lon="15.142365628896941"><ele>596.3333333333333</ele><time>2026-04-18T08:01:45Z</time></trkpt><trkpt lat="37.946998151775574" lon="15.142388558497442"><ele>599.6666666666666</ele><time>2026-04-18T08:01:46Z</time></trkpt><trkpt lat="37.94706246392128" lon="15.142405833687295"><ele>603.0</ele><time>2026-04-18T08:01:47Z</time></trkpt><trkpt lat="37.94718067675964" lon="15.142386836525585"><ele>606.3333333333334</ele><time>2026-04-18T08:01:49Z</time></trkpt><trkpt lat="37.947280511272524" lon="15.142385037386966"><ele>609.6666666666667</ele><time>2026-04-18T08:01:51Z</time></trkpt><trkpt lat="37.94734614391909" lon="15.142449762345153"><ele>613.0</ele><time>2026-04-18T08:01:53Z</time></trkpt><trkpt lat="37.94734464982478" lon="15.142549213021736"><ele>613.0</ele><time>2026-04-18T08:01:55Z</time></trkpt><trkpt lat="37.94728389502134" lon="15.14261525134157"><ele>613.0</ele><time>2026-04-18T08:01:57Z</time></trkpt><trkpt lat="37.947196448855706" lon="15.142705628315284"><ele>613.0</ele><time>2026-04-18T08:01:59Z</time></trkpt><trkpt lat="37.94715639059034" lon="15.142781087766437"><ele>613.0</ele><time>2026-04-18T08:02:00Z</time></trkpt><trkpt lat="37.94712680723911" lon="15.142870840811701"><ele>613.0</ele><time>2026-04-18T08:02:01Z</time></trkpt><trkpt lat="37.94709837568287" lon="15.142947643307949"><ele>613.0</ele><time>2026-04-18T08:02:02Z</time></trkpt><trkpt lat="37.94706638750013" lon="15.14310038741331"><ele>613.0</ele><time>2026-04-18T08:02:04Z</time></trkpt><trkpt lat="37.947037974610915" lon="15.143193623281592"><ele>613.0</ele><time>2026-04-18T08:02:05Z</time></trkpt><trkpt lat="37.94700244477278" lon="15.143268032480412"><ele>613.0</ele><time>2026-04-18T08:02:06Z</time></trkpt><trkpt lat="37.94702275896437" lon="15.143358419197726"><ele>613.0</ele><time>2026-04-18T08:02:09Z</time></trkpt><trkpt lat="37.94710821692806" lon="15.143311100471433"><ele>613.0</ele><time>2026-04-18T08:02:11Z</time></trkpt><trkpt lat="37.94720419038177" lon="15.143208061055605"><ele>613.0</ele><time>2026-04-18T08:02:13Z</time></trkpt><trkpt lat="37.947253689037424" lon="15.143150501412938"><ele>613.0</ele><time>2026-04-18T08:02:14Z</time></trkpt><trkpt lat="37.94731877852842" lon="15.143133809867294"><ele>613.0</ele><time>2026-04-18T08:02:16Z</time></trkpt><trkpt lat="37.94734021401597" lon="15.143217377617503"><ele>613.0</ele><time>2026-04-18T08:02:18Z</time></trkpt><trkpt lat="37.947298530128705" lon="15.143316256800581"><ele>613.0</ele><time>2026-04-18T08:02:20Z</time></trkpt><trkpt lat="37.94726461003107" lon="15.143384590946853"><ele>613.0</ele><time>2026-04-18T08:02:21Z</time></trkpt><trkpt lat="37.947235132550105" lon="15.14346259307888"><ele>613.0</ele><time>2026-04-18T08:02:22Z</time></trkpt><trkpt lat="37.94720737255427" lon="15.143552911430108"><ele>613.0</ele><time>2026-04-18T08:02:23Z</time></trkpt><trkpt lat="37.947188639409724" lon="15.143657761380295"><ele>616.5</ele><time>2026-04-18T08:02:24Z</time></trkpt><trkpt lat="37.94718188189438" lon="15.143748157441584"><ele>620.0</ele><time>2026-04-18T08:02:25Z</time></trkpt><trkpt lat="37.94715485784018" lon="15.143836121230489"><ele>623.5</ele><time>2026-04-18T08:02:26Z</time></trkpt><trkpt lat="37.94711339567362" lon="15.143910614183632"><ele>627.0</ele><time>2026-04-18T08:02:27Z</time></trkpt><trkpt lat="37.94707445734886" lon="15.143979606974197"><ele>630.5</ele><time>2026-04-18T08:02:28Z</time></trkpt><trkpt lat="37.94704827821831" lon="15.144081157530318"><ele>634.0</ele><time>2026-04-18T08:02:29Z</time></trkpt><trkpt lat="37.94703076925323" lon="15.144185762473475"><ele>633.8333333333334</ele><time>2026-04-18T08:02:30Z</time></trkpt><trkpt lat="37.94699625764073" lon="15.144256948639914"><ele>633.6666666666667</ele><time>2026-04-18T08:02:31Z</time></trkpt><trkpt lat="37.9469476510759" lon="15.14431087679117"><ele>633.5</ele><time>2026-04-18T08:02:32Z</time></trkpt><trkpt lat="37.946829854831535" lon="15.144391084398714"><ele>633.3333333333334</ele><time>2026-04-18T08:02:34Z</time></trkpt><trkpt lat="37.946785669082466" lon="15.144470936986119"><ele>633.1666666666666</ele><time>2026-04-18T08:02:35Z</time></trkpt><trkpt lat="37.946747856190946" lon="15.144569840025365"><ele>633.0</ele><time>2026-04-18T08:02:36Z</time></trkpt><trkpt lat="37.94668771786206" lon="15.144707084806983"><ele>633.0</ele><time>2026-04-18T08:02:37Z</time></trkpt><trkpt lat="37.94661375440514" lon="15.144836442835597"><ele>633.0</ele><time>2026-04-18T08:02:38Z</time></trkpt><trkpt lat="37.94655499569024" lon="15.14491840282679"><ele>633.0</ele><time>2026-04-18T08:02:39Z</time></trkpt><trkpt lat="37.94651234473858" lon="15.145021781258137"><ele>633.0</ele><time>2026-04-18T08:02:40Z</time></trkpt><trkpt lat="37.94648887683485" lon="15.1451256267039"><ele>633.0</ele><time>2026-04-18T08:02:41Z</time></trkpt><trkpt lat="37.946479876381204" lon="15.145207827043453"><ele>636.2</ele><time>2026-04-18T08:02:42Z</time></trkpt><trkpt lat="37.94649038772265" lon="15.145302477647112"><ele>639.4</ele><time>2026-04-18T08:02:43Z</time></trkpt><trkpt lat="37.946517460734626" lon="15.145476055177642"><ele>642.6</ele><time>2026-04-18T08:02:45Z</time></trkpt><trkpt lat="37.94657016142899" lon="15.145614867850947"><ele>645.8000000000001</ele><time>2026-04-18T08:02:47Z</time></trkpt><trkpt lat="37.94660432315481" lon="15.145683352207453"><ele>649.0</ele><time>2026-04-18T08:02:48Z</time></trkpt><trkpt lat="37.94666552542583" lon="15.14578239365302"><ele>653.3333333333334</ele><time>2026-04-18T08:02:50Z</time></trkpt><trkpt lat="37.946714504429735" lon="15.145847311006486"><ele>657.6666666666667</ele><time>2026-04-18T08:02:53Z</time></trkpt><trkpt lat="37.94673019724572" lon="15.145710733968714"><ele>662.0</ele><time>2026-04-18T08:02:56Z</time></trkpt><trkpt lat="37.946720320297004" lon="15.145620512309513"><ele>666.3333333333334</ele><time>2026-04-18T08:02:57Z</time></trkpt><trkpt lat="37.94678053224031" lon="15.145499642307653"><ele>670.6666666666666</ele><time>2026-04-18T08:02:59Z</time></trkpt><trkpt lat="37.94683395723264" lon="15.145446562515819"><ele>675.0</ele><time>2026-04-18T08:03:00Z</time></trkpt><trkpt lat="37.946888540265974" lon="15.145377688263666"><ele>675.0</ele><time>2026-04-18T08:03:01Z</time></trkpt><trkpt lat="37.94692679702036" lon="15.145297468882868"><ele>675.0</ele><time>2026-04-18T08:03:02Z</time></trkpt><trkpt lat="37.946959912918665" lon="15.145166434712"><ele>675.0</ele><time>2026-04-18T08:03:04Z</time></trkpt><trkpt lat="37.94707809625477" lon="15.145136499809368"><ele>675.0</ele><time>2026-04-18T08:03:06Z</time></trkpt><trkpt lat="37.947152444925734" lon="15.145111720552853"><ele>675.0</ele><time>2026-04-18T08:03:07Z</time></trkpt><trkpt lat="37.94722775234113" lon="15.145098077359062"><ele>675.0</ele><time>2026-04-18T08:03:08Z</time></trkpt><trkpt lat="37.94724843060361" lon="15.14518996730932"><ele>675.0</ele><time>2026-04-18T08:03:10Z</time></trkpt><trkpt lat="37.947191303033506" lon="15.145312580655311"><ele>675.0</ele><time>2026-04-18T08:03:12Z</time></trkpt><trkpt lat="37.947143624397334" lon="15.145402316530687"><ele>675.0</ele><time>2026-04-18T08:03:14Z</time></trkpt><trkpt lat="37.94723421229841" lon="15.145436024808182"><ele>675.0</ele><time>2026-04-18T08:03:16Z</time></trkpt><trkpt lat="37.94733556087049" lon="15.145377268902955"><ele>675.0</ele><time>2026-04-18T08:03:18Z</time></trkpt><trkpt lat="37.947407429583734" lon="15.14533246395021"><ele>675.0</ele><time>2026-04-18T08:03:19Z</time></trkpt><trkpt lat="37.947489564769775" lon="15.145287781446566"><ele>675.0</ele><time>2026-04-18T08:03:20Z</time></trkpt><trkpt lat="37.94758649089585" lon="15.145256505998653"><ele>675.0</ele><time>2026-04-18T08:03:21Z</time></trkpt><trkpt lat="37.94767050305996" lon="15.145224584938376"><ele>675.0</ele><time>2026-04-18T08:03:22Z</time></trkpt><trkpt lat="37.94773407720265" lon="15.145182950880498"><ele>675.0</ele><time>2026-04-18T08:03:23Z</time></trkpt><trkpt lat="37.9478429286916" lon="15.145111799076979"><ele>678.8333333333334</ele><time>2026-04-18T08:03:25Z</time></trkpt><trkpt lat="37.94793331528166" lon="15.145168205122207"><ele>682.6666666666666</ele><time>2026-04-18T08:03:27Z</time></trkpt><trkpt lat="37.94794244480038" lon="15.14527746653313"><ele>686.5</ele><time>2026-04-18T08:03:29Z</time></trkpt><trkpt lat="37.94789808615983" lon="15.145393330660974"><ele>690.3333333333333</ele><time>2026-04-18T08:03:31Z</time></trkpt><trkpt lat="37.94792063084577" lon="15.145470876425698"><ele>694.1666666666666</ele><time>2026-04-18T08:03:33Z</time></trkpt><trkpt lat="37.948002933814024" lon="15.145472517808678"><ele>698.0</ele><time>2026-04-18T08:03:35Z</time></trkpt><trkpt lat="37.94811222366113" lon="15.145389435489513"><ele>698.0</ele><time>2026-04-18T08:03:37Z</time></trkpt><trkpt lat="37.948172681206074" lon="15.145337771517717"><ele>698.0</ele><time>2026-04-18T08:03:38Z</time></trkpt><trkpt lat="37.94825148422568" lon="15.145318712177586"><ele>698.0</ele><time>2026-04-18T08:03:39Z</time></trkpt><trkpt lat="37.94834166672736" lon="15.145317828496296"><ele>698.0</ele><time>2026-04-18T08:03:40Z</time></trkpt><trkpt lat="37.94840794947741" lon="15.145292252920838"><ele>698.0</ele><time>2026-04-18T08:03:41Z</time></trkpt><trkpt lat="37.948477138520495" lon="15.14518189357218"><ele>698.0</ele><time>2026-04-18T08:03:43Z</time></trkpt><trkpt lat="37.94851759444786" lon="15.145114928295826"><ele>702.5999999999999</ele><time>2026-04-18T08:03:44Z</time></trkpt><trkpt lat="37.948577335223284" lon="15.145064973519565"><ele>707.1999999999999</ele><time>2026-04-18T08:03:45Z</time></trkpt><trkpt lat="37.94864414593947" lon="15.145022096685905"><ele>711.8</ele><time>2026-04-18T08:03:46Z</time></trkpt><trkpt lat="37.948751006832175" lon="15.145083814490807"><ele>716.4</ele><time>2026-04-18T08:03:48Z</time></trkpt><trkpt lat="37.948888735460805" lon="15.14519189518972"><ele>721.0</ele><time>2026-04-18T08:03:50Z</time></trkpt><trkpt lat="37.948947586321175" lon="15.145243462654431"><ele>721.0</ele><time>2026-04-18T08:03:51Z</time></trkpt><trkpt lat="37.94900468937936" lon="15.145313911595517"><ele>721.0</ele><time>2026-04-18T08:03:52Z</time></trkpt><trkpt lat="37.94907548979805" lon="15.145395361839835"><ele>721.0</ele><time>2026-04-18T08:03:53Z</time></trkpt><trkpt lat="37.9491318498003" lon="15.145488798980361"><ele>721.0</ele><time>2026-04-18T08:03:54Z</time></trkpt><trkpt lat="37.949188448900415" lon="15.145591304703995"><ele>721.0</ele><time>2026-04-18T08:03:55Z</time></trkpt><trkpt lat="37.94923364104634" lon="15.145676523671879"><ele>721.0</ele><time>2026-04-18T08:03:57Z</time></trkpt><trkpt lat="37.94932819924976" lon="15.145653256510723"><ele>724.8333333333334</ele><time>2026-04-18T08:03:59Z</time></trkpt><trkpt lat="37.94936490277063" lon="15.145587474019617"><ele>728.6666666666667</ele><time>2026-04-18T08:04:00Z</time></trkpt><trkpt lat="37.94937538685103" lon="15.145494254339063"><ele>732.5</ele><time>2026-04-18T08:04:01Z</time></trkpt><trkpt lat="37.94939211488788" lon="15.145417102795589"><ele>736.3333333333334</ele><time>2026-04-18T08:04:02Z</time></trkpt><trkpt lat="37.9494076729008" lon="15.145325037084787"><ele>740.1666666666666</ele><time>2026-04-18T08:04:03Z</time></trkpt><trkpt lat="37.949435973008576" lon="15.145239473848324"><ele>744.0</ele><time>2026-04-18T08:04:04Z</time></trkpt><trkpt lat="37.94946013963219" lon="15.145083790855367"><ele>744.0</ele><time>2026-04-18T08:04:06Z</time></trkpt><trkpt lat="37.94953494069644" lon="15.144940071652742"><ele>744.0</ele><time>2026-04-18T08:04:08Z</time></trkpt><trkpt lat="37.94960939781859" lon="15.14487461230326"><ele>744.0</ele><time>2026-04-18T08:04:09Z</time></trkpt><trkpt lat="37.949690097441895" lon="15.144841931782183"><ele>744.0</ele><time>2026-04-18T08:04:10Z</time></trkpt><trkpt lat="37.94978044897784" lon="15.144805204763584"><ele>744.0</ele><time>2026-04-18T08:04:11Z</time></trkpt><trkpt lat="37.949843423059434" lon="15.144777939532101"><ele>742.8333333333334</ele><time>2026-04-18T08:04:12Z</time></trkpt><trkpt lat="37.94990818277808" lon="15.144742039712934"><ele>741.6666666666666</ele><time>2026-04-18T08:04:13Z</time></trkpt><trkpt lat="37.949971723184234" lon="15.144724075090188"><ele>740.5</ele><time>2026-04-18T08:04:14Z</time></trkpt><trkpt lat="37.950035621177456" lon="15.14473397996713"><ele>739.3333333333333</ele><time>2026-04-18T08:04:15Z</time></trkpt><trkpt lat="37.95009734251191" lon="15.144855717863397"><ele>738.1666666666666</ele><time>2026-04-18T08:04:17Z</time></trkpt><trkpt lat="37.950087891631384" lon="15.144942560607836"><ele>737.0</ele><time>2026-04-18T08:04:18Z</time></trkpt><trkpt lat="37.95006605677926" lon="15.145045384343112"><ele>738.4000000000001</ele><time>2026-04-18T08:04:19Z</time></trkpt><trkpt lat="37.950034302570735" lon="15.14516870758554"><ele>739.8000000000001</ele><time>2026-04-18T08:04:20Z</time></trkpt><trkpt lat="37.95001383091184" lon="15.14529673837289"><ele>741.2</ele><time>2026-04-18T08:04:21Z</time></trkpt><trkpt lat="37.95000105601965" lon="15.145429537020316"><ele>742.6</ele><time>2026-04-18T08:04:22Z</time></trkpt><trkpt lat="37.94999380343658" lon="15.145565909077645"><ele>744.0</ele><time>2026-04-18T08:04:23Z</time></trkpt><trkpt lat="37.94997185154112" lon="15.145686472578614"><ele>744.6666666666666</ele><time>2026-04-18T08:04:24Z</time></trkpt><trkpt lat="37.94995599031512" lon="15.145799894389633"><ele>745.3333333333334</ele><time>2026-04-18T08:04:25Z</time></trkpt><trkpt lat="37.949972047714006" lon="15.145891939555892"><ele>746.0</ele><time>2026-04-18T08:04:26Z</time></trkpt><trkpt lat="37.95003837892863" lon="15.146001325642793"><ele>746.6666666666667</ele><time>2026-04-18T08:04:28.001Z</time></trkpt><trkpt lat="37.950100496605934" lon="15.146017200988933"><ele>747.3333333333334</ele><time>2026-04-18T08:04:29.001Z</time></trkpt><trkpt lat="37.950159766933176" lon="15.146054159125155"><ele>748.0</ele><time>2026-04-18T08:04:30.001Z</time></trkpt><trkpt lat="37.950239415053574" lon="15.14608791024936"><ele>751.5999999999999</ele><time>2026-04-18T08:04:32.001Z</time></trkpt><trkpt lat="37.95029619272525" lon="15.14605096341146"><ele>755.1999999999999</ele><time>2026-04-18T08:04:33.001Z</time></trkpt><trkpt lat="37.95037634613049" lon="15.14597238005835"><ele>758.8</ele><time>2026-04-18T08:04:34.001Z</time></trkpt><trkpt lat="37.950458117562576" lon="15.145897891761567"><ele>762.4</ele><time>2026-04-18T08:04:35.001Z</time></trkpt><trkpt lat="37.950563911458644" lon="15.145820584184595"><ele>766.0</ele><time>2026-04-18T08:04:36.001Z</time></trkpt><trkpt lat="37.950661384290676" lon="15.145730385385077"><ele>766.0</ele><time>2026-04-18T08:04:37.001Z</time></trkpt><trkpt lat="37.95069877312825" lon="15.145628861651694"><ele>766.0</ele><time>2026-04-18T08:04:38.001Z</time></trkpt><trkpt lat="37.95073542888027" lon="15.14555504295687"><ele>766.0</ele><time>2026-04-18T08:04:40.001Z</time></trkpt><trkpt lat="37.950797605320844" lon="15.145579261181778"><ele>766.0</ele><time>2026-04-18T08:04:41.001Z</time></trkpt><trkpt lat="37.950844876334294" lon="15.14572622583918"><ele>766.0</ele><time>2026-04-18T08:04:43.001Z</time></trkpt><trkpt lat="37.950831767808104" lon="15.145823082332141"><ele>766.0</ele><time>2026-04-18T08:04:44.001Z</time></trkpt><trkpt lat="37.95080153902589" lon="15.145951014824503"><ele>766.0</ele><time>2026-04-18T08:04:45.001Z</time></trkpt><trkpt lat="37.95078854472882" lon="15.146067305228652"><ele>766.0</ele><time>2026-04-18T08:04:46.001Z</time></trkpt><trkpt lat="37.95080524386351" lon="15.146181712980733"><ele>766.0</ele><time>2026-04-18T08:04:47.001Z</time></trkpt><trkpt lat="37.95083960330009" lon="15.146274092467857"><ele>766.0</ele><time>2026-04-18T08:04:48.001Z</time></trkpt><trkpt lat="37.950836762852646" lon="15.146361703482205"><ele>766.0</ele><time>2026-04-18T08:04:49.001Z</time></trkpt><trkpt lat="37.950802904418076" lon="15.146440277130353"><ele>766.0</ele><time>2026-04-18T08:04:50.001Z</time></trkpt><trkpt lat="37.95079188256399" lon="15.146528354723237"><ele>768.5</ele><time>2026-04-18T08:04:51.001Z</time></trkpt><trkpt lat="37.95084703901435" lon="15.146787001249933"><ele>771.0</ele><time>2026-04-18T08:04:53.001Z</time></trkpt><trkpt lat="37.95090039430783" lon="15.146910424557356"><ele>773.5</ele><time>2026-04-18T08:04:54.001Z</time></trkpt><trkpt lat="37.95095069438685" lon="15.147042252821656"><ele>776.0</ele><time>2026-04-18T08:04:55.001Z</time></trkpt><trkpt lat="37.95098934754804" lon="15.14717442790499"><ele>777.0</ele><time>2026-04-18T08:04:56.001Z</time></trkpt><trkpt lat="37.951042766028586" lon="15.147313526252598"><ele>778.0</ele><time>2026-04-18T08:04:57.001Z</time></trkpt><trkpt lat="37.951087543621455" lon="15.14744954086363"><ele>779.0</ele><time>2026-04-18T08:04:58Z</time></trkpt><trkpt lat="37.9511305052599" lon="15.147569471769035"><ele>780.0</ele><time>2026-04-18T08:04:59Z</time></trkpt><trkpt lat="37.95117336222026" lon="15.147689915885499"><ele>781.0</ele><time>2026-04-18T08:05:00Z</time></trkpt><trkpt lat="37.951214368049335" lon="15.147796463709929"><ele>783.4999999999999</ele><time>2026-04-18T08:05:01Z</time></trkpt><trkpt lat="37.95122908838218" lon="15.147885037664944"><ele>786.0</ele><time>2026-04-18T08:05:02Z</time></trkpt><trkpt lat="37.951269343433694" lon="15.147973062918652"><ele>788.5</ele><time>2026-04-18T08:05:04Z</time></trkpt><trkpt lat="37.95135948809363" lon="15.14789312224498"><ele>791.0</ele><time>2026-04-18T08:05:06Z</time></trkpt><trkpt lat="37.951392664046516" lon="15.147804829389974"><ele>793.4999999999999</ele><time>2026-04-18T08:05:07Z</time></trkpt><trkpt lat="37.95142915964103" lon="15.14767226962803"><ele>796.0</ele><time>2026-04-18T08:05:08Z</time></trkpt><trkpt lat="37.95146865918126" lon="15.147505738244142"><ele>795.9999999999999</ele><time>2026-04-18T08:05:09Z</time></trkpt><trkpt lat="37.95150139640978" lon="15.147378195932786"><ele>796.0</ele><time>2026-04-18T08:05:10Z</time></trkpt><trkpt lat="37.95151508747614" lon="15.14728928471827"><ele>796.0</ele><time>2026-04-18T08:05:11Z</time></trkpt><trkpt lat="37.951570873942046" lon="15.147234499404151"><ele>796.0</ele><time>2026-04-18T08:05:13Z</time></trkpt><trkpt lat="37.95161361573207" lon="15.147294763341016"><ele>795.9999999999999</ele><time>2026-04-18T08:05:15Z</time></trkpt><trkpt lat="37.95164932820126" lon="15.147459811706469"><ele>796.0</ele><time>2026-04-18T08:05:17Z</time></trkpt><trkpt lat="37.95166547255901" lon="15.147562227213703"><ele>795.9999999999999</ele><time>2026-04-18T08:05:18Z</time></trkpt><trkpt lat="37.95170276963624" lon="15.147649096053064"><ele>796.0</ele><time>2026-04-18T08:05:19Z</time></trkpt><trkpt lat="37.95176187817052" lon="15.147731438196736"><ele>796.0</ele><time>2026-04-18T08:05:20Z</time></trkpt><trkpt lat="37.9518298796372" lon="15.14780102812149"><ele>796.0</ele><time>2026-04-18T08:05:21Z</time></trkpt><trkpt lat="37.95186051144106" lon="15.147894334319956"><ele>795.9999999999999</ele><time>2026-04-18T08:05:22Z</time></trkpt><trkpt lat="37.951859137249066" lon="15.147987158710643"><ele>796.0</ele><time>2026-04-18T08:05:23Z</time></trkpt><trkpt lat="37.95186838623883" lon="15.148093628291788"><ele>796.9999999999999</ele><time>2026-04-18T08:05:24Z</time></trkpt><trkpt lat="37.95186419304776" lon="15.148209406702684"><ele>798.0</ele><time>2026-04-18T08:05:24.999Z</time></trkpt><trkpt lat="37.95184613716071" lon="15.1483034897298"><ele>799.0</ele><time>2026-04-18T08:05:25.999Z</time></trkpt><trkpt lat="37.95183602575254" lon="15.148417642246248"><ele>800.0</ele><time>2026-04-18T08:05:26.999Z</time></trkpt><trkpt lat="37.95183548289784" lon="15.14851216346559"><ele>800.9999999999999</ele><time>2026-04-18T08:05:27.999Z</time></trkpt><trkpt lat="37.9518630817359" lon="15.148600082855381"><ele>802.0</ele><time>2026-04-18T08:05:28.999Z</time></trkpt><trkpt lat="37.951915947607574" lon="15.148677872156231"><ele>802.0</ele><time>2026-04-18T08:05:29.999Z</time></trkpt><trkpt lat="37.95197959401053" lon="15.148770244966167"><ele>802.0</ele><time>2026-04-18T08:05:30.999Z</time></trkpt><trkpt lat="37.952019310624564" lon="15.148851404501139"><ele>802.0</ele><time>2026-04-18T08:05:31.999Z</time></trkpt><trkpt lat="37.95210308774685" lon="15.148974863202119"><ele>802.0</ele><time>2026-04-18T08:05:33.999Z</time></trkpt><trkpt lat="37.95216778312015" lon="15.149011316015171"><ele>802.0</ele><time>2026-04-18T08:05:34.999Z</time></trkpt><trkpt lat="37.952291501759255" lon="15.149073517186142"><ele>806.0</ele><time>2026-04-18T08:05:36.999Z</time></trkpt><trkpt lat="37.952340763102654" lon="15.14912487148863"><ele>810.0</ele><time>2026-04-18T08:05:37.999Z</time></trkpt><trkpt lat="37.9524227356535" lon="15.14919954947776"><ele>814.0</ele><time>2026-04-18T08:05:39.999Z</time></trkpt><trkpt lat="37.952475496002876" lon="15.14928703665625"><ele>818.0</ele><time>2026-04-18T08:05:57.999Z</time></trkpt><trkpt lat="37.95250937507514" lon="15.149366363584548"><ele>822.0</ele><time>2026-04-18T08:05:59.999Z</time></trkpt><trkpt lat="37.95257833869479" lon="15.149503408004538"><ele>824.0</ele><time>2026-04-18T08:06:01.999Z</time></trkpt><trkpt lat="37.95262085929206" lon="15.14958262485129"><ele>826.0</ele><time>2026-04-18T08:06:02.999Z</time></trkpt><trkpt lat="37.95267467782841" lon="15.149675282551987"><ele>828.0</ele><time>2026-04-18T08:06:03.999Z</time></trkpt><trkpt lat="37.95273566706126" lon="15.149755855302534"><ele>830.0</ele><time>2026-04-18T08:06:04.999Z</time></trkpt><trkpt lat="37.95279267216455" lon="15.14983676763997"><ele>832.0</ele><time>2026-04-18T08:06:05.999Z</time></trkpt><trkpt lat="37.95284192035083" lon="15.149907885845629"><ele>834.0</ele><time>2026-04-18T08:06:06.999Z</time></trkpt><trkpt lat="37.95288251860886" lon="15.149971827424954"><ele>836.7142857142858</ele><time>2026-04-18T08:06:07.999Z</time></trkpt><trkpt lat="37.952924598690686" lon="15.150052276674987"><ele>839.4285714285713</ele><time>2026-04-18T08:06:08.999Z</time></trkpt><trkpt lat="37.95294986578676" lon="15.150132137972731"><ele>842.1428571428571</ele><time>2026-04-18T08:06:09.999Z</time></trkpt><trkpt lat="37.95296525007231" lon="15.150211472578299"><ele>844.8571428571429</ele><time>2026-04-18T08:06:10.999Z</time></trkpt><trkpt lat="37.953019177909205" lon="15.150253706376072"><ele>847.5714285714287</ele><time>2026-04-18T08:06:12.999Z</time></trkpt><trkpt lat="37.95307245030048" lon="15.15018146513108"><ele>850.2857142857142</ele><time>2026-04-18T08:06:14.999Z</time></trkpt><trkpt lat="37.95307174078452" lon="15.150075720298638"><ele>853.0</ele><time>2026-04-18T08:06:16.999Z</time></trkpt><trkpt lat="37.95306797650547" lon="15.149948184631208"><ele>853.0</ele><time>2026-04-18T08:06:18.999Z</time></trkpt><trkpt lat="37.95312043688415" lon="15.149893447062867"><ele>853.0</ele><time>2026-04-18T08:06:20.999Z</time></trkpt><trkpt lat="37.953214399919936" lon="15.14991235882194"><ele>853.0</ele><time>2026-04-18T08:06:22.999Z</time></trkpt><trkpt lat="37.95327397850231" lon="15.149964105957972"><ele>853.0</ele><time>2026-04-18T08:06:23.999Z</time></trkpt><trkpt lat="37.95335974202358" lon="15.15003586051137"><ele>853.0</ele><time>2026-04-18T08:06:24.999Z</time></trkpt><trkpt lat="37.95346282119629" lon="15.150094421450577"><ele>855.8</ele><time>2026-04-18T08:06:25.999Z</time></trkpt><trkpt lat="37.95356174903936" lon="15.150122352595183"><ele>858.5999999999999</ele><time>2026-04-18T08:06:26.999Z</time></trkpt><trkpt lat="37.9536580952108" lon="15.150125747721273"><ele>861.4000000000001</ele><time>2026-04-18T08:06:27.999Z</time></trkpt><trkpt lat="37.95376070378464" lon="15.15011836449743"><ele>864.2</ele><time>2026-04-18T08:06:28.999Z</time></trkpt><trkpt lat="37.95386064498082" lon="15.150089140202327"><ele>867.0</ele><time>2026-04-18T08:06:29.999Z</time></trkpt><trkpt lat="37.95395635504292" lon="15.15004136735466"><ele>867.0</ele><time>2026-04-18T08:06:30.999Z</time></trkpt><trkpt lat="37.95404956200343" lon="15.149972969104802"><ele>867.0</ele><time>2026-04-18T08:06:31.999Z</time></trkpt><trkpt lat="37.954132506647994" lon="15.149931764019067"><ele>867.0</ele><time>2026-04-18T08:06:32.999Z</time></trkpt><trkpt lat="37.95426227239353" lon="15.149906824654247"><ele>867.0</ele><time>2026-04-18T08:06:35Z</time></trkpt><trkpt lat="37.95434003515681" lon="15.149873673644477"><ele>867.0</ele><time>2026-04-18T08:06:36Z</time></trkpt><trkpt lat="37.954409534794095" lon="15.1498225862636"><ele>866.0</ele><time>2026-04-18T08:06:37Z</time></trkpt><trkpt lat="37.95446942679853" lon="15.14975681356662"><ele>865.0</ele><time>2026-04-18T08:06:38Z</time></trkpt><trkpt lat="37.9545226563398" lon="15.149701869922676"><ele>864.0</ele><time>2026-04-18T08:06:39Z</time></trkpt><trkpt lat="37.95461956938194" lon="15.14961539333617"><ele>863.0</ele><time>2026-04-18T08:06:41Z</time></trkpt><trkpt lat="37.95469288077196" lon="15.149600987053612"><ele>862.0</ele><time>2026-04-18T08:06:42Z</time></trkpt><trkpt lat="37.95475939426198" lon="15.149605441334266"><ele>861.0</ele><time>2026-04-18T08:06:43Z</time></trkpt><trkpt lat="37.954844614785" lon="15.149674345682582"><ele>861.0</ele><time>2026-04-18T08:06:45Z</time></trkpt><trkpt lat="37.9548629903262" lon="15.149753239410414"><ele>860.9999999999999</ele><time>2026-04-18T08:06:46Z</time></trkpt><trkpt lat="37.95486465225712" lon="15.149842768199765"><ele>860.9999999999999</ele><time>2026-04-18T08:06:47Z</time></trkpt><trkpt lat="37.95483627759049" lon="15.149952314630418"><ele>861.0</ele><time>2026-04-18T08:06:48Z</time></trkpt><trkpt lat="37.95477947946322" lon="15.150076599348566"><ele>861.0</ele><time>2026-04-18T08:06:49Z</time></trkpt><trkpt lat="37.95472160448644" lon="15.150201048816157"><ele>863.3333333333334</ele><time>2026-04-18T08:06:50Z</time></trkpt><trkpt lat="37.95466357090275" lon="15.150296188067152"><ele>865.6666666666667</ele><time>2026-04-18T08:06:51Z</time></trkpt><trkpt lat="37.95461079827759" lon="15.150351525304165"><ele>868.0</ele><time>2026-04-18T08:06:52Z</time></trkpt><trkpt lat="37.9545265257856" lon="15.150406930453748"><ele>870.3333333333334</ele><time>2026-04-18T08:06:53Z</time></trkpt><trkpt lat="37.954429757109914" lon="15.15049923588938"><ele>872.6666666666667</ele><time>2026-04-18T08:06:54Z</time></trkpt><trkpt lat="37.95439071615964" lon="15.150569988888352"><ele>875.0</ele><time>2026-04-18T08:06:55Z</time></trkpt><trkpt lat="37.95438516137115" lon="15.150711167944978"><ele>875.8333333333334</ele><time>2026-04-18T08:06:57Z</time></trkpt><trkpt lat="37.95440554093573" lon="15.150823040360093"><ele>876.6666666666667</ele><time>2026-04-18T08:06:58Z</time></trkpt><trkpt lat="37.95440999179101" lon="15.150923050344437"><ele>877.5</ele><time>2026-04-18T08:06:59Z</time></trkpt><trkpt lat="37.95438693010466" lon="15.151020296766816"><ele>878.3333333333333</ele><time>2026-04-18T08:07:00Z</time></trkpt><trkpt lat="37.954341898430044" lon="15.151077250472138"><ele>879.1666666666666</ele><time>2026-04-18T08:07:01Z</time></trkpt><trkpt lat="37.95428146065608" lon="15.1511267778141"><ele>880.0</ele><time>2026-04-18T08:07:02Z</time></trkpt><trkpt lat="37.95415135318612" lon="15.151188898495885"><ele>879.9999999999999</ele><time>2026-04-18T08:07:04Z</time></trkpt><trkpt lat="37.954090205949804" lon="15.151220305649133"><ele>880.0</ele><time>2026-04-18T08:07:05Z</time></trkpt><trkpt lat="37.95404941491689" lon="15.15128146382587"><ele>880.0</ele><time>2026-04-18T08:07:06Z</time></trkpt><trkpt lat="37.95402488626085" lon="15.15135821211622"><ele>880.0</ele><time>2026-04-18T08:07:07Z</time></trkpt><trkpt lat="37.95402019564231" lon="15.151459763389724"><ele>880.0</ele><time>2026-04-18T08:07:08Z</time></trkpt><trkpt lat="37.95403192823034" lon="15.151574098412677"><ele>879.9999999999999</ele><time>2026-04-18T08:07:09Z</time></trkpt><trkpt lat="37.954054015238036" lon="15.151664860685868"><ele>880.0</ele><time>2026-04-18T08:07:10Z</time></trkpt><trkpt lat="37.95408379409228" lon="15.15176311986884"><ele>882.2</ele><time>2026-04-18T08:07:11Z</time></trkpt><trkpt lat="37.954107166041254" lon="15.151866001644914"><ele>884.4</ele><time>2026-04-18T08:07:12Z</time></trkpt><trkpt lat="37.954115170069436" lon="15.151967858126051"><ele>886.5999999999999</ele><time>2026-04-18T08:07:13Z</time></trkpt><trkpt lat="37.95413646376886" lon="15.152089563504632"><ele>888.8</ele><time>2026-04-18T08:07:15Z</time></trkpt><trkpt lat="37.954234308494655" lon="15.152098554055385"><ele>891.0</ele><time>2026-04-18T08:07:16.999Z</time></trkpt><trkpt lat="37.954332020361285" lon="15.15198649884314"><ele>894.8</ele><time>2026-04-18T08:07:18.999Z</time></trkpt><trkpt lat="37.95438181477422" lon="15.151902467379477"><ele>898.5999999999999</ele><time>2026-04-18T08:07:19.999Z</time></trkpt><trkpt lat="37.9544281532271" lon="15.15182438881034"><ele>902.4</ele><time>2026-04-18T08:07:20.999Z</time></trkpt><trkpt lat="37.9544597299709" lon="15.151739079782088"><ele>906.2</ele><time>2026-04-18T08:07:21.999Z</time></trkpt><trkpt lat="37.95452787315952" lon="15.151664785321914"><ele>910.0</ele><time>2026-04-18T08:07:23.999Z</time></trkpt><trkpt lat="37.954653244323936" lon="15.151671519850114"><ele>910.0</ele><time>2026-04-18T08:07:25.999Z</time></trkpt><trkpt lat="37.95474435034645" lon="15.151670844817707"><ele>910.0</ele><time>2026-04-18T08:07:26.999Z</time></trkpt><trkpt lat="37.954815543677" lon="15.151645509627706"><ele>910.0</ele><time>2026-04-18T08:07:27.999Z</time></trkpt><trkpt lat="37.95491812130551" lon="15.15162022579428"><ele>910.0</ele><time>2026-04-18T08:07:29.999Z</time></trkpt><trkpt lat="37.95493614838107" lon="15.151717630891138"><ele>910.0</ele><time>2026-04-18T08:07:31.999Z</time></trkpt><trkpt lat="37.954923532099734" lon="15.151875626545051"><ele>910.0</ele><time>2026-04-18T08:07:33.999Z</time></trkpt><trkpt lat="37.954905288078116" lon="15.152004303618453"><ele>910.0</ele><time>2026-04-18T08:07:34.999Z</time></trkpt><trkpt lat="37.95487037103173" lon="15.152122590992658"><ele>910.0</ele><time>2026-04-18T08:07:35.999Z</time></trkpt><trkpt lat="37.95484301900123" lon="15.152229510598259"><ele>910.0</ele><time>2026-04-18T08:07:36.999Z</time></trkpt><trkpt lat="37.95484324688415" lon="15.152356989265163"><ele>910.0</ele><time>2026-04-18T08:07:38.999Z</time></trkpt><trkpt lat="37.954892194301245" lon="15.152494972261538"><ele>911.8333333333333</ele><time>2026-04-18T08:07:40.999Z</time></trkpt><trkpt lat="37.954942349043215" lon="15.152560833577866"><ele>913.6666666666666</ele><time>2026-04-18T08:07:41.999Z</time></trkpt><trkpt lat="37.955009681438945" lon="15.152608734481802"><ele>915.5</ele><time>2026-04-18T08:07:42.999Z</time></trkpt><trkpt lat="37.95509483555576" lon="15.152622679635922"><ele>917.3333333333333</ele><time>2026-04-18T08:07:43.999Z</time></trkpt><trkpt lat="37.955192552392845" lon="15.152630783170094"><ele>919.1666666666666</ele><time>2026-04-18T08:07:44.999Z</time></trkpt><trkpt lat="37.95528054114611" lon="15.152644003108934"><ele>921.0</ele><time>2026-04-18T08:07:45.999Z</time></trkpt><trkpt lat="37.95536215093525" lon="15.152646243012144"><ele>921.3333333333334</ele><time>2026-04-18T08:07:46.999Z</time></trkpt><trkpt lat="37.955448152898995" lon="15.152646270746597"><ele>921.6666666666667</ele><time>2026-04-18T08:07:47.999Z</time></trkpt><trkpt lat="37.955515398808906" lon="15.15264893619943"><ele>922.0</ele><time>2026-04-18T08:07:48.999Z</time></trkpt><trkpt lat="37.95557995455294" lon="15.152656887784884"><ele>922.3333333333334</ele><time>2026-04-18T08:07:49.999Z</time></trkpt><trkpt lat="37.9556604713814" lon="15.15266082097527"><ele>922.6666666666667</ele><time>2026-04-18T08:07:50.999Z</time></trkpt><trkpt lat="37.95573363441796" lon="15.152709481545795"><ele>923.0</ele><time>2026-04-18T08:07:51.999Z</time></trkpt><trkpt lat="37.95579704398147" lon="15.152784632132507"><ele>923.0</ele><time>2026-04-18T08:07:52.999Z</time></trkpt><trkpt lat="37.955827113581286" lon="15.152879047636127"><ele>923.0</ele><time>2026-04-18T08:07:53.999Z</time></trkpt><trkpt lat="37.95583977157232" lon="15.152992902054606"><ele>923.0</ele><time>2026-04-18T08:07:54.999Z</time></trkpt><trkpt lat="37.955833358588045" lon="15.15312355872155"><ele>923.0</ele><time>2026-04-18T08:07:55.999Z</time></trkpt><trkpt lat="37.955810909692346" lon="15.153241822787919"><ele>923.0</ele><time>2026-04-18T08:07:56.999Z</time></trkpt><trkpt lat="37.95577278885134" lon="15.153357109661354"><ele>924.3333333333334</ele><time>2026-04-18T08:07:57.999Z</time></trkpt><trkpt lat="37.955737975219726" lon="15.153455838229808"><ele>925.6666666666667</ele><time>2026-04-18T08:07:58.999Z</time></trkpt><trkpt lat="37.95572271233731" lon="15.153541125239375"><ele>927.0</ele><time>2026-04-18T08:07:59.999Z</time></trkpt><trkpt lat="37.95575970146145" lon="15.153691030721504"><ele>928.3333333333333</ele><time>2026-04-18T08:08:01.999Z</time></trkpt><trkpt lat="37.955788424606205" lon="15.153777738424"><ele>929.6666666666666</ele><time>2026-04-18T08:08:02.999Z</time></trkpt><trkpt lat="37.955855924999106" lon="15.153838459114995"><ele>931.0</ele><time>2026-04-18T08:08:03.999Z</time></trkpt><trkpt lat="37.95587114775581" lon="15.15391801514553"><ele>930.9999999999999</ele><time>2026-04-18T08:08:04.999Z</time></trkpt><trkpt lat="37.9558788512166" lon="15.153999579634919"><ele>931.0</ele><time>2026-04-18T08:08:05.999Z</time></trkpt><trkpt lat="37.95586986991359" lon="15.154093673541055"><ele>931.0</ele><time>2026-04-18T08:08:06.999Z</time></trkpt><trkpt lat="37.955830593285405" lon="15.154177167036435"><ele>931.0</ele><time>2026-04-18T08:08:07.999Z</time></trkpt><trkpt lat="37.955768756770816" lon="15.154247665260781"><ele>930.9999999999999</ele><time>2026-04-18T08:08:08.999Z</time></trkpt><trkpt lat="37.955690755452515" lon="15.15426408208532"><ele>931.0</ele><time>2026-04-18T08:08:09.999Z</time></trkpt><trkpt lat="37.95560441245901" lon="15.154244546857957"><ele>934.4</ele><time>2026-04-18T08:08:10.999Z</time></trkpt><trkpt lat="37.95552425479474" lon="15.154230980479777"><ele>937.8</ele><time>2026-04-18T08:08:11.999Z</time></trkpt><trkpt lat="37.95543821001434" lon="15.154251169420236"><ele>941.1999999999999</ele><time>2026-04-18T08:08:12.999Z</time></trkpt><trkpt lat="37.955337712922514" lon="15.15430888113186"><ele>944.5999999999999</ele><time>2026-04-18T08:08:13.999Z</time></trkpt><trkpt lat="37.95523756368701" lon="15.154368497135295"><ele>948.0</ele><time>2026-04-18T08:08:14.999Z</time></trkpt><trkpt lat="37.95511045264593" lon="15.154399526333835"><ele>947.5999999999999</ele><time>2026-04-18T08:08:15.999Z</time></trkpt><trkpt lat="37.95499994064462" lon="15.154434673646112"><ele>947.1999999999999</ele><time>2026-04-18T08:08:16.999Z</time></trkpt><trkpt lat="37.95489187813835" lon="15.15448012615313"><ele>946.8</ele><time>2026-04-18T08:08:17.999Z</time></trkpt><trkpt lat="37.954784921343695" lon="15.154535758828077"><ele>946.4</ele><time>2026-04-18T08:08:18.999Z</time></trkpt><trkpt lat="37.954694986923485" lon="15.154567240704914"><ele>946.0</ele><time>2026-04-18T08:08:19.999Z</time></trkpt><trkpt lat="37.954635640286725" lon="15.154594876345184"><ele>946.0</ele><time>2026-04-18T08:08:20.999Z</time></trkpt><trkpt lat="37.95458801234654" lon="15.154654716896008"><ele>946.0</ele><time>2026-04-18T08:08:21.999Z</time></trkpt><trkpt lat="37.95455911119258" lon="15.154726087015021"><ele>946.0</ele><time>2026-04-18T08:08:22.999Z</time></trkpt><trkpt lat="37.954542041025704" lon="15.154808337027083"><ele>946.0</ele><time>2026-04-18T08:08:23.999Z</time></trkpt><trkpt lat="37.95453443525214" lon="15.154895395780608"><ele>946.0</ele><time>2026-04-18T08:08:24.999Z</time></trkpt><trkpt lat="37.954523463512565" lon="15.155002755444238"><ele>946.0</ele><time>2026-04-18T08:08:25.999Z</time></trkpt><trkpt lat="37.954504176749296" lon="15.15509014146498"><ele>946.0</ele><time>2026-04-18T08:08:26.999Z</time></trkpt><trkpt lat="37.95453398336375" lon="15.155201603168829"><ele>949.1999999999999</ele><time>2026-04-18T08:08:28.999Z</time></trkpt><trkpt lat="37.95464630616025" lon="15.155189315072533"><ele>952.3999999999999</ele><time>2026-04-18T08:08:30.999Z</time></trkpt><trkpt lat="37.954717083291214" lon="15.155139363794973"><ele>955.6</ele><time>2026-04-18T08:08:31.999Z</time></trkpt><trkpt lat="37.95477966418678" lon="15.155083791955624"><ele>958.8</ele><time>2026-04-18T08:08:32.999Z</time></trkpt><trkpt lat="37.95485466538234" lon="15.155013910356239"><ele>962.0</ele><time>2026-04-18T08:08:33.999Z</time></trkpt><trkpt lat="37.954941645743155" lon="15.154958728043761"><ele>962.0000000000001</ele><time>2026-04-18T08:08:34.999Z</time></trkpt><trkpt lat="37.95502126295911" lon="15.154946824695747"><ele>962.0</ele><time>2026-04-18T08:08:35.999Z</time></trkpt><trkpt lat="37.95510430960551" lon="15.154955577844248"><ele>962.0</ele><time>2026-04-18T08:08:36.999Z</time></trkpt><trkpt lat="37.95519071090903" lon="15.154958401830765"><ele>962.0</ele><time>2026-04-18T08:08:37.999Z</time></trkpt><trkpt lat="37.95526126735955" lon="15.154956182215532"><ele>962.0000000000001</ele><time>2026-04-18T08:08:39Z</time></trkpt><trkpt lat="37.955333206939535" lon="15.154973780713258"><ele>962.0</ele><time>2026-04-18T08:08:40Z</time></trkpt><trkpt lat="37.95538136175314" lon="15.155040634817336"><ele>962.5000000000001</ele><time>2026-04-18T08:08:41Z</time></trkpt><trkpt lat="37.95543003747563" lon="15.1551082158208"><ele>963.0</ele><time>2026-04-18T08:08:42Z</time></trkpt><trkpt lat="37.95549154248249" lon="15.155200790073708"><ele>963.5</ele><time>2026-04-18T08:08:43Z</time></trkpt><trkpt lat="37.95553241754056" lon="15.155284778278524"><ele>964.0</ele><time>2026-04-18T08:08:44Z</time></trkpt><trkpt lat="37.955558230235084" lon="15.155375480939933"><ele>964.5000000000001</ele><time>2026-04-18T08:08:45Z</time></trkpt><trkpt lat="37.9555915098282" lon="15.155468879183974"><ele>965.0</ele><time>2026-04-18T08:08:46Z</time></trkpt><trkpt lat="37.95563958444815" lon="15.155564539637247"><ele>965.0</ele><time>2026-04-18T08:08:47Z</time></trkpt><trkpt lat="37.95569029083607" lon="15.155678731299536"><ele>965.0</ele><time>2026-04-18T08:08:48Z</time></trkpt><trkpt lat="37.95574367167757" lon="15.155808345847426"><ele>965.0</ele><time>2026-04-18T08:08:49Z</time></trkpt><trkpt lat="37.95578359812593" lon="15.15592524953686"><ele>965.0</ele><time>2026-04-18T08:08:50Z</time></trkpt><trkpt lat="37.95582234344615" lon="15.156039798768292"><ele>965.0</ele><time>2026-04-18T08:08:51Z</time></trkpt><trkpt lat="37.95587177526713" lon="15.156152152111583"><ele>969.1666666666667</ele><time>2026-04-18T08:08:52Z</time></trkpt><trkpt lat="37.955928866834256" lon="15.156250625552568"><ele>973.3333333333334</ele><time>2026-04-18T08:08:53Z</time></trkpt><trkpt lat="37.95595827314083" lon="15.156330576143741"><ele>977.5</ele><time>2026-04-18T08:08:54Z</time></trkpt><trkpt lat="37.95593472185722" lon="15.15640485856703"><ele>981.6666666666667</ele><time>2026-04-18T08:08:55Z</time></trkpt><trkpt lat="37.95588376141424" lon="15.156472576455638"><ele>985.8333333333334</ele><time>2026-04-18T08:08:56Z</time></trkpt><trkpt lat="37.95585036145867" lon="15.156563892333148"><ele>990.0</ele><time>2026-04-18T08:08:57Z</time></trkpt><trkpt lat="37.95584684403018" lon="15.156674630843682"><ele>990.1666666666666</ele><time>2026-04-18T08:08:58Z</time></trkpt><trkpt lat="37.95586156731785" lon="15.156784888775519"><ele>990.3333333333333</ele><time>2026-04-18T08:08:59Z</time></trkpt><trkpt lat="37.95588134632753" lon="15.156891293477285"><ele>990.5</ele><time>2026-04-18T08:09:00Z</time></trkpt><trkpt lat="37.95587571844769" lon="15.157011975943217"><ele>990.6666666666666</ele><time>2026-04-18T08:09:01Z</time></trkpt><trkpt lat="37.95585903296594" lon="15.157121424571104"><ele>990.8333333333333</ele><time>2026-04-18T08:09:02Z</time></trkpt><trkpt lat="37.95585715124897" lon="15.157223431025711"><ele>991.0</ele><time>2026-04-18T08:09:03Z</time></trkpt><trkpt lat="37.955864672884225" lon="15.157326332599999"><ele>993.8333333333333</ele><time>2026-04-18T08:09:04Z</time></trkpt><trkpt lat="37.955872608308994" lon="15.157408326870172"><ele>996.6666666666666</ele><time>2026-04-18T08:09:05Z</time></trkpt><trkpt lat="37.95593390616644" lon="15.157449338309883"><ele>999.5</ele><time>2026-04-18T08:09:07Z</time></trkpt><trkpt lat="37.956019148249055" lon="15.157395701900612"><ele>1002.3333333333333</ele><time>2026-04-18T08:09:09Z</time></trkpt><trkpt lat="37.95605979543107" lon="15.157277026204827"><ele>1005.1666666666666</ele><time>2026-04-18T08:09:11Z</time></trkpt><trkpt lat="37.956138994312596" lon="15.157174349761942"><ele>1008.0</ele><time>2026-04-18T08:09:13Z</time></trkpt><trkpt lat="37.95620668922155" lon="15.157232935663977"><ele>1008.0</ele><time>2026-04-18T08:09:15Z</time></trkpt><trkpt lat="37.95619669014482" lon="15.157362274473979"><ele>1008.0</ele><time>2026-04-18T08:09:17Z</time></trkpt><trkpt lat="37.95617402097393" lon="15.157442681140694"><ele>1008.0</ele><time>2026-04-18T08:09:18Z</time></trkpt><trkpt lat="37.956149414510996" lon="15.157536138423405"><ele>1008.0</ele><time>2026-04-18T08:09:19Z</time></trkpt><trkpt lat="37.956125599618794" lon="15.157667729279662"><ele>1008.0</ele><time>2026-04-18T08:09:20Z</time></trkpt><trkpt lat="37.95609712942145" lon="15.157819688787045"><ele>1011.25</ele><time>2026-04-18T08:09:21Z</time></trkpt><trkpt lat="37.956063980875" lon="15.157990794513458"><ele>1014.5</ele><time>2026-04-18T08:09:22Z</time></trkpt><trkpt lat="37.956035643103135" lon="15.158151552376562"><ele>1017.75</ele><time>2026-04-18T08:09:23Z</time></trkpt><trkpt lat="37.95599928473499" lon="15.15828740642456"><ele>1021.0</ele><time>2026-04-18T08:09:24Z</time></trkpt><trkpt lat="37.955948973096035" lon="15.158423746969287"><ele>1019.4</ele><time>2026-04-18T08:09:25Z</time></trkpt><trkpt lat="37.9558666783497" lon="15.158521414404523"><ele>1017.8</ele><time>2026-04-18T08:09:27Z</time></trkpt><trkpt lat="37.955868438944776" lon="15.158691410678717"><ele>1016.1999999999999</ele><time>2026-04-18T08:09:29Z</time></trkpt><trkpt lat="37.955892826150944" lon="15.158794206524043"><ele>1014.5999999999999</ele><time>2026-04-18T08:09:30Z</time></trkpt><trkpt lat="37.955929838091386" lon="15.15888290046433"><ele>1013.0</ele><time>2026-04-18T08:09:31Z</time></trkpt><trkpt lat="37.95597494002618" lon="15.158956530176802"><ele>1018.4</ele><time>2026-04-18T08:09:32Z</time></trkpt><trkpt lat="37.956060636304755" lon="15.159016648027922"><ele>1023.8</ele><time>2026-04-18T08:09:34Z</time></trkpt><trkpt lat="37.956103599715824" lon="15.158946120883126"><ele>1029.2</ele><time>2026-04-18T08:09:36Z</time></trkpt><trkpt lat="37.956152805762265" lon="15.158826400736993"><ele>1034.6</ele><time>2026-04-18T08:09:38Z</time></trkpt><trkpt lat="37.95621671988346" lon="15.158693806530396"><ele>1040.0</ele><time>2026-04-18T08:09:39.999Z</time></trkpt><trkpt lat="37.956263119029344" lon="15.158620137064661"><ele>1040.0</ele><time>2026-04-18T08:09:40.999Z</time></trkpt><trkpt lat="37.956368962196095" lon="15.15853258261888"><ele>1040.0</ele><time>2026-04-18T08:09:42.999Z</time></trkpt><trkpt lat="37.956416036099725" lon="15.158474706199081"><ele>1040.0</ele><time>2026-04-18T08:09:43.999Z</time></trkpt><trkpt lat="37.95648278267554" lon="15.158392314657705"><ele>1040.0</ele><time>2026-04-18T08:09:44.999Z</time></trkpt><trkpt lat="37.95654564131512" lon="15.158327695028412"><ele>1040.0</ele><time>2026-04-18T08:09:45.999Z</time></trkpt><trkpt lat="37.95661497520763" lon="15.158261926827246"><ele>1040.0</ele><time>2026-04-18T08:09:46.999Z</time></trkpt><trkpt lat="37.95668135743441" lon="15.158214680250621"><ele>1040.0</ele><time>2026-04-18T08:09:47.999Z</time></trkpt><trkpt lat="37.956753652573376" lon="15.15817338130903"><ele>1040.0</ele><time>2026-04-18T08:09:48.999Z</time></trkpt><trkpt lat="37.95681411816618" lon="15.158150486653868"><ele>1040.0</ele><time>2026-04-18T08:09:49.999Z</time></trkpt><trkpt lat="37.95687656621296" lon="15.158194459079606"><ele>1040.0</ele><time>2026-04-18T08:09:51.999Z</time></trkpt><trkpt lat="37.95688896744429" lon="15.158344496295275"><ele>1040.0</ele><time>2026-04-18T08:09:53.999Z</time></trkpt><trkpt lat="37.95689093969478" lon="15.158443119948716"><ele>1046.0</ele><time>2026-04-18T08:09:54.999Z</time></trkpt><trkpt lat="37.956908730215766" lon="15.158547730278181"><ele>1052.0</ele><time>2026-04-18T08:09:55.999Z</time></trkpt><trkpt lat="37.95692486210641" lon="15.158650921697951"><ele>1058.0</ele><time>2026-04-18T08:09:56.999Z</time></trkpt><trkpt lat="37.95692938839766" lon="15.158749859147195"><ele>1064.0</ele><time>2026-04-18T08:09:57.999Z</time></trkpt><trkpt lat="37.95688240402402" lon="15.158907485754538"><ele>1070.0</ele><time>2026-04-18T08:09:59.999Z</time></trkpt><trkpt lat="37.95686086678293" lon="15.158997523707102"><ele>1072.7142857142858</ele><time>2026-04-18T08:10:00.999Z</time></trkpt><trkpt lat="37.95686665031568" lon="15.159101856941705"><ele>1075.4285714285716</ele><time>2026-04-18T08:10:01.999Z</time></trkpt><trkpt lat="37.956880263589646" lon="15.159216152208955"><ele>1078.1428571428573</ele><time>2026-04-18T08:10:02.999Z</time></trkpt><trkpt lat="37.95689277113645" lon="15.159298019551585"><ele>1080.857142857143</ele><time>2026-04-18T08:10:03.999Z</time></trkpt><trkpt lat="37.95689616120446" lon="15.159379044646096"><ele>1083.5714285714287</ele><time>2026-04-18T08:10:04.999Z</time></trkpt><trkpt lat="37.95690070052934" lon="15.159478267605232"><ele>1086.2857142857144</ele><time>2026-04-18T08:10:06.999Z</time></trkpt><trkpt lat="37.956963994203974" lon="15.159482055967619"><ele>1089.0</ele><time>2026-04-18T08:10:08.999Z</time></trkpt><trkpt lat="37.95702996180484" lon="15.159443039805481"><ele>1089.0</ele><time>2026-04-18T08:10:10.999Z</time></trkpt><trkpt lat="37.95710313460747" lon="15.159324699650583"><ele>1089.0</ele><time>2026-04-18T08:10:12.999Z</time></trkpt><trkpt lat="37.95716249643584" lon="15.159236274175004"><ele>1089.0</ele><time>2026-04-18T08:10:13.999Z</time></trkpt><trkpt lat="37.957229251730716" lon="15.159143364690504"><ele>1089.0</ele><time>2026-04-18T08:10:14.999Z</time></trkpt><trkpt lat="37.957284309814774" lon="15.159055245860966"><ele>1089.0</ele><time>2026-04-18T08:10:15.999Z</time></trkpt><trkpt lat="37.95733081700133" lon="15.158968643147286"><ele>1090.5</ele><time>2026-04-18T08:10:16.999Z</time></trkpt><trkpt lat="37.95736585457938" lon="15.158893412337408"><ele>1092.0</ele><time>2026-04-18T08:10:17.999Z</time></trkpt><trkpt lat="37.95741341468581" lon="15.158796644912107"><ele>1093.5</ele><time>2026-04-18T08:10:18.999Z</time></trkpt><trkpt lat="37.95745775943104" lon="15.158706260246271"><ele>1095.0</ele><time>2026-04-18T08:10:19.999Z</time></trkpt><trkpt lat="37.957514726384105" lon="15.158635693508984"><ele>1096.5</ele><time>2026-04-18T08:10:20.999Z</time></trkpt><trkpt lat="37.95757202887658" lon="15.158566580156423"><ele>1098.0</ele><time>2026-04-18T08:10:21.999Z</time></trkpt><trkpt lat="37.95763626792514" lon="15.158498942446414"><ele>1098.0</ele><time>2026-04-18T08:10:22.999Z</time></trkpt><trkpt lat="37.957700407921095" lon="15.158440608350654"><ele>1098.0</ele><time>2026-04-18T08:10:23.999Z</time></trkpt><trkpt lat="37.957774956216994" lon="15.158360331855455"><ele>1098.0</ele><time>2026-04-18T08:10:24.999Z</time></trkpt><trkpt lat="37.95788765417829" lon="15.158305855851303"><ele>1098.0</ele><time>2026-04-18T08:10:26.999Z</time></trkpt><trkpt lat="37.957953678375766" lon="15.158334613595525"><ele>1098.0</ele><time>2026-04-18T08:10:27.999Z</time></trkpt><trkpt lat="37.95807828391236" lon="15.158349784226038"><ele>1098.0</ele><time>2026-04-18T08:10:29.999Z</time></trkpt><trkpt lat="37.95815225510043" lon="15.158346536392205"><ele>1098.0</ele><time>2026-04-18T08:10:30.999Z</time></trkpt><trkpt lat="37.95823385979903" lon="15.158328860602158"><ele>1098.0</ele><time>2026-04-18T08:10:31.999Z</time></trkpt><trkpt lat="37.95830738483616" lon="15.158303018479222"><ele>1098.0</ele><time>2026-04-18T08:10:32.999Z</time></trkpt><trkpt lat="37.958381948751764" lon="15.158171180267528"><ele>1098.0</ele><time>2026-04-18T08:10:34.999Z</time></trkpt><trkpt lat="37.95845274364227" lon="15.15810902634482"><ele>1098.0</ele><time>2026-04-18T08:10:35.999Z</time></trkpt><trkpt lat="37.958514781075806" lon="15.158046567646391"><ele>1097.3333333333333</ele><time>2026-04-18T08:10:36.999Z</time></trkpt><trkpt lat="37.95858690186816" lon="15.158006616996117"><ele>1096.6666666666667</ele><time>2026-04-18T08:10:38.999Z</time></trkpt><trkpt lat="37.95859622445313" lon="15.15811479180015"><ele>1096.0</ele><time>2026-04-18T08:10:41.999Z</time></trkpt><trkpt lat="37.958524674579294" lon="15.158222716239688"><ele>1095.3333333333335</ele><time>2026-04-18T08:10:45Z</time></trkpt><trkpt lat="37.95849654661065" lon="15.158294671225509"><ele>1094.6666666666667</ele><time>2026-04-18T08:10:46Z</time></trkpt><trkpt lat="37.95846100670203" lon="15.158375765505205"><ele>1094.0</ele><time>2026-04-18T08:10:47Z</time></trkpt><trkpt lat="37.95844810393818" lon="15.158473605269009"><ele>1094.6666666666667</ele><time>2026-04-18T08:10:48Z</time></trkpt><trkpt lat="37.95841848679296" lon="15.158561959964818"><ele>1095.3333333333335</ele><time>2026-04-18T08:10:49Z</time></trkpt><trkpt lat="37.95839197182122" lon="15.158647107214495"><ele>1096.0</ele><time>2026-04-18T08:10:50Z</time></trkpt><trkpt lat="37.95835906690318" lon="15.15874334285837"><ele>1096.6666666666667</ele><time>2026-04-18T08:10:51Z</time></trkpt><trkpt lat="37.9583216757428" lon="15.15883893225126"><ele>1097.3333333333333</ele><time>2026-04-18T08:10:52Z</time></trkpt><trkpt lat="37.9582701424712" lon="15.1589449438369"><ele>1098.0</ele><time>2026-04-18T08:10:53Z</time></trkpt><trkpt lat="37.9582160763255" lon="15.159038012635442"><ele>1102.0</ele><time>2026-04-18T08:10:54Z</time></trkpt><trkpt lat="37.95817461268854" lon="15.159127638681715"><ele>1106.0</ele><time>2026-04-18T08:10:55Z</time></trkpt><trkpt lat="37.958133505326785" lon="15.15922225773942"><ele>1110.0</ele><time>2026-04-18T08:10:56Z</time></trkpt><trkpt lat="37.958112381878884" lon="15.15931009470585"><ele>1114.0</ele><time>2026-04-18T08:10:57Z</time></trkpt><trkpt lat="37.95808296054552" lon="15.159424792837168"><ele>1118.0</ele><time>2026-04-18T08:10:58Z</time></trkpt><trkpt lat="37.958032085745614" lon="15.15954674323365"><ele>1122.0</ele><time>2026-04-18T08:10:59Z</time></trkpt><trkpt lat="37.95796169348039" lon="15.159648447805473"><ele>1122.0</ele><time>2026-04-18T08:11:00Z</time></trkpt><trkpt lat="37.95788892885722" lon="15.159745254992764"><ele>1122.0</ele><time>2026-04-18T08:11:01Z</time></trkpt><trkpt lat="37.957839000384354" lon="15.159842388247641"><ele>1122.0</ele><time>2026-04-18T08:11:02Z</time></trkpt><trkpt lat="37.95780281013802" lon="15.15994562316086"><ele>1122.0</ele><time>2026-04-18T08:11:03Z</time></trkpt><trkpt lat="37.957769668852166" lon="15.160057964795612"><ele>1122.0</ele><time>2026-04-18T08:11:04Z</time></trkpt><trkpt lat="37.9577258728248" lon="15.160166248750414"><ele>1120.5</ele><time>2026-04-18T08:11:05Z</time></trkpt><trkpt lat="37.95767165832602" lon="15.16024305618633"><ele>1119.0</ele><time>2026-04-18T08:11:06Z</time></trkpt><trkpt lat="37.95760421380536" lon="15.160294418742541"><ele>1117.5</ele><time>2026-04-18T08:11:07Z</time></trkpt><trkpt lat="37.9575258190112" lon="15.160346048999706"><ele>1116.0</ele><time>2026-04-18T08:11:08Z</time></trkpt><trkpt lat="37.95745776367693" lon="15.160410632310146"><ele>1114.5</ele><time>2026-04-18T08:11:09Z</time></trkpt><trkpt lat="37.957407311168076" lon="15.160494188261328"><ele>1113.0</ele><time>2026-04-18T08:11:10Z</time></trkpt><trkpt lat="37.95736478137361" lon="15.160591296480561"><ele>1113.0</ele><time>2026-04-18T08:11:11Z</time></trkpt><trkpt lat="37.957308906277596" lon="15.160678939284603"><ele>1113.0</ele><time>2026-04-18T08:11:12Z</time></trkpt><trkpt lat="37.957240866225504" lon="15.160741678741324"><ele>1113.0</ele><time>2026-04-18T08:11:13Z</time></trkpt><trkpt lat="37.9571974457222" lon="15.160831380888622"><ele>1113.0</ele><time>2026-04-18T08:11:14Z</time></trkpt><trkpt lat="37.95717315302933" lon="15.160955472680678"><ele>1113.0</ele><time>2026-04-18T08:11:15Z</time></trkpt><trkpt lat="37.95715478500114" lon="15.161081948316207"><ele>1118.8</ele><time>2026-04-18T08:11:16Z</time></trkpt><trkpt lat="37.95712214803354" lon="15.161182726601"><ele>1124.6</ele><time>2026-04-18T08:11:17Z</time></trkpt><trkpt lat="37.9571170499239" lon="15.161297804219517"><ele>1130.4</ele><time>2026-04-18T08:11:18Z</time></trkpt><trkpt lat="37.95713059572718" lon="15.16143966304154"><ele>1136.2</ele><time>2026-04-18T08:11:19Z</time></trkpt><trkpt lat="37.95715473373983" lon="15.16156866484434"><ele>1142.0</ele><time>2026-04-18T08:11:20Z</time></trkpt><trkpt lat="37.95715362219276" lon="15.161689285479792"><ele>1144.5</ele><time>2026-04-18T08:11:21Z</time></trkpt><trkpt lat="37.95715400354338" lon="15.161804827651116"><ele>1147.0</ele><time>2026-04-18T08:11:22Z</time></trkpt><trkpt lat="37.957144665407576" lon="15.16192617601623"><ele>1149.5</ele><time>2026-04-18T08:11:23Z</time></trkpt><trkpt lat="37.95712785508419" lon="15.162037146756909"><ele>1152.0</ele><time>2026-04-18T08:11:24Z</time></trkpt><trkpt lat="37.95712636238682" lon="15.16214796613678"><ele>1154.5</ele><time>2026-04-18T08:11:25Z</time></trkpt><trkpt lat="37.95713357723225" lon="15.16223882173017"><ele>1157.0</ele><time>2026-04-18T08:11:26Z</time></trkpt><trkpt lat="37.957166696797685" lon="15.162323254800759"><ele>1157.0</ele><time>2026-04-18T08:11:28Z</time></trkpt><trkpt lat="37.95718173545261" lon="15.162402616173468"><ele>1152.0</ele><time>2026-04-18T08:11:31Z</time></trkpt><trkpt lat="37.95719676496283" lon="15.162489630125899"><ele>1152.0</ele><time>2026-04-18T08:11:33Z</time></trkpt><trkpt lat="37.957354621245365" lon="15.1624984128719"><ele>1152.0</ele><time>2026-04-18T08:11:36Z</time></trkpt></trkseg><trkseg><trkpt lat="37.95737109414182" lon="15.162463024259639"><ele>1152.0</ele><time>2026-04-18T08:23:33.001Z</time></trkpt><trkpt lat="37.957305323208004" lon="15.16249630851058"><ele>1152.0</ele><time>2026-04-18T08:23:41Z</time></trkpt><trkpt lat="37.95729864501068" lon="15.16259486617425"><ele>1152.0</ele><time>2026-04-18T08:23:42Z</time></trkpt><trkpt lat="37.95729927913622" lon="15.162714873942521"><ele>1152.0</ele><time>2026-04-18T08:23:43Z</time></trkpt><trkpt lat="37.95731867762909" lon="15.162828871801501"><ele>1152.0</ele><time>2026-04-18T08:23:44Z</time></trkpt><trkpt lat="37.957329810285074" lon="15.162928444976929"><ele>1152.0</ele><time>2026-04-18T08:23:45Z</time></trkpt><trkpt lat="37.95733162158038" lon="15.163064790572143"><ele>1152.0</ele><time>2026-04-18T08:23:46Z</time></trkpt><trkpt lat="37.957340730698704" lon="15.163165324651214"><ele>1152.0</ele><time>2026-04-18T08:23:47Z</time></trkpt><trkpt lat="37.9573434947299" lon="15.163294900189333"><ele>1152.0</ele><time>2026-04-18T08:23:48Z</time></trkpt><trkpt lat="37.95734905434801" lon="15.163403843748108"><ele>1152.0</ele><time>2026-04-18T08:23:49Z</time></trkpt><trkpt lat="37.957342786619584" lon="15.163523954958974"><ele>1152.0</ele><time>2026-04-18T08:23:50Z</time></trkpt><trkpt lat="37.957347098690164" lon="15.163619145380943"><ele>1152.0</ele><time>2026-04-18T08:23:51Z</time></trkpt><trkpt lat="37.95737145113021" lon="15.163715447173132"><ele>1151.3333333333333</ele><time>2026-04-18T08:23:52Z</time></trkpt><trkpt lat="37.95738790775134" lon="15.163795951533237"><ele>1150.6666666666667</ele><time>2026-04-18T08:23:53Z</time></trkpt><trkpt lat="37.957398175296625" lon="15.163895794514797"><ele>1150.0</ele><time>2026-04-18T08:23:54Z</time></trkpt><trkpt lat="37.957388463774045" lon="15.163980397329542"><ele>1149.3333333333335</ele><time>2026-04-18T08:23:55Z</time></trkpt><trkpt lat="37.95737719838826" lon="15.16407474316432"><ele>1148.6666666666667</ele><time>2026-04-18T08:23:56Z</time></trkpt><trkpt lat="37.9573804339217" lon="15.16415955836385"><ele>1148.0</ele><time>2026-04-18T08:23:57Z</time></trkpt><trkpt lat="37.95736325215312" lon="15.164314182789527"><ele>1146.2</ele><time>2026-04-18T08:23:59Z</time></trkpt><trkpt lat="37.95733941348836" lon="15.164415088233078"><ele>1144.4</ele><time>2026-04-18T08:24:00Z</time></trkpt><trkpt lat="37.957322519141464" lon="15.164509351123787"><ele>1142.6000000000001</ele><time>2026-04-18T08:24:01Z</time></trkpt><trkpt lat="37.95730229232357" lon="15.16461137892299"><ele>1140.8</ele><time>2026-04-18T08:24:02Z</time></trkpt><trkpt lat="37.95729787132716" lon="15.164748430972242"><ele>1139.0</ele><time>2026-04-18T08:24:03Z</time></trkpt><trkpt lat="37.957309094573894" lon="15.164886266658327"><ele>1138.1666666666667</ele><time>2026-04-18T08:24:04Z</time></trkpt><trkpt lat="37.95733158929888" lon="15.164998317536964"><ele>1137.3333333333335</ele><time>2026-04-18T08:24:05Z</time></trkpt><trkpt lat="37.957327136977845" lon="15.16509860755681"><ele>1136.5</ele><time>2026-04-18T08:24:06Z</time></trkpt><trkpt lat="37.95733021349858" lon="15.16521088216099"><ele>1135.6666666666667</ele><time>2026-04-18T08:24:07Z</time></trkpt><trkpt lat="37.95733117307415" lon="15.165307174894908"><ele>1134.8333333333333</ele><time>2026-04-18T08:24:08Z</time></trkpt><trkpt lat="37.95731961416127" lon="15.165402418150585"><ele>1134.0</ele><time>2026-04-18T08:24:09Z</time></trkpt><trkpt lat="37.957327138021405" lon="15.165506533301894"><ele>1134.0</ele><time>2026-04-18T08:24:09.999Z</time></trkpt><trkpt lat="37.95731270095322" lon="15.16560219725246"><ele>1134.0</ele><time>2026-04-18T08:24:10.999Z</time></trkpt><trkpt lat="37.95731027772349" lon="15.165720358706377"><ele>1134.0</ele><time>2026-04-18T08:24:11.999Z</time></trkpt><trkpt lat="37.957297037057884" lon="15.16582800288965"><ele>1134.0</ele><time>2026-04-18T08:24:12.999Z</time></trkpt><trkpt lat="37.95728182472602" lon="15.165928949045203"><ele>1134.0</ele><time>2026-04-18T08:24:13.999Z</time></trkpt><trkpt lat="37.957256710752674" lon="15.16601412942883"><ele>1134.0</ele><time>2026-04-18T08:24:14.999Z</time></trkpt><trkpt lat="37.957264888172816" lon="15.166114643163455"><ele>1132.5</ele><time>2026-04-18T08:24:15.999Z</time></trkpt><trkpt lat="37.957277846394064" lon="15.166210127556733"><ele>1131.0</ele><time>2026-04-18T08:24:16.999Z</time></trkpt><trkpt lat="37.957297479370084" lon="15.166319679611252"><ele>1129.5</ele><time>2026-04-18T08:24:17.999Z</time></trkpt><trkpt lat="37.95726472183397" lon="15.16640649107544"><ele>1128.0</ele><time>2026-04-18T08:24:18.999Z</time></trkpt><trkpt lat="37.95723963277232" lon="15.166511273689064"><ele>1126.5</ele><time>2026-04-18T08:24:19.999Z</time></trkpt><trkpt lat="37.957227948591516" lon="15.16659134025902"><ele>1125.0</ele><time>2026-04-18T08:24:20.999Z</time></trkpt><trkpt lat="37.95721663948667" lon="15.166685408674857"><ele>1124.3333333333333</ele><time>2026-04-18T08:24:21.999Z</time></trkpt><trkpt lat="37.957226028972364" lon="15.166787390080115"><ele>1123.6666666666667</ele><time>2026-04-18T08:24:22.999Z</time></trkpt><trkpt lat="37.957235407496114" lon="15.166890471722079"><ele>1123.0</ele><time>2026-04-18T08:24:23.999Z</time></trkpt><trkpt lat="37.957260244805745" lon="15.166983876100865"><ele>1122.3333333333335</ele><time>2026-04-18T08:24:24.999Z</time></trkpt><trkpt lat="37.957221951272984" lon="15.167097483648963"><ele>1121.6666666666667</ele><time>2026-04-18T08:24:25.999Z</time></trkpt><trkpt lat="37.957195460413" lon="15.167193850520679"><ele>1121.0</ele><time>2026-04-18T08:24:26.999Z</time></trkpt><trkpt lat="37.95716269415822" lon="15.16729041252398"><ele>1118.8</ele><time>2026-04-18T08:24:27.999Z</time></trkpt><trkpt lat="37.957110071276105" lon="15.167406341008492"><ele>1116.6</ele><time>2026-04-18T08:24:28.999Z</time></trkpt><trkpt lat="37.95708710074466" lon="15.1675277654477"><ele>1114.4</ele><time>2026-04-18T08:24:29.999Z</time></trkpt><trkpt lat="37.95707121508575" lon="15.167640647670597"><ele>1112.2</ele><time>2026-04-18T08:24:30.999Z</time></trkpt><trkpt lat="37.95704554946" lon="15.167761351980463"><ele>1110.0</ele><time>2026-04-18T08:24:31.999Z</time></trkpt><trkpt lat="37.95704411456999" lon="15.16789914944434"><ele>1110.0</ele><time>2026-04-18T08:24:32.999Z</time></trkpt><trkpt lat="37.957035121686474" lon="15.168014463847065"><ele>1110.0</ele><time>2026-04-18T08:24:33.999Z</time></trkpt><trkpt lat="37.95700706495374" lon="15.168121102197292"><ele>1110.0</ele><time>2026-04-18T08:24:34.999Z</time></trkpt><trkpt lat="37.95697766167312" lon="15.168207762720101"><ele>1110.0</ele><time>2026-04-18T08:24:35.999Z</time></trkpt><trkpt lat="37.956951866382106" lon="15.168322439358244"><ele>1110.0</ele><time>2026-04-18T08:24:36.999Z</time></trkpt><trkpt lat="37.95690226708127" lon="15.16839575608294"><ele>1110.0</ele><time>2026-04-18T08:24:37.999Z</time></trkpt><trkpt lat="37.956856336394424" lon="15.168469512740849"><ele>1107.5</ele><time>2026-04-18T08:24:38.999Z</time></trkpt><trkpt lat="37.95682128950218" lon="15.168563879302285"><ele>1105.0</ele><time>2026-04-18T08:24:39.999Z</time></trkpt><trkpt lat="37.956802141349215" lon="15.16866067091548"><ele>1102.5</ele><time>2026-04-18T08:24:40.999Z</time></trkpt><trkpt lat="37.95677513297985" lon="15.16880414455554"><ele>1100.0</ele><time>2026-04-18T08:24:42.999Z</time></trkpt><trkpt lat="37.956717298040985" lon="15.168846931356887"><ele>1097.5</ele><time>2026-04-18T08:24:43.999Z</time></trkpt><trkpt lat="37.95667620046315" lon="15.168911270949172"><ele>1095.0</ele><time>2026-04-18T08:24:44.999Z</time></trkpt><trkpt lat="37.956674550973716" lon="15.168997057921747"><ele>1092.3333333333333</ele><time>2026-04-18T08:24:45.999Z</time></trkpt><trkpt lat="37.95670927577227" lon="15.169078300913885"><ele>1089.6666666666667</ele><time>2026-04-18T08:24:46.999Z</time></trkpt><trkpt lat="37.95669548452805" lon="15.169160364774273"><ele>1087.0</ele><time>2026-04-18T08:24:47.999Z</time></trkpt><trkpt lat="37.956633012748696" lon="15.169255452232816"><ele>1084.3333333333335</ele><time>2026-04-18T08:24:48.999Z</time></trkpt><trkpt lat="37.95658436670805" lon="15.169375676935577"><ele>1081.6666666666667</ele><time>2026-04-18T08:24:49.999Z</time></trkpt><trkpt lat="37.95657387898006" lon="15.169467389674168"><ele>1079.0</ele><time>2026-04-18T08:24:50.999Z</time></trkpt><trkpt lat="37.95658196127482" lon="15.169549470824524"><ele>1085.6000000000001</ele><time>2026-04-18T08:24:51.999Z</time></trkpt><trkpt lat="37.956632204542785" lon="15.169661322154719"><ele>1092.2</ele><time>2026-04-18T08:24:53.999Z</time></trkpt><trkpt lat="37.956629503392655" lon="15.169795569683863"><ele>1098.8000000000002</ele><time>2026-04-18T08:24:55.999Z</time></trkpt><trkpt lat="37.956625851896504" lon="15.169880780100213"><ele>1105.4</ele><time>2026-04-18T08:24:56.999Z</time></trkpt><trkpt lat="37.956652505224476" lon="15.170067500907251"><ele>1112.0</ele><time>2026-04-18T08:24:57.999Z</time></trkpt><trkpt lat="37.956648161243564" lon="15.170217119315199"><ele>1112.0</ele><time>2026-04-18T08:24:58.999Z</time></trkpt><trkpt lat="37.95666890512614" lon="15.170382534626018"><ele>1112.0</ele><time>2026-04-18T08:24:59.999Z</time></trkpt><trkpt lat="37.9566857104105" lon="15.170523055340288"><ele>1112.0</ele><time>2026-04-18T08:25:00.999Z</time></trkpt><trkpt lat="37.95671528945245" lon="15.170691219239876"><ele>1112.0</ele><time>2026-04-18T08:25:01.999Z</time></trkpt><trkpt lat="37.956721897655484" lon="15.170824570640375"><ele>1103.6</ele><time>2026-04-18T08:25:02.999Z</time></trkpt><trkpt lat="37.95673342777443" lon="15.170934420527916"><ele>1095.2</ele><time>2026-04-18T08:25:03.999Z</time></trkpt><trkpt lat="37.95673009826419" lon="15.171092292708439"><ele>1086.8</ele><time>2026-04-18T08:25:05.999Z</time></trkpt><trkpt lat="37.95675826104363" lon="15.171187935927653"><ele>1078.4</ele><time>2026-04-18T08:25:06.999Z</time></trkpt><trkpt lat="37.95680290186836" lon="15.171285596883733"><ele>1070.0</ele><time>2026-04-18T08:25:07.999Z</time></trkpt><trkpt lat="37.95685667531557" lon="15.171389081509227"><ele>1070.0</ele><time>2026-04-18T08:25:08.999Z</time></trkpt><trkpt lat="37.956908799328744" lon="15.171505287423734"><ele>1070.0</ele><time>2026-04-18T08:25:09.999Z</time></trkpt><trkpt lat="37.95694918140984" lon="15.171609399078399"><ele>1070.0</ele><time>2026-04-18T08:25:10.998Z</time></trkpt><trkpt lat="37.956969999264984" lon="15.17171769355288"><ele>1070.0</ele><time>2026-04-18T08:25:11.998Z</time></trkpt><trkpt lat="37.956961284043274" lon="15.171821120499336"><ele>1070.0</ele><time>2026-04-18T08:25:12.998Z</time></trkpt><trkpt lat="37.956979871228086" lon="15.171926092371491"><ele>1070.1666666666667</ele><time>2026-04-18T08:25:13.998Z</time></trkpt><trkpt lat="37.956987414407976" lon="15.172040029024728"><ele>1070.3333333333335</ele><time>2026-04-18T08:25:14.998Z</time></trkpt><trkpt lat="37.956999479295355" lon="15.172134909808134"><ele>1070.5</ele><time>2026-04-18T08:25:15.998Z</time></trkpt><trkpt lat="37.95703023470371" lon="15.17223765560649"><ele>1070.6666666666667</ele><time>2026-04-18T08:25:16.998Z</time></trkpt><trkpt lat="37.95705292863611" lon="15.172333095596862"><ele>1070.8333333333333</ele><time>2026-04-18T08:25:17.998Z</time></trkpt><trkpt lat="37.957083544701746" lon="15.172419566219238"><ele>1071.0</ele><time>2026-04-18T08:25:18.998Z</time></trkpt><trkpt lat="37.95712353775119" lon="15.17258599273963"><ele>1072.3333333333333</ele><time>2026-04-18T08:25:20.998Z</time></trkpt><trkpt lat="37.95713675021567" lon="15.172683071131667"><ele>1073.6666666666667</ele><time>2026-04-18T08:25:21.998Z</time></trkpt><trkpt lat="37.957137729869316" lon="15.172792959217594"><ele>1075.0</ele><time>2026-04-18T08:25:22.998Z</time></trkpt><trkpt lat="37.95714691678199" lon="15.172874032152574"><ele>1076.3333333333335</ele><time>2026-04-18T08:25:23.998Z</time></trkpt><trkpt lat="37.95719543694799" lon="15.17296877411278"><ele>1077.6666666666667</ele><time>2026-04-18T08:25:24.998Z</time></trkpt><trkpt lat="37.95726905521049" lon="15.173034564132692"><ele>1079.0</ele><time>2026-04-18T08:25:26Z</time></trkpt><trkpt lat="37.957311459398255" lon="15.173123632778331"><ele>1080.0</ele><time>2026-04-18T08:25:27Z</time></trkpt><trkpt lat="37.957346572376196" lon="15.17322580728735"><ele>1081.0</ele><time>2026-04-18T08:25:28Z</time></trkpt><trkpt lat="37.95736293379918" lon="15.17335412281595"><ele>1082.0</ele><time>2026-04-18T08:25:29Z</time></trkpt><trkpt lat="37.95734237690697" lon="15.173468784964596"><ele>1083.0</ele><time>2026-04-18T08:25:30Z</time></trkpt><trkpt lat="37.9573241707694" lon="15.173587730779417"><ele>1084.0</ele><time>2026-04-18T08:25:31Z</time></trkpt><trkpt lat="37.95729097300211" lon="15.173687948806577"><ele>1084.0</ele><time>2026-04-18T08:25:32Z</time></trkpt><trkpt lat="37.95726703883491" lon="15.173765682183763"><ele>1084.0</ele><time>2026-04-18T08:25:33Z</time></trkpt><trkpt lat="37.957294388119216" lon="15.173889447558944"><ele>1084.0</ele><time>2026-04-18T08:25:35Z</time></trkpt><trkpt lat="37.957326872030855" lon="15.174047787816487"><ele>1084.0</ele><time>2026-04-18T08:25:37Z</time></trkpt><trkpt lat="37.95734854194331" lon="15.174156769544263"><ele>1084.0</ele><time>2026-04-18T08:25:38Z</time></trkpt><trkpt lat="37.95737660239218" lon="15.174276074969697"><ele>1083.5</ele><time>2026-04-18T08:25:39Z</time></trkpt><trkpt lat="37.95741810415873" lon="15.174371109406096"><ele>1083.0</ele><time>2026-04-18T08:25:40Z</time></trkpt><trkpt lat="37.95745396306252" lon="15.174471747803915"><ele>1082.5</ele><time>2026-04-18T08:25:41Z</time></trkpt><trkpt lat="37.957477990724065" lon="15.174579236534115"><ele>1082.0</ele><time>2026-04-18T08:25:42Z</time></trkpt><trkpt lat="37.957482518643666" lon="15.174673140554146"><ele>1081.5</ele><time>2026-04-18T08:25:43Z</time></trkpt><trkpt lat="37.957462435772094" lon="15.17479797679854"><ele>1081.0</ele><time>2026-04-18T08:25:44Z</time></trkpt><trkpt lat="37.957445731841965" lon="15.174924163164857"><ele>1080.2</ele><time>2026-04-18T08:25:45Z</time></trkpt><trkpt lat="37.95742459230846" lon="15.175048131351128"><ele>1079.3999999999999</ele><time>2026-04-18T08:25:46Z</time></trkpt><trkpt lat="37.95741736595722" lon="15.175153064554092"><ele>1078.6</ele><time>2026-04-18T08:25:47Z</time></trkpt><trkpt lat="37.95739924689926" lon="15.17526920900459"><ele>1077.8</ele><time>2026-04-18T08:25:48Z</time></trkpt><trkpt lat="37.957388328755734" lon="15.175391538563243"><ele>1077.0</ele><time>2026-04-18T08:25:49Z</time></trkpt><trkpt lat="37.957390393421896" lon="15.175517007691717"><ele>1077.0</ele><time>2026-04-18T08:25:50Z</time></trkpt><trkpt lat="37.95738633924544" lon="15.175635531444163"><ele>1077.0</ele><time>2026-04-18T08:25:51Z</time></trkpt><trkpt lat="37.957377144529325" lon="15.175747576987417"><ele>1077.0</ele><time>2026-04-18T08:25:51.999Z</time></trkpt><trkpt lat="37.95736199495537" lon="15.175857285902353"><ele>1077.0</ele><time>2026-04-18T08:25:52.999Z</time></trkpt><trkpt lat="37.95735565472193" lon="15.175962011186066"><ele>1077.0</ele><time>2026-04-18T08:25:53.999Z</time></trkpt><trkpt lat="37.95734244864286" lon="15.176072796482229"><ele>1077.0</ele><time>2026-04-18T08:25:54.999Z</time></trkpt><trkpt lat="37.95732963023304" lon="15.176184852543306"><ele>1076.2</ele><time>2026-04-18T08:25:55.999Z</time></trkpt><trkpt lat="37.957328371113455" lon="15.176280814370978"><ele>1075.4</ele><time>2026-04-18T08:25:56.999Z</time></trkpt><trkpt lat="37.957328543181276" lon="15.176400864808064"><ele>1074.6</ele><time>2026-04-18T08:25:57.999Z</time></trkpt><trkpt lat="37.957344972666085" lon="15.17652277569221"><ele>1073.8</ele><time>2026-04-18T08:25:58.999Z</time></trkpt><trkpt lat="37.95736180422444" lon="15.176647960525296"><ele>1073.0</ele><time>2026-04-18T08:25:59.999Z</time></trkpt><trkpt lat="37.95738809497486" lon="15.176781615226615"><ele>1073.0</ele><time>2026-04-18T08:26:00.999Z</time></trkpt><trkpt lat="37.95742397544347" lon="15.176923257075186"><ele>1073.0</ele><time>2026-04-18T08:26:01.999Z</time></trkpt><trkpt lat="37.95745891972181" lon="15.177077608781397"><ele>1073.0</ele><time>2026-04-18T08:26:02.999Z</time></trkpt><trkpt lat="37.95747673715846" lon="15.177202781823283"><ele>1073.0</ele><time>2026-04-18T08:26:03.999Z</time></trkpt><trkpt lat="37.957497713972025" lon="15.177331843122593"><ele>1073.0</ele><time>2026-04-18T08:26:04.999Z</time></trkpt><trkpt lat="37.95753251089427" lon="15.177468559665336"><ele>1069.4</ele><time>2026-04-18T08:26:05.999Z</time></trkpt><trkpt lat="37.95757791027332" lon="15.177591287787632"><ele>1065.8</ele><time>2026-04-18T08:26:06.999Z</time></trkpt><trkpt lat="37.95759448820328" lon="15.177713452840333"><ele>1062.2</ele><time>2026-04-18T08:26:07.999Z</time></trkpt><trkpt lat="37.957638728212835" lon="15.177844396380443"><ele>1058.6</ele><time>2026-04-18T08:26:08.999Z</time></trkpt><trkpt lat="37.957666298067394" lon="15.177954824406703"><ele>1055.0</ele><time>2026-04-18T08:26:09.999Z</time></trkpt><trkpt lat="37.957678086573395" lon="15.178072773396163"><ele>1055.0</ele><time>2026-04-18T08:26:10.999Z</time></trkpt><trkpt lat="37.957703399589604" lon="15.1781927268334"><ele>1055.0</ele><time>2026-04-18T08:26:11.999Z</time></trkpt><trkpt lat="37.957734151939185" lon="15.178309889554486"><ele>1055.0</ele><time>2026-04-18T08:26:12.999Z</time></trkpt><trkpt lat="37.9577527192901" lon="15.178420645420204"><ele>1055.0</ele><time>2026-04-18T08:26:13.999Z</time></trkpt><trkpt lat="37.95775457829393" lon="15.178504995504158"><ele>1055.0</ele><time>2026-04-18T08:26:14.999Z</time></trkpt><trkpt lat="37.957760224754615" lon="15.178640135868834"><ele>1055.0</ele><time>2026-04-18T08:26:16.999Z</time></trkpt><trkpt lat="37.95775914148973" lon="15.178730871613814"><ele>1055.0</ele><time>2026-04-18T08:26:19.999Z</time></trkpt><trkpt lat="37.95775725873321" lon="15.17884115722955"><ele>1055.0</ele><time>2026-04-18T08:33:33.999Z</time></trkpt><trkpt lat="37.95775565342556" lon="15.178937957939818"><ele>1055.0</ele><time>2026-04-18T08:33:35.999Z</time></trkpt><trkpt lat="37.957843054244336" lon="15.179018530457663"><ele>1055.0</ele><time>2026-04-18T08:33:36.999Z</time></trkpt><trkpt lat="37.95787818569106" lon="15.179094276806907"><ele>1055.0</ele><time>2026-04-18T08:33:37.999Z</time></trkpt><trkpt lat="37.95790537016948" lon="15.179174780546877"><ele>1057.0</ele><time>2026-04-18T08:33:38.999Z</time></trkpt><trkpt lat="37.95797072392698" lon="15.179222368455331"><ele>1059.0</ele><time>2026-04-18T08:33:39.999Z</time></trkpt><trkpt lat="37.95804718884344" lon="15.179265540398449"><ele>1061.0</ele><time>2026-04-18T08:33:40.999Z</time></trkpt><trkpt lat="37.958126427703405" lon="15.179307129575767"><ele>1063.0</ele><time>2026-04-18T08:33:41.999Z</time></trkpt><trkpt lat="37.95822804235137" lon="15.179353157666045"><ele>1065.0</ele><time>2026-04-18T08:33:42.999Z</time></trkpt><trkpt lat="37.958320876967186" lon="15.179395208674839"><ele>1062.0</ele><time>2026-04-18T08:33:43.999Z</time></trkpt><trkpt lat="37.95842012991858" lon="15.179437648897046"><ele>1059.0</ele><time>2026-04-18T08:33:44.999Z</time></trkpt><trkpt lat="37.9585176543866" lon="15.179458262947664"><ele>1056.0</ele><time>2026-04-18T08:33:45.999Z</time></trkpt><trkpt lat="37.95859561381214" lon="15.179512256742015"><ele>1053.0</ele><time>2026-04-18T08:33:46.999Z</time></trkpt><trkpt lat="37.958659180960375" lon="15.179540071834325"><ele>1050.0</ele><time>2026-04-18T08:33:47.999Z</time></trkpt><trkpt lat="37.95874463692963" lon="15.17962087048414"><ele>1050.0</ele><time>2026-04-18T08:33:50Z</time></trkpt><trkpt lat="37.9588367906042" lon="15.179661356570994"><ele>1050.0</ele><time>2026-04-18T08:33:52Z</time></trkpt><trkpt lat="37.958948651893984" lon="15.179537072515565"><ele>1050.0</ele><time>2026-04-18T08:33:54Z</time></trkpt><trkpt lat="37.95901500879274" lon="15.179477675525089"><ele>1050.0</ele><time>2026-04-18T08:33:55Z</time></trkpt><trkpt lat="37.95908066840252" lon="15.179466456557941"><ele>1050.0</ele><time>2026-04-18T08:33:56Z</time></trkpt><trkpt lat="37.959159046802036" lon="15.179468846937613"><ele>1047.1666666666667</ele><time>2026-04-18T08:33:57Z</time></trkpt><trkpt lat="37.95923970662111" lon="15.179485859566256"><ele>1044.3333333333333</ele><time>2026-04-18T08:33:58Z</time></trkpt><trkpt lat="37.959322263589165" lon="15.179498187498714"><ele>1041.5</ele><time>2026-04-18T08:33:59Z</time></trkpt><trkpt lat="37.95939054723874" lon="15.179563809874201"><ele>1038.6666666666665</ele><time>2026-04-18T08:34:00Z</time></trkpt><trkpt lat="37.959446734509505" lon="15.179651953201263"><ele>1035.8333333333333</ele><time>2026-04-18T08:34:01Z</time></trkpt><trkpt lat="37.95948344387833" lon="15.1797534513599"><ele>1033.0</ele><time>2026-04-18T08:34:02Z</time></trkpt><trkpt lat="37.959527636582976" lon="15.179823467558325"><ele>1035.0</ele><time>2026-04-18T08:34:03Z</time></trkpt><trkpt lat="37.95958339822932" lon="15.179894869740298"><ele>1037.0</ele><time>2026-04-18T08:34:04Z</time></trkpt><trkpt lat="37.959638613651734" lon="15.179947407891165"><ele>1039.0</ele><time>2026-04-18T08:34:05Z</time></trkpt><trkpt lat="37.95968876387455" lon="15.180013625987309"><ele>1041.0</ele><time>2026-04-18T08:34:06Z</time></trkpt><trkpt lat="37.95974183514537" lon="15.180079195249155"><ele>1043.0</ele><time>2026-04-18T08:34:07Z</time></trkpt><trkpt lat="37.95978796385737" lon="15.180166393845647"><ele>1045.0</ele><time>2026-04-18T08:34:08Z</time></trkpt><trkpt lat="37.959842521424726" lon="15.180237216822846"><ele>1045.0</ele><time>2026-04-18T08:34:09Z</time></trkpt><trkpt lat="37.959920179573906" lon="15.180190742906715"><ele>1045.0</ele><time>2026-04-18T08:34:10Z</time></trkpt><trkpt lat="37.95998254109835" lon="15.180239235274778"><ele>1045.0</ele><time>2026-04-18T08:34:11Z</time></trkpt><trkpt lat="37.96003048940999" lon="15.180294215580766"><ele>1045.0</ele><time>2026-04-18T08:34:12Z</time></trkpt><trkpt lat="37.960063524948914" lon="15.180372687126917"><ele>1045.0</ele><time>2026-04-18T08:34:13Z</time></trkpt><trkpt lat="37.96013019411137" lon="15.18042093126153"><ele>1045.0</ele><time>2026-04-18T08:34:14Z</time></trkpt><trkpt lat="37.96020688540841" lon="15.180439704005504"><ele>1045.0</ele><time>2026-04-18T08:34:15Z</time></trkpt><trkpt lat="37.96027758663723" lon="15.180433174425767"><ele>1041.5</ele><time>2026-04-18T08:34:16Z</time></trkpt><trkpt lat="37.96036353107582" lon="15.180410005353707"><ele>1038.0</ele><time>2026-04-18T08:34:17Z</time></trkpt><trkpt lat="37.96045647400824" lon="15.180404314389458"><ele>1034.5</ele><time>2026-04-18T08:34:18Z</time></trkpt><trkpt lat="37.96051898067398" lon="15.180419280462111"><ele>1031.0</ele><time>2026-04-18T08:34:19Z</time></trkpt><trkpt lat="37.96057969794541" lon="15.180463013735192"><ele>1027.5</ele><time>2026-04-18T08:34:20Z</time></trkpt><trkpt lat="37.960648108441504" lon="15.180514916329019"><ele>1024.0</ele><time>2026-04-18T08:34:21Z</time></trkpt><trkpt lat="37.96071645384829" lon="15.180565019679209"><ele>1023.9999999999999</ele><time>2026-04-18T08:34:22Z</time></trkpt><trkpt lat="37.960787067875515" lon="15.180614416759814"><ele>1024.0</ele><time>2026-04-18T08:34:23Z</time></trkpt><trkpt lat="37.960856509967535" lon="15.180663976677062"><ele>1024.0</ele><time>2026-04-18T08:34:24Z</time></trkpt><trkpt lat="37.96091706265521" lon="15.180743992810783"><ele>1024.0</ele><time>2026-04-18T08:34:25Z</time></trkpt><trkpt lat="37.96095479904408" lon="15.180834600806389"><ele>1023.9999999999999</ele><time>2026-04-18T08:34:26Z</time></trkpt><trkpt lat="37.96096982215905" lon="15.180922326245659"><ele>1024.0</ele><time>2026-04-18T08:34:27Z</time></trkpt><trkpt lat="37.96096915323053" lon="15.181056895156686"><ele>1022.8000000000001</ele><time>2026-04-18T08:34:29Z</time></trkpt><trkpt lat="37.96105054088634" lon="15.181081441581464"><ele>1021.6000000000001</ele><time>2026-04-18T08:34:31Z</time></trkpt><trkpt lat="37.9611619065261" lon="15.181093449743129"><ele>1020.4</ele><time>2026-04-18T08:34:33Z</time></trkpt><trkpt lat="37.961230655861996" lon="15.181161503055382"><ele>1019.2</ele><time>2026-04-18T08:34:34Z</time></trkpt><trkpt lat="37.96129046584666" lon="15.18125234731413"><ele>1018.0</ele><time>2026-04-18T08:34:35Z</time></trkpt><trkpt lat="37.96133948724996" lon="15.18133737751275"><ele>1017.9999999999999</ele><time>2026-04-18T08:34:36Z</time></trkpt><trkpt lat="37.96139233196529" lon="15.181412021593605"><ele>1018.0</ele><time>2026-04-18T08:34:37Z</time></trkpt><trkpt lat="37.96146464935422" lon="15.181473721164618"><ele>1018.0</ele><time>2026-04-18T08:34:38Z</time></trkpt><trkpt lat="37.96154590536848" lon="15.18151553386355"><ele>1018.0</ele><time>2026-04-18T08:34:39Z</time></trkpt><trkpt lat="37.961627749909276" lon="15.18154221404047"><ele>1017.9999999999999</ele><time>2026-04-18T08:34:40Z</time></trkpt><trkpt lat="37.96171328158684" lon="15.181564245298507"><ele>1018.0</ele><time>2026-04-18T08:34:41Z</time></trkpt><trkpt lat="37.96178864800407" lon="15.181575286024637"><ele>1017.9999999999999</ele><time>2026-04-18T08:34:42Z</time></trkpt><trkpt lat="37.96187102298779" lon="15.181580365344692"><ele>1018.0</ele><time>2026-04-18T08:34:43Z</time></trkpt><trkpt lat="37.96194692051175" lon="15.181592894736605"><ele>1017.9999999999999</ele><time>2026-04-18T08:34:44Z</time></trkpt><trkpt lat="37.96202061615013" lon="15.18159625336058"><ele>1017.9999999999999</ele><time>2026-04-18T08:34:45Z</time></trkpt><trkpt lat="37.96209803974047" lon="15.181589041893348"><ele>1018.0</ele><time>2026-04-18T08:34:46Z</time></trkpt><trkpt lat="37.96216643196068" lon="15.181580459147282"><ele>1017.9999999999999</ele><time>2026-04-18T08:34:47Z</time></trkpt><trkpt lat="37.96223534194911" lon="15.181587522491203"><ele>1017.9999999999999</ele><time>2026-04-18T08:34:48Z</time></trkpt><trkpt lat="37.962305946281894" lon="15.181628360259467"><ele>1017.9999999999999</ele><time>2026-04-18T08:34:49Z</time></trkpt><trkpt lat="37.96235893280221" lon="15.18169305523411"><ele>1018.0</ele><time>2026-04-18T08:34:49.999Z</time></trkpt><trkpt lat="37.96241040380231" lon="15.181739286952133"><ele>1018.0</ele><time>2026-04-18T08:34:50.999Z</time></trkpt><trkpt lat="37.962483018294456" lon="15.181746068994665"><ele>1018.0</ele><time>2026-04-18T08:34:51.999Z</time></trkpt><trkpt lat="37.96254736807507" lon="15.18175149284738"><ele>1017.9999999999999</ele><time>2026-04-18T08:34:52.999Z</time></trkpt><trkpt lat="37.96261639178163" lon="15.181753520527723"><ele>1018.0</ele><time>2026-04-18T08:34:53.999Z</time></trkpt><trkpt lat="37.962722941573695" lon="15.18182995720889"><ele>1014.9999999999999</ele><time>2026-04-18T08:34:55.999Z</time></trkpt><trkpt lat="37.962802325715046" lon="15.181867489578464"><ele>1012.0</ele><time>2026-04-18T08:34:56.999Z</time></trkpt><trkpt lat="37.9628744096297" lon="15.18185840135952"><ele>1009.0</ele><time>2026-04-18T08:34:57.999Z</time></trkpt><trkpt lat="37.96301883230405" lon="15.181864602621781"><ele>1006.0</ele><time>2026-04-18T08:34:59.999Z</time></trkpt><trkpt lat="37.96309269622273" lon="15.181860342951843"><ele>1002.9999999999999</ele><time>2026-04-18T08:35:00.999Z</time></trkpt><trkpt lat="37.9631564695863" lon="15.181864346022111"><ele>1000.0</ele><time>2026-04-18T08:35:01.999Z</time></trkpt><trkpt lat="37.96321674043807" lon="15.181896524206971"><ele>1000.0</ele><time>2026-04-18T08:35:02.999Z</time></trkpt><trkpt lat="37.96328494537489" lon="15.18197249675656"><ele>1000.0</ele><time>2026-04-18T08:35:04.999Z</time></trkpt><trkpt lat="37.96334190108391" lon="15.182066192125616"><ele>1000.0</ele><time>2026-04-18T08:35:11.999Z</time></trkpt><trkpt lat="37.9634196480175" lon="15.182159708963768"><ele>1000.0</ele><time>2026-04-18T08:35:13.999Z</time></trkpt><trkpt lat="37.96348873530188" lon="15.182248225349683"><ele>1000.0</ele><time>2026-04-18T08:35:15.999Z</time></trkpt><trkpt lat="37.963569480356526" lon="15.182234472242753"><ele>997.0</ele><time>2026-04-18T08:35:17.999Z</time></trkpt><trkpt lat="37.963645791263716" lon="15.18219775063323"><ele>994.0</ele><time>2026-04-18T08:35:19.999Z</time></trkpt><trkpt lat="37.96373505434249" lon="15.182166107618384"><ele>991.0</ele><time>2026-04-18T08:35:21.999Z</time></trkpt><trkpt lat="37.96383508879045" lon="15.18217300122656"><ele>988.0</ele><time>2026-04-18T08:35:23.999Z</time></trkpt><trkpt lat="37.963940948253224" lon="15.182193095085836"><ele>985.0</ele><time>2026-04-18T08:35:25.999Z</time></trkpt><trkpt lat="37.9640418097448" lon="15.1821995552191"><ele>984.9999999999999</ele><time>2026-04-18T08:35:27.999Z</time></trkpt><trkpt lat="37.96415181842269" lon="15.182190008809076"><ele>985.0</ele><time>2026-04-18T08:35:29.999Z</time></trkpt><trkpt lat="37.96421593316308" lon="15.182172401415693"><ele>985.0</ele><time>2026-04-18T08:35:30.999Z</time></trkpt><trkpt lat="37.96430248247975" lon="15.182138273113372"><ele>985.0</ele><time>2026-04-18T08:35:31.999Z</time></trkpt><trkpt lat="37.96437801933365" lon="15.182115684392363"><ele>984.9999999999999</ele><time>2026-04-18T08:35:32.999Z</time></trkpt><trkpt lat="37.96446593018795" lon="15.182094747885943"><ele>985.0</ele><time>2026-04-18T08:35:33.999Z</time></trkpt><trkpt lat="37.96454028725184" lon="15.182072743389952"><ele>984.1666666666666</ele><time>2026-04-18T08:35:34.999Z</time></trkpt><trkpt lat="37.96461523581872" lon="15.182067495415527"><ele>983.3333333333333</ele><time>2026-04-18T08:35:35.999Z</time></trkpt><trkpt lat="37.96468268288407" lon="15.182054931437632"><ele>982.5</ele><time>2026-04-18T08:35:36.999Z</time></trkpt><trkpt lat="37.96479966258005" lon="15.181961164952023"><ele>981.6666666666667</ele><time>2026-04-18T08:35:38.999Z</time></trkpt><trkpt lat="37.96485580035409" lon="15.181916860148817"><ele>980.8333333333334</ele><time>2026-04-18T08:35:39.999Z</time></trkpt><trkpt lat="37.96492753285819" lon="15.181887199774806"><ele>980.0</ele><time>2026-04-18T08:35:40.999Z</time></trkpt><trkpt lat="37.96499513352136" lon="15.181880785101379"><ele>978.75</ele><time>2026-04-18T08:35:41.999Z</time></trkpt><trkpt lat="37.965077753945565" lon="15.181850790668964"><ele>977.5</ele><time>2026-04-18T08:35:42.999Z</time></trkpt><trkpt lat="37.965185163123046" lon="15.181837372930518"><ele>976.25</ele><time>2026-04-18T08:35:43.999Z</time></trkpt><trkpt lat="37.96530825357151" lon="15.181827406336042"><ele>975.0</ele><time>2026-04-18T08:35:44.999Z</time></trkpt><trkpt lat="37.96544697113061" lon="15.181818573612736"><ele>975.0</ele><time>2026-04-18T08:35:45.999Z</time></trkpt><trkpt lat="37.96556974055029" lon="15.181812541438033"><ele>975.0</ele><time>2026-04-18T08:35:46.999Z</time></trkpt><trkpt lat="37.965682166212666" lon="15.181810144133076"><ele>975.0</ele><time>2026-04-18T08:35:47.999Z</time></trkpt><trkpt lat="37.9657972817735" lon="15.181799537910695"><ele>975.0</ele><time>2026-04-18T08:35:48.999Z</time></trkpt><trkpt lat="37.96589857084793" lon="15.181769807348932"><ele>974.5</ele><time>2026-04-18T08:35:49.999Z</time></trkpt><trkpt lat="37.96599525284686" lon="15.181740449089805"><ele>974.0</ele><time>2026-04-18T08:35:50.999Z</time></trkpt><trkpt lat="37.96607895835058" lon="15.181710891053621"><ele>973.5</ele><time>2026-04-18T08:35:51.999Z</time></trkpt><trkpt lat="37.966145490882035" lon="15.181672152291398"><ele>973.0</ele><time>2026-04-18T08:35:52.999Z</time></trkpt><trkpt lat="37.96621947781263" lon="15.181660074803625"><ele>972.5</ele><time>2026-04-18T08:35:53.999Z</time></trkpt><trkpt lat="37.96628654559178" lon="15.181629127608462"><ele>972.0</ele><time>2026-04-18T08:35:54.999Z</time></trkpt><trkpt lat="37.966372536418" lon="15.18157227698517"><ele>972.0</ele><time>2026-04-18T08:35:56Z</time></trkpt><trkpt lat="37.9664706106143" lon="15.18154830280432"><ele>972.0</ele><time>2026-04-18T08:35:57Z</time></trkpt><trkpt lat="37.966585576313285" lon="15.181488513769578"><ele>972.0</ele><time>2026-04-18T08:35:58Z</time></trkpt><trkpt lat="37.96665829979744" lon="15.181427750539578"><ele>972.0</ele><time>2026-04-18T08:35:59Z</time></trkpt><trkpt lat="37.966744186205275" lon="15.181402096153104"><ele>972.0</ele><time>2026-04-18T08:36:00Z</time></trkpt><trkpt lat="37.96681208817775" lon="15.181384799331914"><ele>969.1428571428571</ele><time>2026-04-18T08:36:01Z</time></trkpt><trkpt lat="37.96687295013971" lon="15.1813589601795"><ele>966.2857142857143</ele><time>2026-04-18T08:36:02Z</time></trkpt><trkpt lat="37.96692703047702" lon="15.1813054161099"><ele>963.4285714285714</ele><time>2026-04-18T08:36:03Z</time></trkpt><trkpt lat="37.96698443751499" lon="15.18125062322025"><ele>960.5714285714286</ele><time>2026-04-18T08:36:04Z</time></trkpt><trkpt lat="37.96705208637288" lon="15.18120703262737"><ele>957.7142857142858</ele><time>2026-04-18T08:36:05Z</time></trkpt><trkpt lat="37.967112380360476" lon="15.181151219694279"><ele>954.8571428571429</ele><time>2026-04-18T08:36:06Z</time></trkpt><trkpt lat="37.967181151548964" lon="15.181109832678635"><ele>952.0</ele><time>2026-04-18T08:36:07Z</time></trkpt><trkpt lat="37.96725992737352" lon="15.181114197026458"><ele>951.9999999999999</ele><time>2026-04-18T08:36:08Z</time></trkpt><trkpt lat="37.96735532648754" lon="15.181081277679068"><ele>952.0</ele><time>2026-04-18T08:36:09Z</time></trkpt><trkpt lat="37.96743354227956" lon="15.181022425984791"><ele>952.0</ele><time>2026-04-18T08:36:10Z</time></trkpt><trkpt lat="37.96750817428643" lon="15.180983903041636"><ele>952.0</ele><time>2026-04-18T08:36:11Z</time></trkpt><trkpt lat="37.96758344642337" lon="15.180934746520848"><ele>951.9999999999999</ele><time>2026-04-18T08:36:12Z</time></trkpt><trkpt lat="37.96765032989398" lon="15.180895301834552"><ele>952.0</ele><time>2026-04-18T08:36:13Z</time></trkpt><trkpt lat="37.96774580804993" lon="15.180834738057166"><ele>951.9999999999999</ele><time>2026-04-18T08:36:15Z</time></trkpt><trkpt lat="37.96784673254348" lon="15.18086670463028"><ele>952.0</ele><time>2026-04-18T08:36:17Z</time></trkpt><trkpt lat="37.967940381113564" lon="15.180958521709163"><ele>952.0</ele><time>2026-04-18T08:36:19Z</time></trkpt><trkpt lat="37.96800524956251" lon="15.180995199261409"><ele>952.0</ele><time>2026-04-18T08:36:20Z</time></trkpt><trkpt lat="37.9680744439026" lon="15.181017180080588"><ele>951.9999999999999</ele><time>2026-04-18T08:36:21Z</time></trkpt><trkpt lat="37.96815466198039" lon="15.18099304035839"><ele>952.0</ele><time>2026-04-18T08:36:22Z</time></trkpt><trkpt lat="37.968227495455736" lon="15.180955744745749"><ele>951.9999999999999</ele><time>2026-04-18T08:36:23Z</time></trkpt><trkpt lat="37.968292181877274" lon="15.18090798849083"><ele>952.0</ele><time>2026-04-18T08:36:24Z</time></trkpt><trkpt lat="37.968371171310814" lon="15.180852613632181"><ele>952.0</ele><time>2026-04-18T08:36:25Z</time></trkpt><trkpt lat="37.96846056321884" lon="15.18079854774492"><ele>952.0</ele><time>2026-04-18T08:36:26Z</time></trkpt><trkpt lat="37.96855325601888" lon="15.180767771592695"><ele>951.9999999999999</ele><time>2026-04-18T08:36:27Z</time></trkpt><trkpt lat="37.9686325862427" lon="15.180728418649144"><ele>952.0</ele><time>2026-04-18T08:36:28Z</time></trkpt><trkpt lat="37.96869858320749" lon="15.180695903913657"><ele>945.6</ele><time>2026-04-18T08:36:29Z</time></trkpt><trkpt lat="37.96876355068981" lon="15.180643824001114"><ele>939.2</ele><time>2026-04-18T08:36:30Z</time></trkpt><trkpt lat="37.9688710732396" lon="15.18062066125761"><ele>932.8</ele><time>2026-04-18T08:36:31Z</time></trkpt><trkpt lat="37.96896336433255" lon="15.180587274267891"><ele>926.4</ele><time>2026-04-18T08:36:32Z</time></trkpt><trkpt lat="37.96906530364407" lon="15.180556897779827"><ele>920.0</ele><time>2026-04-18T08:36:33Z</time></trkpt><trkpt lat="37.96916283291868" lon="15.180553778916568"><ele>917.6666666666667</ele><time>2026-04-18T08:36:34Z</time></trkpt><trkpt lat="37.96925991463822" lon="15.18054578812059"><ele>915.3333333333334</ele><time>2026-04-18T08:36:35Z</time></trkpt><trkpt lat="37.96934147574586" lon="15.180533266860115"><ele>913.0</ele><time>2026-04-18T08:36:36Z</time></trkpt><trkpt lat="37.96942435335118" lon="15.180490650418745"><ele>910.6666666666667</ele><time>2026-04-18T08:36:37Z</time></trkpt><trkpt lat="37.96950827318009" lon="15.180472421988025"><ele>908.3333333333334</ele><time>2026-04-18T08:36:38Z</time></trkpt><trkpt lat="37.96958569084671" lon="15.18048529439351"><ele>906.0</ele><time>2026-04-18T08:36:39Z</time></trkpt><trkpt lat="37.96966277702723" lon="15.180520984601369"><ele>906.0</ele><time>2026-04-18T08:36:40Z</time></trkpt><trkpt lat="37.96973817592458" lon="15.180557583440443"><ele>906.0</ele><time>2026-04-18T08:36:41Z</time></trkpt><trkpt lat="37.969815917905315" lon="15.180583348984317"><ele>906.0</ele><time>2026-04-18T08:36:42Z</time></trkpt><trkpt lat="37.969944487137724" lon="15.1805656938695"><ele>906.0</ele><time>2026-04-18T08:36:44Z</time></trkpt><trkpt lat="37.97001154000158" lon="15.180564747584146"><ele>906.0</ele><time>2026-04-18T08:36:45Z</time></trkpt><trkpt lat="37.97007637832229" lon="15.180572873219472"><ele>906.0</ele><time>2026-04-18T08:36:46Z</time></trkpt><trkpt lat="37.97014314248427" lon="15.180556583627279"><ele>903.0</ele><time>2026-04-18T08:36:47Z</time></trkpt><trkpt lat="37.970207590224" lon="15.180539532316509"><ele>900.0</ele><time>2026-04-18T08:36:48Z</time></trkpt><trkpt lat="37.97027388840885" lon="15.180517090062256"><ele>897.0</ele><time>2026-04-18T08:36:49Z</time></trkpt><trkpt lat="37.970353248146644" lon="15.180505607234041"><ele>894.0</ele><time>2026-04-18T08:36:50Z</time></trkpt><trkpt lat="37.970416514105395" lon="15.18050294874485"><ele>891.0</ele><time>2026-04-18T08:36:51Z</time></trkpt><trkpt lat="37.97048133033405" lon="15.180494998153064"><ele>888.0</ele><time>2026-04-18T08:36:52Z</time></trkpt><trkpt lat="37.970602019466305" lon="15.180443020662356"><ele>888.0</ele><time>2026-04-18T08:36:54Z</time></trkpt><trkpt lat="37.97066645267682" lon="15.180395341942825"><ele>888.0</ele><time>2026-04-18T08:36:55Z</time></trkpt><trkpt lat="37.970723583773605" lon="15.18034852571428"><ele>888.0</ele><time>2026-04-18T08:36:56Z</time></trkpt><trkpt lat="37.970797165231886" lon="15.180316017741882"><ele>888.0</ele><time>2026-04-18T08:36:57Z</time></trkpt><trkpt lat="37.97086701149646" lon="15.180300709386689"><ele>888.0</ele><time>2026-04-18T08:36:58Z</time></trkpt><trkpt lat="37.97100682549212" lon="15.180260057480327"><ele>888.0</ele><time>2026-04-18T08:37:00Z</time></trkpt><trkpt lat="37.97108256882048" lon="15.180233570407822"><ele>887.5</ele><time>2026-04-18T08:37:01Z</time></trkpt><trkpt lat="37.97115357414" lon="15.180188832571439"><ele>887.0</ele><time>2026-04-18T08:37:02Z</time></trkpt><trkpt lat="37.971214925968766" lon="15.180157462917029"><ele>886.5</ele><time>2026-04-18T08:37:03Z</time></trkpt><trkpt lat="37.97128948003565" lon="15.180142469582306"><ele>886.0</ele><time>2026-04-18T08:37:04Z</time></trkpt><trkpt lat="37.97135315635957" lon="15.180161838288777"><ele>885.5</ele><time>2026-04-18T08:37:04.999Z</time></trkpt><trkpt lat="37.97146452383092" lon="15.180218187824504"><ele>885.0</ele><time>2026-04-18T08:37:06.999Z</time></trkpt><trkpt lat="37.97150088668628" lon="15.180127917545555"><ele>885.0</ele><time>2026-04-18T08:37:08.999Z</time></trkpt><trkpt lat="37.971422184765736" lon="15.180060748651536"><ele>885.0</ele><time>2026-04-18T08:37:10.999Z</time></trkpt><trkpt lat="37.971356750177875" lon="15.180023740984172"><ele>885.0</ele><time>2026-04-18T08:37:12.999Z</time></trkpt><trkpt lat="37.97133601161422" lon="15.17994677660492"><ele>885.0</ele><time>2026-04-18T08:37:14.999Z</time></trkpt><trkpt lat="37.97139429236008" lon="15.17988193041929"><ele>885.0</ele><time>2026-04-18T08:37:16.999Z</time></trkpt><trkpt lat="37.97148088837479" lon="15.179885046950144"><ele>885.0</ele><time>2026-04-18T08:37:18.999Z</time></trkpt><trkpt lat="37.971543476762626" lon="15.179782509249907"><ele>880.8333333333334</ele><time>2026-04-18T08:37:20.999Z</time></trkpt><trkpt lat="37.97157193950956" lon="15.179700954961977"><ele>876.6666666666667</ele><time>2026-04-18T08:37:22.999Z</time></trkpt><trkpt lat="37.97166927269965" lon="15.17962927774142"><ele>872.5</ele><time>2026-04-18T08:37:24.999Z</time></trkpt><trkpt lat="37.97173763803735" lon="15.179643186538462"><ele>868.3333333333334</ele><time>2026-04-18T08:37:25.999Z</time></trkpt><trkpt lat="37.97184161912804" lon="15.179603792847045"><ele>864.1666666666667</ele><time>2026-04-18T08:37:27.999Z</time></trkpt><trkpt lat="37.97189285678109" lon="15.179549965703274"><ele>860.0</ele><time>2026-04-18T08:37:28.999Z</time></trkpt><trkpt lat="37.97197110327945" lon="15.179508635312848"><ele>859.8333333333334</ele><time>2026-04-18T08:37:29.999Z</time></trkpt><trkpt lat="37.972037341680355" lon="15.179479560937848"><ele>859.6666666666667</ele><time>2026-04-18T08:37:30.999Z</time></trkpt><trkpt lat="37.97210801741366" lon="15.179472729112467"><ele>859.5</ele><time>2026-04-18T08:37:31.999Z</time></trkpt><trkpt lat="37.97222417464836" lon="15.179400468305772"><ele>859.3333333333333</ele><time>2026-04-18T08:37:33.999Z</time></trkpt><trkpt lat="37.97230443195482" lon="15.179310294232328"><ele>859.1666666666666</ele><time>2026-04-18T08:37:35.999Z</time></trkpt><trkpt lat="37.972365541586505" lon="15.17927755327152"><ele>859.0</ele><time>2026-04-18T08:37:36.999Z</time></trkpt><trkpt lat="37.97247168898843" lon="15.17922462536571"><ele>854.8000000000001</ele><time>2026-04-18T08:37:38.999Z</time></trkpt><trkpt lat="37.97255109483342" lon="15.179208129627206"><ele>850.6000000000001</ele><time>2026-04-18T08:37:40.999Z</time></trkpt><trkpt lat="37.972588896786206" lon="15.179064843547096"><ele>846.4</ele><time>2026-04-18T08:37:43.999Z</time></trkpt><trkpt lat="37.97267991495287" lon="15.179118936233412"><ele>842.2</ele><time>2026-04-18T08:37:46.999Z</time></trkpt><trkpt lat="37.97274846103748" lon="15.179205063901803"><ele>838.0</ele><time>2026-04-18T08:37:48.999Z</time></trkpt><trkpt lat="37.972793880598125" lon="15.17914179674881"><ele>837.9999999999999</ele><time>2026-04-18T08:37:50.999Z</time></trkpt><trkpt lat="37.97279614561215" lon="15.179061352176863"><ele>838.0</ele><time>2026-04-18T08:37:51.999Z</time></trkpt><trkpt lat="37.97276703699766" lon="15.178939297254997"><ele>838.0</ele><time>2026-04-18T08:37:53.999Z</time></trkpt><trkpt lat="37.972787231202" lon="15.178828646724925"><ele>838.0</ele><time>2026-04-18T08:37:56.999Z</time></trkpt><trkpt lat="37.97283182991727" lon="15.17876972395417"><ele>837.9999999999999</ele><time>2026-04-18T08:37:58.999Z</time></trkpt><trkpt lat="37.97291987635792" lon="15.178828678310508"><ele>838.0</ele><time>2026-04-18T08:38:00.999Z</time></trkpt><trkpt lat="37.97299618953867" lon="15.17873740636688"><ele>836.2</ele><time>2026-04-18T08:38:03Z</time></trkpt><trkpt lat="37.97298385126536" lon="15.17860409184758"><ele>834.4</ele><time>2026-04-18T08:38:05Z</time></trkpt><trkpt lat="37.97290279804627" lon="15.178523922812674"><ele>832.6</ele><time>2026-04-18T08:38:07Z</time></trkpt><trkpt lat="37.97300356455679" lon="15.178472264701309"><ele>830.8000000000001</ele><time>2026-04-18T08:38:10Z</time></trkpt><trkpt lat="37.973119337704865" lon="15.17848782913905"><ele>829.0</ele><time>2026-04-18T08:38:12Z</time></trkpt><trkpt lat="37.973168638818095" lon="15.17843356363058"><ele>828.9999999999999</ele><time>2026-04-18T08:38:13Z</time></trkpt><trkpt lat="37.973211861027" lon="15.178351165275512"><ele>829.0</ele><time>2026-04-18T08:38:14Z</time></trkpt><trkpt lat="37.97325138244002" lon="15.178284204958572"><ele>829.0</ele><time>2026-04-18T08:38:15Z</time></trkpt><trkpt lat="37.973357773860414" lon="15.17822750884831"><ele>829.0</ele><time>2026-04-18T08:38:17Z</time></trkpt><trkpt lat="37.973429229163095" lon="15.178243225680871"><ele>828.9999999999999</ele><time>2026-04-18T08:38:18Z</time></trkpt><trkpt lat="37.97348457996061" lon="15.178176002383541"><ele>829.0</ele><time>2026-04-18T08:38:20Z</time></trkpt><trkpt lat="37.97349820556714" lon="15.178096008317349"><ele>823.2</ele><time>2026-04-18T08:38:21Z</time></trkpt><trkpt lat="37.97352070380034" lon="15.177971938865147"><ele>817.4000000000001</ele><time>2026-04-18T08:38:23Z</time></trkpt><trkpt lat="37.97360509794698" lon="15.1778761004967"><ele>811.6</ele><time>2026-04-18T08:38:25Z</time></trkpt><trkpt lat="37.97368250632128" lon="15.17783307547752"><ele>805.8</ele><time>2026-04-18T08:38:26Z</time></trkpt><trkpt lat="37.97375191803797" lon="15.177801769759219"><ele>800.0</ele><time>2026-04-18T08:38:27Z</time></trkpt><trkpt lat="37.973839388661744" lon="15.177725835380778"><ele>800.0</ele><time>2026-04-18T08:38:29Z</time></trkpt><trkpt lat="37.97387036654331" lon="15.177655391998222"><ele>800.0</ele><time>2026-04-18T08:38:30Z</time></trkpt><trkpt lat="37.973914192250064" lon="15.177548413102874"><ele>800.0</ele><time>2026-04-18T08:38:32Z</time></trkpt><trkpt lat="37.97400209851456" lon="15.177613210388778"><ele>800.0</ele><time>2026-04-18T08:38:34Z</time></trkpt><trkpt lat="37.97404985726801" lon="15.177680193318407"><ele>800.0</ele><time>2026-04-18T08:38:35Z</time></trkpt><trkpt lat="37.974131262808086" lon="15.177795701143948"><ele>796.0</ele><time>2026-04-18T08:38:37Z</time></trkpt><trkpt lat="37.974239860188675" lon="15.17781065311882"><ele>792.0</ele><time>2026-04-18T08:38:39Z</time></trkpt><trkpt lat="37.97434094603101" lon="15.177841404055968"><ele>788.0</ele><time>2026-04-18T08:38:41Z</time></trkpt><trkpt lat="37.97442236743387" lon="15.177812950831969"><ele>784.0</ele><time>2026-04-18T08:38:44Z</time></trkpt><trkpt lat="37.9745074417092" lon="15.177805579724788"><ele>780.0</ele><time>2026-04-18T08:38:46Z</time></trkpt><trkpt lat="37.974605666584836" lon="15.177824478246468"><ele>780.0</ele><time>2026-04-18T08:38:48Z</time></trkpt><trkpt lat="37.97467051291869" lon="15.177793581033612"><ele>780.0</ele><time>2026-04-18T08:38:50Z</time></trkpt><trkpt lat="37.97472912303601" lon="15.177737768446281"><ele>780.0</ele><time>2026-04-18T08:38:52Z</time></trkpt><trkpt lat="37.97477696085799" lon="15.17767153610235"><ele>780.0</ele><time>2026-04-18T08:38:54Z</time></trkpt><trkpt lat="37.97483836546263" lon="15.177600741387167"><ele>780.0</ele><time>2026-04-18T08:38:56Z</time></trkpt><trkpt lat="37.974885444329274" lon="15.177544029419247"><ele>780.0</ele><time>2026-04-18T08:38:58Z</time></trkpt><trkpt lat="37.97496061996288" lon="15.17751556324632"><ele>780.0</ele><time>2026-04-18T08:39:00Z</time></trkpt><trkpt lat="37.97503645519666" lon="15.177526630412837"><ele>775.6</ele><time>2026-04-18T08:39:02Z</time></trkpt><trkpt lat="37.975112572643106" lon="15.177457197192446"><ele>771.2</ele><time>2026-04-18T08:39:05Z</time></trkpt><trkpt lat="37.97518866127506" lon="15.17738092868021"><ele>766.8</ele><time>2026-04-18T08:39:07Z</time></trkpt><trkpt lat="37.97528607817868" lon="15.177460634607874"><ele>762.4</ele><time>2026-04-18T08:39:09Z</time></trkpt><trkpt lat="37.97535446955105" lon="15.177518210526012"><ele>758.0</ele><time>2026-04-18T08:39:11Z</time></trkpt><trkpt lat="37.97542127576213" lon="15.177516342087438"><ele>758.0</ele><time>2026-04-18T08:39:12Z</time></trkpt><trkpt lat="37.975531354995944" lon="15.177521865608822"><ele>758.0</ele><time>2026-04-18T08:39:14Z</time></trkpt><trkpt lat="37.975604879224996" lon="15.177539380487886"><ele>758.0</ele><time>2026-04-18T08:39:15Z</time></trkpt><trkpt lat="37.97567624011377" lon="15.1775646742597"><ele>758.0</ele><time>2026-04-18T08:39:16Z</time></trkpt><trkpt lat="37.97569403015144" lon="15.177477939499482"><ele>758.0</ele><time>2026-04-18T08:39:17Z</time></trkpt><trkpt lat="37.975767753893294" lon="15.177452204986226"><ele>758.0</ele><time>2026-04-18T08:39:18.999Z</time></trkpt><trkpt lat="37.97583448094591" lon="15.177379592724636"><ele>752.5</ele><time>2026-04-18T08:39:20.999Z</time></trkpt><trkpt lat="37.97587894086881" lon="15.177313282411884"><ele>747.0</ele><time>2026-04-18T08:39:22.999Z</time></trkpt><trkpt lat="37.97596273385342" lon="15.177228249717256"><ele>741.5</ele><time>2026-04-18T08:39:25.999Z</time></trkpt><trkpt lat="37.976065845488165" lon="15.177217333594333"><ele>736.0</ele><time>2026-04-18T08:39:27.999Z</time></trkpt><trkpt lat="37.97614536680802" lon="15.177265789577236"><ele>730.5</ele><time>2026-04-18T08:39:29.999Z</time></trkpt><trkpt lat="37.97622408246062" lon="15.177281885454766"><ele>725.0</ele><time>2026-04-18T08:39:31.999Z</time></trkpt><trkpt lat="37.97628360029796" lon="15.177217088661713"><ele>725.0</ele><time>2026-04-18T08:39:33.999Z</time></trkpt><trkpt lat="37.97629556552489" lon="15.177123351713282"><ele>725.0</ele><time>2026-04-18T08:39:35.999Z</time></trkpt><trkpt lat="37.97629444870679" lon="15.177019876948329"><ele>725.0</ele><time>2026-04-18T08:39:38.999Z</time></trkpt><trkpt lat="37.97638239644632" lon="15.177036628064583"><ele>725.0</ele><time>2026-04-18T08:39:41.999Z</time></trkpt><trkpt lat="37.97642177233749" lon="15.177134521894452"><ele>725.0</ele><time>2026-04-18T08:39:43.999Z</time></trkpt><trkpt lat="37.97647161290034" lon="15.177216623147132"><ele>725.0</ele><time>2026-04-18T08:39:45.999Z</time></trkpt><trkpt lat="37.976525415081746" lon="15.177261302490098"><ele>725.0</ele><time>2026-04-18T08:39:47.999Z</time></trkpt><trkpt lat="37.97659433171227" lon="15.177225899995854"><ele>725.0</ele><time>2026-04-18T08:39:50.999Z</time></trkpt><trkpt lat="37.97662622486176" lon="15.17712457776574"><ele>725.0</ele><time>2026-04-18T08:39:53.999Z</time></trkpt><trkpt lat="37.97668662434225" lon="15.17714758597412"><ele>725.0</ele><time>2026-04-18T08:39:56.999Z</time></trkpt><trkpt lat="37.97676615366489" lon="15.177201849932903"><ele>725.0</ele><time>2026-04-18T08:39:58.999Z</time></trkpt><trkpt lat="37.976846027700276" lon="15.177154181318608"><ele>725.0</ele><time>2026-04-18T08:40:01.999Z</time></trkpt><trkpt lat="37.97691162498526" lon="15.177132806786913"><ele>720.8333333333333</ele><time>2026-04-18T08:40:04.999Z</time></trkpt><trkpt lat="37.97699450730128" lon="15.177139252479869"><ele>716.6666666666666</ele><time>2026-04-18T08:40:10Z</time></trkpt><trkpt lat="37.97705774077764" lon="15.177089048507916"><ele>712.5</ele><time>2026-04-18T08:40:13Z</time></trkpt><trkpt lat="37.97712591389582" lon="15.177034413497562"><ele>708.3333333333334</ele><time>2026-04-18T08:40:16Z</time></trkpt><trkpt lat="37.977201825908345" lon="15.177043011852366"><ele>704.1666666666667</ele><time>2026-04-18T08:40:19Z</time></trkpt><trkpt lat="37.97727023556491" lon="15.177024429377683"><ele>700.0</ele><time>2026-04-18T08:40:21Z</time></trkpt><trkpt lat="37.97735435212192" lon="15.17697192168417"><ele>700.0</ele><time>2026-04-18T08:40:24Z</time></trkpt><trkpt lat="37.97741032582308" lon="15.176919616551736"><ele>700.0</ele><time>2026-04-18T08:40:26Z</time></trkpt><trkpt lat="37.977483970741964" lon="15.176920604080964"><ele>700.0</ele><time>2026-04-18T08:40:28Z</time></trkpt><trkpt lat="37.97755703931097" lon="15.176900721866888"><ele>700.0</ele><time>2026-04-18T08:40:30Z</time></trkpt><trkpt lat="37.97763667775383" lon="15.176828602376688"><ele>700.0</ele><time>2026-04-18T08:40:32Z</time></trkpt><trkpt lat="37.97773027619773" lon="15.176732530073973"><ele>700.0</ele><time>2026-04-18T08:40:34Z</time></trkpt><trkpt lat="37.9777896329632" lon="15.176688531966246"><ele>695.8333333333334</ele><time>2026-04-18T08:40:35Z</time></trkpt><trkpt lat="37.977846173381785" lon="15.176648445385677"><ele>691.6666666666667</ele><time>2026-04-18T08:40:36Z</time></trkpt><trkpt lat="37.977949021724484" lon="15.176633775664145"><ele>687.5</ele><time>2026-04-18T08:40:39Z</time></trkpt><trkpt lat="37.97803449880469" lon="15.176607050614765"><ele>683.3333333333334</ele><time>2026-04-18T08:40:41Z</time></trkpt><trkpt lat="37.97812881714841" lon="15.176558787689526"><ele>679.1666666666666</ele><time>2026-04-18T08:40:43Z</time></trkpt><trkpt lat="37.978208239516796" lon="15.176514935345626"><ele>675.0</ele><time>2026-04-18T08:40:45Z</time></trkpt><trkpt lat="37.978292568634025" lon="15.176466860771422"><ele>664.5</ele><time>2026-04-18T08:40:47Z</time></trkpt><trkpt lat="37.978359166005106" lon="15.17638124414259"><ele>654.0</ele><time>2026-04-18T08:40:49Z</time></trkpt><trkpt lat="37.979829266666535" lon="15.175093093623392"><ele>648.6</ele><time>2026-04-18T08:45:56.999Z</time></trkpt><trkpt lat="37.97991181278694" lon="15.175164112153196"><ele>643.2</ele><time>2026-04-18T08:45:57.999Z</time></trkpt><trkpt lat="37.97999270110963" lon="15.175240359561862"><ele>637.8000000000001</ele><time>2026-04-18T08:45:58.999Z</time></trkpt><trkpt lat="37.980056311066875" lon="15.175343226527149"><ele>632.4000000000001</ele><time>2026-04-18T08:45:59.999Z</time></trkpt><trkpt lat="37.980130305072954" lon="15.17545287417826"><ele>627.0</ele><time>2026-04-18T08:46:00.999Z</time></trkpt><trkpt lat="37.980189684441534" lon="15.175572268417438"><ele>625.25</ele><time>2026-04-18T08:46:01.999Z</time></trkpt><trkpt lat="37.98026920129013" lon="15.175676168973325"><ele>623.5</ele><time>2026-04-18T08:46:02.999Z</time></trkpt><trkpt lat="37.98037913926992" lon="15.175763894148096"><ele>621.75</ele><time>2026-04-18T08:46:03.999Z</time></trkpt><trkpt lat="37.98046159401618" lon="15.175863219939831"><ele>620.0</ele><time>2026-04-18T08:46:04.999Z</time></trkpt><trkpt lat="37.980541229199424" lon="15.17593450050496"><ele>619.6</ele><time>2026-04-18T08:46:05.999Z</time></trkpt><trkpt lat="37.98061191543003" lon="15.175997447649728"><ele>619.2</ele><time>2026-04-18T08:46:06.999Z</time></trkpt><trkpt lat="37.98067481386155" lon="15.176053459641468"><ele>618.8</ele><time>2026-04-18T08:46:07.999Z</time></trkpt><trkpt lat="37.98072940647162" lon="15.176102075176463"><ele>618.4</ele><time>2026-04-18T08:46:08.999Z</time></trkpt><trkpt lat="37.98080637270505" lon="15.176148459682707"><ele>618.0</ele><time>2026-04-18T08:46:10.999Z</time></trkpt><trkpt lat="37.98073932675291" lon="15.176314015128353"><ele>618.0</ele><time>2026-04-18T08:46:16Z</time></trkpt><trkpt lat="37.980694975233504" lon="15.176415312541597"><ele>618.0</ele><time>2026-04-18T08:46:17Z</time></trkpt><trkpt lat="37.980646214138254" lon="15.176509116291811"><ele>618.0</ele><time>2026-04-18T08:46:18Z</time></trkpt><trkpt lat="37.980608345826816" lon="15.17659619255125"><ele>618.0</ele><time>2026-04-18T08:46:19Z</time></trkpt><trkpt lat="37.98058250058576" lon="15.176683331846062"><ele>618.0</ele><time>2026-04-18T08:46:20Z</time></trkpt><trkpt lat="37.98054232030681" lon="15.176782587851404"><ele>618.0</ele><time>2026-04-18T08:46:21Z</time></trkpt><trkpt lat="37.980554016181465" lon="15.176906114910354"><ele>617.8</ele><time>2026-04-18T08:46:22Z</time></trkpt><trkpt lat="37.980563031420374" lon="15.177039621128475"><ele>617.5999999999999</ele><time>2026-04-18T08:46:23Z</time></trkpt><trkpt lat="37.98058723584147" lon="15.177167111807583"><ele>617.4000000000001</ele><time>2026-04-18T08:46:24Z</time></trkpt><trkpt lat="37.980600222793505" lon="15.17728293547781"><ele>617.2</ele><time>2026-04-18T08:46:25Z</time></trkpt><trkpt lat="37.98062351598562" lon="15.17738073938341"><ele>617.0</ele><time>2026-04-18T08:46:26Z</time></trkpt><trkpt lat="37.98066182891199" lon="15.177457295343222"><ele>616.8333333333333</ele><time>2026-04-18T08:46:27Z</time></trkpt><trkpt lat="37.980673611363066" lon="15.17754393207956"><ele>616.6666666666666</ele><time>2026-04-18T08:46:28Z</time></trkpt><trkpt lat="37.98068387911153" lon="15.177631246924316"><ele>616.5</ele><time>2026-04-18T08:46:29Z</time></trkpt><trkpt lat="37.98075160994309" lon="15.177709508012798"><ele>616.3333333333334</ele><time>2026-04-18T08:46:30Z</time></trkpt><trkpt lat="37.980804095467235" lon="15.177804423938042"><ele>616.1666666666667</ele><time>2026-04-18T08:46:31Z</time></trkpt><trkpt lat="37.98085171041224" lon="15.177910946844774"><ele>616.0</ele><time>2026-04-18T08:46:32Z</time></trkpt><trkpt lat="37.98091492964658" lon="15.178027665004171"><ele>615.0</ele><time>2026-04-18T08:46:33Z</time></trkpt><trkpt lat="37.980969306423304" lon="15.178152385085507"><ele>614.0</ele><time>2026-04-18T08:46:34Z</time></trkpt><trkpt lat="37.98102226347763" lon="15.178281904367216"><ele>613.0</ele><time>2026-04-18T08:46:35Z</time></trkpt><trkpt lat="37.981076702176075" lon="15.178391656523813"><ele>612.0</ele><time>2026-04-18T08:46:36Z</time></trkpt><trkpt lat="37.98113199040852" lon="15.178485036088013"><ele>611.0</ele><time>2026-04-18T08:46:37Z</time></trkpt><trkpt lat="37.98117628589426" lon="15.178581691916895"><ele>610.0</ele><time>2026-04-18T08:46:38Z</time></trkpt><trkpt lat="37.98122265053446" lon="15.178669386099843"><ele>609.0</ele><time>2026-04-18T08:46:39Z</time></trkpt><trkpt lat="37.98127125530725" lon="15.178750026967151"><ele>608.0</ele><time>2026-04-18T08:46:40Z</time></trkpt><trkpt lat="37.98132580660253" lon="15.17883164603121"><ele>607.0</ele><time>2026-04-18T08:46:41Z</time></trkpt><trkpt lat="37.98136173297507" lon="15.178933363877988"><ele>606.0</ele><time>2026-04-18T08:46:42Z</time></trkpt><trkpt lat="37.981375198067646" lon="15.179040877201128"><ele>605.0</ele><time>2026-04-18T08:46:43Z</time></trkpt><trkpt lat="37.98137513657428" lon="15.179141392660188"><ele>604.1666666666666</ele><time>2026-04-18T08:46:44Z</time></trkpt><trkpt lat="37.9813673116772" lon="15.179237938915476"><ele>603.3333333333333</ele><time>2026-04-18T08:46:45Z</time></trkpt><trkpt lat="37.98136327043738" lon="15.179345008815565"><ele>602.5</ele><time>2026-04-18T08:46:46Z</time></trkpt><trkpt lat="37.98135562733725" lon="15.179469543353722"><ele>601.6666666666666</ele><time>2026-04-18T08:46:47Z</time></trkpt><trkpt lat="37.981348753523825" lon="15.179592124635814"><ele>600.8333333333334</ele><time>2026-04-18T08:46:48Z</time></trkpt><trkpt lat="37.981348460663" lon="15.179688120910743"><ele>600.0</ele><time>2026-04-18T08:46:49Z</time></trkpt><trkpt lat="37.981374966772044" lon="15.179771395449"><ele>600.0</ele><time>2026-04-18T08:46:50Z</time></trkpt><trkpt lat="37.98141203087505" lon="15.179847464771646"><ele>600.0</ele><time>2026-04-18T08:46:51Z</time></trkpt><trkpt lat="37.98149729050865" lon="15.179864365990257"><ele>600.0</ele><time>2026-04-18T08:46:52Z</time></trkpt><trkpt lat="37.98159442960776" lon="15.179853234597168"><ele>600.0</ele><time>2026-04-18T08:46:53Z</time></trkpt><trkpt lat="37.98171021419533" lon="15.179874466545836"><ele>600.0</ele><time>2026-04-18T08:46:54Z</time></trkpt><trkpt lat="37.98181197801621" lon="15.179898718895434"><ele>598.0</ele><time>2026-04-18T08:46:55Z</time></trkpt><trkpt lat="37.98189845859986" lon="15.179953666326286"><ele>596.0</ele><time>2026-04-18T08:46:56Z</time></trkpt><trkpt lat="37.98198448769789" lon="15.180035422930528"><ele>594.0</ele><time>2026-04-18T08:46:57Z</time></trkpt><trkpt lat="37.982067667780605" lon="15.180120368854539"><ele>592.0</ele><time>2026-04-18T08:46:58Z</time></trkpt><trkpt lat="37.98215290154483" lon="15.180210995753928"><ele>590.0</ele><time>2026-04-18T08:46:59Z</time></trkpt><trkpt lat="37.98223255886961" lon="15.180304454611363"><ele>590.0</ele><time>2026-04-18T08:47:00Z</time></trkpt><trkpt lat="37.98231279715925" lon="15.180381744814964"><ele>590.0</ele><time>2026-04-18T08:47:01Z</time></trkpt><trkpt lat="37.98237780552138" lon="15.180465854840412"><ele>590.0</ele><time>2026-04-18T08:47:02Z</time></trkpt><trkpt lat="37.982434191278955" lon="15.180541856407354"><ele>590.0</ele><time>2026-04-18T08:47:03Z</time></trkpt><trkpt lat="37.98250976219809" lon="15.180597151415872"><ele>590.0</ele><time>2026-04-18T08:47:04Z</time></trkpt><trkpt lat="37.982585959689565" lon="15.180658995188077"><ele>587.2</ele><time>2026-04-18T08:47:04.999Z</time></trkpt><trkpt lat="37.98266092679069" lon="15.180723407410964"><ele>584.4</ele><time>2026-04-18T08:47:05.999Z</time></trkpt><trkpt lat="37.982724430018635" lon="15.180809896870803"><ele>581.6</ele><time>2026-04-18T08:47:06.999Z</time></trkpt><trkpt lat="37.9827981519885" lon="15.180865492715052"><ele>578.8</ele><time>2026-04-18T08:47:07.999Z</time></trkpt><trkpt lat="37.982856352873114" lon="15.180935524517377"><ele>576.0</ele><time>2026-04-18T08:47:08.999Z</time></trkpt><trkpt lat="37.98292752528341" lon="15.18104228023962"><ele>576.0</ele><time>2026-04-18T08:47:10.999Z</time></trkpt><trkpt lat="37.982957384299084" lon="15.181147103158983"><ele>576.0</ele><time>2026-04-18T08:47:12.999Z</time></trkpt><trkpt lat="37.982893949194825" lon="15.181214739844549"><ele>576.0</ele><time>2026-04-18T08:47:14.999Z</time></trkpt><trkpt lat="37.98285945827681" lon="15.181293638844927"><ele>576.0</ele><time>2026-04-18T08:47:16.999Z</time></trkpt><trkpt lat="37.98281009660062" lon="15.181359723346832"><ele>576.0</ele><time>2026-04-18T08:47:18.999Z</time></trkpt><trkpt lat="37.9827719104656" lon="15.181434044399063"><ele>576.0</ele><time>2026-04-18T08:47:20.999Z</time></trkpt><trkpt lat="37.98279423627765" lon="15.181547766975356"><ele>575.0</ele><time>2026-04-18T08:47:37.999Z</time></trkpt><trkpt lat="37.982857136739426" lon="15.181671276230116"><ele>574.0</ele><time>2026-04-18T08:47:39.999Z</time></trkpt><trkpt lat="37.982940258419106" lon="15.181782708239487"><ele>573.0</ele><time>2026-04-18T08:47:41.999Z</time></trkpt><trkpt lat="37.9829959155398" lon="15.18183911081176"><ele>572.0</ele><time>2026-04-18T08:47:42.999Z</time></trkpt><trkpt lat="37.98304769183977" lon="15.181920998106296"><ele>571.0</ele><time>2026-04-18T08:47:43.999Z</time></trkpt><trkpt lat="37.98312302901537" lon="15.181972846478581"><ele>571.0</ele><time>2026-04-18T08:47:44.999Z</time></trkpt><trkpt lat="37.98318212991833" lon="15.182042390144456"><ele>571.0</ele><time>2026-04-18T08:47:45.999Z</time></trkpt><trkpt lat="37.983231567920825" lon="15.182111813845676"><ele>571.0</ele><time>2026-04-18T08:47:46.999Z</time></trkpt><trkpt lat="37.983245748308185" lon="15.182204832496248"><ele>571.0</ele><time>2026-04-18T08:47:47.999Z</time></trkpt><trkpt lat="37.98326403988069" lon="15.182286556281815"><ele>571.0</ele><time>2026-04-18T08:47:48.999Z</time></trkpt><trkpt lat="37.98328677316812" lon="15.182381847427703"><ele>571.0</ele><time>2026-04-18T08:47:49.999Z</time></trkpt><trkpt lat="37.983300278485146" lon="15.182493997386445"><ele>570.6666666666667</ele><time>2026-04-18T08:47:50.999Z</time></trkpt><trkpt lat="37.98331612758756" lon="15.182597502979844"><ele>570.3333333333334</ele><time>2026-04-18T08:47:51.999Z</time></trkpt><trkpt lat="37.98333297705507" lon="15.182701786423461"><ele>570.0</ele><time>2026-04-18T08:47:52.999Z</time></trkpt><trkpt lat="37.983347772636165" lon="15.182811500279858"><ele>569.6666666666666</ele><time>2026-04-18T08:47:53.999Z</time></trkpt><trkpt lat="37.98336047522578" lon="15.18291302407215"><ele>569.3333333333333</ele><time>2026-04-18T08:47:54.999Z</time></trkpt><trkpt lat="37.98340342940009" lon="15.182991320534722"><ele>569.0</ele><time>2026-04-18T08:47:55.999Z</time></trkpt><trkpt lat="37.98345066567742" lon="15.183090262845207"><ele>566.8</ele><time>2026-04-18T08:47:56.999Z</time></trkpt><trkpt lat="37.98352862703139" lon="15.183188683653615"><ele>564.5999999999999</ele><time>2026-04-18T08:47:57.999Z</time></trkpt><trkpt lat="37.983582456552135" lon="15.183283832641514"><ele>562.4</ele><time>2026-04-18T08:47:58.999Z</time></trkpt><trkpt lat="37.98363686871308" lon="15.183357424362141"><ele>560.1999999999999</ele><time>2026-04-18T08:47:59.999Z</time></trkpt><trkpt lat="37.983695511190064" lon="15.183438388188096"><ele>558.0</ele><time>2026-04-18T08:48:00.999Z</time></trkpt><trkpt lat="37.98375861610023" lon="15.183507380444285"><ele>558.0</ele><time>2026-04-18T08:48:01.999Z</time></trkpt><trkpt lat="37.98380806999347" lon="15.18361000899043"><ele>558.0</ele><time>2026-04-18T08:48:02.999Z</time></trkpt><trkpt lat="37.983864811072344" lon="15.183688345438814"><ele>558.0</ele><time>2026-04-18T08:48:03.999Z</time></trkpt><trkpt lat="37.98393525629243" lon="15.183777815443579"><ele>558.0</ele><time>2026-04-18T08:48:04.999Z</time></trkpt><trkpt lat="37.983994004715356" lon="15.183888544878089"><ele>558.0</ele><time>2026-04-18T08:48:05.999Z</time></trkpt><trkpt lat="37.98407090565386" lon="15.183984338798757"><ele>558.8</ele><time>2026-04-18T08:48:06.999Z</time></trkpt><trkpt lat="37.984140493662984" lon="15.184079059584038"><ele>559.5999999999999</ele><time>2026-04-18T08:48:07.999Z</time></trkpt><trkpt lat="37.98420845140025" lon="15.18415986439304"><ele>560.4000000000001</ele><time>2026-04-18T08:48:08.999Z</time></trkpt><trkpt lat="37.98425992988456" lon="15.18426551526443"><ele>561.2</ele><time>2026-04-18T08:48:09.999Z</time></trkpt><trkpt lat="37.9842965968397" lon="15.184390049369508"><ele>562.0</ele><time>2026-04-18T08:48:10.999Z</time></trkpt><trkpt lat="37.98435830337708" lon="15.184504129764298"><ele>560.0</ele><time>2026-04-18T08:48:11.999Z</time></trkpt><trkpt lat="37.984398272893976" lon="15.18463167623421"><ele>558.0</ele><time>2026-04-18T08:48:12.999Z</time></trkpt><trkpt lat="37.98445097142117" lon="15.18474877931825"><ele>556.0</ele><time>2026-04-18T08:48:13.999Z</time></trkpt><trkpt lat="37.98450118734973" lon="15.184866214050638"><ele>554.0</ele><time>2026-04-18T08:48:14.999Z</time></trkpt><trkpt lat="37.98454082942507" lon="15.18498292789463"><ele>552.0</ele><time>2026-04-18T08:48:15.999Z</time></trkpt><trkpt lat="37.98458310721775" lon="15.185090245621542"><ele>552.0</ele><time>2026-04-18T08:48:16.999Z</time></trkpt><trkpt lat="37.98463186233678" lon="15.185200438734933"><ele>552.0</ele><time>2026-04-18T08:48:17.999Z</time></trkpt><trkpt lat="37.98468836693997" lon="15.185315530864345"><ele>552.0</ele><time>2026-04-18T08:48:19Z</time></trkpt><trkpt lat="37.98476399035054" lon="15.1854483486696"><ele>552.0</ele><time>2026-04-18T08:48:20Z</time></trkpt><trkpt lat="37.984847207262746" lon="15.185591301014489"><ele>552.0</ele><time>2026-04-18T08:48:21Z</time></trkpt><trkpt lat="37.9849443537503" lon="15.185720718366591"><ele>552.0</ele><time>2026-04-18T08:48:22Z</time></trkpt><trkpt lat="37.98502836880834" lon="15.185859093767876"><ele>552.0</ele><time>2026-04-18T08:48:23Z</time></trkpt><trkpt lat="37.98510270514048" lon="15.185975380877005"><ele>552.0</ele><time>2026-04-18T08:48:24Z</time></trkpt><trkpt lat="37.98516718593735" lon="15.186083466497433"><ele>550.4</ele><time>2026-04-18T08:48:25Z</time></trkpt><trkpt lat="37.98522710769621" lon="15.186179225236248"><ele>548.8000000000001</ele><time>2026-04-18T08:48:26Z</time></trkpt><trkpt lat="37.98527389006493" lon="15.186251361669273"><ele>547.2</ele><time>2026-04-18T08:48:27Z</time></trkpt><trkpt lat="37.985300230610136" lon="15.186336353975614"><ele>545.6</ele><time>2026-04-18T08:48:29Z</time></trkpt><trkpt lat="37.985392216906924" lon="15.186348911953427"><ele>544.0</ele><time>2026-04-18T08:48:32Z</time></trkpt><trkpt lat="37.98550939425821" lon="15.186336826648594"><ele>544.0</ele><time>2026-04-18T08:48:34Z</time></trkpt><trkpt lat="37.98560534727712" lon="15.186361712071832"><ele>544.0</ele><time>2026-04-18T08:48:36Z</time></trkpt><trkpt lat="37.98568470044003" lon="15.186394925188724"><ele>544.0</ele><time>2026-04-18T08:48:38Z</time></trkpt><trkpt lat="37.985745265978466" lon="15.186426735815708"><ele>544.0</ele><time>2026-04-18T08:48:48Z</time></trkpt><trkpt lat="37.98580670425055" lon="15.186459148055194"><ele>544.0</ele><time>2026-04-18T08:48:51Z</time></trkpt><trkpt lat="37.98598986203778" lon="15.186189668348428"><ele>543.1666666666667</ele><time>2026-04-18T08:48:54Z</time></trkpt><trkpt lat="37.98604428504232" lon="15.186127763870608"><ele>542.3333333333334</ele><time>2026-04-18T08:48:55Z</time></trkpt><trkpt lat="37.98610616625392" lon="15.186062840623698"><ele>541.5</ele><time>2026-04-18T08:48:56Z</time></trkpt><trkpt lat="37.98619795381753" lon="15.185982637510335"><ele>540.6666666666666</ele><time>2026-04-18T08:48:58Z</time></trkpt><trkpt lat="37.9862471369211" lon="15.185925127922777"><ele>539.8333333333333</ele><time>2026-04-18T08:49:00Z</time></trkpt><trkpt lat="37.9862549415925" lon="15.185835501937053"><ele>539.0</ele><time>2026-04-18T08:49:06Z</time></trkpt><trkpt lat="37.98631696095086" lon="15.185740736471764"><ele>539.0</ele><time>2026-04-18T08:49:09Z</time></trkpt><trkpt lat="37.986392446304315" lon="15.18572329208049"><ele>539.0</ele><time>2026-04-18T08:49:12Z</time></trkpt><trkpt lat="37.986486938540914" lon="15.185804944488881"><ele>539.0</ele><time>2026-04-18T08:49:14Z</time></trkpt><trkpt lat="37.986565004493904" lon="15.185866890853408"><ele>539.0</ele><time>2026-04-18T08:49:14.999Z</time></trkpt><trkpt lat="37.98663133029374" lon="15.185907967752918"><ele>539.0</ele><time>2026-04-18T08:49:15.999Z</time></trkpt><trkpt lat="37.98670155980169" lon="15.185925215190023"><ele>539.0</ele><time>2026-04-18T08:49:16.999Z</time></trkpt><trkpt lat="37.986805489766816" lon="15.185984443709426"><ele>538.4</ele><time>2026-04-18T08:49:18.999Z</time></trkpt><trkpt lat="37.98690855746934" lon="15.185994519818845"><ele>537.8</ele><time>2026-04-18T08:49:20.999Z</time></trkpt><trkpt lat="37.986989789543856" lon="15.18602882145485"><ele>537.2</ele><time>2026-04-18T08:49:22.999Z</time></trkpt><trkpt lat="37.98706027912065" lon="15.186065857076096"><ele>536.6</ele><time>2026-04-18T08:49:24.999Z</time></trkpt><trkpt lat="37.987145564958816" lon="15.186108252620809"><ele>536.0</ele><time>2026-04-18T08:49:26.999Z</time></trkpt><trkpt lat="37.98723363520594" lon="15.186161664144372"><ele>536.0</ele><time>2026-04-18T08:49:28.999Z</time></trkpt><trkpt lat="37.98732060840749" lon="15.186172951901828"><ele>536.0</ele><time>2026-04-18T08:49:30.999Z</time></trkpt><trkpt lat="37.98740600702075" lon="15.186152404933898"><ele>536.0</ele><time>2026-04-18T08:49:33.999Z</time></trkpt><trkpt lat="37.987495551453414" lon="15.186119620743568"><ele>536.0</ele><time>2026-04-18T08:49:35.999Z</time></trkpt><trkpt lat="37.987577278182194" lon="15.186125823643309"><ele>536.0</ele><time>2026-04-18T08:49:37.999Z</time></trkpt><trkpt lat="37.98767929246939" lon="15.186123001593103"><ele>535.3333333333333</ele><time>2026-04-18T08:49:39.999Z</time></trkpt><trkpt lat="37.98778686781637" lon="15.186103498266476"><ele>534.6666666666666</ele><time>2026-04-18T08:49:41.999Z</time></trkpt><trkpt lat="37.98784562457426" lon="15.186049324739658"><ele>534.0</ele><time>2026-04-18T08:49:43.999Z</time></trkpt><trkpt lat="37.98790978597667" lon="15.186006616135318"><ele>533.3333333333334</ele><time>2026-04-18T08:49:58.999Z</time></trkpt><trkpt lat="37.9879837867706" lon="15.185977087194171"><ele>532.6666666666667</ele><time>2026-04-18T08:50:01.999Z</time></trkpt><trkpt lat="37.988057968834376" lon="15.18594926494708"><ele>532.0</ele><time>2026-04-18T08:50:03.999Z</time></trkpt><trkpt lat="37.988121225571646" lon="15.185945473235956"><ele>532.0</ele><time>2026-04-18T08:50:04.999Z</time></trkpt><trkpt lat="37.98820483760765" lon="15.1859605680885"><ele>532.0</ele><time>2026-04-18T08:50:06.999Z</time></trkpt><trkpt lat="37.98826649053686" lon="15.185999350367261"><ele>532.0</ele><time>2026-04-18T08:50:55Z</time></trkpt><trkpt lat="37.988340705762624" lon="15.186011392359774"><ele>532.0</ele><time>2026-04-18T08:50:58Z</time></trkpt><trkpt lat="37.98842586753382" lon="15.186065225873671"><ele>532.0</ele><time>2026-04-18T08:51:33.999Z</time></trkpt><trkpt lat="37.988459606371485" lon="15.185970483868031"><ele>532.0</ele><time>2026-04-18T08:51:37.999Z</time></trkpt><trkpt lat="37.98845284036571" lon="15.185881483054656"><ele>532.0</ele><time>2026-04-18T08:51:39.999Z</time></trkpt><trkpt lat="37.98838809641652" lon="15.185899957942988"><ele>532.0</ele><time>2026-04-18T08:53:01Z</time></trkpt><trkpt lat="37.98832053768138" lon="15.185931486522746"><ele>532.0</ele><time>2026-04-18T08:53:04Z</time></trkpt><trkpt lat="37.98832258710957" lon="15.18601485000189"><ele>532.0</ele><time>2026-04-18T08:53:07Z</time></trkpt><trkpt lat="37.98838133313414" lon="15.186069092587031"><ele>532.0</ele><time>2026-04-18T08:53:10Z</time></trkpt><trkpt lat="37.988453812956905" lon="15.186050279451324"><ele>532.0</ele><time>2026-04-18T08:53:14Z</time></trkpt><trkpt lat="37.98845812144613" lon="15.185939124698425"><ele>532.0</ele><time>2026-04-18T08:53:39Z</time></trkpt><trkpt lat="37.988441568817336" lon="15.185841065265773"><ele>531.0</ele><time>2026-04-18T08:53:41Z</time></trkpt><trkpt lat="37.988501916588056" lon="15.185811684592682"><ele>530.0</ele><time>2026-04-18T08:54:01.999Z</time></trkpt><trkpt lat="37.98861463843491" lon="15.185840908895624"><ele>529.0</ele><time>2026-04-18T08:54:03.999Z</time></trkpt><trkpt lat="37.988690547078065" lon="15.185864926756308"><ele>528.0</ele><time>2026-04-18T08:54:04.999Z</time></trkpt><trkpt lat="37.988723152669955" lon="15.185708813060694"><ele>527.0</ele><time>2026-04-18T08:54:05.999Z</time></trkpt><trkpt lat="37.98882144561521" lon="15.185694194163734"><ele>523.0</ele><time>2026-04-18T08:54:07.999Z</time></trkpt><trkpt lat="37.9889133100638" lon="15.18567842246838"><ele>519.0</ele><time>2026-04-18T08:54:10.999Z</time></trkpt><trkpt lat="37.98932806572983" lon="15.186061696217656"><ele>519.0</ele><time>2026-04-18T08:55:05Z</time></trkpt><trkpt lat="37.989426079801454" lon="15.18601968256934"><ele>519.0</ele><time>2026-04-18T08:55:52Z</time></trkpt><trkpt lat="37.98949166239348" lon="15.185990112735764"><ele>519.0</ele><time>2026-04-18T08:55:53Z</time></trkpt><trkpt lat="37.989603458842375" lon="15.185936204906344"><ele>519.0</ele><time>2026-04-18T08:55:55Z</time></trkpt><trkpt lat="37.98967419420077" lon="15.185903804775394"><ele>519.0</ele><time>2026-04-18T08:55:57Z</time></trkpt><trkpt lat="37.989747533419234" lon="15.18584446435575"><ele>519.0</ele><time>2026-04-18T08:56:00Z</time></trkpt><trkpt lat="37.98981654304931" lon="15.185835531689287"><ele>519.0</ele><time>2026-04-18T08:56:04Z</time></trkpt><trkpt lat="37.989892339397464" lon="15.18585670423822"><ele>519.0</ele><time>2026-04-18T08:56:07Z</time></trkpt><trkpt lat="37.98997919099829" lon="15.185876182951707"><ele>519.0</ele><time>2026-04-18T08:56:09.999Z</time></trkpt><trkpt lat="37.9900627479945" lon="15.185924266442653"><ele>519.0</ele><time>2026-04-18T08:56:11.999Z</time></trkpt><trkpt lat="37.99015257880285" lon="15.185962365676689"><ele>519.0</ele><time>2026-04-18T08:56:13.999Z</time></trkpt><trkpt lat="37.99022351800543" lon="15.185947293056332"><ele>518.0</ele><time>2026-04-18T08:56:16.999Z</time></trkpt><trkpt lat="37.9903094866773" lon="15.185920150493478"><ele>517.0</ele><time>2026-04-18T08:56:19.999Z</time></trkpt><trkpt lat="37.990384135720404" lon="15.185938439821859"><ele>516.0</ele><time>2026-04-18T08:56:21.999Z</time></trkpt><trkpt lat="37.99045662310189" lon="15.18594653911413"><ele>515.0</ele><time>2026-04-18T08:56:24.999Z</time></trkpt><trkpt lat="37.99053750373098" lon="15.185985574781634"><ele>514.0</ele><time>2026-04-18T08:56:27.999Z</time></trkpt><trkpt lat="37.99060017503558" lon="15.186006224525041"><ele>513.0</ele><time>2026-04-18T08:56:29.999Z</time></trkpt><trkpt lat="37.99066585412791" lon="15.186041975158915"><ele>513.0</ele><time>2026-04-18T08:56:31.999Z</time></trkpt><trkpt lat="37.99073403926386" lon="15.186015197335571"><ele>513.0</ele><time>2026-04-18T08:56:34.999Z</time></trkpt><trkpt lat="37.990770659809606" lon="15.185944958395524"><ele>513.0</ele><time>2026-04-18T08:56:37.999Z</time></trkpt><trkpt lat="37.99082119923186" lon="15.185829486322664"><ele>513.0</ele><time>2026-04-18T08:56:40.999Z</time></trkpt><trkpt lat="37.99087657493557" lon="15.185749539927942"><ele>513.0</ele><time>2026-04-18T08:56:43Z</time></trkpt><trkpt lat="37.990938385850896" lon="15.185669990464758"><ele>513.0</ele><time>2026-04-18T08:56:46Z</time></trkpt><trkpt lat="37.99100871885173" lon="15.185632991171435"><ele>513.0</ele><time>2026-04-18T08:56:48Z</time></trkpt><trkpt lat="37.991088091758996" lon="15.185630536625359"><ele>513.0</ele><time>2026-04-18T08:56:50Z</time></trkpt><trkpt lat="37.9911520459889" lon="15.185630651893803"><ele>513.0</ele><time>2026-04-18T08:56:51Z</time></trkpt><trkpt lat="37.99121496109623" lon="15.185637338063746"><ele>513.0</ele><time>2026-04-18T08:56:52Z</time></trkpt><trkpt lat="37.99128112136276" lon="15.18565117698334"><ele>513.0</ele><time>2026-04-18T08:56:53Z</time></trkpt><trkpt lat="37.991400571038575" lon="15.18569581013309"><ele>513.0</ele><time>2026-04-18T08:56:55Z</time></trkpt><trkpt lat="37.99146531090005" lon="15.185719254579789"><ele>512.8333333333334</ele><time>2026-04-18T08:56:56Z</time></trkpt><trkpt lat="37.99153077243569" lon="15.185744950591321"><ele>512.6666666666666</ele><time>2026-04-18T08:56:57Z</time></trkpt><trkpt lat="37.991589007301414" lon="15.18577709964403"><ele>512.5</ele><time>2026-04-18T08:56:58Z</time></trkpt><trkpt lat="37.99167082543522" lon="15.185830596189927"><ele>512.3333333333333</ele><time>2026-04-18T08:56:59.999Z</time></trkpt><trkpt lat="37.991761876531015" lon="15.185812415185943"><ele>512.1666666666666</ele><time>2026-04-18T08:57:01.999Z</time></trkpt><trkpt lat="37.99187787522216" lon="15.18578017664446"><ele>512.0</ele><time>2026-04-18T08:57:03.999Z</time></trkpt><trkpt lat="37.99194692191965" lon="15.185767268182582"><ele>511.3333333333333</ele><time>2026-04-18T08:57:04.999Z</time></trkpt><trkpt lat="37.99202238148527" lon="15.18575293422003"><ele>510.66666666666663</ele><time>2026-04-18T08:57:05.999Z</time></trkpt><trkpt lat="37.992137553796454" lon="15.185742294074714"><ele>510.0</ele><time>2026-04-18T08:57:07.998Z</time></trkpt><trkpt lat="37.99220166574707" lon="15.185749737728202"><ele>509.33333333333337</ele><time>2026-04-18T08:57:08.998Z</time></trkpt><trkpt lat="37.992265535741865" lon="15.185757151022583"><ele>508.6666666666667</ele><time>2026-04-18T08:57:09.998Z</time></trkpt><trkpt lat="37.99234113550725" lon="15.185765928767376"><ele>508.0</ele><time>2026-04-18T08:57:10.998Z</time></trkpt><trkpt lat="37.992403211119274" lon="15.185779267397576"><ele>508.00000000000006</ele><time>2026-04-18T08:57:11.998Z</time></trkpt><trkpt lat="37.992492943930834" lon="15.185810706579137"><ele>508.0</ele><time>2026-04-18T08:57:13.998Z</time></trkpt><trkpt lat="37.992572717108324" lon="15.185864480424177"><ele>508.0</ele><time>2026-04-18T08:57:15.998Z</time></trkpt><trkpt lat="37.992655605756354" lon="15.18589284679077"><ele>508.0</ele><time>2026-04-18T08:57:17.998Z</time></trkpt><trkpt lat="37.992710385618324" lon="15.185939019254313"><ele>508.00000000000006</ele><time>2026-04-18T08:57:19.998Z</time></trkpt><trkpt lat="37.99278970600066" lon="15.185997345023775"><ele>508.0</ele><time>2026-04-18T08:57:22.997Z</time></trkpt><trkpt lat="37.99287383572992" lon="15.18602068680574"><ele>509.6666666666667</ele><time>2026-04-18T08:57:25.997Z</time></trkpt><trkpt lat="37.992934747933404" lon="15.18607167718006"><ele>511.33333333333337</ele><time>2026-04-18T08:57:27.997Z</time></trkpt><trkpt lat="37.993009898855156" lon="15.186134417879863"><ele>513.0</ele><time>2026-04-18T08:57:29.997Z</time></trkpt><trkpt lat="37.99309665008947" lon="15.186175338683817"><ele>514.6666666666666</ele><time>2026-04-18T08:57:31.997Z</time></trkpt><trkpt lat="37.993157121258655" lon="15.186212455024522"><ele>516.3333333333333</ele><time>2026-04-18T08:57:33.997Z</time></trkpt><trkpt lat="37.993228769368216" lon="15.186252502491717"><ele>518.0</ele><time>2026-04-18T08:57:35.997Z</time></trkpt><trkpt lat="37.99328483026332" lon="15.186346622511468"><ele>519.6666666666666</ele><time>2026-04-18T08:57:38.997Z</time></trkpt><trkpt lat="37.9933532031452" lon="15.186419020327882"><ele>521.3333333333333</ele><time>2026-04-18T08:57:40.997Z</time></trkpt><trkpt lat="37.99341233409675" lon="15.18647662027804"><ele>523.0</ele><time>2026-04-18T08:57:42.997Z</time></trkpt><trkpt lat="37.99346777648554" lon="15.18653954180954"><ele>524.6666666666666</ele><time>2026-04-18T08:57:44.997Z</time></trkpt><trkpt lat="37.99353601314272" lon="15.186557991244387"><ele>526.3333333333334</ele><time>2026-04-18T08:57:46.997Z</time></trkpt><trkpt lat="37.99359901158519" lon="15.186614084647488"><ele>528.0</ele><time>2026-04-18T08:57:48.997Z</time></trkpt><trkpt lat="37.993687569625365" lon="15.186683591774962"><ele>523.6666666666666</ele><time>2026-04-18T08:57:50.997Z</time></trkpt><trkpt lat="37.99376123698276" lon="15.186726702486759"><ele>519.3333333333334</ele><time>2026-04-18T08:57:52.997Z</time></trkpt><trkpt lat="37.99382424464815" lon="15.186777594404338"><ele>515.0</ele><time>2026-04-18T08:57:55.997Z</time></trkpt><trkpt lat="37.9939129815201" lon="15.186811907849025"><ele>510.6666666666667</ele><time>2026-04-18T08:58:22.996Z</time></trkpt><trkpt lat="37.99397743937208" lon="15.18683543459257"><ele>506.33333333333337</ele><time>2026-04-18T08:58:26.995Z</time></trkpt><trkpt lat="37.99401089712984" lon="15.18691150532425"><ele>502.0</ele><time>2026-04-18T08:58:28.995Z</time></trkpt><trkpt lat="37.9940706619353" lon="15.186997374043061"><ele>502.0</ele><time>2026-04-18T08:58:30.995Z</time></trkpt><trkpt lat="37.99416017170281" lon="15.187114102495451"><ele>502.00000000000006</ele><time>2026-04-18T08:58:32.995Z</time></trkpt><trkpt lat="37.9942273337732" lon="15.187223092629536"><ele>502.00000000000006</ele><time>2026-04-18T08:58:34.995Z</time></trkpt><trkpt lat="37.99428328733042" lon="15.187324966231019"><ele>502.0</ele><time>2026-04-18T08:58:36.995Z</time></trkpt><trkpt lat="37.994370367094746" lon="15.187417599018143"><ele>502.0</ele><time>2026-04-18T08:58:38.995Z</time></trkpt><trkpt lat="37.99443323655154" lon="15.187457607884499"><ele>501.40000000000003</ele><time>2026-04-18T08:58:40.995Z</time></trkpt><trkpt lat="37.99449249020006" lon="15.187532790922656"><ele>500.80000000000007</ele><time>2026-04-18T08:58:43.995Z</time></trkpt><trkpt lat="37.994580920036434" lon="15.187641163396691"><ele>500.2</ele><time>2026-04-18T08:58:45.995Z</time></trkpt><trkpt lat="37.99467765809774" lon="15.187717231690513"><ele>499.6</ele><time>2026-04-18T08:58:47.996Z</time></trkpt><trkpt lat="37.994736853502594" lon="15.187747002775048"><ele>499.0</ele><time>2026-04-18T08:58:48.996Z</time></trkpt><trkpt lat="37.99480115817573" lon="15.18777373323689"><ele>499.00000000000006</ele><time>2026-04-18T08:58:49.996Z</time></trkpt><trkpt lat="37.99487238928097" lon="15.187802871575283"><ele>499.0</ele><time>2026-04-18T08:58:50.996Z</time></trkpt><trkpt lat="37.994943004079374" lon="15.18784072048891"><ele>499.0</ele><time>2026-04-18T08:58:51.996Z</time></trkpt><trkpt lat="37.995011172999334" lon="15.187876254309915"><ele>499.0</ele><time>2026-04-18T08:58:52.997Z</time></trkpt><trkpt lat="37.99507097173075" lon="15.187905106537182"><ele>499.00000000000006</ele><time>2026-04-18T08:58:53.997Z</time></trkpt><trkpt lat="37.99513207513072" lon="15.187938129354986"><ele>499.0</ele><time>2026-04-18T08:58:54.997Z</time></trkpt><trkpt lat="37.99525092212863" lon="15.18800239796433"><ele>498.83333333333337</ele><time>2026-04-18T08:58:56.997Z</time></trkpt><trkpt lat="37.99531889359662" lon="15.188030415707498"><ele>498.6666666666667</ele><time>2026-04-18T08:58:57.997Z</time></trkpt><trkpt lat="37.995387615585315" lon="15.188049064511063"><ele>498.5</ele><time>2026-04-18T08:58:58.997Z</time></trkpt><trkpt lat="37.99546625521058" lon="15.188069952537875"><ele>498.33333333333337</ele><time>2026-04-18T08:58:59.998Z</time></trkpt><trkpt lat="37.99554459068677" lon="15.188119173070543"><ele>498.1666666666667</ele><time>2026-04-18T08:59:01.998Z</time></trkpt><trkpt lat="37.99560938588876" lon="15.188163828722196"><ele>498.0</ele><time>2026-04-18T08:59:03.998Z</time></trkpt><trkpt lat="37.99566063831586" lon="15.18822933583532"><ele>497.1666666666667</ele><time>2026-04-18T08:59:06.998Z</time></trkpt><trkpt lat="37.995753333227476" lon="15.18824971702678"><ele>496.33333333333337</ele><time>2026-04-18T08:59:10.998Z</time></trkpt><trkpt lat="37.99583129709982" lon="15.188320360989364"><ele>495.5</ele><time>2026-04-18T08:59:13.999Z</time></trkpt><trkpt lat="37.99588699868804" lon="15.188365890407795"><ele>494.6666666666667</ele><time>2026-04-18T08:59:15.999Z</time></trkpt><trkpt lat="37.99595005876539" lon="15.188416174037037"><ele>493.83333333333337</ele><time>2026-04-18T08:59:17.999Z</time></trkpt><trkpt lat="37.99602157078371" lon="15.18845700209406"><ele>493.0</ele><time>2026-04-18T08:59:19.999Z</time></trkpt><trkpt lat="37.99610347283339" lon="15.18850745777873"><ele>493.00000000000006</ele><time>2026-04-18T08:59:21.999Z</time></trkpt><trkpt lat="37.99617382543473" lon="15.188556305663768"><ele>493.0</ele><time>2026-04-18T08:59:23.999Z</time></trkpt><trkpt lat="37.99623914719528" lon="15.188586885325277"><ele>493.0</ele><time>2026-04-18T08:59:26.999Z</time></trkpt><trkpt lat="37.99631644770745" lon="15.188621129755543"><ele>493.0</ele><time>2026-04-18T08:59:31.999Z</time></trkpt><trkpt lat="37.99637881889139" lon="15.188643078330509"><ele>493.00000000000006</ele><time>2026-04-18T08:59:36.999Z</time></trkpt><trkpt lat="37.9964506380754" lon="15.188706795151445"><ele>493.0</ele><time>2026-04-18T08:59:45.999Z</time></trkpt><trkpt lat="37.99651783152264" lon="15.188701027591836"><ele>493.00000000000006</ele><time>2026-04-18T08:59:48.999Z</time></trkpt><trkpt lat="37.99658297206365" lon="15.188716246966502"><ele>493.0</ele><time>2026-04-18T08:59:52.999Z</time></trkpt><trkpt lat="37.99665344296138" lon="15.188699051575593"><ele>493.0</ele><time>2026-04-18T08:59:56.999Z</time></trkpt><trkpt lat="37.99674887221203" lon="15.188692384714843"><ele>493.0</ele><time>2026-04-18T08:59:58.999Z</time></trkpt><trkpt lat="37.99679072503805" lon="15.188630174806306"><ele>493.00000000000006</ele><time>2026-04-18T09:00:01.999Z</time></trkpt><trkpt lat="37.99684375111527" lon="15.188537400332706"><ele>493.0</ele><time>2026-04-18T09:00:03.999Z</time></trkpt><trkpt lat="37.996936317522106" lon="15.188450504373831"><ele>492.33333333333337</ele><time>2026-04-18T09:00:05.999Z</time></trkpt><trkpt lat="37.99704788483836" lon="15.1884274090099"><ele>491.6666666666667</ele><time>2026-04-18T09:00:07.999Z</time></trkpt><trkpt lat="37.99713491144282" lon="15.188412928462556"><ele>491.0</ele><time>2026-04-18T09:00:08.999Z</time></trkpt><trkpt lat="37.99721712787234" lon="15.188405118988346"><ele>490.33333333333337</ele><time>2026-04-18T09:00:09.999Z</time></trkpt><trkpt lat="37.997296490903054" lon="15.188400129134397"><ele>489.6666666666667</ele><time>2026-04-18T09:00:10.999Z</time></trkpt><trkpt lat="37.997363077472066" lon="15.188394517779631"><ele>489.0</ele><time>2026-04-18T09:00:11.999Z</time></trkpt><trkpt lat="37.99743155259375" lon="15.188386493957601"><ele>488.6666666666667</ele><time>2026-04-18T09:00:12.999Z</time></trkpt><trkpt lat="37.99754790026546" lon="15.188376432138174"><ele>488.33333333333337</ele><time>2026-04-18T09:00:14.999Z</time></trkpt><trkpt lat="37.9976666326481" lon="15.188360031867091"><ele>488.0</ele><time>2026-04-18T09:00:16.999Z</time></trkpt><trkpt lat="37.99772851757888" lon="15.188375952697863"><ele>487.6666666666667</ele><time>2026-04-18T09:00:17.999Z</time></trkpt><trkpt lat="37.99779028664103" lon="15.188402370898732"><ele>487.33333333333337</ele><time>2026-04-18T09:00:18.999Z</time></trkpt><trkpt lat="37.997849921866255" lon="15.18843062170338"><ele>487.0</ele><time>2026-04-18T09:00:19.999Z</time></trkpt><trkpt lat="37.99791433087087" lon="15.188453444301867"><ele>487.0</ele><time>2026-04-18T09:00:20.999Z</time></trkpt><trkpt lat="37.998041448194265" lon="15.188504190281932"><ele>487.00000000000006</ele><time>2026-04-18T09:00:22.999Z</time></trkpt><trkpt lat="37.998114936740215" lon="15.188543703109199"><ele>487.00000000000006</ele><time>2026-04-18T09:00:23.999Z</time></trkpt><trkpt lat="37.99819248890624" lon="15.188593172833361"><ele>487.0</ele><time>2026-04-18T09:00:24.999Z</time></trkpt><trkpt lat="37.9982639503255" lon="15.188638893125571"><ele>487.0</ele><time>2026-04-18T09:00:25.999Z</time></trkpt><trkpt lat="37.99834444115593" lon="15.188678548254758"><ele>487.6</ele><time>2026-04-18T09:00:26.999Z</time></trkpt><trkpt lat="37.998432298169334" lon="15.188713209151587"><ele>488.20000000000005</ele><time>2026-04-18T09:00:27.999Z</time></trkpt><trkpt lat="37.99852829809321" lon="15.188762392352542"><ele>488.8</ele><time>2026-04-18T09:00:28.999Z</time></trkpt><trkpt lat="37.998624175118266" lon="15.18880786245526"><ele>489.4</ele><time>2026-04-18T09:00:29.999Z</time></trkpt><trkpt lat="37.99871034583994" lon="15.188848743968586"><ele>490.0</ele><time>2026-04-18T09:00:30.999Z</time></trkpt><trkpt lat="37.99878413607703" lon="15.188887992694838"><ele>490.0</ele><time>2026-04-18T09:00:31.999Z</time></trkpt><trkpt lat="37.998851655070055" lon="15.188921365977807"><ele>490.0</ele><time>2026-04-18T09:00:32.999Z</time></trkpt><trkpt lat="37.998967626428346" lon="15.188942394835784"><ele>490.0</ele><time>2026-04-18T09:00:34.999Z</time></trkpt><trkpt lat="37.99903379772078" lon="15.188932263733339"><ele>490.0</ele><time>2026-04-18T09:00:35.999Z</time></trkpt><trkpt lat="37.99916183278953" lon="15.188922939724703"><ele>490.0</ele><time>2026-04-18T09:00:37.999Z</time></trkpt><trkpt lat="37.99922946918188" lon="15.188919037756133"><ele>489.2</ele><time>2026-04-18T09:00:38.999Z</time></trkpt><trkpt lat="37.99933958977157" lon="15.188910840056625"><ele>488.4</ele><time>2026-04-18T09:00:39.999Z</time></trkpt><trkpt lat="37.999468573174866" lon="15.188911229739368"><ele>487.6</ele><time>2026-04-18T09:00:40.999Z</time></trkpt><trkpt lat="37.99955917480401" lon="15.188902389282008"><ele>486.8</ele><time>2026-04-18T09:00:41.999Z</time></trkpt><trkpt lat="37.99965725159478" lon="15.188901269488502"><ele>486.0</ele><time>2026-04-18T09:00:42.999Z</time></trkpt><trkpt lat="37.999759146959974" lon="15.188883236412948"><ele>486.0</ele><time>2026-04-18T09:00:43.999Z</time></trkpt><trkpt lat="37.99986210615478" lon="15.188866448250222"><ele>486.0</ele><time>2026-04-18T09:00:44.999Z</time></trkpt><trkpt lat="37.99996800061073" lon="15.188861376713353"><ele>486.0</ele><time>2026-04-18T09:00:45.999Z</time></trkpt><trkpt lat="38.0000580239191" lon="15.188860652307847"><ele>486.0</ele><time>2026-04-18T09:00:46.999Z</time></trkpt><trkpt lat="38.00015646021849" lon="15.188857232641551"><ele>486.0</ele><time>2026-04-18T09:00:47.999Z</time></trkpt><trkpt lat="38.00026107397695" lon="15.188856231801646"><ele>486.0</ele><time>2026-04-18T09:00:48.999Z</time></trkpt><trkpt lat="38.000384597816904" lon="15.188862591432859"><ele>486.0</ele><time>2026-04-18T09:00:49.999Z</time></trkpt><trkpt lat="38.0005050240923" lon="15.188862222066872"><ele>486.0</ele><time>2026-04-18T09:00:50.999Z</time></trkpt><trkpt lat="38.00061200315742" lon="15.188873232279146"><ele>486.0</ele><time>2026-04-18T09:00:51.999Z</time></trkpt><trkpt lat="38.000706884887094" lon="15.188898564353506"><ele>486.0</ele><time>2026-04-18T09:00:52.999Z</time></trkpt><trkpt lat="38.0007910453811" lon="15.188914713198256"><ele>486.8333333333333</ele><time>2026-04-18T09:00:53.999Z</time></trkpt><trkpt lat="38.00087372826084" lon="15.188946981945262"><ele>487.66666666666663</ele><time>2026-04-18T09:00:54.999Z</time></trkpt><trkpt lat="38.00094445918613" lon="15.188994127225362"><ele>488.5</ele><time>2026-04-18T09:00:55.999Z</time></trkpt><trkpt lat="38.00102749557589" lon="15.189056327832867"><ele>489.3333333333333</ele><time>2026-04-18T09:00:56.999Z</time></trkpt><trkpt lat="38.001105855974146" lon="15.189110623180998"><ele>490.16666666666663</ele><time>2026-04-18T09:00:57.999Z</time></trkpt><trkpt lat="38.001192038278944" lon="15.189163343603326"><ele>491.0</ele><time>2026-04-18T09:00:58.999Z</time></trkpt><trkpt lat="38.0012788089135" lon="15.18920878947335"><ele>487.8</ele><time>2026-04-18T09:00:59.999Z</time></trkpt><trkpt lat="38.001358957014254" lon="15.189250774010025"><ele>484.6</ele><time>2026-04-18T09:01:00.999Z</time></trkpt><trkpt lat="38.00144683529596" lon="15.189292670437174"><ele>481.4</ele><time>2026-04-18T09:01:01.999Z</time></trkpt><trkpt lat="38.001538478543104" lon="15.189338503012996"><ele>478.2</ele><time>2026-04-18T09:01:02.999Z</time></trkpt><trkpt lat="38.00163514593127" lon="15.189402954242212"><ele>475.0</ele><time>2026-04-18T09:01:03.999Z</time></trkpt><trkpt lat="38.00172346831409" lon="15.189474374396529"><ele>474.6</ele><time>2026-04-18T09:01:04.999Z</time></trkpt><trkpt lat="38.00180704767154" lon="15.18955140546765"><ele>474.2</ele><time>2026-04-18T09:01:05.999Z</time></trkpt><trkpt lat="38.00190092279871" lon="15.189641962189697"><ele>473.79999999999995</ele><time>2026-04-18T09:01:06.999Z</time></trkpt><trkpt lat="38.00198023751379" lon="15.189714846853445"><ele>473.4</ele><time>2026-04-18T09:01:07.999Z</time></trkpt><trkpt lat="38.00207222953421" lon="15.189805472137289"><ele>473.0</ele><time>2026-04-18T09:01:08.999Z</time></trkpt><trkpt lat="38.00216080326828" lon="15.189890174337965"><ele>472.75</ele><time>2026-04-18T09:01:09.999Z</time></trkpt><trkpt lat="38.00225796018052" lon="15.189976761137663"><ele>472.5</ele><time>2026-04-18T09:01:10.999Z</time></trkpt><trkpt lat="38.00236480442581" lon="15.190067287397698"><ele>472.25</ele><time>2026-04-18T09:01:11.999Z</time></trkpt><trkpt lat="38.00246328996542" lon="15.190150925152375"><ele>472.0</ele><time>2026-04-18T09:01:12.999Z</time></trkpt><trkpt lat="38.00256986579033" lon="15.190243050985526"><ele>471.5</ele><time>2026-04-18T09:01:13.999Z</time></trkpt><trkpt lat="38.002670560836" lon="15.190327116395526"><ele>471.0</ele><time>2026-04-18T09:01:14.999Z</time></trkpt><trkpt lat="38.00277193223209" lon="15.19040913627459"><ele>470.5</ele><time>2026-04-18T09:01:15.999Z</time></trkpt><trkpt lat="38.00294435361356" lon="15.190326838821194"><ele>470.0</ele><time>2026-04-18T09:01:16.999Z</time></trkpt><trkpt lat="38.00301858644713" lon="15.190388120214402"><ele>469.99999999999994</ele><time>2026-04-18T09:01:17.999Z</time></trkpt><trkpt lat="38.00307769724521" lon="15.190428425767136"><ele>470.0</ele><time>2026-04-18T09:01:18.999Z</time></trkpt><trkpt lat="38.00314547890028" lon="15.190469755869373"><ele>470.0</ele><time>2026-04-18T09:01:19.999Z</time></trkpt><trkpt lat="38.00323224477243" lon="15.190520350876481"><ele>470.0</ele><time>2026-04-18T09:01:20.999Z</time></trkpt><trkpt lat="38.00331877193664" lon="15.190570806627477"><ele>469.99999999999994</ele><time>2026-04-18T09:01:21.999Z</time></trkpt><trkpt lat="38.00340807380796" lon="15.190621029092375"><ele>470.0</ele><time>2026-04-18T09:01:22.999Z</time></trkpt><trkpt lat="38.00350524741624" lon="15.190674637030657"><ele>468.6</ele><time>2026-04-18T09:01:23.999Z</time></trkpt><trkpt lat="38.003606486661035" lon="15.190729110645194"><ele>467.2</ele><time>2026-04-18T09:01:24.999Z</time></trkpt><trkpt lat="38.00370763826621" lon="15.190782659943281"><ele>465.79999999999995</ele><time>2026-04-18T09:01:25.999Z</time></trkpt><trkpt lat="38.00379948326367" lon="15.190831282454653"><ele>464.4</ele><time>2026-04-18T09:01:26.999Z</time></trkpt><trkpt lat="38.00388613053741" lon="15.19087715317231"><ele>463.0</ele><time>2026-04-18T09:01:27.999Z</time></trkpt><trkpt lat="38.0039831039131" lon="15.190929249043524"><ele>463.00000000000006</ele><time>2026-04-18T09:01:28.999Z</time></trkpt><trkpt lat="38.00407171938246" lon="15.19097749248307"><ele>463.0</ele><time>2026-04-18T09:01:29.999Z</time></trkpt><trkpt lat="38.00415987875126" lon="15.191025487707787"><ele>463.0</ele><time>2026-04-18T09:01:30.999Z</time></trkpt><trkpt lat="38.00423463587488" lon="15.191066186525804"><ele>463.0</ele><time>2026-04-18T09:01:31.999Z</time></trkpt><trkpt lat="38.00430461286087" lon="15.191104282918603"><ele>463.00000000000006</ele><time>2026-04-18T09:01:32.999Z</time></trkpt><trkpt lat="38.00436406253618" lon="15.19113664817416"><ele>463.0</ele><time>2026-04-18T09:01:33.999Z</time></trkpt><trkpt lat="38.00442203907684" lon="15.191168211387984"><ele>462.0</ele><time>2026-04-18T09:01:34.999Z</time></trkpt><trkpt lat="38.00439311161028" lon="15.191520699669095"><ele>461.0</ele><time>2026-04-18T09:01:35.999Z</time></trkpt><trkpt lat="38.0044786774162" lon="15.191585130280638"><ele>460.0</ele><time>2026-04-18T09:01:36.999Z</time></trkpt><trkpt lat="38.004579014457555" lon="15.191652222787848"><ele>460.0</ele><time>2026-04-18T09:01:37.999Z</time></trkpt><trkpt lat="38.00467573588239" lon="15.191724807643142"><ele>460.0</ele><time>2026-04-18T09:01:38.999Z</time></trkpt><trkpt lat="38.004767154733194" lon="15.19179882754616"><ele>460.0</ele><time>2026-04-18T09:01:39.999Z</time></trkpt><trkpt lat="38.004856942718796" lon="15.191876967684765"><ele>460.0</ele><time>2026-04-18T09:01:40.999Z</time></trkpt><trkpt lat="38.00494645320698" lon="15.191952266041422"><ele>460.0</ele><time>2026-04-18T09:01:41.999Z</time></trkpt><trkpt lat="38.005036147248795" lon="15.19201119007865"><ele>459.83333333333337</ele><time>2026-04-18T09:01:42.999Z</time></trkpt><trkpt lat="38.00510683015665" lon="15.192053517179078"><ele>459.6666666666667</ele><time>2026-04-18T09:01:43.999Z</time></trkpt><trkpt lat="38.0051681450547" lon="15.192099529111855"><ele>459.5</ele><time>2026-04-18T09:01:44.999Z</time></trkpt><trkpt lat="38.0052282027158" lon="15.192137376443078"><ele>459.33333333333337</ele><time>2026-04-18T09:01:45.999Z</time></trkpt><trkpt lat="38.00530670142968" lon="15.192165707672533"><ele>459.1666666666667</ele><time>2026-04-18T09:01:46.999Z</time></trkpt><trkpt lat="38.005395860679805" lon="15.19219750145757"><ele>459.0</ele><time>2026-04-18T09:01:47.999Z</time></trkpt><trkpt lat="38.005495852756304" lon="15.19223020711292"><ele>459.0</ele><time>2026-04-18T09:01:48.999Z</time></trkpt><trkpt lat="38.005608249835596" lon="15.19226594268268"><ele>459.0</ele><time>2026-04-18T09:01:49.999Z</time></trkpt><trkpt lat="38.00571472611734" lon="15.192298583688457"><ele>459.0</ele><time>2026-04-18T09:01:50.999Z</time></trkpt><trkpt lat="38.00582863694122" lon="15.192325543797924"><ele>459.0</ele><time>2026-04-18T09:01:51.999Z</time></trkpt><trkpt lat="38.005942077788234" lon="15.192343897258205"><ele>457.5</ele><time>2026-04-18T09:01:52.999Z</time></trkpt><trkpt lat="38.00605540064865" lon="15.192349270165538"><ele>456.0</ele><time>2026-04-18T09:01:53.999Z</time></trkpt><trkpt lat="38.006176740689064" lon="15.192350591669003"><ele>454.5</ele><time>2026-04-18T09:01:54.999Z</time></trkpt><trkpt lat="38.006296180223245" lon="15.192348526888194"><ele>453.0</ele><time>2026-04-18T09:01:55.999Z</time></trkpt><trkpt lat="38.00639833868413" lon="15.19234936326155"><ele>453.0</ele><time>2026-04-18T09:01:56.999Z</time></trkpt><trkpt lat="38.00648011242617" lon="15.192346849331017"><ele>453.0</ele><time>2026-04-18T09:01:57.999Z</time></trkpt><trkpt lat="38.00655045998421" lon="15.192341261673445"><ele>453.0</ele><time>2026-04-18T09:01:58.999Z</time></trkpt><trkpt lat="38.006627409790035" lon="15.192335459601445"><ele>453.0</ele><time>2026-04-18T09:01:59.999Z</time></trkpt><trkpt lat="38.00670444605825" lon="15.19231975869131"><ele>453.0</ele><time>2026-04-18T09:02:00.999Z</time></trkpt><trkpt lat="38.00682143992277" lon="15.192310406273602"><ele>453.0</ele><time>2026-04-18T09:02:02.999Z</time></trkpt><trkpt lat="38.006938041153255" lon="15.192292158003701"><ele>453.0</ele><time>2026-04-18T09:02:04.999Z</time></trkpt><trkpt lat="38.00700471372455" lon="15.192281214907085"><ele>453.0</ele><time>2026-04-18T09:02:06.999Z</time></trkpt><trkpt lat="38.00706968858542" lon="15.192258974043243"><ele>453.0</ele><time>2026-04-18T09:02:39.999Z</time></trkpt><trkpt lat="38.00710124060273" lon="15.192182469977578"><ele>453.0</ele><time>2026-04-18T09:02:41.999Z</time></trkpt><trkpt lat="38.00706613890693" lon="15.192029335442424"><ele>453.0</ele><time>2026-04-18T09:02:43.999Z</time></trkpt><trkpt lat="38.00704181504576" lon="15.191948846975123"><ele>453.0</ele><time>2026-04-18T09:02:44.999Z</time></trkpt><trkpt lat="38.006993368771305" lon="15.1918288912768"><ele>453.0</ele><time>2026-04-18T09:02:46.999Z</time></trkpt><trkpt lat="38.006833725122505" lon="15.191741796738382"><ele>453.0</ele><time>2026-04-18T09:02:48.999Z</time></trkpt><trkpt lat="38.00668175846907" lon="15.191772230712631"><ele>453.0</ele><time>2026-04-18T09:02:50.999Z</time></trkpt><trkpt lat="38.00658060669991" lon="15.191789469928064"><ele>453.0</ele><time>2026-04-18T09:02:51.999Z</time></trkpt><trkpt lat="38.00649087347387" lon="15.191785508907504"><ele>458.0</ele><time>2026-04-18T09:02:52.999Z</time></trkpt><trkpt lat="38.0064036970308" lon="15.191768679876676"><ele>458.0</ele><time>2026-04-18T09:02:54.999Z</time></trkpt><trkpt lat="38.00633644711936" lon="15.191739034027826"><ele>458.0</ele><time>2026-04-18T09:03:00Z</time></trkpt></trkseg><trkseg><trkpt lat="38.00085043094814" lon="15.188554768379857"><ele>490.16666666666663</ele><time>2026-04-18T09:21:45Z</time></trkpt><trkpt lat="38.00071948098284" lon="15.188520187607075"><ele>489.3333333333333</ele><time>2026-04-18T09:21:47Z</time></trkpt><trkpt lat="38.000652199611416" lon="15.188502019669194"><ele>488.5</ele><time>2026-04-18T09:21:48Z</time></trkpt><trkpt lat="38.00057574049214" lon="15.188479679889733"><ele>487.66666666666663</ele><time>2026-04-18T09:21:49Z</time></trkpt><trkpt lat="38.000504984806234" lon="15.188461099301817"><ele>486.8333333333333</ele><time>2026-04-18T09:21:50Z</time></trkpt><trkpt lat="38.00043047086029" lon="15.188440822965422"><ele>486.0</ele><time>2026-04-18T09:21:51Z</time></trkpt><trkpt lat="38.00035525224353" lon="15.188425168986283"><ele>486.0</ele><time>2026-04-18T09:21:52Z</time></trkpt><trkpt lat="38.00028117525128" lon="15.18841500739671"><ele>486.0</ele><time>2026-04-18T09:21:53Z</time></trkpt><trkpt lat="38.00020644408545" lon="15.188405115111218"><ele>486.0</ele><time>2026-04-18T09:21:54Z</time></trkpt><trkpt lat="38.000135650900646" lon="15.18839668574354"><ele>486.0</ele><time>2026-04-18T09:21:55Z</time></trkpt><trkpt lat="38.0000675625848" lon="15.188391333675069"><ele>486.0</ele><time>2026-04-18T09:21:56Z</time></trkpt><trkpt lat="37.999992746745164" lon="15.188386650657824"><ele>486.0</ele><time>2026-04-18T09:21:57Z</time></trkpt><trkpt lat="37.9999234850601" lon="15.188385450982215"><ele>486.0</ele><time>2026-04-18T09:21:58Z</time></trkpt><trkpt lat="37.9998470940213" lon="15.188384242206933"><ele>486.0</ele><time>2026-04-18T09:21:59Z</time></trkpt><trkpt lat="37.99977153967551" lon="15.188386655597427"><ele>486.0</ele><time>2026-04-18T09:22:00Z</time></trkpt><trkpt lat="37.99969338761446" lon="15.1883907029768"><ele>486.0</ele><time>2026-04-18T09:22:01Z</time></trkpt><trkpt lat="37.99961710936352" lon="15.188403576189158"><ele>486.0</ele><time>2026-04-18T09:22:02Z</time></trkpt><trkpt lat="37.99953497732076" lon="15.188413642066601"><ele>486.0</ele><time>2026-04-18T09:22:02.999Z</time></trkpt><trkpt lat="37.99945736760397" lon="15.188437209438227"><ele>486.0</ele><time>2026-04-18T09:22:03.999Z</time></trkpt><trkpt lat="37.99938663551989" lon="15.188461623101366"><ele>486.0</ele><time>2026-04-18T09:22:04.999Z</time></trkpt><trkpt lat="37.99931876162708" lon="15.18847782773557"><ele>486.0</ele><time>2026-04-18T09:22:05.999Z</time></trkpt><trkpt lat="37.999248411841734" lon="15.188489238703115"><ele>486.0</ele><time>2026-04-18T09:22:06.999Z</time></trkpt><trkpt lat="37.999182860519625" lon="15.188493804296835"><ele>486.0</ele><time>2026-04-18T09:22:07.999Z</time></trkpt><trkpt lat="37.99910997417496" lon="15.188486717564444"><ele>486.0</ele><time>2026-04-18T09:22:08.999Z</time></trkpt><trkpt lat="37.99904620823284" lon="15.188465559791998"><ele>486.0</ele><time>2026-04-18T09:22:09.999Z</time></trkpt><trkpt lat="37.99898494984113" lon="15.188438566173843"><ele>486.0</ele><time>2026-04-18T09:22:10.999Z</time></trkpt><trkpt lat="37.99886773230421" lon="15.1883738243563"><ele>486.6666666666667</ele><time>2026-04-18T09:22:12.999Z</time></trkpt><trkpt lat="37.998812174841795" lon="15.188328299301547"><ele>487.33333333333337</ele><time>2026-04-18T09:22:13.999Z</time></trkpt><trkpt lat="37.99875882767896" lon="15.188277854837592"><ele>488.0</ele><time>2026-04-18T09:22:14.999Z</time></trkpt><trkpt lat="37.99865170886476" lon="15.188191418181791"><ele>488.6666666666667</ele><time>2026-04-18T09:22:16.999Z</time></trkpt><trkpt lat="37.99859549556436" lon="15.188145846820705"><ele>489.33333333333337</ele><time>2026-04-18T09:22:17.999Z</time></trkpt><trkpt lat="37.99853458963727" lon="15.1880917393158"><ele>490.0</ele><time>2026-04-18T09:22:18.999Z</time></trkpt><trkpt lat="37.99846895596985" lon="15.18803544174117"><ele>490.83333333333337</ele><time>2026-04-18T09:22:19.999Z</time></trkpt><trkpt lat="37.998397977214665" lon="15.18797800094265"><ele>491.6666666666667</ele><time>2026-04-18T09:22:20.999Z</time></trkpt><trkpt lat="37.99833065303265" lon="15.18790284996154"><ele>492.5</ele><time>2026-04-18T09:22:21.999Z</time></trkpt><trkpt lat="37.99824565916872" lon="15.187865045283642"><ele>493.33333333333337</ele><time>2026-04-18T09:22:22.999Z</time></trkpt><trkpt lat="37.99815764167124" lon="15.187833982187378"><ele>494.1666666666667</ele><time>2026-04-18T09:22:23.999Z</time></trkpt><trkpt lat="37.998067337573346" lon="15.187810797923893"><ele>495.0</ele><time>2026-04-18T09:22:24.999Z</time></trkpt><trkpt lat="37.99798055854935" lon="15.187793149397534"><ele>495.0</ele><time>2026-04-18T09:22:25.999Z</time></trkpt><trkpt lat="37.997894363175924" lon="15.187780752707518"><ele>495.0</ele><time>2026-04-18T09:22:26.999Z</time></trkpt><trkpt lat="37.997821132189365" lon="15.187772306629832"><ele>495.0</ele><time>2026-04-18T09:22:27.999Z</time></trkpt><trkpt lat="37.99775411960597" lon="15.187772374533926"><ele>495.0</ele><time>2026-04-18T09:22:28.999Z</time></trkpt><trkpt lat="37.997629359822575" lon="15.187776555998646"><ele>495.0</ele><time>2026-04-18T09:22:30.999Z</time></trkpt><trkpt lat="37.99756520845669" lon="15.187778597681133"><ele>495.0</ele><time>2026-04-18T09:22:31.999Z</time></trkpt><trkpt lat="37.99744922363316" lon="15.187772298125655"><ele>494.3333333333333</ele><time>2026-04-18T09:22:33.999Z</time></trkpt><trkpt lat="37.99738491689529" lon="15.187771705493114"><ele>493.66666666666663</ele><time>2026-04-18T09:22:34.999Z</time></trkpt><trkpt lat="37.997261123221584" lon="15.187772620957347"><ele>493.0</ele><time>2026-04-18T09:22:36.999Z</time></trkpt><trkpt lat="37.997195756932356" lon="15.187775592630224"><ele>492.3333333333333</ele><time>2026-04-18T09:22:37.999Z</time></trkpt><trkpt lat="37.99712755049298" lon="15.187771897010743"><ele>491.66666666666663</ele><time>2026-04-18T09:22:38.999Z</time></trkpt><trkpt lat="37.99705331814752" lon="15.18776795663071"><ele>491.0</ele><time>2026-04-18T09:22:39.999Z</time></trkpt><trkpt lat="37.99698700037755" lon="15.187765394515187"><ele>490.99999999999994</ele><time>2026-04-18T09:22:40.999Z</time></trkpt><trkpt lat="37.99690869166207" lon="15.187761967794268"><ele>491.0</ele><time>2026-04-18T09:22:41.999Z</time></trkpt><trkpt lat="37.996832102082706" lon="15.187757202441238"><ele>491.0</ele><time>2026-04-18T09:22:42.999Z</time></trkpt><trkpt lat="37.996758792063055" lon="15.187749080752969"><ele>491.0</ele><time>2026-04-18T09:22:43.999Z</time></trkpt><trkpt lat="37.99668485600419" lon="15.187733331855865"><ele>490.99999999999994</ele><time>2026-04-18T09:22:44.999Z</time></trkpt><trkpt lat="37.99660808266313" lon="15.1877144116273"><ele>491.0</ele><time>2026-04-18T09:22:45.999Z</time></trkpt><trkpt lat="37.99653533655404" lon="15.1876944207369"><ele>491.49999999999994</ele><time>2026-04-18T09:22:46.999Z</time></trkpt><trkpt lat="37.99645815843959" lon="15.187675211926312"><ele>492.0</ele><time>2026-04-18T09:22:47.999Z</time></trkpt><trkpt lat="37.99638253845629" lon="15.187653869869786"><ele>492.5</ele><time>2026-04-18T09:22:48.999Z</time></trkpt><trkpt lat="37.996304368971686" lon="15.18763068993328"><ele>493.0</ele><time>2026-04-18T09:22:49.999Z</time></trkpt><trkpt lat="37.996233408188246" lon="15.187604291619067"><ele>493.49999999999994</ele><time>2026-04-18T09:22:50.999Z</time></trkpt><trkpt lat="37.99615984686701" lon="15.187584519504933"><ele>494.0</ele><time>2026-04-18T09:22:51.999Z</time></trkpt><trkpt lat="37.99608952126374" lon="15.187567584518037"><ele>493.99999999999994</ele><time>2026-04-18T09:22:52.999Z</time></trkpt><trkpt lat="37.99601244679165" lon="15.18754719302996"><ele>494.0</ele><time>2026-04-18T09:22:53.999Z</time></trkpt><trkpt lat="37.9959406032103" lon="15.187525563679433"><ele>494.0</ele><time>2026-04-18T09:22:54.999Z</time></trkpt><trkpt lat="37.995868930375266" lon="15.187507441407028"><ele>494.0</ele><time>2026-04-18T09:22:55.999Z</time></trkpt><trkpt lat="37.99579387575381" lon="15.187489608329816"><ele>493.99999999999994</ele><time>2026-04-18T09:22:56.999Z</time></trkpt><trkpt lat="37.99571738034414" lon="15.187469283796965"><ele>494.0</ele><time>2026-04-18T09:22:57.999Z</time></trkpt><trkpt lat="37.99564415520388" lon="15.187450763482895"><ele>494.57142857142856</ele><time>2026-04-18T09:22:58.999Z</time></trkpt><trkpt lat="37.99557068922398" lon="15.187430997766453"><ele>495.1428571428571</ele><time>2026-04-18T09:22:59.999Z</time></trkpt><trkpt lat="37.995499803154914" lon="15.187410990014605"><ele>495.71428571428567</ele><time>2026-04-18T09:23:00.999Z</time></trkpt><trkpt lat="37.99543371903973" lon="15.187388881635545"><ele>496.2857142857143</ele><time>2026-04-18T09:23:01.999Z</time></trkpt><trkpt lat="37.99536865144113" lon="15.18735793426591"><ele>496.8571428571428</ele><time>2026-04-18T09:23:02.999Z</time></trkpt><trkpt lat="37.99529703560311" lon="15.187318027853598"><ele>497.4285714285714</ele><time>2026-04-18T09:23:03.999Z</time></trkpt><trkpt lat="37.99522407022569" lon="15.187265766270942"><ele>498.0</ele><time>2026-04-18T09:23:04.999Z</time></trkpt><trkpt lat="37.995154032726454" lon="15.187196028340034"><ele>501.79999999999995</ele><time>2026-04-18T09:23:05.999Z</time></trkpt><trkpt lat="37.99508362500765" lon="15.187115237968206"><ele>505.59999999999997</ele><time>2026-04-18T09:23:06.999Z</time></trkpt><trkpt lat="37.99501413675482" lon="15.187035019679147"><ele>509.40000000000003</ele><time>2026-04-18T09:23:07.999Z</time></trkpt><trkpt lat="37.99494399829148" lon="15.18696026386841"><ele>513.2</ele><time>2026-04-18T09:23:08.999Z</time></trkpt><trkpt lat="37.99487707806485" lon="15.186885733922052"><ele>517.0</ele><time>2026-04-18T09:23:09.999Z</time></trkpt><trkpt lat="37.994809141660895" lon="15.186820087492595"><ele>517.0</ele><time>2026-04-18T09:23:10.999Z</time></trkpt><trkpt lat="37.994742658521965" lon="15.186759937988729"><ele>517.0</ele><time>2026-04-18T09:23:11.999Z</time></trkpt><trkpt lat="37.99468267461548" lon="15.186704268501938"><ele>517.0</ele><time>2026-04-18T09:23:12.999Z</time></trkpt><trkpt lat="37.99462357956149" lon="15.186656284093173"><ele>517.0</ele><time>2026-04-18T09:23:13.999Z</time></trkpt><trkpt lat="37.99455892096802" lon="15.186613060669288"><ele>517.0</ele><time>2026-04-18T09:23:14.999Z</time></trkpt><trkpt lat="37.99449618517645" lon="15.186570470346812"><ele>517.0</ele><time>2026-04-18T09:23:15.999Z</time></trkpt><trkpt lat="37.994435621625264" lon="15.186529825902312"><ele>517.0</ele><time>2026-04-18T09:23:16.999Z</time></trkpt><trkpt lat="37.99437129307784" lon="15.186494226714677"><ele>518.5714285714286</ele><time>2026-04-18T09:23:17.999Z</time></trkpt><trkpt lat="37.99430658270916" lon="15.18646191829125"><ele>520.1428571428572</ele><time>2026-04-18T09:23:18.999Z</time></trkpt><trkpt lat="37.99424196484534" lon="15.186429957853454"><ele>521.7142857142858</ele><time>2026-04-18T09:23:19.999Z</time></trkpt><trkpt lat="37.99417598277822" lon="15.186393917824509"><ele>523.2857142857143</ele><time>2026-04-18T09:23:20.999Z</time></trkpt><trkpt lat="37.994109985698316" lon="15.186355455008888"><ele>524.8571428571429</ele><time>2026-04-18T09:23:21.999Z</time></trkpt><trkpt lat="37.994037819091446" lon="15.186322755138"><ele>526.4285714285714</ele><time>2026-04-18T09:23:23Z</time></trkpt><trkpt lat="37.99396135719231" lon="15.186290074416435"><ele>528.0</ele><time>2026-04-18T09:23:24Z</time></trkpt><trkpt lat="37.99388310490276" lon="15.186254030106134"><ele>528.0</ele><time>2026-04-18T09:23:25Z</time></trkpt><trkpt lat="37.993805296427546" lon="15.186214721280876"><ele>528.0</ele><time>2026-04-18T09:23:26Z</time></trkpt><trkpt lat="37.9937321146738" lon="15.186181640130783"><ele>528.0</ele><time>2026-04-18T09:23:27Z</time></trkpt><trkpt lat="37.99366171696958" lon="15.186152945343409"><ele>528.0</ele><time>2026-04-18T09:23:28Z</time></trkpt><trkpt lat="37.99359619207673" lon="15.186122553075421"><ele>528.0</ele><time>2026-04-18T09:23:29Z</time></trkpt><trkpt lat="37.99353341440218" lon="15.186092036255555"><ele>528.0</ele><time>2026-04-18T09:23:30Z</time></trkpt><trkpt lat="37.9934642292174" lon="15.18606183887315"><ele>528.0</ele><time>2026-04-18T09:23:31Z</time></trkpt><trkpt lat="37.993382164474724" lon="15.186040063767402"><ele>526.3333333333334</ele><time>2026-04-18T09:23:32Z</time></trkpt><trkpt lat="37.99331457851414" lon="15.186004533917533"><ele>524.6666666666666</ele><time>2026-04-18T09:23:33Z</time></trkpt><trkpt lat="37.993246465580924" lon="15.185961894000382"><ele>523.0</ele><time>2026-04-18T09:23:34Z</time></trkpt><trkpt lat="37.99317618912179" lon="15.185916210536485"><ele>521.3333333333333</ele><time>2026-04-18T09:23:35Z</time></trkpt><trkpt lat="37.993111649245385" lon="15.185862700922295"><ele>519.6666666666666</ele><time>2026-04-18T09:23:36Z</time></trkpt><trkpt lat="37.99305072701049" lon="15.18579910503108"><ele>518.0</ele><time>2026-04-18T09:23:37Z</time></trkpt><trkpt lat="37.992995213122164" lon="15.185743246014294"><ele>518.0</ele><time>2026-04-18T09:23:38Z</time></trkpt><trkpt lat="37.99294657130623" lon="15.185680968513605"><ele>518.0</ele><time>2026-04-18T09:23:39Z</time></trkpt><trkpt lat="37.992905338624546" lon="15.185619632569868"><ele>518.0</ele><time>2026-04-18T09:23:40Z</time></trkpt><trkpt lat="37.99286226231565" lon="15.185551138154247"><ele>518.0</ele><time>2026-04-18T09:23:41Z</time></trkpt><trkpt lat="37.992820766805934" lon="15.185482751765507"><ele>518.0</ele><time>2026-04-18T09:23:42Z</time></trkpt><trkpt lat="37.992780066724634" lon="15.185410645112796"><ele>518.0</ele><time>2026-04-18T09:23:43Z</time></trkpt><trkpt lat="37.99274105737341" lon="15.185338675299086"><ele>518.0</ele><time>2026-04-18T09:23:44Z</time></trkpt><trkpt lat="37.99270135611027" lon="15.185268094413978"><ele>518.8333333333333</ele><time>2026-04-18T09:23:45Z</time></trkpt><trkpt lat="37.992659148243284" lon="15.185194570508084"><ele>519.6666666666666</ele><time>2026-04-18T09:23:46Z</time></trkpt><trkpt lat="37.99261488890459" lon="15.185115724447346"><ele>520.5</ele><time>2026-04-18T09:23:47Z</time></trkpt><trkpt lat="37.992568035519994" lon="15.185035123943775"><ele>521.3333333333334</ele><time>2026-04-18T09:23:48Z</time></trkpt><trkpt lat="37.99251633937656" lon="15.184951109432923"><ele>522.1666666666667</ele><time>2026-04-18T09:23:49Z</time></trkpt><trkpt lat="37.992465025096486" lon="15.18487239332288"><ele>523.0</ele><time>2026-04-18T09:23:50Z</time></trkpt><trkpt lat="37.99240861634035" lon="15.184799387264418"><ele>525.8571428571428</ele><time>2026-04-18T09:23:51Z</time></trkpt><trkpt lat="37.99234508102992" lon="15.184731521745844"><ele>528.7142857142857</ele><time>2026-04-18T09:23:52Z</time></trkpt><trkpt lat="37.9922846307815" lon="15.18467316901589"><ele>531.5714285714286</ele><time>2026-04-18T09:23:53Z</time></trkpt><trkpt lat="37.992226446340226" lon="15.18462265714959"><ele>534.4285714285713</ele><time>2026-04-18T09:23:54Z</time></trkpt><trkpt lat="37.99216809570321" lon="15.184576119632617"><ele>537.2857142857142</ele><time>2026-04-18T09:23:55Z</time></trkpt><trkpt lat="37.99210808955842" lon="15.184540108289493"><ele>540.1428571428571</ele><time>2026-04-18T09:23:56Z</time></trkpt><trkpt lat="37.992044814612626" lon="15.184509100441309"><ele>543.0</ele><time>2026-04-18T09:23:57Z</time></trkpt><trkpt lat="37.99198039013229" lon="15.184479808497612"><ele>543.0</ele><time>2026-04-18T09:23:58Z</time></trkpt><trkpt lat="37.991911867654814" lon="15.184459905597096"><ele>543.0</ele><time>2026-04-18T09:23:59Z</time></trkpt><trkpt lat="37.99184390335639" lon="15.184440580991993"><ele>543.0</ele><time>2026-04-18T09:24:00Z</time></trkpt><trkpt lat="37.99177196605014" lon="15.184422216934161"><ele>543.0</ele><time>2026-04-18T09:24:01Z</time></trkpt><trkpt lat="37.99170181590356" lon="15.184416229813163"><ele>543.0</ele><time>2026-04-18T09:24:02Z</time></trkpt><trkpt lat="37.99163149662426" lon="15.184414790317636"><ele>543.0</ele><time>2026-04-18T09:24:03Z</time></trkpt><trkpt lat="37.991559891030455" lon="15.184421896910385"><ele>543.0</ele><time>2026-04-18T09:24:04Z</time></trkpt><trkpt lat="37.991485897115616" lon="15.184430674922636"><ele>540.4285714285714</ele><time>2026-04-18T09:24:05Z</time></trkpt><trkpt lat="37.9914156510873" lon="15.184441261551175"><ele>537.8571428571429</ele><time>2026-04-18T09:24:06Z</time></trkpt><trkpt lat="37.99134517128119" lon="15.18445974906759"><ele>535.2857142857142</ele><time>2026-04-18T09:24:07Z</time></trkpt><trkpt lat="37.99127798598423" lon="15.184488481357297"><ele>532.7142857142858</ele><time>2026-04-18T09:24:08Z</time></trkpt><trkpt lat="37.99121159863874" lon="15.184519373055961"><ele>530.1428571428571</ele><time>2026-04-18T09:24:09Z</time></trkpt><trkpt lat="37.99114598874316" lon="15.184551055286878"><ele>527.5714285714286</ele><time>2026-04-18T09:24:10Z</time></trkpt><trkpt lat="37.991081773046396" lon="15.184585833436406"><ele>525.0</ele><time>2026-04-18T09:24:11Z</time></trkpt><trkpt lat="37.99101904434955" lon="15.18461953493408"><ele>525.0</ele><time>2026-04-18T09:24:12Z</time></trkpt><trkpt lat="37.99095450366674" lon="15.184657739622606"><ele>525.0</ele><time>2026-04-18T09:24:12.999Z</time></trkpt><trkpt lat="37.990891537649134" lon="15.184696524678305"><ele>525.0</ele><time>2026-04-18T09:24:13.999Z</time></trkpt><trkpt lat="37.99082846773431" lon="15.184736724008278"><ele>525.0</ele><time>2026-04-18T09:24:14.999Z</time></trkpt><trkpt lat="37.9907638191347" lon="15.184780070423589"><ele>525.0</ele><time>2026-04-18T09:24:15.999Z</time></trkpt><trkpt lat="37.99069988403279" lon="15.184819626737317"><ele>525.0</ele><time>2026-04-18T09:24:16.999Z</time></trkpt><trkpt lat="37.99063323941247" lon="15.184859848822393"><ele>525.0</ele><time>2026-04-18T09:24:17.999Z</time></trkpt><trkpt lat="37.990568148510725" lon="15.184899677762457"><ele>523.8333333333334</ele><time>2026-04-18T09:24:18.999Z</time></trkpt><trkpt lat="37.99050024307115" lon="15.18493512392407"><ele>522.6666666666666</ele><time>2026-04-18T09:24:19.999Z</time></trkpt><trkpt lat="37.99043045678341" lon="15.184971664850151"><ele>521.5</ele><time>2026-04-18T09:24:20.999Z</time></trkpt><trkpt lat="37.990361384160884" lon="15.18501316232958"><ele>520.3333333333333</ele><time>2026-04-18T09:24:21.999Z</time></trkpt><trkpt lat="37.990291116083235" lon="15.18505731722657"><ele>519.1666666666666</ele><time>2026-04-18T09:24:22.999Z</time></trkpt><trkpt lat="37.99022132701382" lon="15.185100801348694"><ele>518.0</ele><time>2026-04-18T09:24:23.999Z</time></trkpt><trkpt lat="37.99014755542481" lon="15.185144916168381"><ele>518.0</ele><time>2026-04-18T09:24:24.999Z</time></trkpt><trkpt lat="37.990072353243015" lon="15.185187640881669"><ele>518.0</ele><time>2026-04-18T09:24:25.999Z</time></trkpt><trkpt lat="37.98999842443822" lon="15.185233341420108"><ele>518.0</ele><time>2026-04-18T09:24:26.999Z</time></trkpt><trkpt lat="37.98992417491831" lon="15.185283763235061"><ele>518.0</ele><time>2026-04-18T09:24:27.999Z</time></trkpt><trkpt lat="37.98984899054843" lon="15.185332545970265"><ele>518.0</ele><time>2026-04-18T09:24:28.999Z</time></trkpt><trkpt lat="37.989776780006565" lon="15.185373282097999"><ele>518.0</ele><time>2026-04-18T09:24:29.999Z</time></trkpt><trkpt lat="37.98970187228593" lon="15.18541095990881"><ele>521.8333333333333</ele><time>2026-04-18T09:24:30.999Z</time></trkpt><trkpt lat="37.98962656802815" lon="15.185445849207039"><ele>525.6666666666666</ele><time>2026-04-18T09:24:31.999Z</time></trkpt><trkpt lat="37.98955017120659" lon="15.185473809060747"><ele>529.5</ele><time>2026-04-18T09:24:32.999Z</time></trkpt><trkpt lat="37.989475212345056" lon="15.185495433385496"><ele>533.3333333333334</ele><time>2026-04-18T09:24:33.999Z</time></trkpt><trkpt lat="37.989391656580345" lon="15.185508320257597"><ele>537.1666666666667</ele><time>2026-04-18T09:24:34.999Z</time></trkpt><trkpt lat="37.98931381745772" lon="15.185519107846284"><ele>541.0</ele><time>2026-04-18T09:24:35.999Z</time></trkpt><trkpt lat="37.989230130314375" lon="15.18553138314463"><ele>542.8333333333334</ele><time>2026-04-18T09:24:36.999Z</time></trkpt><trkpt lat="37.989152308023584" lon="15.185542416972853"><ele>544.6666666666667</ele><time>2026-04-18T09:24:37.999Z</time></trkpt><trkpt lat="37.989071413010635" lon="15.185554161350902"><ele>546.5</ele><time>2026-04-18T09:24:38.999Z</time></trkpt><trkpt lat="37.98899943305946" lon="15.18556698113712"><ele>548.3333333333334</ele><time>2026-04-18T09:24:39.999Z</time></trkpt><trkpt lat="37.988917680709804" lon="15.185586493797242"><ele>550.1666666666666</ele><time>2026-04-18T09:24:40.999Z</time></trkpt><trkpt lat="37.98885190586182" lon="15.185610214701274"><ele>552.0</ele><time>2026-04-18T09:24:41.999Z</time></trkpt><trkpt lat="37.98878552430157" lon="15.185617182462043"><ele>552.0</ele><time>2026-04-18T09:24:42.999Z</time></trkpt><trkpt lat="37.988721642973196" lon="15.185625613423477"><ele>552.0</ele><time>2026-04-18T09:24:43.999Z</time></trkpt><trkpt lat="37.98865611912842" lon="15.185633927418317"><ele>552.0</ele><time>2026-04-18T09:24:44.999Z</time></trkpt><trkpt lat="37.98858432481819" lon="15.185635729207421"><ele>552.0</ele><time>2026-04-18T09:24:45.999Z</time></trkpt><trkpt lat="37.988513892929696" lon="15.185623111115513"><ele>552.0</ele><time>2026-04-18T09:24:46.999Z</time></trkpt><trkpt lat="37.988445501114064" lon="15.18560328812008"><ele>552.0</ele><time>2026-04-18T09:24:47.999Z</time></trkpt><trkpt lat="37.98836835525526" lon="15.185589188909905"><ele>552.0</ele><time>2026-04-18T09:24:48.999Z</time></trkpt><trkpt lat="37.98828962642643" lon="15.18557155615147"><ele>550.5714285714286</ele><time>2026-04-18T09:24:49.999Z</time></trkpt><trkpt lat="37.98821489079618" lon="15.18554771451771"><ele>549.1428571428572</ele><time>2026-04-18T09:24:50.999Z</time></trkpt><trkpt lat="37.98815028702019" lon="15.185521621618248"><ele>547.7142857142858</ele><time>2026-04-18T09:24:51.999Z</time></trkpt><trkpt lat="37.98808691420106" lon="15.185493443503193"><ele>546.2857142857143</ele><time>2026-04-18T09:24:52.999Z</time></trkpt><trkpt lat="37.988028098543566" lon="15.185452824590044"><ele>544.8571428571429</ele><time>2026-04-18T09:24:53.999Z</time></trkpt><trkpt lat="37.987965360687134" lon="15.185411550855017"><ele>543.4285714285714</ele><time>2026-04-18T09:24:54.999Z</time></trkpt><trkpt lat="37.987902659595065" lon="15.185376967302739"><ele>542.0</ele><time>2026-04-18T09:24:55.999Z</time></trkpt><trkpt lat="37.98783581057296" lon="15.185342371003587"><ele>542.0</ele><time>2026-04-18T09:24:56.999Z</time></trkpt><trkpt lat="37.98776761596529" lon="15.185308489896947"><ele>542.0</ele><time>2026-04-18T09:24:57.999Z</time></trkpt><trkpt lat="37.987702502643614" lon="15.185276142164634"><ele>542.0</ele><time>2026-04-18T09:24:58.999Z</time></trkpt><trkpt lat="37.98763175925907" lon="15.185239090491654"><ele>542.0</ele><time>2026-04-18T09:24:59.999Z</time></trkpt><trkpt lat="37.98756157952704" lon="15.185205563236797"><ele>542.0</ele><time>2026-04-18T09:25:00.999Z</time></trkpt><trkpt lat="37.987486599283464" lon="15.185174753856542"><ele>542.0</ele><time>2026-04-18T09:25:01.999Z</time></trkpt><trkpt lat="37.98741153726121" lon="15.185137341497319"><ele>542.0</ele><time>2026-04-18T09:25:02.999Z</time></trkpt><trkpt lat="37.98733709980546" lon="15.185100687530577"><ele>542.0</ele><time>2026-04-18T09:25:03.999Z</time></trkpt><trkpt lat="37.987264546923015" lon="15.185064064080027"><ele>542.0</ele><time>2026-04-18T09:25:04.999Z</time></trkpt><trkpt lat="37.987194277847216" lon="15.185024934186405"><ele>542.0</ele><time>2026-04-18T09:25:05.999Z</time></trkpt><trkpt lat="37.98712509719216" lon="15.184987942951352"><ele>542.0</ele><time>2026-04-18T09:25:06.999Z</time></trkpt><trkpt lat="37.98705457776193" lon="15.184959849068413"><ele>542.0</ele><time>2026-04-18T09:25:07.999Z</time></trkpt><trkpt lat="37.986983287058216" lon="15.184927973476393"><ele>542.0</ele><time>2026-04-18T09:25:08.999Z</time></trkpt><trkpt lat="37.986917837186915" lon="15.184892564015659"><ele>542.0</ele><time>2026-04-18T09:25:09.999Z</time></trkpt><trkpt lat="37.986849361605145" lon="15.184856587027022"><ele>542.0</ele><time>2026-04-18T09:25:10.999Z</time></trkpt><trkpt lat="37.98678018096625" lon="15.184821029418513"><ele>542.0</ele><time>2026-04-18T09:25:11.999Z</time></trkpt><trkpt lat="37.98671291695791" lon="15.184781837958782"><ele>542.0</ele><time>2026-04-18T09:25:12.999Z</time></trkpt><trkpt lat="37.98664311567844" lon="15.184747038767833"><ele>542.0</ele><time>2026-04-18T09:25:13.999Z</time></trkpt><trkpt lat="37.98657361288288" lon="15.184717602587225"><ele>542.0</ele><time>2026-04-18T09:25:14.999Z</time></trkpt><trkpt lat="37.98650311323234" lon="15.184681995780196"><ele>546.5</ele><time>2026-04-18T09:25:15.999Z</time></trkpt><trkpt lat="37.9864356643878" lon="15.184643859590583"><ele>551.0</ele><time>2026-04-18T09:25:16.999Z</time></trkpt><trkpt lat="37.986367275260974" lon="15.18460240421319"><ele>555.5</ele><time>2026-04-18T09:25:17.999Z</time></trkpt><trkpt lat="37.98630005478314" lon="15.184555464221049"><ele>560.0</ele><time>2026-04-18T09:25:18.999Z</time></trkpt><trkpt lat="37.98623678882398" lon="15.184495531924307"><ele>564.5</ele><time>2026-04-18T09:25:19.999Z</time></trkpt><trkpt lat="37.9861778127283" lon="15.184430165143507"><ele>569.0</ele><time>2026-04-18T09:25:20.999Z</time></trkpt><trkpt lat="37.986122287588756" lon="15.184361898771076"><ele>569.0000000000001</ele><time>2026-04-18T09:25:21.999Z</time></trkpt><trkpt lat="37.986071883780305" lon="15.18429219309907"><ele>569.0</ele><time>2026-04-18T09:25:22.999Z</time></trkpt><trkpt lat="37.98602583196901" lon="15.184208965107851"><ele>569.0</ele><time>2026-04-18T09:25:23.999Z</time></trkpt><trkpt lat="37.98598654782554" lon="15.184128506091797"><ele>569.0</ele><time>2026-04-18T09:25:24.999Z</time></trkpt><trkpt lat="37.985953354451354" lon="15.184053367564927"><ele>569.0</ele><time>2026-04-18T09:25:25.999Z</time></trkpt><trkpt lat="37.985918620726345" lon="15.183967248885057"><ele>569.0000000000001</ele><time>2026-04-18T09:25:26.999Z</time></trkpt><trkpt lat="37.98588464503545" lon="15.183886656309491"><ele>569.0</ele><time>2026-04-18T09:25:27.999Z</time></trkpt><trkpt lat="37.985847894028865" lon="15.183800030167731"><ele>568.6666666666666</ele><time>2026-04-18T09:25:29Z</time></trkpt><trkpt lat="37.985814203220585" lon="15.183716462251242"><ele>568.3333333333333</ele><time>2026-04-18T09:25:30Z</time></trkpt><trkpt lat="37.98578163212065" lon="15.183634018176104"><ele>568.0</ele><time>2026-04-18T09:25:31Z</time></trkpt><trkpt lat="37.985747049709296" lon="15.183550080717788"><ele>567.6666666666666</ele><time>2026-04-18T09:25:32Z</time></trkpt><trkpt lat="37.985709536136746" lon="15.183467599584207"><ele>567.3333333333334</ele><time>2026-04-18T09:25:33Z</time></trkpt><trkpt lat="37.98566660105426" lon="15.183379268805119"><ele>567.0</ele><time>2026-04-18T09:25:34Z</time></trkpt><trkpt lat="37.98562087848402" lon="15.183292018894685"><ele>567.0</ele><time>2026-04-18T09:25:35Z</time></trkpt><trkpt lat="37.98557907904988" lon="15.183206506784664"><ele>567.0</ele><time>2026-04-18T09:25:36Z</time></trkpt><trkpt lat="37.98553546211109" lon="15.183116649531526"><ele>567.0</ele><time>2026-04-18T09:25:37Z</time></trkpt><trkpt lat="37.985491630772394" lon="15.183030196860571"><ele>567.0</ele><time>2026-04-18T09:25:38Z</time></trkpt><trkpt lat="37.98545107143073" lon="15.182942762353811"><ele>567.0</ele><time>2026-04-18T09:25:39Z</time></trkpt><trkpt lat="37.98541070000025" lon="15.182854404774867"><ele>567.0</ele><time>2026-04-18T09:25:40Z</time></trkpt><trkpt lat="37.98536840600428" lon="15.182763205967374"><ele>568.0</ele><time>2026-04-18T09:25:41Z</time></trkpt><trkpt lat="37.985328114151905" lon="15.182677111418307"><ele>569.0</ele><time>2026-04-18T09:25:42Z</time></trkpt><trkpt lat="37.985285905760406" lon="15.182584811388889"><ele>570.0</ele><time>2026-04-18T09:25:43Z</time></trkpt><trkpt lat="37.9852462968597" lon="15.182501318909875"><ele>571.0</ele><time>2026-04-18T09:25:44Z</time></trkpt><trkpt lat="37.985202666994745" lon="15.18240786731097"><ele>572.0</ele><time>2026-04-18T09:25:45Z</time></trkpt><trkpt lat="37.98516136366215" lon="15.182319278568865"><ele>573.0</ele><time>2026-04-18T09:25:46Z</time></trkpt><trkpt lat="37.98511825470585" lon="15.182237733668135"><ele>572.6666666666666</ele><time>2026-04-18T09:25:47Z</time></trkpt><trkpt lat="37.985077057752456" lon="15.182153470236825"><ele>572.3333333333334</ele><time>2026-04-18T09:25:48Z</time></trkpt><trkpt lat="37.98504158610454" lon="15.182069217076526"><ele>572.0</ele><time>2026-04-18T09:25:49Z</time></trkpt><trkpt lat="37.98500299261998" lon="15.181979821245227"><ele>571.6666666666667</ele><time>2026-04-18T09:25:50Z</time></trkpt><trkpt lat="37.98496548492931" lon="15.181894281799462"><ele>571.3333333333334</ele><time>2026-04-18T09:25:51Z</time></trkpt><trkpt lat="37.984929000875816" lon="15.1818146429104"><ele>571.0</ele><time>2026-04-18T09:25:52Z</time></trkpt><trkpt lat="37.984888065674326" lon="15.18173069156774"><ele>571.0</ele><time>2026-04-18T09:25:53Z</time></trkpt><trkpt lat="37.984850125690436" lon="15.181645297487353"><ele>571.0</ele><time>2026-04-18T09:25:54Z</time></trkpt><trkpt lat="37.98481171852727" lon="15.18156668447016"><ele>571.0</ele><time>2026-04-18T09:25:55Z</time></trkpt><trkpt lat="37.984771224620374" lon="15.181485546676106"><ele>571.0</ele><time>2026-04-18T09:25:56Z</time></trkpt><trkpt lat="37.98473035265109" lon="15.181403181090658"><ele>571.0</ele><time>2026-04-18T09:25:57Z</time></trkpt><trkpt lat="37.984691150153814" lon="15.181314310747586"><ele>571.0</ele><time>2026-04-18T09:25:58Z</time></trkpt><trkpt lat="37.98464869633161" lon="15.181226343758823"><ele>573.1666666666667</ele><time>2026-04-18T09:25:59Z</time></trkpt><trkpt lat="37.98460854334938" lon="15.181143264639779"><ele>575.3333333333334</ele><time>2026-04-18T09:26:00Z</time></trkpt><trkpt lat="37.98456776989453" lon="15.181058531374195"><ele>577.5</ele><time>2026-04-18T09:26:01Z</time></trkpt><trkpt lat="37.98452419673096" lon="15.180964178189194"><ele>579.6666666666666</ele><time>2026-04-18T09:26:02Z</time></trkpt><trkpt lat="37.98448396055277" lon="15.180877906020893"><ele>581.8333333333333</ele><time>2026-04-18T09:26:03Z</time></trkpt><trkpt lat="37.98444570817575" lon="15.180787095003843"><ele>584.0</ele><time>2026-04-18T09:26:04Z</time></trkpt><trkpt lat="37.984416985315434" lon="15.18069019108026"><ele>587.0</ele><time>2026-04-18T09:26:05Z</time></trkpt><trkpt lat="37.98439137520019" lon="15.180594663025685"><ele>590.0</ele><time>2026-04-18T09:26:06Z</time></trkpt><trkpt lat="37.98436643291219" lon="15.180492385523282"><ele>593.0</ele><time>2026-04-18T09:26:07Z</time></trkpt><trkpt lat="37.9843582622854" lon="15.180390252629616"><ele>596.0</ele><time>2026-04-18T09:26:08Z</time></trkpt><trkpt lat="37.984356411178304" lon="15.180284872365036"><ele>599.0</ele><time>2026-04-18T09:26:09Z</time></trkpt><trkpt lat="37.98436090790979" lon="15.180184289375143"><ele>602.0</ele><time>2026-04-18T09:26:10Z</time></trkpt><trkpt lat="37.98437211578333" lon="15.18008774865155"><ele>602.0</ele><time>2026-04-18T09:26:11Z</time></trkpt><trkpt lat="37.984388202850965" lon="15.179990716406458"><ele>602.0</ele><time>2026-04-18T09:26:12Z</time></trkpt><trkpt lat="37.98440941828789" lon="15.179884453981147"><ele>602.0</ele><time>2026-04-18T09:26:13Z</time></trkpt><trkpt lat="37.984429458931494" lon="15.179780609330674"><ele>602.0</ele><time>2026-04-18T09:26:14Z</time></trkpt><trkpt lat="37.98444700201755" lon="15.179673812654967"><ele>602.0</ele><time>2026-04-18T09:26:15Z</time></trkpt><trkpt lat="37.98447407061493" lon="15.179566299494253"><ele>602.0</ele><time>2026-04-18T09:26:16Z</time></trkpt><trkpt lat="37.98450213320393" lon="15.179449309371469"><ele>601.8000000000001</ele><time>2026-04-18T09:26:17Z</time></trkpt><trkpt lat="37.98453230073549" lon="15.179336928561879"><ele>601.6</ele><time>2026-04-18T09:26:18Z</time></trkpt><trkpt lat="37.98456110436162" lon="15.17922508417912"><ele>601.4000000000001</ele><time>2026-04-18T09:26:19Z</time></trkpt><trkpt lat="37.98458227382757" lon="15.179112531766654"><ele>601.2</ele><time>2026-04-18T09:26:20Z</time></trkpt><trkpt lat="37.984599195277795" lon="15.178998847514185"><ele>601.0</ele><time>2026-04-18T09:26:21Z</time></trkpt><trkpt lat="37.98461262703475" lon="15.178885033396666"><ele>601.0</ele><time>2026-04-18T09:26:22Z</time></trkpt><trkpt lat="37.98462787343856" lon="15.178760796710508"><ele>601.0</ele><time>2026-04-18T09:26:23Z</time></trkpt><trkpt lat="37.984630626343716" lon="15.178635914774523"><ele>601.0</ele><time>2026-04-18T09:26:24Z</time></trkpt><trkpt lat="37.98462824261433" lon="15.17852237092922"><ele>601.0</ele><time>2026-04-18T09:26:24.999Z</time></trkpt><trkpt lat="37.984617698072086" lon="15.178408378807243"><ele>601.0</ele><time>2026-04-18T09:26:25.999Z</time></trkpt><trkpt lat="37.984602254801096" lon="15.178296796892955"><ele>601.0</ele><time>2026-04-18T09:26:26.999Z</time></trkpt><trkpt lat="37.98458859989292" lon="15.178189539968654"><ele>601.0</ele><time>2026-04-18T09:26:27.999Z</time></trkpt><trkpt lat="37.984570340512285" lon="15.17808424572459"><ele>601.0</ele><time>2026-04-18T09:26:28.999Z</time></trkpt><trkpt lat="37.98455402967263" lon="15.17797895573649"><ele>601.0</ele><time>2026-04-18T09:26:29.999Z</time></trkpt><trkpt lat="37.98454162227924" lon="15.177882284641818"><ele>601.0</ele><time>2026-04-18T09:26:30.999Z</time></trkpt><trkpt lat="37.98453065465261" lon="15.17778973983575"><ele>601.0</ele><time>2026-04-18T09:26:31.999Z</time></trkpt><trkpt lat="37.984520192521906" lon="15.177698015470353"><ele>600.8333333333334</ele><time>2026-04-18T09:26:32.999Z</time></trkpt><trkpt lat="37.98450657906948" lon="15.177606985786072"><ele>600.6666666666667</ele><time>2026-04-18T09:26:33.999Z</time></trkpt><trkpt lat="37.98449182421012" lon="15.177510317435303"><ele>600.5</ele><time>2026-04-18T09:26:34.999Z</time></trkpt><trkpt lat="37.984476173331785" lon="15.177413047741648"><ele>600.3333333333334</ele><time>2026-04-18T09:26:35.999Z</time></trkpt><trkpt lat="37.98445679420858" lon="15.177314327147547"><ele>600.1666666666666</ele><time>2026-04-18T09:26:36.999Z</time></trkpt><trkpt lat="37.98443614834288" lon="15.177216909133831"><ele>600.0</ele><time>2026-04-18T09:26:37.999Z</time></trkpt><trkpt lat="37.98441675510218" lon="15.177116597526835"><ele>601.3333333333334</ele><time>2026-04-18T09:26:38.999Z</time></trkpt><trkpt lat="37.984391640632836" lon="15.177013986901171"><ele>602.6666666666666</ele><time>2026-04-18T09:26:39.999Z</time></trkpt><trkpt lat="37.98436320639547" lon="15.176913507236659"><ele>604.0</ele><time>2026-04-18T09:26:40.999Z</time></trkpt><trkpt lat="37.98433087559239" lon="15.17681472686433"><ele>605.3333333333333</ele><time>2026-04-18T09:26:41.999Z</time></trkpt><trkpt lat="37.984289624903994" lon="15.176719975420903"><ele>606.6666666666666</ele><time>2026-04-18T09:26:42.999Z</time></trkpt><trkpt lat="37.98424836769079" lon="15.176624255313973"><ele>608.0</ele><time>2026-04-18T09:26:43.999Z</time></trkpt><trkpt lat="37.98420308047879" lon="15.17652693923684"><ele>608.0</ele><time>2026-04-18T09:26:44.999Z</time></trkpt><trkpt lat="37.98415430125388" lon="15.176431806254502"><ele>608.0</ele><time>2026-04-18T09:26:45.999Z</time></trkpt><trkpt lat="37.98410393455343" lon="15.17633659981055"><ele>608.0</ele><time>2026-04-18T09:26:46.999Z</time></trkpt><trkpt lat="37.98404822737495" lon="15.176238067823672"><ele>608.0</ele><time>2026-04-18T09:26:47.999Z</time></trkpt><trkpt lat="37.98399008687928" lon="15.17613716926313"><ele>608.0</ele><time>2026-04-18T09:26:48.999Z</time></trkpt><trkpt lat="37.98393459296972" lon="15.17602550013195"><ele>608.0</ele><time>2026-04-18T09:26:49.999Z</time></trkpt><trkpt lat="37.98388308263178" lon="15.175925141225864"><ele>608.0</ele><time>2026-04-18T09:26:50.999Z</time></trkpt><trkpt lat="37.98383234987442" lon="15.175832499261244"><ele>608.0</ele><time>2026-04-18T09:26:51.999Z</time></trkpt><trkpt lat="37.98378171074526" lon="15.175734487074612"><ele>608.0</ele><time>2026-04-18T09:26:52.999Z</time></trkpt><trkpt lat="37.9837277673929" lon="15.17564268160431"><ele>608.0</ele><time>2026-04-18T09:26:53.999Z</time></trkpt><trkpt lat="37.983677425384066" lon="15.175548332380913"><ele>609.6666666666666</ele><time>2026-04-18T09:26:54.999Z</time></trkpt><trkpt lat="37.9836313878689" lon="15.175457671449085"><ele>611.3333333333333</ele><time>2026-04-18T09:26:55.999Z</time></trkpt><trkpt lat="37.98358801593958" lon="15.175376818626594"><ele>613.0</ele><time>2026-04-18T09:26:56.999Z</time></trkpt><trkpt lat="37.983544776687175" lon="15.175294995327326"><ele>614.6666666666666</ele><time>2026-04-18T09:26:57.999Z</time></trkpt><trkpt lat="37.98350859351289" lon="15.175212545905271"><ele>616.3333333333334</ele><time>2026-04-18T09:26:58.999Z</time></trkpt><trkpt lat="37.98348726347292" lon="15.175126329956964"><ele>618.0</ele><time>2026-04-18T09:26:59.999Z</time></trkpt><trkpt lat="37.98347144041035" lon="15.17504189584382"><ele>618.0</ele><time>2026-04-18T09:27:00.999Z</time></trkpt><trkpt lat="37.983469640259365" lon="15.174961063800819"><ele>618.0</ele><time>2026-04-18T09:27:01.999Z</time></trkpt><trkpt lat="37.983483988303966" lon="15.174807363047153"><ele>618.0</ele><time>2026-04-18T09:27:03.999Z</time></trkpt><trkpt lat="37.983533174558595" lon="15.17466747499194"><ele>618.0</ele><time>2026-04-18T09:27:05.999Z</time></trkpt><trkpt lat="37.98356824558139" lon="15.17460113633011"><ele>618.0</ele><time>2026-04-18T09:27:06.999Z</time></trkpt><trkpt lat="37.983640812346074" lon="15.174490818975956"><ele>619.8333333333334</ele><time>2026-04-18T09:27:08.999Z</time></trkpt><trkpt lat="37.98367551123992" lon="15.174409109221726"><ele>621.6666666666666</ele><time>2026-04-18T09:27:10.999Z</time></trkpt><trkpt lat="37.98368483127377" lon="15.174312709346703"><ele>623.5</ele><time>2026-04-18T09:27:13.999Z</time></trkpt><trkpt lat="37.98366972535252" lon="15.174234052866595"><ele>625.3333333333333</ele><time>2026-04-18T09:27:15.999Z</time></trkpt><trkpt lat="37.98362034539439" lon="15.174165151532977"><ele>627.1666666666666</ele><time>2026-04-18T09:27:17.999Z</time></trkpt><trkpt lat="37.983523796208665" lon="15.174079209951714"><ele>629.0</ele><time>2026-04-18T09:27:19.999Z</time></trkpt><trkpt lat="37.98347083889631" lon="15.174032874115465"><ele>629.4</ele><time>2026-04-18T09:27:20.999Z</time></trkpt><trkpt lat="37.98337361017602" lon="15.173935973618862"><ele>629.8</ele><time>2026-04-18T09:27:22.999Z</time></trkpt><trkpt lat="37.983286785527625" lon="15.17383438227994"><ele>630.2</ele><time>2026-04-18T09:27:24.999Z</time></trkpt><trkpt lat="37.98320656265561" lon="15.17374253904975"><ele>630.6</ele><time>2026-04-18T09:27:26.999Z</time></trkpt><trkpt lat="37.983142235273185" lon="15.173662658996932"><ele>631.0</ele><time>2026-04-18T09:27:28.999Z</time></trkpt><trkpt lat="37.98307349469858" lon="15.173574968665811"><ele>629.2</ele><time>2026-04-18T09:27:30.999Z</time></trkpt><trkpt lat="37.98300535057072" lon="15.173523137680093"><ele>627.4000000000001</ele><time>2026-04-18T09:27:32.999Z</time></trkpt><trkpt lat="37.98293754848367" lon="15.1734467485083"><ele>625.6</ele><time>2026-04-18T09:27:58Z</time></trkpt><trkpt lat="37.98285931024929" lon="15.173370900685168"><ele>623.8000000000001</ele><time>2026-04-18T09:28:00Z</time></trkpt><trkpt lat="37.98278335517077" lon="15.173292726945112"><ele>622.0</ele><time>2026-04-18T09:28:02Z</time></trkpt><trkpt lat="37.98270637156174" lon="15.173214662184659"><ele>622.0</ele><time>2026-04-18T09:28:04Z</time></trkpt><trkpt lat="37.98263655948237" lon="15.173133181640175"><ele>636.0</ele><time>2026-04-18T09:28:06Z</time></trkpt><trkpt lat="37.98256388119334" lon="15.173053702201665"><ele>636.0</ele><time>2026-04-18T09:28:08Z</time></trkpt><trkpt lat="37.98249335080172" lon="15.172974050064928"><ele>632.0</ele><time>2026-04-18T09:28:10Z</time></trkpt><trkpt lat="37.98242591884841" lon="15.172901141332911"><ele>632.0</ele><time>2026-04-18T09:28:12Z</time></trkpt><trkpt lat="37.98237303857178" lon="15.172838939080743"><ele>632.0</ele><time>2026-04-18T09:28:15Z</time></trkpt></trkseg><trkseg><trkpt lat="37.83937820424194" lon="15.144673941871984"><ele>537.0</ele><time>2026-04-26T07:37:42.999Z</time></trkpt><trkpt lat="37.839448609049214" lon="15.144678657233085"><ele>537.0</ele><time>2026-04-26T07:37:43.999Z</time></trkpt><trkpt lat="37.839542711190646" lon="15.144674376373684"><ele>537.0</ele><time>2026-04-26T07:37:45.999Z</time></trkpt><trkpt lat="37.839627193317284" lon="15.144656300929288"><ele>537.0</ele><time>2026-04-26T07:37:47.999Z</time></trkpt><trkpt lat="37.83970058637516" lon="15.144646029817855"><ele>537.0</ele><time>2026-04-26T07:37:50.999Z</time></trkpt><trkpt lat="37.839770099406344" lon="15.1446361182404"><ele>537.0</ele><time>2026-04-26T07:37:53.999Z</time></trkpt><trkpt lat="37.83983699986027" lon="15.144637588280968"><ele>537.0</ele><time>2026-04-26T07:37:55.999Z</time></trkpt><trkpt lat="37.839928465177714" lon="15.144617832460442"><ele>537.0</ele><time>2026-04-26T07:37:57.999Z</time></trkpt><trkpt lat="37.84002113719775" lon="15.144610263507285"><ele>537.0</ele><time>2026-04-26T07:38:00Z</time></trkpt><trkpt lat="37.8401127897578" lon="15.144591483862444"><ele>537.0</ele><time>2026-04-26T07:38:02Z</time></trkpt><trkpt lat="37.840190533186416" lon="15.14458842826592"><ele>537.0</ele><time>2026-04-26T07:38:04Z</time></trkpt><trkpt lat="37.840270293587515" lon="15.14459694092201"><ele>537.0</ele><time>2026-04-26T07:38:07Z</time></trkpt><trkpt lat="37.84036166975168" lon="15.144582383440113"><ele>537.1666666666666</ele><time>2026-04-26T07:39:10.999Z</time></trkpt><trkpt lat="37.84046979783308" lon="15.144537736035874"><ele>537.3333333333334</ele><time>2026-04-26T07:39:12.999Z</time></trkpt><trkpt lat="37.840548311009286" lon="15.144464507778348"><ele>537.5</ele><time>2026-04-26T07:39:14.999Z</time></trkpt><trkpt lat="37.84060495690562" lon="15.144414743198404"><ele>537.6666666666667</ele><time>2026-04-26T07:39:16.999Z</time></trkpt><trkpt lat="37.840659658930356" lon="15.144353819679454"><ele>537.8333333333334</ele><time>2026-04-26T07:39:18.999Z</time></trkpt><trkpt lat="37.84072659937194" lon="15.144269998322411"><ele>538.0</ele><time>2026-04-26T07:39:20.999Z</time></trkpt><trkpt lat="37.84079448624497" lon="15.144203174097411"><ele>538.0</ele><time>2026-04-26T07:39:23.999Z</time></trkpt><trkpt lat="37.840838285349264" lon="15.144136525336608"><ele>538.0</ele><time>2026-04-26T07:39:25.999Z</time></trkpt><trkpt lat="37.84083453633868" lon="15.144025537526138"><ele>538.0</ele><time>2026-04-26T07:39:27.999Z</time></trkpt><trkpt lat="37.840775787575076" lon="15.143928076098245"><ele>538.0</ele><time>2026-04-26T07:39:29.999Z</time></trkpt><trkpt lat="37.84072282770187" lon="15.1438624905807"><ele>538.0</ele><time>2026-04-26T07:39:30.999Z</time></trkpt><trkpt lat="37.8406787080109" lon="15.143794371823176"><ele>538.0</ele><time>2026-04-26T07:39:31.999Z</time></trkpt><trkpt lat="37.84063401375046" lon="15.143733788862443"><ele>538.3333333333334</ele><time>2026-04-26T07:39:32.999Z</time></trkpt><trkpt lat="37.84059123092556" lon="15.14367152453751"><ele>538.6666666666667</ele><time>2026-04-26T07:39:33.999Z</time></trkpt><trkpt lat="37.84054784544123" lon="15.143608713666902"><ele>539.0</ele><time>2026-04-26T07:39:34.999Z</time></trkpt><trkpt lat="37.84045710917849" lon="15.143494559939962"><ele>539.3333333333334</ele><time>2026-04-26T07:39:36.999Z</time></trkpt><trkpt lat="37.84041388783414" lon="15.143428587470776"><ele>539.6666666666666</ele><time>2026-04-26T07:39:37.999Z</time></trkpt><trkpt lat="37.840366408851736" lon="15.143353951342608"><ele>540.0</ele><time>2026-04-26T07:39:38.999Z</time></trkpt><trkpt lat="37.84031841320174" lon="15.143286663792138"><ele>540.0</ele><time>2026-04-26T07:39:39.999Z</time></trkpt><trkpt lat="37.840264507909126" lon="15.14321536796546"><ele>540.0</ele><time>2026-04-26T07:39:40.999Z</time></trkpt><trkpt lat="37.84021367244705" lon="15.143143065617885"><ele>540.0</ele><time>2026-04-26T07:39:41.999Z</time></trkpt><trkpt lat="37.84016569450568" lon="15.14307100411208"><ele>540.0</ele><time>2026-04-26T07:39:42.999Z</time></trkpt><trkpt lat="37.84011123860233" lon="15.14299731951497"><ele>540.0</ele><time>2026-04-26T07:39:43.999Z</time></trkpt><trkpt lat="37.840059309673016" lon="15.142916228856377"><ele>540.0</ele><time>2026-04-26T07:39:44.999Z</time></trkpt><trkpt lat="37.83999806089017" lon="15.142830681755274"><ele>540.6666666666666</ele><time>2026-04-26T07:39:45.999Z</time></trkpt><trkpt lat="37.8399427394624" lon="15.142752058263854"><ele>541.3333333333334</ele><time>2026-04-26T07:39:46.999Z</time></trkpt><trkpt lat="37.83988670884941" lon="15.14267298888225"><ele>542.0</ele><time>2026-04-26T07:39:47.999Z</time></trkpt><trkpt lat="37.83983244830812" lon="15.142593538594088"><ele>542.6666666666667</ele><time>2026-04-26T07:39:48.999Z</time></trkpt><trkpt lat="37.83977594433283" lon="15.142515961704156"><ele>543.3333333333334</ele><time>2026-04-26T07:39:49.999Z</time></trkpt><trkpt lat="37.83972072569288" lon="15.142441879422337"><ele>544.0</ele><time>2026-04-26T07:39:50.999Z</time></trkpt><trkpt lat="37.839668599237555" lon="15.142360326418997"><ele>544.6666666666667</ele><time>2026-04-26T07:39:51.999Z</time></trkpt><trkpt lat="37.83961566120787" lon="15.142288552028674"><ele>545.3333333333334</ele><time>2026-04-26T07:39:52.999Z</time></trkpt><trkpt lat="37.839559793869135" lon="15.142217838379253"><ele>546.0</ele><time>2026-04-26T07:39:53.999Z</time></trkpt><trkpt lat="37.83951037874957" lon="15.142144177401379"><ele>546.6666666666666</ele><time>2026-04-26T07:39:54.999Z</time></trkpt><trkpt lat="37.83945438600259" lon="15.142079674519357"><ele>547.3333333333333</ele><time>2026-04-26T07:39:55.999Z</time></trkpt><trkpt lat="37.839417685010304" lon="15.142009542428898"><ele>548.0</ele><time>2026-04-26T07:39:56.999Z</time></trkpt><trkpt lat="37.83938563746508" lon="15.141847503109284"><ele>548.0</ele><time>2026-04-26T07:39:58.999Z</time></trkpt><trkpt lat="37.83939816566839" lon="15.14174609096357"><ele>548.0</ele><time>2026-04-26T07:39:59.999Z</time></trkpt><trkpt lat="37.839413995900415" lon="15.141634528143536"><ele>548.0</ele><time>2026-04-26T07:40:00.999Z</time></trkpt><trkpt lat="37.83943452316485" lon="15.141513605415103"><ele>548.0</ele><time>2026-04-26T07:40:01.999Z</time></trkpt><trkpt lat="37.83947056410966" lon="15.141405588610183"><ele>548.0</ele><time>2026-04-26T07:40:02.999Z</time></trkpt><trkpt lat="37.839497966162526" lon="15.14128285168729"><ele>548.4</ele><time>2026-04-26T07:40:03.999Z</time></trkpt><trkpt lat="37.839605518388815" lon="15.14120482936319"><ele>548.8</ele><time>2026-04-26T07:40:04.999Z</time></trkpt><trkpt lat="37.839682399943534" lon="15.141119962931063"><ele>549.2</ele><time>2026-04-26T07:40:06Z</time></trkpt><trkpt lat="37.83975099333224" lon="15.14106152689946"><ele>549.6</ele><time>2026-04-26T07:40:07Z</time></trkpt><trkpt lat="37.83982122839126" lon="15.140993971166726"><ele>550.0</ele><time>2026-04-26T07:40:08Z</time></trkpt><trkpt lat="37.83987751452841" lon="15.140922745371501"><ele>550.0</ele><time>2026-04-26T07:40:09Z</time></trkpt><trkpt lat="37.839931314649526" lon="15.14085427008007"><ele>550.0</ele><time>2026-04-26T07:40:10Z</time></trkpt><trkpt lat="37.8399855432268" lon="15.140788219138711"><ele>550.0</ele><time>2026-04-26T07:40:11Z</time></trkpt><trkpt lat="37.84003779720823" lon="15.140718616740568"><ele>550.0</ele><time>2026-04-26T07:40:12Z</time></trkpt><trkpt lat="37.84009384926973" lon="15.140652970640083"><ele>550.0</ele><time>2026-04-26T07:40:13Z</time></trkpt><trkpt lat="37.84014452146041" lon="15.140598233505715"><ele>550.0</ele><time>2026-04-26T07:40:14Z</time></trkpt><trkpt lat="37.84019697492581" lon="15.140531740236137"><ele>550.0</ele><time>2026-04-26T07:40:15Z</time></trkpt><trkpt lat="37.840242022441494" lon="15.140469301278351"><ele>550.2</ele><time>2026-04-26T07:40:16Z</time></trkpt><trkpt lat="37.84031963404097" lon="15.140373647679382"><ele>550.4</ele><time>2026-04-26T07:40:18Z</time></trkpt><trkpt lat="37.840384849618445" lon="15.140285596619227"><ele>550.6</ele><time>2026-04-26T07:40:20Z</time></trkpt><trkpt lat="37.84043524443032" lon="15.140197381906114"><ele>550.8</ele><time>2026-04-26T07:40:22Z</time></trkpt><trkpt lat="37.84036160234678" lon="15.140101615687463"><ele>551.0</ele><time>2026-04-26T07:40:23Z</time></trkpt><trkpt lat="37.840318837686745" lon="15.14002287796482"><ele>551.0</ele><time>2026-04-26T07:40:24Z</time></trkpt><trkpt lat="37.84028742139655" lon="15.139931145243292"><ele>551.0</ele><time>2026-04-26T07:40:25Z</time></trkpt><trkpt lat="37.840249232703826" lon="15.139843656487882"><ele>551.0</ele><time>2026-04-26T07:40:26Z</time></trkpt><trkpt lat="37.84020419128251" lon="15.139747298191882"><ele>551.0</ele><time>2026-04-26T07:40:27Z</time></trkpt><trkpt lat="37.84016024501728" lon="15.139653860007142"><ele>551.0</ele><time>2026-04-26T07:40:28Z</time></trkpt><trkpt lat="37.84012113267626" lon="15.139567931437806"><ele>551.0</ele><time>2026-04-26T07:40:29Z</time></trkpt><trkpt lat="37.84007786359119" lon="15.139473462746858"><ele>551.2</ele><time>2026-04-26T07:40:30Z</time></trkpt><trkpt lat="37.84003115941918" lon="15.139383526603776"><ele>551.4000000000001</ele><time>2026-04-26T07:40:31Z</time></trkpt><trkpt lat="37.839983408759664" lon="15.139306658046134"><ele>551.6</ele><time>2026-04-26T07:40:32Z</time></trkpt><trkpt lat="37.839902399122415" lon="15.139188134932061"><ele>551.8000000000001</ele><time>2026-04-26T07:40:34Z</time></trkpt><trkpt lat="37.839827715157064" lon="15.139078566143118"><ele>552.0</ele><time>2026-04-26T07:40:36Z</time></trkpt><trkpt lat="37.83977016041595" lon="15.138995278909961"><ele>552.0</ele><time>2026-04-26T07:40:38Z</time></trkpt><trkpt lat="37.83971835414594" lon="15.138920309881522"><ele>552.0</ele><time>2026-04-26T07:40:40Z</time></trkpt><trkpt lat="37.83965857784827" lon="15.138850296524357"><ele>552.0</ele><time>2026-04-26T07:40:42Z</time></trkpt><trkpt lat="37.8397094035265" lon="15.138746372769793"><ele>552.0</ele><time>2026-04-26T07:40:44Z</time></trkpt><trkpt lat="37.83976863937913" lon="15.138676325949055"><ele>552.0</ele><time>2026-04-26T07:40:45Z</time></trkpt><trkpt lat="37.83983280024233" lon="15.138586529480184"><ele>552.0</ele><time>2026-04-26T07:40:46Z</time></trkpt><trkpt lat="37.83990363698452" lon="15.1384857353219"><ele>552.0</ele><time>2026-04-26T07:40:47Z</time></trkpt><trkpt lat="37.8399726451537" lon="15.138399023939876"><ele>552.0</ele><time>2026-04-26T07:40:48Z</time></trkpt><trkpt lat="37.84003980799913" lon="15.138317653928711"><ele>552.0</ele><time>2026-04-26T07:40:49Z</time></trkpt><trkpt lat="37.84010362317967" lon="15.13824260417702"><ele>552.0</ele><time>2026-04-26T07:40:50Z</time></trkpt><trkpt lat="37.8401654410335" lon="15.138180275423501"><ele>552.0</ele><time>2026-04-26T07:40:51Z</time></trkpt><trkpt lat="37.840221311986575" lon="15.138115961380347"><ele>552.0</ele><time>2026-04-26T07:40:52Z</time></trkpt><trkpt lat="37.84025711349951" lon="15.13804175472217"><ele>553.3333333333334</ele><time>2026-04-26T07:40:53Z</time></trkpt><trkpt lat="37.840275699011094" lon="15.13794757833406"><ele>554.6666666666666</ele><time>2026-04-26T07:40:54Z</time></trkpt><trkpt lat="37.84026265450251" lon="15.137855687233914"><ele>556.0</ele><time>2026-04-26T07:40:55Z</time></trkpt><trkpt lat="37.84027924285238" lon="15.137769425176309"><ele>557.3333333333333</ele><time>2026-04-26T07:40:56Z</time></trkpt><trkpt lat="37.840282259777275" lon="15.137688878990753"><ele>558.6666666666666</ele><time>2026-04-26T07:40:57Z</time></trkpt><trkpt lat="37.84027296219462" lon="15.137528686878376"><ele>560.0</ele><time>2026-04-26T07:40:59Z</time></trkpt><trkpt lat="37.84029750393458" lon="15.137446943925633"><ele>560.0</ele><time>2026-04-26T07:40:59.999Z</time></trkpt><trkpt lat="37.84030161959791" lon="15.137354377218664"><ele>560.0</ele><time>2026-04-26T07:41:00.999Z</time></trkpt><trkpt lat="37.840303852473035" lon="15.137258921797251"><ele>560.0</ele><time>2026-04-26T07:41:01.999Z</time></trkpt><trkpt lat="37.84030198081531" lon="15.13716513489681"><ele>560.0</ele><time>2026-04-26T07:41:02.999Z</time></trkpt><trkpt lat="37.840298475412844" lon="15.1370734952013"><ele>560.0</ele><time>2026-04-26T07:41:03.999Z</time></trkpt><trkpt lat="37.84029332661174" lon="15.136970296802197"><ele>560.0</ele><time>2026-04-26T07:41:04.999Z</time></trkpt><trkpt lat="37.84028692034452" lon="15.136877177177913"><ele>560.0</ele><time>2026-04-26T07:41:05.999Z</time></trkpt><trkpt lat="37.84027468740646" lon="15.136777940658131"><ele>560.0</ele><time>2026-04-26T07:41:06.999Z</time></trkpt><trkpt lat="37.840264157794664" lon="15.136683277319719"><ele>560.0</ele><time>2026-04-26T07:41:07.999Z</time></trkpt><trkpt lat="37.84025798255405" lon="15.13659655616456"><ele>560.0</ele><time>2026-04-26T07:41:08.999Z</time></trkpt><trkpt lat="37.84024337880651" lon="15.136490498094098"><ele>560.0</ele><time>2026-04-26T07:41:09.999Z</time></trkpt><trkpt lat="37.84023912908054" lon="15.1363847844237"><ele>560.0</ele><time>2026-04-26T07:41:10.999Z</time></trkpt><trkpt lat="37.84024818958259" lon="15.13628731155344"><ele>560.3333333333333</ele><time>2026-04-26T07:41:11.999Z</time></trkpt><trkpt lat="37.84024189261492" lon="15.136189474987068"><ele>560.6666666666666</ele><time>2026-04-26T07:41:12.999Z</time></trkpt><trkpt lat="37.84020487933176" lon="15.136095803093438"><ele>561.0</ele><time>2026-04-26T07:41:13.999Z</time></trkpt><trkpt lat="37.84017139225157" lon="15.13601533691185"><ele>561.3333333333334</ele><time>2026-04-26T07:41:14.999Z</time></trkpt><trkpt lat="37.840121018158335" lon="15.135936546681505"><ele>561.6666666666667</ele><time>2026-04-26T07:41:15.999Z</time></trkpt><trkpt lat="37.840085441852786" lon="15.135841813641614"><ele>562.0</ele><time>2026-04-26T07:41:16.999Z</time></trkpt><trkpt lat="37.84004695119985" lon="15.135774464367637"><ele>562.8000000000001</ele><time>2026-04-26T07:41:17.999Z</time></trkpt><trkpt lat="37.83997518818256" lon="15.135638797532302"><ele>563.6</ele><time>2026-04-26T07:41:19.999Z</time></trkpt><trkpt lat="37.83992000966684" lon="15.135522363060355"><ele>564.4000000000001</ele><time>2026-04-26T07:41:21.999Z</time></trkpt><trkpt lat="37.83986306441479" lon="15.135375494069436"><ele>565.2</ele><time>2026-04-26T07:41:23.999Z</time></trkpt><trkpt lat="37.839823582564335" lon="15.13531338116775"><ele>566.0</ele><time>2026-04-26T07:41:24.999Z</time></trkpt><trkpt lat="37.839764866501376" lon="15.13523041831952"><ele>566.0</ele><time>2026-04-26T07:41:26.999Z</time></trkpt><trkpt lat="37.83971213502314" lon="15.135170696497893"><ele>566.0</ele><time>2026-04-26T07:41:38.999Z</time></trkpt><trkpt lat="37.8396316080165" lon="15.135120749067138"><ele>566.0</ele><time>2026-04-26T07:41:43.999Z</time></trkpt><trkpt lat="37.83957768811643" lon="15.135062286710422"><ele>566.0</ele><time>2026-04-26T07:41:45.999Z</time></trkpt><trkpt lat="37.83951544124553" lon="15.135027498185048"><ele>566.0</ele><time>2026-04-26T07:41:48.999Z</time></trkpt><trkpt lat="37.83945696504542" lon="15.134992280825339"><ele>566.0</ele><time>2026-04-26T07:42:00.999Z</time></trkpt><trkpt lat="37.839397545744035" lon="15.13495649548081"><ele>566.0</ele><time>2026-04-26T07:42:03.999Z</time></trkpt><trkpt lat="37.83938746476433" lon="15.134836949260727"><ele>565.75</ele><time>2026-04-26T07:42:05.999Z</time></trkpt><trkpt lat="37.839318007634475" lon="15.134788233919503"><ele>565.5</ele><time>2026-04-26T07:42:07.999Z</time></trkpt><trkpt lat="37.8391575883787" lon="15.135033900074005"><ele>565.25</ele><time>2026-04-26T07:42:09.999Z</time></trkpt><trkpt lat="37.839082813982756" lon="15.134980934767752"><ele>565.0</ele><time>2026-04-26T07:42:13Z</time></trkpt><trkpt lat="37.83911365664584" lon="15.134686168972495"><ele>565.5</ele><time>2026-04-26T07:42:16Z</time></trkpt><trkpt lat="37.83908017388578" lon="15.134606147565359"><ele>566.0</ele><time>2026-04-26T07:42:20Z</time></trkpt><trkpt lat="37.8389903547498" lon="15.134548630969544"><ele>566.5</ele><time>2026-04-26T07:42:22Z</time></trkpt><trkpt lat="37.8389522946612" lon="15.134471966777019"><ele>567.0</ele><time>2026-04-26T07:42:24Z</time></trkpt><trkpt lat="37.838952987271284" lon="15.134347626495348"><ele>567.5</ele><time>2026-04-26T07:42:26Z</time></trkpt><trkpt lat="37.83896925225393" lon="15.134224947395536"><ele>568.0</ele><time>2026-04-26T07:42:29Z</time></trkpt><trkpt lat="37.838994411397124" lon="15.13411637530028"><ele>568.6666666666667</ele><time>2026-04-26T07:42:31Z</time></trkpt><trkpt lat="37.83900030242246" lon="15.13400034034409"><ele>569.3333333333334</ele><time>2026-04-26T07:42:33Z</time></trkpt><trkpt lat="37.83898996739074" lon="15.133901950682727"><ele>570.0</ele><time>2026-04-26T07:42:35Z</time></trkpt><trkpt lat="37.83895822512772" lon="15.13378693168965"><ele>570.6666666666666</ele><time>2026-04-26T07:42:37Z</time></trkpt><trkpt lat="37.838934977611494" lon="15.133712148472004"><ele>571.3333333333333</ele><time>2026-04-26T07:42:39Z</time></trkpt><trkpt lat="37.838941262103766" lon="15.133605034052211"><ele>572.0</ele><time>2026-04-26T07:42:41Z</time></trkpt><trkpt lat="37.83893976444597" lon="15.133516050487552"><ele>572.0</ele><time>2026-04-26T07:42:43Z</time></trkpt><trkpt lat="37.83894111202078" lon="15.133412027200155"><ele>572.0</ele><time>2026-04-26T07:42:45Z</time></trkpt><trkpt lat="37.83894489574798" lon="15.133301876479887"><ele>572.0</ele><time>2026-04-26T07:42:47Z</time></trkpt><trkpt lat="37.83894754727885" lon="15.133200046752485"><ele>572.0</ele><time>2026-04-26T07:42:49Z</time></trkpt><trkpt lat="37.838863289033135" lon="15.133114837561262"><ele>572.0</ele><time>2026-04-26T07:42:52Z</time></trkpt><trkpt lat="37.83879735823008" lon="15.133039751694556"><ele>572.0</ele><time>2026-04-26T07:42:54Z</time></trkpt><trkpt lat="37.8387923020728" lon="15.132901652813986"><ele>572.6</ele><time>2026-04-26T07:42:56Z</time></trkpt><trkpt lat="37.83878691984045" lon="15.132731087632463"><ele>573.2</ele><time>2026-04-26T07:42:58Z</time></trkpt><trkpt lat="37.83876994399251" lon="15.132629328164036"><ele>573.8</ele><time>2026-04-26T07:42:59Z</time></trkpt><trkpt lat="37.83875735544455" lon="15.132528822757557"><ele>574.4</ele><time>2026-04-26T07:43:00Z</time></trkpt><trkpt lat="37.838737918555395" lon="15.132423951076746"><ele>575.0</ele><time>2026-04-26T07:43:01Z</time></trkpt><trkpt lat="37.8387102673042" lon="15.132319630118833"><ele>575.0</ele><time>2026-04-26T07:43:02Z</time></trkpt><trkpt lat="37.83866756102676" lon="15.13219610817951"><ele>575.0</ele><time>2026-04-26T07:43:03Z</time></trkpt><trkpt lat="37.83862221355114" lon="15.132077001936612"><ele>575.0</ele><time>2026-04-26T07:43:04Z</time></trkpt><trkpt lat="37.83856619666243" lon="15.131955888550873"><ele>575.0</ele><time>2026-04-26T07:43:05Z</time></trkpt><trkpt lat="37.83850615144355" lon="15.131838778950458"><ele>575.0</ele><time>2026-04-26T07:43:06Z</time></trkpt><trkpt lat="37.838434930905194" lon="15.131728003237138"><ele>575.0</ele><time>2026-04-26T07:43:07Z</time></trkpt><trkpt lat="37.838350190155914" lon="15.131631325116718"><ele>575.0</ele><time>2026-04-26T07:43:08Z</time></trkpt><trkpt lat="37.838278123152925" lon="15.131534075516212"><ele>575.0</ele><time>2026-04-26T07:43:09Z</time></trkpt><trkpt lat="37.8382340018077" lon="15.131413474507937"><ele>575.0</ele><time>2026-04-26T07:43:10Z</time></trkpt><trkpt lat="37.83820764516988" lon="15.131277170327506"><ele>575.0</ele><time>2026-04-26T07:43:11Z</time></trkpt><trkpt lat="37.83819871708397" lon="15.131134764724584"><ele>575.6</ele><time>2026-04-26T07:43:12Z</time></trkpt><trkpt lat="37.838228184466104" lon="15.130984986547462"><ele>576.2</ele><time>2026-04-26T07:43:12.999Z</time></trkpt><trkpt lat="37.83823128398129" lon="15.130853515154348"><ele>576.8</ele><time>2026-04-26T07:43:13.999Z</time></trkpt><trkpt lat="37.83825524918371" lon="15.130743869817048"><ele>577.4</ele><time>2026-04-26T07:43:14.999Z</time></trkpt><trkpt lat="37.83829831591024" lon="15.130640168303216"><ele>578.0</ele><time>2026-04-26T07:43:15.999Z</time></trkpt><trkpt lat="37.83836645832984" lon="15.1305682645638"><ele>578.5</ele><time>2026-04-26T07:43:16.999Z</time></trkpt><trkpt lat="37.83845193932289" lon="15.130542585909195"><ele>579.0</ele><time>2026-04-26T07:43:17.999Z</time></trkpt><trkpt lat="37.83854549757402" lon="15.130531493033073"><ele>579.5</ele><time>2026-04-26T07:43:18.999Z</time></trkpt><trkpt lat="37.838631995081" lon="15.130552732294193"><ele>580.0</ele><time>2026-04-26T07:43:19.999Z</time></trkpt><trkpt lat="37.838711641871676" lon="15.130601571934111"><ele>580.5</ele><time>2026-04-26T07:43:20.999Z</time></trkpt><trkpt lat="37.83879428068178" lon="15.13064758240418"><ele>581.0</ele><time>2026-04-26T07:43:21.999Z</time></trkpt><trkpt lat="37.83887125310416" lon="15.130644409420354"><ele>581.6666666666666</ele><time>2026-04-26T07:43:22.999Z</time></trkpt><trkpt lat="37.83894368705696" lon="15.130597445140225"><ele>582.3333333333333</ele><time>2026-04-26T07:43:23.999Z</time></trkpt><trkpt lat="37.838992430861985" lon="15.130514254732136"><ele>583.0</ele><time>2026-04-26T07:43:24.999Z</time></trkpt><trkpt lat="37.839019131926044" lon="15.130402224747288"><ele>583.6666666666666</ele><time>2026-04-26T07:43:25.999Z</time></trkpt><trkpt lat="37.83902816190947" lon="15.13028113043841"><ele>584.3333333333334</ele><time>2026-04-26T07:43:26.999Z</time></trkpt><trkpt lat="37.83902711441188" lon="15.130160070181065"><ele>585.0</ele><time>2026-04-26T07:43:27.999Z</time></trkpt><trkpt lat="37.839024415947094" lon="15.130045786387228"><ele>585.0</ele><time>2026-04-26T07:43:28.999Z</time></trkpt><trkpt lat="37.83903242773355" lon="15.129941130331174"><ele>585.0</ele><time>2026-04-26T07:43:29.999Z</time></trkpt><trkpt lat="37.83902898642743" lon="15.129850871571811"><ele>585.0</ele><time>2026-04-26T07:43:30.999Z</time></trkpt><trkpt lat="37.839030285633484" lon="15.129761065833636"><ele>585.0</ele><time>2026-04-26T07:43:31.999Z</time></trkpt><trkpt lat="37.83903972541552" lon="15.129678424630983"><ele>585.0</ele><time>2026-04-26T07:43:32.999Z</time></trkpt><trkpt lat="37.83905990880844" lon="15.129580281544317"><ele>585.0</ele><time>2026-04-26T07:43:33.999Z</time></trkpt><trkpt lat="37.83908594646637" lon="15.129477223167708"><ele>585.2</ele><time>2026-04-26T07:43:34.999Z</time></trkpt><trkpt lat="37.83911911728263" lon="15.129368433823773"><ele>585.4</ele><time>2026-04-26T07:43:35.999Z</time></trkpt><trkpt lat="37.8391727598979" lon="15.129254527535366"><ele>585.6</ele><time>2026-04-26T07:43:37.999Z</time></trkpt><trkpt lat="37.839235664151396" lon="15.129151538556215"><ele>585.8</ele><time>2026-04-26T07:43:39.999Z</time></trkpt><trkpt lat="37.839307389829614" lon="15.129032617898915"><ele>586.0</ele><time>2026-04-26T07:43:41.999Z</time></trkpt><trkpt lat="37.839255833419614" lon="15.128816591481515"><ele>587.0</ele><time>2026-04-26T07:43:43.999Z</time></trkpt><trkpt lat="37.83931489565272" lon="15.128698446278946"><ele>588.0</ele><time>2026-04-26T07:43:45.999Z</time></trkpt><trkpt lat="37.8393883219139" lon="15.128597902496363"><ele>589.0</ele><time>2026-04-26T07:43:47.999Z</time></trkpt><trkpt lat="37.83951039533843" lon="15.128507381549797"><ele>590.0</ele><time>2026-04-26T07:43:49.999Z</time></trkpt><trkpt lat="37.83957821723826" lon="15.128426899718946"><ele>590.0</ele><time>2026-04-26T07:43:50.999Z</time></trkpt><trkpt lat="37.839622518749174" lon="15.128349365076991"><ele>590.0</ele><time>2026-04-26T07:43:51.999Z</time></trkpt><trkpt lat="37.83967860537395" lon="15.128233479260338"><ele>590.0</ele><time>2026-04-26T07:43:53.999Z</time></trkpt><trkpt lat="37.83973354976266" lon="15.128128213095962"><ele>590.0</ele><time>2026-04-26T07:43:55.999Z</time></trkpt><trkpt lat="37.83977276950754" lon="15.128054519786208"><ele>590.0</ele><time>2026-04-26T07:43:56.999Z</time></trkpt><trkpt lat="37.83980902512218" lon="15.1279885923482"><ele>590.0</ele><time>2026-04-26T07:43:57.999Z</time></trkpt><trkpt lat="37.83985275301494" lon="15.127917416331368"><ele>590.1666666666666</ele><time>2026-04-26T07:43:58.999Z</time></trkpt><trkpt lat="37.839908810145175" lon="15.127828939685784"><ele>590.3333333333333</ele><time>2026-04-26T07:43:59.999Z</time></trkpt><trkpt lat="37.83996221374494" lon="15.12774784776842"><ele>590.5</ele><time>2026-04-26T07:44:00.999Z</time></trkpt><trkpt lat="37.840023422031194" lon="15.127659633203567"><ele>590.6666666666666</ele><time>2026-04-26T07:44:01.999Z</time></trkpt><trkpt lat="37.84008143501587" lon="15.127578517682469"><ele>590.8333333333334</ele><time>2026-04-26T07:44:02.999Z</time></trkpt><trkpt lat="37.84013261998625" lon="15.127489841100859"><ele>591.0</ele><time>2026-04-26T07:44:03.999Z</time></trkpt><trkpt lat="37.84018838085389" lon="15.12742953072305"><ele>591.4285714285714</ele><time>2026-04-26T07:44:04.999Z</time></trkpt><trkpt lat="37.84024859157485" lon="15.127343155448035"><ele>591.8571428571429</ele><time>2026-04-26T07:44:05.999Z</time></trkpt><trkpt lat="37.8402881222566" lon="15.127274654617658"><ele>592.2857142857143</ele><time>2026-04-26T07:44:06.999Z</time></trkpt><trkpt lat="37.84032242166411" lon="15.127186813127453"><ele>592.7142857142858</ele><time>2026-04-26T07:44:07.999Z</time></trkpt><trkpt lat="37.84034489967576" lon="15.127099378346228"><ele>593.1428571428572</ele><time>2026-04-26T07:44:08.999Z</time></trkpt><trkpt lat="37.84036140213618" lon="15.127015723847043"><ele>593.5714285714286</ele><time>2026-04-26T07:44:09.999Z</time></trkpt><trkpt lat="37.840380628329385" lon="15.126929305087616"><ele>594.0</ele><time>2026-04-26T07:44:10.999Z</time></trkpt><trkpt lat="37.840400859939436" lon="15.12683836679634"><ele>594.0</ele><time>2026-04-26T07:44:11.999Z</time></trkpt><trkpt lat="37.840420336532056" lon="15.126745235323153"><ele>594.0</ele><time>2026-04-26T07:44:12.999Z</time></trkpt><trkpt lat="37.84044298304128" lon="15.126639119047068"><ele>594.0</ele><time>2026-04-26T07:44:13.999Z</time></trkpt><trkpt lat="37.840468251344504" lon="15.126534173957204"><ele>594.0</ele><time>2026-04-26T07:44:14.999Z</time></trkpt><trkpt lat="37.840495020199356" lon="15.126431403901888"><ele>594.0</ele><time>2026-04-26T07:44:15.999Z</time></trkpt><trkpt lat="37.8405297697309" lon="15.126316390931919"><ele>594.0</ele><time>2026-04-26T07:44:16.999Z</time></trkpt><trkpt lat="37.84056884053044" lon="15.126196648981994"><ele>594.2</ele><time>2026-04-26T07:44:18Z</time></trkpt><trkpt lat="37.84060830845939" lon="15.126085435431008"><ele>594.4</ele><time>2026-04-26T07:44:19Z</time></trkpt><trkpt lat="37.84065258225894" lon="15.125961742062383"><ele>594.6</ele><time>2026-04-26T07:44:20Z</time></trkpt><trkpt lat="37.84069852897969" lon="15.12584485357611"><ele>594.8</ele><time>2026-04-26T07:44:21Z</time></trkpt><trkpt lat="37.840746051909434" lon="15.125730117184533"><ele>595.0</ele><time>2026-04-26T07:44:22Z</time></trkpt><trkpt lat="37.84079421967657" lon="15.125603765921849"><ele>595.4</ele><time>2026-04-26T07:44:23Z</time></trkpt><trkpt lat="37.84082990971287" lon="15.125474929419003"><ele>595.8</ele><time>2026-04-26T07:44:24Z</time></trkpt><trkpt lat="37.84084633383329" lon="15.125325852150016"><ele>596.2</ele><time>2026-04-26T07:44:25Z</time></trkpt><trkpt lat="37.840849890159376" lon="15.125179607231738"><ele>596.6</ele><time>2026-04-26T07:44:26Z</time></trkpt><trkpt lat="37.8408562603188" lon="15.12504888060594"><ele>597.0</ele><time>2026-04-26T07:44:27Z</time></trkpt><trkpt lat="37.84086797683443" lon="15.124904687219354"><ele>597.8000000000001</ele><time>2026-04-26T07:44:28Z</time></trkpt><trkpt lat="37.84087977419413" lon="15.124762968211858"><ele>598.6</ele><time>2026-04-26T07:44:29Z</time></trkpt><trkpt lat="37.840893294361436" lon="15.12462666048172"><ele>599.4000000000001</ele><time>2026-04-26T07:44:30Z</time></trkpt><trkpt lat="37.84091163976232" lon="15.124506842437489"><ele>600.2</ele><time>2026-04-26T07:44:31Z</time></trkpt><trkpt lat="37.84093602879121" lon="15.124362430798337"><ele>601.0</ele><time>2026-04-26T07:44:32Z</time></trkpt><trkpt lat="37.84096275781034" lon="15.12421693377059"><ele>601.2</ele><time>2026-04-26T07:44:33Z</time></trkpt><trkpt lat="37.840987333979726" lon="15.124074416295983"><ele>601.4000000000001</ele><time>2026-04-26T07:44:34Z</time></trkpt><trkpt lat="37.841039630541104" lon="15.123945469023218"><ele>601.6</ele><time>2026-04-26T07:44:35Z</time></trkpt><trkpt lat="37.841102724914116" lon="15.123832789697358"><ele>601.8000000000001</ele><time>2026-04-26T07:44:36Z</time></trkpt><trkpt lat="37.84117790037668" lon="15.12372995183911"><ele>602.0</ele><time>2026-04-26T07:44:37Z</time></trkpt><trkpt lat="37.84125212510272" lon="15.123632807299755"><ele>602.25</ele><time>2026-04-26T07:44:38Z</time></trkpt><trkpt lat="37.84133885290174" lon="15.12356449406169"><ele>602.5</ele><time>2026-04-26T07:44:39Z</time></trkpt><trkpt lat="37.84144231431161" lon="15.12350251771806"><ele>602.75</ele><time>2026-04-26T07:44:40Z</time></trkpt><trkpt lat="37.841550065546336" lon="15.12342697569001"><ele>603.0</ele><time>2026-04-26T07:44:41Z</time></trkpt><trkpt lat="37.84165227302301" lon="15.123351474823625"><ele>603.0</ele><time>2026-04-26T07:44:42Z</time></trkpt><trkpt lat="37.84175941098919" lon="15.123292671122567"><ele>603.0</ele><time>2026-04-26T07:44:43Z</time></trkpt><trkpt lat="37.84187693221255" lon="15.123199959851224"><ele>603.0</ele><time>2026-04-26T07:44:44Z</time></trkpt><trkpt lat="37.842003664221785" lon="15.123121818649846"><ele>603.0</ele><time>2026-04-26T07:44:45Z</time></trkpt><trkpt lat="37.84212936519369" lon="15.123044782374754"><ele>604.25</ele><time>2026-04-26T07:44:46Z</time></trkpt><trkpt lat="37.84223702396767" lon="15.122961567302188"><ele>605.5</ele><time>2026-04-26T07:44:47Z</time></trkpt><trkpt lat="37.842340345243095" lon="15.12287329787324"><ele>606.75</ele><time>2026-04-26T07:44:48Z</time></trkpt><trkpt lat="37.84242825046355" lon="15.122804172713353"><ele>608.0</ele><time>2026-04-26T07:44:49Z</time></trkpt><trkpt lat="37.842526962602975" lon="15.122740431623333"><ele>608.0</ele><time>2026-04-26T07:44:50Z</time></trkpt><trkpt lat="37.84261450250727" lon="15.122661015085264"><ele>608.0</ele><time>2026-04-26T07:44:51Z</time></trkpt><trkpt lat="37.84268785977517" lon="15.122582167394862"><ele>608.0</ele><time>2026-04-26T07:44:52Z</time></trkpt><trkpt lat="37.84275437034593" lon="15.122520105016665"><ele>608.0</ele><time>2026-04-26T07:44:53Z</time></trkpt><trkpt lat="37.84282422299524" lon="15.12244003438829"><ele>608.0</ele><time>2026-04-26T07:44:54Z</time></trkpt><trkpt lat="37.84287668325981" lon="15.122338661833748"><ele>608.8</ele><time>2026-04-26T07:44:55Z</time></trkpt><trkpt lat="37.84293830023545" lon="15.122271628015339"><ele>609.5999999999999</ele><time>2026-04-26T07:44:56Z</time></trkpt><trkpt lat="37.843004795175695" lon="15.122176537871697"><ele>610.4000000000001</ele><time>2026-04-26T07:44:57Z</time></trkpt><trkpt lat="37.84305251072873" lon="15.122069804228328"><ele>611.2</ele><time>2026-04-26T07:44:58Z</time></trkpt><trkpt lat="37.84311831846974" lon="15.121975082056165"><ele>612.0</ele><time>2026-04-26T07:44:59Z</time></trkpt><trkpt lat="37.843155556674084" lon="15.121881146281662"><ele>612.0</ele><time>2026-04-26T07:45:00Z</time></trkpt><trkpt lat="37.84316471017562" lon="15.12175931240342"><ele>612.0</ele><time>2026-04-26T07:45:01Z</time></trkpt><trkpt lat="37.84318901083656" lon="15.121639554324018"><ele>612.0</ele><time>2026-04-26T07:45:02Z</time></trkpt><trkpt lat="37.84320630891821" lon="15.121519127010314"><ele>612.0</ele><time>2026-04-26T07:45:03Z</time></trkpt><trkpt lat="37.84322347734824" lon="15.12139960231769"><ele>612.0</ele><time>2026-04-26T07:45:04Z</time></trkpt><trkpt lat="37.84322473967787" lon="15.121267776368583"><ele>613.2</ele><time>2026-04-26T07:45:05Z</time></trkpt><trkpt lat="37.8432458424808" lon="15.12112450323543"><ele>614.4000000000001</ele><time>2026-04-26T07:45:06Z</time></trkpt><trkpt lat="37.843283077883434" lon="15.12100255066881"><ele>615.5999999999999</ele><time>2026-04-26T07:45:07Z</time></trkpt><trkpt lat="37.843321149787904" lon="15.120905406373993"><ele>616.8</ele><time>2026-04-26T07:45:08Z</time></trkpt><trkpt lat="37.84335677823039" lon="15.120791498252391"><ele>618.0</ele><time>2026-04-26T07:45:09Z</time></trkpt><trkpt lat="37.84341330390275" lon="15.120693821647432"><ele>619.6</ele><time>2026-04-26T07:45:10Z</time></trkpt><trkpt lat="37.84346936589485" lon="15.120597816125272"><ele>621.1999999999999</ele><time>2026-04-26T07:45:11Z</time></trkpt><trkpt lat="37.84349442892411" lon="15.120481889071641"><ele>622.8</ele><time>2026-04-26T07:45:12Z</time></trkpt><trkpt lat="37.84352965181505" lon="15.120358418985369"><ele>624.4</ele><time>2026-04-26T07:45:13Z</time></trkpt><trkpt lat="37.84357403831301" lon="15.12023725403862"><ele>626.0</ele><time>2026-04-26T07:45:14Z</time></trkpt><trkpt lat="37.84361076834172" lon="15.12013529597372"><ele>626.0</ele><time>2026-04-26T07:45:15Z</time></trkpt><trkpt lat="37.843667448993266" lon="15.119998927437072"><ele>626.0</ele><time>2026-04-26T07:45:17Z</time></trkpt><trkpt lat="37.843702723780886" lon="15.119921033998253"><ele>626.0</ele><time>2026-04-26T07:45:18Z</time></trkpt><trkpt lat="37.84373314680622" lon="15.119833366975667"><ele>626.0</ele><time>2026-04-26T07:45:19Z</time></trkpt><trkpt lat="37.84376127947122" lon="15.119743743367305"><ele>626.0</ele><time>2026-04-26T07:45:20Z</time></trkpt><trkpt lat="37.8435707830067" lon="15.119322717872754"><ele>626.5</ele><time>2026-04-26T07:45:23Z</time></trkpt><trkpt lat="37.8436257378466" lon="15.119276057639288"><ele>627.0</ele><time>2026-04-26T07:45:24Z</time></trkpt><trkpt lat="37.84369747077917" lon="15.119242648674993"><ele>627.5</ele><time>2026-04-26T07:45:25Z</time></trkpt><trkpt lat="37.84378106442368" lon="15.119214650970914"><ele>628.0</ele><time>2026-04-26T07:45:26Z</time></trkpt><trkpt lat="37.843876334935544" lon="15.11918574994482"><ele>628.5</ele><time>2026-04-26T07:45:27Z</time></trkpt><trkpt lat="37.84396250388512" lon="15.119187482990716"><ele>629.0</ele><time>2026-04-26T07:45:28Z</time></trkpt><trkpt lat="37.84407075285183" lon="15.119195832092128"><ele>629.0</ele><time>2026-04-26T07:45:29Z</time></trkpt><trkpt lat="37.84418103485464" lon="15.119196411341056"><ele>629.0</ele><time>2026-04-26T07:45:30Z</time></trkpt><trkpt lat="37.84428614913216" lon="15.119193415534546"><ele>629.0</ele><time>2026-04-26T07:45:31Z</time></trkpt><trkpt lat="37.84439071378484" lon="15.119193902367583"><ele>629.0</ele><time>2026-04-26T07:45:32Z</time></trkpt><trkpt lat="37.8444925922882" lon="15.11919937868168"><ele>629.0</ele><time>2026-04-26T07:45:33Z</time></trkpt><trkpt lat="37.84457449572548" lon="15.119214312037768"><ele>628.8333333333333</ele><time>2026-04-26T07:45:34Z</time></trkpt><trkpt lat="37.84464015952059" lon="15.119222229090978"><ele>628.6666666666666</ele><time>2026-04-26T07:45:35Z</time></trkpt><trkpt lat="37.84473637935267" lon="15.119222417790285"><ele>628.5</ele><time>2026-04-26T07:45:36.999Z</time></trkpt><trkpt lat="37.84479372492" lon="15.119189164694786"><ele>628.3333333333334</ele><time>2026-04-26T07:45:38.999Z</time></trkpt><trkpt lat="37.844854134688276" lon="15.119123025055188"><ele>628.1666666666667</ele><time>2026-04-26T07:45:41.999Z</time></trkpt><trkpt lat="37.84490545910606" lon="15.119036882203725"><ele>628.0</ele><time>2026-04-26T07:45:43.999Z</time></trkpt><trkpt lat="37.84497238026349" lon="15.118949122085915"><ele>628.4</ele><time>2026-04-26T07:45:45.999Z</time></trkpt><trkpt lat="37.84505873116997" lon="15.11883007018784"><ele>628.8</ele><time>2026-04-26T07:45:47.999Z</time></trkpt><trkpt lat="37.84511475444757" lon="15.118748258686795"><ele>629.2</ele><time>2026-04-26T07:45:48.999Z</time></trkpt><trkpt lat="37.84519785531444" lon="15.118602739882848"><ele>629.6</ele><time>2026-04-26T07:45:50.999Z</time></trkpt><trkpt lat="37.84524248329137" lon="15.11853890703058"><ele>630.0</ele><time>2026-04-26T07:45:51.999Z</time></trkpt><trkpt lat="37.84529608238552" lon="15.118441464176337"><ele>630.4</ele><time>2026-04-26T07:45:52.999Z</time></trkpt><trkpt lat="37.84532257772225" lon="15.118367250093325"><ele>630.8</ele><time>2026-04-26T07:45:53.999Z</time></trkpt><trkpt lat="37.84534842446012" lon="15.118289815728577"><ele>631.2</ele><time>2026-04-26T07:45:54.999Z</time></trkpt><trkpt lat="37.84537640767587" lon="15.118159802529563"><ele>631.6</ele><time>2026-04-26T07:45:56.999Z</time></trkpt><trkpt lat="37.84542573522257" lon="15.118050814383933"><ele>632.0</ele><time>2026-04-26T07:45:58.999Z</time></trkpt><trkpt lat="37.84549901025068" lon="15.117940596445436"><ele>632.2</ele><time>2026-04-26T07:46:00.999Z</time></trkpt><trkpt lat="37.845584617760856" lon="15.117860854161616"><ele>632.4000000000001</ele><time>2026-04-26T07:46:02.999Z</time></trkpt><trkpt lat="37.8456616317591" lon="15.117802565940991"><ele>632.5999999999999</ele><time>2026-04-26T07:46:04.999Z</time></trkpt><trkpt lat="37.84579200180442" lon="15.117802268556906"><ele>632.8</ele><time>2026-04-26T07:46:07.999Z</time></trkpt><trkpt lat="37.84586351608095" lon="15.117806839354639"><ele>633.0</ele><time>2026-04-26T07:46:08.999Z</time></trkpt><trkpt lat="37.84592621661472" lon="15.117814866990125"><ele>633.4</ele><time>2026-04-26T07:46:09.999Z</time></trkpt><trkpt lat="37.84603338981126" lon="15.117835049644404"><ele>633.8</ele><time>2026-04-26T07:46:11.999Z</time></trkpt><trkpt lat="37.84612218027194" lon="15.117887535280774"><ele>634.2</ele><time>2026-04-26T07:46:13.999Z</time></trkpt><trkpt lat="37.84622918065453" lon="15.117891599470035"><ele>634.6</ele><time>2026-04-26T07:46:15.999Z</time></trkpt><trkpt lat="37.846292229584556" lon="15.117886106874625"><ele>635.0</ele><time>2026-04-26T07:46:16.999Z</time></trkpt><trkpt lat="37.84641432387778" lon="15.117883592540723"><ele>635.0</ele><time>2026-04-26T07:46:18.999Z</time></trkpt><trkpt lat="37.84648644458949" lon="15.117876851895208"><ele>635.0</ele><time>2026-04-26T07:46:19.999Z</time></trkpt><trkpt lat="37.84656604269289" lon="15.117864776528606"><ele>635.0</ele><time>2026-04-26T07:46:20.999Z</time></trkpt><trkpt lat="37.84663699817564" lon="15.11785604449533"><ele>635.0</ele><time>2026-04-26T07:46:21.999Z</time></trkpt><trkpt lat="37.846712655373416" lon="15.117847494028707"><ele>635.0</ele><time>2026-04-26T07:46:23Z</time></trkpt><trkpt lat="37.84678329660019" lon="15.117840980327793"><ele>635.0</ele><time>2026-04-26T07:46:24Z</time></trkpt><trkpt lat="37.84686722747687" lon="15.117833535288382"><ele>634.8333333333333</ele><time>2026-04-26T07:46:25Z</time></trkpt><trkpt lat="37.846944960099485" lon="15.117827528865606"><ele>634.6666666666666</ele><time>2026-04-26T07:46:26Z</time></trkpt><trkpt lat="37.84701937847122" lon="15.117821989017655"><ele>634.5</ele><time>2026-04-26T07:46:27Z</time></trkpt><trkpt lat="37.84710510700034" lon="15.1178188520324"><ele>634.3333333333334</ele><time>2026-04-26T07:46:28Z</time></trkpt><trkpt lat="37.84718193022995" lon="15.117809758539924"><ele>634.1666666666667</ele><time>2026-04-26T07:46:29Z</time></trkpt><trkpt lat="37.847251419287915" lon="15.1178008619056"><ele>634.0</ele><time>2026-04-26T07:46:30Z</time></trkpt><trkpt lat="37.847331876082826" lon="15.117787675644955"><ele>634.0</ele><time>2026-04-26T07:46:31Z</time></trkpt><trkpt lat="37.84739923801846" lon="15.117782476169435"><ele>634.0</ele><time>2026-04-26T07:46:32Z</time></trkpt><trkpt lat="37.84746875521304" lon="15.1177813852199"><ele>634.0</ele><time>2026-04-26T07:46:33Z</time></trkpt><trkpt lat="37.84754542509167" lon="15.11778340196491"><ele>634.0</ele><time>2026-04-26T07:46:34Z</time></trkpt><trkpt lat="37.84766574029118" lon="15.11780366908729"><ele>634.0</ele><time>2026-04-26T07:46:36Z</time></trkpt><trkpt lat="37.84779661132095" lon="15.117797060179296"><ele>634.3333333333334</ele><time>2026-04-26T07:46:38Z</time></trkpt><trkpt lat="37.8478825904458" lon="15.117786537585854"><ele>634.6666666666667</ele><time>2026-04-26T07:46:39Z</time></trkpt><trkpt lat="37.84794721613247" lon="15.117781644366618"><ele>635.0</ele><time>2026-04-26T07:46:40Z</time></trkpt><trkpt lat="37.84801456316347" lon="15.117780121781195"><ele>635.3333333333334</ele><time>2026-04-26T07:46:41Z</time></trkpt><trkpt lat="37.848142346153615" lon="15.117776705999795"><ele>635.6666666666666</ele><time>2026-04-26T07:46:43Z</time></trkpt><trkpt lat="37.84821498055646" lon="15.117767957534483"><ele>636.0</ele><time>2026-04-26T07:46:44Z</time></trkpt><trkpt lat="37.848341478419016" lon="15.117754383013743"><ele>636.0</ele><time>2026-04-26T07:46:46Z</time></trkpt><trkpt lat="37.84840010043732" lon="15.11778346142193"><ele>636.0</ele><time>2026-04-26T07:46:47Z</time></trkpt><trkpt lat="37.84846636528209" lon="15.11784192707743"><ele>636.0</ele><time>2026-04-26T07:46:48Z</time></trkpt><trkpt lat="37.848528939915404" lon="15.117896541406472"><ele>636.0</ele><time>2026-04-26T07:46:49Z</time></trkpt><trkpt lat="37.84859915892895" lon="15.117935994894152"><ele>636.0</ele><time>2026-04-26T07:46:50Z</time></trkpt><trkpt lat="37.84866272237028" lon="15.117986862393781"><ele>636.0</ele><time>2026-04-26T07:46:51Z</time></trkpt><trkpt lat="37.84871381408992" lon="15.118040357453552"><ele>636.0</ele><time>2026-04-26T07:46:52Z</time></trkpt><trkpt lat="37.848787966228876" lon="15.118065299049338"><ele>636.0</ele><time>2026-04-26T07:46:53Z</time></trkpt><trkpt lat="37.84889068974779" lon="15.118082189820793"><ele>636.0</ele><time>2026-04-26T07:46:54Z</time></trkpt><trkpt lat="37.84898616125809" lon="15.118101105476024"><ele>636.0</ele><time>2026-04-26T07:46:55Z</time></trkpt><trkpt lat="37.84905944703411" lon="15.11812770424266"><ele>636.0</ele><time>2026-04-26T07:46:56Z</time></trkpt><trkpt lat="37.84912242916893" lon="15.118146998136325"><ele>636.0</ele><time>2026-04-26T07:46:57Z</time></trkpt><trkpt lat="37.84921554222675" lon="15.118195714099738"><ele>636.0</ele><time>2026-04-26T07:46:59Z</time></trkpt><trkpt lat="37.849297076817365" lon="15.118288928768244"><ele>636.2</ele><time>2026-04-26T07:47:01Z</time></trkpt><trkpt lat="37.84940349207188" lon="15.11828370262551"><ele>636.4000000000001</ele><time>2026-04-26T07:47:03Z</time></trkpt><trkpt lat="37.849485899135985" lon="15.11828000801902"><ele>636.6</ele><time>2026-04-26T07:47:04Z</time></trkpt><trkpt lat="37.84956711769716" lon="15.118281516424371"><ele>636.8000000000001</ele><time>2026-04-26T07:47:05Z</time></trkpt><trkpt lat="37.84963824686666" lon="15.118273675173002"><ele>637.0</ele><time>2026-04-26T07:47:06Z</time></trkpt><trkpt lat="37.849747568102806" lon="15.118284626864517"><ele>637.0</ele><time>2026-04-26T07:47:08Z</time></trkpt><trkpt lat="37.849834054266736" lon="15.118354422055507"><ele>637.0</ele><time>2026-04-26T07:47:10Z</time></trkpt><trkpt lat="37.849940794383706" lon="15.118434140963242"><ele>637.0</ele><time>2026-04-26T07:47:12Z</time></trkpt><trkpt lat="37.85001901941618" lon="15.118436491719123"><ele>637.0</ele><time>2026-04-26T07:47:14Z</time></trkpt><trkpt lat="37.85008612282638" lon="15.118430999183786"><ele>637.0</ele><time>2026-04-26T07:47:17Z</time></trkpt><trkpt lat="37.85016217973807" lon="15.118451721647334"><ele>637.8333333333334</ele><time>2026-04-26T07:47:28Z</time></trkpt><trkpt lat="37.85022793645705" lon="15.118417415699474"><ele>638.6666666666667</ele><time>2026-04-26T07:47:31Z</time></trkpt><trkpt lat="37.85029406799478" lon="15.118362257945401"><ele>639.5</ele><time>2026-04-26T07:47:34Z</time></trkpt><trkpt lat="37.850348619015605" lon="15.118296973754305"><ele>640.3333333333334</ele><time>2026-04-26T07:47:36Z</time></trkpt><trkpt lat="37.85040379485816" lon="15.118228586150842"><ele>641.1666666666666</ele><time>2026-04-26T07:47:38Z</time></trkpt><trkpt lat="37.85046316460198" lon="15.118138474727132"><ele>642.0</ele><time>2026-04-26T07:47:40Z</time></trkpt><trkpt lat="37.850515140610206" lon="15.11801753623994"><ele>642.0</ele><time>2026-04-26T07:47:42Z</time></trkpt><trkpt lat="37.850548357678356" lon="15.11789297586201"><ele>642.0</ele><time>2026-04-26T07:47:44Z</time></trkpt><trkpt lat="37.85058137906064" lon="15.117813528603053"><ele>642.0</ele><time>2026-04-26T07:47:46Z</time></trkpt><trkpt lat="37.85061946459375" lon="15.117718057865547"><ele>642.0</ele><time>2026-04-26T07:47:49Z</time></trkpt><trkpt lat="37.85063381487093" lon="15.117619604920836"><ele>642.0</ele><time>2026-04-26T07:48:00Z</time></trkpt><trkpt lat="37.85062930924988" lon="15.117508340144514"><ele>642.0</ele><time>2026-04-26T07:48:01.999Z</time></trkpt><trkpt lat="37.85063590537233" lon="15.117359462494528"><ele>642.1666666666666</ele><time>2026-04-26T07:48:03.999Z</time></trkpt><trkpt lat="37.850698708965986" lon="15.117264959186182"><ele>642.3333333333334</ele><time>2026-04-26T07:48:05.999Z</time></trkpt><trkpt lat="37.850751500644414" lon="15.117208351098697"><ele>642.5</ele><time>2026-04-26T07:48:06.999Z</time></trkpt><trkpt lat="37.85080620782365" lon="15.117145318285216"><ele>642.6666666666667</ele><time>2026-04-26T07:48:07.999Z</time></trkpt><trkpt lat="37.85086152337239" lon="15.117069252378313"><ele>642.8333333333334</ele><time>2026-04-26T07:48:08.999Z</time></trkpt><trkpt lat="37.85090403437945" lon="15.116989326368548"><ele>643.0</ele><time>2026-04-26T07:48:09.999Z</time></trkpt><trkpt lat="37.85093209114155" lon="15.116889305725412"><ele>643.1666666666667</ele><time>2026-04-26T07:48:10.999Z</time></trkpt><trkpt lat="37.85095836433321" lon="15.116796323745609"><ele>643.3333333333334</ele><time>2026-04-26T07:48:11.999Z</time></trkpt><trkpt lat="37.850980360464405" lon="15.11670956864015"><ele>643.5</ele><time>2026-04-26T07:48:12.999Z</time></trkpt><trkpt lat="37.850997637066854" lon="15.116608459590868"><ele>643.6666666666666</ele><time>2026-04-26T07:48:13.999Z</time></trkpt><trkpt lat="37.85098932114236" lon="15.116516829152575"><ele>643.8333333333333</ele><time>2026-04-26T07:48:14.999Z</time></trkpt><trkpt lat="37.85094443049015" lon="15.116451452918398"><ele>644.0</ele><time>2026-04-26T07:48:15.999Z</time></trkpt><trkpt lat="37.85090485000806" lon="15.116366451842131"><ele>644.4000000000001</ele><time>2026-04-26T07:48:16.999Z</time></trkpt><trkpt lat="37.85089529584336" lon="15.116279307486703"><ele>644.8</ele><time>2026-04-26T07:48:17.999Z</time></trkpt><trkpt lat="37.850904713614014" lon="15.116183361669457"><ele>645.2</ele><time>2026-04-26T07:48:18.999Z</time></trkpt><trkpt lat="37.850926230982076" lon="15.1160886524624"><ele>645.5999999999999</ele><time>2026-04-26T07:48:19.999Z</time></trkpt><trkpt lat="37.85094648398039" lon="15.115925375777403"><ele>646.0</ele><time>2026-04-26T07:48:21.999Z</time></trkpt><trkpt lat="37.85092806695839" lon="15.115792115226354"><ele>646.4</ele><time>2026-04-26T07:48:23.999Z</time></trkpt><trkpt lat="37.85091737363371" lon="15.11569384468285"><ele>646.8</ele><time>2026-04-26T07:48:24.999Z</time></trkpt><trkpt lat="37.850903580954885" lon="15.115587562008725"><ele>647.1999999999999</ele><time>2026-04-26T07:48:25.999Z</time></trkpt><trkpt lat="37.85088562300535" lon="15.115460601977896"><ele>647.5999999999999</ele><time>2026-04-26T07:48:26.999Z</time></trkpt><trkpt lat="37.85087845552649" lon="15.11533024214833"><ele>648.0</ele><time>2026-04-26T07:48:27.999Z</time></trkpt><trkpt lat="37.850895861570145" lon="15.115213644093563"><ele>648.0</ele><time>2026-04-26T07:48:29Z</time></trkpt><trkpt lat="37.85092183138231" lon="15.115078955915491"><ele>648.0</ele><time>2026-04-26T07:48:30Z</time></trkpt><trkpt lat="37.850956754776476" lon="15.114948270547544"><ele>648.0</ele><time>2026-04-26T07:48:31Z</time></trkpt><trkpt lat="37.85100394992139" lon="15.114829574896183"><ele>648.0</ele><time>2026-04-26T07:48:32Z</time></trkpt><trkpt lat="37.85105350496937" lon="15.11471963518778"><ele>648.0</ele><time>2026-04-26T07:48:33Z</time></trkpt><trkpt lat="37.85110841356832" lon="15.11462817873359"><ele>647.5999999999999</ele><time>2026-04-26T07:48:34Z</time></trkpt><trkpt lat="37.851147643844584" lon="15.114554036190771"><ele>647.1999999999999</ele><time>2026-04-26T07:48:35Z</time></trkpt><trkpt lat="37.85119244468168" lon="15.114416849358948"><ele>646.8</ele><time>2026-04-26T07:48:37Z</time></trkpt><trkpt lat="37.85123991699865" lon="15.114324050485052"><ele>646.4</ele><time>2026-04-26T07:48:39Z</time></trkpt><trkpt lat="37.851324384352885" lon="15.114295547801378"><ele>646.0</ele><time>2026-04-26T07:48:41Z</time></trkpt><trkpt lat="37.851409491103595" lon="15.114337831339709"><ele>646.0</ele><time>2026-04-26T07:48:43Z</time></trkpt><trkpt lat="37.8514655930641" lon="15.114374752819435"><ele>646.0</ele><time>2026-04-26T07:48:44Z</time></trkpt><trkpt lat="37.85152625443038" lon="15.114423094477617"><ele>646.0</ele><time>2026-04-26T07:48:45Z</time></trkpt><trkpt lat="37.85158453501595" lon="15.114464363240257"><ele>646.0</ele><time>2026-04-26T07:48:46Z</time></trkpt><trkpt lat="37.85169324836834" lon="15.114513590911933"><ele>646.0</ele><time>2026-04-26T07:48:48Z</time></trkpt><trkpt lat="37.8517796438246" lon="15.114535251694388"><ele>646.0</ele><time>2026-04-26T07:48:50Z</time></trkpt><trkpt lat="37.85185569216704" lon="15.114531400762147"><ele>645.8</ele><time>2026-04-26T07:48:52Z</time></trkpt><trkpt lat="37.851919385542196" lon="15.114558742485984"><ele>645.5999999999999</ele><time>2026-04-26T07:48:54Z</time></trkpt><trkpt lat="37.85200447851258" lon="15.114574365130368"><ele>645.4</ele><time>2026-04-26T07:48:56Z</time></trkpt><trkpt lat="37.85210575841243" lon="15.114594482482387"><ele>645.2</ele><time>2026-04-26T07:48:58Z</time></trkpt><trkpt lat="37.852209458068074" lon="15.11460246225597"><ele>645.0</ele><time>2026-04-26T07:49:00Z</time></trkpt><trkpt lat="37.85230127130558" lon="15.114574589385862"><ele>645.0</ele><time>2026-04-26T07:49:02Z</time></trkpt><trkpt lat="37.85238265915625" lon="15.114561289155532"><ele>645.0</ele><time>2026-04-26T07:49:03Z</time></trkpt><trkpt lat="37.85249249398322" lon="15.114570595066125"><ele>645.0</ele><time>2026-04-26T07:49:04Z</time></trkpt><trkpt lat="37.85259720614688" lon="15.114591836950801"><ele>645.0</ele><time>2026-04-26T07:49:05Z</time></trkpt><trkpt lat="37.85268002245724" lon="15.114622753511858"><ele>645.0</ele><time>2026-04-26T07:49:06Z</time></trkpt><trkpt lat="37.85277374552731" lon="15.114671985278394"><ele>645.0</ele><time>2026-04-26T07:49:07Z</time></trkpt><trkpt lat="37.852837727827435" lon="15.114724290368763"><ele>645.0</ele><time>2026-04-26T07:49:08Z</time></trkpt><trkpt lat="37.85288746375726" lon="15.114776295970618"><ele>645.0</ele><time>2026-04-26T07:49:09Z</time></trkpt><trkpt lat="37.85294860730735" lon="15.114836683357858"><ele>645.0</ele><time>2026-04-26T07:49:10Z</time></trkpt><trkpt lat="37.8530314208884" lon="15.11491992852507"><ele>645.0</ele><time>2026-04-26T07:49:12Z</time></trkpt><trkpt lat="37.853092186782284" lon="15.114964468355835"><ele>645.0</ele><time>2026-04-26T07:49:13Z</time></trkpt><trkpt lat="37.853151141928464" lon="15.115002151329083"><ele>645.0</ele><time>2026-04-26T07:49:16Z</time></trkpt><trkpt lat="37.85323254541805" lon="15.114889764715274"><ele>645.0</ele><time>2026-04-26T07:49:17Z</time></trkpt><trkpt lat="37.85322327462617" lon="15.114972865793185"><ele>645.0</ele><time>2026-04-26T07:49:21Z</time></trkpt><trkpt lat="37.85328801178854" lon="15.114860424792196"><ele>645.0</ele><time>2026-04-26T07:49:50Z</time></trkpt><trkpt lat="37.85334791205966" lon="15.114759837522715"><ele>645.0</ele><time>2026-04-26T07:49:51Z</time></trkpt><trkpt lat="37.85342564062837" lon="15.114659339369256"><ele>643.75</ele><time>2026-04-26T07:49:52Z</time></trkpt><trkpt lat="37.853503078294864" lon="15.114547853121964"><ele>642.5</ele><time>2026-04-26T07:49:53Z</time></trkpt><trkpt lat="37.85360097094861" lon="15.114386800770587"><ele>641.25</ele><time>2026-04-26T07:49:54Z</time></trkpt><trkpt lat="37.853694211100304" lon="15.114252004256484"><ele>640.0</ele><time>2026-04-26T07:49:55Z</time></trkpt><trkpt lat="37.85378039203258" lon="15.114108671056039"><ele>639.5</ele><time>2026-04-26T07:49:56Z</time></trkpt><trkpt lat="37.85385900179228" lon="15.113958427041515"><ele>639.0</ele><time>2026-04-26T07:49:57Z</time></trkpt><trkpt lat="37.85393431716227" lon="15.11380397618412"><ele>638.5</ele><time>2026-04-26T07:49:58Z</time></trkpt><trkpt lat="37.85400513282722" lon="15.113633992071753"><ele>638.0</ele><time>2026-04-26T07:49:59Z</time></trkpt><trkpt lat="37.854075658378385" lon="15.11345001961535"><ele>638.0</ele><time>2026-04-26T07:50:00Z</time></trkpt><trkpt lat="37.854140801135806" lon="15.113262329199472"><ele>638.0</ele><time>2026-04-26T07:50:01Z</time></trkpt><trkpt lat="37.85420113022618" lon="15.113065108308064"><ele>638.0</ele><time>2026-04-26T07:50:02Z</time></trkpt><trkpt lat="37.85424407432442" lon="15.112878740562083"><ele>636.5</ele><time>2026-04-26T07:50:03Z</time></trkpt><trkpt lat="37.854287547522965" lon="15.112693226125398"><ele>635.0</ele><time>2026-04-26T07:50:04Z</time></trkpt><trkpt lat="37.85431030205033" lon="15.112509988949412"><ele>633.5</ele><time>2026-04-26T07:50:05Z</time></trkpt><trkpt lat="37.85431375102847" lon="15.11233814369386"><ele>632.0</ele><time>2026-04-26T07:50:06Z</time></trkpt><trkpt lat="37.85432875095293" lon="15.11219294979899"><ele>631.1666666666666</ele><time>2026-04-26T07:50:07Z</time></trkpt><trkpt lat="37.854337387728364" lon="15.112064775987054"><ele>630.3333333333333</ele><time>2026-04-26T07:50:08Z</time></trkpt><trkpt lat="37.85434463337236" lon="15.111959178987114"><ele>629.5</ele><time>2026-04-26T07:50:09Z</time></trkpt><trkpt lat="37.85436170500811" lon="15.111870044973868"><ele>628.6666666666666</ele><time>2026-04-26T07:50:10Z</time></trkpt><trkpt lat="37.85443605778094" lon="15.111753605418208"><ele>627.8333333333334</ele><time>2026-04-26T07:50:12Z</time></trkpt><trkpt lat="37.85450147486095" lon="15.111730920650423"><ele>627.0</ele><time>2026-04-26T07:50:13Z</time></trkpt><trkpt lat="37.854575963941954" lon="15.1117530283476"><ele>627.0</ele><time>2026-04-26T07:50:14Z</time></trkpt><trkpt lat="37.85464744818112" lon="15.111777436362056"><ele>627.0</ele><time>2026-04-26T07:50:14.999Z</time></trkpt><trkpt lat="37.85468800366236" lon="15.111933604625793"><ele>627.0</ele><time>2026-04-26T07:50:15.999Z</time></trkpt><trkpt lat="37.85474390516384" lon="15.112081053366383"><ele>627.0</ele><time>2026-04-26T07:50:16.999Z</time></trkpt><trkpt lat="37.85481050651568" lon="15.11224778546794"><ele>627.0</ele><time>2026-04-26T07:50:17.999Z</time></trkpt><trkpt lat="37.854880827804934" lon="15.112426639043205"><ele>627.0</ele><time>2026-04-26T07:50:18.999Z</time></trkpt><trkpt lat="37.85494896416911" lon="15.112614116111452"><ele>627.0</ele><time>2026-04-26T07:50:19.999Z</time></trkpt><trkpt lat="37.85501349590361" lon="15.112802584996277"><ele>627.0</ele><time>2026-04-26T07:50:20.999Z</time></trkpt><trkpt lat="37.85508116202879" lon="15.11297877382091"><ele>627.0</ele><time>2026-04-26T07:50:21.999Z</time></trkpt><trkpt lat="37.85514844039402" lon="15.113152055330115"><ele>627.0</ele><time>2026-04-26T07:50:22.999Z</time></trkpt><trkpt lat="37.85521557048858" lon="15.113301035913143"><ele>627.0</ele><time>2026-04-26T07:50:23.999Z</time></trkpt><trkpt lat="37.85529778575729" lon="15.113424406225903"><ele>627.2</ele><time>2026-04-26T07:50:24.999Z</time></trkpt><trkpt lat="37.855380694767575" lon="15.113518583232363"><ele>627.4000000000001</ele><time>2026-04-26T07:50:25.999Z</time></trkpt><trkpt lat="37.85544280304175" lon="15.113590694158939"><ele>627.5999999999999</ele><time>2026-04-26T07:50:26.999Z</time></trkpt><trkpt lat="37.85548915445806" lon="15.113657067120416"><ele>627.8</ele><time>2026-04-26T07:50:27.999Z</time></trkpt><trkpt lat="37.85554630266077" lon="15.113738749639275"><ele>628.0</ele><time>2026-04-26T07:50:29.999Z</time></trkpt><trkpt lat="37.85568385102335" lon="15.113724682468005"><ele>628.0</ele><time>2026-04-26T07:50:32.999Z</time></trkpt><trkpt lat="37.85574765885389" lon="15.113673268907736"><ele>628.0</ele><time>2026-04-26T07:50:33.999Z</time></trkpt><trkpt lat="37.85582766124713" lon="15.113640431668252"><ele>628.0</ele><time>2026-04-26T07:50:35Z</time></trkpt><trkpt lat="37.85593018123144" lon="15.113620134028341"><ele>628.0</ele><time>2026-04-26T07:50:36Z</time></trkpt><trkpt lat="37.85604408649944" lon="15.113602477053217"><ele>628.0</ele><time>2026-04-26T07:50:37Z</time></trkpt><trkpt lat="37.856168172122985" lon="15.113605983684014"><ele>627.8</ele><time>2026-04-26T07:50:37.999Z</time></trkpt><trkpt lat="37.85627751667174" lon="15.113595821967168"><ele>627.5999999999999</ele><time>2026-04-26T07:50:38.999Z</time></trkpt><trkpt lat="37.8563686724617" lon="15.113599162599956"><ele>627.4000000000001</ele><time>2026-04-26T07:50:39.999Z</time></trkpt><trkpt lat="37.856455594697245" lon="15.113602155773886"><ele>627.2</ele><time>2026-04-26T07:50:40.999Z</time></trkpt><trkpt lat="37.85656114161734" lon="15.113589019347422"><ele>627.0</ele><time>2026-04-26T07:50:41.999Z</time></trkpt><trkpt lat="37.856657649142825" lon="15.113589590911674"><ele>627.0</ele><time>2026-04-26T07:50:42.999Z</time></trkpt><trkpt lat="37.85675204165912" lon="15.113579398335823"><ele>627.0</ele><time>2026-04-26T07:50:43.999Z</time></trkpt><trkpt lat="37.85683925796844" lon="15.113574714123253"><ele>627.0</ele><time>2026-04-26T07:50:44.999Z</time></trkpt><trkpt lat="37.856923770951916" lon="15.113571020380494"><ele>627.0</ele><time>2026-04-26T07:50:45.999Z</time></trkpt><trkpt lat="37.85699603148149" lon="15.11358836350821"><ele>627.0</ele><time>2026-04-26T07:50:46.999Z</time></trkpt><trkpt lat="37.8571264695375" lon="15.113561949951213"><ele>626.6</ele><time>2026-04-26T07:50:48.999Z</time></trkpt><trkpt lat="37.85723077968722" lon="15.113576679631088"><ele>626.2</ele><time>2026-04-26T07:50:50.999Z</time></trkpt><trkpt lat="37.85732122751003" lon="15.11357150174779"><ele>625.8</ele><time>2026-04-26T07:50:52.999Z</time></trkpt><trkpt lat="37.85738072956745" lon="15.11339746722171"><ele>625.4</ele><time>2026-04-26T07:50:53.999Z</time></trkpt><trkpt lat="37.85744649975279" lon="15.113313073335991"><ele>625.0</ele><time>2026-04-26T07:50:54.999Z</time></trkpt><trkpt lat="37.85752807263794" lon="15.113221103710512"><ele>624.5</ele><time>2026-04-26T07:50:55.999Z</time></trkpt><trkpt lat="37.85760744115827" lon="15.11313780964045"><ele>624.0</ele><time>2026-04-26T07:50:56.999Z</time></trkpt><trkpt lat="37.857698818727656" lon="15.11305769073596"><ele>623.5</ele><time>2026-04-26T07:50:57.999Z</time></trkpt><trkpt lat="37.85780268362957" lon="15.112978972803441"><ele>623.0</ele><time>2026-04-26T07:50:58.999Z</time></trkpt><trkpt lat="37.85790838913362" lon="15.112904281338865"><ele>623.0</ele><time>2026-04-26T07:50:59.999Z</time></trkpt><trkpt lat="37.85800912530843" lon="15.112833474873607"><ele>623.0</ele><time>2026-04-26T07:51:00.999Z</time></trkpt><trkpt lat="37.85810895869546" lon="15.112762030007907"><ele>623.0</ele><time>2026-04-26T07:51:01.999Z</time></trkpt><trkpt lat="37.85820371221082" lon="15.112669294494735"><ele>623.0</ele><time>2026-04-26T07:51:02.999Z</time></trkpt><trkpt lat="37.858308663262086" lon="15.112590206325354"><ele>623.0</ele><time>2026-04-26T07:51:03.999Z</time></trkpt><trkpt lat="37.85841940420749" lon="15.112515625774487"><ele>623.0</ele><time>2026-04-26T07:51:04.999Z</time></trkpt><trkpt lat="37.85853565903368" lon="15.112442815041078"><ele>623.0</ele><time>2026-04-26T07:51:05.999Z</time></trkpt><trkpt lat="37.858636093487426" lon="15.11236731554086"><ele>623.0</ele><time>2026-04-26T07:51:06.999Z</time></trkpt><trkpt lat="37.85872143160504" lon="15.112295516951852"><ele>623.3333333333333</ele><time>2026-04-26T07:51:07.999Z</time></trkpt><trkpt lat="37.85879285741246" lon="15.112265712617742"><ele>623.6666666666666</ele><time>2026-04-26T07:51:08.999Z</time></trkpt><trkpt lat="37.858862246183044" lon="15.112242414608907"><ele>624.0</ele><time>2026-04-26T07:51:09.999Z</time></trkpt><trkpt lat="37.85894516372884" lon="15.112242270044378"><ele>624.3333333333334</ele><time>2026-04-26T07:51:10.999Z</time></trkpt><trkpt lat="37.85903044853981" lon="15.112235697038694"><ele>624.6666666666667</ele><time>2026-04-26T07:51:11.999Z</time></trkpt><trkpt lat="37.85911577804812" lon="15.112189826632013"><ele>625.0</ele><time>2026-04-26T07:51:12.999Z</time></trkpt><trkpt lat="37.85917850618758" lon="15.112143994640876"><ele>625.0</ele><time>2026-04-26T07:51:13.999Z</time></trkpt><trkpt lat="37.85925502324408" lon="15.11207777760111"><ele>625.0</ele><time>2026-04-26T07:51:14.999Z</time></trkpt><trkpt lat="37.85932514330102" lon="15.111996843623471"><ele>625.0</ele><time>2026-04-26T07:51:15.999Z</time></trkpt><trkpt lat="37.8593928997115" lon="15.111894490103063"><ele>625.0</ele><time>2026-04-26T07:51:16.999Z</time></trkpt><trkpt lat="37.859467059573376" lon="15.111804991287634"><ele>625.0</ele><time>2026-04-26T07:51:17.999Z</time></trkpt><trkpt lat="37.85953175385226" lon="15.111704731520499"><ele>625.2</ele><time>2026-04-26T07:51:18.999Z</time></trkpt><trkpt lat="37.85960219648857" lon="15.111610249608571"><ele>625.4</ele><time>2026-04-26T07:51:19.999Z</time></trkpt><trkpt lat="37.859676917984295" lon="15.111529941382926"><ele>625.6</ele><time>2026-04-26T07:51:20.999Z</time></trkpt><trkpt lat="37.85975136218413" lon="15.11145241181145"><ele>625.8</ele><time>2026-04-26T07:51:21.999Z</time></trkpt><trkpt lat="37.85983083207852" lon="15.111371431795865"><ele>626.0</ele><time>2026-04-26T07:51:22.999Z</time></trkpt><trkpt lat="37.85991546287844" lon="15.111282685258082"><ele>626.0</ele><time>2026-04-26T07:51:23.999Z</time></trkpt><trkpt lat="37.85999451006325" lon="15.11119400651772"><ele>626.0</ele><time>2026-04-26T07:51:24.999Z</time></trkpt><trkpt lat="37.86007367431277" lon="15.111109966843816"><ele>626.0</ele><time>2026-04-26T07:51:25.999Z</time></trkpt><trkpt lat="37.86015918368303" lon="15.111033885285321"><ele>626.0</ele><time>2026-04-26T07:51:26.999Z</time></trkpt><trkpt lat="37.860245713084254" lon="15.11096888262012"><ele>626.0</ele><time>2026-04-26T07:51:27.999Z</time></trkpt><trkpt lat="37.860324925301484" lon="15.110911661334022"><ele>626.1666666666666</ele><time>2026-04-26T07:51:28.999Z</time></trkpt><trkpt lat="37.860392548090694" lon="15.11086844759344"><ele>626.3333333333333</ele><time>2026-04-26T07:51:29.999Z</time></trkpt><trkpt lat="37.86045749743797" lon="15.110829116148249"><ele>626.5</ele><time>2026-04-26T07:51:30.999Z</time></trkpt><trkpt lat="37.86053460475289" lon="15.11083416266019"><ele>626.6666666666666</ele><time>2026-04-26T07:51:31.999Z</time></trkpt><trkpt lat="37.8606006707246" lon="15.110863103811758"><ele>626.8333333333334</ele><time>2026-04-26T07:51:32.999Z</time></trkpt><trkpt lat="37.86068247233699" lon="15.11090465908821"><ele>627.0</ele><time>2026-04-26T07:51:33.999Z</time></trkpt><trkpt lat="37.860778855792965" lon="15.110948841483468"><ele>627.0</ele><time>2026-04-26T07:51:34.999Z</time></trkpt><trkpt lat="37.86087308835574" lon="15.110988033192001"><ele>627.0</ele><time>2026-04-26T07:51:35.999Z</time></trkpt><trkpt lat="37.86097363353003" lon="15.111032620074035"><ele>627.0</ele><time>2026-04-26T07:51:36.999Z</time></trkpt><trkpt lat="37.8610724749603" lon="15.111077440553998"><ele>627.0</ele><time>2026-04-26T07:51:37.999Z</time></trkpt><trkpt lat="37.86116816275074" lon="15.111124083158076"><ele>627.0</ele><time>2026-04-26T07:51:38.999Z</time></trkpt><trkpt lat="37.8612703300498" lon="15.111161265227196"><ele>627.6</ele><time>2026-04-26T07:51:39.999Z</time></trkpt><trkpt lat="37.86137668153073" lon="15.111192313988434"><ele>628.2</ele><time>2026-04-26T07:51:40.999Z</time></trkpt><trkpt lat="37.861473011633805" lon="15.111201501482606"><ele>628.8</ele><time>2026-04-26T07:51:41.999Z</time></trkpt><trkpt lat="37.86154935577003" lon="15.111224149341508"><ele>629.4</ele><time>2026-04-26T07:51:42.999Z</time></trkpt><trkpt lat="37.861620324856055" lon="15.111242996516077"><ele>630.0</ele><time>2026-04-26T07:51:43.999Z</time></trkpt><trkpt lat="37.86174784566778" lon="15.111255678976374"><ele>629.0</ele><time>2026-04-26T07:51:45.999Z</time></trkpt><trkpt lat="37.86183273573728" lon="15.111216925737372"><ele>628.0</ele><time>2026-04-26T07:51:46.999Z</time></trkpt><trkpt lat="37.86189280149417" lon="15.111152653357566"><ele>627.0</ele><time>2026-04-26T07:51:47.999Z</time></trkpt><trkpt lat="37.861977233503616" lon="15.111093734217302"><ele>626.0</ele><time>2026-04-26T07:51:48.999Z</time></trkpt><trkpt lat="37.862077852968916" lon="15.110983076841997"><ele>625.0</ele><time>2026-04-26T07:51:49.999Z</time></trkpt><trkpt lat="37.86217347188537" lon="15.110874679377297"><ele>625.0</ele><time>2026-04-26T07:51:50.999Z</time></trkpt><trkpt lat="37.862267948769045" lon="15.110761117132817"><ele>625.0</ele><time>2026-04-26T07:51:51.999Z</time></trkpt><trkpt lat="37.86234493641354" lon="15.110661676540625"><ele>625.0</ele><time>2026-04-26T07:51:52.999Z</time></trkpt><trkpt lat="37.86241432803506" lon="15.110558990555559"><ele>625.0</ele><time>2026-04-26T07:51:53.999Z</time></trkpt><trkpt lat="37.86248022545595" lon="15.110447463691921"><ele>625.2</ele><time>2026-04-26T07:51:54.999Z</time></trkpt><trkpt lat="37.86254697720596" lon="15.110321269609178"><ele>625.4</ele><time>2026-04-26T07:51:55.999Z</time></trkpt><trkpt lat="37.86260642756038" lon="15.110197049213486"><ele>625.6</ele><time>2026-04-26T07:51:56.999Z</time></trkpt><trkpt lat="37.86264592517797" lon="15.110106842874844"><ele>625.8</ele><time>2026-04-26T07:51:57.999Z</time></trkpt><trkpt lat="37.86268519968637" lon="15.110013341306235"><ele>626.0</ele><time>2026-04-26T07:51:58.999Z</time></trkpt><trkpt lat="37.8627232834967" lon="15.109914291202193"><ele>625.6666666666666</ele><time>2026-04-26T07:51:59.999Z</time></trkpt><trkpt lat="37.86275565584392" lon="15.109825986201958"><ele>625.3333333333333</ele><time>2026-04-26T07:52:00.999Z</time></trkpt><trkpt lat="37.86277897779577" lon="15.109738541693394"><ele>625.0</ele><time>2026-04-26T07:52:01.999Z</time></trkpt><trkpt lat="37.86280466522405" lon="15.109647677647093"><ele>624.6666666666666</ele><time>2026-04-26T07:52:02.999Z</time></trkpt><trkpt lat="37.862784505281134" lon="15.109550722518955"><ele>624.3333333333334</ele><time>2026-04-26T07:52:03.999Z</time></trkpt><trkpt lat="37.86278114391933" lon="15.109428923018111"><ele>624.0</ele><time>2026-04-26T07:52:04.999Z</time></trkpt><trkpt lat="37.862791798636124" lon="15.109302979796386"><ele>624.0</ele><time>2026-04-26T07:52:05.999Z</time></trkpt><trkpt lat="37.862779228015434" lon="15.109184650512054"><ele>624.0</ele><time>2026-04-26T07:52:06.999Z</time></trkpt><trkpt lat="37.86275438045049" lon="15.109088793045455"><ele>624.0</ele><time>2026-04-26T07:52:07.999Z</time></trkpt><trkpt lat="37.86274407088291" lon="15.108977385916186"><ele>624.0</ele><time>2026-04-26T07:52:08.999Z</time></trkpt><trkpt lat="37.86270824376354" lon="15.108853280068578"><ele>624.0</ele><time>2026-04-26T07:52:09.999Z</time></trkpt><trkpt lat="37.86267813045294" lon="15.10871396497666"><ele>623.6666666666666</ele><time>2026-04-26T07:52:10.999Z</time></trkpt><trkpt lat="37.862656368590635" lon="15.108589959820433"><ele>623.3333333333334</ele><time>2026-04-26T07:52:11.999Z</time></trkpt><trkpt lat="37.86263584610483" lon="15.108477625782372"><ele>623.0</ele><time>2026-04-26T07:52:12.999Z</time></trkpt><trkpt lat="37.8626126918896" lon="15.108378886167358"><ele>622.6666666666667</ele><time>2026-04-26T07:52:13.999Z</time></trkpt><trkpt lat="37.86259091753118" lon="15.108264063767685"><ele>622.3333333333334</ele><time>2026-04-26T07:52:14.999Z</time></trkpt><trkpt lat="37.86258534059397" lon="15.108173079177762"><ele>622.0</ele><time>2026-04-26T07:52:15.999Z</time></trkpt><trkpt lat="37.86259952726577" lon="15.108093019767223"><ele>622.6</ele><time>2026-04-26T07:52:16.999Z</time></trkpt><trkpt lat="37.862622142000475" lon="15.10797458277911"><ele>623.2</ele><time>2026-04-26T07:52:17.999Z</time></trkpt><trkpt lat="37.862642315134615" lon="15.1078625879141"><ele>623.8</ele><time>2026-04-26T07:52:18.999Z</time></trkpt><trkpt lat="37.862658512913214" lon="15.107737918557397"><ele>624.4</ele><time>2026-04-26T07:52:19.999Z</time></trkpt><trkpt lat="37.86268251690718" lon="15.107629922514262"><ele>625.0</ele><time>2026-04-26T07:52:20.999Z</time></trkpt><trkpt lat="37.86271223858632" lon="15.107542419451057"><ele>625.0</ele><time>2026-04-26T07:52:21.999Z</time></trkpt><trkpt lat="37.86275028594618" lon="15.107478837608657"><ele>625.0</ele><time>2026-04-26T07:52:22.999Z</time></trkpt><trkpt lat="37.862807381844654" lon="15.107420197817277"><ele>625.0</ele><time>2026-04-26T07:52:23.999Z</time></trkpt><trkpt lat="37.86289257387629" lon="15.107402368634808"><ele>625.0</ele><time>2026-04-26T07:52:24.999Z</time></trkpt><trkpt lat="37.86296621104542" lon="15.107361968393716"><ele>625.0</ele><time>2026-04-26T07:52:25.999Z</time></trkpt><trkpt lat="37.86304859085851" lon="15.107289974942654"><ele>625.0</ele><time>2026-04-26T07:52:26.999Z</time></trkpt><trkpt lat="37.86313544395511" lon="15.107261492448835"><ele>627.0</ele><time>2026-04-26T07:52:27.999Z</time></trkpt><trkpt lat="37.86322736535255" lon="15.107208450195177"><ele>629.0</ele><time>2026-04-26T07:52:28.999Z</time></trkpt><trkpt lat="37.863309094173" lon="15.107161075684521"><ele>631.0</ele><time>2026-04-26T07:52:29.999Z</time></trkpt><trkpt lat="37.86337405732401" lon="15.107101311686103"><ele>633.0</ele><time>2026-04-26T07:52:30.998Z</time></trkpt><trkpt lat="37.86348528137652" lon="15.107052366364528"><ele>635.0</ele><time>2026-04-26T07:52:32.998Z</time></trkpt><trkpt lat="37.86359844143299" lon="15.107049538570799"><ele>635.0</ele><time>2026-04-26T07:52:34.998Z</time></trkpt><trkpt lat="37.86373448644874" lon="15.107044784965675"><ele>635.0</ele><time>2026-04-26T07:52:36.998Z</time></trkpt><trkpt lat="37.863870792858016" lon="15.106998419050925"><ele>635.0</ele><time>2026-04-26T07:52:38.998Z</time></trkpt><trkpt lat="37.86395416858332" lon="15.107001484119781"><ele>635.0</ele><time>2026-04-26T07:52:39.998Z</time></trkpt><trkpt lat="37.8640325576287" lon="15.106985031617583"><ele>635.0</ele><time>2026-04-26T07:52:41Z</time></trkpt><trkpt lat="37.86411327691303" lon="15.106962986027051"><ele>635.0</ele><time>2026-04-26T07:52:42Z</time></trkpt><trkpt lat="37.86419228123101" lon="15.10692862926841"><ele>635.0</ele><time>2026-04-26T07:52:43Z</time></trkpt><trkpt lat="37.86426579059464" lon="15.106872814252942"><ele>635.0</ele><time>2026-04-26T07:52:44Z</time></trkpt><trkpt lat="37.864322119695856" lon="15.106811921233964"><ele>635.0</ele><time>2026-04-26T07:52:45Z</time></trkpt><trkpt lat="37.86438062179481" lon="15.106715234436045"><ele>635.0</ele><time>2026-04-26T07:52:46Z</time></trkpt><trkpt lat="37.86442900901222" lon="15.106624279876192"><ele>635.0</ele><time>2026-04-26T07:52:47Z</time></trkpt><trkpt lat="37.86447872155565" lon="15.10652776769784"><ele>635.6</ele><time>2026-04-26T07:52:48Z</time></trkpt><trkpt lat="37.864529418221025" lon="15.106427872795416"><ele>636.2</ele><time>2026-04-26T07:52:49Z</time></trkpt><trkpt lat="37.86457895484187" lon="15.106329648283939"><ele>636.8</ele><time>2026-04-26T07:52:50Z</time></trkpt><trkpt lat="37.864630779844305" lon="15.106226651217405"><ele>637.4</ele><time>2026-04-26T07:52:51Z</time></trkpt><trkpt lat="37.86467820098686" lon="15.10612326839964"><ele>638.0</ele><time>2026-04-26T07:52:52Z</time></trkpt><trkpt lat="37.86472939468987" lon="15.106014384087754"><ele>638.0</ele><time>2026-04-26T07:52:53Z</time></trkpt><trkpt lat="37.86479529032922" lon="15.10591046988601"><ele>638.0</ele><time>2026-04-26T07:52:54Z</time></trkpt><trkpt lat="37.864874313887746" lon="15.105825092977978"><ele>638.0</ele><time>2026-04-26T07:52:55Z</time></trkpt><trkpt lat="37.86495482339969" lon="15.105727344431587"><ele>638.0</ele><time>2026-04-26T07:52:56Z</time></trkpt><trkpt lat="37.864998512088086" lon="15.105614198556033"><ele>638.0</ele><time>2026-04-26T07:52:57Z</time></trkpt><trkpt lat="37.86505469720222" lon="15.105521901516848"><ele>637.8</ele><time>2026-04-26T07:52:58Z</time></trkpt><trkpt lat="37.86509580667664" lon="15.105409476048866"><ele>637.5999999999999</ele><time>2026-04-26T07:52:59Z</time></trkpt><trkpt lat="37.86514351725447" lon="15.105299691099885"><ele>637.4000000000001</ele><time>2026-04-26T07:53:00Z</time></trkpt><trkpt lat="37.865202460819766" lon="15.10520436785595"><ele>637.2</ele><time>2026-04-26T07:53:01Z</time></trkpt><trkpt lat="37.86526225253711" lon="15.105110543933387"><ele>637.0</ele><time>2026-04-26T07:53:02Z</time></trkpt><trkpt lat="37.865322684066506" lon="15.105016463974472"><ele>637.0</ele><time>2026-04-26T07:53:03Z</time></trkpt><trkpt lat="37.865367614740435" lon="15.104930770189785"><ele>637.0</ele><time>2026-04-26T07:53:04Z</time></trkpt><trkpt lat="37.86540786207369" lon="15.104847339363834"><ele>637.0</ele><time>2026-04-26T07:53:05Z</time></trkpt><trkpt lat="37.86544463962551" lon="15.10472945365208"><ele>637.0</ele><time>2026-04-26T07:53:06Z</time></trkpt><trkpt lat="37.865469459298495" lon="15.104597962251386"><ele>637.0</ele><time>2026-04-26T07:53:07Z</time></trkpt><trkpt lat="37.865514803995794" lon="15.10445950063216"><ele>637.5</ele><time>2026-04-26T07:53:08Z</time></trkpt><trkpt lat="37.8655526035781" lon="15.10430323969592"><ele>638.0</ele><time>2026-04-26T07:53:09Z</time></trkpt><trkpt lat="37.86561318146836" lon="15.104159356775185"><ele>638.5</ele><time>2026-04-26T07:53:10Z</time></trkpt><trkpt lat="37.86565272133011" lon="15.104008216903779"><ele>639.0</ele><time>2026-04-26T07:53:11Z</time></trkpt><trkpt lat="37.865695293942366" lon="15.103865084542035"><ele>639.0</ele><time>2026-04-26T07:53:12Z</time></trkpt><trkpt lat="37.86573119038251" lon="15.103749357973845"><ele>639.0</ele><time>2026-04-26T07:53:13Z</time></trkpt><trkpt lat="37.865758788819214" lon="15.103646796304766"><ele>639.0</ele><time>2026-04-26T07:53:14Z</time></trkpt><trkpt lat="37.86577493328132" lon="15.103550827570205"><ele>639.0</ele><time>2026-04-26T07:53:15Z</time></trkpt><trkpt lat="37.86579531366901" lon="15.103466083017908"><ele>639.0</ele><time>2026-04-26T07:53:16Z</time></trkpt><trkpt lat="37.86583077901008" lon="15.10338327598919"><ele>639.0</ele><time>2026-04-26T07:53:18.999Z</time></trkpt><trkpt lat="37.86588431069489" lon="15.103320624823166"><ele>638.4</ele><time>2026-04-26T07:53:21.999Z</time></trkpt><trkpt lat="37.865976932669945" lon="15.103317493807333"><ele>637.8</ele><time>2026-04-26T07:53:22.999Z</time></trkpt><trkpt lat="37.86610236513726" lon="15.103267292452092"><ele>637.2</ele><time>2026-04-26T07:53:24.999Z</time></trkpt><trkpt lat="37.866208027358574" lon="15.1032160195206"><ele>636.6</ele><time>2026-04-26T07:53:26.999Z</time></trkpt><trkpt lat="37.86627628002245" lon="15.103141563567938"><ele>636.0</ele><time>2026-04-26T07:53:28.999Z</time></trkpt><trkpt lat="37.86631899191219" lon="15.103080040817346"><ele>636.0</ele><time>2026-04-26T07:53:29.999Z</time></trkpt><trkpt lat="37.86637442557601" lon="15.103040647296476"><ele>636.0</ele><time>2026-04-26T07:53:30.999Z</time></trkpt><trkpt lat="37.86645414071544" lon="15.10301714549008"><ele>636.0</ele><time>2026-04-26T07:53:31.999Z</time></trkpt><trkpt lat="37.86654364901774" lon="15.102985668270337"><ele>636.0</ele><time>2026-04-26T07:53:32.999Z</time></trkpt><trkpt lat="37.86665647278224" lon="15.102928902074373"><ele>636.0</ele><time>2026-04-26T07:53:33.999Z</time></trkpt><trkpt lat="37.86676769208781" lon="15.10287696269773"><ele>637.5</ele><time>2026-04-26T07:53:34.999Z</time></trkpt><trkpt lat="37.86689017026533" lon="15.102824238853506"><ele>639.0</ele><time>2026-04-26T07:53:35.999Z</time></trkpt><trkpt lat="37.86701504491594" lon="15.102762626213309"><ele>640.5</ele><time>2026-04-26T07:53:36.999Z</time></trkpt><trkpt lat="37.86714338048266" lon="15.10270493558182"><ele>642.0</ele><time>2026-04-26T07:53:37.999Z</time></trkpt><trkpt lat="37.867279345106155" lon="15.102640961496888"><ele>642.0</ele><time>2026-04-26T07:53:38.999Z</time></trkpt><trkpt lat="37.86741237169921" lon="15.102575196782409"><ele>642.0</ele><time>2026-04-26T07:53:39.999Z</time></trkpt><trkpt lat="37.86755906008596" lon="15.102505325206039"><ele>642.0</ele><time>2026-04-26T07:53:40.999Z</time></trkpt><trkpt lat="37.8676911003728" lon="15.102440499301679"><ele>642.0</ele><time>2026-04-26T07:53:41.999Z</time></trkpt><trkpt lat="37.86780288015811" lon="15.102391910246487"><ele>641.4</ele><time>2026-04-26T07:53:42.999Z</time></trkpt><trkpt lat="37.867898658719454" lon="15.102343982326465"><ele>640.8000000000001</ele><time>2026-04-26T07:53:43.999Z</time></trkpt><trkpt lat="37.86799550946799" lon="15.102303468302829"><ele>640.2</ele><time>2026-04-26T07:53:44.999Z</time></trkpt><trkpt lat="37.868105288734725" lon="15.102295095154338"><ele>639.6</ele><time>2026-04-26T07:53:45.999Z</time></trkpt><trkpt lat="37.868213699368034" lon="15.102280969830316"><ele>639.0</ele><time>2026-04-26T07:53:46.999Z</time></trkpt><trkpt lat="37.868341714179586" lon="15.10228746207307"><ele>638.8</ele><time>2026-04-26T07:53:47.999Z</time></trkpt><trkpt lat="37.86845231501515" lon="15.102327084714714"><ele>638.5999999999999</ele><time>2026-04-26T07:53:48.999Z</time></trkpt><trkpt lat="37.86855947700245" lon="15.10235881135072"><ele>638.4</ele><time>2026-04-26T07:53:49.999Z</time></trkpt><trkpt lat="37.86865062759638" lon="15.102416760914984"><ele>638.1999999999999</ele><time>2026-04-26T07:53:50.999Z</time></trkpt><trkpt lat="37.868745577380395" lon="15.102495045956037"><ele>638.0</ele><time>2026-04-26T07:53:51.999Z</time></trkpt><trkpt lat="37.868835750045776" lon="15.10257811763952"><ele>638.0</ele><time>2026-04-26T07:53:52.999Z</time></trkpt><trkpt lat="37.86891241465088" lon="15.102672550397113"><ele>638.0</ele><time>2026-04-26T07:53:53.999Z</time></trkpt><trkpt lat="37.86899593880168" lon="15.102745820441845"><ele>638.0</ele><time>2026-04-26T07:53:54.999Z</time></trkpt><trkpt lat="37.86909519165449" lon="15.102803212104815"><ele>638.0</ele><time>2026-04-26T07:53:55.999Z</time></trkpt><trkpt lat="37.86919094037589" lon="15.10285016585742"><ele>638.0</ele><time>2026-04-26T07:53:56.999Z</time></trkpt><trkpt lat="37.86929339052419" lon="15.102885031343178"><ele>637.75</ele><time>2026-04-26T07:53:57.999Z</time></trkpt><trkpt lat="37.869407850113696" lon="15.102906121963148"><ele>637.5</ele><time>2026-04-26T07:53:58.999Z</time></trkpt><trkpt lat="37.86952485738217" lon="15.102904154296843"><ele>637.25</ele><time>2026-04-26T07:53:59.999Z</time></trkpt><trkpt lat="37.8696516111137" lon="15.102890397708194"><ele>637.0</ele><time>2026-04-26T07:54:00.999Z</time></trkpt><trkpt lat="37.869785011592974" lon="15.10286909876212"><ele>637.0</ele><time>2026-04-26T07:54:01.999Z</time></trkpt><trkpt lat="37.869926271579494" lon="15.102845710760954"><ele>637.0</ele><time>2026-04-26T07:54:02.999Z</time></trkpt><trkpt lat="37.87005022133106" lon="15.102833658163117"><ele>637.0</ele><time>2026-04-26T07:54:03.999Z</time></trkpt><trkpt lat="37.87016471181069" lon="15.102847829974573"><ele>637.0</ele><time>2026-04-26T07:54:04.999Z</time></trkpt><trkpt lat="37.87025895182092" lon="15.102825805462995"><ele>637.0</ele><time>2026-04-26T07:54:05.999Z</time></trkpt><trkpt lat="37.87034777033867" lon="15.102831892853663"><ele>637.0</ele><time>2026-04-26T07:54:06.999Z</time></trkpt><trkpt lat="37.87043619794327" lon="15.102883361631374"><ele>637.0</ele><time>2026-04-26T07:54:07.999Z</time></trkpt><trkpt lat="37.87052405381989" lon="15.102921640075055"><ele>637.0</ele><time>2026-04-26T07:54:08.999Z</time></trkpt><trkpt lat="37.87061356088578" lon="15.102955593515578"><ele>637.0</ele><time>2026-04-26T07:54:09.999Z</time></trkpt><trkpt lat="37.87069686124064" lon="15.103025611078696"><ele>637.0</ele><time>2026-04-26T07:54:10.999Z</time></trkpt><trkpt lat="37.87077288911895" lon="15.103107708610308"><ele>637.0</ele><time>2026-04-26T07:54:11.999Z</time></trkpt><trkpt lat="37.87084291336124" lon="15.103194074715379"><ele>637.0</ele><time>2026-04-26T07:54:12.999Z</time></trkpt><trkpt lat="37.87091362589781" lon="15.103279637426523"><ele>637.0</ele><time>2026-04-26T07:54:13.999Z</time></trkpt><trkpt lat="37.87097741336375" lon="15.103379317347953"><ele>637.0</ele><time>2026-04-26T07:54:14.999Z</time></trkpt><trkpt lat="37.87101470158585" lon="15.103474104277161"><ele>634.6</ele><time>2026-04-26T07:54:15.999Z</time></trkpt><trkpt lat="37.87105142542294" lon="15.103575036862434"><ele>632.2</ele><time>2026-04-26T07:54:16.999Z</time></trkpt><trkpt lat="37.871092735280854" lon="15.103693478601617"><ele>629.8</ele><time>2026-04-26T07:54:17.999Z</time></trkpt><trkpt lat="37.87112222917127" lon="15.103811694621887"><ele>627.4</ele><time>2026-04-26T07:54:18.999Z</time></trkpt><trkpt lat="37.87113676960267" lon="15.103933856904137"><ele>625.0</ele><time>2026-04-26T07:54:19.999Z</time></trkpt><trkpt lat="37.871139014688495" lon="15.104060103562576"><ele>625.0</ele><time>2026-04-26T07:54:20.999Z</time></trkpt><trkpt lat="37.87113189158107" lon="15.104189457287438"><ele>625.0</ele><time>2026-04-26T07:54:21.999Z</time></trkpt><trkpt lat="37.871121791866486" lon="15.104332748195258"><ele>625.0</ele><time>2026-04-26T07:54:22.999Z</time></trkpt><trkpt lat="37.871102676032365" lon="15.104469949564544"><ele>625.0</ele><time>2026-04-26T07:54:23.999Z</time></trkpt><trkpt lat="37.8710831312197" lon="15.104600050287464"><ele>625.0</ele><time>2026-04-26T07:54:24.999Z</time></trkpt><trkpt lat="37.871064057432626" lon="15.104718648271222"><ele>625.0</ele><time>2026-04-26T07:54:25.999Z</time></trkpt><trkpt lat="37.87105748491664" lon="15.104825917172935"><ele>625.0</ele><time>2026-04-26T07:54:26.999Z</time></trkpt><trkpt lat="37.87106352413895" lon="15.10493813847494"><ele>625.0</ele><time>2026-04-26T07:54:27.999Z</time></trkpt><trkpt lat="37.87107139326118" lon="15.105063586583292"><ele>625.0</ele><time>2026-04-26T07:54:28.999Z</time></trkpt><trkpt lat="37.871087723678336" lon="15.105180824263854"><ele>625.0</ele><time>2026-04-26T07:54:29.999Z</time></trkpt><trkpt lat="37.871115580771836" lon="15.105300765060512"><ele>626.0</ele><time>2026-04-26T07:54:30.999Z</time></trkpt><trkpt lat="37.871162423397564" lon="15.105413004516624"><ele>627.0</ele><time>2026-04-26T07:54:31.999Z</time></trkpt><trkpt lat="37.8712181713274" lon="15.105520904509435"><ele>628.0</ele><time>2026-04-26T07:54:32.999Z</time></trkpt><trkpt lat="37.87129378721786" lon="15.10563362754802"><ele>629.0</ele><time>2026-04-26T07:54:33.999Z</time></trkpt><trkpt lat="37.871371525767884" lon="15.105743051855193"><ele>630.0</ele><time>2026-04-26T07:54:34.999Z</time></trkpt><trkpt lat="37.87145451394041" lon="15.105840137048078"><ele>632.4</ele><time>2026-04-26T07:54:35.999Z</time></trkpt><trkpt lat="37.87152357457057" lon="15.105930669931288"><ele>634.8</ele><time>2026-04-26T07:54:36.999Z</time></trkpt><trkpt lat="37.871581858203015" lon="15.106020106469"><ele>637.2</ele><time>2026-04-26T07:54:37.999Z</time></trkpt><trkpt lat="37.87164139139508" lon="15.1061193434961"><ele>639.6</ele><time>2026-04-26T07:54:38.999Z</time></trkpt><trkpt lat="37.87169572839375" lon="15.10622802658925"><ele>642.0</ele><time>2026-04-26T07:54:39.999Z</time></trkpt><trkpt lat="37.871736683040346" lon="15.106355003249329"><ele>642.2</ele><time>2026-04-26T07:54:40.999Z</time></trkpt><trkpt lat="37.871775577931984" lon="15.106493216074295"><ele>642.4000000000001</ele><time>2026-04-26T07:54:41.999Z</time></trkpt><trkpt lat="37.87177572498892" lon="15.106620471842637"><ele>642.5999999999999</ele><time>2026-04-26T07:54:42.999Z</time></trkpt><trkpt lat="37.87179731009804" lon="15.10673441223744"><ele>642.8</ele><time>2026-04-26T07:54:43.999Z</time></trkpt><trkpt lat="37.871783505851184" lon="15.10684923538536"><ele>643.0</ele><time>2026-04-26T07:54:44.999Z</time></trkpt><trkpt lat="37.87175553603447" lon="15.10697939893023"><ele>643.0</ele><time>2026-04-26T07:54:45.999Z</time></trkpt><trkpt lat="37.87172295918628" lon="15.107122721560302"><ele>643.0</ele><time>2026-04-26T07:54:47Z</time></trkpt><trkpt lat="37.87168671424899" lon="15.10724381692689"><ele>643.0</ele><time>2026-04-26T07:54:48Z</time></trkpt><trkpt lat="37.871623465614036" lon="15.10735789662905"><ele>643.0</ele><time>2026-04-26T07:54:49Z</time></trkpt><trkpt lat="37.87157320439692" lon="15.107482299365685"><ele>643.0</ele><time>2026-04-26T07:54:50Z</time></trkpt><trkpt lat="37.871537186393496" lon="15.107609275594093"><ele>641.0</ele><time>2026-04-26T07:54:51Z</time></trkpt><trkpt lat="37.871485633013585" lon="15.107731139827548"><ele>639.0</ele><time>2026-04-26T07:54:52Z</time></trkpt><trkpt lat="37.87143552456008" lon="15.107839785755255"><ele>637.0</ele><time>2026-04-26T07:54:53Z</time></trkpt><trkpt lat="37.871382282922" lon="15.107960682970562"><ele>635.0</ele><time>2026-04-26T07:54:54Z</time></trkpt><trkpt lat="37.87132580088457" lon="15.108086600607896"><ele>633.0</ele><time>2026-04-26T07:54:55Z</time></trkpt><trkpt lat="37.87127219081216" lon="15.108214701428029"><ele>630.6</ele><time>2026-04-26T07:54:56Z</time></trkpt><trkpt lat="37.87122350117354" lon="15.108334589076408"><ele>628.1999999999999</ele><time>2026-04-26T07:54:57Z</time></trkpt><trkpt lat="37.87118802851962" lon="15.108449845639996"><ele>625.8</ele><time>2026-04-26T07:54:58Z</time></trkpt><trkpt lat="37.87116565158934" lon="15.108560221413454"><ele>623.4</ele><time>2026-04-26T07:54:59Z</time></trkpt><trkpt lat="37.87114280133309" lon="15.108671354783239"><ele>621.0</ele><time>2026-04-26T07:55:00Z</time></trkpt><trkpt lat="37.871124057443474" lon="15.108778506012278"><ele>621.0</ele><time>2026-04-26T07:55:01Z</time></trkpt><trkpt lat="37.87111921205665" lon="15.108880679647656"><ele>621.0</ele><time>2026-04-26T07:55:02Z</time></trkpt><trkpt lat="37.87111764675363" lon="15.109011138832955"><ele>621.0</ele><time>2026-04-26T07:55:03Z</time></trkpt><trkpt lat="37.87112597014255" lon="15.109133844615714"><ele>621.0</ele><time>2026-04-26T07:55:04Z</time></trkpt><trkpt lat="37.871139358165856" lon="15.109274342987096"><ele>621.0</ele><time>2026-04-26T07:55:05Z</time></trkpt><trkpt lat="37.87116043150287" lon="15.10940582379514"><ele>621.4</ele><time>2026-04-26T07:55:06Z</time></trkpt><trkpt lat="37.87119123394113" lon="15.109541939200378"><ele>621.8</ele><time>2026-04-26T07:55:07Z</time></trkpt><trkpt lat="37.87122392908766" lon="15.109660945910292"><ele>622.1999999999999</ele><time>2026-04-26T07:55:08Z</time></trkpt><trkpt lat="37.87126583604959" lon="15.10977649412097"><ele>622.6</ele><time>2026-04-26T07:55:09Z</time></trkpt><trkpt lat="37.87131223835933" lon="15.109882907206382"><ele>623.0</ele><time>2026-04-26T07:55:10Z</time></trkpt><trkpt lat="37.87138111202137" lon="15.109989969641013"><ele>624.25</ele><time>2026-04-26T07:55:11Z</time></trkpt><trkpt lat="37.87144218004271" lon="15.110117359489227"><ele>625.5</ele><time>2026-04-26T07:55:12Z</time></trkpt><trkpt lat="37.87153888290848" lon="15.110218381166899"><ele>626.75</ele><time>2026-04-26T07:55:13Z</time></trkpt><trkpt lat="37.87162122381712" lon="15.1103259392129"><ele>628.0</ele><time>2026-04-26T07:55:14Z</time></trkpt><trkpt lat="37.87169447383423" lon="15.11043645793803"><ele>628.0</ele><time>2026-04-26T07:55:15Z</time></trkpt><trkpt lat="37.871765811808054" lon="15.110524489151903"><ele>628.0</ele><time>2026-04-26T07:55:16Z</time></trkpt><trkpt lat="37.87182322350114" lon="15.110608815591855"><ele>628.0</ele><time>2026-04-26T07:55:17Z</time></trkpt><trkpt lat="37.871880727241525" lon="15.110697882139474"><ele>628.0</ele><time>2026-04-26T07:55:18Z</time></trkpt><trkpt lat="37.87194723072218" lon="15.110794483488126"><ele>628.0</ele><time>2026-04-26T07:55:19Z</time></trkpt><trkpt lat="37.87201841888048" lon="15.110886212169484"><ele>627.1666666666667</ele><time>2026-04-26T07:55:20Z</time></trkpt><trkpt lat="37.87208036763103" lon="15.110963264632066"><ele>626.3333333333334</ele><time>2026-04-26T07:55:21Z</time></trkpt><trkpt lat="37.87213508102589" lon="15.111031335814099"><ele>625.5</ele><time>2026-04-26T07:55:22Z</time></trkpt><trkpt lat="37.87218616743372" lon="15.111100109598988"><ele>624.6666666666666</ele><time>2026-04-26T07:55:23Z</time></trkpt><trkpt lat="37.87226842925238" lon="15.111206313861501"><ele>623.8333333333333</ele><time>2026-04-26T07:55:25Z</time></trkpt><trkpt lat="37.87232200807183" lon="15.111283112757668"><ele>623.0</ele><time>2026-04-26T07:55:27Z</time></trkpt><trkpt lat="37.87237148619842" lon="15.111375241843271"><ele>623.0</ele><time>2026-04-26T07:55:31Z</time></trkpt><trkpt lat="37.87252473698807" lon="15.11127598041206"><ele>623.0</ele><time>2026-04-26T07:55:41.999Z</time></trkpt><trkpt lat="37.87256403357735" lon="15.111177694758418"><ele>623.0</ele><time>2026-04-26T07:55:43.999Z</time></trkpt><trkpt lat="37.87260770253743" lon="15.111101258435587"><ele>623.0</ele><time>2026-04-26T07:55:45.999Z</time></trkpt><trkpt lat="37.87263082201805" lon="15.111003667238178"><ele>623.0</ele><time>2026-04-26T07:55:47.999Z</time></trkpt><trkpt lat="37.8726794910989" lon="15.110922457356864"><ele>622.1666666666666</ele><time>2026-04-26T07:55:49.999Z</time></trkpt><trkpt lat="37.872739506468704" lon="15.110844045101983"><ele>621.3333333333333</ele><time>2026-04-26T07:55:51.999Z</time></trkpt><trkpt lat="37.87280500746447" lon="15.110802285339943"><ele>620.5</ele><time>2026-04-26T07:55:53.999Z</time></trkpt><trkpt lat="37.872884569947395" lon="15.110729674969562"><ele>619.6666666666666</ele><time>2026-04-26T07:55:55.999Z</time></trkpt><trkpt lat="37.87294991325655" lon="15.110657689482148"><ele>618.8333333333334</ele><time>2026-04-26T07:55:57.999Z</time></trkpt><trkpt lat="37.87300559159414" lon="15.11058795847795"><ele>618.0</ele><time>2026-04-26T07:56:01.999Z</time></trkpt><trkpt lat="37.87303151757263" lon="15.110510755929894"><ele>614.3333333333334</ele><time>2026-04-26T07:56:07.999Z</time></trkpt><trkpt lat="37.87305109552479" lon="15.110431804299267"><ele>610.6666666666666</ele><time>2026-04-26T07:56:13.999Z</time></trkpt><trkpt lat="37.87313384750648" lon="15.110409776694496"><ele>607.0</ele><time>2026-04-26T07:56:29.999Z</time></trkpt><trkpt lat="37.873209361557755" lon="15.110420010907113"><ele>603.3333333333333</ele><time>2026-04-26T07:56:32.999Z</time></trkpt><trkpt lat="37.873290027224606" lon="15.11044194640418"><ele>599.6666666666666</ele><time>2026-04-26T07:56:35.999Z</time></trkpt><trkpt lat="37.873328121208154" lon="15.110525690335438"><ele>596.0</ele><time>2026-04-26T07:56:37.999Z</time></trkpt><trkpt lat="37.873327090914835" lon="15.110656050966496"><ele>594.4</ele><time>2026-04-26T07:56:39.999Z</time></trkpt><trkpt lat="37.87334878892413" lon="15.110801551234811"><ele>592.8</ele><time>2026-04-26T07:56:41.999Z</time></trkpt><trkpt lat="37.87344296705328" lon="15.110910534865967"><ele>591.1999999999999</ele><time>2026-04-26T07:56:43.999Z</time></trkpt><trkpt lat="37.87349193231631" lon="15.110967708989412"><ele>589.6</ele><time>2026-04-26T07:56:44.999Z</time></trkpt><trkpt lat="37.8735656750378" lon="15.11102032671046"><ele>588.0</ele><time>2026-04-26T07:56:46.999Z</time></trkpt><trkpt lat="37.87367741414812" lon="15.111049711266277"><ele>588.0</ele><time>2026-04-26T07:56:48.999Z</time></trkpt><trkpt lat="37.87373744333578" lon="15.111112181939205"><ele>588.0</ele><time>2026-04-26T07:56:49.999Z</time></trkpt><trkpt lat="37.87377773948152" lon="15.111184903426995"><ele>588.0</ele><time>2026-04-26T07:56:50.999Z</time></trkpt><trkpt lat="37.87383528893756" lon="15.11124551010147"><ele>588.0</ele><time>2026-04-26T07:56:51.999Z</time></trkpt><trkpt lat="37.87392245574744" lon="15.111305569609812"><ele>588.0</ele><time>2026-04-26T07:56:54Z</time></trkpt><trkpt lat="37.874007582020404" lon="15.111362266843425"><ele>588.0</ele><time>2026-04-26T07:56:56Z</time></trkpt><trkpt lat="37.87406492443045" lon="15.111323711214398"><ele>588.0</ele><time>2026-04-26T07:57:00Z</time></trkpt><trkpt lat="37.87404851735871" lon="15.111199713742472"><ele>588.0</ele><time>2026-04-26T07:57:03Z</time></trkpt><trkpt lat="37.874057864689895" lon="15.111110435946088"><ele>588.0</ele><time>2026-04-26T07:57:05Z</time></trkpt><trkpt lat="37.87405197830355" lon="15.11100662810218"><ele>588.0</ele><time>2026-04-26T07:57:08Z</time></trkpt><trkpt lat="37.87403423171219" lon="15.110921988072407"><ele>588.0</ele><time>2026-04-26T07:57:10Z</time></trkpt><trkpt lat="37.87400537874496" lon="15.110836266236108"><ele>588.0</ele><time>2026-04-26T07:57:12Z</time></trkpt><trkpt lat="37.874091536723675" lon="15.110881083178498"><ele>588.0</ele><time>2026-04-26T07:57:15Z</time></trkpt><trkpt lat="37.87416701478593" lon="15.11096228774916"><ele>588.0</ele><time>2026-04-26T07:57:18Z</time></trkpt><trkpt lat="37.874229889787294" lon="15.110981722275401"><ele>588.0</ele><time>2026-04-26T07:57:20Z</time></trkpt><trkpt lat="37.87431053151711" lon="15.110964868541592"><ele>588.0</ele><time>2026-04-26T07:57:23Z</time></trkpt><trkpt lat="37.87437264351135" lon="15.11098459586684"><ele>588.0</ele><time>2026-04-26T07:57:25Z</time></trkpt><trkpt lat="37.87445210719164" lon="15.1109747504533"><ele>588.0</ele><time>2026-04-26T07:57:41Z</time></trkpt><trkpt lat="37.874510713000035" lon="15.111009579458841"><ele>583.0</ele><time>2026-04-26T07:57:48Z</time></trkpt><trkpt lat="37.874577888130624" lon="15.11101996388995"><ele>578.0</ele><time>2026-04-26T07:57:52.999Z</time></trkpt><trkpt lat="37.87462401363658" lon="15.110946969028426"><ele>573.0</ele><time>2026-04-26T07:57:56.999Z</time></trkpt><trkpt lat="37.87468191974224" lon="15.110901368883749"><ele>568.0</ele><time>2026-04-26T07:58:01.999Z</time></trkpt><trkpt lat="37.87469935400474" lon="15.110796336459147"><ele>563.0</ele><time>2026-04-26T07:58:04.999Z</time></trkpt><trkpt lat="37.87466151420427" lon="15.110699368871627"><ele>558.0</ele><time>2026-04-26T07:58:07.999Z</time></trkpt><trkpt lat="37.874670944800215" lon="15.110610509323152"><ele>556.1666666666666</ele><time>2026-04-26T07:58:10.999Z</time></trkpt><trkpt lat="37.874690285288054" lon="15.110527701690213"><ele>554.3333333333334</ele><time>2026-04-26T07:58:15.999Z</time></trkpt><trkpt lat="37.874734779942" lon="15.110455924801371"><ele>552.5</ele><time>2026-04-26T07:58:25.999Z</time></trkpt><trkpt lat="37.87475867032647" lon="15.110367926014895"><ele>550.6666666666667</ele><time>2026-04-26T07:59:30Z</time></trkpt><trkpt lat="37.87481533968852" lon="15.110305772123473"><ele>548.8333333333334</ele><time>2026-04-26T07:59:39Z</time></trkpt><trkpt lat="37.87489437287078" lon="15.110251122899392"><ele>547.0</ele><time>2026-04-26T07:59:43Z</time></trkpt><trkpt lat="37.87497273126644" lon="15.110216238267068"><ele>547.0</ele><time>2026-04-26T07:59:46Z</time></trkpt><trkpt lat="37.87504332049135" lon="15.110268611733915"><ele>547.0</ele><time>2026-04-26T07:59:48Z</time></trkpt><trkpt lat="37.87512180492691" lon="15.110331300437393"><ele>547.0</ele><time>2026-04-26T07:59:50Z</time></trkpt><trkpt lat="37.87517288948956" lon="15.110412161480765"><ele>547.0</ele><time>2026-04-26T07:59:52Z</time></trkpt><trkpt lat="37.875169060872814" lon="15.1105128403381"><ele>547.0</ele><time>2026-04-26T07:59:54Z</time></trkpt><trkpt lat="37.87517576655025" lon="15.110597318949123"><ele>547.0</ele><time>2026-04-26T07:59:56Z</time></trkpt><trkpt lat="37.87524810103978" lon="15.110724833894293"><ele>544.4285714285714</ele><time>2026-04-26T07:59:58Z</time></trkpt><trkpt lat="37.87529584908268" lon="15.1108091840594"><ele>541.8571428571428</ele><time>2026-04-26T07:59:59Z</time></trkpt><trkpt lat="37.87532240722399" lon="15.110884783433976"><ele>539.2857142857142</ele><time>2026-04-26T08:00:00Z</time></trkpt><trkpt lat="37.875340282175266" lon="15.110977602642924"><ele>536.7142857142857</ele><time>2026-04-26T08:00:01Z</time></trkpt><trkpt lat="37.87534752837366" lon="15.111066456569457"><ele>534.1428571428571</ele><time>2026-04-26T08:00:02Z</time></trkpt><trkpt lat="37.87537822764032" lon="15.111140850718876"><ele>531.5714285714286</ele><time>2026-04-26T08:00:03Z</time></trkpt><trkpt lat="37.87543419591245" lon="15.111213518971194"><ele>529.0</ele><time>2026-04-26T08:00:04Z</time></trkpt><trkpt lat="37.87552175408464" lon="15.111297129451211"><ele>529.0</ele><time>2026-04-26T08:00:04.999Z</time></trkpt><trkpt lat="37.87554358393937" lon="15.111373756689373"><ele>529.0</ele><time>2026-04-26T08:00:05.999Z</time></trkpt><trkpt lat="37.875576570042305" lon="15.11148715850052"><ele>529.0</ele><time>2026-04-26T08:00:07.999Z</time></trkpt><trkpt lat="37.875623662422164" lon="15.111561351688998"><ele>529.0</ele><time>2026-04-26T08:00:10.999Z</time></trkpt><trkpt lat="37.875675457129056" lon="15.111499751476414"><ele>529.0</ele><time>2026-04-26T08:00:12.999Z</time></trkpt><trkpt lat="37.875643620758346" lon="15.111388612920697"><ele>529.0</ele><time>2026-04-26T08:00:14.999Z</time></trkpt><trkpt lat="37.87572010241159" lon="15.111326824228726"><ele>529.0</ele><time>2026-04-26T08:00:16.999Z</time></trkpt><trkpt lat="37.875806339024415" lon="15.111335757541509"><ele>529.0</ele><time>2026-04-26T08:00:17.999Z</time></trkpt><trkpt lat="37.875904925576364" lon="15.111351561981312"><ele>529.0</ele><time>2026-04-26T08:00:18.999Z</time></trkpt><trkpt lat="37.87598827241545" lon="15.111338651371963"><ele>529.0</ele><time>2026-04-26T08:00:19.999Z</time></trkpt><trkpt lat="37.876085832056994" lon="15.11130888586039"><ele>529.0</ele><time>2026-04-26T08:00:21.999Z</time></trkpt><trkpt lat="37.876140079686174" lon="15.111260818471195"><ele>529.0</ele><time>2026-04-26T08:00:22.999Z</time></trkpt><trkpt lat="37.87620381361648" lon="15.111187016909547"><ele>526.5</ele><time>2026-04-26T08:00:23.999Z</time></trkpt><trkpt lat="37.876268891357036" lon="15.11110360199873"><ele>524.0</ele><time>2026-04-26T08:00:24.999Z</time></trkpt><trkpt lat="37.876341906970914" lon="15.111030968371706"><ele>521.5</ele><time>2026-04-26T08:00:25.999Z</time></trkpt><trkpt lat="37.87641459944341" lon="15.11098082289629"><ele>519.0</ele><time>2026-04-26T08:00:26.999Z</time></trkpt><trkpt lat="37.87648849471967" lon="15.110925845217148"><ele>516.5</ele><time>2026-04-26T08:00:27.999Z</time></trkpt><trkpt lat="37.8765578504827" lon="15.110892866068989"><ele>514.0</ele><time>2026-04-26T08:00:28.999Z</time></trkpt><trkpt lat="37.87663444178529" lon="15.110876576906547"><ele>514.0</ele><time>2026-04-26T08:00:29.999Z</time></trkpt><trkpt lat="37.87671198129171" lon="15.110849953231442"><ele>514.0</ele><time>2026-04-26T08:00:30.999Z</time></trkpt><trkpt lat="37.876782584802775" lon="15.110825148998288"><ele>514.0</ele><time>2026-04-26T08:00:31.999Z</time></trkpt><trkpt lat="37.87688878872517" lon="15.110821060987659"><ele>514.0</ele><time>2026-04-26T08:00:33.999Z</time></trkpt><trkpt lat="37.87693407368614" lon="15.110757051465086"><ele>514.0</ele><time>2026-04-26T08:00:35.999Z</time></trkpt><trkpt lat="37.87683663813815" lon="15.110692739534663"><ele>514.0</ele><time>2026-04-26T08:00:37.999Z</time></trkpt><trkpt lat="37.87675302043018" lon="15.110709441502735"><ele>514.0</ele><time>2026-04-26T08:00:38.999Z</time></trkpt><trkpt lat="37.876661499552704" lon="15.110730621678101"><ele>514.0</ele><time>2026-04-26T08:00:39.999Z</time></trkpt><trkpt lat="37.87656345857402" lon="15.110743659074542"><ele>514.0</ele><time>2026-04-26T08:00:40.999Z</time></trkpt><trkpt lat="37.87647665477501" lon="15.110755718055396"><ele>514.0</ele><time>2026-04-26T08:00:41.999Z</time></trkpt><trkpt lat="37.87640850097337" lon="15.110760130222307"><ele>514.0</ele><time>2026-04-26T08:00:42.999Z</time></trkpt><trkpt lat="37.87632923463926" lon="15.110706393541967"><ele>514.0</ele><time>2026-04-26T08:00:44.999Z</time></trkpt><trkpt lat="37.876391638218244" lon="15.110618210739151"><ele>511.42857142857144</ele><time>2026-04-26T08:00:46.999Z</time></trkpt><trkpt lat="37.876460645203764" lon="15.110619304713953"><ele>508.8571428571429</ele><time>2026-04-26T08:00:47.999Z</time></trkpt><trkpt lat="37.876538579289004" lon="15.110635638029956"><ele>506.28571428571433</ele><time>2026-04-26T08:00:48.999Z</time></trkpt><trkpt lat="37.876609301623986" lon="15.110621553942316"><ele>503.7142857142857</ele><time>2026-04-26T08:00:49.999Z</time></trkpt><trkpt lat="37.87667780663714" lon="15.110578152964065"><ele>501.1428571428572</ele><time>2026-04-26T08:00:50.999Z</time></trkpt><trkpt lat="37.87674321228073" lon="15.110533474241565"><ele>498.5714285714286</ele><time>2026-04-26T08:00:51.999Z</time></trkpt><trkpt lat="37.87680693583876" lon="15.110483451961054"><ele>496.0</ele><time>2026-04-26T08:00:52.999Z</time></trkpt><trkpt lat="37.8768578226704" lon="15.110426980615992"><ele>492.83333333333337</ele><time>2026-04-26T08:00:53.999Z</time></trkpt><trkpt lat="37.87691158805365" lon="15.110362520276631"><ele>489.6666666666667</ele><time>2026-04-26T08:00:54.999Z</time></trkpt><trkpt lat="37.87696494672615" lon="15.110315186624373"><ele>486.5</ele><time>2026-04-26T08:00:55.999Z</time></trkpt><trkpt lat="37.87702357801506" lon="15.110275439304024"><ele>483.33333333333337</ele><time>2026-04-26T08:00:56.999Z</time></trkpt><trkpt lat="37.877088789766894" lon="15.110258165394063"><ele>480.1666666666667</ele><time>2026-04-26T08:00:57.999Z</time></trkpt><trkpt lat="37.87719686019834" lon="15.110349988584428"><ele>477.0</ele><time>2026-04-26T08:00:59.999Z</time></trkpt><trkpt lat="37.877249703347836" lon="15.110437953143716"><ele>477.0</ele><time>2026-04-26T08:01:00.999Z</time></trkpt><trkpt lat="37.87729237182264" lon="15.11050960389854"><ele>477.0</ele><time>2026-04-26T08:01:01.999Z</time></trkpt><trkpt lat="37.877340791290166" lon="15.110593047959457"><ele>477.0</ele><time>2026-04-26T08:01:02.999Z</time></trkpt><trkpt lat="37.87737939891862" lon="15.110682638023258"><ele>477.0</ele><time>2026-04-26T08:01:03.999Z</time></trkpt><trkpt lat="37.877408072802034" lon="15.110767274511584"><ele>477.0</ele><time>2026-04-26T08:01:05Z</time></trkpt><trkpt lat="37.877425778164536" lon="15.110863375233745"><ele>477.0</ele><time>2026-04-26T08:01:06Z</time></trkpt><trkpt lat="37.877443444918036" lon="15.110956006301471"><ele>479.3333333333333</ele><time>2026-04-26T08:01:07Z</time></trkpt><trkpt lat="37.87747046091195" lon="15.111042924326002"><ele>481.66666666666663</ele><time>2026-04-26T08:01:08Z</time></trkpt><trkpt lat="37.877516251546616" lon="15.111122085424515"><ele>484.0</ele><time>2026-04-26T08:01:09Z</time></trkpt><trkpt lat="37.87757892284156" lon="15.111195558364084"><ele>486.3333333333333</ele><time>2026-04-26T08:01:10Z</time></trkpt><trkpt lat="37.87763831388983" lon="15.111262339863341"><ele>488.66666666666663</ele><time>2026-04-26T08:01:11Z</time></trkpt><trkpt lat="37.877693587320294" lon="15.111320599787375"><ele>491.0</ele><time>2026-04-26T08:01:12Z</time></trkpt><trkpt lat="37.877756305098494" lon="15.111339520241698"><ele>486.71428571428567</ele><time>2026-04-26T08:01:13Z</time></trkpt><trkpt lat="37.87781808121143" lon="15.111322502859881"><ele>482.4285714285714</ele><time>2026-04-26T08:01:14Z</time></trkpt><trkpt lat="37.87787686791928" lon="15.111268049294399"><ele>478.1428571428571</ele><time>2026-04-26T08:01:15Z</time></trkpt><trkpt lat="37.87793381115331" lon="15.111197946649277"><ele>473.8571428571429</ele><time>2026-04-26T08:01:16Z</time></trkpt><trkpt lat="37.87799064020807" lon="15.111138638395005"><ele>469.5714285714286</ele><time>2026-04-26T08:01:17Z</time></trkpt><trkpt lat="37.87805760883003" lon="15.11110654835688"><ele>465.28571428571433</ele><time>2026-04-26T08:01:18Z</time></trkpt><trkpt lat="37.87813159890663" lon="15.111102967894043"><ele>461.0</ele><time>2026-04-26T08:01:19Z</time></trkpt><trkpt lat="37.87819640569647" lon="15.11111208142821"><ele>460.99999999999994</ele><time>2026-04-26T08:01:20Z</time></trkpt><trkpt lat="37.87827128798917" lon="15.111147659522187"><ele>461.0</ele><time>2026-04-26T08:01:21Z</time></trkpt><trkpt lat="37.8783385172324" lon="15.111206211479427"><ele>461.0</ele><time>2026-04-26T08:01:22Z</time></trkpt><trkpt lat="37.87838507842237" lon="15.111276397856379"><ele>461.0</ele><time>2026-04-26T08:01:23Z</time></trkpt><trkpt lat="37.87841982327467" lon="15.11134664777565"><ele>460.99999999999994</ele><time>2026-04-26T08:01:24Z</time></trkpt><trkpt lat="37.87840187740535" lon="15.111443176895083"><ele>461.0</ele><time>2026-04-26T08:01:35Z</time></trkpt><trkpt lat="37.8784210571202" lon="15.111543591402187"><ele>460.6</ele><time>2026-04-26T08:01:37Z</time></trkpt><trkpt lat="37.878439223812855" lon="15.111697474166473"><ele>460.20000000000005</ele><time>2026-04-26T08:01:39Z</time></trkpt><trkpt lat="37.878492648268825" lon="15.111813623494278"><ele>459.79999999999995</ele><time>2026-04-26T08:01:41Z</time></trkpt><trkpt lat="37.8785834283425" lon="15.11185466312633"><ele>459.4</ele><time>2026-04-26T08:01:43Z</time></trkpt><trkpt lat="37.878683657839055" lon="15.111783703695128"><ele>459.0</ele><time>2026-04-26T08:01:45Z</time></trkpt><trkpt lat="37.87878452223135" lon="15.111708910917361"><ele>459.0</ele><time>2026-04-26T08:01:47Z</time></trkpt><trkpt lat="37.87885375325978" lon="15.111708815894719"><ele>459.0</ele><time>2026-04-26T08:01:48Z</time></trkpt><trkpt lat="37.87892484907784" lon="15.11174842196913"><ele>459.0</ele><time>2026-04-26T08:01:49Z</time></trkpt><trkpt lat="37.87908252629888" lon="15.111681011495616"><ele>459.0</ele><time>2026-04-26T08:01:51Z</time></trkpt><trkpt lat="37.879177378436644" lon="15.11160989166757"><ele>459.0</ele><time>2026-04-26T08:01:52Z</time></trkpt><trkpt lat="37.87924756695146" lon="15.111577999624364"><ele>458.8571428571429</ele><time>2026-04-26T08:01:53Z</time></trkpt><trkpt lat="37.87930931846673" lon="15.111559929127798"><ele>458.71428571428567</ele><time>2026-04-26T08:01:54Z</time></trkpt><trkpt lat="37.87935860136809" lon="15.111501825535404"><ele>458.57142857142856</ele><time>2026-04-26T08:01:55Z</time></trkpt><trkpt lat="37.87934684938057" lon="15.11139419755754"><ele>458.42857142857144</ele><time>2026-04-26T08:01:56Z</time></trkpt><trkpt lat="37.879397295882924" lon="15.11132681484055"><ele>458.28571428571433</ele><time>2026-04-26T08:01:58Z</time></trkpt><trkpt lat="37.87944913079542" lon="15.111280625047625"><ele>458.1428571428571</ele><time>2026-04-26T08:02:02Z</time></trkpt><trkpt lat="37.879513822212" lon="15.111271343173884"><ele>458.0</ele><time>2026-04-26T08:02:06Z</time></trkpt><trkpt lat="37.879555567664546" lon="15.111169337702435"><ele>458.0</ele><time>2026-04-26T08:02:26.999Z</time></trkpt><trkpt lat="37.87962389791339" lon="15.111081420047025"><ele>458.0</ele><time>2026-04-26T08:02:27.999Z</time></trkpt><trkpt lat="37.87968907917848" lon="15.110956065201359"><ele>458.0</ele><time>2026-04-26T08:02:28.999Z</time></trkpt><trkpt lat="37.87977221965942" lon="15.110836434489721"><ele>458.0</ele><time>2026-04-26T08:02:29.999Z</time></trkpt><trkpt lat="37.8798593738065" lon="15.110708523314685"><ele>457.0</ele><time>2026-04-26T08:02:30.999Z</time></trkpt><trkpt lat="37.879940590033904" lon="15.110595454130781"><ele>456.0</ele><time>2026-04-26T08:02:31.999Z</time></trkpt><trkpt lat="37.88000887749016" lon="15.110486538124782"><ele>455.0</ele><time>2026-04-26T08:02:32.999Z</time></trkpt><trkpt lat="37.880081528069226" lon="15.110383744400407"><ele>454.0</ele><time>2026-04-26T08:02:33.999Z</time></trkpt><trkpt lat="37.88016710740463" lon="15.110293459300058"><ele>453.25</ele><time>2026-04-26T08:02:34.999Z</time></trkpt><trkpt lat="37.88026692987444" lon="15.11022852434765"><ele>452.5</ele><time>2026-04-26T08:02:35.999Z</time></trkpt><trkpt lat="37.88038497842242" lon="15.110204175322203"><ele>451.75</ele><time>2026-04-26T08:02:36.999Z</time></trkpt><trkpt lat="37.88050901112707" lon="15.110141115566424"><ele>451.0</ele><time>2026-04-26T08:02:37.999Z</time></trkpt><trkpt lat="37.88063812589262" lon="15.110082240658663"><ele>451.0</ele><time>2026-04-26T08:02:38.999Z</time></trkpt><trkpt lat="37.8807484686115" lon="15.110001773546113"><ele>451.0</ele><time>2026-04-26T08:02:39.999Z</time></trkpt><trkpt lat="37.88086414714934" lon="15.10993763273426"><ele>451.0</ele><time>2026-04-26T08:02:40.999Z</time></trkpt><trkpt lat="37.880980915679864" lon="15.109902088826358"><ele>451.0</ele><time>2026-04-26T08:02:41.999Z</time></trkpt><trkpt lat="37.88111183058325" lon="15.109884836802872"><ele>449.5</ele><time>2026-04-26T08:02:42.999Z</time></trkpt><trkpt lat="37.88124283804639" lon="15.109884291962825"><ele>448.0</ele><time>2026-04-26T08:02:43.999Z</time></trkpt><trkpt lat="37.88137256938434" lon="15.109883572494779"><ele>446.5</ele><time>2026-04-26T08:02:44.999Z</time></trkpt><trkpt lat="37.88148938873454" lon="15.10987976360202"><ele>445.0</ele><time>2026-04-26T08:02:45.999Z</time></trkpt><trkpt lat="37.88159809594895" lon="15.109851644330476"><ele>445.0</ele><time>2026-04-26T08:02:46.999Z</time></trkpt><trkpt lat="37.88170976877908" lon="15.109796011807967"><ele>445.0</ele><time>2026-04-26T08:02:47.999Z</time></trkpt><trkpt lat="37.88181528835262" lon="15.109708210493999"><ele>445.0</ele><time>2026-04-26T08:02:48.999Z</time></trkpt><trkpt lat="37.88190521344747" lon="15.109617465349183"><ele>445.0</ele><time>2026-04-26T08:02:49.999Z</time></trkpt><trkpt lat="37.881989689179576" lon="15.109521025587187"><ele>442.8</ele><time>2026-04-26T08:02:50.999Z</time></trkpt><trkpt lat="37.88205903917834" lon="15.109421828919373"><ele>440.6</ele><time>2026-04-26T08:02:51.999Z</time></trkpt><trkpt lat="37.882137929232464" lon="15.10932481537659"><ele>438.4</ele><time>2026-04-26T08:02:52.999Z</time></trkpt><trkpt lat="37.88223085382769" lon="15.109242258286427"><ele>436.2</ele><time>2026-04-26T08:02:53.999Z</time></trkpt><trkpt lat="37.88232778051834" lon="15.109183431862482"><ele>434.0</ele><time>2026-04-26T08:02:54.999Z</time></trkpt><trkpt lat="37.882411736071866" lon="15.10913536352291"><ele>433.99999999999994</ele><time>2026-04-26T08:02:55.999Z</time></trkpt><trkpt lat="37.88247141404514" lon="15.109101650539094"><ele>434.0</ele><time>2026-04-26T08:02:56.999Z</time></trkpt><trkpt lat="37.88251827430058" lon="15.10904819137044"><ele>434.0</ele><time>2026-04-26T08:02:59.999Z</time></trkpt><trkpt lat="37.88260535655029" lon="15.109010510596967"><ele>434.0</ele><time>2026-04-26T08:03:02.999Z</time></trkpt><trkpt lat="37.88262352824243" lon="15.10890511941601"><ele>433.99999999999994</ele><time>2026-04-26T08:03:03.999Z</time></trkpt><trkpt lat="37.88266198871166" lon="15.10873520981167"><ele>434.0</ele><time>2026-04-26T08:03:05.999Z</time></trkpt><trkpt lat="37.882679920545336" lon="15.108626100375947"><ele>432.5</ele><time>2026-04-26T08:03:06.999Z</time></trkpt><trkpt lat="37.88270050315556" lon="15.108507503007061"><ele>431.0</ele><time>2026-04-26T08:03:07.999Z</time></trkpt><trkpt lat="37.88272425184036" lon="15.108375666237526"><ele>429.5</ele><time>2026-04-26T08:03:08.999Z</time></trkpt><trkpt lat="37.88275521937287" lon="15.108224605070252"><ele>428.0</ele><time>2026-04-26T08:03:09.999Z</time></trkpt><trkpt lat="37.882792725504814" lon="15.108045333279149"><ele>427.0</ele><time>2026-04-26T08:03:11Z</time></trkpt><trkpt lat="37.88282675912383" lon="15.107854364168055"><ele>426.0</ele><time>2026-04-26T08:03:12Z</time></trkpt><trkpt lat="37.88287054126147" lon="15.107638543200684"><ele>425.0</ele><time>2026-04-26T08:03:13Z</time></trkpt><trkpt lat="37.88291905012003" lon="15.107426227386679"><ele>425.0</ele><time>2026-04-26T08:03:14Z</time></trkpt><trkpt lat="37.882966920629" lon="15.10721465353794"><ele>425.0</ele><time>2026-04-26T08:03:15Z</time></trkpt><trkpt lat="37.88302440259737" lon="15.106991794003724"><ele>425.0</ele><time>2026-04-26T08:03:16Z</time></trkpt><trkpt lat="37.88308289857051" lon="15.106775162568223"><ele>425.0</ele><time>2026-04-26T08:03:17Z</time></trkpt><trkpt lat="37.88313932423353" lon="15.106570633086037"><ele>425.0</ele><time>2026-04-26T08:03:18Z</time></trkpt><trkpt lat="37.88318214075609" lon="15.106409176080899"><ele>425.0</ele><time>2026-04-26T08:03:19Z</time></trkpt><trkpt lat="37.88320855587642" lon="15.106311116353552"><ele>425.0</ele><time>2026-04-26T08:03:20Z</time></trkpt><trkpt lat="37.88328672943134" lon="15.106214266916128"><ele>424.6</ele><time>2026-04-26T08:03:22Z</time></trkpt><trkpt lat="37.88344331173645" lon="15.106199566009238"><ele>424.2</ele><time>2026-04-26T08:03:25Z</time></trkpt><trkpt lat="37.883507485464854" lon="15.1061820164957"><ele>423.79999999999995</ele><time>2026-04-26T08:03:26Z</time></trkpt><trkpt lat="37.88358215566017" lon="15.106168294142648"><ele>423.4</ele><time>2026-04-26T08:03:27Z</time></trkpt><trkpt lat="37.883650234516544" lon="15.106157419833927"><ele>423.0</ele><time>2026-04-26T08:03:28Z</time></trkpt><trkpt lat="37.88374042099848" lon="15.106138435851479"><ele>423.0</ele><time>2026-04-26T08:03:30Z</time></trkpt><trkpt lat="37.883822337133346" lon="15.106130770647772"><ele>423.0</ele><time>2026-04-26T08:03:35Z</time></trkpt><trkpt lat="37.88389801645697" lon="15.106051501897019"><ele>423.0</ele><time>2026-04-26T08:03:37Z</time></trkpt><trkpt lat="37.883959104726905" lon="15.10601034219589"><ele>423.0</ele><time>2026-04-26T08:03:39Z</time></trkpt><trkpt lat="37.88402763952864" lon="15.105963339280056"><ele>423.0</ele><time>2026-04-26T08:03:42Z</time></trkpt><trkpt lat="37.88410297746782" lon="15.106127946069735"><ele>423.0</ele><time>2026-04-26T08:03:48Z</time></trkpt><trkpt lat="37.884117884681395" lon="15.106247216401664"><ele>423.0</ele><time>2026-04-26T08:03:49Z</time></trkpt><trkpt lat="37.884145139738344" lon="15.106394883743556"><ele>423.0</ele><time>2026-04-26T08:03:50Z</time></trkpt><trkpt lat="37.88417711571053" lon="15.10655219585106"><ele>423.0</ele><time>2026-04-26T08:03:51Z</time></trkpt><trkpt lat="37.88420470338964" lon="15.106707065006892"><ele>423.0</ele><time>2026-04-26T08:03:52Z</time></trkpt><trkpt lat="37.884232017113824" lon="15.106869724770295"><ele>423.0</ele><time>2026-04-26T08:03:53Z</time></trkpt><trkpt lat="37.8842725921654" lon="15.107029795478246"><ele>423.0</ele><time>2026-04-26T08:03:54Z</time></trkpt><trkpt lat="37.88431590987834" lon="15.107164420967127"><ele>423.0</ele><time>2026-04-26T08:03:55Z</time></trkpt><trkpt lat="37.88435442574462" lon="15.107272876338511"><ele>423.0</ele><time>2026-04-26T08:03:56Z</time></trkpt><trkpt lat="37.88440657204834" lon="15.107384215185622"><ele>423.0</ele><time>2026-04-26T08:03:57Z</time></trkpt><trkpt lat="37.88448074185396" lon="15.107503019625781"><ele>423.0</ele><time>2026-04-26T08:03:58Z</time></trkpt><trkpt lat="37.884557583302715" lon="15.10760080602493"><ele>423.0</ele><time>2026-04-26T08:03:59Z</time></trkpt><trkpt lat="37.88461667871764" lon="15.107680979142119"><ele>423.0</ele><time>2026-04-26T08:04:00Z</time></trkpt><trkpt lat="37.88468240677708" lon="15.107725610791737"><ele>423.0</ele><time>2026-04-26T08:04:01Z</time></trkpt><trkpt lat="37.88473619557808" lon="15.107806127270525"><ele>423.0</ele><time>2026-04-26T08:04:02Z</time></trkpt><trkpt lat="37.884801608179615" lon="15.107880864666786"><ele>423.0</ele><time>2026-04-26T08:04:03Z</time></trkpt><trkpt lat="37.88487679600175" lon="15.107986173654401"><ele>423.0</ele><time>2026-04-26T08:04:04Z</time></trkpt><trkpt lat="37.88497393327569" lon="15.108093877305937"><ele>423.0</ele><time>2026-04-26T08:04:05Z</time></trkpt><trkpt lat="37.88506282526223" lon="15.108186317962089"><ele>422.3333333333333</ele><time>2026-04-26T08:04:06Z</time></trkpt><trkpt lat="37.88511770933837" lon="15.108278795161363"><ele>421.66666666666663</ele><time>2026-04-26T08:04:07Z</time></trkpt><trkpt lat="37.885176248535046" lon="15.10834424220728"><ele>421.0</ele><time>2026-04-26T08:04:08Z</time></trkpt><trkpt lat="37.885256130267194" lon="15.108403122559011"><ele>420.3333333333333</ele><time>2026-04-26T08:04:10Z</time></trkpt><trkpt lat="37.885333700706624" lon="15.108437086191431"><ele>419.66666666666663</ele><time>2026-04-26T08:04:12Z</time></trkpt><trkpt lat="37.88540430096379" lon="15.108454714274727"><ele>419.0</ele><time>2026-04-26T08:04:15Z</time></trkpt><trkpt lat="37.88548284080093" lon="15.108549367749701"><ele>419.0</ele><time>2026-04-26T08:04:17Z</time></trkpt><trkpt lat="37.88550938331027" lon="15.108663395036201"><ele>419.0</ele><time>2026-04-26T08:04:19Z</time></trkpt><trkpt lat="37.8853926146673" lon="15.108756350038666"><ele>419.0</ele><time>2026-04-26T08:04:20Z</time></trkpt><trkpt lat="37.88540779359056" lon="15.108874573106936"><ele>419.0</ele><time>2026-04-26T08:04:22Z</time></trkpt><trkpt lat="37.885422273889944" lon="15.10896395973334"><ele>419.0</ele><time>2026-04-26T08:04:28Z</time></trkpt><trkpt lat="37.885309086489556" lon="15.108985555212476"><ele>418.99999999999994</ele><time>2026-04-26T08:04:29Z</time></trkpt><trkpt lat="37.88526036927699" lon="15.109063924966163"><ele>419.0</ele><time>2026-04-26T08:04:32Z</time></trkpt><trkpt lat="37.88527176751251" lon="15.109166083777406"><ele>419.0</ele><time>2026-04-26T08:04:35.999Z</time></trkpt><trkpt lat="37.88527319152007" lon="15.10925122150186"><ele>419.0</ele><time>2026-04-26T08:04:37.999Z</time></trkpt><trkpt lat="37.8852657998178" lon="15.109347494392308"><ele>418.99999999999994</ele><time>2026-04-26T08:04:40.999Z</time></trkpt><trkpt lat="37.88521381602165" lon="15.109421908550084"><ele>419.0</ele><time>2026-04-26T08:04:43.999Z</time></trkpt><trkpt lat="37.885239138083314" lon="15.10954734614758"><ele>418.2</ele><time>2026-04-26T08:04:46.999Z</time></trkpt><trkpt lat="37.88526946534063" lon="15.10963186806272"><ele>417.4</ele><time>2026-04-26T08:04:47.999Z</time></trkpt><trkpt lat="37.88530712439372" lon="15.109752809517282"><ele>416.6</ele><time>2026-04-26T08:04:48.999Z</time></trkpt><trkpt lat="37.88536158489836" lon="15.109885725658682"><ele>415.8</ele><time>2026-04-26T08:04:49.999Z</time></trkpt><trkpt lat="37.885401031925774" lon="15.110000446737146"><ele>415.0</ele><time>2026-04-26T08:04:50.999Z</time></trkpt><trkpt lat="37.88544718014203" lon="15.110116388599906"><ele>414.33333333333337</ele><time>2026-04-26T08:04:51.999Z</time></trkpt><trkpt lat="37.88549903743621" lon="15.11022714629306"><ele>413.6666666666667</ele><time>2026-04-26T08:04:52.999Z</time></trkpt><trkpt lat="37.885546238715406" lon="15.110330473621689"><ele>413.0</ele><time>2026-04-26T08:04:53.999Z</time></trkpt><trkpt lat="37.88559541273588" lon="15.11043146610156"><ele>412.33333333333337</ele><time>2026-04-26T08:04:54.999Z</time></trkpt><trkpt lat="37.885649329549985" lon="15.110521777367795"><ele>411.6666666666667</ele><time>2026-04-26T08:04:55.999Z</time></trkpt><trkpt lat="37.885690599010964" lon="15.11058796001667"><ele>411.0</ele><time>2026-04-26T08:04:56.999Z</time></trkpt><trkpt lat="37.88575439396878" lon="15.110721958584179"><ele>410.8</ele><time>2026-04-26T08:04:58.999Z</time></trkpt><trkpt lat="37.88582020332775" lon="15.110797927707944"><ele>410.6</ele><time>2026-04-26T08:04:59.999Z</time></trkpt><trkpt lat="37.88588688061938" lon="15.1108798855996"><ele>410.4</ele><time>2026-04-26T08:05:00.999Z</time></trkpt><trkpt lat="37.88596024894495" lon="15.11097084212894"><ele>410.2</ele><time>2026-04-26T08:05:01.999Z</time></trkpt><trkpt lat="37.88603968385147" lon="15.111061153537388"><ele>410.0</ele><time>2026-04-26T08:05:02.999Z</time></trkpt><trkpt lat="37.88611614413355" lon="15.11115710842295"><ele>410.0</ele><time>2026-04-26T08:05:03.999Z</time></trkpt><trkpt lat="37.88618064885862" lon="15.111246077221576"><ele>410.0</ele><time>2026-04-26T08:05:04.999Z</time></trkpt><trkpt lat="37.88625206414808" lon="15.111335804604243"><ele>410.0</ele><time>2026-04-26T08:05:05.999Z</time></trkpt><trkpt lat="37.88632860176209" lon="15.111437402948448"><ele>410.0</ele><time>2026-04-26T08:05:06.999Z</time></trkpt><trkpt lat="37.88639114076742" lon="15.111525565714242"><ele>410.0</ele><time>2026-04-26T08:05:07.999Z</time></trkpt><trkpt lat="37.88644970824142" lon="15.111610033762625"><ele>410.0</ele><time>2026-04-26T08:05:08.999Z</time></trkpt><trkpt lat="37.88652666251347" lon="15.111710674971215"><ele>410.0</ele><time>2026-04-26T08:05:09.999Z</time></trkpt><trkpt lat="37.886588883452475" lon="15.11180122739262"><ele>410.0</ele><time>2026-04-26T08:05:10.999Z</time></trkpt><trkpt lat="37.8866556076065" lon="15.11189322435956"><ele>410.0</ele><time>2026-04-26T08:05:11.999Z</time></trkpt><trkpt lat="37.886714776350495" lon="15.11197555017965"><ele>410.0</ele><time>2026-04-26T08:05:12.999Z</time></trkpt><trkpt lat="37.886775188930706" lon="15.112071847744899"><ele>410.0</ele><time>2026-04-26T08:05:13.999Z</time></trkpt><trkpt lat="37.886829004565634" lon="15.112159462604842"><ele>410.0</ele><time>2026-04-26T08:05:14.999Z</time></trkpt><trkpt lat="37.88687353865614" lon="15.112252053138475"><ele>410.0</ele><time>2026-04-26T08:05:15.999Z</time></trkpt><trkpt lat="37.88691196779973" lon="15.112352684784998"><ele>410.0</ele><time>2026-04-26T08:05:17Z</time></trkpt><trkpt lat="37.886958981654566" lon="15.112464538417873"><ele>410.0</ele><time>2026-04-26T08:05:18Z</time></trkpt><trkpt lat="37.887009488571806" lon="15.112596892602404"><ele>410.25</ele><time>2026-04-26T08:05:19Z</time></trkpt><trkpt lat="37.887046348966" lon="15.112720851747792"><ele>410.5</ele><time>2026-04-26T08:05:20Z</time></trkpt><trkpt lat="37.887086781010126" lon="15.112858892646466"><ele>410.75</ele><time>2026-04-26T08:05:21Z</time></trkpt><trkpt lat="37.88713024153626" lon="15.112992534088544"><ele>411.0</ele><time>2026-04-26T08:05:22Z</time></trkpt><trkpt lat="37.88716922489673" lon="15.113136728187868"><ele>410.4</ele><time>2026-04-26T08:05:23Z</time></trkpt><trkpt lat="37.88720150070523" lon="15.11326779153794"><ele>409.8</ele><time>2026-04-26T08:05:24Z</time></trkpt><trkpt lat="37.88721076585872" lon="15.113378829929076"><ele>409.2</ele><time>2026-04-26T08:05:25Z</time></trkpt><trkpt lat="37.88718195198102" lon="15.11349618103256"><ele>408.59999999999997</ele><time>2026-04-26T08:05:26Z</time></trkpt><trkpt lat="37.88718878356139" lon="15.113585641038599"><ele>408.0</ele><time>2026-04-26T08:05:27Z</time></trkpt><trkpt lat="37.887246316358265" lon="15.113671554606732"><ele>408.0</ele><time>2026-04-26T08:05:29Z</time></trkpt><trkpt lat="37.88734080000168" lon="15.113765010262584"><ele>408.0</ele><time>2026-04-26T08:05:31Z</time></trkpt><trkpt lat="37.88741878162708" lon="15.11386931892371"><ele>408.0</ele><time>2026-04-26T08:05:33Z</time></trkpt><trkpt lat="37.88742089395726" lon="15.114003365964853"><ele>408.0</ele><time>2026-04-26T08:05:35Z</time></trkpt><trkpt lat="37.887437182856324" lon="15.114122146674877"><ele>408.0</ele><time>2026-04-26T08:05:37Z</time></trkpt><trkpt lat="37.88746953456181" lon="15.114262130484422"><ele>408.0</ele><time>2026-04-26T08:05:39Z</time></trkpt><trkpt lat="37.88753040944709" lon="15.114369395384017"><ele>408.0</ele><time>2026-04-26T08:05:41Z</time></trkpt><trkpt lat="37.88760018550425" lon="15.114480069591101"><ele>408.0</ele><time>2026-04-26T08:05:43Z</time></trkpt><trkpt lat="37.88767151827962" lon="15.114543652528594"><ele>408.0</ele><time>2026-04-26T08:05:44Z</time></trkpt><trkpt lat="37.88773518646787" lon="15.114616585503343"><ele>408.0</ele><time>2026-04-26T08:05:45Z</time></trkpt><trkpt lat="37.887796884293486" lon="15.114679428679018"><ele>407.5</ele><time>2026-04-26T08:05:46Z</time></trkpt><trkpt lat="37.88781243462246" lon="15.114839259207265"><ele>407.0</ele><time>2026-04-26T08:05:48Z</time></trkpt><trkpt lat="37.88784419745197" lon="15.115026321665182"><ele>406.5</ele><time>2026-04-26T08:05:50Z</time></trkpt><trkpt lat="37.88787698761301" lon="15.11513410506752"><ele>406.0</ele><time>2026-04-26T08:05:51Z</time></trkpt><trkpt lat="37.88796031898479" lon="15.11521369419221"><ele>405.8</ele><time>2026-04-26T08:05:52Z</time></trkpt><trkpt lat="37.88802229627182" lon="15.115293590405983"><ele>405.6</ele><time>2026-04-26T08:05:53Z</time></trkpt><trkpt lat="37.88805732879566" lon="15.115374336027743"><ele>405.4</ele><time>2026-04-26T08:05:54Z</time></trkpt><trkpt lat="37.888046933113046" lon="15.115495602737676"><ele>405.2</ele><time>2026-04-26T08:05:55Z</time></trkpt><trkpt lat="37.8880560378954" lon="15.115609314492842"><ele>405.0</ele><time>2026-04-26T08:05:56Z</time></trkpt><trkpt lat="37.88804699483468" lon="15.115743399869313"><ele>404.5</ele><time>2026-04-26T08:05:57Z</time></trkpt><trkpt lat="37.88801844663765" lon="15.11585124441145"><ele>404.0</ele><time>2026-04-26T08:05:58Z</time></trkpt><trkpt lat="37.88800120747221" lon="15.11595269786179"><ele>403.5</ele><time>2026-04-26T08:05:59Z</time></trkpt><trkpt lat="37.88802827142771" lon="15.11604416288193"><ele>403.0</ele><time>2026-04-26T08:06:00Z</time></trkpt><trkpt lat="37.88810022608529" lon="15.116088048113145"><ele>402.5</ele><time>2026-04-26T08:06:01Z</time></trkpt><trkpt lat="37.888151195294306" lon="15.116154538518781"><ele>402.0</ele><time>2026-04-26T08:06:02Z</time></trkpt><trkpt lat="37.888214258115276" lon="15.116229331026986"><ele>402.0</ele><time>2026-04-26T08:06:03Z</time></trkpt><trkpt lat="37.888236765703624" lon="15.116315999245115"><ele>402.0</ele><time>2026-04-26T08:06:04Z</time></trkpt><trkpt lat="37.8882679053286" lon="15.116431668534176"><ele>402.0</ele><time>2026-04-26T08:06:05Z</time></trkpt><trkpt lat="37.888299136036316" lon="15.116562142316232"><ele>402.0</ele><time>2026-04-26T08:06:06Z</time></trkpt><trkpt lat="37.88832808883259" lon="15.116694722549587"><ele>402.0</ele><time>2026-04-26T08:06:07Z</time></trkpt><trkpt lat="37.88834541710679" lon="15.116817464985376"><ele>401.8</ele><time>2026-04-26T08:06:08Z</time></trkpt><trkpt lat="37.8883359646234" lon="15.116920765846553"><ele>401.6</ele><time>2026-04-26T08:06:10Z</time></trkpt><trkpt lat="37.888366356687726" lon="15.116994794297959"><ele>401.40000000000003</ele><time>2026-04-26T08:06:12Z</time></trkpt><trkpt lat="37.8883913233883" lon="15.117122467022476"><ele>401.20000000000005</ele><time>2026-04-26T08:06:14Z</time></trkpt><trkpt lat="37.888414987803515" lon="15.117255397409307"><ele>401.0</ele><time>2026-04-26T08:06:15Z</time></trkpt><trkpt lat="37.88844152344726" lon="15.117395317303123"><ele>401.0</ele><time>2026-04-26T08:06:16Z</time></trkpt><trkpt lat="37.88845607882097" lon="15.1175404108597"><ele>401.0</ele><time>2026-04-26T08:06:17Z</time></trkpt><trkpt lat="37.88845612442857" lon="15.117657038068531"><ele>401.0</ele><time>2026-04-26T08:06:18Z</time></trkpt><trkpt lat="37.88844223642618" lon="15.117754319771159"><ele>401.0</ele><time>2026-04-26T08:06:19Z</time></trkpt><trkpt lat="37.8883751968757" lon="15.117831053146448"><ele>401.0</ele><time>2026-04-26T08:06:20Z</time></trkpt><trkpt lat="37.88834064702033" lon="15.117939467676742"><ele>401.0</ele><time>2026-04-26T08:06:21Z</time></trkpt><trkpt lat="37.88831181452095" lon="15.11804214486496"><ele>401.0</ele><time>2026-04-26T08:06:22Z</time></trkpt><trkpt lat="37.88830903502631" lon="15.118176548519013"><ele>401.0</ele><time>2026-04-26T08:06:23Z</time></trkpt><trkpt lat="37.88832821681087" lon="15.118326738084075"><ele>401.0</ele><time>2026-04-26T08:06:24Z</time></trkpt><trkpt lat="37.888358542647126" lon="15.118473103886584"><ele>401.0</ele><time>2026-04-26T08:06:25Z</time></trkpt><trkpt lat="37.88840255493551" lon="15.118599572908746"><ele>399.8333333333333</ele><time>2026-04-26T08:06:26Z</time></trkpt><trkpt lat="37.88845330429452" lon="15.118709406182294"><ele>398.66666666666663</ele><time>2026-04-26T08:06:27Z</time></trkpt><trkpt lat="37.888504765818176" lon="15.118816025235814"><ele>397.5</ele><time>2026-04-26T08:06:28Z</time></trkpt><trkpt lat="37.8885485984001" lon="15.118905430489837"><ele>396.33333333333337</ele><time>2026-04-26T08:06:29Z</time></trkpt><trkpt lat="37.8886127251725" lon="15.11896072852687"><ele>395.1666666666667</ele><time>2026-04-26T08:06:30Z</time></trkpt><trkpt lat="37.88869591702879" lon="15.118989979262697"><ele>394.0</ele><time>2026-04-26T08:06:31Z</time></trkpt><trkpt lat="37.88877545700173" lon="15.119038411209749"><ele>393.50000000000006</ele><time>2026-04-26T08:06:32Z</time></trkpt><trkpt lat="37.88880806520172" lon="15.119143040990922"><ele>393.0</ele><time>2026-04-26T08:06:33Z</time></trkpt><trkpt lat="37.8888602202709" lon="15.119222224063348"><ele>392.5</ele><time>2026-04-26T08:06:34Z</time></trkpt><trkpt lat="37.888895446814324" lon="15.11930991179976"><ele>392.0</ele><time>2026-04-26T08:06:35Z</time></trkpt><trkpt lat="37.88893408212557" lon="15.119376392740616"><ele>391.50000000000006</ele><time>2026-04-26T08:06:36Z</time></trkpt><trkpt lat="37.888986558944914" lon="15.119466568881766"><ele>391.0</ele><time>2026-04-26T08:06:38Z</time></trkpt><trkpt lat="37.88902153548624" lon="15.119559440180922"><ele>391.0</ele><time>2026-04-26T08:06:40Z</time></trkpt><trkpt lat="37.889064104864715" lon="15.119659210775598"><ele>391.0</ele><time>2026-04-26T08:06:41.999Z</time></trkpt><trkpt lat="37.889099964627604" lon="15.119768784300323"><ele>391.0</ele><time>2026-04-26T08:06:43.999Z</time></trkpt><trkpt lat="37.88904762584932" lon="15.119874710628636"><ele>391.0</ele><time>2026-04-26T08:06:45.999Z</time></trkpt><trkpt lat="37.88898188211816" lon="15.119996989464363"><ele>391.0</ele><time>2026-04-26T08:06:47.999Z</time></trkpt><trkpt lat="37.88894707331215" lon="15.120073709866737"><ele>391.1666666666667</ele><time>2026-04-26T08:06:48.999Z</time></trkpt><trkpt lat="37.88892404744733" lon="15.120151700284362"><ele>391.33333333333337</ele><time>2026-04-26T08:06:49.999Z</time></trkpt><trkpt lat="37.88891010080682" lon="15.120230693643547"><ele>391.5</ele><time>2026-04-26T08:06:50.999Z</time></trkpt><trkpt lat="37.88889203086072" lon="15.120376476101487"><ele>391.66666666666663</ele><time>2026-04-26T08:06:52.999Z</time></trkpt><trkpt lat="37.888885085131754" lon="15.120499358990177"><ele>391.8333333333333</ele><time>2026-04-26T08:06:54.999Z</time></trkpt><trkpt lat="37.88889354347467" lon="15.120579660243754"><ele>392.0</ele><time>2026-04-26T08:06:55.999Z</time></trkpt><trkpt lat="37.8889404889022" lon="15.120663171339281"><ele>391.0</ele><time>2026-04-26T08:06:56.999Z</time></trkpt><trkpt lat="37.88898276297673" lon="15.120757987382506"><ele>390.0</ele><time>2026-04-26T08:06:57.999Z</time></trkpt><trkpt lat="37.88900429057111" lon="15.120856531682692"><ele>389.0</ele><time>2026-04-26T08:06:58.999Z</time></trkpt><trkpt lat="37.88903017184253" lon="15.120936694659463"><ele>388.0</ele><time>2026-04-26T08:06:59.999Z</time></trkpt><trkpt lat="37.88906026819127" lon="15.121082929840263"><ele>387.0</ele><time>2026-04-26T08:07:01.999Z</time></trkpt><trkpt lat="37.88905526371793" lon="15.121226991840652"><ele>387.0</ele><time>2026-04-26T08:07:03.999Z</time></trkpt><trkpt lat="37.88905747049807" lon="15.121317740439672"><ele>387.0</ele><time>2026-04-26T08:07:04.999Z</time></trkpt><trkpt lat="37.88904279454462" lon="15.1214036497851"><ele>387.0</ele><time>2026-04-26T08:07:05.999Z</time></trkpt><trkpt lat="37.889009675470675" lon="15.121476503459121"><ele>387.0</ele><time>2026-04-26T08:07:06.999Z</time></trkpt><trkpt lat="37.88899252751693" lon="15.121563817017671"><ele>387.0</ele><time>2026-04-26T08:07:07.999Z</time></trkpt><trkpt lat="37.888983469669064" lon="15.121667916174394"><ele>387.0</ele><time>2026-04-26T08:07:08.999Z</time></trkpt><trkpt lat="37.88900437279489" lon="15.121766468767511"><ele>387.0</ele><time>2026-04-26T08:07:09.999Z</time></trkpt><trkpt lat="37.88900719764735" lon="15.121865054235718"><ele>386.6666666666667</ele><time>2026-04-26T08:07:10.999Z</time></trkpt><trkpt lat="37.88899547768041" lon="15.121956810362258"><ele>386.33333333333337</ele><time>2026-04-26T08:07:11.999Z</time></trkpt><trkpt lat="37.88902313259319" lon="15.122039301862852"><ele>386.0</ele><time>2026-04-26T08:07:12.999Z</time></trkpt><trkpt lat="37.889037665085986" lon="15.122123027071623"><ele>385.6666666666667</ele><time>2026-04-26T08:07:13.999Z</time></trkpt><trkpt lat="37.889076605045375" lon="15.122260532296142"><ele>385.33333333333337</ele><time>2026-04-26T08:07:15.999Z</time></trkpt><trkpt lat="37.88907999161005" lon="15.122379658499662"><ele>385.0</ele><time>2026-04-26T08:07:17.999Z</time></trkpt><trkpt lat="37.88908694080718" lon="15.122486313850768"><ele>385.0</ele><time>2026-04-26T08:07:19.999Z</time></trkpt><trkpt lat="37.88909240725638" lon="15.122581046116233"><ele>385.0</ele><time>2026-04-26T08:07:21.999Z</time></trkpt><trkpt lat="37.888991365191515" lon="15.122531779045284"><ele>385.0</ele><time>2026-04-26T08:07:24Z</time></trkpt><trkpt lat="37.888917490647096" lon="15.1225786698922"><ele>385.0</ele><time>2026-04-26T08:07:27Z</time></trkpt><trkpt lat="37.88892683997275" lon="15.122738608912996"><ele>385.0</ele><time>2026-04-26T08:07:30Z</time></trkpt><trkpt lat="37.88893353861106" lon="15.1228434084634"><ele>385.0</ele><time>2026-04-26T08:07:31Z</time></trkpt><trkpt lat="37.88894140365413" lon="15.122985699838992"><ele>385.0</ele><time>2026-04-26T08:07:32Z</time></trkpt><trkpt lat="37.88896079270009" lon="15.123145023711375"><ele>385.0</ele><time>2026-04-26T08:07:33Z</time></trkpt><trkpt lat="37.88896294777985" lon="15.123317182766087"><ele>385.0</ele><time>2026-04-26T08:07:34Z</time></trkpt><trkpt lat="37.88897483527065" lon="15.1234778129485"><ele>384.75</ele><time>2026-04-26T08:07:35Z</time></trkpt><trkpt lat="37.88898147427256" lon="15.123650629882558"><ele>384.5</ele><time>2026-04-26T08:07:36Z</time></trkpt><trkpt lat="37.888986803575314" lon="15.12383794519143"><ele>384.25</ele><time>2026-04-26T08:07:37Z</time></trkpt><trkpt lat="37.88899579462691" lon="15.124007481900149"><ele>384.0</ele><time>2026-04-26T08:07:38Z</time></trkpt><trkpt lat="37.88900836574264" lon="15.124162277818778"><ele>384.0</ele><time>2026-04-26T08:07:39Z</time></trkpt><trkpt lat="37.889019367163364" lon="15.124327641508915"><ele>384.0</ele><time>2026-04-26T08:07:40Z</time></trkpt><trkpt lat="37.889032541505834" lon="15.124499608440996"><ele>384.0</ele><time>2026-04-26T08:07:41Z</time></trkpt><trkpt lat="37.889039057213814" lon="15.124675533943064"><ele>384.0</ele><time>2026-04-26T08:07:42Z</time></trkpt><trkpt lat="37.88904497974311" lon="15.124840299185674"><ele>383.75</ele><time>2026-04-26T08:07:43Z</time></trkpt><trkpt lat="37.88905737585447" lon="15.124998013458844"><ele>383.5</ele><time>2026-04-26T08:07:44Z</time></trkpt><trkpt lat="37.88906901165798" lon="15.12513875201085"><ele>383.25</ele><time>2026-04-26T08:07:45Z</time></trkpt><trkpt lat="37.88906686412242" lon="15.125300749016233"><ele>383.0</ele><time>2026-04-26T08:07:46Z</time></trkpt><trkpt lat="37.889078988731704" lon="15.12546373336123"><ele>383.0</ele><time>2026-04-26T08:07:47Z</time></trkpt><trkpt lat="37.88908779997021" lon="15.125636184050853"><ele>383.0</ele><time>2026-04-26T08:07:48Z</time></trkpt><trkpt lat="37.88910583212956" lon="15.125800869851197"><ele>383.0</ele><time>2026-04-26T08:07:49Z</time></trkpt><trkpt lat="37.889115483075855" lon="15.125971813076784"><ele>383.0</ele><time>2026-04-26T08:07:50Z</time></trkpt><trkpt lat="37.889120282949875" lon="15.126148276546148"><ele>382.0</ele><time>2026-04-26T08:07:51Z</time></trkpt><trkpt lat="37.889132192878535" lon="15.126314248472118"><ele>381.0</ele><time>2026-04-26T08:07:52Z</time></trkpt><trkpt lat="37.88914884791842" lon="15.126467740366481"><ele>380.0</ele><time>2026-04-26T08:07:53Z</time></trkpt><trkpt lat="37.88915978132172" lon="15.126595337826958"><ele>379.0</ele><time>2026-04-26T08:07:54Z</time></trkpt><trkpt lat="37.889161454865864" lon="15.126722171628337"><ele>378.2</ele><time>2026-04-26T08:07:55Z</time></trkpt><trkpt lat="37.8891626613015" lon="15.126845933953792"><ele>377.4</ele><time>2026-04-26T08:07:56Z</time></trkpt><trkpt lat="37.88916949183105" lon="15.126972281425719"><ele>376.6</ele><time>2026-04-26T08:07:57Z</time></trkpt><trkpt lat="37.889177192752925" lon="15.127081301570648"><ele>375.8</ele><time>2026-04-26T08:07:58Z</time></trkpt><trkpt lat="37.88915089825623" lon="15.127220250354297"><ele>375.0</ele><time>2026-04-26T08:07:59Z</time></trkpt><trkpt lat="37.889150557208524" lon="15.12737928394168"><ele>374.8</ele><time>2026-04-26T08:08:00Z</time></trkpt><trkpt lat="37.88913861457953" lon="15.127522686532924"><ele>374.6</ele><time>2026-04-26T08:08:01Z</time></trkpt><trkpt lat="37.88914878259219" lon="15.127641739843497"><ele>374.4</ele><time>2026-04-26T08:08:02Z</time></trkpt><trkpt lat="37.88915630424162" lon="15.127758513902117"><ele>374.2</ele><time>2026-04-26T08:08:03Z</time></trkpt><trkpt lat="37.88912583943559" lon="15.127890634718426"><ele>374.0</ele><time>2026-04-26T08:08:04Z</time></trkpt><trkpt lat="37.88912846556303" lon="15.128039039887025"><ele>374.0</ele><time>2026-04-26T08:08:05Z</time></trkpt><trkpt lat="37.88912949296901" lon="15.128179679984695"><ele>374.0</ele><time>2026-04-26T08:08:06Z</time></trkpt><trkpt lat="37.88914177673679" lon="15.128308436316614"><ele>374.0</ele><time>2026-04-26T08:08:07Z</time></trkpt><trkpt lat="37.88916398779097" lon="15.128420502921605"><ele>374.0</ele><time>2026-04-26T08:08:09Z</time></trkpt><trkpt lat="37.889145091107885" lon="15.128263323015018"><ele>374.0</ele><time>2026-04-26T08:08:40Z</time></trkpt><trkpt lat="37.88912917668127" lon="15.128140231804082"><ele>374.0</ele><time>2026-04-26T08:08:41Z</time></trkpt><trkpt lat="37.889125249235256" lon="15.128055361169737"><ele>374.0</ele><time>2026-04-26T08:08:42Z</time></trkpt><trkpt lat="37.88912419856835" lon="15.127973232666887"><ele>374.0</ele><time>2026-04-26T08:08:43Z</time></trkpt><trkpt lat="37.88917283699488" lon="15.12791609364326"><ele>374.0</ele><time>2026-04-26T08:08:51Z</time></trkpt><trkpt lat="37.88926313342673" lon="15.127919955362046"><ele>374.0</ele><time>2026-04-26T08:08:54Z</time></trkpt><trkpt lat="37.889327121509496" lon="15.127949659571023"><ele>374.0</ele><time>2026-04-26T08:08:57Z</time></trkpt><trkpt lat="37.889318139493966" lon="15.128049365886312"><ele>374.0</ele><time>2026-04-26T08:10:57.999Z</time></trkpt><trkpt lat="37.8893300090512" lon="15.128140052074636"><ele>373.5</ele><time>2026-04-26T08:10:59.999Z</time></trkpt><trkpt lat="37.889339090987725" lon="15.128241183851854"><ele>373.0</ele><time>2026-04-26T08:11:01.999Z</time></trkpt><trkpt lat="37.88934216199133" lon="15.128340980119939"><ele>372.5</ele><time>2026-04-26T08:11:04.999Z</time></trkpt><trkpt lat="37.889346461531616" lon="15.128433426063463"><ele>372.0</ele><time>2026-04-26T08:11:06.999Z</time></trkpt><trkpt lat="37.889369696619646" lon="15.128536054884243"><ele>371.5</ele><time>2026-04-26T08:11:09.999Z</time></trkpt><trkpt lat="37.88937039438547" lon="15.12869750098099"><ele>371.0</ele><time>2026-04-26T08:13:34.998Z</time></trkpt><trkpt lat="37.889380778400856" lon="15.128808845979249"><ele>371.0</ele><time>2026-04-26T08:13:35.998Z</time></trkpt><trkpt lat="37.88939218477369" lon="15.128912209533173"><ele>371.0</ele><time>2026-04-26T08:13:36.998Z</time></trkpt><trkpt lat="37.88940208645407" lon="15.128991640409128"><ele>371.0</ele><time>2026-04-26T08:13:37.998Z</time></trkpt><trkpt lat="37.8894179164827" lon="15.129099158184824"><ele>371.0</ele><time>2026-04-26T08:13:39.998Z</time></trkpt><trkpt lat="37.889430708356464" lon="15.129179269745013"><ele>371.0</ele><time>2026-04-26T08:13:45Z</time></trkpt><trkpt lat="37.88945033256423" lon="15.129292193057248"><ele>371.0</ele><time>2026-04-26T08:13:47Z</time></trkpt><trkpt lat="37.88946633503582" lon="15.12938238639535"><ele>370.8</ele><time>2026-04-26T08:13:48Z</time></trkpt><trkpt lat="37.88948790995441" lon="15.129478361498265"><ele>370.6</ele><time>2026-04-26T08:13:49Z</time></trkpt><trkpt lat="37.88951499610016" lon="15.129577998928056"><ele>370.4</ele><time>2026-04-26T08:13:50Z</time></trkpt><trkpt lat="37.88953999129837" lon="15.129655476628997"><ele>370.2</ele><time>2026-04-26T08:13:51Z</time></trkpt><trkpt lat="37.88958975146095" lon="15.129792851394138"><ele>370.0</ele><time>2026-04-26T08:13:53Z</time></trkpt><trkpt lat="37.88969170738957" lon="15.129876970587507"><ele>370.2</ele><time>2026-04-26T08:13:54.999Z</time></trkpt><trkpt lat="37.889779665769325" lon="15.129901904420576"><ele>370.4</ele><time>2026-04-26T08:13:56.999Z</time></trkpt><trkpt lat="37.88969482170228" lon="15.130045474961262"><ele>370.6</ele><time>2026-04-26T08:14:02.999Z</time></trkpt><trkpt lat="37.88958486800328" lon="15.130107560032698"><ele>370.8</ele><time>2026-04-26T08:14:04.999Z</time></trkpt><trkpt lat="37.88950574135572" lon="15.130162786064123"><ele>371.0</ele><time>2026-04-26T08:14:07.999Z</time></trkpt><trkpt lat="37.889540957090674" lon="15.130277605214586"><ele>371.0</ele><time>2026-04-26T08:14:12.999Z</time></trkpt><trkpt lat="37.889633848254306" lon="15.13032185847949"><ele>371.0</ele><time>2026-04-26T08:14:14.999Z</time></trkpt><trkpt lat="37.8896566220237" lon="15.13041047218392"><ele>371.0</ele><time>2026-04-26T08:14:15.999Z</time></trkpt><trkpt lat="37.88972462405378" lon="15.13050721480858"><ele>371.0</ele><time>2026-04-26T08:14:16.999Z</time></trkpt><trkpt lat="37.889792762546804" lon="15.130622629433509"><ele>371.0</ele><time>2026-04-26T08:14:17.999Z</time></trkpt><trkpt lat="37.88984659859897" lon="15.1307161882343"><ele>370.0</ele><time>2026-04-26T08:14:18.999Z</time></trkpt><trkpt lat="37.88989483295004" lon="15.1307960017045"><ele>369.0</ele><time>2026-04-26T08:14:19.999Z</time></trkpt><trkpt lat="37.889908723816475" lon="15.130878756243236"><ele>368.0</ele><time>2026-04-26T08:14:20.999Z</time></trkpt><trkpt lat="37.88990892379269" lon="15.131033796855634"><ele>367.0</ele><time>2026-04-26T08:14:22.999Z</time></trkpt><trkpt lat="37.889943711688105" lon="15.131142050975837"><ele>366.0</ele><time>2026-04-26T08:14:23.999Z</time></trkpt><trkpt lat="37.889976600654144" lon="15.131245294454095"><ele>365.0</ele><time>2026-04-26T08:14:24.999Z</time></trkpt><trkpt lat="37.89000933177975" lon="15.131348042275965"><ele>365.0</ele><time>2026-04-26T08:14:25.999Z</time></trkpt><trkpt lat="37.890353552101416" lon="15.131320346185026"><ele>365.0</ele><time>2026-04-26T08:14:27.999Z</time></trkpt><trkpt lat="37.89042534474021" lon="15.131362368517758"><ele>365.0</ele><time>2026-04-26T08:14:29.999Z</time></trkpt><trkpt lat="37.89049669424531" lon="15.131378844675368"><ele>365.0</ele><time>2026-04-26T08:14:31.999Z</time></trkpt><trkpt lat="37.890568754181224" lon="15.13145414987874"><ele>365.0</ele><time>2026-04-26T08:14:33.999Z</time></trkpt><trkpt lat="37.89065320585603" lon="15.131500236474237"><ele>365.0</ele><time>2026-04-26T08:14:35.999Z</time></trkpt><trkpt lat="37.890719759255674" lon="15.13155004977748"><ele>365.0</ele><time>2026-04-26T08:14:38.999Z</time></trkpt><trkpt lat="37.89080676088366" lon="15.131609499954907"><ele>365.0</ele><time>2026-04-26T08:14:40.999Z</time></trkpt><trkpt lat="37.89089854855227" lon="15.131670784611998"><ele>364.0</ele><time>2026-04-26T08:14:42.999Z</time></trkpt><trkpt lat="37.89098085414123" lon="15.131718159168372"><ele>363.0</ele><time>2026-04-26T08:14:44.999Z</time></trkpt><trkpt lat="37.89104801316708" lon="15.131749896652929"><ele>362.0</ele><time>2026-04-26T08:14:47.999Z</time></trkpt><trkpt lat="37.89111773213269" lon="15.13181048022106"><ele>361.0</ele><time>2026-04-26T08:17:22.999Z</time></trkpt><trkpt lat="37.89119326553082" lon="15.131851664906414"><ele>360.0</ele><time>2026-04-26T08:17:24.999Z</time></trkpt><trkpt lat="37.891260936038236" lon="15.131889497416715"><ele>359.0</ele><time>2026-04-26T08:17:26.999Z</time></trkpt><trkpt lat="37.89134379728293" lon="15.131931419365813"><ele>359.0</ele><time>2026-04-26T08:17:28.999Z</time></trkpt><trkpt lat="37.89142636634139" lon="15.131984232464518"><ele>359.0</ele><time>2026-04-26T08:17:30.999Z</time></trkpt><trkpt lat="37.89149559680767" lon="15.132026882481005"><ele>359.0</ele><time>2026-04-26T08:17:32.999Z</time></trkpt><trkpt lat="37.891569553348724" lon="15.132059082835596"><ele>359.0</ele><time>2026-04-26T08:17:35.999Z</time></trkpt><trkpt lat="37.89165777963862" lon="15.13211193947294"><ele>359.0</ele><time>2026-04-26T08:17:37.999Z</time></trkpt><trkpt lat="37.89176084631912" lon="15.132168012302575"><ele>358.0</ele><time>2026-04-26T08:17:39.999Z</time></trkpt><trkpt lat="37.891871354838266" lon="15.132226920091588"><ele>357.0</ele><time>2026-04-26T08:17:41.999Z</time></trkpt><trkpt lat="37.89194059075285" lon="15.13226579662892"><ele>356.0</ele><time>2026-04-26T08:17:42.999Z</time></trkpt><trkpt lat="37.89204800522339" lon="15.132326975905345"><ele>355.0</ele><time>2026-04-26T08:17:44.999Z</time></trkpt><trkpt lat="37.892107168513284" lon="15.132364908640104"><ele>354.0</ele><time>2026-04-26T08:17:45.999Z</time></trkpt><trkpt lat="37.8922025119736" lon="15.13241540828994"><ele>353.5</ele><time>2026-04-26T08:17:47.999Z</time></trkpt><trkpt lat="37.89225997245968" lon="15.132450749668086"><ele>353.0</ele><time>2026-04-26T08:17:48.999Z</time></trkpt><trkpt lat="37.89234257494994" lon="15.132510447548254"><ele>352.5</ele><time>2026-04-26T08:17:50.999Z</time></trkpt><trkpt lat="37.89240675145523" lon="15.132533244144247"><ele>352.0</ele><time>2026-04-26T08:17:52Z</time></trkpt><trkpt lat="37.892498731002796" lon="15.132592601140749"><ele>351.5</ele><time>2026-04-26T08:17:54Z</time></trkpt><trkpt lat="37.89259499489526" lon="15.132654079460226"><ele>351.0</ele><time>2026-04-26T08:17:56Z</time></trkpt><trkpt lat="37.892688805079025" lon="15.13271612923137"><ele>353.0</ele><time>2026-04-26T08:17:58Z</time></trkpt><trkpt lat="37.89279755890234" lon="15.132771330405985"><ele>355.0</ele><time>2026-04-26T08:18:00Z</time></trkpt><trkpt lat="37.89289230230391" lon="15.132833070753522"><ele>357.0</ele><time>2026-04-26T08:18:02Z</time></trkpt><trkpt lat="37.892986619123256" lon="15.132886603575923"><ele>359.0</ele><time>2026-04-26T08:18:04Z</time></trkpt><trkpt lat="37.89306148886279" lon="15.132950581930851"><ele>361.0</ele><time>2026-04-26T08:18:06Z</time></trkpt><trkpt lat="37.89314833627458" lon="15.132993611151807"><ele>361.0</ele><time>2026-04-26T08:18:08Z</time></trkpt><trkpt lat="37.89322906709038" lon="15.133055740633871"><ele>361.0</ele><time>2026-04-26T08:18:11Z</time></trkpt><trkpt lat="37.89335256567412" lon="15.133121032602155"><ele>361.0</ele><time>2026-04-26T08:18:13Z</time></trkpt><trkpt lat="37.89341601062164" lon="15.133158412261768"><ele>361.0</ele><time>2026-04-26T08:18:14Z</time></trkpt><trkpt lat="37.893480486370294" lon="15.13319308116997"><ele>361.0</ele><time>2026-04-26T08:18:15Z</time></trkpt><trkpt lat="37.89360547367779" lon="15.13326425723998"><ele>360.16666666666663</ele><time>2026-04-26T08:18:17Z</time></trkpt><trkpt lat="37.893668445105014" lon="15.133308487971165"><ele>359.3333333333333</ele><time>2026-04-26T08:18:18Z</time></trkpt><trkpt lat="37.89373287217917" lon="15.133363068398207"><ele>358.5</ele><time>2026-04-26T08:18:19Z</time></trkpt><trkpt lat="37.89381623693847" lon="15.133429428321865"><ele>357.6666666666667</ele><time>2026-04-26T08:18:20Z</time></trkpt><trkpt lat="37.89387567376654" lon="15.133465110132109"><ele>356.83333333333337</ele><time>2026-04-26T08:18:21Z</time></trkpt><trkpt lat="37.89393385981112" lon="15.133495567973318"><ele>356.0</ele><time>2026-04-26T08:18:22Z</time></trkpt><trkpt lat="37.89398606537547" lon="15.133564066739382"><ele>356.0</ele><time>2026-04-26T08:18:24Z</time></trkpt><trkpt lat="37.89399355489233" lon="15.13370732854573"><ele>356.0</ele><time>2026-04-26T08:18:26Z</time></trkpt><trkpt lat="37.894017806882786" lon="15.133853181924726"><ele>356.0</ele><time>2026-04-26T08:18:27Z</time></trkpt><trkpt lat="37.8940511451016" lon="15.134018968465302"><ele>356.0</ele><time>2026-04-26T08:18:28Z</time></trkpt><trkpt lat="37.89407032634038" lon="15.1341572716474"><ele>355.20000000000005</ele><time>2026-04-26T08:18:29Z</time></trkpt><trkpt lat="37.89409107211456" lon="15.13428278799928"><ele>354.40000000000003</ele><time>2026-04-26T08:18:30Z</time></trkpt><trkpt lat="37.89410992620884" lon="15.134384907327814"><ele>353.6</ele><time>2026-04-26T08:18:31Z</time></trkpt><trkpt lat="37.89411565282396" lon="15.13449678987577"><ele>352.8</ele><time>2026-04-26T08:18:33Z</time></trkpt><trkpt lat="37.89422326291093" lon="15.134549405157221"><ele>352.0</ele><time>2026-04-26T08:18:36Z</time></trkpt><trkpt lat="37.894289153740594" lon="15.134327388599004"><ele>352.5</ele><time>2026-04-26T08:18:38Z</time></trkpt><trkpt lat="37.89432362294936" lon="15.13418200205114"><ele>353.0</ele><time>2026-04-26T08:18:38.999Z</time></trkpt><trkpt lat="37.8943666808197" lon="15.134066645005491"><ele>353.5</ele><time>2026-04-26T08:18:39.999Z</time></trkpt><trkpt lat="37.89441309004186" lon="15.133986311340037"><ele>354.0</ele><time>2026-04-26T08:18:40.999Z</time></trkpt><trkpt lat="37.894471289632556" lon="15.133934482356317"><ele>354.5</ele><time>2026-04-26T08:18:41.999Z</time></trkpt><trkpt lat="37.894537136156444" lon="15.133934835064636"><ele>355.0</ele><time>2026-04-26T08:18:42.999Z</time></trkpt><trkpt lat="37.894615495915275" lon="15.134020062216658"><ele>352.3333333333333</ele><time>2026-04-26T08:18:43.999Z</time></trkpt><trkpt lat="37.894732551991176" lon="15.134091174318726"><ele>349.6666666666667</ele><time>2026-04-26T08:18:44.999Z</time></trkpt><trkpt lat="37.89487166582897" lon="15.134173429233702"><ele>347.0</ele><time>2026-04-26T08:18:45.999Z</time></trkpt><trkpt lat="37.89502762781951" lon="15.134252921342988"><ele>346.75</ele><time>2026-04-26T08:18:46.999Z</time></trkpt><trkpt lat="37.89515499234364" lon="15.134331306409782"><ele>346.5</ele><time>2026-04-26T08:18:47.999Z</time></trkpt><trkpt lat="37.895263346168804" lon="15.134402463423994"><ele>346.25</ele><time>2026-04-26T08:18:48.999Z</time></trkpt><trkpt lat="37.8953800837424" lon="15.134471200024286"><ele>346.0</ele><time>2026-04-26T08:18:49.999Z</time></trkpt><trkpt lat="37.89548414897981" lon="15.134546354106533"><ele>346.0</ele><time>2026-04-26T08:18:50.999Z</time></trkpt><trkpt lat="37.89558723256682" lon="15.134617030421607"><ele>346.0</ele><time>2026-04-26T08:18:51.999Z</time></trkpt><trkpt lat="37.89570608416053" lon="15.134694370289765"><ele>346.0</ele><time>2026-04-26T08:18:52.999Z</time></trkpt><trkpt lat="37.89583171422558" lon="15.134775003535461"><ele>346.0</ele><time>2026-04-26T08:18:53.999Z</time></trkpt><trkpt lat="37.89597308648174" lon="15.134850503648373"><ele>345.75</ele><time>2026-04-26T08:18:54.999Z</time></trkpt><trkpt lat="37.896123346441016" lon="15.134919156250675"><ele>345.5</ele><time>2026-04-26T08:18:55.999Z</time></trkpt><trkpt lat="37.896263339289334" lon="15.134990609662378"><ele>345.25</ele><time>2026-04-26T08:18:56.999Z</time></trkpt><trkpt lat="37.896387485938284" lon="15.135064626035335"><ele>345.0</ele><time>2026-04-26T08:18:57.999Z</time></trkpt><trkpt lat="37.89650842794447" lon="15.135134898825457"><ele>345.0</ele><time>2026-04-26T08:18:58.999Z</time></trkpt><trkpt lat="37.896611461628474" lon="15.13521280242248"><ele>345.0</ele><time>2026-04-26T08:18:59.999Z</time></trkpt><trkpt lat="37.89670676247057" lon="15.135297459203645"><ele>345.0</ele><time>2026-04-26T08:19:00.999Z</time></trkpt><trkpt lat="37.89679657159214" lon="15.135370044809546"><ele>345.0</ele><time>2026-04-26T08:19:01.999Z</time></trkpt><trkpt lat="37.896881739434626" lon="15.135425820605173"><ele>345.0</ele><time>2026-04-26T08:19:02.999Z</time></trkpt><trkpt lat="37.8969873160415" lon="15.135465871971657"><ele>345.25</ele><time>2026-04-26T08:19:03.999Z</time></trkpt><trkpt lat="37.89712702200485" lon="15.13548013904127"><ele>345.5</ele><time>2026-04-26T08:19:04.999Z</time></trkpt><trkpt lat="37.89727118347448" lon="15.135480842128171"><ele>345.75</ele><time>2026-04-26T08:19:05.999Z</time></trkpt><trkpt lat="37.89741186454543" lon="15.135488731544807"><ele>346.0</ele><time>2026-04-26T08:19:06.999Z</time></trkpt><trkpt lat="37.89755284619713" lon="15.135502971212588"><ele>345.0</ele><time>2026-04-26T08:19:07.999Z</time></trkpt><trkpt lat="37.89769971918991" lon="15.135525764228035"><ele>344.0</ele><time>2026-04-26T08:19:08.999Z</time></trkpt><trkpt lat="37.89785337334702" lon="15.135536533550864"><ele>343.0</ele><time>2026-04-26T08:19:09.999Z</time></trkpt><trkpt lat="37.89801135372817" lon="15.135545523717667"><ele>343.0</ele><time>2026-04-26T08:19:10.999Z</time></trkpt><trkpt lat="37.89815100593298" lon="15.135565783718633"><ele>343.0</ele><time>2026-04-26T08:19:11.999Z</time></trkpt><trkpt lat="37.89826599746831" lon="15.135575922908577"><ele>343.0</ele><time>2026-04-26T08:19:12.999Z</time></trkpt><trkpt lat="37.898345165953565" lon="15.13558156510119"><ele>343.0</ele><time>2026-04-26T08:19:13.999Z</time></trkpt><trkpt lat="37.898415633619116" lon="15.135596980809312"><ele>343.0</ele><time>2026-04-26T08:19:14.999Z</time></trkpt><trkpt lat="37.898525430035626" lon="15.135614373266241"><ele>342.59999999999997</ele><time>2026-04-26T08:19:16.999Z</time></trkpt><trkpt lat="37.898596861156" lon="15.135642788740588"><ele>342.2</ele><time>2026-04-26T08:19:18.999Z</time></trkpt><trkpt lat="37.8986301398957" lon="15.135493875215124"><ele>341.8</ele><time>2026-04-26T08:19:20.999Z</time></trkpt><trkpt lat="37.89863623970401" lon="15.135407382363093"><ele>341.4</ele><time>2026-04-26T08:19:21.999Z</time></trkpt><trkpt lat="37.89864069843715" lon="15.13529002299582"><ele>341.0</ele><time>2026-04-26T08:19:22.999Z</time></trkpt><trkpt lat="37.898649343411634" lon="15.135150424613377"><ele>341.0</ele><time>2026-04-26T08:19:23.999Z</time></trkpt><trkpt lat="37.89867817771727" lon="15.135001099437504"><ele>341.0</ele><time>2026-04-26T08:19:24.999Z</time></trkpt><trkpt lat="37.89871512398497" lon="15.134875348647311"><ele>341.0</ele><time>2026-04-26T08:19:25.999Z</time></trkpt><trkpt lat="37.89877856584267" lon="15.134776652950334"><ele>341.0</ele><time>2026-04-26T08:19:26.999Z</time></trkpt><trkpt lat="37.89888572496827" lon="15.134725480696252"><ele>341.0</ele><time>2026-04-26T08:19:27.999Z</time></trkpt><trkpt lat="37.89900757511812" lon="15.13465888741609"><ele>341.0</ele><time>2026-04-26T08:19:28.999Z</time></trkpt><trkpt lat="37.899148546811176" lon="15.134567062351142"><ele>341.0</ele><time>2026-04-26T08:19:29.999Z</time></trkpt><trkpt lat="37.89930981371901" lon="15.134486629774445"><ele>341.0</ele><time>2026-04-26T08:19:30.999Z</time></trkpt><trkpt lat="37.89947868652443" lon="15.134394365731275"><ele>340.25</ele><time>2026-04-26T08:19:31.999Z</time></trkpt><trkpt lat="37.899616029307126" lon="15.134316027468408"><ele>339.5</ele><time>2026-04-26T08:19:32.999Z</time></trkpt><trkpt lat="37.899740539189565" lon="15.134258060379443"><ele>338.75</ele><time>2026-04-26T08:19:33.999Z</time></trkpt><trkpt lat="37.89985195392979" lon="15.134199742604508"><ele>338.0</ele><time>2026-04-26T08:19:34.999Z</time></trkpt><trkpt lat="37.89996722956659" lon="15.134147827033116"><ele>338.0</ele><time>2026-04-26T08:19:35.999Z</time></trkpt><trkpt lat="37.900098935789835" lon="15.134095915425549"><ele>338.0</ele><time>2026-04-26T08:19:36.999Z</time></trkpt><trkpt lat="37.90024281342047" lon="15.134046829539544"><ele>338.0</ele><time>2026-04-26T08:19:37.999Z</time></trkpt><trkpt lat="37.900394023947094" lon="15.13399373667185"><ele>338.0</ele><time>2026-04-26T08:19:38.999Z</time></trkpt><trkpt lat="37.90054820931217" lon="15.133923416219742"><ele>338.0</ele><time>2026-04-26T08:19:39.999Z</time></trkpt><trkpt lat="37.900694467628014" lon="15.133848665604331"><ele>338.0</ele><time>2026-04-26T08:19:40.999Z</time></trkpt><trkpt lat="37.90083958620229" lon="15.133771011999288"><ele>338.0</ele><time>2026-04-26T08:19:41.999Z</time></trkpt><trkpt lat="37.900964740060964" lon="15.133691554622335"><ele>337.2</ele><time>2026-04-26T08:19:42.999Z</time></trkpt><trkpt lat="37.90107866708056" lon="15.13361456152127"><ele>336.4</ele><time>2026-04-26T08:19:43.999Z</time></trkpt><trkpt lat="37.90118509674154" lon="15.133548851535688"><ele>335.59999999999997</ele><time>2026-04-26T08:19:44.999Z</time></trkpt><trkpt lat="37.90127655149417" lon="15.133485365943034"><ele>334.79999999999995</ele><time>2026-04-26T08:19:45.999Z</time></trkpt><trkpt lat="37.9013447133148" lon="15.1334212111738"><ele>334.0</ele><time>2026-04-26T08:19:46.999Z</time></trkpt><trkpt lat="37.901455376615154" lon="15.133395198178683"><ele>334.0</ele><time>2026-04-26T08:19:48.999Z</time></trkpt><trkpt lat="37.90151662913584" lon="15.133427409826215"><ele>334.0</ele><time>2026-04-26T08:19:49.999Z</time></trkpt><trkpt lat="37.90158003661867" lon="15.133469141756683"><ele>334.0</ele><time>2026-04-26T08:19:50.999Z</time></trkpt><trkpt lat="37.90163979190112" lon="15.1335064625815"><ele>334.0</ele><time>2026-04-26T08:19:51.999Z</time></trkpt><trkpt lat="37.90172201653784" lon="15.133551305704266"><ele>334.0</ele><time>2026-04-26T08:19:53.999Z</time></trkpt><trkpt lat="37.90180183135855" lon="15.133573285465793"><ele>334.0</ele><time>2026-04-26T08:19:56.999Z</time></trkpt><trkpt lat="37.90187583782339" lon="15.133596487021617"><ele>333.25</ele><time>2026-04-26T08:19:57.999Z</time></trkpt><trkpt lat="37.90196520890535" lon="15.133634764753037"><ele>332.5</ele><time>2026-04-26T08:19:58.999Z</time></trkpt><trkpt lat="37.90207488252194" lon="15.133693340688433"><ele>331.75</ele><time>2026-04-26T08:19:59.999Z</time></trkpt><trkpt lat="37.90219210834281" lon="15.133748565913558"><ele>331.0</ele><time>2026-04-26T08:20:00.999Z</time></trkpt><trkpt lat="37.90230983781974" lon="15.133788679421489"><ele>331.0</ele><time>2026-04-26T08:20:01.999Z</time></trkpt><trkpt lat="37.90241163445214" lon="15.133828733605148"><ele>331.0</ele><time>2026-04-26T08:20:02.999Z</time></trkpt><trkpt lat="37.90251824390992" lon="15.133873729330546"><ele>331.0</ele><time>2026-04-26T08:20:03.999Z</time></trkpt><trkpt lat="37.90262995699122" lon="15.133926378463196"><ele>331.0</ele><time>2026-04-26T08:20:04.999Z</time></trkpt><trkpt lat="37.90275033199211" lon="15.133975577984438"><ele>331.25</ele><time>2026-04-26T08:20:05.999Z</time></trkpt><trkpt lat="37.90286307468347" lon="15.13401143673686"><ele>331.5</ele><time>2026-04-26T08:20:07Z</time></trkpt><trkpt lat="37.902973665573796" lon="15.134052035874827"><ele>331.75</ele><time>2026-04-26T08:20:08Z</time></trkpt><trkpt lat="37.903076278544226" lon="15.134094774776097"><ele>332.0</ele><time>2026-04-26T08:20:09Z</time></trkpt><trkpt lat="37.90318339977921" lon="15.134138388948674"><ele>332.40000000000003</ele><time>2026-04-26T08:20:10Z</time></trkpt><trkpt lat="37.90328977633254" lon="15.134184361514002"><ele>332.8</ele><time>2026-04-26T08:20:11Z</time></trkpt><trkpt lat="37.90338804964991" lon="15.134220089109165"><ele>333.2</ele><time>2026-04-26T08:20:12Z</time></trkpt><trkpt lat="37.9034817059968" lon="15.13425352070481"><ele>333.6</ele><time>2026-04-26T08:20:13Z</time></trkpt><trkpt lat="37.903567559392926" lon="15.134292240971666"><ele>334.0</ele><time>2026-04-26T08:20:14Z</time></trkpt><trkpt lat="37.903649304697126" lon="15.134342698095546"><ele>333.0</ele><time>2026-04-26T08:20:15Z</time></trkpt><trkpt lat="37.903725356856675" lon="15.134401463088915"><ele>332.0</ele><time>2026-04-26T08:20:16Z</time></trkpt><trkpt lat="37.90378251554211" lon="15.13446402918696"><ele>331.0</ele><time>2026-04-26T08:20:17Z</time></trkpt><trkpt lat="37.90385240815097" lon="15.134498656832113"><ele>330.0</ele><time>2026-04-26T08:20:18Z</time></trkpt><trkpt lat="37.903883627826545" lon="15.134597083557773"><ele>329.0</ele><time>2026-04-26T08:20:19Z</time></trkpt><trkpt lat="37.90398091781537" lon="15.134646045042793"><ele>328.0</ele><time>2026-04-26T08:20:21Z</time></trkpt><trkpt lat="37.90405907186955" lon="15.13454326406623"><ele>328.0</ele><time>2026-04-26T08:20:23Z</time></trkpt><trkpt lat="37.90409288473618" lon="15.134427415846242"><ele>328.0</ele><time>2026-04-26T08:20:24Z</time></trkpt><trkpt lat="37.90411543110363" lon="15.134278524000536"><ele>328.0</ele><time>2026-04-26T08:20:25Z</time></trkpt><trkpt lat="37.904173198546715" lon="15.1340929685482"><ele>328.0</ele><time>2026-04-26T08:20:26Z</time></trkpt><trkpt lat="37.90421670421489" lon="15.133895025267515"><ele>323.66666666666663</ele><time>2026-04-26T08:20:27Z</time></trkpt><trkpt lat="37.90426259310662" lon="15.133677606985364"><ele>319.3333333333333</ele><time>2026-04-26T08:20:28Z</time></trkpt><trkpt lat="37.904306331553855" lon="15.133467903443101"><ele>315.0</ele><time>2026-04-26T08:20:29Z</time></trkpt><trkpt lat="37.90434998838049" lon="15.133258591335979"><ele>315.6666666666667</ele><time>2026-04-26T08:20:30Z</time></trkpt><trkpt lat="37.90439213430736" lon="15.13305954921085"><ele>316.33333333333337</ele><time>2026-04-26T08:20:31Z</time></trkpt><trkpt lat="37.90443447387672" lon="15.13286028518522"><ele>317.0</ele><time>2026-04-26T08:20:31.999Z</time></trkpt><trkpt lat="37.9044764453989" lon="15.132662753276925"><ele>317.0</ele><time>2026-04-26T08:20:32.999Z</time></trkpt><trkpt lat="37.90451953909622" lon="15.132459939863624"><ele>317.0</ele><time>2026-04-26T08:20:33.999Z</time></trkpt><trkpt lat="37.90456361235694" lon="15.132253276255339"><ele>317.0</ele><time>2026-04-26T08:20:34.999Z</time></trkpt><trkpt lat="37.9046077362658" lon="15.132048959330707"><ele>318.75</ele><time>2026-04-26T08:20:35.999Z</time></trkpt><trkpt lat="37.90464982956065" lon="15.131854045209586"><ele>320.5</ele><time>2026-04-26T08:20:36.999Z</time></trkpt><trkpt lat="37.904686455550724" lon="15.13168444752685"><ele>322.25</ele><time>2026-04-26T08:20:37.999Z</time></trkpt><trkpt lat="37.904703683070075" lon="15.13152571017012"><ele>324.0</ele><time>2026-04-26T08:20:38.999Z</time></trkpt><trkpt lat="37.904736751117035" lon="15.131378982336384"><ele>324.4</ele><time>2026-04-26T08:20:39.999Z</time></trkpt><trkpt lat="37.90476980747867" lon="15.131239377300572"><ele>324.79999999999995</ele><time>2026-04-26T08:20:40.999Z</time></trkpt><trkpt lat="37.9047974301782" lon="15.131108614910145"><ele>325.20000000000005</ele><time>2026-04-26T08:20:41.999Z</time></trkpt><trkpt lat="37.90482161085301" lon="15.130991594857852"><ele>325.6</ele><time>2026-04-26T08:20:42.999Z</time></trkpt><trkpt lat="37.904844973015166" lon="15.130898268893178"><ele>326.0</ele><time>2026-04-26T08:20:43.999Z</time></trkpt><trkpt lat="37.90487402709788" lon="15.13081589249479"><ele>326.0</ele><time>2026-04-26T08:20:45.999Z</time></trkpt><trkpt lat="37.90502019096013" lon="15.130787142494427"><ele>326.0</ele><time>2026-04-26T08:20:53.999Z</time></trkpt><trkpt lat="37.905106526171366" lon="15.130720209814934"><ele>326.0</ele><time>2026-04-26T08:20:55.999Z</time></trkpt><trkpt lat="37.90518732678318" lon="15.130660111273345"><ele>326.0</ele><time>2026-04-26T08:20:57.999Z</time></trkpt><trkpt lat="37.90528265614789" lon="15.130700825262398"><ele>326.0</ele><time>2026-04-26T08:20:59.999Z</time></trkpt><trkpt lat="37.90534125572368" lon="15.130828457305817"><ele>325.1666666666667</ele><time>2026-04-26T08:21:01.999Z</time></trkpt><trkpt lat="37.90534383930974" lon="15.130910167215438"><ele>324.33333333333337</ele><time>2026-04-26T08:21:02.999Z</time></trkpt><trkpt lat="37.905345029484316" lon="15.131026043806946"><ele>323.5</ele><time>2026-04-26T08:21:04.999Z</time></trkpt><trkpt lat="37.90541429031168" lon="15.131038944860164"><ele>322.6666666666667</ele><time>2026-04-26T08:21:06.999Z</time></trkpt><trkpt lat="37.90552356760275" lon="15.130982798470718"><ele>321.8333333333333</ele><time>2026-04-26T08:21:08.999Z</time></trkpt><trkpt lat="37.90562647268335" lon="15.13097974733294"><ele>321.0</ele><time>2026-04-26T08:21:10.999Z</time></trkpt><trkpt lat="37.90569924617067" lon="15.13105053410033"><ele>321.0</ele><time>2026-04-26T08:21:12.999Z</time></trkpt><trkpt lat="37.905728718959686" lon="15.131125636897407"><ele>321.0</ele><time>2026-04-26T08:21:15.999Z</time></trkpt><trkpt lat="37.90568140194014" lon="15.131227066268881"><ele>321.0</ele><time>2026-04-26T08:21:26.999Z</time></trkpt><trkpt lat="37.90562847183839" lon="15.131379836752862"><ele>321.0</ele><time>2026-04-26T08:21:28.999Z</time></trkpt><trkpt lat="37.9055992243213" lon="15.131461011290662"><ele>321.0</ele><time>2026-04-26T08:21:29.999Z</time></trkpt><trkpt lat="37.90556485446268" lon="15.131534087480372"><ele>321.0</ele><time>2026-04-26T08:21:30.999Z</time></trkpt><trkpt lat="37.90550788411325" lon="15.13164185255793"><ele>320.1666666666667</ele><time>2026-04-26T08:21:32.999Z</time></trkpt><trkpt lat="37.90553724941259" lon="15.131739742641226"><ele>319.3333333333333</ele><time>2026-04-26T08:21:35.999Z</time></trkpt><trkpt lat="37.905601935011745" lon="15.131797171342654"><ele>318.5</ele><time>2026-04-26T08:21:39.999Z</time></trkpt><trkpt lat="37.905618046171526" lon="15.131894192650934"><ele>317.66666666666663</ele><time>2026-04-26T08:21:44.999Z</time></trkpt><trkpt lat="37.90557840956372" lon="15.131995199888754"><ele>316.8333333333333</ele><time>2026-04-26T08:21:46.999Z</time></trkpt><trkpt lat="37.90554510105918" lon="15.132077526919858"><ele>316.0</ele><time>2026-04-26T08:21:47.999Z</time></trkpt><trkpt lat="37.90550956475138" lon="15.132222150093835"><ele>316.0</ele><time>2026-04-26T08:21:49.999Z</time></trkpt><trkpt lat="37.905481786505945" lon="15.132295607108645"><ele>316.0</ele><time>2026-04-26T08:21:50.999Z</time></trkpt><trkpt lat="37.905452101231305" lon="15.132367231782549"><ele>316.0</ele><time>2026-04-26T08:21:51.999Z</time></trkpt><trkpt lat="37.90542846279708" lon="15.132441593646139"><ele>316.0</ele><time>2026-04-26T08:21:52.999Z</time></trkpt><trkpt lat="37.90539980613694" lon="15.132516972966252"><ele>316.0</ele><time>2026-04-26T08:21:53.999Z</time></trkpt><trkpt lat="37.90534101407769" lon="15.132639168549582"><ele>316.0</ele><time>2026-04-26T08:21:55.999Z</time></trkpt><trkpt lat="37.90528301415653" lon="15.132757806785358"><ele>315.8571428571429</ele><time>2026-04-26T08:21:57.999Z</time></trkpt><trkpt lat="37.90523514277663" lon="15.132838717917474"><ele>315.7142857142857</ele><time>2026-04-26T08:21:59.999Z</time></trkpt><trkpt lat="37.90519662197777" lon="15.132906086965534"><ele>315.57142857142856</ele><time>2026-04-26T08:22:01.999Z</time></trkpt><trkpt lat="37.90515201069783" lon="15.132976397343525"><ele>315.42857142857144</ele><time>2026-04-26T08:22:05Z</time></trkpt><trkpt lat="37.905118202112405" lon="15.133053442050148"><ele>315.2857142857143</ele><time>2026-04-26T08:22:07Z</time></trkpt><trkpt lat="37.90508092752664" lon="15.133147604347304"><ele>315.14285714285717</ele><time>2026-04-26T08:22:09Z</time></trkpt><trkpt lat="37.90506121318357" lon="15.133235404300848"><ele>315.0</ele><time>2026-04-26T08:22:11Z</time></trkpt><trkpt lat="37.90503764304042" lon="15.133316247829798"><ele>315.0</ele><time>2026-04-26T08:22:12Z</time></trkpt><trkpt lat="37.90498044051193" lon="15.133424464097045"><ele>315.0</ele><time>2026-04-26T08:22:14Z</time></trkpt><trkpt lat="37.90491395266072" lon="15.133545296225249"><ele>315.0</ele><time>2026-04-26T08:22:16Z</time></trkpt><trkpt lat="37.90489313559625" lon="15.133679566208976"><ele>315.0</ele><time>2026-04-26T08:22:18Z</time></trkpt><trkpt lat="37.90487880071811" lon="15.133811531633567"><ele>315.0</ele><time>2026-04-26T08:22:20Z</time></trkpt><trkpt lat="37.904853547574206" lon="15.133908224678732"><ele>315.0</ele><time>2026-04-26T08:22:22Z</time></trkpt><trkpt lat="37.90484208691109" lon="15.133998639850782"><ele>315.0</ele><time>2026-04-26T08:22:26Z</time></trkpt><trkpt lat="37.90480870002166" lon="15.134079867314307"><ele>315.0</ele><time>2026-04-26T08:22:29Z</time></trkpt><trkpt lat="37.90479486586339" lon="15.134161713860298"><ele>315.0</ele><time>2026-04-26T08:22:31Z</time></trkpt><trkpt lat="37.90479759795785" lon="15.134263818042196"><ele>315.0</ele><time>2026-04-26T08:22:33Z</time></trkpt><trkpt lat="37.90479592117253" lon="15.134350870931408"><ele>315.0</ele><time>2026-04-26T08:22:37Z</time></trkpt><trkpt lat="37.90479393210514" lon="15.134431837147085"><ele>315.0</ele><time>2026-04-26T08:22:41Z</time></trkpt><trkpt lat="37.90478345186964" lon="15.134545158716797"><ele>314.6666666666667</ele><time>2026-04-26T08:22:44Z</time></trkpt><trkpt lat="37.90478457451371" lon="15.134636708430302"><ele>314.3333333333333</ele><time>2026-04-26T08:22:47Z</time></trkpt><trkpt lat="37.904779888886324" lon="15.13474985850302"><ele>314.0</ele><time>2026-04-26T08:22:51Z</time></trkpt><trkpt lat="37.90479481188482" lon="15.134860586552614"><ele>313.66666666666663</ele><time>2026-04-26T08:22:54Z</time></trkpt><trkpt lat="37.90479208698223" lon="15.134945677202312"><ele>313.3333333333333</ele><time>2026-04-26T08:22:56Z</time></trkpt><trkpt lat="37.904787875457885" lon="15.13505061532485"><ele>313.0</ele><time>2026-04-26T08:22:58Z</time></trkpt><trkpt lat="37.90480910617805" lon="15.135157670946041"><ele>313.0</ele><time>2026-04-26T08:23:01Z</time></trkpt><trkpt lat="37.90482103150829" lon="15.135242969874426"><ele>313.0</ele><time>2026-04-26T08:23:03Z</time></trkpt><trkpt lat="37.9048286992928" lon="15.135339188148544"><ele>313.0</ele><time>2026-04-26T08:23:05Z</time></trkpt><trkpt lat="37.90482985032613" lon="15.135426201842494"><ele>313.0</ele><time>2026-04-26T08:23:07Z</time></trkpt><trkpt lat="37.904874064337854" lon="15.135535809864203"><ele>313.0</ele><time>2026-04-26T08:23:11Z</time></trkpt><trkpt lat="37.904905472821895" lon="15.135626209578602"><ele>313.0</ele><time>2026-04-26T08:23:13Z</time></trkpt><trkpt lat="37.904939072033066" lon="15.135719144537966"><ele>311.6</ele><time>2026-04-26T08:23:15Z</time></trkpt><trkpt lat="37.90499560267703" lon="15.135797585821125"><ele>310.20000000000005</ele><time>2026-04-26T08:23:17Z</time></trkpt><trkpt lat="37.90503038867754" lon="15.13588852353956"><ele>308.8</ele><time>2026-04-26T08:23:19Z</time></trkpt><trkpt lat="37.90504803777431" lon="15.136033097860691"><ele>307.40000000000003</ele><time>2026-04-26T08:23:21Z</time></trkpt><trkpt lat="37.90505185985989" lon="15.13616823396183"><ele>306.0</ele><time>2026-04-26T08:23:23Z</time></trkpt><trkpt lat="37.90504821433639" lon="15.136274608242076"><ele>306.0</ele><time>2026-04-26T08:23:25Z</time></trkpt><trkpt lat="37.90503362957502" lon="15.136352446715103"><ele>306.0</ele><time>2026-04-26T08:23:27Z</time></trkpt><trkpt lat="37.904992738643635" lon="15.136420961810664"><ele>306.0</ele><time>2026-04-26T08:23:29Z</time></trkpt><trkpt lat="37.90495616045567" lon="15.136507403337918"><ele>306.0</ele><time>2026-04-26T08:23:31Z</time></trkpt><trkpt lat="37.90491351077866" lon="15.136591276523978"><ele>306.0</ele><time>2026-04-26T08:23:33Z</time></trkpt><trkpt lat="37.904929418345475" lon="15.136707023325496"><ele>306.0</ele><time>2026-04-26T08:23:35.999Z</time></trkpt><trkpt lat="37.90490932850421" lon="15.136630826259438"><ele>306.0</ele><time>2026-04-26T08:24:42Z</time></trkpt><trkpt lat="37.90494314968868" lon="15.136520354563947"><ele>306.0</ele><time>2026-04-26T08:25:03Z</time></trkpt><trkpt lat="37.90498300002998" lon="15.13643406950205"><ele>306.0</ele><time>2026-04-26T08:25:05Z</time></trkpt><trkpt lat="37.905063070325646" lon="15.13644432292805"><ele>306.0</ele><time>2026-04-26T08:26:07Z</time></trkpt><trkpt lat="37.905126151026046" lon="15.136447346795666"><ele>306.0</ele><time>2026-04-26T08:26:09Z</time></trkpt><trkpt lat="37.90511701598489" lon="15.136535272186375"><ele>306.0</ele><time>2026-04-26T08:26:17.001Z</time></trkpt><trkpt lat="37.90509613170137" lon="15.136665641968595"><ele>306.0</ele><time>2026-04-26T08:26:20.001Z</time></trkpt><trkpt lat="37.905098821845364" lon="15.136769578849808"><ele>307.8333333333333</ele><time>2026-04-26T08:26:22.001Z</time></trkpt><trkpt lat="37.905102562023124" lon="15.136850554914695"><ele>309.6666666666667</ele><time>2026-04-26T08:26:25.001Z</time></trkpt><trkpt lat="37.90511191835851" lon="15.136938805347219"><ele>311.5</ele><time>2026-04-26T08:26:28Z</time></trkpt><trkpt lat="37.90509951911084" lon="15.137054249669003"><ele>313.33333333333337</ele><time>2026-04-26T08:26:30Z</time></trkpt><trkpt lat="37.90509652426087" lon="15.137208500203325"><ele>315.1666666666667</ele><time>2026-04-26T08:26:32Z</time></trkpt><trkpt lat="37.90509857101049" lon="15.137296590915827"><ele>317.0</ele><time>2026-04-26T08:26:33Z</time></trkpt><trkpt lat="37.90510626099354" lon="15.137387618059748"><ele>317.0</ele><time>2026-04-26T08:26:34Z</time></trkpt><trkpt lat="37.90511185862539" lon="15.137479444393566"><ele>317.0</ele><time>2026-04-26T08:26:35Z</time></trkpt><trkpt lat="37.905120915107446" lon="15.137580954324342"><ele>317.0</ele><time>2026-04-26T08:26:36Z</time></trkpt><trkpt lat="37.90513189697693" lon="15.137681434859873"><ele>317.0</ele><time>2026-04-26T08:26:37Z</time></trkpt><trkpt lat="37.90514858633575" lon="15.137794238128372"><ele>317.0</ele><time>2026-04-26T08:26:38Z</time></trkpt><trkpt lat="37.90516625955175" lon="15.137896475455749"><ele>317.0</ele><time>2026-04-26T08:26:39Z</time></trkpt><trkpt lat="37.90518114096912" lon="15.137984451505867"><ele>317.0</ele><time>2026-04-26T08:26:40Z</time></trkpt><trkpt lat="37.905194804487735" lon="15.138072917348135"><ele>317.0</ele><time>2026-04-26T08:26:41Z</time></trkpt><trkpt lat="37.905228737832154" lon="15.138214498791266"><ele>317.0</ele><time>2026-04-26T08:26:43Z</time></trkpt><trkpt lat="37.905257089222516" lon="15.138315159189187"><ele>317.0</ele><time>2026-04-26T08:26:45Z</time></trkpt><trkpt lat="37.90530020939692" lon="15.138388169644037"><ele>317.0</ele><time>2026-04-26T08:26:48Z</time></trkpt><trkpt lat="37.90534789010157" lon="15.138455951124218"><ele>317.0</ele><time>2026-04-26T08:26:50Z</time></trkpt><trkpt lat="37.90534798856931" lon="15.138548398737775"><ele>316.6666666666667</ele><time>2026-04-26T08:26:52Z</time></trkpt><trkpt lat="37.90535262981045" lon="15.138647101417735"><ele>316.33333333333337</ele><time>2026-04-26T08:26:54Z</time></trkpt><trkpt lat="37.905402549379815" lon="15.13872358454512"><ele>316.0</ele><time>2026-04-26T08:26:57Z</time></trkpt><trkpt lat="37.90541569767538" lon="15.138813341296247"><ele>315.6666666666667</ele><time>2026-04-26T08:27:25Z</time></trkpt><trkpt lat="37.90543689735497" lon="15.138892176110065"><ele>315.3333333333333</ele><time>2026-04-26T08:27:27.999Z</time></trkpt><trkpt lat="37.905470979630046" lon="15.139003577878942"><ele>315.0</ele><time>2026-04-26T08:27:29.999Z</time></trkpt><trkpt lat="37.90552801523796" lon="15.139038362098832"><ele>313.85714285714283</ele><time>2026-04-26T08:27:31.999Z</time></trkpt><trkpt lat="37.90555214713583" lon="15.139129252919766"><ele>312.7142857142857</ele><time>2026-04-26T08:27:35.999Z</time></trkpt><trkpt lat="37.90555254208791" lon="15.139212174958612"><ele>311.57142857142856</ele><time>2026-04-26T08:27:38.999Z</time></trkpt><trkpt lat="37.905561308866226" lon="15.139300539301628"><ele>310.42857142857144</ele><time>2026-04-26T08:27:43.999Z</time></trkpt><trkpt lat="37.90557475462" lon="15.139406159636895"><ele>309.2857142857143</ele><time>2026-04-26T08:27:46.999Z</time></trkpt><trkpt lat="37.905578210056944" lon="15.139490595521274"><ele>308.1428571428571</ele><time>2026-04-26T08:27:55.999Z</time></trkpt><trkpt lat="37.9055900135264" lon="15.13957033392402"><ele>307.0</ele><time>2026-04-26T08:27:59.999Z</time></trkpt><trkpt lat="37.90558096046825" lon="15.139664119356546"><ele>306.99999999999994</ele><time>2026-04-26T08:28:05.999Z</time></trkpt><trkpt lat="37.90559519006957" lon="15.139776971265045"><ele>307.0</ele><time>2026-04-26T08:28:08.999Z</time></trkpt><trkpt lat="37.905584277374025" lon="15.139865654486671"><ele>307.0</ele><time>2026-04-26T08:28:10.999Z</time></trkpt><trkpt lat="37.90559111543791" lon="15.139952666818935"><ele>307.0</ele><time>2026-04-26T08:28:13.999Z</time></trkpt><trkpt lat="37.90561032984558" lon="15.14002887395951"><ele>307.0</ele><time>2026-04-26T08:28:20.999Z</time></trkpt><trkpt lat="37.90562469600558" lon="15.140114955532356"><ele>306.99999999999994</ele><time>2026-04-26T08:28:25Z</time></trkpt><trkpt lat="37.905651830736055" lon="15.14018840446748"><ele>307.0</ele><time>2026-04-26T08:28:29Z</time></trkpt><trkpt lat="37.90565052791214" lon="15.140282160416852"><ele>305.6</ele><time>2026-04-26T08:28:44.999Z</time></trkpt><trkpt lat="37.90565808034995" lon="15.140380275127338"><ele>304.2</ele><time>2026-04-26T08:28:49.999Z</time></trkpt><trkpt lat="37.90566201648712" lon="15.140503719955081"><ele>302.8</ele><time>2026-04-26T08:28:52.999Z</time></trkpt><trkpt lat="37.905681445352094" lon="15.140634656143641"><ele>301.4</ele><time>2026-04-26T08:28:54.999Z</time></trkpt><trkpt lat="37.90573106007609" lon="15.140767532632488"><ele>300.0</ele><time>2026-04-26T08:28:56.999Z</time></trkpt><trkpt lat="37.90577503793337" lon="15.140825872481967"><ele>299.8333333333333</ele><time>2026-04-26T08:28:57.999Z</time></trkpt><trkpt lat="37.90582309388954" lon="15.14090315190017"><ele>299.6666666666667</ele><time>2026-04-26T08:28:59.999Z</time></trkpt><trkpt lat="37.905878099035746" lon="15.140979142619535"><ele>299.5</ele><time>2026-04-26T08:29:02.999Z</time></trkpt><trkpt lat="37.9059472249838" lon="15.140958112261304"><ele>299.33333333333337</ele><time>2026-04-26T08:29:07.999Z</time></trkpt><trkpt lat="37.906013990351255" lon="15.140984849512668"><ele>299.1666666666667</ele><time>2026-04-26T08:29:10.999Z</time></trkpt><trkpt lat="37.906073116146935" lon="15.14105238304272"><ele>299.0</ele><time>2026-04-26T08:29:12.999Z</time></trkpt><trkpt lat="37.90614380645759" lon="15.14114276508139"><ele>299.0</ele><time>2026-04-26T08:29:14.999Z</time></trkpt><trkpt lat="37.9062014142844" lon="15.141195843602063"><ele>299.0</ele><time>2026-04-26T08:29:16.999Z</time></trkpt><trkpt lat="37.90625234660478" lon="15.141277381727697"><ele>299.0</ele><time>2026-04-26T08:29:18.999Z</time></trkpt><trkpt lat="37.906301376738405" lon="15.141334842942419"><ele>299.0</ele><time>2026-04-26T08:29:20.999Z</time></trkpt><trkpt lat="37.906343662863264" lon="15.141408795403837"><ele>299.0</ele><time>2026-04-26T08:29:22.999Z</time></trkpt><trkpt lat="37.906367299265526" lon="15.14148758064595"><ele>299.0</ele><time>2026-04-26T08:29:24.999Z</time></trkpt><trkpt lat="37.90642958395181" lon="15.141527577007453"><ele>299.0</ele><time>2026-04-26T08:29:27.999Z</time></trkpt><trkpt lat="37.906502313539036" lon="15.14156589724888"><ele>299.0</ele><time>2026-04-26T08:29:30.999Z</time></trkpt><trkpt lat="37.90656442798947" lon="15.141644918563447"><ele>299.0</ele><time>2026-04-26T08:29:33.999Z</time></trkpt><trkpt lat="37.90662330710781" lon="15.141720106890451"><ele>299.0</ele><time>2026-04-26T08:29:35.999Z</time></trkpt><trkpt lat="37.906677617767464" lon="15.141797245379971"><ele>299.0</ele><time>2026-04-26T08:29:38.999Z</time></trkpt><trkpt lat="37.9067480062957" lon="15.14188377221166"><ele>299.0</ele><time>2026-04-26T08:29:41.999Z</time></trkpt><trkpt lat="37.906810607887465" lon="15.141970967817775"><ele>299.0</ele><time>2026-04-26T08:29:43.999Z</time></trkpt><trkpt lat="37.906895709443134" lon="15.142066894360534"><ele>299.0</ele><time>2026-04-26T08:29:45.999Z</time></trkpt><trkpt lat="37.90698444593282" lon="15.142145049326617"><ele>299.0</ele><time>2026-04-26T08:29:47.999Z</time></trkpt><trkpt lat="37.90706150408931" lon="15.142159934513057"><ele>299.0</ele><time>2026-04-26T08:29:49.999Z</time></trkpt><trkpt lat="37.90714603432005" lon="15.142203581664502"><ele>299.0</ele><time>2026-04-26T08:29:51.999Z</time></trkpt><trkpt lat="37.90715890190337" lon="15.142285575736778"><ele>299.0</ele><time>2026-04-26T08:30:07.999Z</time></trkpt><trkpt lat="37.907111563608304" lon="15.14234641697287"><ele>299.0</ele><time>2026-04-26T08:30:23.999Z</time></trkpt><trkpt lat="37.906997659276385" lon="15.142385549450376"><ele>299.33333333333337</ele><time>2026-04-26T08:30:25.999Z</time></trkpt><trkpt lat="37.90687667768138" lon="15.142417296997355"><ele>299.6666666666667</ele><time>2026-04-26T08:30:28Z</time></trkpt><trkpt lat="37.90681121322447" lon="15.142422385514832"><ele>300.0</ele><time>2026-04-26T08:30:29Z</time></trkpt><trkpt lat="37.90671547877717" lon="15.142449784160087"><ele>300.3333333333333</ele><time>2026-04-26T08:30:31Z</time></trkpt><trkpt lat="37.90666909693713" lon="15.142526191635872"><ele>300.66666666666663</ele><time>2026-04-26T08:30:34Z</time></trkpt><trkpt lat="37.906694644398485" lon="15.142602132928312"><ele>301.0</ele><time>2026-04-26T08:30:38Z</time></trkpt><trkpt lat="37.90676651052869" lon="15.14265585992842"><ele>301.0</ele><time>2026-04-26T08:30:41Z</time></trkpt><trkpt lat="37.90689331339633" lon="15.142709858751687"><ele>301.0</ele><time>2026-04-26T08:30:43Z</time></trkpt><trkpt lat="37.90698685401254" lon="15.142764360647888"><ele>301.0</ele><time>2026-04-26T08:30:44Z</time></trkpt><trkpt lat="37.9071023612744" lon="15.14283030741997"><ele>301.0</ele><time>2026-04-26T08:30:45Z</time></trkpt><trkpt lat="37.90721792537051" lon="15.142892021152194"><ele>301.0</ele><time>2026-04-26T08:30:46Z</time></trkpt><trkpt lat="37.90731230396526" lon="15.142949043960387"><ele>301.0</ele><time>2026-04-26T08:30:47Z</time></trkpt><trkpt lat="37.90739080399118" lon="15.143022179279377"><ele>301.0</ele><time>2026-04-26T08:30:48Z</time></trkpt><trkpt lat="37.90744954158453" lon="15.14312373922846"><ele>301.0</ele><time>2026-04-26T08:30:49Z</time></trkpt><trkpt lat="37.90750591335604" lon="15.143242406815176"><ele>301.0</ele><time>2026-04-26T08:30:50Z</time></trkpt><trkpt lat="37.90755774895973" lon="15.143365210028069"><ele>301.3333333333333</ele><time>2026-04-26T08:30:51Z</time></trkpt><trkpt lat="37.907603091365466" lon="15.143480008563749"><ele>301.66666666666663</ele><time>2026-04-26T08:30:52Z</time></trkpt><trkpt lat="37.907633983751" lon="15.143577055476582"><ele>302.0</ele><time>2026-04-26T08:30:53Z</time></trkpt><trkpt lat="37.90766368087985" lon="15.143661707752107"><ele>302.3333333333333</ele><time>2026-04-26T08:30:54Z</time></trkpt><trkpt lat="37.907697422152026" lon="15.143736380438108"><ele>302.6666666666667</ele><time>2026-04-26T08:30:55Z</time></trkpt><trkpt lat="37.90770885580327" lon="15.143861820878643"><ele>303.0</ele><time>2026-04-26T08:30:57Z</time></trkpt><trkpt lat="37.90780884306391" lon="15.14388165458437"><ele>303.0</ele><time>2026-04-26T08:30:58Z</time></trkpt><trkpt lat="37.9078330041892" lon="15.143958071390308"><ele>303.0</ele><time>2026-04-26T08:31:00Z</time></trkpt><trkpt lat="37.90783149305628" lon="15.144073934418733"><ele>303.0</ele><time>2026-04-26T08:31:03Z</time></trkpt><trkpt lat="37.907842052097976" lon="15.144163451000393"><ele>303.0</ele><time>2026-04-26T08:31:06Z</time></trkpt><trkpt lat="37.90787031188048" lon="15.144269498704514"><ele>303.0</ele><time>2026-04-26T08:31:09Z</time></trkpt><trkpt lat="37.90789292236154" lon="15.144363172144631"><ele>303.0</ele><time>2026-04-26T08:31:10.999Z</time></trkpt><trkpt lat="37.90792005763583" lon="15.14443685453512"><ele>302.5</ele><time>2026-04-26T08:31:13.999Z</time></trkpt><trkpt lat="37.9080876949229" lon="15.14442503850061"><ele>302.0</ele><time>2026-04-26T08:31:16.999Z</time></trkpt><trkpt lat="37.90816103834848" lon="15.144465367670291"><ele>301.5</ele><time>2026-04-26T08:31:18.999Z</time></trkpt><trkpt lat="37.908258534764215" lon="15.14447244500473"><ele>301.0</ele><time>2026-04-26T08:31:20.999Z</time></trkpt><trkpt lat="37.90837255841016" lon="15.144443478191697"><ele>301.16666666666663</ele><time>2026-04-26T08:31:22.999Z</time></trkpt><trkpt lat="37.908492942883385" lon="15.14442998047262"><ele>301.3333333333333</ele><time>2026-04-26T08:31:24.999Z</time></trkpt><trkpt lat="37.908582229599546" lon="15.144420668709413"><ele>301.5</ele><time>2026-04-26T08:31:25.999Z</time></trkpt><trkpt lat="37.908646390584245" lon="15.144416446537441"><ele>301.6666666666667</ele><time>2026-04-26T08:31:26.999Z</time></trkpt><trkpt lat="37.90872329585278" lon="15.144397993366173"><ele>301.83333333333337</ele><time>2026-04-26T08:31:27.999Z</time></trkpt><trkpt lat="37.90879881492601" lon="15.14439141822883"><ele>302.0</ele><time>2026-04-26T08:31:28.999Z</time></trkpt><trkpt lat="37.908875431100896" lon="15.144381351727143"><ele>302.0</ele><time>2026-04-26T08:31:29.999Z</time></trkpt><trkpt lat="37.90894585534092" lon="15.1443620834432"><ele>302.0</ele><time>2026-04-26T08:31:30.999Z</time></trkpt><trkpt lat="37.909015540004546" lon="15.144341663319642"><ele>302.0</ele><time>2026-04-26T08:31:31.999Z</time></trkpt><trkpt lat="37.90908029381311" lon="15.144313074261623"><ele>302.0</ele><time>2026-04-26T08:31:32.999Z</time></trkpt><trkpt lat="37.90915331981317" lon="15.144276804052286"><ele>302.0</ele><time>2026-04-26T08:31:33.999Z</time></trkpt><trkpt lat="37.90923161700108" lon="15.14424630756909"><ele>302.0</ele><time>2026-04-26T08:31:34.999Z</time></trkpt><trkpt lat="37.90931535638248" lon="15.144219780406633"><ele>302.6666666666667</ele><time>2026-04-26T08:31:35.999Z</time></trkpt><trkpt lat="37.90939190068171" lon="15.144204725270644"><ele>303.33333333333337</ele><time>2026-04-26T08:31:36.999Z</time></trkpt><trkpt lat="37.90947633665427" lon="15.144177695858787"><ele>304.0</ele><time>2026-04-26T08:31:37.999Z</time></trkpt><trkpt lat="37.90956525505936" lon="15.144140144967569"><ele>304.6666666666667</ele><time>2026-04-26T08:31:38.999Z</time></trkpt><trkpt lat="37.909649317444746" lon="15.144121761788485"><ele>305.3333333333333</ele><time>2026-04-26T08:31:39.999Z</time></trkpt><trkpt lat="37.909727108123626" lon="15.144103220864547"><ele>306.0</ele><time>2026-04-26T08:31:40.999Z</time></trkpt><trkpt lat="37.909807618324535" lon="15.144060012429353"><ele>306.0</ele><time>2026-04-26T08:31:41.999Z</time></trkpt><trkpt lat="37.909891410273644" lon="15.144035936248711"><ele>306.0</ele><time>2026-04-26T08:31:42.999Z</time></trkpt><trkpt lat="37.90996351314457" lon="15.144019304616076"><ele>306.0</ele><time>2026-04-26T08:31:43.999Z</time></trkpt><trkpt lat="37.91002913765636" lon="15.143991579516573"><ele>306.0</ele><time>2026-04-26T08:31:44.999Z</time></trkpt><trkpt lat="37.910115615032495" lon="15.143946433826843"><ele>306.0</ele><time>2026-04-26T08:31:47.999Z</time></trkpt><trkpt lat="37.91022110413651" lon="15.143867646900828"><ele>306.0</ele><time>2026-04-26T08:31:49.999Z</time></trkpt><trkpt lat="37.91028203738781" lon="15.143831415346622"><ele>307.0</ele><time>2026-04-26T08:31:50.999Z</time></trkpt><trkpt lat="37.91034534948513" lon="15.143784208649365"><ele>308.0</ele><time>2026-04-26T08:31:51.999Z</time></trkpt><trkpt lat="37.91041197095407" lon="15.143730160928396"><ele>309.0</ele><time>2026-04-26T08:31:52.999Z</time></trkpt><trkpt lat="37.91048555691519" lon="15.143688351013946"><ele>310.0</ele><time>2026-04-26T08:31:53.999Z</time></trkpt><trkpt lat="37.91056583153233" lon="15.143651429769365"><ele>311.0</ele><time>2026-04-26T08:31:54.999Z</time></trkpt><trkpt lat="37.91063524781776" lon="15.14361475771161"><ele>312.0</ele><time>2026-04-26T08:31:55.999Z</time></trkpt><trkpt lat="37.910718305393345" lon="15.143567243461233"><ele>312.0</ele><time>2026-04-26T08:31:56.999Z</time></trkpt><trkpt lat="37.91080444621556" lon="15.143519403030265"><ele>312.0</ele><time>2026-04-26T08:31:57.999Z</time></trkpt><trkpt lat="37.91088698519332" lon="15.143465203145697"><ele>312.0</ele><time>2026-04-26T08:31:58.999Z</time></trkpt><trkpt lat="37.91097619440151" lon="15.14343330510319"><ele>312.0</ele><time>2026-04-26T08:31:59.999Z</time></trkpt><trkpt lat="37.91105339764989" lon="15.14340724828603"><ele>312.0</ele><time>2026-04-26T08:32:00.999Z</time></trkpt><trkpt lat="37.91112592704095" lon="15.143376637157552"><ele>312.0</ele><time>2026-04-26T08:32:01.999Z</time></trkpt><trkpt lat="37.91120069102842" lon="15.143344702863311"><ele>312.0</ele><time>2026-04-26T08:32:02.999Z</time></trkpt><trkpt lat="37.911308472654994" lon="15.143290934197184"><ele>312.0</ele><time>2026-04-26T08:32:04.999Z</time></trkpt><trkpt lat="37.91139651234874" lon="15.143242112551896"><ele>312.0</ele><time>2026-04-26T08:32:06.999Z</time></trkpt><trkpt lat="37.91145384549659" lon="15.143109754328725"><ele>312.0</ele><time>2026-04-26T08:32:08.999Z</time></trkpt><trkpt lat="37.911551155775015" lon="15.14301105204021"><ele>312.0</ele><time>2026-04-26T08:32:10.999Z</time></trkpt><trkpt lat="37.911649740145194" lon="15.142935610771255"><ele>312.0</ele><time>2026-04-26T08:32:12.999Z</time></trkpt><trkpt lat="37.91170678470725" lon="15.14290017115553"><ele>312.0</ele><time>2026-04-26T08:32:13.999Z</time></trkpt><trkpt lat="37.91181010104438" lon="15.14285031148123"><ele>312.0</ele><time>2026-04-26T08:32:15.999Z</time></trkpt><trkpt lat="37.91187620445339" lon="15.14284735314485"><ele>312.0</ele><time>2026-04-26T08:32:16.999Z</time></trkpt><trkpt lat="37.91195601106556" lon="15.142838231819228"><ele>312.0</ele><time>2026-04-26T08:32:17.999Z</time></trkpt><trkpt lat="37.91204357381337" lon="15.142826770627872"><ele>312.8333333333333</ele><time>2026-04-26T08:32:18.999Z</time></trkpt><trkpt lat="37.912111156217506" lon="15.142827435172684"><ele>313.6666666666667</ele><time>2026-04-26T08:32:19.999Z</time></trkpt><trkpt lat="37.91218940571141" lon="15.142835259664837"><ele>314.5</ele><time>2026-04-26T08:32:20.999Z</time></trkpt><trkpt lat="37.912256544867375" lon="15.142845965138942"><ele>315.33333333333337</ele><time>2026-04-26T08:32:21.999Z</time></trkpt><trkpt lat="37.912362531095496" lon="15.142874080411595"><ele>316.1666666666667</ele><time>2026-04-26T08:32:23.999Z</time></trkpt><trkpt lat="37.91242013120846" lon="15.142925918081838"><ele>317.0</ele><time>2026-04-26T08:32:25.999Z</time></trkpt><trkpt lat="37.912483128454724" lon="15.142869341425598"><ele>317.0</ele><time>2026-04-26T08:35:19Z</time></trkpt><trkpt lat="37.91253331943516" lon="15.142798294379551"><ele>317.0</ele><time>2026-04-26T08:35:21Z</time></trkpt><trkpt lat="37.91260278687785" lon="15.142748563508135"><ele>317.0</ele><time>2026-04-26T08:35:23Z</time></trkpt><trkpt lat="37.91270324100145" lon="15.14270337837418"><ele>317.0</ele><time>2026-04-26T08:35:25Z</time></trkpt><trkpt lat="37.912764162102015" lon="15.142670126788824"><ele>317.0</ele><time>2026-04-26T08:35:26Z</time></trkpt><trkpt lat="37.91283162395753" lon="15.142631934418047"><ele>317.0</ele><time>2026-04-26T08:35:27Z</time></trkpt><trkpt lat="37.912910456260015" lon="15.14258653783632"><ele>317.4</ele><time>2026-04-26T08:35:28Z</time></trkpt><trkpt lat="37.91298983413884" lon="15.142541525781812"><ele>317.79999999999995</ele><time>2026-04-26T08:35:29Z</time></trkpt><trkpt lat="37.913075222968764" lon="15.142488420000845"><ele>318.2</ele><time>2026-04-26T08:35:30Z</time></trkpt><trkpt lat="37.91317111136233" lon="15.142436853099275"><ele>318.59999999999997</ele><time>2026-04-26T08:35:31Z</time></trkpt><trkpt lat="37.9132488429721" lon="15.142399614320363"><ele>319.0</ele><time>2026-04-26T08:35:32Z</time></trkpt><trkpt lat="37.91334320286524" lon="15.14235282122667"><ele>320.4</ele><time>2026-04-26T08:35:33Z</time></trkpt><trkpt lat="37.91342583981354" lon="15.142312222764561"><ele>321.79999999999995</ele><time>2026-04-26T08:35:34Z</time></trkpt><trkpt lat="37.91351305946906" lon="15.142275643539284"><ele>323.20000000000005</ele><time>2026-04-26T08:35:35Z</time></trkpt><trkpt lat="37.91359475762104" lon="15.142237745362241"><ele>324.6</ele><time>2026-04-26T08:35:36Z</time></trkpt><trkpt lat="37.913694556246845" lon="15.142206830159257"><ele>326.0</ele><time>2026-04-26T08:35:37Z</time></trkpt><trkpt lat="37.91379649978775" lon="15.142196890500585"><ele>326.0</ele><time>2026-04-26T08:35:38Z</time></trkpt><trkpt lat="37.91390078420415" lon="15.142197592452044"><ele>326.0</ele><time>2026-04-26T08:35:39Z</time></trkpt><trkpt lat="37.91401239859405" lon="15.142200795948924"><ele>326.0</ele><time>2026-04-26T08:35:40Z</time></trkpt><trkpt lat="37.914102350152014" lon="15.14221445696548"><ele>326.0</ele><time>2026-04-26T08:35:41Z</time></trkpt><trkpt lat="37.91421426575404" lon="15.142214321814496"><ele>326.0</ele><time>2026-04-26T08:35:42Z</time></trkpt><trkpt lat="37.91432934132875" lon="15.142228658123468"><ele>326.75</ele><time>2026-04-26T08:35:43Z</time></trkpt><trkpt lat="37.91444339661611" lon="15.14225036855172"><ele>327.5</ele><time>2026-04-26T08:35:44Z</time></trkpt><trkpt lat="37.91455108079851" lon="15.142268268260661"><ele>328.25</ele><time>2026-04-26T08:35:45Z</time></trkpt><trkpt lat="37.9146573330144" lon="15.142291782893922"><ele>329.0</ele><time>2026-04-26T08:35:46Z</time></trkpt><trkpt lat="37.91478024450766" lon="15.142306542210342"><ele>329.0</ele><time>2026-04-26T08:35:47Z</time></trkpt><trkpt lat="37.91490231266199" lon="15.142322970729206"><ele>329.0</ele><time>2026-04-26T08:35:48Z</time></trkpt><trkpt lat="37.91502123680653" lon="15.142331498906069"><ele>329.0</ele><time>2026-04-26T08:35:49Z</time></trkpt><trkpt lat="37.91513151954052" lon="15.142339423044016"><ele>329.0</ele><time>2026-04-26T08:35:50Z</time></trkpt><trkpt lat="37.91523035780678" lon="15.142350824626039"><ele>329.5</ele><time>2026-04-26T08:35:51Z</time></trkpt><trkpt lat="37.915326169033825" lon="15.142354906978271"><ele>330.0</ele><time>2026-04-26T08:35:52Z</time></trkpt><trkpt lat="37.91541409378088" lon="15.14235343004027"><ele>330.5</ele><time>2026-04-26T08:35:53Z</time></trkpt><trkpt lat="37.9155155245217" lon="15.142348706015122"><ele>331.0</ele><time>2026-04-26T08:35:54Z</time></trkpt><trkpt lat="37.91559000022981" lon="15.142343502469307"><ele>331.5</ele><time>2026-04-26T08:35:55Z</time></trkpt><trkpt lat="37.91565841947171" lon="15.142317785955266"><ele>332.0</ele><time>2026-04-26T08:35:56Z</time></trkpt><trkpt lat="37.915739212011864" lon="15.14227271769155"><ele>332.0</ele><time>2026-04-26T08:35:58Z</time></trkpt><trkpt lat="37.915846245300706" lon="15.142217843282028"><ele>332.0</ele><time>2026-04-26T08:36:00Z</time></trkpt><trkpt lat="37.915978569740126" lon="15.142145538460658"><ele>332.0</ele><time>2026-04-26T08:36:02Z</time></trkpt><trkpt lat="37.91604277484936" lon="15.1421176308831"><ele>332.0</ele><time>2026-04-26T08:36:03Z</time></trkpt><trkpt lat="37.91618121299367" lon="15.142086783180766"><ele>332.8</ele><time>2026-04-26T08:36:05Z</time></trkpt><trkpt lat="37.91628429508145" lon="15.1420896463256"><ele>333.6</ele><time>2026-04-26T08:36:06Z</time></trkpt><trkpt lat="37.91638475793905" lon="15.142092354539509"><ele>334.40000000000003</ele><time>2026-04-26T08:36:07Z</time></trkpt><trkpt lat="37.91648361672984" lon="15.142095021188151"><ele>335.20000000000005</ele><time>2026-04-26T08:36:07.999Z</time></trkpt><trkpt lat="37.916582552962296" lon="15.142097570945966"><ele>336.0</ele><time>2026-04-26T08:36:08.999Z</time></trkpt><trkpt lat="37.916683649466336" lon="15.142101829727867"><ele>337.20000000000005</ele><time>2026-04-26T08:36:09.999Z</time></trkpt><trkpt lat="37.9167736373736" lon="15.142099219724992"><ele>338.40000000000003</ele><time>2026-04-26T08:36:10.999Z</time></trkpt><trkpt lat="37.91688355884746" lon="15.142086499025954"><ele>339.6</ele><time>2026-04-26T08:36:11.999Z</time></trkpt><trkpt lat="37.91697643525671" lon="15.142065823527176"><ele>340.8</ele><time>2026-04-26T08:36:12.999Z</time></trkpt><trkpt lat="37.91707845908228" lon="15.14204038454342"><ele>342.0</ele><time>2026-04-26T08:36:13.999Z</time></trkpt><trkpt lat="37.9171741334125" lon="15.142028543466013"><ele>342.0</ele><time>2026-04-26T08:36:14.999Z</time></trkpt><trkpt lat="37.91726241086092" lon="15.142013775839635"><ele>342.0</ele><time>2026-04-26T08:36:15.999Z</time></trkpt><trkpt lat="37.91735013508335" lon="15.141996385346404"><ele>342.0</ele><time>2026-04-26T08:36:16.999Z</time></trkpt><trkpt lat="37.917454107109855" lon="15.141981631225708"><ele>342.0</ele><time>2026-04-26T08:36:17.999Z</time></trkpt><trkpt lat="37.91755199140897" lon="15.141977798842245"><ele>342.0</ele><time>2026-04-26T08:36:18.999Z</time></trkpt><trkpt lat="37.91763294972613" lon="15.141997341094507"><ele>344.8</ele><time>2026-04-26T08:36:19.999Z</time></trkpt><trkpt lat="37.917722087222664" lon="15.14200639250215"><ele>347.6</ele><time>2026-04-26T08:36:20.999Z</time></trkpt><trkpt lat="37.91779546389973" lon="15.142040190448716"><ele>350.40000000000003</ele><time>2026-04-26T08:36:21.999Z</time></trkpt><trkpt lat="37.91789065040074" lon="15.142079933235824"><ele>353.20000000000005</ele><time>2026-04-26T08:36:22.999Z</time></trkpt><trkpt lat="37.917977540759985" lon="15.142117255583877"><ele>356.0</ele><time>2026-04-26T08:36:23.999Z</time></trkpt><trkpt lat="37.91806800626603" lon="15.142142734056636"><ele>356.0</ele><time>2026-04-26T08:36:24.999Z</time></trkpt><trkpt lat="37.91814095468913" lon="15.142164942126564"><ele>356.0</ele><time>2026-04-26T08:36:25.999Z</time></trkpt><trkpt lat="37.91820904981352" lon="15.142175948914035"><ele>356.0</ele><time>2026-04-26T08:36:26.999Z</time></trkpt><trkpt lat="37.91832052502871" lon="15.142200553424804"><ele>356.0</ele><time>2026-04-26T08:36:28.999Z</time></trkpt><trkpt lat="37.9183862290866" lon="15.142232970546164"><ele>356.0</ele><time>2026-04-26T08:36:30.999Z</time></trkpt><trkpt lat="37.918452333360634" lon="15.14225339387857"><ele>356.0</ele><time>2026-04-26T08:36:32.999Z</time></trkpt><trkpt lat="37.918501224246675" lon="15.142313350796554"><ele>355.1666666666667</ele><time>2026-04-26T08:36:36.999Z</time></trkpt><trkpt lat="37.918580421190136" lon="15.142350408700686"><ele>354.33333333333337</ele><time>2026-04-26T08:36:47Z</time></trkpt><trkpt lat="37.91868720895316" lon="15.142385902905064"><ele>353.5</ele><time>2026-04-26T08:36:49Z</time></trkpt><trkpt lat="37.918754851706815" lon="15.142414706768628"><ele>352.6666666666667</ele><time>2026-04-26T08:36:50Z</time></trkpt><trkpt lat="37.91884988581396" lon="15.142458921565137"><ele>351.8333333333333</ele><time>2026-04-26T08:36:52Z</time></trkpt><trkpt lat="37.918908401969546" lon="15.142491110702633"><ele>351.0</ele><time>2026-04-26T08:36:54Z</time></trkpt><trkpt lat="37.91898168441907" lon="15.142538642518211"><ele>351.0</ele><time>2026-04-26T08:36:57Z</time></trkpt><trkpt lat="37.9189652517748" lon="15.142639703519519"><ele>351.0</ele><time>2026-04-26T08:37:06Z</time></trkpt><trkpt lat="37.91900226035392" lon="15.142715626637997"><ele>351.0</ele><time>2026-04-26T08:37:09Z</time></trkpt><trkpt lat="37.919030290668935" lon="15.142792681712184"><ele>351.0</ele><time>2026-04-26T08:37:12Z</time></trkpt><trkpt lat="37.91903501268245" lon="15.142897319750706"><ele>351.0</ele><time>2026-04-26T08:37:14Z</time></trkpt><trkpt lat="37.9190506231875" lon="15.143002224548026"><ele>351.0</ele><time>2026-04-26T08:37:16Z</time></trkpt><trkpt lat="37.919070752918124" lon="15.14315131967841"><ele>351.8</ele><time>2026-04-26T08:37:18Z</time></trkpt><trkpt lat="37.91907789804848" lon="15.14323205802893"><ele>352.6</ele><time>2026-04-26T08:37:19Z</time></trkpt><trkpt lat="37.919107682084295" lon="15.143345318557978"><ele>353.4</ele><time>2026-04-26T08:37:21Z</time></trkpt><trkpt lat="37.9191998498736" lon="15.143453347985282"><ele>354.2</ele><time>2026-04-26T08:37:23Z</time></trkpt><trkpt lat="37.91926856339501" lon="15.143527682944253"><ele>355.0</ele><time>2026-04-26T08:37:24Z</time></trkpt><trkpt lat="37.91935255689118" lon="15.143621724830096"><ele>355.3333333333333</ele><time>2026-04-26T08:37:25Z</time></trkpt><trkpt lat="37.919419156202586" lon="15.143701390368419"><ele>355.66666666666663</ele><time>2026-04-26T08:37:26Z</time></trkpt><trkpt lat="37.91949446792755" lon="15.143769770881455"><ele>356.0</ele><time>2026-04-26T08:37:27Z</time></trkpt><trkpt lat="37.91957050163253" lon="15.143828138738701"><ele>356.3333333333333</ele><time>2026-04-26T08:37:28Z</time></trkpt><trkpt lat="37.91962570089326" lon="15.143873864897092"><ele>356.6666666666667</ele><time>2026-04-26T08:37:29Z</time></trkpt><trkpt lat="37.91970190389252" lon="15.143924921853788"><ele>357.0</ele><time>2026-04-26T08:37:30Z</time></trkpt><trkpt lat="37.91976708968223" lon="15.143973367440088"><ele>357.0</ele><time>2026-04-26T08:37:31Z</time></trkpt><trkpt lat="37.919838291452635" lon="15.144024635498846"><ele>357.0</ele><time>2026-04-26T08:37:32Z</time></trkpt><trkpt lat="37.919908239780575" lon="15.144089217711116"><ele>357.0</ele><time>2026-04-26T08:37:33Z</time></trkpt><trkpt lat="37.919987578411664" lon="15.144181033933874"><ele>357.0</ele><time>2026-04-26T08:37:34Z</time></trkpt><trkpt lat="37.92005945273573" lon="15.144253331137215"><ele>357.0</ele><time>2026-04-26T08:37:35Z</time></trkpt><trkpt lat="37.920144107828285" lon="15.144321984157205"><ele>357.8</ele><time>2026-04-26T08:37:36Z</time></trkpt><trkpt lat="37.92022925308145" lon="15.144401119362767"><ele>358.6</ele><time>2026-04-26T08:37:37Z</time></trkpt><trkpt lat="37.920292030947785" lon="15.144470927305024"><ele>359.40000000000003</ele><time>2026-04-26T08:37:38Z</time></trkpt><trkpt lat="37.920377322495405" lon="15.144543457564328"><ele>360.20000000000005</ele><time>2026-04-26T08:37:39Z</time></trkpt><trkpt lat="37.920456354119096" lon="15.144615146311734"><ele>361.0</ele><time>2026-04-26T08:37:40Z</time></trkpt><trkpt lat="37.92055096731164" lon="15.144678308100572"><ele>361.0</ele><time>2026-04-26T08:37:41Z</time></trkpt><trkpt lat="37.920650038587596" lon="15.144734721221043"><ele>361.0</ele><time>2026-04-26T08:37:42Z</time></trkpt><trkpt lat="37.920752763217585" lon="15.144797661296742"><ele>361.0</ele><time>2026-04-26T08:37:43Z</time></trkpt><trkpt lat="37.920846475488354" lon="15.144873250545485"><ele>361.0</ele><time>2026-04-26T08:37:44Z</time></trkpt><trkpt lat="37.92093767485287" lon="15.14495137351153"><ele>361.0</ele><time>2026-04-26T08:37:45Z</time></trkpt><trkpt lat="37.921023773838606" lon="15.145017568597735"><ele>362.6</ele><time>2026-04-26T08:37:46Z</time></trkpt><trkpt lat="37.921112234801456" lon="15.145089518755372"><ele>364.20000000000005</ele><time>2026-04-26T08:37:47Z</time></trkpt><trkpt lat="37.92120814427223" lon="15.145153848154335"><ele>365.79999999999995</ele><time>2026-04-26T08:37:48Z</time></trkpt><trkpt lat="37.92133510321677" lon="15.145155876891977"><ele>367.4</ele><time>2026-04-26T08:37:49Z</time></trkpt><trkpt lat="37.92142015280697" lon="15.145218286470708"><ele>369.0</ele><time>2026-04-26T08:37:50Z</time></trkpt><trkpt lat="37.92151009963172" lon="15.145281624919226"><ele>369.0</ele><time>2026-04-26T08:37:51Z</time></trkpt><trkpt lat="37.921607501805234" lon="15.145316652671426"><ele>369.0</ele><time>2026-04-26T08:37:52Z</time></trkpt><trkpt lat="37.92169609548322" lon="15.145347576423134"><ele>369.0</ele><time>2026-04-26T08:37:53Z</time></trkpt><trkpt lat="37.92178005167973" lon="15.145370902810384"><ele>369.0</ele><time>2026-04-26T08:37:54Z</time></trkpt><trkpt lat="37.921849787857376" lon="15.14535175088102"><ele>369.0</ele><time>2026-04-26T08:37:55Z</time></trkpt><trkpt lat="37.92192611306248" lon="15.145350675468267"><ele>369.0</ele><time>2026-04-26T08:37:56Z</time></trkpt><trkpt lat="37.92200273745668" lon="15.14536327484154"><ele>369.8333333333333</ele><time>2026-04-26T08:37:57Z</time></trkpt><trkpt lat="37.9220784399378" lon="15.14539193661957"><ele>370.6666666666667</ele><time>2026-04-26T08:37:58Z</time></trkpt><trkpt lat="37.92215854664066" lon="15.145326269815875"><ele>371.5</ele><time>2026-04-26T08:37:59Z</time></trkpt><trkpt lat="37.9222411961765" lon="15.145320606526463"><ele>372.33333333333337</ele><time>2026-04-26T08:38:00Z</time></trkpt><trkpt lat="37.92233356430196" lon="15.145313017077344"><ele>373.1666666666667</ele><time>2026-04-26T08:38:01Z</time></trkpt><trkpt lat="37.92241716092532" lon="15.14530440105953"><ele>374.0</ele><time>2026-04-26T08:38:02Z</time></trkpt><trkpt lat="37.922506739812604" lon="15.14529205223039"><ele>374.2857142857143</ele><time>2026-04-26T08:38:03Z</time></trkpt><trkpt lat="37.9225926603923" lon="15.145270321617277"><ele>374.5714285714286</ele><time>2026-04-26T08:38:04Z</time></trkpt><trkpt lat="37.92266444500129" lon="15.145238379601745"><ele>374.8571428571429</ele><time>2026-04-26T08:38:05Z</time></trkpt><trkpt lat="37.922721104395706" lon="15.145189059147192"><ele>375.1428571428571</ele><time>2026-04-26T08:38:06Z</time></trkpt><trkpt lat="37.92278219837394" lon="15.145148562686218"><ele>375.42857142857144</ele><time>2026-04-26T08:38:07Z</time></trkpt><trkpt lat="37.922848047145926" lon="15.145104800640114"><ele>375.7142857142857</ele><time>2026-04-26T08:38:08Z</time></trkpt><trkpt lat="37.92291485687327" lon="15.145076741892776"><ele>376.0</ele><time>2026-04-26T08:38:09Z</time></trkpt><trkpt lat="37.922999001280665" lon="15.145052001622844"><ele>376.0</ele><time>2026-04-26T08:38:10Z</time></trkpt><trkpt lat="37.92306412096099" lon="15.145042718261797"><ele>376.0</ele><time>2026-04-26T08:38:11Z</time></trkpt><trkpt lat="37.92319862141347" lon="15.145034059085202"><ele>376.0</ele><time>2026-04-26T08:38:13Z</time></trkpt><trkpt lat="37.923437514383394" lon="15.145643975568408"><ele>377.8</ele><time>2026-04-26T08:38:20Z</time></trkpt><trkpt lat="37.9234623657791" lon="15.145782494068484"><ele>379.6</ele><time>2026-04-26T08:38:22Z</time></trkpt><trkpt lat="37.923541326961214" lon="15.145875106569543"><ele>381.4</ele><time>2026-04-26T08:38:24Z</time></trkpt><trkpt lat="37.92361016814915" lon="15.145914777637548"><ele>383.2</ele><time>2026-04-26T08:38:25Z</time></trkpt><trkpt lat="37.923690836009904" lon="15.145942890497574"><ele>385.0</ele><time>2026-04-26T08:38:26Z</time></trkpt><trkpt lat="37.923777783425905" lon="15.145931629844382"><ele>385.00000000000006</ele><time>2026-04-26T08:38:27Z</time></trkpt><trkpt lat="37.92386001346201" lon="15.14589833251698"><ele>385.0</ele><time>2026-04-26T08:38:28Z</time></trkpt><trkpt lat="37.923959341672195" lon="15.145877794401857"><ele>385.0</ele><time>2026-04-26T08:38:29Z</time></trkpt><trkpt lat="37.92404086491835" lon="15.145882333331206"><ele>385.0</ele><time>2026-04-26T08:38:30Z</time></trkpt><trkpt lat="37.92411909718298" lon="15.145897617819992"><ele>385.00000000000006</ele><time>2026-04-26T08:38:31Z</time></trkpt><trkpt lat="37.92419489038869" lon="15.145887922608102"><ele>385.0</ele><time>2026-04-26T08:38:32Z</time></trkpt><trkpt lat="37.92425669453576" lon="15.145847616354596"><ele>384.6</ele><time>2026-04-26T08:38:32.999Z</time></trkpt><trkpt lat="37.92432508955062" lon="15.145726411261682"><ele>384.2</ele><time>2026-04-26T08:38:34.999Z</time></trkpt><trkpt lat="37.92438231730972" lon="15.145617311438562"><ele>383.79999999999995</ele><time>2026-04-26T08:38:36.999Z</time></trkpt><trkpt lat="37.92443426131295" lon="15.145555285590996"><ele>383.4</ele><time>2026-04-26T08:38:39.999Z</time></trkpt><trkpt lat="37.92439896481358" lon="15.14562508068492"><ele>383.0</ele><time>2026-04-26T08:39:20Z</time></trkpt><trkpt lat="37.924316890037765" lon="15.145734834349993"><ele>383.4</ele><time>2026-04-26T08:39:22Z</time></trkpt><trkpt lat="37.92421893630389" lon="15.145869612569495"><ele>383.79999999999995</ele><time>2026-04-26T08:39:24Z</time></trkpt><trkpt lat="37.924110518733315" lon="15.145899720974004"><ele>384.2</ele><time>2026-04-26T08:39:26Z</time></trkpt><trkpt lat="37.92402264152638" lon="15.14588983206653"><ele>384.6</ele><time>2026-04-26T08:39:27Z</time></trkpt><trkpt lat="37.923930836487166" lon="15.145883045565201"><ele>385.0</ele><time>2026-04-26T08:39:28Z</time></trkpt><trkpt lat="37.92385257384294" lon="15.145888992431644"><ele>385.00000000000006</ele><time>2026-04-26T08:39:29Z</time></trkpt><trkpt lat="37.923782137767134" lon="15.145908517598539"><ele>385.0</ele><time>2026-04-26T08:39:30Z</time></trkpt><trkpt lat="37.923715006529356" lon="15.145923003415927"><ele>385.0</ele><time>2026-04-26T08:39:31Z</time></trkpt><trkpt lat="37.92358714842783" lon="15.145910162135362"><ele>385.0</ele><time>2026-04-26T08:39:33Z</time></trkpt><trkpt lat="37.923515259496774" lon="15.145861678616694"><ele>385.00000000000006</ele><time>2026-04-26T08:39:34Z</time></trkpt><trkpt lat="37.92346071204643" lon="15.14580334498018"><ele>385.0</ele><time>2026-04-26T08:39:35Z</time></trkpt><trkpt lat="37.92343047626918" lon="15.145670691510578"><ele>383.8</ele><time>2026-04-26T08:39:37Z</time></trkpt><trkpt lat="37.923416009132275" lon="15.145537808443397"><ele>382.6</ele><time>2026-04-26T08:39:39Z</time></trkpt><trkpt lat="37.92337395777805" lon="15.145410372956812"><ele>381.4</ele><time>2026-04-26T08:39:41Z</time></trkpt><trkpt lat="37.923332860643704" lon="15.145323731477006"><ele>380.2</ele><time>2026-04-26T08:39:43Z</time></trkpt><trkpt lat="37.92324259749346" lon="15.145293578440924"><ele>379.0</ele><time>2026-04-26T08:39:45Z</time></trkpt><trkpt lat="37.923174436372136" lon="15.145298059934097"><ele>378.4</ele><time>2026-04-26T08:39:46Z</time></trkpt><trkpt lat="37.92308185958874" lon="15.145299608943203"><ele>377.79999999999995</ele><time>2026-04-26T08:39:47Z</time></trkpt><trkpt lat="37.92296981102357" lon="15.145298420636566"><ele>377.20000000000005</ele><time>2026-04-26T08:39:48Z</time></trkpt><trkpt lat="37.922846263038124" lon="15.145299074174073"><ele>376.6</ele><time>2026-04-26T08:39:49Z</time></trkpt><trkpt lat="37.92274376046407" lon="15.145299539167437"><ele>376.0</ele><time>2026-04-26T08:39:50Z</time></trkpt><trkpt lat="37.92263811329686" lon="15.145297062953256"><ele>375.6</ele><time>2026-04-26T08:39:51Z</time></trkpt><trkpt lat="37.922537579620396" lon="15.145291920232305"><ele>375.20000000000005</ele><time>2026-04-26T08:39:52Z</time></trkpt><trkpt lat="37.9224390539494" lon="15.145259925689789"><ele>374.79999999999995</ele><time>2026-04-26T08:39:53Z</time></trkpt><trkpt lat="37.92233136359213" lon="15.145270857372365"><ele>374.4</ele><time>2026-04-26T08:39:54Z</time></trkpt><trkpt lat="37.92223349674051" lon="15.1452789124271"><ele>374.0</ele><time>2026-04-26T08:39:55Z</time></trkpt><trkpt lat="37.92213815424685" lon="15.14528602885258"><ele>374.0</ele><time>2026-04-26T08:39:56Z</time></trkpt><trkpt lat="37.92204810732875" lon="15.145296152230218"><ele>374.0</ele><time>2026-04-26T08:39:57Z</time></trkpt><trkpt lat="37.921946549357045" lon="15.145313554911153"><ele>374.0</ele><time>2026-04-26T08:39:58Z</time></trkpt><trkpt lat="37.9218669444848" lon="15.145310071244886"><ele>374.0</ele><time>2026-04-26T08:39:59Z</time></trkpt><trkpt lat="37.92175690840136" lon="15.145307471452728"><ele>374.0</ele><time>2026-04-26T08:40:00Z</time></trkpt><trkpt lat="37.92165946898239" lon="15.145301361899222"><ele>373.1666666666667</ele><time>2026-04-26T08:40:01Z</time></trkpt><trkpt lat="37.92157309208342" lon="15.145271694636978"><ele>372.33333333333337</ele><time>2026-04-26T08:40:02Z</time></trkpt><trkpt lat="37.92148753969506" lon="15.145221098631511"><ele>371.5</ele><time>2026-04-26T08:40:03Z</time></trkpt><trkpt lat="37.92143113839919" lon="15.145177987536481"><ele>370.6666666666667</ele><time>2026-04-26T08:40:04Z</time></trkpt><trkpt lat="37.92135529239942" lon="15.145110000345815"><ele>369.8333333333333</ele><time>2026-04-26T08:40:05Z</time></trkpt><trkpt lat="37.92126414161731" lon="15.1450762437448"><ele>369.0</ele><time>2026-04-26T08:40:06Z</time></trkpt><trkpt lat="37.921122740117625" lon="15.145046358550854"><ele>369.0</ele><time>2026-04-26T08:40:07Z</time></trkpt><trkpt lat="37.92096605880627" lon="15.14505227245115"><ele>369.0</ele><time>2026-04-26T08:40:08Z</time></trkpt><trkpt lat="37.92085814952456" lon="15.14507216256008"><ele>369.0</ele><time>2026-04-26T08:40:09Z</time></trkpt><trkpt lat="37.92074313976532" lon="15.14509454506014"><ele>369.0</ele><time>2026-04-26T08:40:10Z</time></trkpt><trkpt lat="37.92062994417362" lon="15.145188399644724"><ele>367.6</ele><time>2026-04-26T08:40:11Z</time></trkpt><trkpt lat="37.92056358325425" lon="15.145295872530692"><ele>366.2</ele><time>2026-04-26T08:40:12Z</time></trkpt><trkpt lat="37.920471486841016" lon="15.145291676853374"><ele>364.8</ele><time>2026-04-26T08:40:13Z</time></trkpt><trkpt lat="37.92037038807659" lon="15.145286977049249"><ele>363.40000000000003</ele><time>2026-04-26T08:40:14Z</time></trkpt><trkpt lat="37.9202804748617" lon="15.145271870913305"><ele>362.0</ele><time>2026-04-26T08:40:15Z</time></trkpt><trkpt lat="37.92021321570724" lon="15.145194121473626"><ele>362.0</ele><time>2026-04-26T08:40:16Z</time></trkpt><trkpt lat="37.92012828579812" lon="15.145160197098932"><ele>362.0</ele><time>2026-04-26T08:40:17Z</time></trkpt><trkpt lat="37.920042691555714" lon="15.145101681397103"><ele>362.0</ele><time>2026-04-26T08:40:18Z</time></trkpt><trkpt lat="37.919969617826915" lon="15.145049773343851"><ele>362.0</ele><time>2026-04-26T08:40:19Z</time></trkpt><trkpt lat="37.919883315069406" lon="15.145014488962278"><ele>362.0</ele><time>2026-04-26T08:40:20Z</time></trkpt><trkpt lat="37.9198055395" lon="15.144966092311659"><ele>362.0</ele><time>2026-04-26T08:40:21Z</time></trkpt><trkpt lat="37.919721306042064" lon="15.14493911791535"><ele>361.5</ele><time>2026-04-26T08:40:22Z</time></trkpt><trkpt lat="37.919632886901745" lon="15.144875057987795"><ele>361.0</ele><time>2026-04-26T08:40:23Z</time></trkpt><trkpt lat="37.919559670600066" lon="15.144805936850979"><ele>360.5</ele><time>2026-04-26T08:40:24Z</time></trkpt><trkpt lat="37.91950499744889" lon="15.14474236426277"><ele>360.0</ele><time>2026-04-26T08:40:25Z</time></trkpt><trkpt lat="37.91944710728946" lon="15.144672595125613"><ele>359.5</ele><time>2026-04-26T08:40:26Z</time></trkpt><trkpt lat="37.91941330965351" lon="15.14457599614357"><ele>359.0</ele><time>2026-04-26T08:40:26.999Z</time></trkpt><trkpt lat="37.91936954907854" lon="15.144491572413468"><ele>359.0</ele><time>2026-04-26T08:40:27.999Z</time></trkpt><trkpt lat="37.91931098236181" lon="15.144403772828289"><ele>359.0</ele><time>2026-04-26T08:40:28.999Z</time></trkpt><trkpt lat="37.91922686257455" lon="15.144341461036689"><ele>359.0</ele><time>2026-04-26T08:40:29.999Z</time></trkpt><trkpt lat="37.91920017432505" lon="15.144227555590248"><ele>359.0</ele><time>2026-04-26T08:40:30.999Z</time></trkpt><trkpt lat="37.919147900911504" lon="15.144145147257158"><ele>359.0</ele><time>2026-04-26T08:40:31.999Z</time></trkpt><trkpt lat="37.91909118585857" lon="15.14408217154975"><ele>359.0</ele><time>2026-04-26T08:40:32.999Z</time></trkpt><trkpt lat="37.919003997086946" lon="15.144034509614333"><ele>358.2</ele><time>2026-04-26T08:40:33.999Z</time></trkpt><trkpt lat="37.91894475454991" lon="15.143941891050948"><ele>357.4</ele><time>2026-04-26T08:40:34.999Z</time></trkpt><trkpt lat="37.91884663567872" lon="15.143887782476886"><ele>356.6</ele><time>2026-04-26T08:40:35.999Z</time></trkpt><trkpt lat="37.918760307201424" lon="15.143833970469098"><ele>355.8</ele><time>2026-04-26T08:40:36.999Z</time></trkpt><trkpt lat="37.91866877562226" lon="15.143799284724494"><ele>355.0</ele><time>2026-04-26T08:40:37.999Z</time></trkpt><trkpt lat="37.91858748180241" lon="15.143777671596702"><ele>355.0</ele><time>2026-04-26T08:40:38.999Z</time></trkpt><trkpt lat="37.918494840536795" lon="15.143743053028581"><ele>355.0</ele><time>2026-04-26T08:40:39.999Z</time></trkpt><trkpt lat="37.91843496209101" lon="15.143673943854816"><ele>355.0</ele><time>2026-04-26T08:40:40.999Z</time></trkpt><trkpt lat="37.9183682735451" lon="15.143630137205884"><ele>355.0</ele><time>2026-04-26T08:40:41.999Z</time></trkpt><trkpt lat="37.91830415242284" lon="15.143563411294995"><ele>355.0</ele><time>2026-04-26T08:40:42.999Z</time></trkpt><trkpt lat="37.91823674157853" lon="15.143507349376286"><ele>355.0</ele><time>2026-04-26T08:40:43.999Z</time></trkpt><trkpt lat="37.91816741730035" lon="15.143456202432217"><ele>354.0</ele><time>2026-04-26T08:40:44.999Z</time></trkpt><trkpt lat="37.91806407160126" lon="15.143461539701"><ele>353.0</ele><time>2026-04-26T08:40:45.999Z</time></trkpt><trkpt lat="37.91796618717648" lon="15.143452082142042"><ele>352.0</ele><time>2026-04-26T08:40:46.999Z</time></trkpt><trkpt lat="37.917875733590705" lon="15.14343682650758"><ele>351.0</ele><time>2026-04-26T08:40:47.999Z</time></trkpt><trkpt lat="37.9178063087484" lon="15.1433813681544"><ele>350.0</ele><time>2026-04-26T08:40:48.999Z</time></trkpt><trkpt lat="37.91774081309552" lon="15.143326381360671"><ele>350.0</ele><time>2026-04-26T08:40:49.999Z</time></trkpt><trkpt lat="37.917631502673956" lon="15.143278940396392"><ele>350.0</ele><time>2026-04-26T08:40:50.999Z</time></trkpt><trkpt lat="37.91755019496823" lon="15.143275044582476"><ele>350.0</ele><time>2026-04-26T08:40:51.999Z</time></trkpt><trkpt lat="37.91746973907727" lon="15.143244669296735"><ele>350.0</ele><time>2026-04-26T08:40:52.999Z</time></trkpt><trkpt lat="37.91740609790324" lon="15.143220311942057"><ele>350.0</ele><time>2026-04-26T08:40:53.999Z</time></trkpt><trkpt lat="37.91733389137809" lon="15.143197313331445"><ele>350.0</ele><time>2026-04-26T08:40:54.999Z</time></trkpt><trkpt lat="37.91725811810013" lon="15.143196993628028"><ele>349.83333333333337</ele><time>2026-04-26T08:40:55.999Z</time></trkpt><trkpt lat="37.91719285356769" lon="15.143247371790764"><ele>349.6666666666667</ele><time>2026-04-26T08:40:57Z</time></trkpt><trkpt lat="37.9171265865683" lon="15.143238095521241"><ele>349.5</ele><time>2026-04-26T08:40:58Z</time></trkpt><trkpt lat="37.917038428443206" lon="15.143240934997095"><ele>349.3333333333333</ele><time>2026-04-26T08:40:59Z</time></trkpt><trkpt lat="37.916954469822215" lon="15.143246627418574"><ele>349.16666666666663</ele><time>2026-04-26T08:41:00Z</time></trkpt><trkpt lat="37.916878233802166" lon="15.143183839157055"><ele>349.0</ele><time>2026-04-26T08:41:01Z</time></trkpt><trkpt lat="37.91679598440909" lon="15.143163033435904"><ele>348.16666666666663</ele><time>2026-04-26T08:41:02Z</time></trkpt><trkpt lat="37.91672053869779" lon="15.143152395903916"><ele>347.3333333333333</ele><time>2026-04-26T08:41:03Z</time></trkpt><trkpt lat="37.916652451799095" lon="15.143145735097603"><ele>346.5</ele><time>2026-04-26T08:41:04Z</time></trkpt><trkpt lat="37.91658681437893" lon="15.143201835713437"><ele>345.6666666666667</ele><time>2026-04-26T08:41:05Z</time></trkpt><trkpt lat="37.916521521126064" lon="15.143231839144823"><ele>344.83333333333337</ele><time>2026-04-26T08:41:06Z</time></trkpt><trkpt lat="37.91641064335984" lon="15.143246063335017"><ele>344.0</ele><time>2026-04-26T08:41:08Z</time></trkpt><trkpt lat="37.916354417943005" lon="15.143174454372241"><ele>342.83333333333337</ele><time>2026-04-26T08:41:09Z</time></trkpt><trkpt lat="37.91628934353168" lon="15.143111933053477"><ele>341.6666666666667</ele><time>2026-04-26T08:41:10Z</time></trkpt><trkpt lat="37.9162235443205" lon="15.143060142558191"><ele>340.5</ele><time>2026-04-26T08:41:11Z</time></trkpt><trkpt lat="37.91615242104954" lon="15.143016206909916"><ele>339.3333333333333</ele><time>2026-04-26T08:41:12Z</time></trkpt><trkpt lat="37.916075086951814" lon="15.143010385771586"><ele>338.16666666666663</ele><time>2026-04-26T08:41:13Z</time></trkpt><trkpt lat="37.91594988545246" lon="15.142975258211095"><ele>337.0</ele><time>2026-04-26T08:41:15Z</time></trkpt><trkpt lat="37.91585951288755" lon="15.142938271388367"><ele>336.40000000000003</ele><time>2026-04-26T08:41:17Z</time></trkpt><trkpt lat="37.91573998403936" lon="15.142944760119637"><ele>335.8</ele><time>2026-04-26T08:41:19Z</time></trkpt><trkpt lat="37.91567031602766" lon="15.14299724530206"><ele>335.2</ele><time>2026-04-26T08:41:20Z</time></trkpt><trkpt lat="37.915575645542354" lon="15.14305796208933"><ele>334.6</ele><time>2026-04-26T08:41:21Z</time></trkpt><trkpt lat="37.91547934737309" lon="15.143120005606328"><ele>334.0</ele><time>2026-04-26T08:41:22Z</time></trkpt><trkpt lat="37.91538149509591" lon="15.14317591968563"><ele>335.4</ele><time>2026-04-26T08:41:23Z</time></trkpt><trkpt lat="37.915290759781506" lon="15.1432205062687"><ele>336.79999999999995</ele><time>2026-04-26T08:41:24Z</time></trkpt><trkpt lat="37.9151963913333" lon="15.143258348462735"><ele>338.20000000000005</ele><time>2026-04-26T08:41:25Z</time></trkpt><trkpt lat="37.91512120055294" lon="15.143281249408453"><ele>339.6</ele><time>2026-04-26T08:41:26Z</time></trkpt><trkpt lat="37.91503515528477" lon="15.143293230351029"><ele>341.0</ele><time>2026-04-26T08:41:27Z</time></trkpt><trkpt lat="37.91494403777641" lon="15.143286794676673"><ele>341.0</ele><time>2026-04-26T08:41:28Z</time></trkpt><trkpt lat="37.9148716813379" lon="15.143229230478518"><ele>341.0</ele><time>2026-04-26T08:41:29Z</time></trkpt><trkpt lat="37.914778456528055" lon="15.143201093291488"><ele>341.0</ele><time>2026-04-26T08:41:30Z</time></trkpt><trkpt lat="37.91470469394044" lon="15.14320702845111"><ele>341.0</ele><time>2026-04-26T08:41:31Z</time></trkpt><trkpt lat="37.914615626993644" lon="15.143216115061874"><ele>341.0</ele><time>2026-04-26T08:41:32Z</time></trkpt><trkpt lat="37.91453218020508" lon="15.143205489546055"><ele>341.0</ele><time>2026-04-26T08:41:33Z</time></trkpt><trkpt lat="37.914436326765305" lon="15.143199350434642"><ele>339.1666666666667</ele><time>2026-04-26T08:41:34Z</time></trkpt><trkpt lat="37.91433775763974" lon="15.143191630777862"><ele>337.33333333333337</ele><time>2026-04-26T08:41:35Z</time></trkpt><trkpt lat="37.914256433965505" lon="15.14320441684038"><ele>335.5</ele><time>2026-04-26T08:41:36Z</time></trkpt><trkpt lat="37.914175196308605" lon="15.143204491550048"><ele>333.6666666666667</ele><time>2026-04-26T08:41:37Z</time></trkpt><trkpt lat="37.91409772568598" lon="15.143208972779195"><ele>331.8333333333333</ele><time>2026-04-26T08:41:38Z</time></trkpt><trkpt lat="37.914012392578876" lon="15.14320705925558"><ele>330.0</ele><time>2026-04-26T08:41:39Z</time></trkpt><trkpt lat="37.91393400868601" lon="15.1432111552779"><ele>330.4</ele><time>2026-04-26T08:41:40Z</time></trkpt><trkpt lat="37.91384827494729" lon="15.143225324803282"><ele>330.8</ele><time>2026-04-26T08:41:41Z</time></trkpt><trkpt lat="37.91375699933863" lon="15.143240817689664"><ele>331.20000000000005</ele><time>2026-04-26T08:41:42Z</time></trkpt><trkpt lat="37.91366670218141" lon="15.143250473637544"><ele>331.6</ele><time>2026-04-26T08:41:43Z</time></trkpt><trkpt lat="37.913567785084716" lon="15.143281120970933"><ele>332.0</ele><time>2026-04-26T08:41:44Z</time></trkpt><trkpt lat="37.913478475515646" lon="15.143300515804285"><ele>332.0</ele><time>2026-04-26T08:41:45Z</time></trkpt><trkpt lat="37.91341043662641" lon="15.143314823156043"><ele>332.0</ele><time>2026-04-26T08:41:46Z</time></trkpt><trkpt lat="37.913333473946864" lon="15.143348974095828"><ele>332.0</ele><time>2026-04-26T08:41:47Z</time></trkpt><trkpt lat="37.913262989870496" lon="15.143377609172411"><ele>332.0</ele><time>2026-04-26T08:41:48Z</time></trkpt><trkpt lat="37.913202211708" lon="15.143400670249164"><ele>332.0</ele><time>2026-04-26T08:41:49Z</time></trkpt><trkpt lat="37.91308636651333" lon="15.143378339429262"><ele>332.0</ele><time>2026-04-26T08:41:51Z</time></trkpt><trkpt lat="37.91303847665787" lon="15.143325928340868"><ele>331.0</ele><time>2026-04-26T08:41:52Z</time></trkpt><trkpt lat="37.91298530641226" lon="15.143275571828617"><ele>330.0</ele><time>2026-04-26T08:41:53Z</time></trkpt><trkpt lat="37.91292496321697" lon="15.143230025732208"><ele>329.0</ele><time>2026-04-26T08:41:54Z</time></trkpt><trkpt lat="37.91284871128608" lon="15.143206679646262"><ele>328.0</ele><time>2026-04-26T08:41:55Z</time></trkpt><trkpt lat="37.912781506143325" lon="15.143165697889717"><ele>327.0</ele><time>2026-04-26T08:41:56Z</time></trkpt><trkpt lat="37.91271632030198" lon="15.143190228435337"><ele>326.0</ele><time>2026-04-26T08:41:57Z</time></trkpt><trkpt lat="37.91259904232005" lon="15.143177197852074"><ele>324.2</ele><time>2026-04-26T08:41:59Z</time></trkpt><trkpt lat="37.912526215308965" lon="15.143181008982696"><ele>322.40000000000003</ele><time>2026-04-26T08:42:02Z</time></trkpt><trkpt lat="37.91247996173058" lon="15.142981172567785"><ele>320.6</ele><time>2026-04-26T08:42:10Z</time></trkpt><trkpt lat="37.912409449036005" lon="15.14294197200223"><ele>318.8</ele><time>2026-04-26T08:49:00.999Z</time></trkpt><trkpt lat="37.91235975163118" lon="15.142883673212866"><ele>317.0</ele><time>2026-04-26T08:49:03.999Z</time></trkpt><trkpt lat="37.912446607541256" lon="15.142914351542181"><ele>317.0</ele><time>2026-04-26T08:49:08.999Z</time></trkpt><trkpt lat="37.91251706638334" lon="15.142959306156557"><ele>317.0</ele><time>2026-04-26T08:49:10.999Z</time></trkpt><trkpt lat="37.91257272846987" lon="15.143007624794187"><ele>317.0</ele><time>2026-04-26T08:49:52Z</time></trkpt><trkpt lat="37.912693868917145" lon="15.14310543507317"><ele>317.0</ele><time>2026-04-26T08:49:54Z</time></trkpt><trkpt lat="37.91277915051036" lon="15.143158146619742"><ele>317.0</ele><time>2026-04-26T08:49:55Z</time></trkpt><trkpt lat="37.91286751842882" lon="15.143210923890834"><ele>318.8</ele><time>2026-04-26T08:49:56Z</time></trkpt><trkpt lat="37.912934634728025" lon="15.143286348174463"><ele>320.6</ele><time>2026-04-26T08:49:57Z</time></trkpt><trkpt lat="37.913016361989115" lon="15.143327586466414"><ele>322.40000000000003</ele><time>2026-04-26T08:49:58Z</time></trkpt><trkpt lat="37.91309645202746" lon="15.143411262860402"><ele>324.2</ele><time>2026-04-26T08:49:59Z</time></trkpt><trkpt lat="37.91316138032861" lon="15.14344737532976"><ele>326.0</ele><time>2026-04-26T08:50:00Z</time></trkpt><trkpt lat="37.913276323128066" lon="15.143384602458612"><ele>326.0</ele><time>2026-04-26T08:50:01Z</time></trkpt><trkpt lat="37.91338276134948" lon="15.143357202430272"><ele>326.0</ele><time>2026-04-26T08:50:02Z</time></trkpt><trkpt lat="37.913503278082025" lon="15.143309282653174"><ele>326.0</ele><time>2026-04-26T08:50:03Z</time></trkpt><trkpt lat="37.91363480998027" lon="15.143298520641991"><ele>326.0</ele><time>2026-04-26T08:50:04Z</time></trkpt><trkpt lat="37.913760665996115" lon="15.143258094588486"><ele>327.0</ele><time>2026-04-26T08:50:05Z</time></trkpt><trkpt lat="37.913889474026256" lon="15.143228020189722"><ele>328.0</ele><time>2026-04-26T08:50:06Z</time></trkpt><trkpt lat="37.91403177330775" lon="15.143233850811093"><ele>329.0</ele><time>2026-04-26T08:50:07Z</time></trkpt><trkpt lat="37.914165426304116" lon="15.143227462389026"><ele>330.0</ele><time>2026-04-26T08:50:08Z</time></trkpt><trkpt lat="37.91430996772918" lon="15.14321033330177"><ele>332.75</ele><time>2026-04-26T08:50:09Z</time></trkpt><trkpt lat="37.9144470580995" lon="15.14322173359221"><ele>335.5</ele><time>2026-04-26T08:50:10Z</time></trkpt><trkpt lat="37.91457569338308" lon="15.143250289947954"><ele>338.25</ele><time>2026-04-26T08:50:11Z</time></trkpt><trkpt lat="37.914698564611655" lon="15.14324964695878"><ele>341.0</ele><time>2026-04-26T08:50:12Z</time></trkpt><trkpt lat="37.91481084809764" lon="15.143228552796518"><ele>341.0</ele><time>2026-04-26T08:50:13Z</time></trkpt><trkpt lat="37.9149051606672" lon="15.143249940486776"><ele>341.0</ele><time>2026-04-26T08:50:14Z</time></trkpt><trkpt lat="37.91498341098734" lon="15.14332395408681"><ele>341.0</ele><time>2026-04-26T08:50:15Z</time></trkpt><trkpt lat="37.91510831666952" lon="15.14331649945546"><ele>341.0</ele><time>2026-04-26T08:50:16Z</time></trkpt><trkpt lat="37.91522210285196" lon="15.1432866498871"><ele>341.0</ele><time>2026-04-26T08:50:17Z</time></trkpt><trkpt lat="37.915337566827965" lon="15.143237176874676"><ele>339.25</ele><time>2026-04-26T08:50:18Z</time></trkpt><trkpt lat="37.91545836159722" lon="15.143179837901858"><ele>337.5</ele><time>2026-04-26T08:50:19Z</time></trkpt><trkpt lat="37.91557433305606" lon="15.143123101004024"><ele>335.75</ele><time>2026-04-26T08:50:20Z</time></trkpt><trkpt lat="37.91567889170274" lon="15.14305455008897"><ele>334.0</ele><time>2026-04-26T08:50:21Z</time></trkpt><trkpt lat="37.915772378069725" lon="15.142993428864916"><ele>334.0</ele><time>2026-04-26T08:50:22Z</time></trkpt><trkpt lat="37.915855063733964" lon="15.142960586501827"><ele>334.0</ele><time>2026-04-26T08:50:22.999Z</time></trkpt><trkpt lat="37.91593392712404" lon="15.142999772794019"><ele>334.0</ele><time>2026-04-26T08:50:23.999Z</time></trkpt><trkpt lat="37.91601277747339" lon="15.143042935427456"><ele>334.0</ele><time>2026-04-26T08:50:24.999Z</time></trkpt><trkpt lat="37.916112308925555" lon="15.143064557172222"><ele>334.0</ele><time>2026-04-26T08:50:25.999Z</time></trkpt><trkpt lat="37.91620234740373" lon="15.143098961715655"><ele>334.6</ele><time>2026-04-26T08:50:26.999Z</time></trkpt><trkpt lat="37.9162928555449" lon="15.143165507426517"><ele>335.2</ele><time>2026-04-26T08:50:27.999Z</time></trkpt><trkpt lat="37.91637737051314" lon="15.143234529096027"><ele>335.8</ele><time>2026-04-26T08:50:28.999Z</time></trkpt><trkpt lat="37.91646632950149" lon="15.143264175104417"><ele>336.40000000000003</ele><time>2026-04-26T08:50:29.999Z</time></trkpt><trkpt lat="37.916551213853225" lon="15.143281900162108"><ele>337.0</ele><time>2026-04-26T08:50:30.999Z</time></trkpt><trkpt lat="37.916631364973405" lon="15.143229245497627"><ele>337.0</ele><time>2026-04-26T08:50:31.999Z</time></trkpt><trkpt lat="37.916720139598226" lon="15.143186419638312"><ele>337.0</ele><time>2026-04-26T08:50:32.999Z</time></trkpt><trkpt lat="37.916828703536574" lon="15.143194494461822"><ele>337.0</ele><time>2026-04-26T08:50:33.999Z</time></trkpt><trkpt lat="37.91692638560875" lon="15.143260848199397"><ele>337.0</ele><time>2026-04-26T08:50:34.999Z</time></trkpt><trkpt lat="37.91704820899134" lon="15.143300908860937"><ele>337.0</ele><time>2026-04-26T08:50:35.999Z</time></trkpt><trkpt lat="37.91717191011998" lon="15.143293490505375"><ele>340.0</ele><time>2026-04-26T08:50:36.999Z</time></trkpt><trkpt lat="37.91729044263079" lon="15.143224043268539"><ele>343.0</ele><time>2026-04-26T08:50:37.999Z</time></trkpt><trkpt lat="37.917413816147466" lon="15.143224294743469"><ele>346.0</ele><time>2026-04-26T08:50:38.999Z</time></trkpt><trkpt lat="37.91753220908531" lon="15.143291910653062"><ele>349.0</ele><time>2026-04-26T08:50:39.999Z</time></trkpt><trkpt lat="37.917657692620146" lon="15.143345003382361"><ele>349.25</ele><time>2026-04-26T08:50:40.999Z</time></trkpt><trkpt lat="37.91780449668381" lon="15.143418035365727"><ele>349.5</ele><time>2026-04-26T08:50:41.999Z</time></trkpt><trkpt lat="37.91793904677459" lon="15.143490427042034"><ele>349.75</ele><time>2026-04-26T08:50:42.999Z</time></trkpt><trkpt lat="37.91808301389179" lon="15.143500249547879"><ele>350.0</ele><time>2026-04-26T08:50:43.999Z</time></trkpt><trkpt lat="37.91821211029593" lon="15.143519623165366"><ele>350.0</ele><time>2026-04-26T08:50:44.999Z</time></trkpt><trkpt lat="37.918309300072316" lon="15.143561070207783"><ele>350.0</ele><time>2026-04-26T08:50:45.999Z</time></trkpt><trkpt lat="37.91838110365673" lon="15.143672784241797"><ele>350.0</ele><time>2026-04-26T08:50:46.999Z</time></trkpt><trkpt lat="37.91847911265533" lon="15.143762144985983"><ele>350.0</ele><time>2026-04-26T08:50:47.999Z</time></trkpt><trkpt lat="37.918604361186524" lon="15.143813815725437"><ele>351.25</ele><time>2026-04-26T08:50:48.999Z</time></trkpt><trkpt lat="37.918717684866024" lon="15.143852547474287"><ele>352.5</ele><time>2026-04-26T08:50:49.999Z</time></trkpt><trkpt lat="37.91883595609221" lon="15.143901774450372"><ele>353.75</ele><time>2026-04-26T08:50:50.999Z</time></trkpt><trkpt lat="37.918936724308516" lon="15.143977072828163"><ele>355.0</ele><time>2026-04-26T08:50:51.999Z</time></trkpt><trkpt lat="37.91901812894842" lon="15.144086183462377"><ele>356.0</ele><time>2026-04-26T08:50:52.999Z</time></trkpt><trkpt lat="37.919105124904135" lon="15.144174440214304"><ele>357.0</ele><time>2026-04-26T08:50:53.999Z</time></trkpt><trkpt lat="37.91918297115763" lon="15.14428934501261"><ele>358.0</ele><time>2026-04-26T08:50:54.999Z</time></trkpt><trkpt lat="37.919268860350364" lon="15.144410073802304"><ele>359.0</ele><time>2026-04-26T08:50:55.999Z</time></trkpt><trkpt lat="37.91935849381464" lon="15.144527824233494"><ele>359.0</ele><time>2026-04-26T08:50:56.999Z</time></trkpt><trkpt lat="37.91940782334678" lon="15.144651783363567"><ele>359.0</ele><time>2026-04-26T08:50:57.999Z</time></trkpt><trkpt lat="37.91948403089651" lon="15.144769986129585"><ele>359.0</ele><time>2026-04-26T08:50:58.999Z</time></trkpt><trkpt lat="37.919578944332294" lon="15.14484638668815"><ele>359.0</ele><time>2026-04-26T08:50:59.999Z</time></trkpt><trkpt lat="37.91967106332242" lon="15.144929880846988"><ele>359.75</ele><time>2026-04-26T08:51:00.999Z</time></trkpt><trkpt lat="37.91976752846028" lon="15.145000063458264"><ele>360.5</ele><time>2026-04-26T08:51:01.999Z</time></trkpt><trkpt lat="37.91987433199915" lon="15.145043759446319"><ele>361.25</ele><time>2026-04-26T08:51:02.999Z</time></trkpt><trkpt lat="37.91998672030467" lon="15.145108686792424"><ele>362.0</ele><time>2026-04-26T08:51:03.999Z</time></trkpt><trkpt lat="37.920096235550446" lon="15.145187432208553"><ele>362.0</ele><time>2026-04-26T08:51:04.999Z</time></trkpt><trkpt lat="37.920224350500824" lon="15.145240828768541"><ele>362.0</ele><time>2026-04-26T08:51:05.999Z</time></trkpt><trkpt lat="37.920359328779824" lon="15.145245812922996"><ele>362.0</ele><time>2026-04-26T08:51:06.999Z</time></trkpt><trkpt lat="37.920465568963195" lon="15.145328624936006"><ele>362.0</ele><time>2026-04-26T08:51:07.999Z</time></trkpt><trkpt lat="37.92060450873694" lon="15.14533148016951"><ele>362.0</ele><time>2026-04-26T08:51:08.999Z</time></trkpt><trkpt lat="37.92071450497535" lon="15.145130363736898"><ele>362.0</ele><time>2026-04-26T08:51:09.999Z</time></trkpt><trkpt lat="37.92084219476383" lon="15.145116175696188"><ele>362.0</ele><time>2026-04-26T08:51:10.999Z</time></trkpt><trkpt lat="37.920969912547214" lon="15.145094072503577"><ele>364.33333333333337</ele><time>2026-04-26T08:51:11.999Z</time></trkpt><trkpt lat="37.92126917432524" lon="15.145120445323093"><ele>366.6666666666667</ele><time>2026-04-26T08:51:13.999Z</time></trkpt><trkpt lat="37.921400858662444" lon="15.1451711103681"><ele>369.0</ele><time>2026-04-26T08:51:14.999Z</time></trkpt><trkpt lat="37.92149895295882" lon="15.145285454740726"><ele>369.0</ele><time>2026-04-26T08:51:15.999Z</time></trkpt><trkpt lat="37.921623915432995" lon="15.14533577830754"><ele>369.0</ele><time>2026-04-26T08:51:16.999Z</time></trkpt><trkpt lat="37.92175779340617" lon="15.145339819740064"><ele>369.0</ele><time>2026-04-26T08:51:17.999Z</time></trkpt><trkpt lat="37.921877686854536" lon="15.14535241008176"><ele>369.0</ele><time>2026-04-26T08:51:18.999Z</time></trkpt><trkpt lat="37.922006947873896" lon="15.145364031753516"><ele>370.25</ele><time>2026-04-26T08:51:19.999Z</time></trkpt><trkpt lat="37.92213414690472" lon="15.145384526312194"><ele>371.5</ele><time>2026-04-26T08:51:20.999Z</time></trkpt><trkpt lat="37.92225932832315" lon="15.145319081553884"><ele>372.75</ele><time>2026-04-26T08:51:21.999Z</time></trkpt><trkpt lat="37.92238761753901" lon="15.145319966530002"><ele>374.0</ele><time>2026-04-26T08:51:22.999Z</time></trkpt><trkpt lat="37.92252546262518" lon="15.145304140655497"><ele>374.5</ele><time>2026-04-26T08:51:23.999Z</time></trkpt><trkpt lat="37.92264578141682" lon="15.145245709456166"><ele>375.0</ele><time>2026-04-26T08:51:24.999Z</time></trkpt><trkpt lat="37.922741539459636" lon="15.145175810218516"><ele>375.5</ele><time>2026-04-26T08:51:26Z</time></trkpt><trkpt lat="37.92286801479437" lon="15.145096835171667"><ele>376.0</ele><time>2026-04-26T08:51:27Z</time></trkpt><trkpt lat="37.92304481884559" lon="15.14504448996943"><ele>376.0</ele><time>2026-04-26T08:51:28Z</time></trkpt><trkpt lat="37.92319320559762" lon="15.145034673471962"><ele>376.0</ele><time>2026-04-26T08:51:29Z</time></trkpt><trkpt lat="37.92334409210788" lon="15.145068465226679"><ele>376.0</ele><time>2026-04-26T08:51:30Z</time></trkpt><trkpt lat="37.92348762142313" lon="15.1450809956532"><ele>376.0</ele><time>2026-04-26T08:51:31Z</time></trkpt><trkpt lat="37.92363730480915" lon="15.145104815184594"><ele>376.75</ele><time>2026-04-26T08:51:32Z</time></trkpt><trkpt lat="37.923753611666875" lon="15.145100223100304"><ele>377.5</ele><time>2026-04-26T08:51:33Z</time></trkpt><trkpt lat="37.92387050421935" lon="15.145062650569894"><ele>378.25</ele><time>2026-04-26T08:51:34Z</time></trkpt><trkpt lat="37.92397138448177" lon="15.145003443427848"><ele>379.0</ele><time>2026-04-26T08:51:35Z</time></trkpt><trkpt lat="37.9241875195916" lon="15.145282417394364"><ele>379.79999999999995</ele><time>2026-04-26T08:51:36Z</time></trkpt><trkpt lat="37.92431261901579" lon="15.145278834460537"><ele>380.59999999999997</ele><time>2026-04-26T08:51:37Z</time></trkpt><trkpt lat="37.924429781402125" lon="15.145272558970014"><ele>381.4</ele><time>2026-04-26T08:51:38Z</time></trkpt><trkpt lat="37.92453026810174" lon="15.14526600880516"><ele>382.2</ele><time>2026-04-26T08:51:39Z</time></trkpt><trkpt lat="37.92462560750058" lon="15.145273277721232"><ele>383.0</ele><time>2026-04-26T08:51:40Z</time></trkpt><trkpt lat="37.92471254083018" lon="15.145295961833092"><ele>383.0</ele><time>2026-04-26T08:51:41Z</time></trkpt><trkpt lat="37.924788264682995" lon="15.145344838160716"><ele>383.0</ele><time>2026-04-26T08:51:42Z</time></trkpt><trkpt lat="37.924882415156624" lon="15.14539882104296"><ele>383.0</ele><time>2026-04-26T08:51:43Z</time></trkpt><trkpt lat="37.92498955590203" lon="15.145446678983284"><ele>383.0</ele><time>2026-04-26T08:51:44Z</time></trkpt><trkpt lat="37.92509361299014" lon="15.145478058948502"><ele>383.0</ele><time>2026-04-26T08:51:45Z</time></trkpt><trkpt lat="37.92518345490899" lon="15.145517585783313"><ele>384.33333333333337</ele><time>2026-04-26T08:51:46Z</time></trkpt><trkpt lat="37.92526935344819" lon="15.145585004418843"><ele>385.6666666666667</ele><time>2026-04-26T08:51:47Z</time></trkpt><trkpt lat="37.9253361600529" lon="15.145659073533375"><ele>387.0</ele><time>2026-04-26T08:51:48Z</time></trkpt><trkpt lat="37.92540541885926" lon="15.145724927019897"><ele>388.33333333333337</ele><time>2026-04-26T08:51:49Z</time></trkpt><trkpt lat="37.92548193331767" lon="15.145766061624643"><ele>389.6666666666667</ele><time>2026-04-26T08:51:50Z</time></trkpt><trkpt lat="37.925562610497195" lon="15.145787586516958"><ele>391.0</ele><time>2026-04-26T08:51:51Z</time></trkpt><trkpt lat="37.925637625814836" lon="15.145802923071079"><ele>391.6</ele><time>2026-04-26T08:51:52Z</time></trkpt><trkpt lat="37.92570153408551" lon="15.14581412192024"><ele>392.20000000000005</ele><time>2026-04-26T08:51:53Z</time></trkpt><trkpt lat="37.92583276367257" lon="15.14580243984936"><ele>392.79999999999995</ele><time>2026-04-26T08:51:55Z</time></trkpt><trkpt lat="37.92589595266874" lon="15.145790849241397"><ele>393.4</ele><time>2026-04-26T08:51:56Z</time></trkpt><trkpt lat="37.926011550753664" lon="15.145754148150909"><ele>394.0</ele><time>2026-04-26T08:51:58Z</time></trkpt><trkpt lat="37.926122560555854" lon="15.145780416269437"><ele>394.0</ele><time>2026-04-26T08:52:00Z</time></trkpt><trkpt lat="37.926236308638174" lon="15.145839511156273"><ele>394.0</ele><time>2026-04-26T08:52:02Z</time></trkpt><trkpt lat="37.92634020642014" lon="15.145929390803376"><ele>394.0</ele><time>2026-04-26T08:52:04Z</time></trkpt><trkpt lat="37.926397039132254" lon="15.145985916993988"><ele>394.0</ele><time>2026-04-26T08:52:05Z</time></trkpt><trkpt lat="37.926465423912205" lon="15.1460415749974"><ele>394.0</ele><time>2026-04-26T08:52:06Z</time></trkpt><trkpt lat="37.92658508657915" lon="15.146117765595081"><ele>394.00000000000006</ele><time>2026-04-26T08:52:08Z</time></trkpt><trkpt lat="37.926667120884055" lon="15.146137888293772"><ele>394.0</ele><time>2026-04-26T08:52:09Z</time></trkpt><trkpt lat="37.92675125431292" lon="15.146167114301438"><ele>394.0</ele><time>2026-04-26T08:52:10Z</time></trkpt><trkpt lat="37.92683132049028" lon="15.146200929174102"><ele>394.0</ele><time>2026-04-26T08:52:11Z</time></trkpt><trkpt lat="37.926920056705704" lon="15.146230374850697"><ele>394.00000000000006</ele><time>2026-04-26T08:52:12Z</time></trkpt><trkpt lat="37.92700486053068" lon="15.146254430665604"><ele>394.0</ele><time>2026-04-26T08:52:13Z</time></trkpt><trkpt lat="37.92709267301152" lon="15.146279293556265"><ele>395.33333333333337</ele><time>2026-04-26T08:52:14Z</time></trkpt><trkpt lat="37.92717539830168" lon="15.146316604171574"><ele>396.6666666666667</ele><time>2026-04-26T08:52:15Z</time></trkpt><trkpt lat="37.92724839678959" lon="15.146359786770928"><ele>398.0</ele><time>2026-04-26T08:52:16Z</time></trkpt><trkpt lat="37.927320137791554" lon="15.146386505718244"><ele>399.33333333333337</ele><time>2026-04-26T08:52:17Z</time></trkpt><trkpt lat="37.927432063950185" lon="15.146370237822685"><ele>400.6666666666667</ele><time>2026-04-26T08:52:19Z</time></trkpt><trkpt lat="37.927499459016516" lon="15.146367463603656"><ele>402.0</ele><time>2026-04-26T08:52:19.999Z</time></trkpt><trkpt lat="37.92760805373803" lon="15.146361842758918"><ele>403.1428571428571</ele><time>2026-04-26T08:52:21.999Z</time></trkpt><trkpt lat="37.92767961599001" lon="15.146325191168737"><ele>404.28571428571433</ele><time>2026-04-26T08:52:23.999Z</time></trkpt><trkpt lat="37.92774888281029" lon="15.146318005213185"><ele>405.42857142857144</ele><time>2026-04-26T08:52:26.999Z</time></trkpt><trkpt lat="37.92781939098478" lon="15.146333468225441"><ele>406.57142857142856</ele><time>2026-04-26T08:52:28.999Z</time></trkpt><trkpt lat="37.927861938168206" lon="15.146414391611287"><ele>407.71428571428567</ele><time>2026-04-26T08:52:32.999Z</time></trkpt><trkpt lat="37.92789366165548" lon="15.146497012494255"><ele>408.8571428571429</ele><time>2026-04-26T08:52:34.999Z</time></trkpt><trkpt lat="37.92795883821878" lon="15.146530727252552"><ele>410.0</ele><time>2026-04-26T08:52:36.999Z</time></trkpt><trkpt lat="37.92807391492705" lon="15.146570152109533"><ele>410.0</ele><time>2026-04-26T08:52:38.999Z</time></trkpt><trkpt lat="37.92813446182106" lon="15.146598615557044"><ele>410.0</ele><time>2026-04-26T08:52:39.999Z</time></trkpt><trkpt lat="37.92820133898118" lon="15.146634238889863"><ele>410.0</ele><time>2026-04-26T08:52:40.999Z</time></trkpt><trkpt lat="37.92826986881719" lon="15.146665386436766"><ele>410.0</ele><time>2026-04-26T08:52:41.999Z</time></trkpt><trkpt lat="37.92833159914288" lon="15.146688929258069"><ele>410.0</ele><time>2026-04-26T08:52:42.999Z</time></trkpt><trkpt lat="37.928406908488206" lon="15.146720115575757"><ele>410.0</ele><time>2026-04-26T08:52:43.999Z</time></trkpt><trkpt lat="37.92849337596523" lon="15.14676009333555"><ele>410.0</ele><time>2026-04-26T08:52:44.999Z</time></trkpt><trkpt lat="37.92855725311553" lon="15.146789174149722"><ele>410.75</ele><time>2026-04-26T08:52:45.999Z</time></trkpt><trkpt lat="37.928637342009246" lon="15.14680312579603"><ele>411.5</ele><time>2026-04-26T08:52:46.999Z</time></trkpt><trkpt lat="37.92884071051333" lon="15.146830348899778"><ele>412.25</ele><time>2026-04-26T08:52:48.999Z</time></trkpt><trkpt lat="37.9289542438191" lon="15.146839431552525"><ele>413.0</ele><time>2026-04-26T08:52:49.999Z</time></trkpt><trkpt lat="37.92904719270735" lon="15.14683870044591"><ele>413.0</ele><time>2026-04-26T08:52:50.999Z</time></trkpt><trkpt lat="37.92914182924352" lon="15.14684072492349"><ele>413.0</ele><time>2026-04-26T08:52:51.999Z</time></trkpt><trkpt lat="37.92923428953621" lon="15.146850099122835"><ele>413.0</ele><time>2026-04-26T08:52:52.999Z</time></trkpt><trkpt lat="37.92933439927908" lon="15.146857629247307"><ele>413.0</ele><time>2026-04-26T08:52:53.999Z</time></trkpt><trkpt lat="37.92942330869139" lon="15.146865507111599"><ele>413.0</ele><time>2026-04-26T08:52:54.999Z</time></trkpt><trkpt lat="37.92952543767641" lon="15.146868196884475"><ele>414.66666666666663</ele><time>2026-04-26T08:52:55.999Z</time></trkpt><trkpt lat="37.92961529666432" lon="15.146876314012923"><ele>416.3333333333333</ele><time>2026-04-26T08:52:56.999Z</time></trkpt><trkpt lat="37.929706969347414" lon="15.146879438765964"><ele>418.0</ele><time>2026-04-26T08:52:57.999Z</time></trkpt><trkpt lat="37.929794908192356" lon="15.146871069877836"><ele>419.66666666666663</ele><time>2026-04-26T08:52:58.999Z</time></trkpt><trkpt lat="37.929888158170016" lon="15.146867751891106"><ele>421.3333333333333</ele><time>2026-04-26T08:52:59.999Z</time></trkpt><trkpt lat="37.92997427524835" lon="15.146869700041105"><ele>423.0</ele><time>2026-04-26T08:53:00.999Z</time></trkpt><trkpt lat="37.930066464955836" lon="15.146868286306495"><ele>423.6666666666667</ele><time>2026-04-26T08:53:01.999Z</time></trkpt><trkpt lat="37.93015509738889" lon="15.146866338406275"><ele>424.33333333333337</ele><time>2026-04-26T08:53:02.999Z</time></trkpt><trkpt lat="37.93023951990019" lon="15.146856055678413"><ele>425.0</ele><time>2026-04-26T08:53:03.999Z</time></trkpt><trkpt lat="37.93033160927733" lon="15.146843201058573"><ele>425.6666666666667</ele><time>2026-04-26T08:53:04.999Z</time></trkpt><trkpt lat="37.930407216399765" lon="15.146839877310155"><ele>426.33333333333337</ele><time>2026-04-26T08:53:05.999Z</time></trkpt><trkpt lat="37.930498471584826" lon="15.146833722082928"><ele>427.0</ele><time>2026-04-26T08:53:06.999Z</time></trkpt><trkpt lat="37.93059803202088" lon="15.146823747523722"><ele>427.00000000000006</ele><time>2026-04-26T08:53:07.999Z</time></trkpt><trkpt lat="37.93068494641655" lon="15.146813757361654"><ele>427.0</ele><time>2026-04-26T08:53:08.999Z</time></trkpt><trkpt lat="37.930772878913835" lon="15.14679261265305"><ele>427.0</ele><time>2026-04-26T08:53:09.999Z</time></trkpt><trkpt lat="37.93085857377128" lon="15.146789193983572"><ele>427.0</ele><time>2026-04-26T08:53:10.999Z</time></trkpt><trkpt lat="37.93095098991758" lon="15.146780958153476"><ele>427.00000000000006</ele><time>2026-04-26T08:53:11.999Z</time></trkpt><trkpt lat="37.93104031017855" lon="15.146782478995476"><ele>427.0</ele><time>2026-04-26T08:53:12.999Z</time></trkpt><trkpt lat="37.93114653381805" lon="15.146764541497557"><ele>429.0</ele><time>2026-04-26T08:53:13.999Z</time></trkpt><trkpt lat="37.931241810287446" lon="15.146731653201917"><ele>431.00000000000006</ele><time>2026-04-26T08:53:14.999Z</time></trkpt><trkpt lat="37.931338868654024" lon="15.146709410401936"><ele>433.00000000000006</ele><time>2026-04-26T08:53:15.999Z</time></trkpt><trkpt lat="37.93142884148964" lon="15.146677681214282"><ele>435.0</ele><time>2026-04-26T08:53:16.999Z</time></trkpt><trkpt lat="37.93153330054769" lon="15.146636322597626"><ele>437.0</ele><time>2026-04-26T08:53:17.999Z</time></trkpt><trkpt lat="37.93163257280164" lon="15.14660078351228"><ele>437.6</ele><time>2026-04-26T08:53:18.999Z</time></trkpt><trkpt lat="37.93172883321154" lon="15.1465586013163"><ele>438.20000000000005</ele><time>2026-04-26T08:53:19.999Z</time></trkpt><trkpt lat="37.931837922865355" lon="15.146517988440255"><ele>438.8</ele><time>2026-04-26T08:53:20.999Z</time></trkpt><trkpt lat="37.93193681209651" lon="15.146482804079872"><ele>439.4</ele><time>2026-04-26T08:53:21.999Z</time></trkpt><trkpt lat="37.93203269984043" lon="15.146440349503473"><ele>440.0</ele><time>2026-04-26T08:53:22.999Z</time></trkpt><trkpt lat="37.9321330975612" lon="15.146391014681047"><ele>440.6</ele><time>2026-04-26T08:53:23.999Z</time></trkpt><trkpt lat="37.93222849807744" lon="15.14634257128609"><ele>441.2</ele><time>2026-04-26T08:53:24.999Z</time></trkpt><trkpt lat="37.932337431784745" lon="15.146293790004941"><ele>441.79999999999995</ele><time>2026-04-26T08:53:25.999Z</time></trkpt><trkpt lat="37.93243474027875" lon="15.146253664966794"><ele>442.4</ele><time>2026-04-26T08:53:26.999Z</time></trkpt><trkpt lat="37.93253441093645" lon="15.146229729079904"><ele>443.0</ele><time>2026-04-26T08:53:27.999Z</time></trkpt><trkpt lat="37.93264532955909" lon="15.146215602904716"><ele>444.4</ele><time>2026-04-26T08:53:28.999Z</time></trkpt><trkpt lat="37.93276068472585" lon="15.146197808536588"><ele>445.79999999999995</ele><time>2026-04-26T08:53:29.999Z</time></trkpt><trkpt lat="37.932878837556686" lon="15.146177834622264"><ele>447.2</ele><time>2026-04-26T08:53:30.999Z</time></trkpt><trkpt lat="37.932974596609206" lon="15.146145126571936"><ele>448.6</ele><time>2026-04-26T08:53:32Z</time></trkpt><trkpt lat="37.933084528992" lon="15.146105177831672"><ele>450.0</ele><time>2026-04-26T08:53:33Z</time></trkpt><trkpt lat="37.933180325410426" lon="15.146061514200625"><ele>450.0</ele><time>2026-04-26T08:53:34Z</time></trkpt><trkpt lat="37.933270321020586" lon="15.14602704026461"><ele>450.0</ele><time>2026-04-26T08:53:35Z</time></trkpt><trkpt lat="37.933360259889234" lon="15.146011659232318"><ele>450.0</ele><time>2026-04-26T08:53:36Z</time></trkpt><trkpt lat="37.93346096470121" lon="15.145985695822763"><ele>450.0</ele><time>2026-04-26T08:53:37Z</time></trkpt><trkpt lat="37.933556699594455" lon="15.14595110930973"><ele>450.0</ele><time>2026-04-26T08:53:38Z</time></trkpt><trkpt lat="37.93365358237883" lon="15.145915184909859"><ele>450.8333333333333</ele><time>2026-04-26T08:53:39Z</time></trkpt><trkpt lat="37.933732930543755" lon="15.145887896291434"><ele>451.66666666666663</ele><time>2026-04-26T08:53:40Z</time></trkpt><trkpt lat="37.933809087130044" lon="15.145847722222653"><ele>452.5</ele><time>2026-04-26T08:53:41Z</time></trkpt><trkpt lat="37.93387522784314" lon="15.145812085265096"><ele>453.3333333333333</ele><time>2026-04-26T08:53:42Z</time></trkpt><trkpt lat="37.93394631731683" lon="15.145782801241621"><ele>454.16666666666663</ele><time>2026-04-26T08:53:43Z</time></trkpt><trkpt lat="37.9340217774049" lon="15.145762213376983"><ele>455.0</ele><time>2026-04-26T08:53:44Z</time></trkpt><trkpt lat="37.93409949708628" lon="15.145735067984914"><ele>455.0</ele><time>2026-04-26T08:53:45Z</time></trkpt><trkpt lat="37.934197583052295" lon="15.145694771098869"><ele>455.0</ele><time>2026-04-26T08:53:46Z</time></trkpt><trkpt lat="37.93430411721858" lon="15.145653875150872"><ele>455.0</ele><time>2026-04-26T08:53:47Z</time></trkpt><trkpt lat="37.93437648462904" lon="15.145622908572982"><ele>455.0</ele><time>2026-04-26T08:53:48Z</time></trkpt><trkpt lat="37.934472712584196" lon="15.145589693938227"><ele>455.0</ele><time>2026-04-26T08:53:49Z</time></trkpt><trkpt lat="37.934565276868064" lon="15.145549343937004"><ele>455.99999999999994</ele><time>2026-04-26T08:53:50Z</time></trkpt><trkpt lat="37.934662871890275" lon="15.14551485298954"><ele>457.0</ele><time>2026-04-26T08:53:51Z</time></trkpt><trkpt lat="37.93475460258889" lon="15.145490899070237"><ele>458.0</ele><time>2026-04-26T08:53:52Z</time></trkpt><trkpt lat="37.934836538317" lon="15.145472052525456"><ele>459.0</ele><time>2026-04-26T08:53:53Z</time></trkpt><trkpt lat="37.934914302889894" lon="15.145462429497032"><ele>459.99999999999994</ele><time>2026-04-26T08:53:54Z</time></trkpt><trkpt lat="37.934989356105845" lon="15.145460787107817"><ele>461.0</ele><time>2026-04-26T08:53:55Z</time></trkpt><trkpt lat="37.93505919965201" lon="15.145464763413877"><ele>462.3333333333333</ele><time>2026-04-26T08:53:56Z</time></trkpt><trkpt lat="37.935127553451004" lon="15.145462813290113"><ele>463.66666666666663</ele><time>2026-04-26T08:53:57Z</time></trkpt><trkpt lat="37.93519841785147" lon="15.145454209024683"><ele>465.0</ele><time>2026-04-26T08:53:58Z</time></trkpt><trkpt lat="37.93526333166585" lon="15.145431134280857"><ele>466.33333333333337</ele><time>2026-04-26T08:53:59Z</time></trkpt><trkpt lat="37.935337449618245" lon="15.145410043991822"><ele>467.6666666666667</ele><time>2026-04-26T08:54:00Z</time></trkpt><trkpt lat="37.935410937738524" lon="15.145392552013709"><ele>469.0</ele><time>2026-04-26T08:54:01Z</time></trkpt><trkpt lat="37.93552119100609" lon="15.14534005604786"><ele>469.00000000000006</ele><time>2026-04-26T08:54:03Z</time></trkpt><trkpt lat="37.93558345581647" lon="15.145328069945988"><ele>469.0</ele><time>2026-04-26T08:54:04Z</time></trkpt><trkpt lat="37.93565085924674" lon="15.145312179746407"><ele>469.0</ele><time>2026-04-26T08:54:05Z</time></trkpt><trkpt lat="37.93571210364565" lon="15.145289841767182"><ele>469.0</ele><time>2026-04-26T08:54:06Z</time></trkpt><trkpt lat="37.935784675490815" lon="15.1452678364163"><ele>469.00000000000006</ele><time>2026-04-26T08:54:07Z</time></trkpt><trkpt lat="37.93585570536842" lon="15.145234885685783"><ele>469.0</ele><time>2026-04-26T08:54:08Z</time></trkpt><trkpt lat="37.935984578436575" lon="15.145153627533167"><ele>469.83333333333337</ele><time>2026-04-26T08:54:10Z</time></trkpt><trkpt lat="37.93605771311571" lon="15.145109412312152"><ele>470.6666666666667</ele><time>2026-04-26T08:54:11Z</time></trkpt><trkpt lat="37.93612417230826" lon="15.14506301393374"><ele>471.5</ele><time>2026-04-26T08:54:12Z</time></trkpt><trkpt lat="37.93618907562316" lon="15.145009354864632"><ele>472.33333333333337</ele><time>2026-04-26T08:54:13Z</time></trkpt><trkpt lat="37.93627030511549" lon="15.144960939507065"><ele>473.1666666666667</ele><time>2026-04-26T08:54:14Z</time></trkpt><trkpt lat="37.93635105223339" lon="15.144911987850627"><ele>474.0</ele><time>2026-04-26T08:54:15Z</time></trkpt><trkpt lat="37.93642434702693" lon="15.144849992554908"><ele>475.6</ele><time>2026-04-26T08:54:16Z</time></trkpt><trkpt lat="37.93650128857618" lon="15.144785300351367"><ele>477.2</ele><time>2026-04-26T08:54:17Z</time></trkpt><trkpt lat="37.936582288184724" lon="15.144720341050604"><ele>478.80000000000007</ele><time>2026-04-26T08:54:18Z</time></trkpt><trkpt lat="37.936664747552655" lon="15.144649534240866"><ele>480.40000000000003</ele><time>2026-04-26T08:54:19Z</time></trkpt><trkpt lat="37.936748602022185" lon="15.144578281347645"><ele>482.0</ele><time>2026-04-26T08:54:20Z</time></trkpt><trkpt lat="37.936829368960595" lon="15.144512784483494"><ele>482.0</ele><time>2026-04-26T08:54:21Z</time></trkpt><trkpt lat="37.93691701904969" lon="15.144453311986927"><ele>482.00000000000006</ele><time>2026-04-26T08:54:22Z</time></trkpt><trkpt lat="37.937006892566956" lon="15.14439742322299"><ele>482.00000000000006</ele><time>2026-04-26T08:54:22.999Z</time></trkpt><trkpt lat="37.93710238094884" lon="15.144346256001233"><ele>482.0</ele><time>2026-04-26T08:54:23.999Z</time></trkpt><trkpt lat="37.93719847882758" lon="15.14430221259802"><ele>482.0</ele><time>2026-04-26T08:54:24.999Z</time></trkpt><trkpt lat="37.93729743332081" lon="15.144268091046488"><ele>482.0</ele><time>2026-04-26T08:54:25.999Z</time></trkpt><trkpt lat="37.93739194489519" lon="15.144237257577332"><ele>482.00000000000006</ele><time>2026-04-26T08:54:26.999Z</time></trkpt><trkpt lat="37.93749684461961" lon="15.144209406410397"><ele>482.00000000000006</ele><time>2026-04-26T08:54:27.999Z</time></trkpt><trkpt lat="37.93760573961282" lon="15.144182568231544"><ele>482.0</ele><time>2026-04-26T08:54:28.999Z</time></trkpt><trkpt lat="37.93769741788676" lon="15.144151265744174"><ele>482.0</ele><time>2026-04-26T08:54:29.999Z</time></trkpt><trkpt lat="37.93778054576128" lon="15.14411052426065"><ele>483.3333333333333</ele><time>2026-04-26T08:54:30.999Z</time></trkpt><trkpt lat="37.9378750913883" lon="15.144073214057533"><ele>484.66666666666663</ele><time>2026-04-26T08:54:31.999Z</time></trkpt><trkpt lat="37.937957758270606" lon="15.144043437053838"><ele>486.0</ele><time>2026-04-26T08:54:32.999Z</time></trkpt><trkpt lat="37.93805260688423" lon="15.144017576285115"><ele>487.33333333333337</ele><time>2026-04-26T08:54:33.999Z</time></trkpt><trkpt lat="37.93813848797756" lon="15.143996322515171"><ele>488.6666666666667</ele><time>2026-04-26T08:54:34.999Z</time></trkpt><trkpt lat="37.93821535646001" lon="15.143970379409899"><ele>490.0</ele><time>2026-04-26T08:54:35.999Z</time></trkpt><trkpt lat="37.93828885887992" lon="15.143947141890616"><ele>490.00000000000006</ele><time>2026-04-26T08:54:36.999Z</time></trkpt><trkpt lat="37.93834879288076" lon="15.14391994715762"><ele>490.0</ele><time>2026-04-26T08:54:37.999Z</time></trkpt><trkpt lat="37.938406452641324" lon="15.143875747920626"><ele>490.0</ele><time>2026-04-26T08:54:38.999Z</time></trkpt><trkpt lat="37.93849924452158" lon="15.14376623062366"><ele>490.0</ele><time>2026-04-26T08:54:40.999Z</time></trkpt><trkpt lat="37.938556299014564" lon="15.143699655785229"><ele>490.00000000000006</ele><time>2026-04-26T08:54:41.999Z</time></trkpt><trkpt lat="37.93861259658658" lon="15.14364439602391"><ele>490.0</ele><time>2026-04-26T08:54:42.999Z</time></trkpt><trkpt lat="37.93868648426102" lon="15.143588304546238"><ele>491.00000000000006</ele><time>2026-04-26T08:54:43.999Z</time></trkpt><trkpt lat="37.938746671709865" lon="15.143543467070748"><ele>492.0</ele><time>2026-04-26T08:54:44.999Z</time></trkpt><trkpt lat="37.93882596995171" lon="15.143481152166157"><ele>493.0</ele><time>2026-04-26T08:54:45.999Z</time></trkpt><trkpt lat="37.938886904104145" lon="15.143448416908239"><ele>494.0</ele><time>2026-04-26T08:54:46.999Z</time></trkpt><trkpt lat="37.9389632127618" lon="15.1434158956691"><ele>495.00000000000006</ele><time>2026-04-26T08:54:47.999Z</time></trkpt><trkpt lat="37.939030984646905" lon="15.143379179162663"><ele>496.0</ele><time>2026-04-26T08:54:48.999Z</time></trkpt><trkpt lat="37.93910170233268" lon="15.143335179970181"><ele>496.00000000000006</ele><time>2026-04-26T08:54:49.999Z</time></trkpt><trkpt lat="37.939182987271714" lon="15.143300490674457"><ele>496.0</ele><time>2026-04-26T08:54:50.999Z</time></trkpt><trkpt lat="37.939260443530195" lon="15.143271850315612"><ele>496.0</ele><time>2026-04-26T08:54:51.999Z</time></trkpt><trkpt lat="37.93932863095638" lon="15.143238722808007"><ele>496.0</ele><time>2026-04-26T08:54:52.999Z</time></trkpt><trkpt lat="37.93939695957105" lon="15.143188670235219"><ele>496.00000000000006</ele><time>2026-04-26T08:54:53.999Z</time></trkpt><trkpt lat="37.939456149134315" lon="15.143126425636378"><ele>496.0</ele><time>2026-04-26T08:54:54.999Z</time></trkpt><trkpt lat="37.93949898662553" lon="15.143058269663207"><ele>497.8</ele><time>2026-04-26T08:54:55.999Z</time></trkpt><trkpt lat="37.93954452553077" lon="15.142976519345133"><ele>499.6</ele><time>2026-04-26T08:54:56.999Z</time></trkpt><trkpt lat="37.939586717503836" lon="15.142898532851333"><ele>501.4</ele><time>2026-04-26T08:54:57.999Z</time></trkpt><trkpt lat="37.93966273868596" lon="15.142787600469395"><ele>503.2</ele><time>2026-04-26T08:54:59.999Z</time></trkpt><trkpt lat="37.93975350443417" lon="15.142736135695195"><ele>505.0</ele><time>2026-04-26T08:55:01.999Z</time></trkpt><trkpt lat="37.9398262036935" lon="15.142671437946895"><ele>505.0</ele><time>2026-04-26T08:55:03.999Z</time></trkpt><trkpt lat="37.939868575245306" lon="15.142608244592994"><ele>505.0</ele><time>2026-04-26T08:55:04.999Z</time></trkpt><trkpt lat="37.93994967934993" lon="15.142540483984897"><ele>505.0</ele><time>2026-04-26T08:55:06.999Z</time></trkpt><trkpt lat="37.94003104238023" lon="15.142473647609533"><ele>505.0</ele><time>2026-04-26T08:55:08.999Z</time></trkpt><trkpt lat="37.94012964411682" lon="15.142403757435718"><ele>505.0</ele><time>2026-04-26T08:55:10.999Z</time></trkpt><trkpt lat="37.94022727566655" lon="15.142337974607775"><ele>509.75</ele><time>2026-04-26T08:55:12.999Z</time></trkpt><trkpt lat="37.940322597489036" lon="15.142266850064694"><ele>514.5</ele><time>2026-04-26T08:55:14.999Z</time></trkpt><trkpt lat="37.94044084651922" lon="15.142213709430136"><ele>519.25</ele><time>2026-04-26T08:55:16.999Z</time></trkpt><trkpt lat="37.94056762896113" lon="15.142193977350791"><ele>524.0</ele><time>2026-04-26T08:55:18.999Z</time></trkpt><trkpt lat="37.940681105753264" lon="15.142194143503703"><ele>524.0</ele><time>2026-04-26T08:55:20.999Z</time></trkpt><trkpt lat="37.94080840215011" lon="15.142203296884352"><ele>524.0</ele><time>2026-04-26T08:55:22.999Z</time></trkpt><trkpt lat="37.94091362219578" lon="15.142208443203504"><ele>524.0</ele><time>2026-04-26T08:55:24.999Z</time></trkpt><trkpt lat="37.94100373426004" lon="15.142188279302"><ele>524.0</ele><time>2026-04-26T08:55:26.999Z</time></trkpt><trkpt lat="37.94110880263204" lon="15.142189723496639"><ele>524.0</ele><time>2026-04-26T08:55:28.999Z</time></trkpt><trkpt lat="37.94123235599005" lon="15.142157306778262"><ele>524.3333333333333</ele><time>2026-04-26T08:55:30.999Z</time></trkpt><trkpt lat="37.9413388095438" lon="15.142111483323573"><ele>524.6666666666666</ele><time>2026-04-26T08:55:32.999Z</time></trkpt><trkpt lat="37.94141560917823" lon="15.142072435600928"><ele>525.0</ele><time>2026-04-26T08:55:34.999Z</time></trkpt><trkpt lat="37.94148824407965" lon="15.142045725986609"><ele>525.3333333333334</ele><time>2026-04-26T08:55:36.999Z</time></trkpt><trkpt lat="37.941565413197594" lon="15.142048957806301"><ele>525.6666666666667</ele><time>2026-04-26T08:55:39Z</time></trkpt><trkpt lat="37.941643410014265" lon="15.142030554141167"><ele>526.0</ele><time>2026-04-26T08:55:43Z</time></trkpt><trkpt lat="37.94172313769051" lon="15.142017928252887"><ele>526.0</ele><time>2026-04-26T08:55:48Z</time></trkpt><trkpt lat="37.94180631801252" lon="15.142029993360005"><ele>526.0</ele><time>2026-04-26T08:55:51Z</time></trkpt><trkpt lat="37.94186384061227" lon="15.142064476847478"><ele>526.0</ele><time>2026-04-26T08:55:53Z</time></trkpt><trkpt lat="37.94196971244958" lon="15.142074110556278"><ele>526.0</ele><time>2026-04-26T08:55:56Z</time></trkpt><trkpt lat="37.94205522938501" lon="15.14206715579676"><ele>526.0</ele><time>2026-04-26T08:55:57Z</time></trkpt><trkpt lat="37.9421303405262" lon="15.14205110717085"><ele>526.0</ele><time>2026-04-26T08:55:58Z</time></trkpt><trkpt lat="37.94221784116028" lon="15.14201891019249"><ele>526.0</ele><time>2026-04-26T08:55:59Z</time></trkpt><trkpt lat="37.94229611026244" lon="15.141988443207142"><ele>526.0</ele><time>2026-04-26T08:56:00Z</time></trkpt><trkpt lat="37.942369476368995" lon="15.14196477833465"><ele>526.0</ele><time>2026-04-26T08:56:01Z</time></trkpt><trkpt lat="37.94245307371082" lon="15.1419234681946"><ele>526.0</ele><time>2026-04-26T08:56:02Z</time></trkpt><trkpt lat="37.94253198323753" lon="15.141893187718775"><ele>526.0</ele><time>2026-04-26T08:56:03Z</time></trkpt><trkpt lat="37.9426044253001" lon="15.14188435646022"><ele>526.0</ele><time>2026-04-26T08:56:04Z</time></trkpt><trkpt lat="37.94267331339283" lon="15.141868726677137"><ele>526.7142857142857</ele><time>2026-04-26T08:56:05Z</time></trkpt><trkpt lat="37.94273672182531" lon="15.141853580204405"><ele>527.4285714285713</ele><time>2026-04-26T08:56:06Z</time></trkpt><trkpt lat="37.94280150213452" lon="15.141846781996811"><ele>528.1428571428571</ele><time>2026-04-26T08:56:07Z</time></trkpt><trkpt lat="37.94287138654772" lon="15.141850254638177"><ele>528.8571428571429</ele><time>2026-04-26T08:56:08Z</time></trkpt><trkpt lat="37.94294533957492" lon="15.141850476001693"><ele>529.5714285714287</ele><time>2026-04-26T08:56:09Z</time></trkpt><trkpt lat="37.94301707051698" lon="15.141853262081082"><ele>530.2857142857143</ele><time>2026-04-26T08:56:10Z</time></trkpt><trkpt lat="37.94311243222861" lon="15.14183669987307"><ele>531.0</ele><time>2026-04-26T08:56:12Z</time></trkpt><trkpt lat="37.94317804288429" lon="15.141751247504756"><ele>531.0</ele><time>2026-04-26T08:56:15Z</time></trkpt><trkpt lat="37.94321736317301" lon="15.141654047230036"><ele>531.0</ele><time>2026-04-26T08:56:17Z</time></trkpt><trkpt lat="37.943319300023596" lon="15.141559854632689"><ele>531.0</ele><time>2026-04-26T08:56:19Z</time></trkpt><trkpt lat="37.94338242635171" lon="15.141519902300123"><ele>531.0</ele><time>2026-04-26T08:56:20Z</time></trkpt><trkpt lat="37.94344391902199" lon="15.141481210936817"><ele>531.0</ele><time>2026-04-26T08:56:21Z</time></trkpt><trkpt lat="37.943521894813465" lon="15.141430533251413"><ele>531.0</ele><time>2026-04-26T08:56:22Z</time></trkpt><trkpt lat="37.94359171304465" lon="15.141385901385929"><ele>533.5</ele><time>2026-04-26T08:56:23Z</time></trkpt><trkpt lat="37.94365948184697" lon="15.141342673010906"><ele>536.0</ele><time>2026-04-26T08:56:24Z</time></trkpt><trkpt lat="37.94372434853059" lon="15.141296617875144"><ele>538.5</ele><time>2026-04-26T08:56:25Z</time></trkpt><trkpt lat="37.943791177026874" lon="15.14126024503818"><ele>541.0</ele><time>2026-04-26T08:56:26Z</time></trkpt><trkpt lat="37.94385529347413" lon="15.141223184793853"><ele>543.5</ele><time>2026-04-26T08:56:27Z</time></trkpt><trkpt lat="37.94395784072295" lon="15.14116427175776"><ele>546.0</ele><time>2026-04-26T08:56:29Z</time></trkpt><trkpt lat="37.94402594696125" lon="15.141131337711789"><ele>546.0</ele><time>2026-04-26T08:56:31Z</time></trkpt><trkpt lat="37.94408800263024" lon="15.141102110939903"><ele>546.0</ele><time>2026-04-26T08:56:33Z</time></trkpt><trkpt lat="37.944139086124906" lon="15.141051424992385"><ele>546.0</ele><time>2026-04-26T08:56:35Z</time></trkpt><trkpt lat="37.94420480534565" lon="15.14099128112086"><ele>546.0</ele><time>2026-04-26T08:56:37Z</time></trkpt><trkpt lat="37.944282153852214" lon="15.140930661776903"><ele>546.0</ele><time>2026-04-26T08:56:39Z</time></trkpt><trkpt lat="37.944337412282614" lon="15.14086761240262"><ele>546.0</ele><time>2026-04-26T08:56:41.999Z</time></trkpt><trkpt lat="37.94439118538657" lon="15.140781908896697"><ele>547.6666666666666</ele><time>2026-04-26T08:56:45.999Z</time></trkpt><trkpt lat="37.944453914148276" lon="15.140706710380446"><ele>549.3333333333334</ele><time>2026-04-26T08:56:48.999Z</time></trkpt><trkpt lat="37.94451444587706" lon="15.140641079301627"><ele>551.0</ele><time>2026-04-26T08:56:51.999Z</time></trkpt><trkpt lat="37.94459541752965" lon="15.140651065576447"><ele>552.6666666666667</ele><time>2026-04-26T08:56:55.999Z</time></trkpt><trkpt lat="37.94467963202983" lon="15.140642220216012"><ele>554.3333333333334</ele><time>2026-04-26T08:56:58.999Z</time></trkpt><trkpt lat="37.94475398192513" lon="15.140592876951219"><ele>556.0</ele><time>2026-04-26T08:57:00.999Z</time></trkpt><trkpt lat="37.94485438384402" lon="15.140545694619552"><ele>556.0</ele><time>2026-04-26T08:57:02.999Z</time></trkpt><trkpt lat="37.94493516273808" lon="15.140490907409738"><ele>556.0</ele><time>2026-04-26T08:57:04.999Z</time></trkpt><trkpt lat="37.94499352180284" lon="15.140436084126415"><ele>556.0</ele><time>2026-04-26T08:57:06.999Z</time></trkpt><trkpt lat="37.945074549091814" lon="15.140405188616247"><ele>556.0</ele><time>2026-04-26T08:57:09.999Z</time></trkpt><trkpt lat="37.945133938253626" lon="15.140366954407309"><ele>556.0</ele><time>2026-04-26T08:57:12.999Z</time></trkpt><trkpt lat="37.945196588595586" lon="15.140302251198035"><ele>556.0</ele><time>2026-04-26T08:57:15.999Z</time></trkpt><trkpt lat="37.94524667609159" lon="15.140240007540973"><ele>556.3333333333334</ele><time>2026-04-26T08:57:19.999Z</time></trkpt><trkpt lat="37.945284442518556" lon="15.140174388478131"><ele>556.6666666666667</ele><time>2026-04-26T08:57:23.999Z</time></trkpt><trkpt lat="37.945343513336475" lon="15.140123921353668"><ele>557.0</ele><time>2026-04-26T08:57:26.999Z</time></trkpt><trkpt lat="37.94541311746163" lon="15.140091173689372"><ele>557.3333333333334</ele><time>2026-04-26T08:57:58Z</time></trkpt><trkpt lat="37.945449131674025" lon="15.139997220719884"><ele>557.6666666666666</ele><time>2026-04-26T08:58:01Z</time></trkpt><trkpt lat="37.94549086926578" lon="15.139920716347287"><ele>558.0</ele><time>2026-04-26T08:58:03Z</time></trkpt><trkpt lat="37.945557794043346" lon="15.139849265724534"><ele>558.8333333333334</ele><time>2026-04-26T08:58:05Z</time></trkpt><trkpt lat="37.94563463076077" lon="15.139777362658172"><ele>559.6666666666666</ele><time>2026-04-26T08:58:07Z</time></trkpt><trkpt lat="37.94569768315041" lon="15.13968491438231"><ele>560.5</ele><time>2026-04-26T08:58:09Z</time></trkpt><trkpt lat="37.945754302094066" lon="15.139594214656857"><ele>561.3333333333333</ele><time>2026-04-26T08:58:11Z</time></trkpt><trkpt lat="37.94581692845289" lon="15.13954426549055"><ele>562.1666666666666</ele><time>2026-04-26T08:58:13Z</time></trkpt><trkpt lat="37.94586049363177" lon="15.139461469631708"><ele>563.0</ele><time>2026-04-26T08:58:15Z</time></trkpt><trkpt lat="37.94590345589069" lon="15.139364572465194"><ele>563.8</ele><time>2026-04-26T08:58:17Z</time></trkpt><trkpt lat="37.94599215266369" lon="15.13926428214858"><ele>564.5999999999999</ele><time>2026-04-26T08:58:19Z</time></trkpt><trkpt lat="37.94606706887521" lon="15.13917862120665"><ele>565.4000000000001</ele><time>2026-04-26T08:58:21Z</time></trkpt><trkpt lat="37.946106108760866" lon="15.13909373254912"><ele>566.2</ele><time>2026-04-26T08:58:23Z</time></trkpt><trkpt lat="37.94615456051392" lon="15.138984518770917"><ele>567.0</ele><time>2026-04-26T08:58:25Z</time></trkpt><trkpt lat="37.94622497663221" lon="15.138977920418252"><ele>567.8333333333334</ele><time>2026-04-26T08:58:27Z</time></trkpt><trkpt lat="37.94630128298879" lon="15.138952139036034"><ele>568.6666666666666</ele><time>2026-04-26T08:58:29Z</time></trkpt><trkpt lat="37.946357466794794" lon="15.138896499395978"><ele>569.5</ele><time>2026-04-26T08:58:35Z</time></trkpt><trkpt lat="37.94641925124797" lon="15.138876572836942"><ele>570.3333333333333</ele><time>2026-04-26T08:58:37Z</time></trkpt><trkpt lat="37.94649046184345" lon="15.13884780482481"><ele>571.1666666666666</ele><time>2026-04-26T08:58:40Z</time></trkpt><trkpt lat="37.946598240308624" lon="15.13881041297352"><ele>572.0</ele><time>2026-04-26T08:58:42Z</time></trkpt><trkpt lat="37.94671193760215" lon="15.13880287898803"><ele>572.6</ele><time>2026-04-26T08:58:44Z</time></trkpt><trkpt lat="37.9468223872668" lon="15.13877333559843"><ele>573.2</ele><time>2026-04-26T08:58:46Z</time></trkpt><trkpt lat="37.94693631683681" lon="15.13876467588565"><ele>573.8</ele><time>2026-04-26T08:58:48Z</time></trkpt><trkpt lat="37.947032360238516" lon="15.13877053941041"><ele>574.4</ele><time>2026-04-26T08:58:50Z</time></trkpt><trkpt lat="37.94713709489236" lon="15.138780117196415"><ele>575.0</ele><time>2026-04-26T08:58:52Z</time></trkpt><trkpt lat="37.947201767944115" lon="15.138787713164177"><ele>575.0</ele><time>2026-04-26T08:58:53Z</time></trkpt><trkpt lat="37.94726521030233" lon="15.138790594087727"><ele>575.0</ele><time>2026-04-26T08:58:54Z</time></trkpt><trkpt lat="37.94732923680863" lon="15.138796305248357"><ele>575.0</ele><time>2026-04-26T08:58:55Z</time></trkpt><trkpt lat="37.9473938605863" lon="15.13880009598096"><ele>575.0</ele><time>2026-04-26T08:58:56Z</time></trkpt><trkpt lat="37.94745850823772" lon="15.138797423232786"><ele>575.0</ele><time>2026-04-26T08:58:57Z</time></trkpt><trkpt lat="37.94752419413295" lon="15.138788035897296"><ele>575.0</ele><time>2026-04-26T08:58:58Z</time></trkpt><trkpt lat="37.947592089869985" lon="15.138772827288568"><ele>575.0</ele><time>2026-04-26T08:58:59Z</time></trkpt><trkpt lat="37.94765981329984" lon="15.138765138792786"><ele>576.5714285714286</ele><time>2026-04-26T08:59:00Z</time></trkpt><trkpt lat="37.94772342264387" lon="15.138764139295157"><ele>578.1428571428571</ele><time>2026-04-26T08:59:01Z</time></trkpt><trkpt lat="37.947786706873494" lon="15.138774796926123"><ele>579.7142857142857</ele><time>2026-04-26T08:59:02Z</time></trkpt><trkpt lat="37.94788483159053" lon="15.13878240324629"><ele>581.2857142857142</ele><time>2026-04-26T08:59:04Z</time></trkpt><trkpt lat="37.94795187337194" lon="15.138760020949253"><ele>582.8571428571429</ele><time>2026-04-26T08:59:06Z</time></trkpt><trkpt lat="37.948024579836684" lon="15.138749504486059"><ele>584.4285714285713</ele><time>2026-04-26T08:59:08Z</time></trkpt><trkpt lat="37.948101904722286" lon="15.138721036181513"><ele>586.0</ele><time>2026-04-26T08:59:10Z</time></trkpt><trkpt lat="37.94818395687012" lon="15.138675780260249"><ele>586.0</ele><time>2026-04-26T08:59:11.999Z</time></trkpt><trkpt lat="37.94826285568032" lon="15.13863418002636"><ele>586.0</ele><time>2026-04-26T08:59:13.999Z</time></trkpt><trkpt lat="37.948336928689066" lon="15.138611855313957"><ele>586.0</ele><time>2026-04-26T08:59:15.999Z</time></trkpt><trkpt lat="37.94841398299762" lon="15.138563992225123"><ele>586.0</ele><time>2026-04-26T08:59:18.999Z</time></trkpt><trkpt lat="37.94848096009484" lon="15.138523160036904"><ele>586.0</ele><time>2026-04-26T08:59:20.999Z</time></trkpt><trkpt lat="37.94854979328717" lon="15.138474889947558"><ele>586.0</ele><time>2026-04-26T08:59:22.999Z</time></trkpt><trkpt lat="37.9485946313392" lon="15.138418530985433"><ele>587.2857142857142</ele><time>2026-04-26T08:59:24.999Z</time></trkpt><trkpt lat="37.94865200716785" lon="15.138385496629988"><ele>588.5714285714286</ele><time>2026-04-26T08:59:48.999Z</time></trkpt><trkpt lat="37.94871687458284" lon="15.13835124742225"><ele>589.8571428571429</ele><time>2026-04-26T08:59:54Z</time></trkpt><trkpt lat="37.94876691312865" lon="15.138410121700955"><ele>591.1428571428571</ele><time>2026-04-26T08:59:59Z</time></trkpt><trkpt lat="37.94882620009385" lon="15.138452054519021"><ele>592.4285714285714</ele><time>2026-04-26T09:00:07Z</time></trkpt><trkpt lat="37.9488887610894" lon="15.138387067381274"><ele>593.7142857142857</ele><time>2026-04-26T09:00:19Z</time></trkpt><trkpt lat="37.94895149260992" lon="15.138340779703439"><ele>595.0</ele><time>2026-04-26T09:00:23Z</time></trkpt><trkpt lat="37.949016268231155" lon="15.138364477660044"><ele>595.0</ele><time>2026-04-26T09:00:30Z</time></trkpt><trkpt lat="37.94907227612465" lon="15.138405085144123"><ele>595.0</ele><time>2026-04-26T09:00:32Z</time></trkpt><trkpt lat="37.94915309250604" lon="15.13843807543778"><ele>595.0</ele><time>2026-04-26T09:00:34Z</time></trkpt><trkpt lat="37.94924556062403" lon="15.138446802059933"><ele>595.0</ele><time>2026-04-26T09:00:36Z</time></trkpt><trkpt lat="37.949314768129675" lon="15.138385067953775"><ele>595.0</ele><time>2026-04-26T09:00:39Z</time></trkpt><trkpt lat="37.94935908621059" lon="15.138317438519444"><ele>595.0</ele><time>2026-04-26T09:00:41Z</time></trkpt><trkpt lat="37.949423358580994" lon="15.138258684487647"><ele>595.3333333333334</ele><time>2026-04-26T09:00:43Z</time></trkpt><trkpt lat="37.94947291938745" lon="15.138195290955602"><ele>595.6666666666667</ele><time>2026-04-26T09:00:45Z</time></trkpt><trkpt lat="37.949549366304375" lon="15.138164523010245"><ele>596.0</ele><time>2026-04-26T09:00:48Z</time></trkpt><trkpt lat="37.949617231891935" lon="15.138144951138337"><ele>596.3333333333334</ele><time>2026-04-26T09:00:57Z</time></trkpt><trkpt lat="37.949703721598205" lon="15.13812411672296"><ele>596.6666666666666</ele><time>2026-04-26T09:01:01Z</time></trkpt><trkpt lat="37.949787928346254" lon="15.138162250240175"><ele>597.0</ele><time>2026-04-26T09:01:04Z</time></trkpt><trkpt lat="37.949881829601054" lon="15.138192459505008"><ele>597.0</ele><time>2026-04-26T09:01:06Z</time></trkpt><trkpt lat="37.94995541496496" lon="15.1381994701917"><ele>597.0</ele><time>2026-04-26T09:01:08Z</time></trkpt><trkpt lat="37.950021642175166" lon="15.138178785887648"><ele>597.0</ele><time>2026-04-26T09:01:10Z</time></trkpt><trkpt lat="37.950099463464504" lon="15.138184386661674"><ele>597.0</ele><time>2026-04-26T09:01:17Z</time></trkpt><trkpt lat="37.95020082271558" lon="15.138188646932543"><ele>597.0</ele><time>2026-04-26T09:01:19Z</time></trkpt><trkpt lat="37.95030229438417" lon="15.138216780359333"><ele>597.0</ele><time>2026-04-26T09:01:21Z</time></trkpt><trkpt lat="37.95038648117283" lon="15.1382697626716"><ele>599.6</ele><time>2026-04-26T09:01:23Z</time></trkpt><trkpt lat="37.950481262453074" lon="15.138281022901186"><ele>602.2</ele><time>2026-04-26T09:01:25Z</time></trkpt><trkpt lat="37.95058600704105" lon="15.138288506578279"><ele>604.8</ele><time>2026-04-26T09:01:27Z</time></trkpt><trkpt lat="37.95069601941902" lon="15.138294636299976"><ele>607.4</ele><time>2026-04-26T09:01:28.999Z</time></trkpt><trkpt lat="37.95079842898174" lon="15.138297341317116"><ele>610.0</ele><time>2026-04-26T09:01:30.999Z</time></trkpt><trkpt lat="37.950903465536236" lon="15.138320540480551"><ele>611.3333333333334</ele><time>2026-04-26T09:01:32.999Z</time></trkpt><trkpt lat="37.95100088931612" lon="15.138332437746062"><ele>612.6666666666667</ele><time>2026-04-26T09:01:34.999Z</time></trkpt><trkpt lat="37.951073474148984" lon="15.138363058899868"><ele>614.0</ele><time>2026-04-26T09:01:36.999Z</time></trkpt><trkpt lat="37.9511401758624" lon="15.138352036678972"><ele>615.3333333333334</ele><time>2026-04-26T09:01:38.999Z</time></trkpt><trkpt lat="37.95120431539755" lon="15.138364729119713"><ele>616.6666666666666</ele><time>2026-04-26T09:01:43.999Z</time></trkpt><trkpt lat="37.951280478208005" lon="15.138365533458494"><ele>618.0</ele><time>2026-04-26T09:01:56Z</time></trkpt><trkpt lat="37.95137742817962" lon="15.138373749040507"><ele>618.0</ele><time>2026-04-26T09:01:59Z</time></trkpt><trkpt lat="37.9514664032241" lon="15.13835874763068"><ele>618.0</ele><time>2026-04-26T09:02:01Z</time></trkpt><trkpt lat="37.951554863273294" lon="15.138357425768058"><ele>618.0</ele><time>2026-04-26T09:02:03Z</time></trkpt><trkpt lat="37.95162815358065" lon="15.138369743292618"><ele>618.0</ele><time>2026-04-26T09:02:05Z</time></trkpt><trkpt lat="37.951701309948426" lon="15.138364295355732"><ele>618.0</ele><time>2026-04-26T09:02:08Z</time></trkpt><trkpt lat="37.9517611042936" lon="15.138322017620581"><ele>618.0</ele><time>2026-04-26T09:02:12Z</time></trkpt><trkpt lat="37.951851015905" lon="15.138311320774255"><ele>619.6666666666666</ele><time>2026-04-26T09:02:18Z</time></trkpt><trkpt lat="37.95194318733389" lon="15.138344655571796"><ele>621.3333333333334</ele><time>2026-04-26T09:02:27Z</time></trkpt><trkpt lat="37.95203396028552" lon="15.138377283934716"><ele>623.0</ele><time>2026-04-26T09:02:29Z</time></trkpt><trkpt lat="37.95209011799315" lon="15.138415254893175"><ele>624.6666666666667</ele><time>2026-04-26T09:02:31Z</time></trkpt><trkpt lat="37.95215489703378" lon="15.13843210676516"><ele>626.3333333333334</ele><time>2026-04-26T09:02:34Z</time></trkpt><trkpt lat="37.95222201537488" lon="15.13843408747368"><ele>628.0</ele><time>2026-04-26T09:02:43Z</time></trkpt><trkpt lat="37.95231442238773" lon="15.138491550106943"><ele>628.0</ele><time>2026-04-26T09:02:45Z</time></trkpt><trkpt lat="37.95240772561291" lon="15.13855174459678"><ele>628.0</ele><time>2026-04-26T09:02:47Z</time></trkpt><trkpt lat="37.952474081953184" lon="15.138631332572034"><ele>628.0</ele><time>2026-04-26T09:02:49Z</time></trkpt><trkpt lat="37.95252126688522" lon="15.138688671146037"><ele>628.0</ele><time>2026-04-26T09:02:52Z</time></trkpt><trkpt lat="37.9525605777467" lon="15.138761791975595"><ele>628.0</ele><time>2026-04-26T09:03:00Z</time></trkpt><trkpt lat="37.95260484070256" lon="15.138856256895346"><ele>628.0</ele><time>2026-04-26T09:03:02Z</time></trkpt><trkpt lat="37.9526066190967" lon="15.13895713443292"><ele>629.0</ele><time>2026-04-26T09:03:05Z</time></trkpt><trkpt lat="37.95265769376137" lon="15.1390137517058"><ele>630.0</ele><time>2026-04-26T09:03:09Z</time></trkpt><trkpt lat="37.952730569614644" lon="15.139058776979706"><ele>631.0</ele><time>2026-04-26T09:03:13Z</time></trkpt><trkpt lat="37.9527924823752" lon="15.139114173627814"><ele>632.0</ele><time>2026-04-26T09:03:15Z</time></trkpt><trkpt lat="37.95290127160571" lon="15.139192978424182"><ele>633.0</ele><time>2026-04-26T09:03:17Z</time></trkpt><trkpt lat="37.9529592702168" lon="15.139225608211945"><ele>634.0</ele><time>2026-04-26T09:03:18Z</time></trkpt><trkpt lat="37.953070270982124" lon="15.139291807446828"><ele>634.0</ele><time>2026-04-26T09:03:20Z</time></trkpt><trkpt lat="37.95316800877294" lon="15.139348101720456"><ele>634.0</ele><time>2026-04-26T09:03:22Z</time></trkpt><trkpt lat="37.95323149223384" lon="15.139367098472498"><ele>634.0</ele><time>2026-04-26T09:03:23Z</time></trkpt><trkpt lat="37.95329189606085" lon="15.13939323246241"><ele>634.0</ele><time>2026-04-26T09:03:24Z</time></trkpt><trkpt lat="37.95339021402179" lon="15.13943775903766"><ele>634.0</ele><time>2026-04-26T09:03:26Z</time></trkpt><trkpt lat="37.953483923952874" lon="15.139489165318295"><ele>634.0</ele><time>2026-04-26T09:03:28Z</time></trkpt><trkpt lat="37.95356772781692" lon="15.13950784409512"><ele>638.5</ele><time>2026-04-26T09:03:30Z</time></trkpt><trkpt lat="37.953630284468694" lon="15.139517038730752"><ele>643.0</ele><time>2026-04-26T09:03:31Z</time></trkpt><trkpt lat="37.95370864219998" lon="15.139545476060407"><ele>647.5</ele><time>2026-04-26T09:03:33Z</time></trkpt><trkpt lat="37.95376727741914" lon="15.13960998880844"><ele>652.0</ele><time>2026-04-26T09:03:36Z</time></trkpt><trkpt lat="37.95386632076063" lon="15.139642169165558"><ele>656.5</ele><time>2026-04-26T09:04:10.999Z</time></trkpt><trkpt lat="37.95395341144806" lon="15.139678351929577"><ele>661.0</ele><time>2026-04-26T09:04:12.999Z</time></trkpt><trkpt lat="37.954018387787656" lon="15.13971569259762"><ele>661.0</ele><time>2026-04-26T09:04:13.999Z</time></trkpt><trkpt lat="37.95407375607123" lon="15.139761962474703"><ele>661.0</ele><time>2026-04-26T09:04:14.999Z</time></trkpt><trkpt lat="37.95412849456001" lon="15.139806498337162"><ele>661.0</ele><time>2026-04-26T09:04:15.999Z</time></trkpt><trkpt lat="37.95423608246071" lon="15.139883443081121"><ele>661.0</ele><time>2026-04-26T09:04:17.999Z</time></trkpt><trkpt lat="37.95432563463404" lon="15.139951673684022"><ele>661.0</ele><time>2026-04-26T09:04:19.999Z</time></trkpt><trkpt lat="37.95443832662079" lon="15.140024456886042"><ele>660.4</ele><time>2026-04-26T09:04:21.999Z</time></trkpt><trkpt lat="37.95451769407309" lon="15.14012183899492"><ele>659.8</ele><time>2026-04-26T09:04:23.999Z</time></trkpt><trkpt lat="37.95457936879362" lon="15.140182803039407"><ele>659.1999999999999</ele><time>2026-04-26T09:04:25.999Z</time></trkpt><trkpt lat="37.9546801757463" lon="15.140214344772678"><ele>658.5999999999999</ele><time>2026-04-26T09:04:27.999Z</time></trkpt><trkpt lat="37.95475020333662" lon="15.140232735419263"><ele>658.0</ele><time>2026-04-26T09:04:29.999Z</time></trkpt><trkpt lat="37.954835363381555" lon="15.140260911676872"><ele>658.0</ele><time>2026-04-26T09:04:31.999Z</time></trkpt><trkpt lat="37.95489931927619" lon="15.140321292174413"><ele>658.0</ele><time>2026-04-26T09:04:33.999Z</time></trkpt><trkpt lat="37.95496061694737" lon="15.140362870709914"><ele>658.0</ele><time>2026-04-26T09:04:35.999Z</time></trkpt><trkpt lat="37.955019194836446" lon="15.140434238297638"><ele>658.0</ele><time>2026-04-26T09:04:38.999Z</time></trkpt><trkpt lat="37.95510243216488" lon="15.140471231994221"><ele>658.0</ele><time>2026-04-26T09:04:41.999Z</time></trkpt><trkpt lat="37.95518907396052" lon="15.140488637038983"><ele>658.0</ele><time>2026-04-26T09:04:44.999Z</time></trkpt><trkpt lat="37.95524979907541" lon="15.140423465861454"><ele>660.1428571428571</ele><time>2026-04-26T09:04:48.999Z</time></trkpt><trkpt lat="37.95530445136283" lon="15.140474623775935"><ele>662.2857142857142</ele><time>2026-04-26T09:04:56.999Z</time></trkpt><trkpt lat="37.95533415888154" lon="15.140549648532085"><ele>664.4285714285714</ele><time>2026-04-26T09:04:58.999Z</time></trkpt><trkpt lat="37.95540414547156" lon="15.140539292627436"><ele>666.5714285714286</ele><time>2026-04-26T09:05:02.999Z</time></trkpt><trkpt lat="37.955467514822786" lon="15.140528874965673"><ele>668.7142857142857</ele><time>2026-04-26T09:06:36.999Z</time></trkpt><trkpt lat="37.955544925601274" lon="15.140526284789859"><ele>670.8571428571429</ele><time>2026-04-26T09:06:39.999Z</time></trkpt><trkpt lat="37.95560750845971" lon="15.140617048384103"><ele>673.0</ele><time>2026-04-26T09:06:41.999Z</time></trkpt><trkpt lat="37.95564586453898" lon="15.140702736333811"><ele>673.4</ele><time>2026-04-26T09:06:42.999Z</time></trkpt><trkpt lat="37.9557039737423" lon="15.14080481656893"><ele>673.8</ele><time>2026-04-26T09:06:43.999Z</time></trkpt><trkpt lat="37.95577445103627" lon="15.140896758408852"><ele>674.2</ele><time>2026-04-26T09:06:44.999Z</time></trkpt><trkpt lat="37.9558509660119" lon="15.141002817792895"><ele>674.6</ele><time>2026-04-26T09:06:45.999Z</time></trkpt><trkpt lat="37.955916381304526" lon="15.14111613528178"><ele>675.0</ele><time>2026-04-26T09:06:46.999Z</time></trkpt><trkpt lat="37.955981067679446" lon="15.141227455652649"><ele>675.0</ele><time>2026-04-26T09:06:47.999Z</time></trkpt><trkpt lat="37.956034616618176" lon="15.14132962015426"><ele>675.0</ele><time>2026-04-26T09:06:48.999Z</time></trkpt><trkpt lat="37.956083355394775" lon="15.141433354265763"><ele>675.0</ele><time>2026-04-26T09:06:49.999Z</time></trkpt><trkpt lat="37.95613416899361" lon="15.14152966546554"><ele>675.0</ele><time>2026-04-26T09:06:50.999Z</time></trkpt><trkpt lat="37.956194946675495" lon="15.141626475389444"><ele>675.0</ele><time>2026-04-26T09:06:51.999Z</time></trkpt><trkpt lat="37.95625177735087" lon="15.141713811732506"><ele>675.1666666666666</ele><time>2026-04-26T09:06:52.999Z</time></trkpt><trkpt lat="37.95630985735166" lon="15.141802001838364"><ele>675.3333333333334</ele><time>2026-04-26T09:06:53.999Z</time></trkpt><trkpt lat="37.9563533564409" lon="15.14188619761365"><ele>675.5</ele><time>2026-04-26T09:06:54.999Z</time></trkpt><trkpt lat="37.956401396565674" lon="15.141987573495532"><ele>675.6666666666667</ele><time>2026-04-26T09:06:55.999Z</time></trkpt><trkpt lat="37.95642869736655" lon="15.142077652085906"><ele>675.8333333333334</ele><time>2026-04-26T09:06:56.999Z</time></trkpt><trkpt lat="37.956464975272254" lon="15.142193404563915"><ele>676.0</ele><time>2026-04-26T09:06:57.999Z</time></trkpt><trkpt lat="37.95649361930358" lon="15.142293375744838"><ele>678.4</ele><time>2026-04-26T09:06:58.999Z</time></trkpt><trkpt lat="37.956531222485225" lon="15.142404145344614"><ele>680.8</ele><time>2026-04-26T09:06:59.999Z</time></trkpt><trkpt lat="37.956574967421304" lon="15.142500495786683"><ele>683.1999999999999</ele><time>2026-04-26T09:07:00.999Z</time></trkpt><trkpt lat="37.95661445937892" lon="15.142616653252361"><ele>685.5999999999999</ele><time>2026-04-26T09:07:01.999Z</time></trkpt><trkpt lat="37.95664887248232" lon="15.142726054309348"><ele>688.0</ele><time>2026-04-26T09:07:02.999Z</time></trkpt><trkpt lat="37.95667515584729" lon="15.142837221045955"><ele>689.8333333333334</ele><time>2026-04-26T09:07:03.999Z</time></trkpt><trkpt lat="37.956705230542916" lon="15.142945930426736"><ele>691.6666666666667</ele><time>2026-04-26T09:07:04.999Z</time></trkpt><trkpt lat="37.956731581304645" lon="15.143047001764833"><ele>693.5</ele><time>2026-04-26T09:07:05.999Z</time></trkpt><trkpt lat="37.956752374176716" lon="15.143134417831904"><ele>695.3333333333334</ele><time>2026-04-26T09:07:06.999Z</time></trkpt><trkpt lat="37.95676418960422" lon="15.143278978157058"><ele>697.1666666666666</ele><time>2026-04-26T09:07:08.999Z</time></trkpt><trkpt lat="37.95676646646022" lon="15.143387055663787"><ele>699.0</ele><time>2026-04-26T09:07:10.999Z</time></trkpt><trkpt lat="37.956860875408495" lon="15.143426525174945"><ele>703.1666666666666</ele><time>2026-04-26T09:07:13.999Z</time></trkpt><trkpt lat="37.95691702641646" lon="15.143514922028974"><ele>707.3333333333334</ele><time>2026-04-26T09:07:16.999Z</time></trkpt><trkpt lat="37.95694913038413" lon="15.143613181764138"><ele>711.5</ele><time>2026-04-26T09:07:18.999Z</time></trkpt><trkpt lat="37.95695313367186" lon="15.143701771018634"><ele>715.6666666666667</ele><time>2026-04-26T09:07:20.999Z</time></trkpt><trkpt lat="37.95694372195694" lon="15.143805637081979"><ele>719.8333333333334</ele><time>2026-04-26T09:07:23.998Z</time></trkpt><trkpt lat="37.956960878390994" lon="15.14392950089516"><ele>724.0</ele><time>2026-04-26T09:07:25.998Z</time></trkpt><trkpt lat="37.95697045703453" lon="15.144032745246855"><ele>724.0</ele><time>2026-04-26T09:07:27.998Z</time></trkpt><trkpt lat="37.95696511812463" lon="15.144116537094728"><ele>724.0</ele><time>2026-04-26T09:07:29.998Z</time></trkpt><trkpt lat="37.95697468008054" lon="15.144198732903433"><ele>724.0</ele><time>2026-04-26T09:07:43.998Z</time></trkpt><trkpt lat="37.95696902158117" lon="15.144281176955015"><ele>724.0</ele><time>2026-04-26T09:07:53.998Z</time></trkpt><trkpt lat="37.95701378446468" lon="15.144181483902877"><ele>724.0</ele><time>2026-04-26T09:09:42.999Z</time></trkpt><trkpt lat="37.95705456801039" lon="15.144092073641485"><ele>724.0</ele><time>2026-04-26T09:09:44.999Z</time></trkpt><trkpt lat="37.95706155049884" lon="15.14398509542192"><ele>724.0</ele><time>2026-04-26T09:09:46.999Z</time></trkpt><trkpt lat="37.95706238816693" lon="15.14389763749553"><ele>724.0</ele><time>2026-04-26T09:09:48.999Z</time></trkpt><trkpt lat="37.95706396902494" lon="15.143787233220488"><ele>724.0</ele><time>2026-04-26T09:09:50.999Z</time></trkpt><trkpt lat="37.9570562310061" lon="15.143691102684846"><ele>724.0</ele><time>2026-04-26T09:09:52.999Z</time></trkpt><trkpt lat="37.9570729807305" lon="15.143609447443476"><ele>724.0</ele><time>2026-04-26T09:09:54.999Z</time></trkpt><trkpt lat="37.95705652371876" lon="15.143517393812107"><ele>724.0</ele><time>2026-04-26T09:09:57.999Z</time></trkpt><trkpt lat="37.95706625770127" lon="15.143431285835264"><ele>724.0</ele><time>2026-04-26T09:10:00.999Z</time></trkpt><trkpt lat="37.95701816421024" lon="15.143349357633168"><ele>724.0</ele><time>2026-04-26T09:10:03.999Z</time></trkpt><trkpt lat="37.95699431863731" lon="15.143272943024048"><ele>724.0</ele><time>2026-04-26T09:10:05.999Z</time></trkpt><trkpt lat="37.95698305838782" lon="15.1431726820666"><ele>724.0</ele><time>2026-04-26T09:10:07.999Z</time></trkpt><trkpt lat="37.95696438738558" lon="15.143033714752061"><ele>724.0</ele><time>2026-04-26T09:10:09.999Z</time></trkpt><trkpt lat="37.95694396855496" lon="15.142955110414166"><ele>724.0</ele><time>2026-04-26T09:10:10.999Z</time></trkpt><trkpt lat="37.95690957840358" lon="15.142819503151355"><ele>724.0</ele><time>2026-04-26T09:10:12.999Z</time></trkpt><trkpt lat="37.95689151606449" lon="15.142736183649948"><ele>719.8333333333334</ele><time>2026-04-26T09:10:14.999Z</time></trkpt><trkpt lat="37.95690072720034" lon="15.142648294097246"><ele>715.6666666666667</ele><time>2026-04-26T09:10:34Z</time></trkpt><trkpt lat="37.956980699444266" lon="15.14258208410312"><ele>711.5</ele><time>2026-04-26T09:10:36Z</time></trkpt><trkpt lat="37.95704634146809" lon="15.142554389216057"><ele>707.3333333333334</ele><time>2026-04-26T09:10:37Z</time></trkpt><trkpt lat="37.95712042955331" lon="15.142513305481307"><ele>703.1666666666666</ele><time>2026-04-26T09:10:38Z</time></trkpt><trkpt lat="37.95720260632453" lon="15.14254539485961"><ele>699.0</ele><time>2026-04-26T09:10:40Z</time></trkpt><trkpt lat="37.95729326691878" lon="15.14263628554984"><ele>699.0</ele><time>2026-04-26T09:10:42Z</time></trkpt><trkpt lat="37.95734983594589" lon="15.142691497229663"><ele>699.0</ele><time>2026-04-26T09:10:43Z</time></trkpt><trkpt lat="37.95740617677175" lon="15.142753323793015"><ele>699.0</ele><time>2026-04-26T09:10:44Z</time></trkpt><trkpt lat="37.95751914322809" lon="15.142806051890298"><ele>699.0</ele><time>2026-04-26T09:10:46Z</time></trkpt><trkpt lat="37.95762166127081" lon="15.142765623393327"><ele>699.0</ele><time>2026-04-26T09:10:48Z</time></trkpt><trkpt lat="37.95761552674891" lon="15.14285814133527"><ele>699.0</ele><time>2026-04-26T09:10:51Z</time></trkpt><trkpt lat="37.957494830051324" lon="15.142886824269373"><ele>699.0</ele><time>2026-04-26T09:10:53Z</time></trkpt><trkpt lat="37.95740439046761" lon="15.142902738296337"><ele>699.0</ele><time>2026-04-26T09:10:54Z</time></trkpt><trkpt lat="37.95732876171735" lon="15.142924941304658"><ele>699.0</ele><time>2026-04-26T09:10:55Z</time></trkpt><trkpt lat="37.9572728549085" lon="15.142977869344252"><ele>699.0</ele><time>2026-04-26T09:10:57Z</time></trkpt><trkpt lat="37.9573329672341" lon="15.143063599829476"><ele>699.0</ele><time>2026-04-26T09:11:00Z</time></trkpt><trkpt lat="37.9574171434119" lon="15.143072153730708"><ele>699.0</ele><time>2026-04-26T09:11:02Z</time></trkpt><trkpt lat="37.957521832830736" lon="15.14302737694941"><ele>701.0</ele><time>2026-04-26T09:11:04Z</time></trkpt><trkpt lat="37.95759078763136" lon="15.14302764155421"><ele>703.0</ele><time>2026-04-26T09:11:05Z</time></trkpt><trkpt lat="37.957665116571846" lon="15.14306228560124"><ele>705.0</ele><time>2026-04-26T09:11:06Z</time></trkpt><trkpt lat="37.95774678199797" lon="15.143105141791917"><ele>707.0</ele><time>2026-04-26T09:11:07Z</time></trkpt><trkpt lat="37.95781055655583" lon="15.143121166164478"><ele>709.0</ele><time>2026-04-26T09:11:08Z</time></trkpt><trkpt lat="37.95791442822762" lon="15.14308135794929"><ele>711.0</ele><time>2026-04-26T09:11:10Z</time></trkpt><trkpt lat="37.957954034662336" lon="15.143013199900093"><ele>711.0</ele><time>2026-04-26T09:11:11Z</time></trkpt><trkpt lat="37.95800686612872" lon="15.142949208402891"><ele>711.0</ele><time>2026-04-26T09:11:12Z</time></trkpt><trkpt lat="37.95807067383693" lon="15.142906865887891"><ele>711.0</ele><time>2026-04-26T09:11:13Z</time></trkpt><trkpt lat="37.95814598608845" lon="15.142905614411655"><ele>711.0</ele><time>2026-04-26T09:11:14Z</time></trkpt><trkpt lat="37.958266557986605" lon="15.142927586855961"><ele>711.0</ele><time>2026-04-26T09:11:16Z</time></trkpt><trkpt lat="37.95832949806192" lon="15.142941077368828"><ele>711.0</ele><time>2026-04-26T09:11:17Z</time></trkpt><trkpt lat="37.95839895905165" lon="15.14295030330915"><ele>709.8333333333334</ele><time>2026-04-26T09:11:18Z</time></trkpt><trkpt lat="37.95846224737532" lon="15.142977868410238"><ele>708.6666666666666</ele><time>2026-04-26T09:11:19Z</time></trkpt><trkpt lat="37.95851501659998" lon="15.143042951589438"><ele>707.5</ele><time>2026-04-26T09:11:20Z</time></trkpt><trkpt lat="37.95856705332721" lon="15.143106732077877"><ele>706.3333333333333</ele><time>2026-04-26T09:11:21Z</time></trkpt><trkpt lat="37.95863367280377" lon="15.143191588510367"><ele>705.1666666666666</ele><time>2026-04-26T09:11:22Z</time></trkpt><trkpt lat="37.958700064006706" lon="15.14326440924865"><ele>704.0</ele><time>2026-04-26T09:11:23Z</time></trkpt><trkpt lat="37.95878536613211" lon="15.143343616524577"><ele>710.4000000000001</ele><time>2026-04-26T09:11:24Z</time></trkpt><trkpt lat="37.95885371207806" lon="15.143393741536448"><ele>716.8</ele><time>2026-04-26T09:11:25Z</time></trkpt><trkpt lat="37.95892207725659" lon="15.143443505015684"><ele>723.2</ele><time>2026-04-26T09:11:26Z</time></trkpt><trkpt lat="37.95896511126388" lon="15.14355122592591"><ele>729.5999999999999</ele><time>2026-04-26T09:11:28Z</time></trkpt><trkpt lat="37.95889334567751" lon="15.143597774288159"><ele>736.0</ele><time>2026-04-26T09:11:30Z</time></trkpt><trkpt lat="37.95879025607659" lon="15.14352898667674"><ele>736.0</ele><time>2026-04-26T09:11:32Z</time></trkpt><trkpt lat="37.958714658823595" lon="15.14348661561045"><ele>736.0</ele><time>2026-04-26T09:11:33Z</time></trkpt><trkpt lat="37.95860156290385" lon="15.14353515040217"><ele>736.0</ele><time>2026-04-26T09:11:35Z</time></trkpt><trkpt lat="37.95855628780716" lon="15.14360401590456"><ele>736.0</ele><time>2026-04-26T09:11:36Z</time></trkpt><trkpt lat="37.95850898432746" lon="15.14370218552965"><ele>736.0</ele><time>2026-04-26T09:11:37Z</time></trkpt><trkpt lat="37.95849616720204" lon="15.143808064783713"><ele>736.0</ele><time>2026-04-26T09:11:38Z</time></trkpt><trkpt lat="37.95848463021151" lon="15.143911938927628"><ele>736.0</ele><time>2026-04-26T09:11:39Z</time></trkpt><trkpt lat="37.95845566784568" lon="15.143990614819092"><ele>736.0</ele><time>2026-04-26T09:11:40Z</time></trkpt><trkpt lat="37.958359552791954" lon="15.144024147142044"><ele>736.0</ele><time>2026-04-26T09:11:42Z</time></trkpt><trkpt lat="37.958291153545176" lon="15.143996470534203"><ele>736.0</ele><time>2026-04-26T09:11:43Z</time></trkpt><trkpt lat="37.95821830180705" lon="15.14393617702661"><ele>736.0</ele><time>2026-04-26T09:11:44Z</time></trkpt><trkpt lat="37.95814832488637" lon="15.143868288740647"><ele>736.0</ele><time>2026-04-26T09:11:45Z</time></trkpt><trkpt lat="37.958057053164445" lon="15.143852179603336"><ele>738.0</ele><time>2026-04-26T09:11:47Z</time></trkpt><trkpt lat="37.9580404844977" lon="15.143967893773182"><ele>740.0</ele><time>2026-04-26T09:11:49Z</time></trkpt><trkpt lat="37.958110491824215" lon="15.143992584488212"><ele>742.0</ele><time>2026-04-26T09:11:51Z</time></trkpt><trkpt lat="37.9582101986568" lon="15.144036089553175"><ele>744.0</ele><time>2026-04-26T09:11:53Z</time></trkpt><trkpt lat="37.958260925032505" lon="15.144105311196968"><ele>746.0</ele><time>2026-04-26T09:11:54Z</time></trkpt><trkpt lat="37.95832872794101" lon="15.144174987709707"><ele>748.0</ele><time>2026-04-26T09:11:55Z</time></trkpt><trkpt lat="37.95840450905386" lon="15.14420542162675"><ele>753.4</ele><time>2026-04-26T09:11:56Z</time></trkpt><trkpt lat="37.958506215071665" lon="15.144199365534455"><ele>758.8</ele><time>2026-04-26T09:11:56.999Z</time></trkpt><trkpt lat="37.95861152766368" lon="15.144168475923548"><ele>764.2</ele><time>2026-04-26T09:11:57.999Z</time></trkpt><trkpt lat="37.958724959924275" lon="15.144142722003576"><ele>769.6</ele><time>2026-04-26T09:11:58.999Z</time></trkpt><trkpt lat="37.958818545535735" lon="15.144138601181698"><ele>775.0</ele><time>2026-04-26T09:11:59.999Z</time></trkpt><trkpt lat="37.95891220903463" lon="15.144165917153739"><ele>774.9999999999999</ele><time>2026-04-26T09:12:00.999Z</time></trkpt><trkpt lat="37.959001898778624" lon="15.14421265606751"><ele>775.0</ele><time>2026-04-26T09:12:01.999Z</time></trkpt><trkpt lat="37.95909050019148" lon="15.144251360223496"><ele>775.0</ele><time>2026-04-26T09:12:02.999Z</time></trkpt><trkpt lat="37.95915809554081" lon="15.1442686612145"><ele>775.0</ele><time>2026-04-26T09:12:03.999Z</time></trkpt><trkpt lat="37.959224953062304" lon="15.144318859553833"><ele>774.9999999999999</ele><time>2026-04-26T09:12:04.999Z</time></trkpt><trkpt lat="37.95927459142058" lon="15.144386663024251"><ele>775.0</ele><time>2026-04-26T09:12:05.999Z</time></trkpt><trkpt lat="37.95930384598709" lon="15.144481763198607"><ele>775.0</ele><time>2026-04-26T09:12:07.999Z</time></trkpt><trkpt lat="37.95921300656818" lon="15.14451483232734"><ele>775.0</ele><time>2026-04-26T09:12:09.999Z</time></trkpt><trkpt lat="37.95908554479734" lon="15.144466876967984"><ele>775.0</ele><time>2026-04-26T09:12:11.999Z</time></trkpt><trkpt lat="37.959021790880485" lon="15.14446558958151"><ele>775.0</ele><time>2026-04-26T09:12:12.999Z</time></trkpt><trkpt lat="37.958961348350655" lon="15.144510274040194"><ele>775.0</ele><time>2026-04-26T09:12:13.999Z</time></trkpt><trkpt lat="37.95887698156657" lon="15.144597168436558"><ele>774.9999999999999</ele><time>2026-04-26T09:12:14.999Z</time></trkpt><trkpt lat="37.95877329139901" lon="15.144643253192426"><ele>775.0</ele><time>2026-04-26T09:12:15.999Z</time></trkpt><trkpt lat="37.9586765016213" lon="15.144649402116732"><ele>775.0</ele><time>2026-04-26T09:12:16.999Z</time></trkpt><trkpt lat="37.95859324888183" lon="15.144641844463687"><ele>775.0</ele><time>2026-04-26T09:12:17.999Z</time></trkpt><trkpt lat="37.9585156146211" lon="15.144653860431411"><ele>774.9999999999999</ele><time>2026-04-26T09:12:18.999Z</time></trkpt><trkpt lat="37.95844733977074" lon="15.144699349115367"><ele>775.0</ele><time>2026-04-26T09:12:19.999Z</time></trkpt><trkpt lat="37.95840120031488" lon="15.144763201336175"><ele>778.2</ele><time>2026-04-26T09:12:20.999Z</time></trkpt><trkpt lat="37.958362071687105" lon="15.144932821407611"><ele>781.4</ele><time>2026-04-26T09:12:22.999Z</time></trkpt><trkpt lat="37.95835996934964" lon="15.145037217283216"><ele>784.5999999999999</ele><time>2026-04-26T09:12:23.999Z</time></trkpt><trkpt lat="37.95836235555972" lon="15.145120500064722"><ele>787.8</ele><time>2026-04-26T09:12:24.999Z</time></trkpt><trkpt lat="37.95836026955022" lon="15.14521831203604"><ele>791.0</ele><time>2026-04-26T09:12:27Z</time></trkpt><trkpt lat="37.95844341075024" lon="15.145163211930385"><ele>793.5000000000001</ele><time>2026-04-26T09:12:29Z</time></trkpt><trkpt lat="37.958472199073995" lon="15.145079210060835"><ele>796.0</ele><time>2026-04-26T09:12:30Z</time></trkpt><trkpt lat="37.958491873368914" lon="15.14497713202388"><ele>798.5</ele><time>2026-04-26T09:12:31Z</time></trkpt><trkpt lat="37.958530411090564" lon="15.144905405491603"><ele>801.0</ele><time>2026-04-26T09:12:32Z</time></trkpt><trkpt lat="37.958641165998046" lon="15.144918863426286"><ele>803.5000000000001</ele><time>2026-04-26T09:12:34Z</time></trkpt><trkpt lat="37.95872463555636" lon="15.144958016486855"><ele>806.0</ele><time>2026-04-26T09:12:35Z</time></trkpt><trkpt lat="37.95882071560153" lon="15.144996823097772"><ele>806.0</ele><time>2026-04-26T09:12:36Z</time></trkpt><trkpt lat="37.95892891759814" lon="15.145007528322633"><ele>806.0</ele><time>2026-04-26T09:12:37Z</time></trkpt><trkpt lat="37.959036962740996" lon="15.144995294130915"><ele>806.0</ele><time>2026-04-26T09:12:38Z</time></trkpt><trkpt lat="37.95913662947818" lon="15.144978650902248"><ele>806.0</ele><time>2026-04-26T09:12:39Z</time></trkpt><trkpt lat="37.95922337774341" lon="15.144954333863867"><ele>806.0</ele><time>2026-04-26T09:12:40Z</time></trkpt><trkpt lat="37.959321027562154" lon="15.14497213488274"><ele>802.5000000000001</ele><time>2026-04-26T09:12:42Z</time></trkpt><trkpt lat="37.95937474520036" lon="15.145015318289591"><ele>799.0</ele><time>2026-04-26T09:12:43Z</time></trkpt><trkpt lat="37.959483052666926" lon="15.145137687792664"><ele>795.5</ele><time>2026-04-26T09:12:45Z</time></trkpt><trkpt lat="37.95952662038016" lon="15.145206813994147"><ele>792.0</ele><time>2026-04-26T09:12:46Z</time></trkpt><trkpt lat="37.95958433703673" lon="15.145295022642166"><ele>788.5000000000001</ele><time>2026-04-26T09:12:47Z</time></trkpt><trkpt lat="37.95963731610421" lon="15.145369299011117"><ele>785.0</ele><time>2026-04-26T09:12:48Z</time></trkpt><trkpt lat="37.95968107036614" lon="15.14546095664943"><ele>785.0000000000001</ele><time>2026-04-26T09:12:49Z</time></trkpt><trkpt lat="37.95971220158081" lon="15.14554784782127"><ele>785.0</ele><time>2026-04-26T09:12:50Z</time></trkpt><trkpt lat="37.95974215053606" lon="15.145629449984265"><ele>785.0</ele><time>2026-04-26T09:12:51Z</time></trkpt><trkpt lat="37.959829635016256" lon="15.145735771771683"><ele>785.0</ele><time>2026-04-26T09:12:53Z</time></trkpt><trkpt lat="37.95987830480818" lon="15.145792903669449"><ele>785.0000000000001</ele><time>2026-04-26T09:12:56Z</time></trkpt><trkpt lat="37.959925654541735" lon="15.145863023105628"><ele>785.0</ele><time>2026-04-26T09:12:58Z</time></trkpt><trkpt lat="37.96000775960304" lon="15.145950220436424"><ele>793.8</ele><time>2026-04-26T09:13:00Z</time></trkpt><trkpt lat="37.9600913033721" lon="15.146036436823403"><ele>802.6</ele><time>2026-04-26T09:13:02Z</time></trkpt><trkpt lat="37.96016658633632" lon="15.146079969195391"><ele>811.4000000000001</ele><time>2026-04-26T09:13:04Z</time></trkpt><trkpt lat="37.960253004313685" lon="15.146055958417586"><ele>820.2</ele><time>2026-04-26T09:13:06Z</time></trkpt><trkpt lat="37.96034487435841" lon="15.145961839127247"><ele>829.0</ele><time>2026-04-26T09:13:08Z</time></trkpt><trkpt lat="37.96039849279125" lon="15.145911511906991"><ele>828.9999999999999</ele><time>2026-04-26T09:13:09Z</time></trkpt><trkpt lat="37.960514052836416" lon="15.14587166526354"><ele>829.0</ele><time>2026-04-26T09:13:11Z</time></trkpt><trkpt lat="37.96058605430496" lon="15.145871480238002"><ele>829.0</ele><time>2026-04-26T09:13:12Z</time></trkpt><trkpt lat="37.960655524270784" lon="15.145871579351427"><ele>829.0</ele><time>2026-04-26T09:13:13Z</time></trkpt><trkpt lat="37.9607269323979" lon="15.14586486088323"><ele>828.9999999999999</ele><time>2026-04-26T09:13:14Z</time></trkpt><trkpt lat="37.960791629856146" lon="15.145863327097317"><ele>829.0</ele><time>2026-04-26T09:13:15Z</time></trkpt><trkpt lat="37.96088291891219" lon="15.145903325366932"><ele>828.9999999999999</ele><time>2026-04-26T09:13:17Z</time></trkpt><trkpt lat="37.960878291091" lon="15.145990483619212"><ele>829.0</ele><time>2026-04-26T09:13:19Z</time></trkpt><trkpt lat="37.960789650738825" lon="15.146008594767755"><ele>829.0</ele><time>2026-04-26T09:13:21Z</time></trkpt><trkpt lat="37.96072492377876" lon="15.145990234193183"><ele>829.0</ele><time>2026-04-26T09:13:22Z</time></trkpt><trkpt lat="37.96063453434173" lon="15.146015646237506"><ele>828.9999999999999</ele><time>2026-04-26T09:13:24Z</time></trkpt><trkpt lat="37.96070511516835" lon="15.145998987479876"><ele>829.0</ele><time>2026-04-26T09:13:41Z</time></trkpt><trkpt lat="37.96081564332938" lon="15.145999757440922"><ele>829.0</ele><time>2026-04-26T09:13:45Z</time></trkpt><trkpt lat="37.96087088439503" lon="15.146083508563793"><ele>829.0</ele><time>2026-04-26T09:13:47Z</time></trkpt><trkpt lat="37.96086364029102" lon="15.14620444050571"><ele>829.0</ele><time>2026-04-26T09:13:49Z</time></trkpt><trkpt lat="37.96084934342895" lon="15.146305248569677"><ele>829.0</ele><time>2026-04-26T09:13:50Z</time></trkpt><trkpt lat="37.96082943931848" lon="15.146421370238528"><ele>829.0</ele><time>2026-04-26T09:13:51Z</time></trkpt><trkpt lat="37.960802238763065" lon="15.146540341351802"><ele>832.1428571428571</ele><time>2026-04-26T09:13:52Z</time></trkpt><trkpt lat="37.960805626327804" lon="15.146634048360706"><ele>835.2857142857142</ele><time>2026-04-26T09:13:53Z</time></trkpt><trkpt lat="37.96083788012293" lon="15.146717451569856"><ele>838.4285714285714</ele><time>2026-04-26T09:13:54Z</time></trkpt><trkpt lat="37.96083971480098" lon="15.14680738878341"><ele>841.5714285714286</ele><time>2026-04-26T09:13:55Z</time></trkpt><trkpt lat="37.96082554124533" lon="15.14690008304483"><ele>844.7142857142858</ele><time>2026-04-26T09:13:56Z</time></trkpt><trkpt lat="37.9608029518204" lon="15.14700355454545"><ele>847.8571428571429</ele><time>2026-04-26T09:13:57Z</time></trkpt><trkpt lat="37.960803354228844" lon="15.147087430305097"><ele>851.0</ele><time>2026-04-26T09:13:58Z</time></trkpt><trkpt lat="37.96084025722802" lon="15.147160500291037"><ele>853.0000000000001</ele><time>2026-04-26T09:13:59Z</time></trkpt><trkpt lat="37.960876038216604" lon="15.147227602755846"><ele>855.0</ele><time>2026-04-26T09:14:01Z</time></trkpt><trkpt lat="37.96088454420404" lon="15.147322813580764"><ele>857.0</ele><time>2026-04-26T09:14:13Z</time></trkpt><trkpt lat="37.9609365250492" lon="15.147430578596085"><ele>859.0</ele><time>2026-04-26T09:14:16Z</time></trkpt><trkpt lat="37.96101237868733" lon="15.147496877578996"><ele>861.0000000000001</ele><time>2026-04-26T09:14:18Z</time></trkpt><trkpt lat="37.96109957158642" lon="15.147512172281871"><ele>863.0</ele><time>2026-04-26T09:14:20.999Z</time></trkpt><trkpt lat="37.961157104896465" lon="15.147550585570418"><ele>863.0000000000001</ele><time>2026-04-26T09:14:21.999Z</time></trkpt><trkpt lat="37.96123433282909" lon="15.147565201615194"><ele>863.0</ele><time>2026-04-26T09:14:22.999Z</time></trkpt><trkpt lat="37.96131312640314" lon="15.147562650471158"><ele>863.0</ele><time>2026-04-26T09:14:23.999Z</time></trkpt><trkpt lat="37.9613858211673" lon="15.147535625421646"><ele>863.0</ele><time>2026-04-26T09:14:24.999Z</time></trkpt><trkpt lat="37.96146394193225" lon="15.147498813486884"><ele>863.0000000000001</ele><time>2026-04-26T09:14:26.999Z</time></trkpt><trkpt lat="37.96151640144387" lon="15.147422438287549"><ele>863.0</ele><time>2026-04-26T09:14:29.999Z</time></trkpt><trkpt lat="37.961519699442185" lon="15.147332544209515"><ele>858.5000000000001</ele><time>2026-04-26T09:14:30.999Z</time></trkpt><trkpt lat="37.96151397495607" lon="15.14721863812169"><ele>854.0</ele><time>2026-04-26T09:14:32.001Z</time></trkpt><trkpt lat="37.96152592368533" lon="15.147125460456017"><ele>849.5</ele><time>2026-04-26T09:14:33.001Z</time></trkpt><trkpt lat="37.96160998980375" lon="15.14702688853982"><ele>845.0</ele><time>2026-04-26T09:14:35.001Z</time></trkpt><trkpt lat="37.961680168179825" lon="15.146999305269276"><ele>840.5000000000001</ele><time>2026-04-26T09:14:36.001Z</time></trkpt><trkpt lat="37.96174273655922" lon="15.146960075547396"><ele>836.0</ele><time>2026-04-26T09:14:37.001Z</time></trkpt><trkpt lat="37.961777623014235" lon="15.147057647146113"><ele>836.0000000000001</ele><time>2026-04-26T09:14:40.001Z</time></trkpt><trkpt lat="37.961742442633714" lon="15.147130239138553"><ele>836.0</ele><time>2026-04-26T09:14:41.001Z</time></trkpt><trkpt lat="37.961705896206304" lon="15.147206803395456"><ele>836.0</ele><time>2026-04-26T09:14:42.001Z</time></trkpt><trkpt lat="37.961653802694656" lon="15.147293875852139"><ele>836.0</ele><time>2026-04-26T09:14:43Z</time></trkpt><trkpt lat="37.961635457259604" lon="15.14741825571756"><ele>836.0000000000001</ele><time>2026-04-26T09:14:44Z</time></trkpt><trkpt lat="37.961620157318976" lon="15.147553723293784"><ele>836.0</ele><time>2026-04-26T09:14:45Z</time></trkpt><trkpt lat="37.961579952536795" lon="15.14769033146572"><ele>840.5000000000001</ele><time>2026-04-26T09:14:46Z</time></trkpt><trkpt lat="37.96154153893011" lon="15.147839343019747"><ele>845.0</ele><time>2026-04-26T09:14:47Z</time></trkpt><trkpt lat="37.9615193726277" lon="15.147966313017157"><ele>849.5</ele><time>2026-04-26T09:14:48Z</time></trkpt><trkpt lat="37.96149929415399" lon="15.148054431551284"><ele>854.0</ele><time>2026-04-26T09:14:49Z</time></trkpt><trkpt lat="37.96148664259339" lon="15.148135712047786"><ele>858.5000000000001</ele><time>2026-04-26T09:14:50Z</time></trkpt><trkpt lat="37.96142074988087" lon="15.148166206875429"><ele>863.0</ele><time>2026-04-26T09:14:52Z</time></trkpt><trkpt lat="37.96131979142196" lon="15.148060187804706"><ele>863.0</ele><time>2026-04-26T09:14:54Z</time></trkpt><trkpt lat="37.961253370235475" lon="15.147964422502522"><ele>863.0</ele><time>2026-04-26T09:14:55Z</time></trkpt><trkpt lat="37.9611798322185" lon="15.147894578190229"><ele>863.0</ele><time>2026-04-26T09:14:56Z</time></trkpt><trkpt lat="37.961095597456364" lon="15.147871885780436"><ele>863.0</ele><time>2026-04-26T09:14:57Z</time></trkpt><trkpt lat="37.96099716949216" lon="15.147887002553343"><ele>863.0</ele><time>2026-04-26T09:14:58Z</time></trkpt><trkpt lat="37.960898262265644" lon="15.14791121068705"><ele>863.8</ele><time>2026-04-26T09:14:59Z</time></trkpt><trkpt lat="37.96081580177521" lon="15.14787559258424"><ele>864.5999999999999</ele><time>2026-04-26T09:15:00Z</time></trkpt><trkpt lat="37.960763502043896" lon="15.147818146537226"><ele>865.4000000000001</ele><time>2026-04-26T09:15:01Z</time></trkpt><trkpt lat="37.96069078458258" lon="15.147724324326289"><ele>866.2</ele><time>2026-04-26T09:15:02Z</time></trkpt><trkpt lat="37.960594554181455" lon="15.147617509649294"><ele>867.0</ele><time>2026-04-26T09:15:03Z</time></trkpt><trkpt lat="37.96049228606472" lon="15.147572880982446"><ele>867.0</ele><time>2026-04-26T09:15:04Z</time></trkpt><trkpt lat="37.96040643545106" lon="15.147563193394715"><ele>867.0</ele><time>2026-04-26T09:15:05Z</time></trkpt><trkpt lat="37.9603751439929" lon="15.14764894998843"><ele>867.0</ele><time>2026-04-26T09:15:08Z</time></trkpt><trkpt lat="37.96042400518996" lon="15.147754684808955"><ele>867.0</ele><time>2026-04-26T09:15:10Z</time></trkpt><trkpt lat="37.96048196388206" lon="15.147805804421177"><ele>867.0</ele><time>2026-04-26T09:15:11Z</time></trkpt><trkpt lat="37.960533368797826" lon="15.147872785047856"><ele>867.0</ele><time>2026-04-26T09:15:12Z</time></trkpt><trkpt lat="37.96054689909389" lon="15.147970903931299"><ele>867.0</ele><time>2026-04-26T09:15:13Z</time></trkpt><trkpt lat="37.96057955646338" lon="15.148066410701688"><ele>867.0</ele><time>2026-04-26T09:15:14Z</time></trkpt><trkpt lat="37.960634077425176" lon="15.148128475391555"><ele>867.0</ele><time>2026-04-26T09:15:15Z</time></trkpt><trkpt lat="37.96069802225465" lon="15.148171985379332"><ele>867.0</ele><time>2026-04-26T09:15:16Z</time></trkpt><trkpt lat="37.96076196731364" lon="15.148213180596507"><ele>867.0</ele><time>2026-04-26T09:15:17Z</time></trkpt><trkpt lat="37.96081789905706" lon="15.148283632512591"><ele>867.0</ele><time>2026-04-26T09:15:18Z</time></trkpt><trkpt lat="37.960841029946955" lon="15.148388615218485"><ele>870.0</ele><time>2026-04-26T09:15:19Z</time></trkpt><trkpt lat="37.96086514775132" lon="15.148486065956115"><ele>873.0</ele><time>2026-04-26T09:15:20Z</time></trkpt><trkpt lat="37.960908379952606" lon="15.148573846652383"><ele>876.0</ele><time>2026-04-26T09:15:21Z</time></trkpt><trkpt lat="37.960958705052995" lon="15.148659871574145"><ele>879.0</ele><time>2026-04-26T09:15:23Z</time></trkpt><trkpt lat="37.96089180057761" lon="15.148679524397549"><ele>882.0</ele><time>2026-04-26T09:15:25Z</time></trkpt><trkpt lat="37.96082720310248" lon="15.148644599052567"><ele>885.0</ele><time>2026-04-26T09:15:26Z</time></trkpt><trkpt lat="37.960758735666715" lon="15.14857206925797"><ele>885.0</ele><time>2026-04-26T09:15:27Z</time></trkpt><trkpt lat="37.96070535579055" lon="15.148524717518114"><ele>885.0</ele><time>2026-04-26T09:15:28Z</time></trkpt><trkpt lat="37.96061499827297" lon="15.14858916773612"><ele>885.0</ele><time>2026-04-26T09:15:30Z</time></trkpt><trkpt lat="37.960581455240536" lon="15.14865978535849"><ele>885.0</ele><time>2026-04-26T09:15:31Z</time></trkpt><trkpt lat="37.96056171851113" lon="15.148795104466268"><ele>885.0</ele><time>2026-04-26T09:15:33Z</time></trkpt><trkpt lat="37.960575243265225" lon="15.148880407673806"><ele>885.0</ele><time>2026-04-26T09:15:35Z</time></trkpt><trkpt lat="37.960677509914" lon="15.1488865159699"><ele>885.0</ele><time>2026-04-26T09:15:37Z</time></trkpt><trkpt lat="37.96075060850361" lon="15.148906882723947"><ele>885.0</ele><time>2026-04-26T09:15:38Z</time></trkpt><trkpt lat="37.960831203853054" lon="15.149037066405162"><ele>885.0</ele><time>2026-04-26T09:15:40Z</time></trkpt><trkpt lat="37.96086578308694" lon="15.149140494875414"><ele>885.0</ele><time>2026-04-26T09:15:41Z</time></trkpt><trkpt lat="37.9609014546824" lon="15.14924606442458"><ele>885.0</ele><time>2026-04-26T09:15:42Z</time></trkpt><trkpt lat="37.960919902241834" lon="15.149354264265256"><ele>889.1666666666666</ele><time>2026-04-26T09:15:43Z</time></trkpt><trkpt lat="37.9609280522555" lon="15.14944939793261"><ele>893.3333333333333</ele><time>2026-04-26T09:15:44Z</time></trkpt><trkpt lat="37.96095263295745" lon="15.149525628500392"><ele>897.5</ele><time>2026-04-26T09:15:45Z</time></trkpt><trkpt lat="37.96099127153968" lon="15.149609932368548"><ele>901.6666666666666</ele><time>2026-04-26T09:15:46Z</time></trkpt><trkpt lat="37.96106837814794" lon="15.149734238825692"><ele>905.8333333333333</ele><time>2026-04-26T09:15:48Z</time></trkpt><trkpt lat="37.96113113979504" lon="15.1497977537317"><ele>910.0</ele><time>2026-04-26T09:15:49Z</time></trkpt><trkpt lat="37.96119873478711" lon="15.149814843079099"><ele>909.9999999999999</ele><time>2026-04-26T09:15:50Z</time></trkpt><trkpt lat="37.96127078944986" lon="15.14981767955356"><ele>910.0</ele><time>2026-04-26T09:15:51Z</time></trkpt><trkpt lat="37.96135124619931" lon="15.149811015711695"><ele>910.0</ele><time>2026-04-26T09:15:52Z</time></trkpt><trkpt lat="37.96143217440463" lon="15.149808440667245"><ele>910.0</ele><time>2026-04-26T09:15:53Z</time></trkpt><trkpt lat="37.9615150195657" lon="15.149793868070613"><ele>909.9999999999999</ele><time>2026-04-26T09:15:54Z</time></trkpt><trkpt lat="37.9615883149575" lon="15.149769128399424"><ele>910.0</ele><time>2026-04-26T09:15:55Z</time></trkpt><trkpt lat="37.96165687409635" lon="15.149704109163249"><ele>910.0</ele><time>2026-04-26T09:15:57Z</time></trkpt><trkpt lat="37.961687369586514" lon="15.149576138369108"><ele>910.0</ele><time>2026-04-26T09:15:59Z</time></trkpt><trkpt lat="37.96170506918421" lon="15.149485974559573"><ele>910.0</ele><time>2026-04-26T09:16:00Z</time></trkpt><trkpt lat="37.961726466241466" lon="15.149386425331613"><ele>910.0</ele><time>2026-04-26T09:16:01Z</time></trkpt><trkpt lat="37.96175493571254" lon="15.14931060107463"><ele>910.0</ele><time>2026-04-26T09:16:02Z</time></trkpt><trkpt lat="37.961879474181764" lon="15.14923881699666"><ele>913.6</ele><time>2026-04-26T09:16:04Z</time></trkpt><trkpt lat="37.96197970402784" lon="15.149196729275795"><ele>917.2</ele><time>2026-04-26T09:16:05Z</time></trkpt><trkpt lat="37.96204007745761" lon="15.149168617883959"><ele>920.8</ele><time>2026-04-26T09:16:06Z</time></trkpt><trkpt lat="37.96218088930841" lon="15.149203729340153"><ele>924.4</ele><time>2026-04-26T09:16:08Z</time></trkpt><trkpt lat="37.96226818669911" lon="15.14923154657189"><ele>928.0</ele><time>2026-04-26T09:16:09Z</time></trkpt><trkpt lat="37.962364361351874" lon="15.149234737438452"><ele>928.0</ele><time>2026-04-26T09:16:10Z</time></trkpt><trkpt lat="37.962447444538604" lon="15.149254523189732"><ele>928.0</ele><time>2026-04-26T09:16:11Z</time></trkpt><trkpt lat="37.9625341262454" lon="15.149250509832894"><ele>928.0</ele><time>2026-04-26T09:16:13Z</time></trkpt><trkpt lat="37.96261138042302" lon="15.149126875128228"><ele>928.0</ele><time>2026-04-26T09:16:15Z</time></trkpt><trkpt lat="37.962634852228085" lon="15.149039615596003"><ele>928.0</ele><time>2026-04-26T09:16:16Z</time></trkpt><trkpt lat="37.96271351206878" lon="15.149009608708122"><ele>924.1666666666666</ele><time>2026-04-26T09:16:18Z</time></trkpt><trkpt lat="37.96277670503356" lon="15.149083337277476"><ele>920.3333333333333</ele><time>2026-04-26T09:16:20Z</time></trkpt><trkpt lat="37.962791309213806" lon="15.149176548443576"><ele>916.5</ele><time>2026-04-26T09:16:24Z</time></trkpt><trkpt lat="37.962772028721616" lon="15.14927010589897"><ele>912.6666666666667</ele><time>2026-04-26T09:16:26Z</time></trkpt><trkpt lat="37.96270789437562" lon="15.14936891579129"><ele>908.8333333333334</ele><time>2026-04-26T09:16:28Z</time></trkpt><trkpt lat="37.962657057992274" lon="15.149423330821882"><ele>905.0</ele><time>2026-04-26T09:16:29Z</time></trkpt><trkpt lat="37.96260203415007" lon="15.149466124908509"><ele>909.6</ele><time>2026-04-26T09:16:30Z</time></trkpt><trkpt lat="37.962524687969726" lon="15.14948641695992"><ele>914.2</ele><time>2026-04-26T09:16:31Z</time></trkpt><trkpt lat="37.96243149528774" lon="15.149503401175972"><ele>918.8</ele><time>2026-04-26T09:16:32Z</time></trkpt><trkpt lat="37.96232278764727" lon="15.149531669485382"><ele>923.4</ele><time>2026-04-26T09:16:33Z</time></trkpt><trkpt lat="37.96224923600885" lon="15.149556281135748"><ele>928.0</ele><time>2026-04-26T09:16:34Z</time></trkpt><trkpt lat="37.96217521794386" lon="15.149644237487426"><ele>927.9999999999999</ele><time>2026-04-26T09:16:36Z</time></trkpt><trkpt lat="37.96218204467899" lon="15.149776907731368"><ele>928.0</ele><time>2026-04-26T09:16:38.001Z</time></trkpt><trkpt lat="37.96221403580869" lon="15.149856235153841"><ele>928.0</ele><time>2026-04-26T09:16:39.001Z</time></trkpt><trkpt lat="37.962256586685896" lon="15.149928859623966"><ele>928.0</ele><time>2026-04-26T09:16:40.001Z</time></trkpt><trkpt lat="37.96230218196601" lon="15.150012543890142"><ele>927.9999999999999</ele><time>2026-04-26T09:16:41.001Z</time></trkpt><trkpt lat="37.96234484165745" lon="15.150085124304516"><ele>928.0</ele><time>2026-04-26T09:16:42.001Z</time></trkpt><trkpt lat="37.962360160050906" lon="15.150183347378768"><ele>933.5999999999999</ele><time>2026-04-26T09:16:44.001Z</time></trkpt><trkpt lat="37.96230275101574" lon="15.150291283850159"><ele>939.1999999999999</ele><time>2026-04-26T09:16:46.001Z</time></trkpt><trkpt lat="37.962214889092806" lon="15.150439223385293"><ele>944.8</ele><time>2026-04-26T09:16:48.001Z</time></trkpt><trkpt lat="37.96215667333251" lon="15.150494054454995"><ele>950.4</ele><time>2026-04-26T09:16:49.001Z</time></trkpt><trkpt lat="37.96203334656231" lon="15.150483412313267"><ele>956.0</ele><time>2026-04-26T09:16:51.001Z</time></trkpt><trkpt lat="37.96196048122834" lon="15.150442123406878"><ele>956.0</ele><time>2026-04-26T09:16:52.001Z</time></trkpt><trkpt lat="37.96183252842791" lon="15.150443958423331"><ele>956.0</ele><time>2026-04-26T09:16:54.001Z</time></trkpt><trkpt lat="37.96172024611968" lon="15.150496156942033"><ele>956.0</ele><time>2026-04-26T09:16:55.001Z</time></trkpt><trkpt lat="37.96161651028379" lon="15.150535631272588"><ele>956.0</ele><time>2026-04-26T09:16:56.001Z</time></trkpt><trkpt lat="37.96150710768935" lon="15.15055720873157"><ele>958.5999999999999</ele><time>2026-04-26T09:16:58Z</time></trkpt><trkpt lat="37.96142089103214" lon="15.150582873731357"><ele>961.1999999999999</ele><time>2026-04-26T09:16:59Z</time></trkpt><trkpt lat="37.96132978317409" lon="15.150637123813182"><ele>963.8000000000001</ele><time>2026-04-26T09:17:00Z</time></trkpt><trkpt lat="37.96123276051862" lon="15.150685074077193"><ele>966.4000000000001</ele><time>2026-04-26T09:17:01Z</time></trkpt><trkpt lat="37.96116860768494" lon="15.150718885721966"><ele>969.0</ele><time>2026-04-26T09:17:02Z</time></trkpt><trkpt lat="37.96115389734108" lon="15.150827878521826"><ele>969.0</ele><time>2026-04-26T09:17:04Z</time></trkpt><trkpt lat="37.96121459231463" lon="15.150916229158225"><ele>969.0000000000001</ele><time>2026-04-26T09:17:06Z</time></trkpt><trkpt lat="37.961267776882266" lon="15.150996456980812"><ele>969.0000000000001</ele><time>2026-04-26T09:17:08Z</time></trkpt><trkpt lat="37.96136412014902" lon="15.151067824760334"><ele>969.0</ele><time>2026-04-26T09:17:10Z</time></trkpt><trkpt lat="37.96150028081714" lon="15.151055152554116"><ele>969.0</ele><time>2026-04-26T09:17:12Z</time></trkpt><trkpt lat="37.96158935834041" lon="15.151041088584437"><ele>968.9999999999999</ele><time>2026-04-26T09:17:13Z</time></trkpt><trkpt lat="37.96166327129331" lon="15.151014311895699"><ele>969.0</ele><time>2026-04-26T09:17:14Z</time></trkpt><trkpt lat="37.96171812734538" lon="15.150965336452096"><ele>968.9999999999999</ele><time>2026-04-26T09:17:15Z</time></trkpt><trkpt lat="37.96178385514871" lon="15.151004605679862"><ele>968.9999999999999</ele><time>2026-04-26T09:17:17Z</time></trkpt><trkpt lat="37.96182914014126" lon="15.15106741586561"><ele>969.0</ele><time>2026-04-26T09:17:18Z</time></trkpt><trkpt lat="37.96189552696584" lon="15.151127520725975"><ele>968.9999999999999</ele><time>2026-04-26T09:17:19Z</time></trkpt><trkpt lat="37.96196445995323" lon="15.151163534412861"><ele>968.9999999999999</ele><time>2026-04-26T09:17:21Z</time></trkpt><trkpt lat="37.961958132038475" lon="15.151248207667404"><ele>970.8000000000001</ele><time>2026-04-26T09:17:24Z</time></trkpt><trkpt lat="37.96187442039774" lon="15.151333567232733"><ele>972.6000000000001</ele><time>2026-04-26T09:17:26Z</time></trkpt><trkpt lat="37.96174770914855" lon="15.151352610865631"><ele>974.4</ele><time>2026-04-26T09:17:28Z</time></trkpt><trkpt lat="37.96174287015709" lon="15.151465928370776"><ele>976.2</ele><time>2026-04-26T09:17:31Z</time></trkpt><trkpt lat="37.96183816735524" lon="15.151543841902697"><ele>978.0</ele><time>2026-04-26T09:17:33Z</time></trkpt><trkpt lat="37.96190275976649" lon="15.151552991955208"><ele>978.0</ele><time>2026-04-26T09:17:34Z</time></trkpt><trkpt lat="37.96198581950085" lon="15.151528600363617"><ele>978.0</ele><time>2026-04-26T09:17:35Z</time></trkpt><trkpt lat="37.96207218372282" lon="15.151485796781932"><ele>978.0</ele><time>2026-04-26T09:17:36Z</time></trkpt><trkpt lat="37.96216242081463" lon="15.15144999243565"><ele>978.0</ele><time>2026-04-26T09:17:37Z</time></trkpt><trkpt lat="37.96228175513383" lon="15.151444313149392"><ele>978.0</ele><time>2026-04-26T09:17:39Z</time></trkpt><trkpt lat="37.96234459001251" lon="15.151464747874606"><ele>978.0</ele><time>2026-04-26T09:17:40Z</time></trkpt><trkpt lat="37.96242607380089" lon="15.151482476474229"><ele>978.0</ele><time>2026-04-26T09:17:41Z</time></trkpt><trkpt lat="37.96251736597757" lon="15.151459103998132"><ele>978.0</ele><time>2026-04-26T09:17:42Z</time></trkpt><trkpt lat="37.96260096041857" lon="15.151443677604886"><ele>978.0</ele><time>2026-04-26T09:17:43Z</time></trkpt><trkpt lat="37.96268171466009" lon="15.151432070957602"><ele>978.0</ele><time>2026-04-26T09:17:44Z</time></trkpt><trkpt lat="37.96274478927457" lon="15.151439306118565"><ele>978.0</ele><time>2026-04-26T09:17:45Z</time></trkpt><trkpt lat="37.962808534768286" lon="15.151460930088332"><ele>981.0</ele><time>2026-04-26T09:17:46Z</time></trkpt><trkpt lat="37.962851566510594" lon="15.151520983445174"><ele>984.0</ele><time>2026-04-26T09:17:47Z</time></trkpt><trkpt lat="37.962894204643185" lon="15.151585459797056"><ele>987.0</ele><time>2026-04-26T09:17:48Z</time></trkpt><trkpt lat="37.962966979035826" lon="15.151728904539363"><ele>990.0</ele><time>2026-04-26T09:17:50Z</time></trkpt><trkpt lat="37.96306953662449" lon="15.151790207770157"><ele>993.0</ele><time>2026-04-26T09:17:52Z</time></trkpt><trkpt lat="37.963138543572214" lon="15.15175147205664"><ele>993.0</ele><time>2026-04-26T09:17:54Z</time></trkpt><trkpt lat="37.963169566067236" lon="15.151635016492252"><ele>993.0</ele><time>2026-04-26T09:17:56Z</time></trkpt><trkpt lat="37.963172576657996" lon="15.15155272260499"><ele>993.0</ele><time>2026-04-26T09:17:57Z</time></trkpt><trkpt lat="37.96321725556844" lon="15.151445848471761"><ele>993.0</ele><time>2026-04-26T09:17:59Z</time></trkpt><trkpt lat="37.96329832540482" lon="15.15138679912585"><ele>993.0</ele><time>2026-04-26T09:18:01Z</time></trkpt><trkpt lat="37.96336640543109" lon="15.151319400563317"><ele>993.0</ele><time>2026-04-26T09:18:02Z</time></trkpt><trkpt lat="37.9634283479483" lon="15.151254290713613"><ele>993.6666666666666</ele><time>2026-04-26T09:18:03Z</time></trkpt><trkpt lat="37.9635017071342" lon="15.151191063973329"><ele>994.3333333333333</ele><time>2026-04-26T09:18:04Z</time></trkpt><trkpt lat="37.963558629128954" lon="15.151141816311283"><ele>995.0</ele><time>2026-04-26T09:18:05Z</time></trkpt><trkpt lat="37.96360764659059" lon="15.151084418768354"><ele>995.6666666666666</ele><time>2026-04-26T09:18:06Z</time></trkpt><trkpt lat="37.963696896762414" lon="15.15103444435111"><ele>996.3333333333333</ele><time>2026-04-26T09:18:08Z</time></trkpt><trkpt lat="37.963821297857535" lon="15.151063585655718"><ele>997.0</ele><time>2026-04-26T09:18:10Z</time></trkpt><trkpt lat="37.96394921008566" lon="15.151059923446986"><ele>996.9999999999999</ele><time>2026-04-26T09:18:12Z</time></trkpt><trkpt lat="37.964015423430176" lon="15.151035945680517"><ele>997.0</ele><time>2026-04-26T09:18:13Z</time></trkpt><trkpt lat="37.96408020926352" lon="15.151029121620102"><ele>997.0</ele><time>2026-04-26T09:18:14Z</time></trkpt><trkpt lat="37.96414934142975" lon="15.151064292468018"><ele>997.0</ele><time>2026-04-26T09:18:15Z</time></trkpt><trkpt lat="37.96422981032794" lon="15.151078106943606"><ele>996.9999999999999</ele><time>2026-04-26T09:18:16Z</time></trkpt><trkpt lat="37.96429808942557" lon="15.15110224948783"><ele>997.0</ele><time>2026-04-26T09:18:17Z</time></trkpt><trkpt lat="37.964392313468366" lon="15.151125542738537"><ele>997.8333333333333</ele><time>2026-04-26T09:18:18Z</time></trkpt><trkpt lat="37.96446038652725" lon="15.15112774797738"><ele>998.6666666666666</ele><time>2026-04-26T09:18:19Z</time></trkpt><trkpt lat="37.9645354785049" lon="15.151126914252039"><ele>999.5</ele><time>2026-04-26T09:18:20Z</time></trkpt><trkpt lat="37.964624257711876" lon="15.151137895785393"><ele>1000.3333333333333</ele><time>2026-04-26T09:18:21Z</time></trkpt><trkpt lat="37.96469952359451" lon="15.151159492336909"><ele>1001.1666666666666</ele><time>2026-04-26T09:18:22Z</time></trkpt><trkpt lat="37.96478171909764" lon="15.151176024365125"><ele>1002.0</ele><time>2026-04-26T09:18:23Z</time></trkpt><trkpt lat="37.96485195080971" lon="15.151184979744151"><ele>1002.0</ele><time>2026-04-26T09:18:24Z</time></trkpt><trkpt lat="37.9649293082836" lon="15.151184737156864"><ele>1002.0</ele><time>2026-04-26T09:18:26Z</time></trkpt><trkpt lat="37.964990253269676" lon="15.151145210605133"><ele>1002.0</ele><time>2026-04-26T09:18:28Z</time></trkpt><trkpt lat="37.964920017420845" lon="15.15118876336746"><ele>1002.0</ele><time>2026-04-26T09:18:55.001Z</time></trkpt><trkpt lat="37.964850333020664" lon="15.15119159191643"><ele>1002.0</ele><time>2026-04-26T09:18:57.001Z</time></trkpt><trkpt lat="37.96477305726132" lon="15.151184348701543"><ele>1002.0</ele><time>2026-04-26T09:18:59.001Z</time></trkpt><trkpt lat="37.964690196123456" lon="15.151165597618853"><ele>1002.0</ele><time>2026-04-26T09:19:01.001Z</time></trkpt><trkpt lat="37.9645900554207" lon="15.151140979205394"><ele>1002.0</ele><time>2026-04-26T09:19:03.001Z</time></trkpt><trkpt lat="37.964493405874705" lon="15.151123901233225"><ele>1002.0</ele><time>2026-04-26T09:19:05.001Z</time></trkpt><trkpt lat="37.964424232173926" lon="15.151124561898415"><ele>1002.0</ele><time>2026-04-26T09:19:06.001Z</time></trkpt><trkpt lat="37.96435383508067" lon="15.151120728891422"><ele>1002.0</ele><time>2026-04-26T09:19:07.001Z</time></trkpt><trkpt lat="37.96424654386444" lon="15.151098142024756"><ele>1002.0</ele><time>2026-04-26T09:19:09.001Z</time></trkpt><trkpt lat="37.964142086477175" lon="15.151053089658777"><ele>1001.0</ele><time>2026-04-26T09:19:11Z</time></trkpt><trkpt lat="37.96405065257891" lon="15.151048766870911"><ele>1000.0</ele><time>2026-04-26T09:19:13Z</time></trkpt><trkpt lat="37.96395340964677" lon="15.151041332448193"><ele>999.0</ele><time>2026-04-26T09:19:15Z</time></trkpt><trkpt lat="37.96384377681026" lon="15.1510766731551"><ele>998.0</ele><time>2026-04-26T09:19:17Z</time></trkpt><trkpt lat="37.96374863370248" lon="15.15104154612125"><ele>997.0</ele><time>2026-04-26T09:19:19Z</time></trkpt><trkpt lat="37.96364813494087" lon="15.15104528238027"><ele>997.0</ele><time>2026-04-26T09:19:21Z</time></trkpt><trkpt lat="37.96357440570028" lon="15.151103233729593"><ele>997.0</ele><time>2026-04-26T09:19:23Z</time></trkpt><trkpt lat="37.96350847563207" lon="15.15118627293828"><ele>997.0</ele><time>2026-04-26T09:19:25Z</time></trkpt><trkpt lat="37.963432099398474" lon="15.151261202951778"><ele>997.0</ele><time>2026-04-26T09:19:27Z</time></trkpt><trkpt lat="37.96335622513125" lon="15.151315290710526"><ele>997.0</ele><time>2026-04-26T09:19:29Z</time></trkpt><trkpt lat="37.963276259200526" lon="15.151387172186647"><ele>996.4285714285713</ele><time>2026-04-26T09:19:31Z</time></trkpt><trkpt lat="37.963214873560545" lon="15.151461268736366"><ele>995.8571428571429</ele><time>2026-04-26T09:19:33Z</time></trkpt><trkpt lat="37.96317021884116" lon="15.151536173544267"><ele>995.2857142857142</ele><time>2026-04-26T09:19:36Z</time></trkpt><trkpt lat="37.96316279619875" lon="15.151618464480483"><ele>994.7142857142857</ele><time>2026-04-26T09:19:38Z</time></trkpt><trkpt lat="37.96317915113964" lon="15.151704132971291"><ele>994.1428571428571</ele><time>2026-04-26T09:19:40Z</time></trkpt><trkpt lat="37.96311612588075" lon="15.15177923533691"><ele>993.5714285714286</ele><time>2026-04-26T09:19:42Z</time></trkpt><trkpt lat="37.96305147599743" lon="15.151777993029567"><ele>993.0</ele><time>2026-04-26T09:19:44Z</time></trkpt><trkpt lat="37.96298140585707" lon="15.151714198763381"><ele>993.0</ele><time>2026-04-26T09:19:46Z</time></trkpt><trkpt lat="37.962916353299" lon="15.151626442884492"><ele>993.0</ele><time>2026-04-26T09:19:48Z</time></trkpt><trkpt lat="37.962832450422475" lon="15.151479859864216"><ele>993.0</ele><time>2026-04-26T09:19:51Z</time></trkpt><trkpt lat="37.96277980182477" lon="15.151429368916062"><ele>993.0</ele><time>2026-04-26T09:19:53Z</time></trkpt><trkpt lat="37.962727330091944" lon="15.151476666911952"><ele>993.0</ele><time>2026-04-26T09:20:02Z</time></trkpt><trkpt lat="37.962660986273704" lon="15.151565894037704"><ele>996.2</ele><time>2026-04-26T09:20:04Z</time></trkpt><trkpt lat="37.962578727095796" lon="15.151625152578138"><ele>999.4</ele><time>2026-04-26T09:20:06Z</time></trkpt><trkpt lat="37.96250576337334" lon="15.151671936477989"><ele>1002.6000000000001</ele><time>2026-04-26T09:20:09Z</time></trkpt><trkpt lat="37.96242508400621" lon="15.15170954454239"><ele>1005.8000000000001</ele><time>2026-04-26T09:20:13Z</time></trkpt><trkpt lat="37.96228573089697" lon="15.151722060322427"><ele>1009.0</ele><time>2026-04-26T09:20:15Z</time></trkpt><trkpt lat="37.962193728167826" lon="15.15172393017658"><ele>1009.0</ele><time>2026-04-26T09:20:16Z</time></trkpt><trkpt lat="37.9620839482785" lon="15.15176040270946"><ele>1009.0000000000001</ele><time>2026-04-26T09:20:18Z</time></trkpt><trkpt lat="37.961971120792164" lon="15.151873216444644"><ele>1009.0000000000001</ele><time>2026-04-26T09:20:20Z</time></trkpt><trkpt lat="37.96188630947125" lon="15.151909357047003"><ele>1009.0</ele><time>2026-04-26T09:20:21Z</time></trkpt><trkpt lat="37.96179549449282" lon="15.151903448854524"><ele>1009.0</ele><time>2026-04-26T09:20:22Z</time></trkpt><trkpt lat="37.96171582356731" lon="15.151890906776774"><ele>1005.9999999999999</ele><time>2026-04-26T09:20:23Z</time></trkpt><trkpt lat="37.96164005574015" lon="15.15193100676437"><ele>1003.0</ele><time>2026-04-26T09:20:24Z</time></trkpt><trkpt lat="37.96155719427265" lon="15.151991727088836"><ele>1000.0</ele><time>2026-04-26T09:20:25Z</time></trkpt><trkpt lat="37.961484875684235" lon="15.15202631867548"><ele>997.0</ele><time>2026-04-26T09:20:26Z</time></trkpt><trkpt lat="37.96145471503375" lon="15.152106607344969"><ele>993.9999999999999</ele><time>2026-04-26T09:20:29Z</time></trkpt><trkpt lat="37.961556234943664" lon="15.152151780994727"><ele>991.0</ele><time>2026-04-26T09:20:32Z</time></trkpt><trkpt lat="37.96163535387835" lon="15.152117622176549"><ele>994.5999999999999</ele><time>2026-04-26T09:20:33Z</time></trkpt><trkpt lat="37.9617403519161" lon="15.152093526629345"><ele>998.1999999999999</ele><time>2026-04-26T09:20:34Z</time></trkpt><trkpt lat="37.96183977060914" lon="15.152086577771822"><ele>1001.8000000000001</ele><time>2026-04-26T09:20:35Z</time></trkpt><trkpt lat="37.96191910505314" lon="15.152087411583471"><ele>1005.4000000000001</ele><time>2026-04-26T09:20:36Z</time></trkpt><trkpt lat="37.96204598024402" lon="15.152153177818764"><ele>1009.0</ele><time>2026-04-26T09:20:38Z</time></trkpt><trkpt lat="37.96211189115558" lon="15.152164970348869"><ele>1008.9999999999999</ele><time>2026-04-26T09:20:39Z</time></trkpt><trkpt lat="37.96218455825648" lon="15.152132824075574"><ele>1009.0</ele><time>2026-04-26T09:20:40Z</time></trkpt><trkpt lat="37.96224103904098" lon="15.152086032980222"><ele>1009.0</ele><time>2026-04-26T09:20:41Z</time></trkpt><trkpt lat="37.9623021838905" lon="15.152064354609156"><ele>1009.0</ele><time>2026-04-26T09:20:42Z</time></trkpt><trkpt lat="37.96237567655131" lon="15.152084903713929"><ele>1008.9999999999999</ele><time>2026-04-26T09:20:44Z</time></trkpt><trkpt lat="37.96234617813325" lon="15.152163421372014"><ele>1009.0</ele><time>2026-04-26T09:20:46Z</time></trkpt><trkpt lat="37.962236266400495" lon="15.152213915922696"><ele>1008.9999999999999</ele><time>2026-04-26T09:20:48Z</time></trkpt><trkpt lat="37.96216308969238" lon="15.152237230965618"><ele>1009.0</ele><time>2026-04-26T09:20:49Z</time></trkpt><trkpt lat="37.962096363225" lon="15.152279648538457"><ele>1009.0</ele><time>2026-04-26T09:20:50.001Z</time></trkpt><trkpt lat="37.96202447260543" lon="15.152338378715745"><ele>1009.0</ele><time>2026-04-26T09:20:51.001Z</time></trkpt><trkpt lat="37.96195342977527" lon="15.152366085923896"><ele>1008.9999999999999</ele><time>2026-04-26T09:20:52.001Z</time></trkpt><trkpt lat="37.96197264015888" lon="15.152468191562802"><ele>1009.0</ele><time>2026-04-26T09:20:55.001Z</time></trkpt><trkpt lat="37.96205134691204" lon="15.15249701433816"><ele>1012.1428571428571</ele><time>2026-04-26T09:20:57.001Z</time></trkpt><trkpt lat="37.96211385241366" lon="15.152517126143396"><ele>1015.2857142857142</ele><time>2026-04-26T09:20:58.001Z</time></trkpt><trkpt lat="37.96218310133526" lon="15.152553689857042"><ele>1018.4285714285713</ele><time>2026-04-26T09:20:59.001Z</time></trkpt><trkpt lat="37.96224724016672" lon="15.152578413860125"><ele>1021.5714285714286</ele><time>2026-04-26T09:21:00.001Z</time></trkpt><trkpt lat="37.9623102761932" lon="15.152561814065745"><ele>1024.7142857142856</ele><time>2026-04-26T09:21:01.001Z</time></trkpt><trkpt lat="37.962380359902895" lon="15.15252639094412"><ele>1027.857142857143</ele><time>2026-04-26T09:21:02.001Z</time></trkpt><trkpt lat="37.962456043953395" lon="15.15248857033583"><ele>1031.0</ele><time>2026-04-26T09:21:03.001Z</time></trkpt><trkpt lat="37.96252587947505" lon="15.15246082771553"><ele>1032.1666666666667</ele><time>2026-04-26T09:21:04.001Z</time></trkpt><trkpt lat="37.96260232723149" lon="15.152444451791178"><ele>1033.3333333333335</ele><time>2026-04-26T09:21:05.001Z</time></trkpt><trkpt lat="37.962665496779586" lon="15.152445053079465"><ele>1034.5</ele><time>2026-04-26T09:21:06.001Z</time></trkpt><trkpt lat="37.962727437979" lon="15.152410315577688"><ele>1035.6666666666667</ele><time>2026-04-26T09:21:07.001Z</time></trkpt><trkpt lat="37.96278633584212" lon="15.152356844628383"><ele>1036.8333333333333</ele><time>2026-04-26T09:21:08.001Z</time></trkpt><trkpt lat="37.96289117087791" lon="15.152365177364885"><ele>1038.0</ele><time>2026-04-26T09:21:10.001Z</time></trkpt><trkpt lat="37.96297678324618" lon="15.152417206140857"><ele>1038.0</ele><time>2026-04-26T09:21:11.001Z</time></trkpt><trkpt lat="37.96304744254192" lon="15.152467085212841"><ele>1038.0</ele><time>2026-04-26T09:21:12.001Z</time></trkpt><trkpt lat="37.96312421617026" lon="15.152568733440955"><ele>1038.0</ele><time>2026-04-26T09:21:14.001Z</time></trkpt><trkpt lat="37.96316011592616" lon="15.152639007789602"><ele>1038.0</ele><time>2026-04-26T09:21:15.001Z</time></trkpt><trkpt lat="37.963162672700385" lon="15.152724293740475"><ele>1038.0</ele><time>2026-04-26T09:21:16.001Z</time></trkpt><trkpt lat="37.963183361135464" lon="15.152858914301445"><ele>1038.0</ele><time>2026-04-26T09:21:18.001Z</time></trkpt><trkpt lat="37.96328691773588" lon="15.152877813619538"><ele>1038.0</ele><time>2026-04-26T09:21:20.001Z</time></trkpt><trkpt lat="37.96335246932273" lon="15.1528647121924"><ele>1038.0</ele><time>2026-04-26T09:21:21.001Z</time></trkpt><trkpt lat="37.96344287614154" lon="15.152836454471613"><ele>1038.0</ele><time>2026-04-26T09:21:22Z</time></trkpt><trkpt lat="37.963529471164144" lon="15.15282348774162"><ele>1038.0</ele><time>2026-04-26T09:21:23Z</time></trkpt><trkpt lat="37.96360514633421" lon="15.152823348621201"><ele>1038.0</ele><time>2026-04-26T09:21:24Z</time></trkpt><trkpt lat="37.963682956113885" lon="15.152851402252056"><ele>1038.0</ele><time>2026-04-26T09:21:26Z</time></trkpt><trkpt lat="37.96377015336149" lon="15.152902646296425"><ele>1040.3333333333333</ele><time>2026-04-26T09:21:28Z</time></trkpt><trkpt lat="37.963845020038555" lon="15.152932248947659"><ele>1042.6666666666667</ele><time>2026-04-26T09:21:30Z</time></trkpt><trkpt lat="37.963917184220705" lon="15.152847148562978"><ele>1045.0</ele><time>2026-04-26T09:21:33Z</time></trkpt><trkpt lat="37.96395093107982" lon="15.152756123356951"><ele>1047.3333333333335</ele><time>2026-04-26T09:21:34Z</time></trkpt><trkpt lat="37.963977845172465" lon="15.152649256824857"><ele>1049.6666666666667</ele><time>2026-04-26T09:21:35Z</time></trkpt><trkpt lat="37.96400489282538" lon="15.152538713032289"><ele>1052.0</ele><time>2026-04-26T09:21:36Z</time></trkpt><trkpt lat="37.96403014380617" lon="15.152449271758291"><ele>1051.0</ele><time>2026-04-26T09:21:37Z</time></trkpt><trkpt lat="37.96411474094852" lon="15.152371301775963"><ele>1050.0</ele><time>2026-04-26T09:21:39Z</time></trkpt><trkpt lat="37.96417800053254" lon="15.152348585450037"><ele>1049.0</ele><time>2026-04-26T09:21:40Z</time></trkpt><trkpt lat="37.96429213276084" lon="15.152266612138831"><ele>1048.0</ele><time>2026-04-26T09:21:42Z</time></trkpt><trkpt lat="37.964344843410544" lon="15.152209829925344"><ele>1047.0</ele><time>2026-04-26T09:21:43Z</time></trkpt><trkpt lat="37.96437489009666" lon="15.152125236150223"><ele>1046.0</ele><time>2026-04-26T09:21:44Z</time></trkpt><trkpt lat="37.96438743222629" lon="15.152039074887508"><ele>1046.0</ele><time>2026-04-26T09:21:45Z</time></trkpt><trkpt lat="37.964410755444895" lon="15.15194400199528"><ele>1046.0</ele><time>2026-04-26T09:21:46Z</time></trkpt><trkpt lat="37.964437502314205" lon="15.151859192223656"><ele>1046.0</ele><time>2026-04-26T09:21:47Z</time></trkpt><trkpt lat="37.96447224828519" lon="15.151787011777865"><ele>1046.0</ele><time>2026-04-26T09:21:48Z</time></trkpt><trkpt lat="37.96457649906386" lon="15.151724477648003"><ele>1046.0</ele><time>2026-04-26T09:21:50Z</time></trkpt><trkpt lat="37.964711035587605" lon="15.151754950894633"><ele>1045.9999999999998</ele><time>2026-04-26T09:21:52Z</time></trkpt><trkpt lat="37.96477870998461" lon="15.151779681835373"><ele>1046.0</ele><time>2026-04-26T09:21:53Z</time></trkpt><trkpt lat="37.9648540647444" lon="15.151813044700765"><ele>1046.0</ele><time>2026-04-26T09:21:54Z</time></trkpt><trkpt lat="37.964922777230214" lon="15.15184299133353"><ele>1046.0</ele><time>2026-04-26T09:21:55Z</time></trkpt><trkpt lat="37.96499393358501" lon="15.151859474837867"><ele>1046.0</ele><time>2026-04-26T09:21:56Z</time></trkpt><trkpt lat="37.96507344241977" lon="15.151883902335756"><ele>1045.9999999999998</ele><time>2026-04-26T09:21:57Z</time></trkpt><trkpt lat="37.96513164834936" lon="15.151933790810036"><ele>1046.0</ele><time>2026-04-26T09:21:58Z</time></trkpt><trkpt lat="37.965234810038616" lon="15.152043558563879"><ele>1045.6666666666667</ele><time>2026-04-26T09:22:00Z</time></trkpt><trkpt lat="37.96530181462579" lon="15.152077343549522"><ele>1045.3333333333335</ele><time>2026-04-26T09:22:01Z</time></trkpt><trkpt lat="37.96535665936208" lon="15.152120574559504"><ele>1045.0</ele><time>2026-04-26T09:22:02Z</time></trkpt><trkpt lat="37.96542247037689" lon="15.152155640181597"><ele>1044.6666666666667</ele><time>2026-04-26T09:22:03Z</time></trkpt><trkpt lat="37.96549894300591" lon="15.152171528327203"><ele>1044.3333333333333</ele><time>2026-04-26T09:22:04Z</time></trkpt><trkpt lat="37.965600156530094" lon="15.152176805140321"><ele>1044.0</ele><time>2026-04-26T09:22:05Z</time></trkpt><trkpt lat="37.96569404975132" lon="15.152186291819334"><ele>1044.0</ele><time>2026-04-26T09:22:06Z</time></trkpt><trkpt lat="37.96578639807618" lon="15.152198998978013"><ele>1044.0</ele><time>2026-04-26T09:22:07Z</time></trkpt><trkpt lat="37.965906511285624" lon="15.152200037588283"><ele>1044.0</ele><time>2026-04-26T09:22:08Z</time></trkpt><trkpt lat="37.96601592368281" lon="15.152187502905443"><ele>1044.0</ele><time>2026-04-26T09:22:09Z</time></trkpt><trkpt lat="37.966114778588256" lon="15.152171643350327"><ele>1044.0</ele><time>2026-04-26T09:22:10Z</time></trkpt><trkpt lat="37.96621197718592" lon="15.152152910450338"><ele>1045.2</ele><time>2026-04-26T09:22:11Z</time></trkpt><trkpt lat="37.96631073241112" lon="15.152126021943209"><ele>1046.4</ele><time>2026-04-26T09:22:11.999Z</time></trkpt><trkpt lat="37.96640303093088" lon="15.152079409514208"><ele>1047.6</ele><time>2026-04-26T09:22:12.999Z</time></trkpt><trkpt lat="37.96648723313345" lon="15.152055311189173"><ele>1048.8</ele><time>2026-04-26T09:22:13.999Z</time></trkpt><trkpt lat="37.96659849568153" lon="15.152037476246697"><ele>1050.0</ele><time>2026-04-26T09:22:15.999Z</time></trkpt><trkpt lat="37.96671414500832" lon="15.15202577679965"><ele>1051.0</ele><time>2026-04-26T09:22:17.999Z</time></trkpt><trkpt lat="37.966802117473875" lon="15.15200513294334"><ele>1052.0</ele><time>2026-04-26T09:22:19.999Z</time></trkpt><trkpt lat="37.96688065068079" lon="15.151997071944836"><ele>1053.0</ele><time>2026-04-26T09:22:58Z</time></trkpt><trkpt lat="37.96697312942497" lon="15.152010750249488"><ele>1054.0</ele><time>2026-04-26T09:23:01Z</time></trkpt><trkpt lat="37.96704009007947" lon="15.152017956385981"><ele>1055.0</ele><time>2026-04-26T09:23:03Z</time></trkpt><trkpt lat="37.96710313592898" lon="15.152045506090834"><ele>1056.0</ele><time>2026-04-26T09:23:07Z</time></trkpt><trkpt lat="37.967180560608625" lon="15.152009780253856"><ele>1056.0</ele><time>2026-04-26T09:23:27Z</time></trkpt><trkpt lat="37.96729354693475" lon="15.151950800100208"><ele>1056.0</ele><time>2026-04-26T09:23:29Z</time></trkpt><trkpt lat="37.967354544735045" lon="15.151922678734866"><ele>1056.0</ele><time>2026-04-26T09:23:30Z</time></trkpt><trkpt lat="37.96744541845097" lon="15.151887235803693"><ele>1056.0</ele><time>2026-04-26T09:23:31.999Z</time></trkpt><trkpt lat="37.967490899921536" lon="15.152008233159448"><ele>1056.0</ele><time>2026-04-26T09:23:34.999Z</time></trkpt><trkpt lat="37.96747003636833" lon="15.15217620907045"><ele>1056.0</ele><time>2026-04-26T09:23:36.999Z</time></trkpt><trkpt lat="37.9674430325986" lon="15.152281858893586"><ele>1056.0</ele><time>2026-04-26T09:23:37.999Z</time></trkpt><trkpt lat="37.96739895892337" lon="15.152423024327812"><ele>1056.0</ele><time>2026-04-26T09:23:38.999Z</time></trkpt><trkpt lat="37.96735684654006" lon="15.152576082480069"><ele>1056.0</ele><time>2026-04-26T09:23:39.999Z</time></trkpt><trkpt lat="37.96730096398401" lon="15.15270924060237"><ele>1055.8</ele><time>2026-04-26T09:23:40.999Z</time></trkpt><trkpt lat="37.96723629088151" lon="15.15283860431801"><ele>1055.6</ele><time>2026-04-26T09:23:41.999Z</time></trkpt><trkpt lat="37.967174882155135" lon="15.15295193813234"><ele>1055.4</ele><time>2026-04-26T09:23:42.999Z</time></trkpt><trkpt lat="37.9671266004264" lon="15.153044637940903"><ele>1055.2</ele><time>2026-04-26T09:23:43.999Z</time></trkpt><trkpt lat="37.96703865090176" lon="15.153161966447918"><ele>1055.0</ele><time>2026-04-26T09:23:45.999Z</time></trkpt><trkpt lat="37.96697901096559" lon="15.153209568481769"><ele>1055.0</ele><time>2026-04-26T09:23:46.999Z</time></trkpt><trkpt lat="37.96691117953227" lon="15.153257077226304"><ele>1055.0</ele><time>2026-04-26T09:23:47.999Z</time></trkpt><trkpt lat="37.96684033240955" lon="15.153315757087652"><ele>1055.0</ele><time>2026-04-26T09:23:48.999Z</time></trkpt><trkpt lat="37.96675915116014" lon="15.153398871980725"><ele>1055.0</ele><time>2026-04-26T09:23:49.999Z</time></trkpt><trkpt lat="37.96668610471542" lon="15.153493280462559"><ele>1055.0</ele><time>2026-04-26T09:23:50.999Z</time></trkpt><trkpt lat="37.96660767668884" lon="15.153569470233187"><ele>1058.4</ele><time>2026-04-26T09:23:51.999Z</time></trkpt><trkpt lat="37.966518453396176" lon="15.153626746902074"><ele>1061.8</ele><time>2026-04-26T09:23:52.999Z</time></trkpt><trkpt lat="37.96643809448726" lon="15.15368995938922"><ele>1065.2</ele><time>2026-04-26T09:23:53.999Z</time></trkpt><trkpt lat="37.966376484972315" lon="15.153774215936199"><ele>1068.6</ele><time>2026-04-26T09:23:54.999Z</time></trkpt><trkpt lat="37.96631164907038" lon="15.153873058229298"><ele>1072.0</ele><time>2026-04-26T09:23:55.999Z</time></trkpt><trkpt lat="37.966239793874095" lon="15.15396031137954"><ele>1066.4</ele><time>2026-04-26T09:23:56.999Z</time></trkpt><trkpt lat="37.96618026929092" lon="15.15406070590791"><ele>1060.8000000000002</ele><time>2026-04-26T09:23:57.999Z</time></trkpt><trkpt lat="37.96612946759671" lon="15.154191785997499"><ele>1055.2</ele><time>2026-04-26T09:23:58.999Z</time></trkpt><trkpt lat="37.966069791858175" lon="15.154321602594736"><ele>1049.6000000000001</ele><time>2026-04-26T09:23:59.999Z</time></trkpt><trkpt lat="37.96600814465198" lon="15.154413656784621"><ele>1044.0</ele><time>2026-04-26T09:24:00.999Z</time></trkpt><trkpt lat="37.96595570544251" lon="15.15447427009171"><ele>1044.0</ele><time>2026-04-26T09:24:01.999Z</time></trkpt><trkpt lat="37.965884708148" lon="15.154554316512222"><ele>1044.0</ele><time>2026-04-26T09:24:03.999Z</time></trkpt><trkpt lat="37.96584289307253" lon="15.154618127313475"><ele>1044.0</ele><time>2026-04-26T09:24:06.999Z</time></trkpt><trkpt lat="37.96581490101516" lon="15.154700103889125"><ele>1044.0</ele><time>2026-04-26T09:24:27.999Z</time></trkpt><trkpt lat="37.96575644125532" lon="15.154768280047112"><ele>1044.0</ele><time>2026-04-26T09:24:31.999Z</time></trkpt><trkpt lat="37.96566968827142" lon="15.154841649445135"><ele>1044.0</ele><time>2026-04-26T09:24:57.999Z</time></trkpt><trkpt lat="37.96558080658568" lon="15.154936917443514"><ele>1046.6666666666667</ele><time>2026-04-26T09:24:59.999Z</time></trkpt><trkpt lat="37.96553792396317" lon="15.155012115599307"><ele>1049.3333333333333</ele><time>2026-04-26T09:25:00.999Z</time></trkpt><trkpt lat="37.96547977421247" lon="15.155096189010454"><ele>1052.0</ele><time>2026-04-26T09:25:02Z</time></trkpt><trkpt lat="37.96540798703948" lon="15.15518572820362"><ele>1054.6666666666665</ele><time>2026-04-26T09:25:03Z</time></trkpt><trkpt lat="37.96535284923366" lon="15.155277050584811"><ele>1057.3333333333333</ele><time>2026-04-26T09:25:04Z</time></trkpt><trkpt lat="37.965316782881466" lon="15.155372918675702"><ele>1060.0</ele><time>2026-04-26T09:25:05Z</time></trkpt><trkpt lat="37.96529271487078" lon="15.155467417221166"><ele>1060.0</ele><time>2026-04-26T09:25:06Z</time></trkpt><trkpt lat="37.965276021491626" lon="15.15557188482505"><ele>1060.0</ele><time>2026-04-26T09:25:07Z</time></trkpt><trkpt lat="37.96525384007201" lon="15.155679549481174"><ele>1060.0</ele><time>2026-04-26T09:25:08Z</time></trkpt><trkpt lat="37.96522571933066" lon="15.155784987208234"><ele>1060.0</ele><time>2026-04-26T09:25:09Z</time></trkpt><trkpt lat="37.96518219826161" lon="15.15589761771007"><ele>1060.0</ele><time>2026-04-26T09:25:10Z</time></trkpt><trkpt lat="37.96513663511471" lon="15.155991284636158"><ele>1060.0</ele><time>2026-04-26T09:25:11Z</time></trkpt><trkpt lat="37.96508872289763" lon="15.156105036675797"><ele>1058.0</ele><time>2026-04-26T09:25:12Z</time></trkpt><trkpt lat="37.96505670827248" lon="15.156226342645938"><ele>1056.0</ele><time>2026-04-26T09:25:13Z</time></trkpt><trkpt lat="37.96502584572933" lon="15.15636056688142"><ele>1054.0</ele><time>2026-04-26T09:25:14Z</time></trkpt><trkpt lat="37.965001557764396" lon="15.156486662797674"><ele>1052.0</ele><time>2026-04-26T09:25:15Z</time></trkpt><trkpt lat="37.96496747320012" lon="15.15663937173183"><ele>1050.0</ele><time>2026-04-26T09:25:16Z</time></trkpt><trkpt lat="37.964924003922434" lon="15.156764601380623"><ele>1055.4</ele><time>2026-04-26T09:25:17Z</time></trkpt><trkpt lat="37.964873756198315" lon="15.156875411219032"><ele>1060.8</ele><time>2026-04-26T09:25:18Z</time></trkpt><trkpt lat="37.96482851456837" lon="15.15698158436238"><ele>1066.2</ele><time>2026-04-26T09:25:19Z</time></trkpt><trkpt lat="37.96481580045365" lon="15.157095174234167"><ele>1071.6</ele><time>2026-04-26T09:25:20Z</time></trkpt><trkpt lat="37.96484198875672" lon="15.15722426420132"><ele>1077.0</ele><time>2026-04-26T09:25:21Z</time></trkpt><trkpt lat="37.96488073312198" lon="15.157370465159786"><ele>1077.0</ele><time>2026-04-26T09:25:22Z</time></trkpt><trkpt lat="37.96488364124678" lon="15.15749823940217"><ele>1077.0</ele><time>2026-04-26T09:25:23Z</time></trkpt><trkpt lat="37.96485841898011" lon="15.157654773778765"><ele>1077.0</ele><time>2026-04-26T09:25:24Z</time></trkpt><trkpt lat="37.96484237960864" lon="15.157828001208678"><ele>1077.0</ele><time>2026-04-26T09:25:25Z</time></trkpt><trkpt lat="37.96484009888406" lon="15.15801393996258"><ele>1077.0</ele><time>2026-04-26T09:25:26Z</time></trkpt><trkpt lat="37.964859861416244" lon="15.15817926519539"><ele>1077.0</ele><time>2026-04-26T09:25:27Z</time></trkpt><trkpt lat="37.96488305554408" lon="15.158310757285484"><ele>1077.0</ele><time>2026-04-26T09:25:28Z</time></trkpt><trkpt lat="37.964891627935465" lon="15.158445928507252"><ele>1077.0</ele><time>2026-04-26T09:25:29Z</time></trkpt><trkpt lat="37.96488234461051" lon="15.15856566519302"><ele>1077.0</ele><time>2026-04-26T09:25:30Z</time></trkpt><trkpt lat="37.96488543438872" lon="15.158690111914865"><ele>1078.0</ele><time>2026-04-26T09:25:31Z</time></trkpt><trkpt lat="37.96489333644074" lon="15.158802663385904"><ele>1079.0</ele><time>2026-04-26T09:25:32Z</time></trkpt><trkpt lat="37.96486880237214" lon="15.158916685189764"><ele>1080.0</ele><time>2026-04-26T09:25:33Z</time></trkpt><trkpt lat="37.96481112387203" lon="15.159023796673033"><ele>1081.0</ele><time>2026-04-26T09:25:34Z</time></trkpt><trkpt lat="37.96474227131481" lon="15.15914301073229"><ele>1082.0</ele><time>2026-04-26T09:25:35Z</time></trkpt><trkpt lat="37.964695178917836" lon="15.159259863385232"><ele>1083.0</ele><time>2026-04-26T09:25:36Z</time></trkpt><trkpt lat="37.9646784139015" lon="15.159371030075699"><ele>1084.0</ele><time>2026-04-26T09:25:37Z</time></trkpt><trkpt lat="37.96462933169503" lon="15.159496528022553"><ele>1085.0</ele><time>2026-04-26T09:25:38Z</time></trkpt><trkpt lat="37.96455398544147" lon="15.159572027960811"><ele>1086.0</ele><time>2026-04-26T09:25:39Z</time></trkpt><trkpt lat="37.96446673225232" lon="15.159646937275758"><ele>1087.0</ele><time>2026-04-26T09:25:40Z</time></trkpt><trkpt lat="37.96436734623067" lon="15.159657765956242"><ele>1087.0</ele><time>2026-04-26T09:25:41Z</time></trkpt><trkpt lat="37.96424350706775" lon="15.159654231169341"><ele>1087.0</ele><time>2026-04-26T09:25:42Z</time></trkpt><trkpt lat="37.96411398176129" lon="15.159647554950546"><ele>1087.0</ele><time>2026-04-26T09:25:43Z</time></trkpt><trkpt lat="37.96399270347615" lon="15.159665038029502"><ele>1087.0</ele><time>2026-04-26T09:25:44Z</time></trkpt><trkpt lat="37.96388510411674" lon="15.159701473266768"><ele>1085.8</ele><time>2026-04-26T09:25:44.999Z</time></trkpt><trkpt lat="37.96379289036938" lon="15.159767108362002"><ele>1084.6</ele><time>2026-04-26T09:25:45.999Z</time></trkpt><trkpt lat="37.96370558653466" lon="15.159841314041719"><ele>1083.3999999999999</ele><time>2026-04-26T09:25:46.999Z</time></trkpt><trkpt lat="37.96360495331954" lon="15.159923437549912"><ele>1082.2</ele><time>2026-04-26T09:25:47.999Z</time></trkpt><trkpt lat="37.96352148848253" lon="15.159988000513872"><ele>1081.0</ele><time>2026-04-26T09:25:48.999Z</time></trkpt><trkpt lat="37.96343496917671" lon="15.160069905013724"><ele>1086.3999999999999</ele><time>2026-04-26T09:25:49.999Z</time></trkpt><trkpt lat="37.963356714629114" lon="15.160155262718083"><ele>1091.8</ele><time>2026-04-26T09:25:50.999Z</time></trkpt><trkpt lat="37.96326013844472" lon="15.160210152639932"><ele>1097.1999999999998</ele><time>2026-04-26T09:25:51.999Z</time></trkpt><trkpt lat="37.96317684688256" lon="15.160249790120998"><ele>1102.6</ele><time>2026-04-26T09:25:52.999Z</time></trkpt><trkpt lat="37.96309389858249" lon="15.160305876040477"><ele>1108.0</ele><time>2026-04-26T09:25:53.999Z</time></trkpt><trkpt lat="37.96299593931899" lon="15.160395226851758"><ele>1108.0</ele><time>2026-04-26T09:25:54.999Z</time></trkpt><trkpt lat="37.96289440378166" lon="15.160489130936895"><ele>1108.0</ele><time>2026-04-26T09:25:55.999Z</time></trkpt><trkpt lat="37.96278591864666" lon="15.160607763789466"><ele>1108.0</ele><time>2026-04-26T09:25:56.999Z</time></trkpt><trkpt lat="37.96266591497304" lon="15.160714839115217"><ele>1108.0</ele><time>2026-04-26T09:25:57.999Z</time></trkpt><trkpt lat="37.962568487099475" lon="15.16081215422205"><ele>1108.25</ele><time>2026-04-26T09:25:58.999Z</time></trkpt><trkpt lat="37.96251636151374" lon="15.16090766500908"><ele>1108.5</ele><time>2026-04-26T09:25:59.999Z</time></trkpt><trkpt lat="37.9624952481889" lon="15.16103803229087"><ele>1108.75</ele><time>2026-04-26T09:26:00.999Z</time></trkpt><trkpt lat="37.962469801613004" lon="15.161157016584864"><ele>1109.0</ele><time>2026-04-26T09:26:01.999Z</time></trkpt><trkpt lat="37.96231398091631" lon="15.161289124685615"><ele>1109.0</ele><time>2026-04-26T09:26:02.999Z</time></trkpt><trkpt lat="37.96223267829858" lon="15.161362924653897"><ele>1109.0</ele><time>2026-04-26T09:26:04.999Z</time></trkpt><trkpt lat="37.9621240171625" lon="15.161407815436098"><ele>1109.0</ele><time>2026-04-26T09:26:06.999Z</time></trkpt><trkpt lat="37.96205373636375" lon="15.16140787113344"><ele>1109.0</ele><time>2026-04-26T09:26:07.999Z</time></trkpt><trkpt lat="37.96197046654571" lon="15.16138695722438"><ele>1109.0</ele><time>2026-04-26T09:26:08.999Z</time></trkpt><trkpt lat="37.96189293697736" lon="15.16133928214811"><ele>1109.0</ele><time>2026-04-26T09:26:09.999Z</time></trkpt><trkpt lat="37.961814002558754" lon="15.161295903606893"><ele>1109.0</ele><time>2026-04-26T09:26:10.999Z</time></trkpt><trkpt lat="37.96173351600368" lon="15.16128363984336"><ele>1109.0</ele><time>2026-04-26T09:26:11.999Z</time></trkpt><trkpt lat="37.96162885581884" lon="15.16130296907156"><ele>1109.0</ele><time>2026-04-26T09:26:12.999Z</time></trkpt><trkpt lat="37.9615274944015" lon="15.161331589299515"><ele>1109.0</ele><time>2026-04-26T09:26:13.999Z</time></trkpt><trkpt lat="37.96142376091154" lon="15.161371617827596"><ele>1117.0</ele><time>2026-04-26T09:26:14.999Z</time></trkpt><trkpt lat="37.961304046373726" lon="15.161430023544387"><ele>1125.0</ele><time>2026-04-26T09:26:15.999Z</time></trkpt><trkpt lat="37.961183146463185" lon="15.161467170788393"><ele>1133.0</ele><time>2026-04-26T09:26:16.999Z</time></trkpt><trkpt lat="37.96106362207929" lon="15.161483339013746"><ele>1141.0</ele><time>2026-04-26T09:26:17.999Z</time></trkpt><trkpt lat="37.960941390803335" lon="15.161490839219892"><ele>1143.5</ele><time>2026-04-26T09:26:18.999Z</time></trkpt><trkpt lat="37.96083383624866" lon="15.161479458549643"><ele>1146.0</ele><time>2026-04-26T09:26:19.999Z</time></trkpt><trkpt lat="37.96071310590995" lon="15.161472822049516"><ele>1148.5</ele><time>2026-04-26T09:26:20.999Z</time></trkpt><trkpt lat="37.96059141989657" lon="15.161460005667006"><ele>1151.0</ele><time>2026-04-26T09:26:21.999Z</time></trkpt><trkpt lat="37.96049083397637" lon="15.1614673119731"><ele>1151.0</ele><time>2026-04-26T09:26:22.999Z</time></trkpt><trkpt lat="37.960402925647145" lon="15.16151264965524"><ele>1151.0</ele><time>2026-04-26T09:26:23.999Z</time></trkpt><trkpt lat="37.960337052691884" lon="15.16155780605563"><ele>1151.0</ele><time>2026-04-26T09:26:24.999Z</time></trkpt><trkpt lat="37.96026921378576" lon="15.161527571733261"><ele>1151.0</ele><time>2026-04-26T09:26:25.999Z</time></trkpt><trkpt lat="37.96021570511113" lon="15.161460654756892"><ele>1151.0</ele><time>2026-04-26T09:26:26.999Z</time></trkpt><trkpt lat="37.96014823916924" lon="15.161362569262335"><ele>1151.0</ele><time>2026-04-26T09:26:27.999Z</time></trkpt><trkpt lat="37.96009135646894" lon="15.1612663694385"><ele>1154.2</ele><time>2026-04-26T09:26:28.999Z</time></trkpt><trkpt lat="37.96003211366118" lon="15.161229249953546"><ele>1157.3999999999999</ele><time>2026-04-26T09:26:29.999Z</time></trkpt><trkpt lat="37.959950089941266" lon="15.16123767760555"><ele>1160.6</ele><time>2026-04-26T09:26:30.999Z</time></trkpt><trkpt lat="37.959854691617885" lon="15.161291611286021"><ele>1163.8</ele><time>2026-04-26T09:26:31.999Z</time></trkpt><trkpt lat="37.959758886135376" lon="15.161338342989353"><ele>1167.0</ele><time>2026-04-26T09:26:32.999Z</time></trkpt><trkpt lat="37.95966724811342" lon="15.161377333209852"><ele>1167.0</ele><time>2026-04-26T09:26:33.999Z</time></trkpt><trkpt lat="37.95954621974837" lon="15.161407970059852"><ele>1167.0</ele><time>2026-04-26T09:26:34.999Z</time></trkpt><trkpt lat="37.959463316617104" lon="15.161457549805558"><ele>1167.0</ele><time>2026-04-26T09:26:35.999Z</time></trkpt><trkpt lat="37.95935851901643" lon="15.16152683001297"><ele>1167.0</ele><time>2026-04-26T09:26:36.999Z</time></trkpt><trkpt lat="37.95923512684721" lon="15.161566694219335"><ele>1169.75</ele><time>2026-04-26T09:26:37.999Z</time></trkpt><trkpt lat="37.9590902336889" lon="15.16153894361272"><ele>1172.5</ele><time>2026-04-26T09:26:38.999Z</time></trkpt><trkpt lat="37.95894760447154" lon="15.161525821907956"><ele>1175.25</ele><time>2026-04-26T09:26:39.999Z</time></trkpt><trkpt lat="37.95883044915169" lon="15.161535457631143"><ele>1178.0</ele><time>2026-04-26T09:26:40.999Z</time></trkpt><trkpt lat="37.958723955034465" lon="15.161599868267867"><ele>1172.5</ele><time>2026-04-26T09:26:41.999Z</time></trkpt><trkpt lat="37.9586217134925" lon="15.161671322222478"><ele>1167.0</ele><time>2026-04-26T09:26:42.999Z</time></trkpt><trkpt lat="37.958506114931836" lon="15.161748304818122"><ele>1161.5</ele><time>2026-04-26T09:26:43.999Z</time></trkpt><trkpt lat="37.95838618819024" lon="15.161802069930598"><ele>1156.0</ele><time>2026-04-26T09:26:44.999Z</time></trkpt><trkpt lat="37.9582460041356" lon="15.161864797061023"><ele>1156.0</ele><time>2026-04-26T09:26:45.999Z</time></trkpt><trkpt lat="37.95811262384088" lon="15.161915405400308"><ele>1156.0</ele><time>2026-04-26T09:26:46.999Z</time></trkpt><trkpt lat="37.95799613993931" lon="15.161981712433855"><ele>1156.0</ele><time>2026-04-26T09:26:47.999Z</time></trkpt><trkpt lat="37.9578678985981" lon="15.162057018682685"><ele>1156.0</ele><time>2026-04-26T09:26:48.999Z</time></trkpt><trkpt lat="37.95774993662584" lon="15.162139013566735"><ele>1156.0</ele><time>2026-04-26T09:26:49.999Z</time></trkpt><trkpt lat="37.95765531001948" lon="15.162206555238868"><ele>1156.0</ele><time>2026-04-26T09:26:50.999Z</time></trkpt><trkpt lat="37.95755393247606" lon="15.162305549521083"><ele>1156.0</ele><time>2026-04-26T09:26:51.999Z</time></trkpt><trkpt lat="37.95746339823785" lon="15.162381919285254"><ele>1156.0</ele><time>2026-04-26T09:26:52.999Z</time></trkpt><trkpt lat="37.95739187869629" lon="15.162444433718065"><ele>1156.0</ele><time>2026-04-26T09:26:53.999Z</time></trkpt><trkpt lat="37.9573317995686" lon="15.162509560094612"><ele>1155.2</ele><time>2026-04-26T09:26:54.999Z</time></trkpt><trkpt lat="37.95727915262378" lon="15.1626317937484"><ele>1154.3999999999999</ele><time>2026-04-26T09:26:56.999Z</time></trkpt><trkpt lat="37.95730311309633" lon="15.162727847083367"><ele>1153.6</ele><time>2026-04-26T09:26:58.999Z</time></trkpt><trkpt lat="37.95731906348309" lon="15.162868229153867"><ele>1152.8</ele><time>2026-04-26T09:27:06.999Z</time></trkpt><trkpt lat="37.95731651801634" lon="15.16297601675808"><ele>1152.0</ele><time>2026-04-26T09:27:08Z</time></trkpt><trkpt lat="37.9573280700079" lon="15.163085666102605"><ele>1152.0</ele><time>2026-04-26T09:27:09Z</time></trkpt><trkpt lat="37.95734491816032" lon="15.163189771349419"><ele>1152.0</ele><time>2026-04-26T09:27:10Z</time></trkpt><trkpt lat="37.957364017718525" lon="15.16331161749651"><ele>1152.0</ele><time>2026-04-26T09:27:11Z</time></trkpt><trkpt lat="37.95737230725343" lon="15.163421442050364"><ele>1152.0</ele><time>2026-04-26T09:27:12Z</time></trkpt><trkpt lat="37.95736790904488" lon="15.163528142688017"><ele>1152.0</ele><time>2026-04-26T09:27:13Z</time></trkpt><trkpt lat="37.95738847595386" lon="15.163640980308859"><ele>1152.0</ele><time>2026-04-26T09:27:14Z</time></trkpt><trkpt lat="37.9574034950601" lon="15.163753152590413"><ele>1151.2</ele><time>2026-04-26T09:27:15Z</time></trkpt><trkpt lat="37.9574132883339" lon="15.163876053210057"><ele>1150.4</ele><time>2026-04-26T09:27:16Z</time></trkpt><trkpt lat="37.957407128242004" lon="15.163979470044852"><ele>1149.6</ele><time>2026-04-26T09:27:17Z</time></trkpt><trkpt lat="37.95739518083103" lon="15.164095339188359"><ele>1148.8</ele><time>2026-04-26T09:27:18Z</time></trkpt><trkpt lat="37.95739345610765" lon="15.164227486045947"><ele>1148.0</ele><time>2026-04-26T09:27:19Z</time></trkpt><trkpt lat="37.957372774934676" lon="15.164346241837745"><ele>1145.75</ele><time>2026-04-26T09:27:20Z</time></trkpt><trkpt lat="37.957331672404536" lon="15.164470972233381"><ele>1143.5</ele><time>2026-04-26T09:27:21Z</time></trkpt><trkpt lat="37.95731221277906" lon="15.164624699388256"><ele>1141.25</ele><time>2026-04-26T09:27:22Z</time></trkpt><trkpt lat="37.95729758211551" lon="15.164812124212125"><ele>1139.0</ele><time>2026-04-26T09:27:23Z</time></trkpt><trkpt lat="37.957309987258995" lon="15.165007127604397"><ele>1137.75</ele><time>2026-04-26T09:27:24Z</time></trkpt><trkpt lat="37.957326933029044" lon="15.165179309569016"><ele>1136.5</ele><time>2026-04-26T09:27:25Z</time></trkpt><trkpt lat="37.957328925001306" lon="15.165327360393393"><ele>1135.25</ele><time>2026-04-26T09:27:26Z</time></trkpt><trkpt lat="37.95732288975344" lon="15.165470010577955"><ele>1134.0</ele><time>2026-04-26T09:27:27Z</time></trkpt><trkpt lat="37.95730713203102" lon="15.165608646078159"><ele>1132.2</ele><time>2026-04-26T09:27:28Z</time></trkpt><trkpt lat="37.957292949892704" lon="15.165741971906277"><ele>1130.4</ele><time>2026-04-26T09:27:29Z</time></trkpt><trkpt lat="37.9572610227775" lon="15.16587692279364"><ele>1128.6</ele><time>2026-04-26T09:27:30Z</time></trkpt><trkpt lat="37.957237497309784" lon="15.166007119593138"><ele>1126.8</ele><time>2026-04-26T09:27:31Z</time></trkpt><trkpt lat="37.95724020808078" lon="15.166151178253543"><ele>1125.0</ele><time>2026-04-26T09:27:32Z</time></trkpt><trkpt lat="37.95725498622367" lon="15.166297559411811"><ele>1125.0</ele><time>2026-04-26T09:27:33Z</time></trkpt><trkpt lat="37.95725259572942" lon="15.166446268283346"><ele>1125.0</ele><time>2026-04-26T09:27:34Z</time></trkpt><trkpt lat="37.957228735064845" lon="15.166578793838873"><ele>1125.0</ele><time>2026-04-26T09:27:35Z</time></trkpt><trkpt lat="37.957208379936894" lon="15.166686758859722"><ele>1125.0</ele><time>2026-04-26T09:27:36Z</time></trkpt><trkpt lat="37.95720982425258" lon="15.166785235692092"><ele>1125.0</ele><time>2026-04-26T09:27:37Z</time></trkpt><trkpt lat="37.95720696735082" lon="15.166910536918335"><ele>1124.2</ele><time>2026-04-26T09:27:38Z</time></trkpt><trkpt lat="37.95721679244818" lon="15.167052716720155"><ele>1123.4</ele><time>2026-04-26T09:27:39Z</time></trkpt><trkpt lat="37.95720114780763" lon="15.167179540106094"><ele>1122.6</ele><time>2026-04-26T09:27:40Z</time></trkpt><trkpt lat="37.95717430198108" lon="15.167293956515687"><ele>1121.8</ele><time>2026-04-26T09:27:41Z</time></trkpt><trkpt lat="37.957134021802275" lon="15.167411897333384"><ele>1121.0</ele><time>2026-04-26T09:27:42Z</time></trkpt><trkpt lat="37.95709292173851" lon="15.16755348686282"><ele>1118.25</ele><time>2026-04-26T09:27:43Z</time></trkpt><trkpt lat="37.95707198125506" lon="15.167716983495316"><ele>1115.5</ele><time>2026-04-26T09:27:44Z</time></trkpt><trkpt lat="37.95705527805429" lon="15.167876848358503"><ele>1112.75</ele><time>2026-04-26T09:27:45Z</time></trkpt><trkpt lat="37.95702126176707" lon="15.168011189777909"><ele>1110.0</ele><time>2026-04-26T09:27:46Z</time></trkpt><trkpt lat="37.956993116703096" lon="15.168126566079295"><ele>1107.0</ele><time>2026-04-26T09:27:47Z</time></trkpt><trkpt lat="37.956950631667816" lon="15.16824546698746"><ele>1104.0</ele><time>2026-04-26T09:27:48Z</time></trkpt><trkpt lat="37.95690778030808" lon="15.168369591942096"><ele>1101.0</ele><time>2026-04-26T09:27:49Z</time></trkpt><trkpt lat="37.95685320490705" lon="15.168464891994587"><ele>1098.0</ele><time>2026-04-26T09:27:50Z</time></trkpt><trkpt lat="37.956806327969346" lon="15.168587347156109"><ele>1095.0</ele><time>2026-04-26T09:27:51Z</time></trkpt><trkpt lat="37.9567775241194" lon="15.168706096064856"><ele>1095.0</ele><time>2026-04-26T09:27:52Z</time></trkpt><trkpt lat="37.95676381738701" lon="15.168792268417583"><ele>1095.0</ele><time>2026-04-26T09:27:53Z</time></trkpt><trkpt lat="37.95671844290769" lon="15.168865599991353"><ele>1095.0</ele><time>2026-04-26T09:27:53.999Z</time></trkpt><trkpt lat="37.95666686231504" lon="15.168930112984887"><ele>1095.0</ele><time>2026-04-26T09:27:54.999Z</time></trkpt><trkpt lat="37.95666078024749" lon="15.169069562126277"><ele>1095.0</ele><time>2026-04-26T09:27:55.999Z</time></trkpt><trkpt lat="37.956691294525086" lon="15.16917456338082"><ele>1095.0</ele><time>2026-04-26T09:27:56.999Z</time></trkpt><trkpt lat="37.95668832313316" lon="15.169298615275013"><ele>1101.25</ele><time>2026-04-26T09:27:57.999Z</time></trkpt><trkpt lat="37.95666625916494" lon="15.169414149567393"><ele>1107.5</ele><time>2026-04-26T09:27:58.999Z</time></trkpt><trkpt lat="37.95662732756237" lon="15.169557691372573"><ele>1113.75</ele><time>2026-04-26T09:27:59.999Z</time></trkpt><trkpt lat="37.956615386960046" lon="15.1696980094936"><ele>1120.0</ele><time>2026-04-26T09:28:00.999Z</time></trkpt><trkpt lat="37.956641283010185" lon="15.169853430498014"><ele>1118.0</ele><time>2026-04-26T09:28:01.999Z</time></trkpt><trkpt lat="37.9566777680027" lon="15.170042476818642"><ele>1116.0</ele><time>2026-04-26T09:28:02.999Z</time></trkpt><trkpt lat="37.95668698805187" lon="15.170189539810984"><ele>1114.0</ele><time>2026-04-26T09:28:03.999Z</time></trkpt><trkpt lat="37.95671000697359" lon="15.170342972702233"><ele>1112.0</ele><time>2026-04-26T09:28:04.999Z</time></trkpt><trkpt lat="37.95670744482996" lon="15.170513090726343"><ele>1101.5</ele><time>2026-04-26T09:28:05.999Z</time></trkpt><trkpt lat="37.95671364035956" lon="15.170706581388634"><ele>1091.0</ele><time>2026-04-26T09:28:06.999Z</time></trkpt><trkpt lat="37.95672524048877" lon="15.170889023081786"><ele>1080.5</ele><time>2026-04-26T09:28:07.999Z</time></trkpt><trkpt lat="37.956738320914944" lon="15.171039980949782"><ele>1070.0</ele><time>2026-04-26T09:28:08.999Z</time></trkpt><trkpt lat="37.956740264830316" lon="15.171189707200742"><ele>1070.0</ele><time>2026-04-26T09:28:09.999Z</time></trkpt><trkpt lat="37.95676873373726" lon="15.171300479199262"><ele>1070.0</ele><time>2026-04-26T09:28:10.999Z</time></trkpt><trkpt lat="37.95683607608239" lon="15.17140800786541"><ele>1070.0</ele><time>2026-04-26T09:28:11.999Z</time></trkpt><trkpt lat="37.95691615944051" lon="15.171540946519542"><ele>1070.0</ele><time>2026-04-26T09:28:12.999Z</time></trkpt><trkpt lat="37.95695317500804" lon="15.171669597622513"><ele>1070.0</ele><time>2026-04-26T09:28:13.999Z</time></trkpt><trkpt lat="37.95697457889203" lon="15.171812931556063"><ele>1070.25</ele><time>2026-04-26T09:28:14.999Z</time></trkpt><trkpt lat="37.95697842496929" lon="15.171980584714253"><ele>1070.5</ele><time>2026-04-26T09:28:15.999Z</time></trkpt><trkpt lat="37.956971162227916" lon="15.17212919253187"><ele>1070.75</ele><time>2026-04-26T09:28:16.999Z</time></trkpt><trkpt lat="37.95701791535572" lon="15.17224950238648"><ele>1071.0</ele><time>2026-04-26T09:28:17.999Z</time></trkpt><trkpt lat="37.957056845290154" lon="15.172400013363143"><ele>1072.6</ele><time>2026-04-26T09:28:18.999Z</time></trkpt><trkpt lat="37.95708975832597" lon="15.172536901603072"><ele>1074.1999999999998</ele><time>2026-04-26T09:28:19.999Z</time></trkpt><trkpt lat="37.95710870848936" lon="15.172647466479996"><ele>1075.8000000000002</ele><time>2026-04-26T09:28:20.999Z</time></trkpt><trkpt lat="37.95713392187351" lon="15.172767429567175"><ele>1077.4</ele><time>2026-04-26T09:28:21.999Z</time></trkpt><trkpt lat="37.95716750877991" lon="15.172927115914524"><ele>1079.0</ele><time>2026-04-26T09:28:22.999Z</time></trkpt><trkpt lat="37.95725837399708" lon="15.173013427318095"><ele>1079.0</ele><time>2026-04-26T09:28:23.999Z</time></trkpt><trkpt lat="37.957320538807444" lon="15.173146680729861"><ele>1079.0</ele><time>2026-04-26T09:28:24.999Z</time></trkpt><trkpt lat="37.957356582382765" lon="15.173283373053819"><ele>1079.0</ele><time>2026-04-26T09:28:25.999Z</time></trkpt><trkpt lat="37.957357044389475" lon="15.173428879457433"><ele>1079.0</ele><time>2026-04-26T09:28:26.999Z</time></trkpt><trkpt lat="37.95734723647537" lon="15.17355442122741"><ele>1079.4</ele><time>2026-04-26T09:28:27.999Z</time></trkpt><trkpt lat="37.95730538195256" lon="15.173689383562117"><ele>1079.8000000000002</ele><time>2026-04-26T09:28:28.999Z</time></trkpt><trkpt lat="37.95726376446664" lon="15.173822899535828"><ele>1080.1999999999998</ele><time>2026-04-26T09:28:29.999Z</time></trkpt><trkpt lat="37.95726778823215" lon="15.173928562802747"><ele>1080.6</ele><time>2026-04-26T09:28:30.999Z</time></trkpt><trkpt lat="37.95729534515721" lon="15.174046795877619"><ele>1081.0</ele><time>2026-04-26T09:28:31.999Z</time></trkpt><trkpt lat="37.95733112217938" lon="15.174193559196594"><ele>1081.0</ele><time>2026-04-26T09:28:32.999Z</time></trkpt><trkpt lat="37.95737656702197" lon="15.174353713288193"><ele>1081.0</ele><time>2026-04-26T09:28:33.999Z</time></trkpt><trkpt lat="37.957431491314644" lon="15.174489521374618"><ele>1081.0</ele><time>2026-04-26T09:28:34.999Z</time></trkpt><trkpt lat="37.95746568081944" lon="15.17462080489749"><ele>1081.0</ele><time>2026-04-26T09:28:35.999Z</time></trkpt><trkpt lat="37.957466867680886" lon="15.174761158119273"><ele>1079.6666666666665</ele><time>2026-04-26T09:28:36.999Z</time></trkpt><trkpt lat="37.95744571248687" lon="15.174932702570175"><ele>1078.3333333333333</ele><time>2026-04-26T09:28:37.999Z</time></trkpt><trkpt lat="37.95741046923723" lon="15.175126729206509"><ele>1077.0</ele><time>2026-04-26T09:28:38.999Z</time></trkpt><trkpt lat="37.95738603684401" lon="15.175333966882953"><ele>1077.0</ele><time>2026-04-26T09:28:39.999Z</time></trkpt><trkpt lat="37.95736339754828" lon="15.175552574368925"><ele>1077.0</ele><time>2026-04-26T09:28:40.999Z</time></trkpt><trkpt lat="37.957357316684025" lon="15.175765455531975"><ele>1077.0</ele><time>2026-04-26T09:28:41.999Z</time></trkpt><trkpt lat="37.95732649162064" lon="15.175959872660048"><ele>1076.0</ele><time>2026-04-26T09:28:42.999Z</time></trkpt><trkpt lat="37.95730895744219" lon="15.176138512523542"><ele>1075.0</ele><time>2026-04-26T09:28:43.999Z</time></trkpt><trkpt lat="37.957297235837196" lon="15.176297839284405"><ele>1074.0</ele><time>2026-04-26T09:28:44.999Z</time></trkpt><trkpt lat="37.95731271666976" lon="15.176441373297983"><ele>1073.0</ele><time>2026-04-26T09:28:45.999Z</time></trkpt><trkpt lat="37.957331916798985" lon="15.17660280141465"><ele>1073.0</ele><time>2026-04-26T09:28:46.999Z</time></trkpt><trkpt lat="37.957363516458244" lon="15.176774256751147"><ele>1073.0</ele><time>2026-04-26T09:28:47.999Z</time></trkpt><trkpt lat="37.95740755540867" lon="15.176954601040498"><ele>1073.0</ele><time>2026-04-26T09:28:48.999Z</time></trkpt><trkpt lat="37.95745600900109" lon="15.177145381088257"><ele>1073.0</ele><time>2026-04-26T09:28:49.999Z</time></trkpt><trkpt lat="37.957499671045625" lon="15.17734190526726"><ele>1067.0</ele><time>2026-04-26T09:28:50.999Z</time></trkpt><trkpt lat="37.95754026656479" lon="15.177546195309729"><ele>1061.0</ele><time>2026-04-26T09:28:51.999Z</time></trkpt><trkpt lat="37.957594192563825" lon="15.177729324044048"><ele>1055.0</ele><time>2026-04-26T09:28:52.999Z</time></trkpt><trkpt lat="37.957637152136016" lon="15.177893459102062"><ele>1055.0</ele><time>2026-04-26T09:28:53.999Z</time></trkpt><trkpt lat="37.95766700826486" lon="15.178053396844165"><ele>1055.0</ele><time>2026-04-26T09:28:54.999Z</time></trkpt><trkpt lat="37.95770019551368" lon="15.178210540418783"><ele>1055.0</ele><time>2026-04-26T09:28:55.999Z</time></trkpt><trkpt lat="37.957736937346255" lon="15.178375800818644"><ele>1055.0</ele><time>2026-04-26T09:28:56.999Z</time></trkpt><trkpt lat="37.95775415590093" lon="15.17853168053163"><ele>1055.0</ele><time>2026-04-26T09:28:57.999Z</time></trkpt><trkpt lat="37.957755053493024" lon="15.178654721660548"><ele>1055.0</ele><time>2026-04-26T09:28:58.999Z</time></trkpt><trkpt lat="37.95775332049154" lon="15.178743090425451"><ele>1055.0</ele><time>2026-04-26T09:28:59.999Z</time></trkpt><trkpt lat="37.957755359090086" lon="15.178846446339548"><ele>1055.0</ele><time>2026-04-26T09:29:29Z</time></trkpt><trkpt lat="37.95773409668706" lon="15.178948118648924"><ele>1055.0</ele><time>2026-04-26T09:29:31Z</time></trkpt><trkpt lat="37.9577039902071" lon="15.179039075930847"><ele>1055.0</ele><time>2026-04-26T09:29:32Z</time></trkpt><trkpt lat="37.957657218353575" lon="15.179104875064047"><ele>1058.3333333333335</ele><time>2026-04-26T09:29:33Z</time></trkpt><trkpt lat="37.95762021213083" lon="15.179233005053414"><ele>1061.6666666666667</ele><time>2026-04-26T09:29:35Z</time></trkpt><trkpt lat="37.957610493987666" lon="15.17932067296682"><ele>1065.0</ele><time>2026-04-26T09:29:37Z</time></trkpt><trkpt lat="37.95787089668462" lon="15.179923547164346"><ele>1065.5</ele><time>2026-04-26T09:29:39Z</time></trkpt><trkpt lat="37.958187871101536" lon="15.180019471951244"><ele>1066.0</ele><time>2026-04-26T09:29:43Z</time></trkpt><trkpt lat="37.95837239982241" lon="15.180135049228287"><ele>1066.0</ele><time>2026-04-26T09:29:44Z</time></trkpt><trkpt lat="37.9584992673177" lon="15.18018343985102"><ele>1066.0</ele><time>2026-04-26T09:29:45Z</time></trkpt><trkpt lat="37.958589026966635" lon="15.180214334907966"><ele>1066.0</ele><time>2026-04-26T09:29:46Z</time></trkpt><trkpt lat="37.95867749528311" lon="15.180244695523719"><ele>1066.0</ele><time>2026-04-26T09:29:47Z</time></trkpt><trkpt lat="37.958793426559964" lon="15.180282438940095"><ele>1066.0</ele><time>2026-04-26T09:29:48Z</time></trkpt><trkpt lat="37.95890710775109" lon="15.180301197273009"><ele>1066.0</ele><time>2026-04-26T09:29:49Z</time></trkpt><trkpt lat="37.958996171127616" lon="15.180350843869132"><ele>1066.0</ele><time>2026-04-26T09:29:50Z</time></trkpt><trkpt lat="37.95905218734093" lon="15.18043496547288"><ele>1066.0</ele><time>2026-04-26T09:29:51Z</time></trkpt><trkpt lat="37.959094118247116" lon="15.180525238747453"><ele>1066.0</ele><time>2026-04-26T09:29:52Z</time></trkpt><trkpt lat="37.95912432728266" lon="15.180636573381905"><ele>1066.0</ele><time>2026-04-26T09:29:53Z</time></trkpt><trkpt lat="37.95916793272506" lon="15.180781777431653"><ele>1064.0</ele><time>2026-04-26T09:29:54Z</time></trkpt><trkpt lat="37.959241123616025" lon="15.180911125965755"><ele>1062.0</ele><time>2026-04-26T09:29:55Z</time></trkpt><trkpt lat="37.959302024878255" lon="15.181059825803144"><ele>1060.0</ele><time>2026-04-26T09:29:56Z</time></trkpt><trkpt lat="37.959361198775866" lon="15.181173552514336"><ele>1058.0</ele><time>2026-04-26T09:29:57Z</time></trkpt><trkpt lat="37.95944715832984" lon="15.181243019769735"><ele>1058.0</ele><time>2026-04-26T09:29:58Z</time></trkpt><trkpt lat="37.95956006133998" lon="15.18126668240624"><ele>1058.0</ele><time>2026-04-26T09:29:59Z</time></trkpt><trkpt lat="37.95964478017303" lon="15.18131878499178"><ele>1058.0</ele><time>2026-04-26T09:30:00Z</time></trkpt><trkpt lat="37.959713519554576" lon="15.181388939113857"><ele>1058.0</ele><time>2026-04-26T09:30:01Z</time></trkpt><trkpt lat="37.95977127899364" lon="15.181475773850881"><ele>1058.0</ele><time>2026-04-26T09:30:02Z</time></trkpt><trkpt lat="37.959794555546644" lon="15.181594046556752"><ele>1057.5</ele><time>2026-04-26T09:30:03Z</time></trkpt><trkpt lat="37.959839337031994" lon="15.181731940649508"><ele>1057.0</ele><time>2026-04-26T09:30:04Z</time></trkpt><trkpt lat="37.959922946122056" lon="15.181822850891386"><ele>1056.5</ele><time>2026-04-26T09:30:05Z</time></trkpt><trkpt lat="37.96000327346779" lon="15.181923011840281"><ele>1056.0</ele><time>2026-04-26T09:30:06Z</time></trkpt><trkpt lat="37.96012171539747" lon="15.181969506221565"><ele>1056.0</ele><time>2026-04-26T09:30:06.999Z</time></trkpt><trkpt lat="37.960233344015926" lon="15.18207780808337"><ele>1056.0</ele><time>2026-04-26T09:30:07.999Z</time></trkpt><trkpt lat="37.96034881014847" lon="15.182181132788399"><ele>1056.0</ele><time>2026-04-26T09:30:08.999Z</time></trkpt><trkpt lat="37.96047157297306" lon="15.182305870906024"><ele>1056.0</ele><time>2026-04-26T09:30:09.999Z</time></trkpt><trkpt lat="37.96059455762236" lon="15.182398148445603"><ele>1056.5</ele><time>2026-04-26T09:30:10.999Z</time></trkpt><trkpt lat="37.960721157172635" lon="15.182480177492186"><ele>1057.0</ele><time>2026-04-26T09:30:11.999Z</time></trkpt><trkpt lat="37.96083862286855" lon="15.182556288337882"><ele>1057.5</ele><time>2026-04-26T09:30:12.999Z</time></trkpt><trkpt lat="37.96094734870723" lon="15.182626736269734"><ele>1058.0</ele><time>2026-04-26T09:30:13.999Z</time></trkpt><trkpt lat="37.961054033768605" lon="15.182693063939691"><ele>1058.0</ele><time>2026-04-26T09:30:14.999Z</time></trkpt><trkpt lat="37.96116197910293" lon="15.182759657548212"><ele>1058.0</ele><time>2026-04-26T09:30:15.999Z</time></trkpt><trkpt lat="37.96127376278565" lon="15.182824263919729"><ele>1058.0</ele><time>2026-04-26T09:30:16.999Z</time></trkpt><trkpt lat="37.961382827588864" lon="15.182878007379552"><ele>1058.0</ele><time>2026-04-26T09:30:17.999Z</time></trkpt><trkpt lat="37.96151441104037" lon="15.182932421347997"><ele>1058.0</ele><time>2026-04-26T09:30:18.999Z</time></trkpt><trkpt lat="37.96164030492166" lon="15.182976831787355"><ele>1058.0</ele><time>2026-04-26T09:30:19.999Z</time></trkpt><trkpt lat="37.96177114533057" lon="15.183015749676974"><ele>1058.0</ele><time>2026-04-26T09:30:20.999Z</time></trkpt><trkpt lat="37.96189372980616" lon="15.183047965085333"><ele>1058.0</ele><time>2026-04-26T09:30:21.999Z</time></trkpt><trkpt lat="37.962020148448595" lon="15.183079374567479"><ele>1053.5</ele><time>2026-04-26T09:30:22.999Z</time></trkpt><trkpt lat="37.962142564338606" lon="15.183109005320896"><ele>1049.0</ele><time>2026-04-26T09:30:23.999Z</time></trkpt><trkpt lat="37.962265003289176" lon="15.183136836072737"><ele>1044.5</ele><time>2026-04-26T09:30:24.999Z</time></trkpt><trkpt lat="37.96238716848401" lon="15.183160563921163"><ele>1040.0</ele><time>2026-04-26T09:30:25.999Z</time></trkpt><trkpt lat="37.96250720580396" lon="15.18316674866873"><ele>1038.8333333333335</ele><time>2026-04-26T09:30:26.999Z</time></trkpt><trkpt lat="37.96260949668653" lon="15.183144956469262"><ele>1037.6666666666667</ele><time>2026-04-26T09:30:27.999Z</time></trkpt><trkpt lat="37.96270495525278" lon="15.18315626051783"><ele>1036.5</ele><time>2026-04-26T09:30:28.999Z</time></trkpt><trkpt lat="37.962775599280675" lon="15.183195704300225"><ele>1035.3333333333333</ele><time>2026-04-26T09:30:29.999Z</time></trkpt><trkpt lat="37.962838754717396" lon="15.18321865138151"><ele>1034.1666666666665</ele><time>2026-04-26T09:30:30.999Z</time></trkpt><trkpt lat="37.96285474365185" lon="15.183309293215538"><ele>1033.0</ele><time>2026-04-26T09:30:31.999Z</time></trkpt><trkpt lat="37.96285377118309" lon="15.183393570592171"><ele>1033.0</ele><time>2026-04-26T09:30:32.999Z</time></trkpt><trkpt lat="37.96282964649841" lon="15.183482179095524"><ele>1033.0</ele><time>2026-04-26T09:30:33.999Z</time></trkpt><trkpt lat="37.96280684129094" lon="15.183609045140415"><ele>1033.0</ele><time>2026-04-26T09:30:34.999Z</time></trkpt><trkpt lat="37.962804650805296" lon="15.183746419920203"><ele>1033.0</ele><time>2026-04-26T09:30:35.999Z</time></trkpt><trkpt lat="37.96282356622072" lon="15.183864665840206"><ele>1033.0</ele><time>2026-04-26T09:30:36.999Z</time></trkpt><trkpt lat="37.96287761398322" lon="15.183987273827393"><ele>1033.75</ele><time>2026-04-26T09:30:37.999Z</time></trkpt><trkpt lat="37.96293719491913" lon="15.184129964451229"><ele>1034.5</ele><time>2026-04-26T09:30:38.999Z</time></trkpt><trkpt lat="37.96299652394379" lon="15.184258921250242"><ele>1035.25</ele><time>2026-04-26T09:30:39.999Z</time></trkpt><trkpt lat="37.9630528024856" lon="15.184381247563365"><ele>1036.0</ele><time>2026-04-26T09:30:40.999Z</time></trkpt><trkpt lat="37.963106174055476" lon="15.184497255300059"><ele>1036.0</ele><time>2026-04-26T09:30:41.999Z</time></trkpt><trkpt lat="37.9631603794294" lon="15.184618725242938"><ele>1036.0</ele><time>2026-04-26T09:30:42.999Z</time></trkpt><trkpt lat="37.9632214186319" lon="15.184725695627664"><ele>1036.0</ele><time>2026-04-26T09:30:43.999Z</time></trkpt><trkpt lat="37.96323197837195" lon="15.18484920021974"><ele>1036.0</ele><time>2026-04-26T09:30:44.999Z</time></trkpt><trkpt lat="37.96322375497671" lon="15.184978734093319"><ele>1036.0</ele><time>2026-04-26T09:30:45.999Z</time></trkpt><trkpt lat="37.963210569025726" lon="15.185122707624352"><ele>1036.75</ele><time>2026-04-26T09:30:46.999Z</time></trkpt><trkpt lat="37.96321939115127" lon="15.185278730771067"><ele>1037.5</ele><time>2026-04-26T09:30:47.999Z</time></trkpt><trkpt lat="37.96322319854501" lon="15.185410640877826"><ele>1038.25</ele><time>2026-04-26T09:30:48.999Z</time></trkpt><trkpt lat="37.963258845441686" lon="15.185565346325461"><ele>1039.0</ele><time>2026-04-26T09:30:49.999Z</time></trkpt><trkpt lat="37.96329647943909" lon="15.185708300944372"><ele>1037.8</ele><time>2026-04-26T09:30:50.999Z</time></trkpt><trkpt lat="37.96332309815522" lon="15.185836126506814"><ele>1036.6000000000001</ele><time>2026-04-26T09:30:51.999Z</time></trkpt><trkpt lat="37.9633590769125" lon="15.185958854114954"><ele>1035.4</ele><time>2026-04-26T09:30:52.999Z</time></trkpt><trkpt lat="37.96341109275039" lon="15.186085149287631"><ele>1034.2</ele><time>2026-04-26T09:30:53.999Z</time></trkpt><trkpt lat="37.96346621107161" lon="15.186199441678122"><ele>1033.0</ele><time>2026-04-26T09:30:54.999Z</time></trkpt><trkpt lat="37.96350890966154" lon="15.186290132223796"><ele>1031.0</ele><time>2026-04-26T09:30:55.999Z</time></trkpt><trkpt lat="37.96354387686924" lon="15.186392837922565"><ele>1029.0</ele><time>2026-04-26T09:30:56.999Z</time></trkpt><trkpt lat="37.963589506661954" lon="15.186497984217647"><ele>1027.0</ele><time>2026-04-26T09:30:57.999Z</time></trkpt><trkpt lat="37.96366202434277" lon="15.186595321681663"><ele>1025.0</ele><time>2026-04-26T09:30:58.999Z</time></trkpt><trkpt lat="37.96376484054912" lon="15.18668238990418"><ele>1023.0</ele><time>2026-04-26T09:30:59.999Z</time></trkpt><trkpt lat="37.963881162855834" lon="15.186758357906681"><ele>1023.0</ele><time>2026-04-26T09:31:00.999Z</time></trkpt><trkpt lat="37.96400669934637" lon="15.186812838895866"><ele>1023.0</ele><time>2026-04-26T09:31:01.999Z</time></trkpt><trkpt lat="37.964131969370335" lon="15.186850630905914"><ele>1023.0</ele><time>2026-04-26T09:31:02.999Z</time></trkpt><trkpt lat="37.96424755229558" lon="15.186890797108756"><ele>1023.0</ele><time>2026-04-26T09:31:03.999Z</time></trkpt><trkpt lat="37.96435507696011" lon="15.186943095497568"><ele>1020.0</ele><time>2026-04-26T09:31:04.999Z</time></trkpt><trkpt lat="37.96445731091882" lon="15.1869843767048"><ele>1017.0</ele><time>2026-04-26T09:31:05.999Z</time></trkpt><trkpt lat="37.96456020239986" lon="15.18701612775599"><ele>1014.0</ele><time>2026-04-26T09:31:06.999Z</time></trkpt><trkpt lat="37.964665779648584" lon="15.187066969377492"><ele>1011.0</ele><time>2026-04-26T09:31:07.999Z</time></trkpt><trkpt lat="37.96477020312741" lon="15.187143101987546"><ele>1008.0</ele><time>2026-04-26T09:31:08.999Z</time></trkpt><trkpt lat="37.96486005257333" lon="15.18723524112923"><ele>1008.0</ele><time>2026-04-26T09:31:09.999Z</time></trkpt><trkpt lat="37.96495569746943" lon="15.187327147861318"><ele>1008.0</ele><time>2026-04-26T09:31:10.999Z</time></trkpt><trkpt lat="37.965051164507805" lon="15.18741425258361"><ele>1008.0</ele><time>2026-04-26T09:31:11.999Z</time></trkpt><trkpt lat="37.965146124059586" lon="15.187494485167242"><ele>1008.0</ele><time>2026-04-26T09:31:12.999Z</time></trkpt><trkpt lat="37.965230584934474" lon="15.187554980956932"><ele>1008.0</ele><time>2026-04-26T09:31:13.999Z</time></trkpt><trkpt lat="37.965317568124604" lon="15.187611778954475"><ele>1010.0</ele><time>2026-04-26T09:31:14.999Z</time></trkpt><trkpt lat="37.965409918232865" lon="15.187698764024471"><ele>1012.0</ele><time>2026-04-26T09:31:15.999Z</time></trkpt><trkpt lat="37.96548810983861" lon="15.187799627449015"><ele>1014.0</ele><time>2026-04-26T09:31:16.999Z</time></trkpt><trkpt lat="37.96556928224311" lon="15.187902898847057"><ele>1016.0</ele><time>2026-04-26T09:31:17.999Z</time></trkpt><trkpt lat="37.9656562865496" lon="15.187976305168862"><ele>1018.0</ele><time>2026-04-26T09:31:18.999Z</time></trkpt><trkpt lat="37.96575555002751" lon="15.188043303585616"><ele>1015.75</ele><time>2026-04-26T09:31:20Z</time></trkpt><trkpt lat="37.96586303589242" lon="15.18801882891578"><ele>1013.5</ele><time>2026-04-26T09:31:21Z</time></trkpt><trkpt lat="37.965986915684375" lon="15.188020457939693"><ele>1011.25</ele><time>2026-04-26T09:31:22Z</time></trkpt><trkpt lat="37.966114092646016" lon="15.188002107704545"><ele>1009.0</ele><time>2026-04-26T09:31:23Z</time></trkpt><trkpt lat="37.966243077967526" lon="15.187990640069179"><ele>1009.0</ele><time>2026-04-26T09:31:24Z</time></trkpt><trkpt lat="37.96636488991953" lon="15.18799507150484"><ele>1009.0</ele><time>2026-04-26T09:31:25Z</time></trkpt><trkpt lat="37.96649677734548" lon="15.188000325009812"><ele>1009.0</ele><time>2026-04-26T09:31:26Z</time></trkpt><trkpt lat="37.966627025601" lon="15.187993891359879"><ele>1009.0</ele><time>2026-04-26T09:31:27Z</time></trkpt><trkpt lat="37.96675378267742" lon="15.187983163393621"><ele>1008.8000000000001</ele><time>2026-04-26T09:31:28Z</time></trkpt><trkpt lat="37.96686094474407" lon="15.18796772337624"><ele>1008.6000000000001</ele><time>2026-04-26T09:31:29Z</time></trkpt><trkpt lat="37.96696676424301" lon="15.188017383985036"><ele>1008.4</ele><time>2026-04-26T09:31:30Z</time></trkpt><trkpt lat="37.96705345393009" lon="15.188090622822024"><ele>1008.2</ele><time>2026-04-26T09:31:31Z</time></trkpt><trkpt lat="37.96710584988243" lon="15.188195350025271"><ele>1008.0</ele><time>2026-04-26T09:31:32Z</time></trkpt><trkpt lat="37.96714676447506" lon="15.188327854651025"><ele>1008.0</ele><time>2026-04-26T09:31:33Z</time></trkpt><trkpt lat="37.96719082380843" lon="15.188470237356892"><ele>1008.0</ele><time>2026-04-26T09:31:34Z</time></trkpt><trkpt lat="37.96724539230506" lon="15.188596134204305"><ele>1008.0</ele><time>2026-04-26T09:31:35Z</time></trkpt><trkpt lat="37.96730554288129" lon="15.188699145069625"><ele>1008.0</ele><time>2026-04-26T09:31:36Z</time></trkpt><trkpt lat="37.96738912519814" lon="15.188730070546217"><ele>1008.0</ele><time>2026-04-26T09:31:37Z</time></trkpt><trkpt lat="37.96750103588693" lon="15.18879485480292"><ele>1007.25</ele><time>2026-04-26T09:31:38Z</time></trkpt><trkpt lat="37.96761672678893" lon="15.188846672040668"><ele>1006.5</ele><time>2026-04-26T09:31:39Z</time></trkpt><trkpt lat="37.967694262486994" lon="15.188913341394688"><ele>1005.75</ele><time>2026-04-26T09:31:40Z</time></trkpt><trkpt lat="37.96776076262546" lon="15.18903104302678"><ele>1005.0</ele><time>2026-04-26T09:31:41Z</time></trkpt><trkpt lat="37.967812002063766" lon="15.189175934917676"><ele>1005.0</ele><time>2026-04-26T09:31:42Z</time></trkpt><trkpt lat="37.96791462502989" lon="15.189281456824004"><ele>1005.0</ele><time>2026-04-26T09:31:43Z</time></trkpt><trkpt lat="37.96801891660094" lon="15.189361379270098"><ele>1005.0</ele><time>2026-04-26T09:31:44Z</time></trkpt><trkpt lat="37.96808465031068" lon="15.189429457009057"><ele>1005.0</ele><time>2026-04-26T09:31:45Z</time></trkpt><trkpt lat="37.96815803876705" lon="15.189471687115896"><ele>1005.0</ele><time>2026-04-26T09:31:46Z</time></trkpt><trkpt lat="37.96819307691425" lon="15.189556551383363"><ele>1005.0</ele><time>2026-04-26T09:31:47Z</time></trkpt><trkpt lat="37.96819587486556" lon="15.189650594958675"><ele>1005.0</ele><time>2026-04-26T09:31:48Z</time></trkpt><trkpt lat="37.968143363291716" lon="15.189747691860259"><ele>1005.0</ele><time>2026-04-26T09:31:49Z</time></trkpt><trkpt lat="37.96813961727197" lon="15.18985856713807"><ele>1005.0</ele><time>2026-04-26T09:31:50Z</time></trkpt><trkpt lat="37.96813614995259" lon="15.189956523633592"><ele>1005.0</ele><time>2026-04-26T09:31:51Z</time></trkpt><trkpt lat="37.96816790120182" lon="15.190068925131822"><ele>1005.0</ele><time>2026-04-26T09:31:52Z</time></trkpt><trkpt lat="37.9682576560379" lon="15.190179727350358"><ele>1006.4</ele><time>2026-04-26T09:31:53Z</time></trkpt><trkpt lat="37.96834688395282" lon="15.190274452397688"><ele>1007.8</ele><time>2026-04-26T09:31:54Z</time></trkpt><trkpt lat="37.96839670236245" lon="15.190364621216935"><ele>1009.2</ele><time>2026-04-26T09:31:55Z</time></trkpt><trkpt lat="37.96843411281197" lon="15.190439359901752"><ele>1010.6</ele><time>2026-04-26T09:31:56Z</time></trkpt><trkpt lat="37.96841944159313" lon="15.190596870542878"><ele>1012.0</ele><time>2026-04-26T09:31:58Z</time></trkpt><trkpt lat="37.968377670459894" lon="15.190742967739423"><ele>1011.6</ele><time>2026-04-26T09:31:59Z</time></trkpt><trkpt lat="37.96832757333057" lon="15.190879826213367"><ele>1011.2</ele><time>2026-04-26T09:32:00Z</time></trkpt><trkpt lat="37.968302412997836" lon="15.1910188667889"><ele>1010.8</ele><time>2026-04-26T09:32:01Z</time></trkpt><trkpt lat="37.96829790823375" lon="15.191153779029317"><ele>1010.4</ele><time>2026-04-26T09:32:02Z</time></trkpt><trkpt lat="37.9683096354068" lon="15.191291823483834"><ele>1010.0</ele><time>2026-04-26T09:32:03Z</time></trkpt><trkpt lat="37.96833063807239" lon="15.19143141258731"><ele>1008.6</ele><time>2026-04-26T09:32:04Z</time></trkpt><trkpt lat="37.968345792814645" lon="15.191575155544035"><ele>1007.2</ele><time>2026-04-26T09:32:05Z</time></trkpt><trkpt lat="37.968337167249445" lon="15.191710097620975"><ele>1005.8</ele><time>2026-04-26T09:32:06Z</time></trkpt><trkpt lat="37.96832771877443" lon="15.191846752980956"><ele>1004.4</ele><time>2026-04-26T09:32:07Z</time></trkpt><trkpt lat="37.968328303558984" lon="15.1919871581067"><ele>1003.0</ele><time>2026-04-26T09:32:08Z</time></trkpt><trkpt lat="37.96834940489725" lon="15.192103968335461"><ele>997.8</ele><time>2026-04-26T09:32:09Z</time></trkpt><trkpt lat="37.968386152307495" lon="15.192209190158472"><ele>992.5999999999999</ele><time>2026-04-26T09:32:10Z</time></trkpt><trkpt lat="37.968429287707764" lon="15.192312698125573"><ele>987.4000000000001</ele><time>2026-04-26T09:32:11Z</time></trkpt><trkpt lat="37.96847357803363" lon="15.192411795494799"><ele>982.2</ele><time>2026-04-26T09:32:12Z</time></trkpt><trkpt lat="37.96855832577281" lon="15.192480963996266"><ele>977.0</ele><time>2026-04-26T09:32:13Z</time></trkpt><trkpt lat="37.96864407130525" lon="15.192580143457581"><ele>977.0000000000001</ele><time>2026-04-26T09:32:14Z</time></trkpt><trkpt lat="37.96870835802428" lon="15.192676983094161"><ele>977.0</ele><time>2026-04-26T09:32:15Z</time></trkpt><trkpt lat="37.96875950224883" lon="15.192758427817067"><ele>977.0</ele><time>2026-04-26T09:32:16Z</time></trkpt><trkpt lat="37.96879323794184" lon="15.192844107938718"><ele>977.0</ele><time>2026-04-26T09:32:17Z</time></trkpt><trkpt lat="37.96879883750951" lon="15.192953447965236"><ele>977.0000000000001</ele><time>2026-04-26T09:32:18Z</time></trkpt><trkpt lat="37.96879609365953" lon="15.193074099192222"><ele>977.0</ele><time>2026-04-26T09:32:19Z</time></trkpt><trkpt lat="37.968767849880656" lon="15.193200937024418"><ele>979.6</ele><time>2026-04-26T09:32:20Z</time></trkpt><trkpt lat="37.968715012919596" lon="15.1933057600654"><ele>982.2</ele><time>2026-04-26T09:32:21Z</time></trkpt><trkpt lat="37.968695743540636" lon="15.19342302371192"><ele>984.8</ele><time>2026-04-26T09:32:22Z</time></trkpt><trkpt lat="37.96870909828125" lon="15.193537992463806"><ele>987.4</ele><time>2026-04-26T09:32:23Z</time></trkpt><trkpt lat="37.968729344289606" lon="15.193684712926045"><ele>990.0</ele><time>2026-04-26T09:32:23.999Z</time></trkpt><trkpt lat="37.96877266810949" lon="15.19383875728019"><ele>990.0</ele><time>2026-04-26T09:32:24.999Z</time></trkpt><trkpt lat="37.96882778220253" lon="15.19398471503872"><ele>990.0</ele><time>2026-04-26T09:32:25.999Z</time></trkpt><trkpt lat="37.96891113713302" lon="15.194098256977988"><ele>990.0</ele><time>2026-04-26T09:32:26.999Z</time></trkpt><trkpt lat="37.96901468894942" lon="15.194172773213209"><ele>990.0</ele><time>2026-04-26T09:32:27.999Z</time></trkpt><trkpt lat="37.969072402038265" lon="15.194255256904603"><ele>989.0</ele><time>2026-04-26T09:32:28.999Z</time></trkpt><trkpt lat="37.96913644310361" lon="15.194308869473643"><ele>988.0</ele><time>2026-04-26T09:32:29.999Z</time></trkpt><trkpt lat="37.96913619803342" lon="15.194467262544546"><ele>987.0</ele><time>2026-04-26T09:32:31.999Z</time></trkpt><trkpt lat="37.969078282252084" lon="15.1945761858942"><ele>986.0</ele><time>2026-04-26T09:32:32.999Z</time></trkpt><trkpt lat="37.96903628830972" lon="15.194698093727707"><ele>985.0</ele><time>2026-04-26T09:32:33.999Z</time></trkpt><trkpt lat="37.96896979638898" lon="15.194802760908022"><ele>981.75</ele><time>2026-04-26T09:32:34.999Z</time></trkpt><trkpt lat="37.96888855375164" lon="15.194916430009519"><ele>978.5</ele><time>2026-04-26T09:32:35.999Z</time></trkpt><trkpt lat="37.96880961034401" lon="15.195017136776281"><ele>975.25</ele><time>2026-04-26T09:32:36.999Z</time></trkpt><trkpt lat="37.9687135744439" lon="15.195135998552463"><ele>972.0</ele><time>2026-04-26T09:32:37.999Z</time></trkpt><trkpt lat="37.96861266836651" lon="15.195242093649284"><ele>972.0</ele><time>2026-04-26T09:32:38.999Z</time></trkpt><trkpt lat="37.968517659828784" lon="15.195341854548664"><ele>972.0</ele><time>2026-04-26T09:32:39.999Z</time></trkpt><trkpt lat="37.968424012530654" lon="15.19544069360677"><ele>972.0</ele><time>2026-04-26T09:32:40.999Z</time></trkpt><trkpt lat="37.96835272235576" lon="15.195560535839197"><ele>972.0</ele><time>2026-04-26T09:32:41.999Z</time></trkpt><trkpt lat="37.96829221308875" lon="15.195670970853877"><ele>971.8</ele><time>2026-04-26T09:32:42.999Z</time></trkpt><trkpt lat="37.968196600993096" lon="15.195733075155722"><ele>971.6</ele><time>2026-04-26T09:32:43.999Z</time></trkpt><trkpt lat="37.96810363043386" lon="15.19577037641922"><ele>971.3999999999999</ele><time>2026-04-26T09:32:44.999Z</time></trkpt><trkpt lat="37.968007968097574" lon="15.195830943665548"><ele>971.1999999999999</ele><time>2026-04-26T09:32:45.999Z</time></trkpt><trkpt lat="37.967911553336926" lon="15.19587198096168"><ele>971.0</ele><time>2026-04-26T09:32:46.999Z</time></trkpt><trkpt lat="37.96784062142003" lon="15.195933943969893"><ele>971.0</ele><time>2026-04-26T09:32:47.999Z</time></trkpt><trkpt lat="37.96778580349872" lon="15.196038377844348"><ele>970.9999999999999</ele><time>2026-04-26T09:32:48.999Z</time></trkpt><trkpt lat="37.96775881307725" lon="15.196162107183438"><ele>970.9999999999999</ele><time>2026-04-26T09:32:49.999Z</time></trkpt><trkpt lat="37.96773042861915" lon="15.1962824009403"><ele>971.0</ele><time>2026-04-26T09:32:50.999Z</time></trkpt><trkpt lat="37.967650884123074" lon="15.196353512841357"><ele>971.0</ele><time>2026-04-26T09:32:51.999Z</time></trkpt><trkpt lat="37.967611764866646" lon="15.19643734189291"><ele>966.5000000000001</ele><time>2026-04-26T09:32:52.999Z</time></trkpt><trkpt lat="37.967584632001085" lon="15.196529558255484"><ele>962.0</ele><time>2026-04-26T09:32:53.999Z</time></trkpt><trkpt lat="37.967617622941475" lon="15.196634584390633"><ele>957.5</ele><time>2026-04-26T09:32:54.999Z</time></trkpt><trkpt lat="37.96764348564678" lon="15.196741968962604"><ele>953.0</ele><time>2026-04-26T09:32:55.999Z</time></trkpt><trkpt lat="37.96768303002063" lon="15.196843918284642"><ele>948.5000000000001</ele><time>2026-04-26T09:32:56.999Z</time></trkpt><trkpt lat="37.96771358004584" lon="15.196937803200518"><ele>944.0</ele><time>2026-04-26T09:32:57.999Z</time></trkpt><trkpt lat="37.967710982556724" lon="15.197030293252691"><ele>944.0000000000001</ele><time>2026-04-26T09:32:58.999Z</time></trkpt><trkpt lat="37.96770853521667" lon="15.197112605416635"><ele>944.0</ele><time>2026-04-26T09:32:59.999Z</time></trkpt><trkpt lat="37.967652055838656" lon="15.197212486251987"><ele>944.0</ele><time>2026-04-26T09:33:01.999Z</time></trkpt><trkpt lat="37.96756397567199" lon="15.197182981058322"><ele>944.0</ele><time>2026-04-26T09:33:02.999Z</time></trkpt><trkpt lat="37.9674732387144" lon="15.197192699546136"><ele>944.0000000000001</ele><time>2026-04-26T09:33:03.999Z</time></trkpt><trkpt lat="37.96739076365481" lon="15.197215591047517"><ele>944.0</ele><time>2026-04-26T09:33:04.999Z</time></trkpt><trkpt lat="37.96732067582623" lon="15.197205078110667"><ele>945.8000000000001</ele><time>2026-04-26T09:33:05.999Z</time></trkpt><trkpt lat="37.9672245603397" lon="15.197236362667244"><ele>947.6000000000001</ele><time>2026-04-26T09:33:07.999Z</time></trkpt><trkpt lat="37.96722408421371" lon="15.197363352404327"><ele>949.4</ele><time>2026-04-26T09:33:09.999Z</time></trkpt><trkpt lat="37.96729066514651" lon="15.19747132798939"><ele>951.2</ele><time>2026-04-26T09:33:11.999Z</time></trkpt><trkpt lat="37.96737594207415" lon="15.197418847974268"><ele>953.0</ele><time>2026-04-26T09:33:12.999Z</time></trkpt><trkpt lat="37.967457176602906" lon="15.197371958022629"><ele>951.2</ele><time>2026-04-26T09:33:13.999Z</time></trkpt><trkpt lat="37.96755542908673" lon="15.197355036457337"><ele>949.4</ele><time>2026-04-26T09:33:14.999Z</time></trkpt><trkpt lat="37.96764841356947" lon="15.197341254601845"><ele>947.6000000000001</ele><time>2026-04-26T09:33:15.999Z</time></trkpt><trkpt lat="37.96772637907217" lon="15.197356039316524"><ele>945.8000000000001</ele><time>2026-04-26T09:33:16.999Z</time></trkpt><trkpt lat="37.967798564172455" lon="15.197350500441425"><ele>944.0</ele><time>2026-04-26T09:33:17.999Z</time></trkpt><trkpt lat="37.96791015813651" lon="15.197313096780029"><ele>944.0000000000001</ele><time>2026-04-26T09:33:19.999Z</time></trkpt><trkpt lat="37.96794397871756" lon="15.197206501206352"><ele>944.0</ele><time>2026-04-26T09:33:20.999Z</time></trkpt><trkpt lat="37.96790683821809" lon="15.19709312867079"><ele>944.0</ele><time>2026-04-26T09:33:21.999Z</time></trkpt><trkpt lat="37.9679075159561" lon="15.196974273132819"><ele>944.0</ele><time>2026-04-26T09:33:22.999Z</time></trkpt><trkpt lat="37.96789990708318" lon="15.196868375020351"><ele>944.0000000000001</ele><time>2026-04-26T09:33:23.999Z</time></trkpt><trkpt lat="37.967897197157015" lon="15.196769113318183"><ele>944.0</ele><time>2026-04-26T09:33:24.999Z</time></trkpt><trkpt lat="37.967895051529844" lon="15.196686753380108"><ele>944.0000000000001</ele><time>2026-04-26T09:33:26Z</time></trkpt><trkpt lat="37.967958106233404" lon="15.196619712025033"><ele>944.0</ele><time>2026-04-26T09:33:27Z</time></trkpt><trkpt lat="37.96803044012029" lon="15.19654231600724"><ele>944.0</ele><time>2026-04-26T09:33:28Z</time></trkpt><trkpt lat="37.968061696595065" lon="15.196453046021075"><ele>944.0</ele><time>2026-04-26T09:33:29Z</time></trkpt><trkpt lat="37.968099242262184" lon="15.196379059222979"><ele>944.0000000000001</ele><time>2026-04-26T09:33:30Z</time></trkpt><trkpt lat="37.96821658783298" lon="15.196353154688056"><ele>944.0</ele><time>2026-04-26T09:33:32Z</time></trkpt><trkpt lat="37.968283602346986" lon="15.196408841467694"><ele>945.6</ele><time>2026-04-26T09:33:33Z</time></trkpt><trkpt lat="37.968372203848595" lon="15.196453598461032"><ele>947.2</ele><time>2026-04-26T09:33:34Z</time></trkpt><trkpt lat="37.96846963422383" lon="15.196483513411225"><ele>948.8000000000001</ele><time>2026-04-26T09:33:35Z</time></trkpt><trkpt lat="37.968553367135065" lon="15.196548640020842"><ele>950.4000000000001</ele><time>2026-04-26T09:33:36Z</time></trkpt><trkpt lat="37.96863391995312" lon="15.19661492131896"><ele>952.0</ele><time>2026-04-26T09:33:37Z</time></trkpt><trkpt lat="37.968717817460124" lon="15.19667905755271"><ele>947.8</ele><time>2026-04-26T09:33:38Z</time></trkpt><trkpt lat="37.968810528496974" lon="15.196733815507294"><ele>943.6</ele><time>2026-04-26T09:33:39Z</time></trkpt><trkpt lat="37.96888882102042" lon="15.19676226306413"><ele>939.3999999999999</ele><time>2026-04-26T09:33:40Z</time></trkpt><trkpt lat="37.96896235233431" lon="15.196758249203718"><ele>935.1999999999999</ele><time>2026-04-26T09:33:41Z</time></trkpt><trkpt lat="37.96904413102819" lon="15.196713183665844"><ele>931.0</ele><time>2026-04-26T09:33:42Z</time></trkpt><trkpt lat="37.96914629643698" lon="15.196635480268792"><ele>932.0</ele><time>2026-04-26T09:33:43Z</time></trkpt><trkpt lat="37.9692657383204" lon="15.196586468128313"><ele>933.0</ele><time>2026-04-26T09:33:44Z</time></trkpt><trkpt lat="37.96937114334666" lon="15.196517258476891"><ele>934.0</ele><time>2026-04-26T09:33:45Z</time></trkpt><trkpt lat="37.96947736846094" lon="15.196438194501807"><ele>935.0</ele><time>2026-04-26T09:33:46Z</time></trkpt><trkpt lat="37.96959083437501" lon="15.19636911909849"><ele>935.0</ele><time>2026-04-26T09:33:47Z</time></trkpt><trkpt lat="37.969701623727964" lon="15.196310877080412"><ele>935.0</ele><time>2026-04-26T09:33:48Z</time></trkpt><trkpt lat="37.96980614675109" lon="15.196261706513056"><ele>935.0</ele><time>2026-04-26T09:33:49Z</time></trkpt><trkpt lat="37.96989939867888" lon="15.196227904519779"><ele>935.0</ele><time>2026-04-26T09:33:50Z</time></trkpt><trkpt lat="37.9699776719155" lon="15.196202997614781"><ele>935.0</ele><time>2026-04-26T09:33:51Z</time></trkpt><trkpt lat="37.97006565238367" lon="15.196167737556458"><ele>933.8</ele><time>2026-04-26T09:33:52Z</time></trkpt><trkpt lat="37.97017046113849" lon="15.196179807571555"><ele>932.6</ele><time>2026-04-26T09:33:53Z</time></trkpt><trkpt lat="37.970272438179805" lon="15.196211831165117"><ele>931.4000000000001</ele><time>2026-04-26T09:33:54Z</time></trkpt><trkpt lat="37.97036035649698" lon="15.196250070677932"><ele>930.2</ele><time>2026-04-26T09:33:55Z</time></trkpt><trkpt lat="37.97042699259332" lon="15.196264947125991"><ele>929.0</ele><time>2026-04-26T09:33:56Z</time></trkpt><trkpt lat="37.97048784135895" lon="15.19619548202649"><ele>929.0</ele><time>2026-04-26T09:33:57Z</time></trkpt><trkpt lat="37.970559340237905" lon="15.196125562988307"><ele>929.0000000000001</ele><time>2026-04-26T09:33:58Z</time></trkpt><trkpt lat="37.970649901865" lon="15.196073602210124"><ele>929.0000000000001</ele><time>2026-04-26T09:33:59Z</time></trkpt><trkpt lat="37.97073712341074" lon="15.196024420656528"><ele>929.0</ele><time>2026-04-26T09:34:00Z</time></trkpt><trkpt lat="37.970809760503" lon="15.195972599476697"><ele>929.0</ele><time>2026-04-26T09:34:01Z</time></trkpt><trkpt lat="37.97089142984478" lon="15.195976155525763"><ele>925.1666666666667</ele><time>2026-04-26T09:34:02Z</time></trkpt><trkpt lat="37.970957769338774" lon="15.196001571213984"><ele>921.3333333333334</ele><time>2026-04-26T09:34:03Z</time></trkpt><trkpt lat="37.97101206709839" lon="15.19604875470686"><ele>917.5</ele><time>2026-04-26T09:34:04Z</time></trkpt><trkpt lat="37.97106888125378" lon="15.196119664768313"><ele>913.6666666666667</ele><time>2026-04-26T09:34:05Z</time></trkpt><trkpt lat="37.97112283038535" lon="15.196214667241039"><ele>909.8333333333334</ele><time>2026-04-26T09:34:06Z</time></trkpt><trkpt lat="37.9711581751451" lon="15.19633366838936"><ele>906.0</ele><time>2026-04-26T09:34:07Z</time></trkpt><trkpt lat="37.97118938277279" lon="15.19646642943578"><ele>909.4</ele><time>2026-04-26T09:34:08Z</time></trkpt><trkpt lat="37.971212572433245" lon="15.196600132809092"><ele>912.8</ele><time>2026-04-26T09:34:09Z</time></trkpt><trkpt lat="37.97123269231768" lon="15.196716809467826"><ele>916.1999999999999</ele><time>2026-04-26T09:34:10Z</time></trkpt><trkpt lat="37.97126299950593" lon="15.196810439094394"><ele>919.5999999999999</ele><time>2026-04-26T09:34:11Z</time></trkpt><trkpt lat="37.97132136583853" lon="15.196879867817627"><ele>923.0</ele><time>2026-04-26T09:34:12Z</time></trkpt><trkpt lat="37.97141910827083" lon="15.19693710038743"><ele>923.0</ele><time>2026-04-26T09:34:13Z</time></trkpt><trkpt lat="37.9715301080608" lon="15.197011041003195"><ele>923.0</ele><time>2026-04-26T09:34:14Z</time></trkpt><trkpt lat="37.9716121283316" lon="15.197107432341042"><ele>923.0</ele><time>2026-04-26T09:34:15Z</time></trkpt><trkpt lat="37.9716619134019" lon="15.197190715496895"><ele>923.0</ele><time>2026-04-26T09:34:16Z</time></trkpt><trkpt lat="37.97173272914462" lon="15.197228029112592"><ele>923.0</ele><time>2026-04-26T09:34:17Z</time></trkpt><trkpt lat="37.97182149390341" lon="15.197229417631666"><ele>919.8</ele><time>2026-04-26T09:34:18Z</time></trkpt><trkpt lat="37.97193805229122" lon="15.197209149727277"><ele>916.5999999999999</ele><time>2026-04-26T09:34:19Z</time></trkpt><trkpt lat="37.97204289463344" lon="15.197204283233548"><ele>913.4000000000001</ele><time>2026-04-26T09:34:20Z</time></trkpt><trkpt lat="37.97214008359016" lon="15.19721126464073"><ele>910.2</ele><time>2026-04-26T09:34:21Z</time></trkpt><trkpt lat="37.97224521647731" lon="15.197208496156724"><ele>907.0</ele><time>2026-04-26T09:34:22Z</time></trkpt><trkpt lat="37.97234645526326" lon="15.197234697954583"><ele>906.9999999999999</ele><time>2026-04-26T09:34:23Z</time></trkpt><trkpt lat="37.97243638350189" lon="15.197256641303365"><ele>907.0</ele><time>2026-04-26T09:34:24Z</time></trkpt><trkpt lat="37.9725315726598" lon="15.197275724038633"><ele>907.0</ele><time>2026-04-26T09:34:25Z</time></trkpt><trkpt lat="37.97261545506732" lon="15.197286513723808"><ele>907.0</ele><time>2026-04-26T09:34:26Z</time></trkpt><trkpt lat="37.97269013580607" lon="15.197297749627701"><ele>906.9999999999999</ele><time>2026-04-26T09:34:27Z</time></trkpt><trkpt lat="37.97277307896889" lon="15.197314230285519"><ele>907.0</ele><time>2026-04-26T09:34:28Z</time></trkpt><trkpt lat="37.97286830198198" lon="15.19732892168664"><ele>908.8</ele><time>2026-04-26T09:34:29Z</time></trkpt><trkpt lat="37.97297666802387" lon="15.197346104366796"><ele>910.6</ele><time>2026-04-26T09:34:30Z</time></trkpt><trkpt lat="37.973084488100135" lon="15.19736801708855"><ele>912.3999999999999</ele><time>2026-04-26T09:34:31Z</time></trkpt><trkpt lat="37.97319634284083" lon="15.197385404533945"><ele>914.1999999999999</ele><time>2026-04-26T09:34:32Z</time></trkpt><trkpt lat="37.97330750995523" lon="15.197403953727482"><ele>916.0</ele><time>2026-04-26T09:34:33Z</time></trkpt><trkpt lat="37.973422175245" lon="15.197425300036057"><ele>916.0</ele><time>2026-04-26T09:34:34Z</time></trkpt><trkpt lat="37.973540540651" lon="15.197436913074506"><ele>916.0</ele><time>2026-04-26T09:34:35Z</time></trkpt><trkpt lat="37.97366780028767" lon="15.197445477284939"><ele>916.0</ele><time>2026-04-26T09:34:36Z</time></trkpt><trkpt lat="37.97378305447106" lon="15.197398010627719"><ele>916.0</ele><time>2026-04-26T09:34:37Z</time></trkpt><trkpt lat="37.97388776798259" lon="15.197381415704028"><ele>916.0</ele><time>2026-04-26T09:34:38Z</time></trkpt><trkpt lat="37.97399587513542" lon="15.19741278028484"><ele>915.9999999999999</ele><time>2026-04-26T09:34:39Z</time></trkpt><trkpt lat="37.97410695028764" lon="15.197428261279606"><ele>915.9999999999999</ele><time>2026-04-26T09:34:40Z</time></trkpt><trkpt lat="37.974193863465615" lon="15.197491508164898"><ele>916.0</ele><time>2026-04-26T09:34:40.999Z</time></trkpt><trkpt lat="37.97426840812009" lon="15.197563455118509"><ele>916.0</ele><time>2026-04-26T09:34:41.999Z</time></trkpt><trkpt lat="37.97435108862164" lon="15.197614639008785"><ele>917.0</ele><time>2026-04-26T09:34:42.999Z</time></trkpt><trkpt lat="37.97444843103586" lon="15.197659715171111"><ele>918.0</ele><time>2026-04-26T09:34:43.999Z</time></trkpt><trkpt lat="37.97456525815675" lon="15.197615839347652"><ele>919.0</ele><time>2026-04-26T09:34:44.999Z</time></trkpt><trkpt lat="37.974661724549726" lon="15.197512951338386"><ele>920.0</ele><time>2026-04-26T09:34:45.999Z</time></trkpt><trkpt lat="37.97474782448287" lon="15.197388289714311"><ele>912.75</ele><time>2026-04-26T09:34:46.999Z</time></trkpt><trkpt lat="37.974824354142704" lon="15.197249741431012"><ele>905.5</ele><time>2026-04-26T09:34:47.999Z</time></trkpt><trkpt lat="37.97490979896921" lon="15.197156686685387"><ele>898.25</ele><time>2026-04-26T09:34:48.999Z</time></trkpt><trkpt lat="37.97499358230825" lon="15.197087316506304"><ele>891.0</ele><time>2026-04-26T09:34:49.999Z</time></trkpt><trkpt lat="37.975087260586676" lon="15.197020971630334"><ele>887.5999999999999</ele><time>2026-04-26T09:34:50.999Z</time></trkpt><trkpt lat="37.97519184951117" lon="15.19699290416689"><ele>884.1999999999999</ele><time>2026-04-26T09:34:51.999Z</time></trkpt><trkpt lat="37.97527759364279" lon="15.197034711564807"><ele>880.8000000000001</ele><time>2026-04-26T09:34:52.999Z</time></trkpt><trkpt lat="37.97533188308176" lon="15.197102226519595"><ele>877.4000000000001</ele><time>2026-04-26T09:34:53.999Z</time></trkpt><trkpt lat="37.97536670505369" lon="15.197202936051703"><ele>874.0</ele><time>2026-04-26T09:34:54.999Z</time></trkpt><trkpt lat="37.97539402951421" lon="15.197328443012264"><ele>877.5</ele><time>2026-04-26T09:34:55.999Z</time></trkpt><trkpt lat="37.97545327316108" lon="15.197465558865233"><ele>881.0</ele><time>2026-04-26T09:34:56.999Z</time></trkpt><trkpt lat="37.975513523847916" lon="15.19760655517483"><ele>884.5</ele><time>2026-04-26T09:34:57.999Z</time></trkpt><trkpt lat="37.97558754262672" lon="15.1977440501564"><ele>888.0</ele><time>2026-04-26T09:34:58.999Z</time></trkpt><trkpt lat="37.9756591043259" lon="15.197898102977454"><ele>888.0</ele><time>2026-04-26T09:34:59.999Z</time></trkpt><trkpt lat="37.97572260874759" lon="15.19806375400362"><ele>888.0</ele><time>2026-04-26T09:35:00.999Z</time></trkpt><trkpt lat="37.97579841050035" lon="15.198248745679232"><ele>888.0</ele><time>2026-04-26T09:35:01.999Z</time></trkpt><trkpt lat="37.97588930393886" lon="15.198437294831416"><ele>884.75</ele><time>2026-04-26T09:35:02.999Z</time></trkpt><trkpt lat="37.97595785127604" lon="15.198599580143766"><ele>881.5</ele><time>2026-04-26T09:35:03.999Z</time></trkpt><trkpt lat="37.97601986984534" lon="15.198738966497332"><ele>878.25</ele><time>2026-04-26T09:35:04.999Z</time></trkpt><trkpt lat="37.97608797235991" lon="15.198867710495724"><ele>875.0</ele><time>2026-04-26T09:35:05.999Z</time></trkpt><trkpt lat="37.97614115728024" lon="15.198995398761927"><ele>876.6</ele><time>2026-04-26T09:35:06.999Z</time></trkpt><trkpt lat="37.97615416302683" lon="15.199122663134066"><ele>878.2</ele><time>2026-04-26T09:35:07.999Z</time></trkpt><trkpt lat="37.976121554841626" lon="15.199240607567077"><ele>879.8</ele><time>2026-04-26T09:35:08.999Z</time></trkpt><trkpt lat="37.97604283618662" lon="15.199325158403525"><ele>881.4</ele><time>2026-04-26T09:35:09.999Z</time></trkpt><trkpt lat="37.97596477403532" lon="15.199413995325859"><ele>883.0</ele><time>2026-04-26T09:35:10.999Z</time></trkpt><trkpt lat="37.975861101508535" lon="15.199505016820726"><ele>889.0</ele><time>2026-04-26T09:35:11.999Z</time></trkpt><trkpt lat="37.97579372736947" lon="15.199606076550147"><ele>895.0</ele><time>2026-04-26T09:35:12.999Z</time></trkpt><trkpt lat="37.97576223254892" lon="15.199731767682769"><ele>901.0</ele><time>2026-04-26T09:35:13.999Z</time></trkpt><trkpt lat="37.97574052941199" lon="15.199852493240124"><ele>907.0</ele><time>2026-04-26T09:35:14.999Z</time></trkpt><trkpt lat="37.97575021261651" lon="15.199956202856761"><ele>913.0</ele><time>2026-04-26T09:35:15.999Z</time></trkpt><trkpt lat="37.97576599448007" lon="15.200051991103877"><ele>910.2</ele><time>2026-04-26T09:35:16.999Z</time></trkpt><trkpt lat="37.97586235024439" lon="15.200127394192348"><ele>907.4</ele><time>2026-04-26T09:35:17.999Z</time></trkpt><trkpt lat="37.97592618577502" lon="15.200204214738507"><ele>904.6000000000001</ele><time>2026-04-26T09:35:18.999Z</time></trkpt><trkpt lat="37.976007136115314" lon="15.20021462481156"><ele>901.8000000000001</ele><time>2026-04-26T09:35:19.999Z</time></trkpt><trkpt lat="37.97609075265576" lon="15.200128028735028"><ele>899.0</ele><time>2026-04-26T09:35:20.999Z</time></trkpt><trkpt lat="37.976143228156616" lon="15.200023951014263"><ele>899.0</ele><time>2026-04-26T09:35:21.999Z</time></trkpt><trkpt lat="37.97622373619509" lon="15.19995926619676"><ele>899.0000000000001</ele><time>2026-04-26T09:35:22.999Z</time></trkpt><trkpt lat="37.976309030374374" lon="15.199911501129312"><ele>899.0000000000001</ele><time>2026-04-26T09:35:23.999Z</time></trkpt><trkpt lat="37.97642330235555" lon="15.199902703455509"><ele>899.0</ele><time>2026-04-26T09:35:24.999Z</time></trkpt><trkpt lat="37.97653648152042" lon="15.19988192826686"><ele>899.0</ele><time>2026-04-26T09:35:25.999Z</time></trkpt><trkpt lat="37.97665876550465" lon="15.199856071587151"><ele>890.75</ele><time>2026-04-26T09:35:26.999Z</time></trkpt><trkpt lat="37.97679824199381" lon="15.199804180913784"><ele>882.5</ele><time>2026-04-26T09:35:27.999Z</time></trkpt><trkpt lat="37.97689830096306" lon="15.199736658869448"><ele>874.25</ele><time>2026-04-26T09:35:28.999Z</time></trkpt><trkpt lat="37.97698878892953" lon="15.199732158651056"><ele>866.0</ele><time>2026-04-26T09:35:29.999Z</time></trkpt><trkpt lat="37.97711926021727" lon="15.19976404350886"><ele>871.75</ele><time>2026-04-26T09:35:30.999Z</time></trkpt><trkpt lat="37.97722391692461" lon="15.199840820214309"><ele>877.5</ele><time>2026-04-26T09:35:32Z</time></trkpt><trkpt lat="37.977340605699204" lon="15.19991806116948"><ele>883.25</ele><time>2026-04-26T09:35:33Z</time></trkpt><trkpt lat="37.977476856814455" lon="15.1999449608243"><ele>889.0</ele><time>2026-04-26T09:35:34Z</time></trkpt><trkpt lat="37.97761576160692" lon="15.199929105821543"><ele>889.0</ele><time>2026-04-26T09:35:35Z</time></trkpt><trkpt lat="37.977791608248765" lon="15.199932653369405"><ele>889.0</ele><time>2026-04-26T09:35:36Z</time></trkpt><trkpt lat="37.97795442759828" lon="15.199889537296276"><ele>889.0</ele><time>2026-04-26T09:35:37Z</time></trkpt><trkpt lat="37.97809971982488" lon="15.19988004070711"><ele>889.0</ele><time>2026-04-26T09:35:38Z</time></trkpt><trkpt lat="37.97824912653463" lon="15.199876585179721"><ele>889.0</ele><time>2026-04-26T09:35:39Z</time></trkpt><trkpt lat="37.97840562943036" lon="15.199910465491422"><ele>889.0</ele><time>2026-04-26T09:35:40Z</time></trkpt><trkpt lat="37.97857821471127" lon="15.199936441384931"><ele>887.0</ele><time>2026-04-26T09:35:41Z</time></trkpt><trkpt lat="37.97874749250402" lon="15.199958197624301"><ele>885.0</ele><time>2026-04-26T09:35:42Z</time></trkpt><trkpt lat="37.97889994899909" lon="15.199984287910011"><ele>883.0</ele><time>2026-04-26T09:35:43Z</time></trkpt><trkpt lat="37.979045827379714" lon="15.20002320253389"><ele>883.0</ele><time>2026-04-26T09:35:44Z</time></trkpt><trkpt lat="37.979173121364724" lon="15.200096328562635"><ele>883.0</ele><time>2026-04-26T09:35:45Z</time></trkpt><trkpt lat="37.97931831741283" lon="15.20010777391946"><ele>883.0</ele><time>2026-04-26T09:35:46Z</time></trkpt><trkpt lat="37.97945041044488" lon="15.200107351535662"><ele>883.0</ele><time>2026-04-26T09:35:47Z</time></trkpt><trkpt lat="37.97957608508412" lon="15.200106336133473"><ele>881.5</ele><time>2026-04-26T09:35:48Z</time></trkpt><trkpt lat="37.97969493647094" lon="15.200162494950503"><ele>880.0</ele><time>2026-04-26T09:35:49Z</time></trkpt><trkpt lat="37.97982405126506" lon="15.200204026428805"><ele>878.5</ele><time>2026-04-26T09:35:50Z</time></trkpt><trkpt lat="37.9799509156501" lon="15.200278997181359"><ele>877.0</ele><time>2026-04-26T09:35:51Z</time></trkpt><trkpt lat="37.98007030105943" lon="15.200329820364084"><ele>877.0</ele><time>2026-04-26T09:35:52Z</time></trkpt><trkpt lat="37.98018268117554" lon="15.200358131396506"><ele>877.0</ele><time>2026-04-26T09:35:53Z</time></trkpt><trkpt lat="37.980284146322795" lon="15.200349139101244"><ele>877.0</ele><time>2026-04-26T09:35:54Z</time></trkpt><trkpt lat="37.98037146753832" lon="15.200295529865208"><ele>877.0</ele><time>2026-04-26T09:35:55Z</time></trkpt><trkpt lat="37.98045167874487" lon="15.200212205559575"><ele>877.0</ele><time>2026-04-26T09:35:56Z</time></trkpt><trkpt lat="37.98056144560553" lon="15.20019012884866"><ele>877.0</ele><time>2026-04-26T09:35:57Z</time></trkpt><trkpt lat="37.980687690826905" lon="15.200150603171245"><ele>877.0</ele><time>2026-04-26T09:35:58Z</time></trkpt><trkpt lat="37.98084361271798" lon="15.200097428242533"><ele>877.0</ele><time>2026-04-26T09:35:59Z</time></trkpt><trkpt lat="37.98099753512146" lon="15.200055770801702"><ele>877.0</ele><time>2026-04-26T09:36:00Z</time></trkpt><trkpt lat="37.98114884386923" lon="15.200026851644965"><ele>877.5</ele><time>2026-04-26T09:36:01Z</time></trkpt><trkpt lat="37.98130063944085" lon="15.199982850464064"><ele>878.0</ele><time>2026-04-26T09:36:02Z</time></trkpt><trkpt lat="37.98143047205091" lon="15.199937513618947"><ele>878.5</ele><time>2026-04-26T09:36:03Z</time></trkpt><trkpt lat="37.981550592936124" lon="15.199902037092246"><ele>879.0</ele><time>2026-04-26T09:36:04Z</time></trkpt><trkpt lat="37.98167458321663" lon="15.1998915112305"><ele>878.75</ele><time>2026-04-26T09:36:05Z</time></trkpt><trkpt lat="37.98180477103631" lon="15.199904524319546"><ele>878.5</ele><time>2026-04-26T09:36:06Z</time></trkpt><trkpt lat="37.98192552528238" lon="15.199937339401785"><ele>878.25</ele><time>2026-04-26T09:36:07Z</time></trkpt><trkpt lat="37.98203122842675" lon="15.19996612131757"><ele>878.0</ele><time>2026-04-26T09:36:08Z</time></trkpt><trkpt lat="37.98212121011533" lon="15.199991506007038"><ele>878.0</ele><time>2026-04-26T09:36:09Z</time></trkpt><trkpt lat="37.982199037418276" lon="15.200010027233773"><ele>878.0</ele><time>2026-04-26T09:36:10Z</time></trkpt><trkpt lat="37.98228331789543" lon="15.200030554787427"><ele>878.0</ele><time>2026-04-26T09:36:11Z</time></trkpt><trkpt lat="37.98237390479751" lon="15.199979553432378"><ele>878.0</ele><time>2026-04-26T09:36:12Z</time></trkpt><trkpt lat="37.98246968360521" lon="15.199955937582477"><ele>878.0</ele><time>2026-04-26T09:36:13Z</time></trkpt><trkpt lat="37.98258315859379" lon="15.199944401003858"><ele>878.25</ele><time>2026-04-26T09:36:14Z</time></trkpt><trkpt lat="37.982697894638974" lon="15.199954116285808"><ele>878.5</ele><time>2026-04-26T09:36:15Z</time></trkpt><trkpt lat="37.98280696800579" lon="15.200006210746592"><ele>878.75</ele><time>2026-04-26T09:36:16Z</time></trkpt><trkpt lat="37.98292894086746" lon="15.20003768785316"><ele>879.0</ele><time>2026-04-26T09:36:17Z</time></trkpt><trkpt lat="37.983034264912774" lon="15.200089324756119"><ele>879.0</ele><time>2026-04-26T09:36:18Z</time></trkpt><trkpt lat="37.98311802007406" lon="15.200146327688069"><ele>879.0000000000001</ele><time>2026-04-26T09:36:19Z</time></trkpt><trkpt lat="37.983182685610224" lon="15.200195332884507"><ele>879.0000000000001</ele><time>2026-04-26T09:36:20Z</time></trkpt><trkpt lat="37.983252610190526" lon="15.200242956299018"><ele>879.0</ele><time>2026-04-26T09:36:22Z</time></trkpt><trkpt lat="37.983324254208" lon="15.200093172407298"><ele>879.0</ele><time>2026-04-26T09:36:23Z</time></trkpt><trkpt lat="37.98330386932545" lon="15.1999552618663"><ele>878.4000000000001</ele><time>2026-04-26T09:36:24Z</time></trkpt><trkpt lat="37.98332321530978" lon="15.199825012597545"><ele>877.8000000000001</ele><time>2026-04-26T09:36:25Z</time></trkpt><trkpt lat="37.98337112622952" lon="15.199691900941621"><ele>877.1999999999999</ele><time>2026-04-26T09:36:26Z</time></trkpt><trkpt lat="37.98340119650489" lon="15.199555882382155"><ele>876.5999999999999</ele><time>2026-04-26T09:36:27Z</time></trkpt><trkpt lat="37.98338525286433" lon="15.199421637086088"><ele>876.0</ele><time>2026-04-26T09:36:28Z</time></trkpt><trkpt lat="37.98335214498888" lon="15.199301339582235"><ele>876.0</ele><time>2026-04-26T09:36:29Z</time></trkpt><trkpt lat="37.9833396475209" lon="15.199193446933629"><ele>876.0</ele><time>2026-04-26T09:36:30Z</time></trkpt><trkpt lat="37.98340184839026" lon="15.199114709386322"><ele>876.0</ele><time>2026-04-26T09:36:31Z</time></trkpt><trkpt lat="37.9834586442686" lon="15.199052964243435"><ele>876.0</ele><time>2026-04-26T09:36:32Z</time></trkpt><trkpt lat="37.98355103808513" lon="15.199057883391841"><ele>876.0</ele><time>2026-04-26T09:36:33Z</time></trkpt><trkpt lat="37.983651271034475" lon="15.19906163255712"><ele>876.0</ele><time>2026-04-26T09:36:34Z</time></trkpt><trkpt lat="37.98374774056001" lon="15.199066607777155"><ele>876.0</ele><time>2026-04-26T09:36:35Z</time></trkpt><trkpt lat="37.98382698737163" lon="15.199067426763946"><ele>875.9999999999999</ele><time>2026-04-26T09:36:36Z</time></trkpt><trkpt lat="37.983898642305235" lon="15.199073703452873"><ele>875.9999999999999</ele><time>2026-04-26T09:36:37Z</time></trkpt><trkpt lat="37.98396570378399" lon="15.199108043893006"><ele>876.0</ele><time>2026-04-26T09:36:38Z</time></trkpt><trkpt lat="37.98403777501544" lon="15.199084700470411"><ele>876.0</ele><time>2026-04-26T09:36:39Z</time></trkpt><trkpt lat="37.98411106380995" lon="15.198881586428174"><ele>872.8</ele><time>2026-04-26T09:36:41Z</time></trkpt><trkpt lat="37.98417565886025" lon="15.19878442506932"><ele>869.5999999999999</ele><time>2026-04-26T09:36:42Z</time></trkpt><trkpt lat="37.98422856836963" lon="15.198657828031987"><ele>866.4</ele><time>2026-04-26T09:36:43Z</time></trkpt><trkpt lat="37.98431124511951" lon="15.19854657187043"><ele>863.2</ele><time>2026-04-26T09:36:44Z</time></trkpt><trkpt lat="37.9843952955202" lon="15.198448864916326"><ele>860.0</ele><time>2026-04-26T09:36:45Z</time></trkpt><trkpt lat="37.98448539635932" lon="15.198363432085241"><ele>860.0</ele><time>2026-04-26T09:36:46Z</time></trkpt><trkpt lat="37.98458152021158" lon="15.198288148217376"><ele>860.0</ele><time>2026-04-26T09:36:47Z</time></trkpt><trkpt lat="37.984653758817345" lon="15.198224519303205"><ele>860.0</ele><time>2026-04-26T09:36:48Z</time></trkpt><trkpt lat="37.98471415249285" lon="15.198192312409983"><ele>860.0</ele><time>2026-04-26T09:36:49Z</time></trkpt><trkpt lat="37.984824728668706" lon="15.19828029029341"><ele>860.0</ele><time>2026-04-26T09:36:51Z</time></trkpt><trkpt lat="37.984900407228125" lon="15.198350534470594"><ele>860.0</ele><time>2026-04-26T09:36:52Z</time></trkpt><trkpt lat="37.98499315944989" lon="15.198401166718623"><ele>860.0</ele><time>2026-04-26T09:36:52.999Z</time></trkpt><trkpt lat="37.98508522222045" lon="15.198464273303902"><ele>860.0</ele><time>2026-04-26T09:36:53.999Z</time></trkpt><trkpt lat="37.98520353969478" lon="15.198479056440291"><ele>860.0</ele><time>2026-04-26T09:36:54.999Z</time></trkpt><trkpt lat="37.98532343883358" lon="15.198498047049075"><ele>860.0</ele><time>2026-04-26T09:36:55.999Z</time></trkpt><trkpt lat="37.98546752383026" lon="15.198508201372427"><ele>859.6666666666667</ele><time>2026-04-26T09:36:56.999Z</time></trkpt><trkpt lat="37.98562693724086" lon="15.198529446882464"><ele>859.3333333333333</ele><time>2026-04-26T09:36:57.999Z</time></trkpt><trkpt lat="37.98578292745514" lon="15.198561571102678"><ele>859.0</ele><time>2026-04-26T09:36:58.999Z</time></trkpt><trkpt lat="37.98591969661461" lon="15.198586630896955"><ele>859.0</ele><time>2026-04-26T09:36:59.999Z</time></trkpt><trkpt lat="37.98605271716663" lon="15.198565853870214"><ele>859.0</ele><time>2026-04-26T09:37:00.999Z</time></trkpt><trkpt lat="37.98616771904058" lon="15.198526579564708"><ele>859.0</ele><time>2026-04-26T09:37:01.999Z</time></trkpt><trkpt lat="37.98627747099396" lon="15.198453275577881"><ele>859.0</ele><time>2026-04-26T09:37:02.999Z</time></trkpt><trkpt lat="37.9863852317229" lon="15.198382010361202"><ele>859.0</ele><time>2026-04-26T09:37:03.999Z</time></trkpt><trkpt lat="37.986508556914295" lon="15.198376711256136"><ele>859.0000000000001</ele><time>2026-04-26T09:37:04.999Z</time></trkpt><trkpt lat="37.98661006981429" lon="15.198334068391233"><ele>859.0000000000001</ele><time>2026-04-26T09:37:05.999Z</time></trkpt><trkpt lat="37.98668288372118" lon="15.198308134376163"><ele>859.0</ele><time>2026-04-26T09:37:06.999Z</time></trkpt><trkpt lat="37.98672145812763" lon="15.198210273221871"><ele>859.0</ele><time>2026-04-26T09:37:08.999Z</time></trkpt><trkpt lat="37.98673373648665" lon="15.19811185104323"><ele>855.6666666666666</ele><time>2026-04-26T09:37:09.999Z</time></trkpt><trkpt lat="37.98674651113041" lon="15.197994241955955"><ele>852.3333333333333</ele><time>2026-04-26T09:37:10.999Z</time></trkpt><trkpt lat="37.98678258895443" lon="15.197887477993511"><ele>849.0</ele><time>2026-04-26T09:37:11.999Z</time></trkpt><trkpt lat="37.986840637020315" lon="15.197802419740613"><ele>845.6666666666667</ele><time>2026-04-26T09:37:12.999Z</time></trkpt><trkpt lat="37.98692043641235" lon="15.19777831268357"><ele>842.3333333333334</ele><time>2026-04-26T09:37:13.999Z</time></trkpt><trkpt lat="37.98699212688675" lon="15.197769355139979"><ele>839.0</ele><time>2026-04-26T09:37:14.999Z</time></trkpt><trkpt lat="37.98707836634444" lon="15.197841640466867"><ele>839.0</ele><time>2026-04-26T09:37:15.999Z</time></trkpt><trkpt lat="37.987194209143595" lon="15.197882838748985"><ele>839.0</ele><time>2026-04-26T09:37:16.999Z</time></trkpt><trkpt lat="37.98732284791077" lon="15.197923530157244"><ele>839.0</ele><time>2026-04-26T09:37:17.999Z</time></trkpt><trkpt lat="37.98742636633797" lon="15.197938229456353"><ele>839.0</ele><time>2026-04-26T09:37:18.999Z</time></trkpt><trkpt lat="37.987498224186304" lon="15.197973602002994"><ele>839.0</ele><time>2026-04-26T09:37:19.999Z</time></trkpt><trkpt lat="37.98750297245849" lon="15.198121037539549"><ele>838.5</ele><time>2026-04-26T09:37:20.999Z</time></trkpt><trkpt lat="37.98758909449402" lon="15.198204666470355"><ele>838.0</ele><time>2026-04-26T09:37:22.999Z</time></trkpt><trkpt lat="37.98772615467895" lon="15.198152524839317"><ele>837.5</ele><time>2026-04-26T09:37:24.999Z</time></trkpt><trkpt lat="37.98782478725083" lon="15.198115265928351"><ele>837.0</ele><time>2026-04-26T09:37:25.999Z</time></trkpt><trkpt lat="37.98793404008926" lon="15.198124002048587"><ele>837.0</ele><time>2026-04-26T09:37:26.999Z</time></trkpt><trkpt lat="37.988031056433655" lon="15.198127023337834"><ele>837.0</ele><time>2026-04-26T09:37:27.999Z</time></trkpt><trkpt lat="37.988111848939646" lon="15.198136700373553"><ele>837.0</ele><time>2026-04-26T09:37:28.999Z</time></trkpt><trkpt lat="37.988160993307226" lon="15.19819220428998"><ele>837.0</ele><time>2026-04-26T09:37:29.999Z</time></trkpt><trkpt lat="37.988195827263326" lon="15.19828096954363"><ele>837.0</ele><time>2026-04-26T09:37:30.999Z</time></trkpt><trkpt lat="37.98823316236716" lon="15.198405673439996"><ele>837.0</ele><time>2026-04-26T09:37:31.999Z</time></trkpt><trkpt lat="37.98829085733281" lon="15.198547359470322"><ele>835.2</ele><time>2026-04-26T09:37:32.999Z</time></trkpt><trkpt lat="37.98837423630651" lon="15.198642721425307"><ele>833.4000000000001</ele><time>2026-04-26T09:37:33.999Z</time></trkpt><trkpt lat="37.9884438871061" lon="15.19874524347958"><ele>831.5999999999999</ele><time>2026-04-26T09:37:34.999Z</time></trkpt><trkpt lat="37.988482035895075" lon="15.19887445896105"><ele>829.8</ele><time>2026-04-26T09:37:35.999Z</time></trkpt><trkpt lat="37.98853011892281" lon="15.198960307767273"><ele>828.0</ele><time>2026-04-26T09:37:37Z</time></trkpt><trkpt lat="37.98858433767328" lon="15.19900440972382"><ele>828.0</ele><time>2026-04-26T09:37:38Z</time></trkpt><trkpt lat="37.98866108942752" lon="15.199023682867915"><ele>828.0</ele><time>2026-04-26T09:37:39Z</time></trkpt><trkpt lat="37.9887386289849" lon="15.19904281145343"><ele>828.0</ele><time>2026-04-26T09:37:40Z</time></trkpt><trkpt lat="37.988806587871125" lon="15.199087057448152"><ele>828.0</ele><time>2026-04-26T09:37:41Z</time></trkpt><trkpt lat="37.98891026679524" lon="15.199139974151752"><ele>828.0</ele><time>2026-04-26T09:37:42Z</time></trkpt><trkpt lat="37.98900202547952" lon="15.19921278807303"><ele>828.0</ele><time>2026-04-26T09:37:43Z</time></trkpt><trkpt lat="37.98905733329692" lon="15.199336440038941"><ele>828.0</ele><time>2026-04-26T09:37:44Z</time></trkpt><trkpt lat="37.989126097714" lon="15.199438297285345"><ele>828.0</ele><time>2026-04-26T09:37:45Z</time></trkpt><trkpt lat="37.98916681143653" lon="15.199532761716636"><ele>828.0</ele><time>2026-04-26T09:37:46Z</time></trkpt><trkpt lat="37.989174685318446" lon="15.199641456524878"><ele>828.0</ele><time>2026-04-26T09:37:47Z</time></trkpt><trkpt lat="37.98914138474885" lon="15.199747148605935"><ele>830.2</ele><time>2026-04-26T09:37:48Z</time></trkpt><trkpt lat="37.989118347186334" lon="15.199878042035586"><ele>832.4</ele><time>2026-04-26T09:37:49Z</time></trkpt><trkpt lat="37.98906667482211" lon="15.200013372130448"><ele>834.6</ele><time>2026-04-26T09:37:50Z</time></trkpt><trkpt lat="37.9890233322196" lon="15.200126393606944"><ele>836.8000000000001</ele><time>2026-04-26T09:37:51Z</time></trkpt><trkpt lat="37.9889551927151" lon="15.200207856965843"><ele>839.0</ele><time>2026-04-26T09:37:52Z</time></trkpt><trkpt lat="37.98895292522427" lon="15.200338128268234"><ele>839.0</ele><time>2026-04-26T09:37:54Z</time></trkpt><trkpt lat="37.98904997500948" lon="15.200434566621784"><ele>839.0</ele><time>2026-04-26T09:37:56Z</time></trkpt><trkpt lat="37.98912578529973" lon="15.200465653080002"><ele>839.0</ele><time>2026-04-26T09:37:57Z</time></trkpt><trkpt lat="37.98921293608292" lon="15.200505317760635"><ele>839.0</ele><time>2026-04-26T09:37:58Z</time></trkpt><trkpt lat="37.98929096311774" lon="15.200539722199203"><ele>839.0</ele><time>2026-04-26T09:37:59Z</time></trkpt><trkpt lat="37.98936816851682" lon="15.200603074519973"><ele>834.4000000000001</ele><time>2026-04-26T09:38:00Z</time></trkpt><trkpt lat="37.989439164646186" lon="15.200648395633037"><ele>829.8</ele><time>2026-04-26T09:38:01Z</time></trkpt><trkpt lat="37.98954327374389" lon="15.200525582264223"><ele>825.2</ele><time>2026-04-26T09:38:02Z</time></trkpt><trkpt lat="37.98963684036633" lon="15.200478475392845"><ele>820.5999999999999</ele><time>2026-04-26T09:38:03Z</time></trkpt><trkpt lat="37.989717653804014" lon="15.200443464218091"><ele>816.0</ele><time>2026-04-26T09:38:04Z</time></trkpt><trkpt lat="37.989798233629436" lon="15.200428871553887"><ele>816.0</ele><time>2026-04-26T09:38:05Z</time></trkpt><trkpt lat="37.98989222122866" lon="15.20049600202036"><ele>816.0</ele><time>2026-04-26T09:38:06Z</time></trkpt><trkpt lat="37.98998975703249" lon="15.200558977183181"><ele>816.0</ele><time>2026-04-26T09:38:07Z</time></trkpt><trkpt lat="37.990084597788744" lon="15.200658128471442"><ele>816.0</ele><time>2026-04-26T09:38:08Z</time></trkpt><trkpt lat="37.99020253380574" lon="15.200731374856462"><ele>818.25</ele><time>2026-04-26T09:38:09Z</time></trkpt><trkpt lat="37.99032356023056" lon="15.20075980167544"><ele>820.5</ele><time>2026-04-26T09:38:10Z</time></trkpt><trkpt lat="37.99044448077914" lon="15.200782825989437"><ele>822.75</ele><time>2026-04-26T09:38:11Z</time></trkpt><trkpt lat="37.99054525576613" lon="15.200775993091728"><ele>825.0</ele><time>2026-04-26T09:38:12Z</time></trkpt><trkpt lat="37.99065503706315" lon="15.200749668900862"><ele>825.0</ele><time>2026-04-26T09:38:13Z</time></trkpt><trkpt lat="37.990757604299596" lon="15.200698857377581"><ele>825.0</ele><time>2026-04-26T09:38:14Z</time></trkpt><trkpt lat="37.990864399780165" lon="15.200645067405016"><ele>825.0</ele><time>2026-04-26T09:38:15Z</time></trkpt><trkpt lat="37.990971038713724" lon="15.200648564190471"><ele>825.0</ele><time>2026-04-26T09:38:16Z</time></trkpt><trkpt lat="37.99108239766511" lon="15.200670502485309"><ele>825.0</ele><time>2026-04-26T09:38:17Z</time></trkpt><trkpt lat="37.99120977501792" lon="15.200655687462998"><ele>820.75</ele><time>2026-04-26T09:38:18Z</time></trkpt><trkpt lat="37.99132525993226" lon="15.2006349358851"><ele>816.5</ele><time>2026-04-26T09:38:19Z</time></trkpt><trkpt lat="37.99143489710739" lon="15.200567550047978"><ele>812.25</ele><time>2026-04-26T09:38:20Z</time></trkpt><trkpt lat="37.991541650410966" lon="15.20048474779802"><ele>808.0</ele><time>2026-04-26T09:38:21Z</time></trkpt><trkpt lat="37.991660131042124" lon="15.200434207703154"><ele>806.8</ele><time>2026-04-26T09:38:22Z</time></trkpt><trkpt lat="37.991767803088365" lon="15.200407416731702"><ele>805.5999999999999</ele><time>2026-04-26T09:38:23Z</time></trkpt><trkpt lat="37.99186852221103" lon="15.200379474016154"><ele>804.4000000000001</ele><time>2026-04-26T09:38:24Z</time></trkpt><trkpt lat="37.99196872121139" lon="15.20040207323692"><ele>803.2</ele><time>2026-04-26T09:38:25Z</time></trkpt><trkpt lat="37.99204940490055" lon="15.200483016909"><ele>802.0</ele><time>2026-04-26T09:38:26Z</time></trkpt><trkpt lat="37.99210868092366" lon="15.200596332467901"><ele>803.75</ele><time>2026-04-26T09:38:27Z</time></trkpt><trkpt lat="37.99216751382027" lon="15.200714077917507"><ele>805.5</ele><time>2026-04-26T09:38:28Z</time></trkpt><trkpt lat="37.99218545112549" lon="15.200874725934224"><ele>807.25</ele><time>2026-04-26T09:38:29Z</time></trkpt><trkpt lat="37.992239293977214" lon="15.201044033437363"><ele>809.0</ele><time>2026-04-26T09:38:30Z</time></trkpt><trkpt lat="37.99231404193784" lon="15.201199388200468"><ele>809.0</ele><time>2026-04-26T09:38:31Z</time></trkpt><trkpt lat="37.99240877078115" lon="15.201355771852594"><ele>809.0</ele><time>2026-04-26T09:38:32Z</time></trkpt><trkpt lat="37.99250063650482" lon="15.201510863135688"><ele>809.0</ele><time>2026-04-26T09:38:33Z</time></trkpt><trkpt lat="37.9925673680608" lon="15.201701469831374"><ele>805.25</ele><time>2026-04-26T09:38:34Z</time></trkpt><trkpt lat="37.99267779184395" lon="15.201840654197579"><ele>801.5</ele><time>2026-04-26T09:38:35Z</time></trkpt><trkpt lat="37.992764818073276" lon="15.201954780671546"><ele>797.75</ele><time>2026-04-26T09:38:36Z</time></trkpt><trkpt lat="37.99285681075723" lon="15.202058576739809"><ele>794.0</ele><time>2026-04-26T09:38:37Z</time></trkpt><trkpt lat="37.99295280610807" lon="15.202135861897998"><ele>794.0</ele><time>2026-04-26T09:38:38Z</time></trkpt><trkpt lat="37.99304739559685" lon="15.202224714199179"><ele>794.0</ele><time>2026-04-26T09:38:39Z</time></trkpt><trkpt lat="37.993078597556796" lon="15.202348769883647"><ele>794.0</ele><time>2026-04-26T09:38:40Z</time></trkpt><trkpt lat="37.99311197471473" lon="15.202473650024345"><ele>794.0</ele><time>2026-04-26T09:38:41Z</time></trkpt><trkpt lat="37.99313438027719" lon="15.202623109204476"><ele>794.0</ele><time>2026-04-26T09:38:42Z</time></trkpt><trkpt lat="37.99315807563005" lon="15.202780117715506"><ele>796.0</ele><time>2026-04-26T09:38:43Z</time></trkpt><trkpt lat="37.99322062185019" lon="15.202919395284303"><ele>798.0</ele><time>2026-04-26T09:38:44Z</time></trkpt><trkpt lat="37.99329008577911" lon="15.203049093415185"><ele>800.0</ele><time>2026-04-26T09:38:45Z</time></trkpt><trkpt lat="37.99337328838542" lon="15.203187431202657"><ele>802.0</ele><time>2026-04-26T09:38:46Z</time></trkpt><trkpt lat="37.993445122474704" lon="15.203320336527574"><ele>802.0</ele><time>2026-04-26T09:38:47Z</time></trkpt><trkpt lat="37.99344428967342" lon="15.203452505251548"><ele>802.0</ele><time>2026-04-26T09:38:48Z</time></trkpt><trkpt lat="37.993469212370904" lon="15.203587412344918"><ele>802.0</ele><time>2026-04-26T09:38:49Z</time></trkpt><trkpt lat="37.99351325900793" lon="15.203735270514944"><ele>802.0</ele><time>2026-04-26T09:38:50Z</time></trkpt><trkpt lat="37.99354276734049" lon="15.203896062806617"><ele>806.3333333333333</ele><time>2026-04-26T09:38:51Z</time></trkpt><trkpt lat="37.99359155197634" lon="15.204072107272186"><ele>810.6666666666667</ele><time>2026-04-26T09:38:52Z</time></trkpt><trkpt lat="37.99363810172511" lon="15.204255327649374"><ele>815.0</ele><time>2026-04-26T09:38:53Z</time></trkpt><trkpt lat="37.993681330288844" lon="15.204462624725336"><ele>815.0</ele><time>2026-04-26T09:38:54Z</time></trkpt><trkpt lat="37.99372345047444" lon="15.204653462357514"><ele>815.0</ele><time>2026-04-26T09:38:55Z</time></trkpt><trkpt lat="37.9937607780211" lon="15.204808751533347"><ele>815.0</ele><time>2026-04-26T09:38:56Z</time></trkpt><trkpt lat="37.99381645004556" lon="15.204941776225901"><ele>815.0</ele><time>2026-04-26T09:38:57Z</time></trkpt><trkpt lat="37.993899433432524" lon="15.205061453061473"><ele>815.0</ele><time>2026-04-26T09:38:58Z</time></trkpt><trkpt lat="37.99399756013362" lon="15.205160455548661"><ele>815.0</ele><time>2026-04-26T09:38:59Z</time></trkpt><trkpt lat="37.9940998301034" lon="15.205240239931316"><ele>815.0</ele><time>2026-04-26T09:39:00Z</time></trkpt><trkpt lat="37.99421342935119" lon="15.205310062823836"><ele>815.0</ele><time>2026-04-26T09:39:01Z</time></trkpt><trkpt lat="37.994335473053944" lon="15.205393548455461"><ele>814.25</ele><time>2026-04-26T09:39:02Z</time></trkpt><trkpt lat="37.994423127042026" lon="15.205504100445925"><ele>813.5</ele><time>2026-04-26T09:39:03Z</time></trkpt><trkpt lat="37.994530278361474" lon="15.20558009911819"><ele>812.75</ele><time>2026-04-26T09:39:04Z</time></trkpt><trkpt lat="37.99462769169057" lon="15.205629877061577"><ele>812.0</ele><time>2026-04-26T09:39:05Z</time></trkpt><trkpt lat="37.9947331592789" lon="15.205664718984156"><ele>808.75</ele><time>2026-04-26T09:39:06Z</time></trkpt><trkpt lat="37.99485485939315" lon="15.205620757039602"><ele>805.5</ele><time>2026-04-26T09:39:07Z</time></trkpt><trkpt lat="37.99498190795918" lon="15.205591067933096"><ele>802.25</ele><time>2026-04-26T09:39:07.999Z</time></trkpt><trkpt lat="37.99510163784943" lon="15.205566620964818"><ele>799.0</ele><time>2026-04-26T09:39:08.999Z</time></trkpt><trkpt lat="37.995192680647875" lon="15.205584043798428"><ele>799.0</ele><time>2026-04-26T09:39:09.999Z</time></trkpt><trkpt lat="37.995260781047506" lon="15.205640329246657"><ele>799.0</ele><time>2026-04-26T09:39:10.999Z</time></trkpt><trkpt lat="37.99528075273152" lon="15.205741876650883"><ele>799.0</ele><time>2026-04-26T09:39:12.999Z</time></trkpt><trkpt lat="37.99520340924108" lon="15.205758316007707"><ele>799.0</ele><time>2026-04-26T09:39:13.999Z</time></trkpt><trkpt lat="37.99511723363561" lon="15.205843775983455"><ele>799.0</ele><time>2026-04-26T09:39:15.999Z</time></trkpt><trkpt lat="37.995042388496266" lon="15.205945615613286"><ele>798.25</ele><time>2026-04-26T09:39:16.999Z</time></trkpt><trkpt lat="37.99501399888661" lon="15.206084372208315"><ele>797.5</ele><time>2026-04-26T09:39:17.999Z</time></trkpt><trkpt lat="37.99495524372162" lon="15.206241873343536"><ele>796.75</ele><time>2026-04-26T09:39:18.999Z</time></trkpt><trkpt lat="37.99489190823826" lon="15.206423092163577"><ele>796.0</ele><time>2026-04-26T09:39:19.999Z</time></trkpt><trkpt lat="37.994855155073466" lon="15.206596980693226"><ele>798.75</ele><time>2026-04-26T09:39:20.999Z</time></trkpt><trkpt lat="37.994841335190806" lon="15.206758714914237"><ele>801.5</ele><time>2026-04-26T09:39:21.999Z</time></trkpt><trkpt lat="37.99485240672766" lon="15.206910271392246"><ele>804.25</ele><time>2026-04-26T09:39:22.999Z</time></trkpt><trkpt lat="37.994875813548404" lon="15.20708376443354"><ele>807.0</ele><time>2026-04-26T09:39:23.999Z</time></trkpt><trkpt lat="37.99490200286692" lon="15.207231060936145"><ele>805.75</ele><time>2026-04-26T09:39:24.999Z</time></trkpt><trkpt lat="37.99489997379822" lon="15.207399663168465"><ele>804.5</ele><time>2026-04-26T09:39:25.999Z</time></trkpt><trkpt lat="37.99487346668206" lon="15.207561515608194"><ele>803.25</ele><time>2026-04-26T09:39:26.999Z</time></trkpt><trkpt lat="37.99484455945937" lon="15.207728498330907"><ele>802.0</ele><time>2026-04-26T09:39:27.999Z</time></trkpt><trkpt lat="37.9948180511902" lon="15.207886112090952"><ele>802.0</ele><time>2026-04-26T09:39:28.999Z</time></trkpt><trkpt lat="37.99479727988931" lon="15.20804280600906"><ele>802.0</ele><time>2026-04-26T09:39:29.999Z</time></trkpt><trkpt lat="37.99477857316694" lon="15.208175403665173"><ele>802.0</ele><time>2026-04-26T09:39:30.999Z</time></trkpt><trkpt lat="37.99476519672003" lon="15.208273344382421"><ele>802.0</ele><time>2026-04-26T09:39:31.999Z</time></trkpt><trkpt lat="37.9947947236887" lon="15.208358228159394"><ele>802.0</ele><time>2026-04-26T09:39:33.999Z</time></trkpt><trkpt lat="37.9948855774948" lon="15.208343736016625"><ele>802.0</ele><time>2026-04-26T09:39:35.999Z</time></trkpt><trkpt lat="37.99492996932292" lon="15.208229013052453"><ele>802.0</ele><time>2026-04-26T09:39:36.999Z</time></trkpt><trkpt lat="37.99492671923313" lon="15.208092924964763"><ele>802.0</ele><time>2026-04-26T09:39:37.999Z</time></trkpt><trkpt lat="37.9949429166451" lon="15.20794560996596"><ele>802.0</ele><time>2026-04-26T09:39:38.999Z</time></trkpt><trkpt lat="37.99498149476873" lon="15.207810509904533"><ele>802.0</ele><time>2026-04-26T09:39:39.999Z</time></trkpt><trkpt lat="37.99501709648637" lon="15.207693291825025"><ele>797.6</ele><time>2026-04-26T09:39:40.999Z</time></trkpt><trkpt lat="37.99505424572879" lon="15.207564767078676"><ele>793.2</ele><time>2026-04-26T09:39:41.999Z</time></trkpt><trkpt lat="37.995114128040484" lon="15.207442601031264"><ele>788.8</ele><time>2026-04-26T09:39:43Z</time></trkpt><trkpt lat="37.995173663461834" lon="15.207329683243767"><ele>784.4</ele><time>2026-04-26T09:39:44Z</time></trkpt><trkpt lat="37.995238258786245" lon="15.207208347923865"><ele>780.0</ele><time>2026-04-26T09:39:45Z</time></trkpt><trkpt lat="37.99529736871845" lon="15.207091015222106"><ele>780.0</ele><time>2026-04-26T09:39:46Z</time></trkpt><trkpt lat="37.99535498526869" lon="15.206993783781451"><ele>780.0</ele><time>2026-04-26T09:39:47Z</time></trkpt><trkpt lat="37.99537994246694" lon="15.20688327737445"><ele>780.0</ele><time>2026-04-26T09:39:48Z</time></trkpt><trkpt lat="37.99535107641183" lon="15.206753748877166"><ele>780.0</ele><time>2026-04-26T09:39:49Z</time></trkpt><trkpt lat="37.995344974233525" lon="15.206629140154776"><ele>780.0</ele><time>2026-04-26T09:39:50Z</time></trkpt><trkpt lat="37.99534202933125" lon="15.20653262360284"><ele>783.2</ele><time>2026-04-26T09:39:51Z</time></trkpt><trkpt lat="37.995384547867786" lon="15.206445328354631"><ele>786.4</ele><time>2026-04-26T09:39:52Z</time></trkpt><trkpt lat="37.9954879068738" lon="15.206339888728955"><ele>789.5999999999999</ele><time>2026-04-26T09:39:54Z</time></trkpt><trkpt lat="37.995565067142216" lon="15.206337916692188"><ele>792.8</ele><time>2026-04-26T09:39:55Z</time></trkpt><trkpt lat="37.99564858830581" lon="15.20634326704141"><ele>796.0</ele><time>2026-04-26T09:39:56Z</time></trkpt><trkpt lat="37.995729412946204" lon="15.206325811901436"><ele>795.9999999999999</ele><time>2026-04-26T09:39:57Z</time></trkpt><trkpt lat="37.99579958691591" lon="15.206255837718235"><ele>796.0</ele><time>2026-04-26T09:39:58Z</time></trkpt><trkpt lat="37.99587128080937" lon="15.20622154584905"><ele>796.0</ele><time>2026-04-26T09:39:59Z</time></trkpt><trkpt lat="37.995932539384995" lon="15.206177528410246"><ele>796.0</ele><time>2026-04-26T09:40:00Z</time></trkpt><trkpt lat="37.99601499955743" lon="15.206190810554329"><ele>795.9999999999999</ele><time>2026-04-26T09:40:02Z</time></trkpt><trkpt lat="37.99602310803681" lon="15.206338929871938"><ele>796.0</ele><time>2026-04-26T09:40:04Z</time></trkpt><trkpt lat="37.99596803724551" lon="15.20639801995187"><ele>796.0</ele><time>2026-04-26T09:40:05Z</time></trkpt><trkpt lat="37.99587433823326" lon="15.206415983389057"><ele>796.0</ele><time>2026-04-26T09:40:06Z</time></trkpt><trkpt lat="37.995788818372574" lon="15.206487618905046"><ele>796.0</ele><time>2026-04-26T09:40:07Z</time></trkpt><trkpt lat="37.99570262438" lon="15.206539233343014"><ele>796.0</ele><time>2026-04-26T09:40:08Z</time></trkpt><trkpt lat="37.99562539670745" lon="15.206667045542698"><ele>796.0</ele><time>2026-04-26T09:40:10Z</time></trkpt><trkpt lat="37.99565205512469" lon="15.206782082400228"><ele>792.8</ele><time>2026-04-26T09:40:11Z</time></trkpt><trkpt lat="37.99567289383317" lon="15.20690895766928"><ele>789.5999999999999</ele><time>2026-04-26T09:40:12Z</time></trkpt><trkpt lat="37.995692392535624" lon="15.207051608843985"><ele>786.4</ele><time>2026-04-26T09:40:13Z</time></trkpt><trkpt lat="37.99568963817936" lon="15.207189372294822"><ele>783.2</ele><time>2026-04-26T09:40:14Z</time></trkpt><trkpt lat="37.99566102893624" lon="15.207302860649246"><ele>780.0</ele><time>2026-04-26T09:40:15Z</time></trkpt><trkpt lat="37.99559487035626" lon="15.207405992331644"><ele>777.4</ele><time>2026-04-26T09:40:16Z</time></trkpt><trkpt lat="37.99555559724684" lon="15.207545176914532"><ele>774.8</ele><time>2026-04-26T09:40:17Z</time></trkpt><trkpt lat="37.995520773666016" lon="15.207676846056083"><ele>772.2</ele><time>2026-04-26T09:40:18Z</time></trkpt><trkpt lat="37.99551717299483" lon="15.207797151498164"><ele>769.6</ele><time>2026-04-26T09:40:19Z</time></trkpt><trkpt lat="37.99553920143951" lon="15.207922560120723"><ele>767.0</ele><time>2026-04-26T09:40:20Z</time></trkpt><trkpt lat="37.99557209353039" lon="15.208051723306987"><ele>766.0</ele><time>2026-04-26T09:40:21Z</time></trkpt><trkpt lat="37.995598845138154" lon="15.208168718432333"><ele>765.0</ele><time>2026-04-26T09:40:22Z</time></trkpt><trkpt lat="37.995570817340024" lon="15.208293650459694"><ele>764.0</ele><time>2026-04-26T09:40:23Z</time></trkpt><trkpt lat="37.99558070056793" lon="15.208424489407987"><ele>763.0</ele><time>2026-04-26T09:40:24Z</time></trkpt><trkpt lat="37.99559209157425" lon="15.208551904326601"><ele>762.0</ele><time>2026-04-26T09:40:25Z</time></trkpt><trkpt lat="37.995631235266636" lon="15.20868562307936"><ele>762.0</ele><time>2026-04-26T09:40:26Z</time></trkpt><trkpt lat="37.99569495756341" lon="15.208817143607215"><ele>762.0</ele><time>2026-04-26T09:40:27Z</time></trkpt><trkpt lat="37.9957706041961" lon="15.20893635057773"><ele>762.0</ele><time>2026-04-26T09:40:28Z</time></trkpt><trkpt lat="37.995830706711295" lon="15.209079931828263"><ele>762.0</ele><time>2026-04-26T09:40:29Z</time></trkpt><trkpt lat="37.995921235519354" lon="15.209171001818685"><ele>754.75</ele><time>2026-04-26T09:40:30Z</time></trkpt><trkpt lat="37.99601175624081" lon="15.20926787375503"><ele>747.5</ele><time>2026-04-26T09:40:31Z</time></trkpt><trkpt lat="37.99606635021478" lon="15.209402096422505"><ele>740.25</ele><time>2026-04-26T09:40:32Z</time></trkpt><trkpt lat="37.99612509261979" lon="15.209548155431719"><ele>733.0</ele><time>2026-04-26T09:40:33Z</time></trkpt><trkpt lat="37.996209184390764" lon="15.20967859447082"><ele>733.0</ele><time>2026-04-26T09:40:34Z</time></trkpt><trkpt lat="37.996283853669354" lon="15.20981338101296"><ele>733.0</ele><time>2026-04-26T09:40:35Z</time></trkpt><trkpt lat="37.99633934970411" lon="15.209959983908757"><ele>733.0</ele><time>2026-04-26T09:40:36Z</time></trkpt><trkpt lat="37.996410265663116" lon="15.210083532445218"><ele>733.0</ele><time>2026-04-26T09:40:37Z</time></trkpt><trkpt lat="37.996470388742985" lon="15.210199960806769"><ele>728.75</ele><time>2026-04-26T09:40:38Z</time></trkpt><trkpt lat="37.99656120918557" lon="15.210292391235242"><ele>724.5</ele><time>2026-04-26T09:40:39Z</time></trkpt><trkpt lat="37.996671183334456" lon="15.21038536372722"><ele>720.25</ele><time>2026-04-26T09:40:40Z</time></trkpt><trkpt lat="37.99676683543494" lon="15.21051971290545"><ele>716.0</ele><time>2026-04-26T09:40:41Z</time></trkpt><trkpt lat="37.99686773262823" lon="15.210634792074009"><ele>720.75</ele><time>2026-04-26T09:40:42Z</time></trkpt><trkpt lat="37.9969530815798" lon="15.210750139490862"><ele>725.5</ele><time>2026-04-26T09:40:43Z</time></trkpt><trkpt lat="37.997024999802434" lon="15.21087792720307"><ele>730.25</ele><time>2026-04-26T09:40:44Z</time></trkpt><trkpt lat="37.997090025340704" lon="15.211010787912212"><ele>735.0</ele><time>2026-04-26T09:40:45Z</time></trkpt><trkpt lat="37.997143429917735" lon="15.211157534213823"><ele>735.0</ele><time>2026-04-26T09:40:46Z</time></trkpt><trkpt lat="37.99718912585726" lon="15.211314485231028"><ele>735.0</ele><time>2026-04-26T09:40:47Z</time></trkpt><trkpt lat="37.997244334291686" lon="15.211447841680583"><ele>735.0</ele><time>2026-04-26T09:40:48Z</time></trkpt><trkpt lat="37.99731426984522" lon="15.211566671202691"><ele>735.0</ele><time>2026-04-26T09:40:49Z</time></trkpt><trkpt lat="37.997359071564276" lon="15.21168885053444"><ele>734.4</ele><time>2026-04-26T09:40:50Z</time></trkpt><trkpt lat="37.997398935235466" lon="15.211808398942948"><ele>733.8</ele><time>2026-04-26T09:40:51Z</time></trkpt><trkpt lat="37.997442625938405" lon="15.211905611202495"><ele>733.2</ele><time>2026-04-26T09:40:52Z</time></trkpt><trkpt lat="37.99749551541137" lon="15.211999368148124"><ele>732.6</ele><time>2026-04-26T09:40:53Z</time></trkpt><trkpt lat="37.997597156807025" lon="15.2120650776349"><ele>732.0</ele><time>2026-04-26T09:40:54Z</time></trkpt><trkpt lat="37.99772409294903" lon="15.212094920214826"><ele>732.0</ele><time>2026-04-26T09:40:55Z</time></trkpt><trkpt lat="37.99785477477233" lon="15.21212569599966"><ele>732.0</ele><time>2026-04-26T09:40:55.999Z</time></trkpt><trkpt lat="37.997991282877585" lon="15.21217500078451"><ele>732.0</ele><time>2026-04-26T09:40:56.999Z</time></trkpt><trkpt lat="37.998146385702434" lon="15.212200400797649"><ele>732.0</ele><time>2026-04-26T09:40:57.999Z</time></trkpt><trkpt lat="37.998289392996185" lon="15.21219332538816"><ele>731.0</ele><time>2026-04-26T09:40:58.999Z</time></trkpt><trkpt lat="37.99843096941524" lon="15.212199970700768"><ele>730.0</ele><time>2026-04-26T09:40:59.999Z</time></trkpt><trkpt lat="37.99856263284668" lon="15.212221311112925"><ele>729.0</ele><time>2026-04-26T09:41:00.999Z</time></trkpt><trkpt lat="37.99868457736097" lon="15.212212806415017"><ele>728.0</ele><time>2026-04-26T09:41:01.999Z</time></trkpt><trkpt lat="37.99880501035043" lon="15.212231223954662"><ele>728.0</ele><time>2026-04-26T09:41:02.999Z</time></trkpt><trkpt lat="37.99892564723566" lon="15.212234755499592"><ele>728.0</ele><time>2026-04-26T09:41:03.999Z</time></trkpt><trkpt lat="37.99903917640838" lon="15.212204507190092"><ele>728.0</ele><time>2026-04-26T09:41:04.999Z</time></trkpt><trkpt lat="37.99914708587148" lon="15.21213645188082"><ele>728.0</ele><time>2026-04-26T09:41:05.999Z</time></trkpt><trkpt lat="37.999250911651934" lon="15.212077637204674"><ele>730.2</ele><time>2026-04-26T09:41:06.999Z</time></trkpt><trkpt lat="37.999353647661785" lon="15.212092628095524"><ele>732.4</ele><time>2026-04-26T09:41:07.999Z</time></trkpt><trkpt lat="37.99945010698783" lon="15.212091946531821"><ele>734.6</ele><time>2026-04-26T09:41:08.999Z</time></trkpt><trkpt lat="37.99954096111359" lon="15.212044843097404"><ele>736.8000000000001</ele><time>2026-04-26T09:41:09.999Z</time></trkpt><trkpt lat="37.99960794978206" lon="15.211985012314523"><ele>739.0</ele><time>2026-04-26T09:41:10.999Z</time></trkpt><trkpt lat="37.999665282091286" lon="15.211891751529883"><ele>739.0</ele><time>2026-04-26T09:41:11.999Z</time></trkpt><trkpt lat="37.99971345277297" lon="15.21178259013113"><ele>739.0</ele><time>2026-04-26T09:41:12.999Z</time></trkpt><trkpt lat="37.999772752539975" lon="15.211682985889029"><ele>739.0</ele><time>2026-04-26T09:41:13.999Z</time></trkpt><trkpt lat="37.99988810599842" lon="15.211654765973845"><ele>739.0</ele><time>2026-04-26T09:41:14.999Z</time></trkpt><trkpt lat="37.9999658907688" lon="15.211572479740987"><ele>739.0</ele><time>2026-04-26T09:41:15.999Z</time></trkpt><trkpt lat="38.00001382407383" lon="15.211458368465536"><ele>734.0</ele><time>2026-04-26T09:41:16.999Z</time></trkpt><trkpt lat="38.0000534504425" lon="15.21133692446045"><ele>729.0</ele><time>2026-04-26T09:41:17.999Z</time></trkpt><trkpt lat="38.000089783603364" lon="15.211201531932057"><ele>724.0</ele><time>2026-04-26T09:41:18.999Z</time></trkpt><trkpt lat="38.00013652840288" lon="15.211080931349466"><ele>719.0</ele><time>2026-04-26T09:41:19.999Z</time></trkpt><trkpt lat="38.00020535149635" lon="15.21097910898564"><ele>714.0</ele><time>2026-04-26T09:41:20.999Z</time></trkpt><trkpt lat="38.00025483948534" lon="15.210869255494634"><ele>714.0</ele><time>2026-04-26T09:41:21.999Z</time></trkpt><trkpt lat="38.00028538913076" lon="15.210779721546995"><ele>714.0</ele><time>2026-04-26T09:41:22.998Z</time></trkpt><trkpt lat="38.000295331689664" lon="15.210658326396917"><ele>714.0</ele><time>2026-04-26T09:41:23.998Z</time></trkpt><trkpt lat="38.000264108180566" lon="15.210563547178904"><ele>714.0</ele><time>2026-04-26T09:41:24.998Z</time></trkpt><trkpt lat="38.00024749371918" lon="15.210470992389792"><ele>714.0</ele><time>2026-04-26T09:41:25.998Z</time></trkpt><trkpt lat="38.000265266319616" lon="15.210324698585021"><ele>714.0</ele><time>2026-04-26T09:41:27.998Z</time></trkpt><trkpt lat="38.00031982418291" lon="15.21025432364399"><ele>709.2</ele><time>2026-04-26T09:41:28.998Z</time></trkpt><trkpt lat="38.000417577326736" lon="15.210213171125508"><ele>704.4000000000001</ele><time>2026-04-26T09:41:29.998Z</time></trkpt><trkpt lat="38.00051316255046" lon="15.210182826140974"><ele>699.6</ele><time>2026-04-26T09:41:30.998Z</time></trkpt><trkpt lat="38.00060759282859" lon="15.210189259528834"><ele>694.8</ele><time>2026-04-26T09:41:31.998Z</time></trkpt><trkpt lat="38.00070694114799" lon="15.210233274360295"><ele>690.0</ele><time>2026-04-26T09:41:32.998Z</time></trkpt><trkpt lat="38.0008166394974" lon="15.210244023381971"><ele>692.6</ele><time>2026-04-26T09:41:33.998Z</time></trkpt><trkpt lat="38.00091253723527" lon="15.21027193855129"><ele>695.2</ele><time>2026-04-26T09:41:34.998Z</time></trkpt><trkpt lat="38.00101785360063" lon="15.210268120263269"><ele>697.8</ele><time>2026-04-26T09:41:35.998Z</time></trkpt><trkpt lat="38.001116690594245" lon="15.210254175709482"><ele>700.4</ele><time>2026-04-26T09:41:36.998Z</time></trkpt><trkpt lat="38.00119752346022" lon="15.210183751531472"><ele>703.0</ele><time>2026-04-26T09:41:37.998Z</time></trkpt><trkpt lat="38.0012684499774" lon="15.21011927410426"><ele>703.0</ele><time>2026-04-26T09:41:38.998Z</time></trkpt><trkpt lat="38.00131838191139" lon="15.21002234928162"><ele>703.0</ele><time>2026-04-26T09:41:39.998Z</time></trkpt><trkpt lat="38.00136790251855" lon="15.209903276826145"><ele>703.0</ele><time>2026-04-26T09:41:40.998Z</time></trkpt><trkpt lat="38.00145640327578" lon="15.209795637460948"><ele>703.0</ele><time>2026-04-26T09:41:41.998Z</time></trkpt><trkpt lat="38.00153898937607" lon="15.209677149181786"><ele>703.0</ele><time>2026-04-26T09:41:42.998Z</time></trkpt><trkpt lat="38.001614980216466" lon="15.209558200016113"><ele>699.2</ele><time>2026-04-26T09:41:43.998Z</time></trkpt><trkpt lat="38.001690114641946" lon="15.20945688105881"><ele>695.4</ele><time>2026-04-26T09:41:44.998Z</time></trkpt><trkpt lat="38.001777017293435" lon="15.209383532041402"><ele>691.6</ele><time>2026-04-26T09:41:45.998Z</time></trkpt><trkpt lat="38.00187407969205" lon="15.209356724803479"><ele>687.8000000000001</ele><time>2026-04-26T09:41:46.998Z</time></trkpt><trkpt lat="38.001981407901816" lon="15.209310877973767"><ele>684.0</ele><time>2026-04-26T09:41:47.998Z</time></trkpt><trkpt lat="38.00207601331813" lon="15.209226058638905"><ele>684.0</ele><time>2026-04-26T09:41:48.999Z</time></trkpt><trkpt lat="38.00216637255698" lon="15.209145289483994"><ele>684.0</ele><time>2026-04-26T09:41:49.999Z</time></trkpt><trkpt lat="38.00227780989086" lon="15.20910514205857"><ele>684.0</ele><time>2026-04-26T09:41:50.999Z</time></trkpt><trkpt lat="38.00238409172159" lon="15.209075021793094"><ele>684.0</ele><time>2026-04-26T09:41:51.999Z</time></trkpt><trkpt lat="38.00249191426024" lon="15.209062327560636"><ele>684.0</ele><time>2026-04-26T09:41:52.999Z</time></trkpt><trkpt lat="38.00260552024932" lon="15.209060884349316"><ele>686.0</ele><time>2026-04-26T09:41:53.999Z</time></trkpt><trkpt lat="38.002712203724826" lon="15.20908336709056"><ele>688.0</ele><time>2026-04-26T09:41:54.999Z</time></trkpt><trkpt lat="38.002798974932404" lon="15.209120041410774"><ele>690.0</ele><time>2026-04-26T09:41:55.999Z</time></trkpt><trkpt lat="38.00286888888922" lon="15.20916941950563"><ele>692.0</ele><time>2026-04-26T09:41:56.999Z</time></trkpt><trkpt lat="38.00293510625081" lon="15.209252114555918"><ele>694.0</ele><time>2026-04-26T09:41:57.999Z</time></trkpt><trkpt lat="38.00301296703697" lon="15.209353660039502"><ele>694.0</ele><time>2026-04-26T09:41:58.999Z</time></trkpt><trkpt lat="38.00304847130381" lon="15.209487034933327"><ele>694.0</ele><time>2026-04-26T09:41:59.999Z</time></trkpt><trkpt lat="38.003104477930336" lon="15.209580273803248"><ele>694.0</ele><time>2026-04-26T09:42:00.999Z</time></trkpt><trkpt lat="38.00315771538773" lon="15.209659111047873"><ele>694.0</ele><time>2026-04-26T09:42:01.999Z</time></trkpt><trkpt lat="38.00321637181934" lon="15.209718228585881"><ele>694.0</ele><time>2026-04-26T09:42:02.999Z</time></trkpt><trkpt lat="38.0033098296036" lon="15.209711481298061"><ele>688.4000000000001</ele><time>2026-04-26T09:42:03.999Z</time></trkpt><trkpt lat="38.00340441043913" lon="15.209705253517853"><ele>682.8</ele><time>2026-04-26T09:42:04.999Z</time></trkpt><trkpt lat="38.00352119518743" lon="15.209729480557238"><ele>677.2</ele><time>2026-04-26T09:42:05.999Z</time></trkpt><trkpt lat="38.00362766796609" lon="15.209738097367573"><ele>671.5999999999999</ele><time>2026-04-26T09:42:06.999Z</time></trkpt><trkpt lat="38.0037366752822" lon="15.209750347297877"><ele>666.0</ele><time>2026-04-26T09:42:07.999Z</time></trkpt><trkpt lat="38.00383586909082" lon="15.20978491291829"><ele>666.4</ele><time>2026-04-26T09:42:08.999Z</time></trkpt><trkpt lat="38.003933923062235" lon="15.209849866599535"><ele>666.8</ele><time>2026-04-26T09:42:09.999Z</time></trkpt><trkpt lat="38.00403776756655" lon="15.209927345469886"><ele>667.1999999999999</ele><time>2026-04-26T09:42:10.999Z</time></trkpt><trkpt lat="38.004140192559966" lon="15.209996258966644"><ele>667.5999999999999</ele><time>2026-04-26T09:42:11.999Z</time></trkpt><trkpt lat="38.00421131526953" lon="15.21008976545682"><ele>668.0</ele><time>2026-04-26T09:42:12.999Z</time></trkpt><trkpt lat="38.00427123992776" lon="15.210168841568557"><ele>668.0</ele><time>2026-04-26T09:42:13.999Z</time></trkpt><trkpt lat="38.00432878698876" lon="15.210220823171097"><ele>668.0</ele><time>2026-04-26T09:42:14.999Z</time></trkpt><trkpt lat="38.00440298187369" lon="15.210305229770649"><ele>668.0</ele><time>2026-04-26T09:42:16.999Z</time></trkpt><trkpt lat="38.00449662681271" lon="15.210291157861725"><ele>668.0</ele><time>2026-04-26T09:42:18.999Z</time></trkpt><trkpt lat="38.00455524389501" lon="15.210131282795345"><ele>668.0</ele><time>2026-04-26T09:42:20.999Z</time></trkpt><trkpt lat="38.004501261287515" lon="15.210022365423201"><ele>668.0</ele><time>2026-04-26T09:42:21.999Z</time></trkpt><trkpt lat="38.00443634513855" lon="15.209941377078113"><ele>668.0</ele><time>2026-04-26T09:42:22.999Z</time></trkpt><trkpt lat="38.00437315691426" lon="15.209831565590191"><ele>668.0</ele><time>2026-04-26T09:42:23.999Z</time></trkpt><trkpt lat="38.00433323567635" lon="15.209695931263795"><ele>668.0</ele><time>2026-04-26T09:42:24.999Z</time></trkpt><trkpt lat="38.00426660882889" lon="15.209611206281618"><ele>668.0</ele><time>2026-04-26T09:42:25.999Z</time></trkpt><trkpt lat="38.00417421218596" lon="15.209554637368289"><ele>667.5999999999999</ele><time>2026-04-26T09:42:26.999Z</time></trkpt><trkpt lat="38.00409254501406" lon="15.209480271009802"><ele>667.1999999999999</ele><time>2026-04-26T09:42:27.999Z</time></trkpt><trkpt lat="38.00399460126924" lon="15.209391222259677"><ele>666.8</ele><time>2026-04-26T09:42:28.999Z</time></trkpt><trkpt lat="38.003926644420986" lon="15.209298101999506"><ele>666.4</ele><time>2026-04-26T09:42:29.999Z</time></trkpt><trkpt lat="38.00385827219339" lon="15.209210682434055"><ele>666.0</ele><time>2026-04-26T09:42:30.999Z</time></trkpt><trkpt lat="38.003789155973706" lon="15.20914929155001"><ele>666.0</ele><time>2026-04-26T09:42:31.999Z</time></trkpt><trkpt lat="38.00369391147776" lon="15.209137860229207"><ele>666.0</ele><time>2026-04-26T09:42:32.999Z</time></trkpt><trkpt lat="38.00359693243101" lon="15.209194118736777"><ele>666.0</ele><time>2026-04-26T09:42:33.999Z</time></trkpt><trkpt lat="38.003502010628345" lon="15.209201222001235"><ele>666.0</ele><time>2026-04-26T09:42:34.999Z</time></trkpt><trkpt lat="38.00342710471601" lon="15.209221044598623"><ele>666.0</ele><time>2026-04-26T09:42:35.999Z</time></trkpt><trkpt lat="38.00338276225637" lon="15.209133782952117"><ele>662.3333333333334</ele><time>2026-04-26T09:42:36.999Z</time></trkpt><trkpt lat="38.00332686657278" lon="15.209078087881672"><ele>658.6666666666666</ele><time>2026-04-26T09:42:37.999Z</time></trkpt><trkpt lat="38.003335831237706" lon="15.208986653965544"><ele>655.0</ele><time>2026-04-26T09:42:38.999Z</time></trkpt><trkpt lat="38.00335929600505" lon="15.20888449118855"><ele>651.3333333333333</ele><time>2026-04-26T09:42:39.999Z</time></trkpt><trkpt lat="38.00338034254243" lon="15.208750529780403"><ele>647.6666666666666</ele><time>2026-04-26T09:42:40.999Z</time></trkpt><trkpt lat="38.00337473934172" lon="15.208609628490574"><ele>644.0</ele><time>2026-04-26T09:42:41.999Z</time></trkpt><trkpt lat="38.00333365666451" lon="15.208498032038777"><ele>643.25</ele><time>2026-04-26T09:42:42.999Z</time></trkpt><trkpt lat="38.003276698690705" lon="15.208384508095198"><ele>642.5</ele><time>2026-04-26T09:42:43.999Z</time></trkpt><trkpt lat="38.00319730877504" lon="15.208256924258702"><ele>641.75</ele><time>2026-04-26T09:42:44.999Z</time></trkpt><trkpt lat="38.003125049096276" lon="15.208088500276432"><ele>641.0</ele><time>2026-04-26T09:42:45.999Z</time></trkpt><trkpt lat="38.003051576929266" lon="15.207969145123588"><ele>641.0</ele><time>2026-04-26T09:42:46.999Z</time></trkpt><trkpt lat="38.00300211876833" lon="15.207850142556868"><ele>641.0</ele><time>2026-04-26T09:42:47.999Z</time></trkpt><trkpt lat="38.002953137881555" lon="15.20774099267248"><ele>641.0</ele><time>2026-04-26T09:42:48.999Z</time></trkpt><trkpt lat="38.00289876597791" lon="15.207643395245686"><ele>641.0</ele><time>2026-04-26T09:42:49.999Z</time></trkpt><trkpt lat="38.002819622794895" lon="15.207556405230175"><ele>641.0</ele><time>2026-04-26T09:42:50.999Z</time></trkpt><trkpt lat="38.00272733037962" lon="15.207493778695746"><ele>641.0</ele><time>2026-04-26T09:42:51.999Z</time></trkpt><trkpt lat="38.002640132139774" lon="15.207405152930617"><ele>641.0</ele><time>2026-04-26T09:42:52.999Z</time></trkpt><trkpt lat="38.00253510564394" lon="15.207354787576483"><ele>641.0</ele><time>2026-04-26T09:42:53.999Z</time></trkpt><trkpt lat="38.002454968702125" lon="15.207287019604163"><ele>641.0</ele><time>2026-04-26T09:42:54.999Z</time></trkpt><trkpt lat="38.002367649043734" lon="15.207252930975942"><ele>641.0</ele><time>2026-04-26T09:42:55.999Z</time></trkpt><trkpt lat="38.00227688421888" lon="15.207261955864254"><ele>634.6666666666666</ele><time>2026-04-26T09:42:56.999Z</time></trkpt><trkpt lat="38.00219964138202" lon="15.207292722749164"><ele>628.3333333333333</ele><time>2026-04-26T09:42:57.999Z</time></trkpt><trkpt lat="38.00213484025418" lon="15.207309322295433"><ele>622.0</ele><time>2026-04-26T09:42:58.999Z</time></trkpt><trkpt lat="38.00204857878227" lon="15.20729189082352"><ele>615.6666666666666</ele><time>2026-04-26T09:43:00.999Z</time></trkpt><trkpt lat="38.00206194928191" lon="15.207152343795636"><ele>609.3333333333334</ele><time>2026-04-26T09:43:02.999Z</time></trkpt><trkpt lat="38.002120950797845" lon="15.207111098785338"><ele>603.0</ele><time>2026-04-26T09:43:03.999Z</time></trkpt><trkpt lat="38.00220086654343" lon="15.207144269988378"><ele>603.0</ele><time>2026-04-26T09:43:04.999Z</time></trkpt><trkpt lat="38.00230355919208" lon="15.207127192865645"><ele>603.0</ele><time>2026-04-26T09:43:05.999Z</time></trkpt><trkpt lat="38.00244671880673" lon="15.207111726876432"><ele>603.0</ele><time>2026-04-26T09:43:06.999Z</time></trkpt><trkpt lat="38.00258626557056" lon="15.207101021593912"><ele>603.0</ele><time>2026-04-26T09:43:07.999Z</time></trkpt><trkpt lat="38.00270856973366" lon="15.207101262426823"><ele>605.25</ele><time>2026-04-26T09:43:08.999Z</time></trkpt><trkpt lat="38.00282985175123" lon="15.207111997822587"><ele>607.5</ele><time>2026-04-26T09:43:09.999Z</time></trkpt><trkpt lat="38.00293434163241" lon="15.207187398291216"><ele>609.75</ele><time>2026-04-26T09:43:10.999Z</time></trkpt><trkpt lat="38.00304432016375" lon="15.207206569371246"><ele>612.0</ele><time>2026-04-26T09:43:11.999Z</time></trkpt><trkpt lat="38.00315466466978" lon="15.20723903769122"><ele>612.0</ele><time>2026-04-26T09:43:12.999Z</time></trkpt><trkpt lat="38.00325999750487" lon="15.207256101483067"><ele>612.0</ele><time>2026-04-26T09:43:13.999Z</time></trkpt><trkpt lat="38.00336096540692" lon="15.207263452622843"><ele>612.0</ele><time>2026-04-26T09:43:14.999Z</time></trkpt><trkpt lat="38.00346354393796" lon="15.207285093820827"><ele>612.0</ele><time>2026-04-26T09:43:15.999Z</time></trkpt><trkpt lat="38.00357021442629" lon="15.207298553307101"><ele>612.0</ele><time>2026-04-26T09:43:16.999Z</time></trkpt><trkpt lat="38.00367852494058" lon="15.20730641134535"><ele>614.8000000000001</ele><time>2026-04-26T09:43:17.999Z</time></trkpt><trkpt lat="38.0037844002965" lon="15.207328893642607"><ele>617.6</ele><time>2026-04-26T09:43:18.999Z</time></trkpt><trkpt lat="38.00389015379879" lon="15.2073418482283"><ele>620.4000000000001</ele><time>2026-04-26T09:43:19.999Z</time></trkpt><trkpt lat="38.00398320793163" lon="15.207372094324572"><ele>623.2</ele><time>2026-04-26T09:43:20.999Z</time></trkpt><trkpt lat="38.00408053742207" lon="15.207413004891409"><ele>626.0</ele><time>2026-04-26T09:43:21.999Z</time></trkpt><trkpt lat="38.0041598509643" lon="15.207491679210493"><ele>623.0</ele><time>2026-04-26T09:43:22.999Z</time></trkpt><trkpt lat="38.00419556819875" lon="15.207606004715874"><ele>620.0</ele><time>2026-04-26T09:43:23.999Z</time></trkpt><trkpt lat="38.00420340257431" lon="15.207715198955198"><ele>617.0</ele><time>2026-04-26T09:43:24.999Z</time></trkpt><trkpt lat="38.0042249409958" lon="15.207826227027619"><ele>614.0</ele><time>2026-04-26T09:43:25.999Z</time></trkpt><trkpt lat="38.00428944691088" lon="15.20794244192359"><ele>611.0</ele><time>2026-04-26T09:43:27.999Z</time></trkpt><trkpt lat="38.0043927793801" lon="15.207920462682814"><ele>611.0</ele><time>2026-04-26T09:43:29.999Z</time></trkpt><trkpt lat="38.00447676268841" lon="15.207821504244032"><ele>611.0</ele><time>2026-04-26T09:43:31.999Z</time></trkpt><trkpt lat="38.00447500230053" lon="15.207722445255856"><ele>611.0</ele><time>2026-04-26T09:43:32.999Z</time></trkpt><trkpt lat="38.00447398346315" lon="15.207624767050191"><ele>611.0</ele><time>2026-04-26T09:43:33.999Z</time></trkpt><trkpt lat="38.004472457338785" lon="15.207503201437701"><ele>611.0</ele><time>2026-04-26T09:43:34.999Z</time></trkpt><trkpt lat="38.00446635312847" lon="15.207362222684669"><ele>608.5</ele><time>2026-04-26T09:43:35.999Z</time></trkpt><trkpt lat="38.004441812708684" lon="15.207233869919124"><ele>606.0</ele><time>2026-04-26T09:43:36.999Z</time></trkpt><trkpt lat="38.00440820644559" lon="15.20714252946445"><ele>603.5</ele><time>2026-04-26T09:43:37.999Z</time></trkpt><trkpt lat="38.004365677390155" lon="15.20707085565326"><ele>601.0</ele><time>2026-04-26T09:43:38.999Z</time></trkpt><trkpt lat="38.00430760686604" lon="15.20702201141808"><ele>598.5</ele><time>2026-04-26T09:43:39.999Z</time></trkpt><trkpt lat="38.00424017749727" lon="15.206989752771399"><ele>596.0</ele><time>2026-04-26T09:43:40.999Z</time></trkpt><trkpt lat="38.00416129225091" lon="15.207015606736508"><ele>596.0</ele><time>2026-04-26T09:43:41.999Z</time></trkpt><trkpt lat="38.00409275458972" lon="15.206984119942387"><ele>596.0</ele><time>2026-04-26T09:43:42.999Z</time></trkpt><trkpt lat="38.00401214419498" lon="15.20694606249356"><ele>596.0</ele><time>2026-04-26T09:43:44.998Z</time></trkpt><trkpt lat="38.00400534308458" lon="15.20686368808618"><ele>596.0</ele><time>2026-04-26T09:44:00Z</time></trkpt><trkpt lat="38.004093659308964" lon="15.206841619455947"><ele>596.0</ele><time>2026-04-26T09:44:03Z</time></trkpt><trkpt lat="38.00418572642466" lon="15.206833625215282"><ele>596.0</ele><time>2026-04-26T09:44:05Z</time></trkpt><trkpt lat="38.00426196404972" lon="15.20682523030956"><ele>593.8</ele><time>2026-04-26T09:44:07Z</time></trkpt><trkpt lat="38.00435092166781" lon="15.20682130733568"><ele>591.6</ele><time>2026-04-26T09:44:10Z</time></trkpt><trkpt lat="38.00445992348746" lon="15.206808634147752"><ele>589.4</ele><time>2026-04-26T09:44:12Z</time></trkpt><trkpt lat="38.0045737047829" lon="15.206844664805226"><ele>587.2</ele><time>2026-04-26T09:44:14Z</time></trkpt><trkpt lat="38.004597004552856" lon="15.206933556981507"><ele>585.0</ele><time>2026-04-26T09:44:15Z</time></trkpt><trkpt lat="38.004672871010996" lon="15.20705505726673"><ele>585.0</ele><time>2026-04-26T09:44:17Z</time></trkpt><trkpt lat="38.00474980634703" lon="15.207090123211499"><ele>585.0</ele><time>2026-04-26T09:44:19Z</time></trkpt><trkpt lat="38.004805654331975" lon="15.206911243168689"><ele>585.0</ele><time>2026-04-26T09:44:21.999Z</time></trkpt><trkpt lat="38.004753142911525" lon="15.2067601609881"><ele>585.0</ele><time>2026-04-26T09:44:23.999Z</time></trkpt><trkpt lat="38.0047092668571" lon="15.20667478210342"><ele>585.0</ele><time>2026-04-26T09:44:24.999Z</time></trkpt><trkpt lat="38.00468453604295" lon="15.20657714851591"><ele>585.0</ele><time>2026-04-26T09:44:25.999Z</time></trkpt><trkpt lat="38.00463471478612" lon="15.206509788493072"><ele>585.0</ele><time>2026-04-26T09:44:26.999Z</time></trkpt><trkpt lat="38.004584186251876" lon="15.206418684496523"><ele>585.0</ele><time>2026-04-26T09:44:27.999Z</time></trkpt><trkpt lat="38.00453061816858" lon="15.206358680245998"><ele>585.0</ele><time>2026-04-26T09:44:28.999Z</time></trkpt><trkpt lat="38.004464525644266" lon="15.206315334609522"><ele>585.0</ele><time>2026-04-26T09:44:29.999Z</time></trkpt><trkpt lat="38.004388363128996" lon="15.206265157358857"><ele>585.0</ele><time>2026-04-26T09:44:30.999Z</time></trkpt><trkpt lat="38.004299775536445" lon="15.206269277071188"><ele>580.4</ele><time>2026-04-26T09:44:31.999Z</time></trkpt><trkpt lat="38.004209228954736" lon="15.2062587962659"><ele>575.8</ele><time>2026-04-26T09:44:32.999Z</time></trkpt><trkpt lat="38.00413221661534" lon="15.206242153592735"><ele>571.2</ele><time>2026-04-26T09:44:33.999Z</time></trkpt><trkpt lat="38.00403596753219" lon="15.206184463143806"><ele>566.6</ele><time>2026-04-26T09:44:35.999Z</time></trkpt><trkpt lat="38.00403975408055" lon="15.206074777702607"><ele>562.0</ele><time>2026-04-26T09:44:37.999Z</time></trkpt><trkpt lat="38.00412448615183" lon="15.206008794331572"><ele>560.8333333333334</ele><time>2026-04-26T09:44:39.999Z</time></trkpt><trkpt lat="38.00419214346323" lon="15.206003708270341"><ele>559.6666666666667</ele><time>2026-04-26T09:44:40.999Z</time></trkpt><trkpt lat="38.00427171775824" lon="15.205977171840273"><ele>558.5</ele><time>2026-04-26T09:44:41.999Z</time></trkpt><trkpt lat="38.004357483808555" lon="15.205946712006872"><ele>557.3333333333334</ele><time>2026-04-26T09:44:42.999Z</time></trkpt><trkpt lat="38.00443851450379" lon="15.205935143960883"><ele>556.1666666666666</ele><time>2026-04-26T09:44:43.999Z</time></trkpt><trkpt lat="38.004506270219444" lon="15.205947082166956"><ele>555.0</ele><time>2026-04-26T09:44:44.999Z</time></trkpt><trkpt lat="38.004566683412875" lon="15.20599012117389"><ele>555.0</ele><time>2026-04-26T09:44:45.999Z</time></trkpt><trkpt lat="38.00464537946449" lon="15.206010948962595"><ele>555.0</ele><time>2026-04-26T09:44:46.999Z</time></trkpt><trkpt lat="38.00470261738003" lon="15.206048377776092"><ele>555.0</ele><time>2026-04-26T09:44:47.999Z</time></trkpt><trkpt lat="38.00480216959957" lon="15.206019414798913"><ele>555.0</ele><time>2026-04-26T09:44:49.999Z</time></trkpt><trkpt lat="38.004849012413814" lon="15.205922427075043"><ele>555.0</ele><time>2026-04-26T09:44:51.999Z</time></trkpt><trkpt lat="38.00480788021083" lon="15.20584332122095"><ele>555.0</ele><time>2026-04-26T09:44:52.999Z</time></trkpt><trkpt lat="38.004753519901236" lon="15.2058016111858"><ele>555.0</ele><time>2026-04-26T09:44:53.999Z</time></trkpt><trkpt lat="38.00466890823861" lon="15.20579589117313"><ele>555.0</ele><time>2026-04-26T09:44:54.999Z</time></trkpt><trkpt lat="38.00457824657576" lon="15.205773565935258"><ele>555.0</ele><time>2026-04-26T09:44:55.999Z</time></trkpt><trkpt lat="38.004488624723926" lon="15.205751908464238"><ele>555.0</ele><time>2026-04-26T09:44:56.999Z</time></trkpt><trkpt lat="38.0043961593716" lon="15.205738995663529"><ele>555.0</ele><time>2026-04-26T09:44:57.999Z</time></trkpt><trkpt lat="38.00429770924" lon="15.205743136648831"><ele>555.0</ele><time>2026-04-26T09:44:58.999Z</time></trkpt><trkpt lat="38.00420252893386" lon="15.205731898203965"><ele>555.0</ele><time>2026-04-26T09:44:59.999Z</time></trkpt><trkpt lat="38.004116104928634" lon="15.205718164916656"><ele>555.0</ele><time>2026-04-26T09:45:00.999Z</time></trkpt><trkpt lat="38.004029441454655" lon="15.20569606914499"><ele>555.0</ele><time>2026-04-26T09:45:01.999Z</time></trkpt><trkpt lat="38.003942997025085" lon="15.2057218629701"><ele>555.0</ele><time>2026-04-26T09:45:02.999Z</time></trkpt><trkpt lat="38.00382691242503" lon="15.205729901825931"><ele>556.4</ele><time>2026-04-26T09:45:04.999Z</time></trkpt><trkpt lat="38.00375037699769" lon="15.205699440836906"><ele>557.8</ele><time>2026-04-26T09:45:05.999Z</time></trkpt><trkpt lat="38.0036955462141" lon="15.205595794096176"><ele>559.2</ele><time>2026-04-26T09:45:06.999Z</time></trkpt><trkpt lat="38.00361026259921" lon="15.205526306080943"><ele>560.6</ele><time>2026-04-26T09:45:07.999Z</time></trkpt><trkpt lat="38.00350327850241" lon="15.205483849901757"><ele>562.0</ele><time>2026-04-26T09:45:08.999Z</time></trkpt><trkpt lat="38.003411881454504" lon="15.205389041391562"><ele>561.8000000000001</ele><time>2026-04-26T09:45:09.999Z</time></trkpt><trkpt lat="38.003308104875664" lon="15.20531405521207"><ele>561.6</ele><time>2026-04-26T09:45:10.999Z</time></trkpt><trkpt lat="38.0032224387206" lon="15.205246900383314"><ele>561.4000000000001</ele><time>2026-04-26T09:45:11.999Z</time></trkpt><trkpt lat="38.003144967812936" lon="15.205170944237963"><ele>561.2</ele><time>2026-04-26T09:45:12.999Z</time></trkpt><trkpt lat="38.00307016240048" lon="15.205103826973621"><ele>561.0</ele><time>2026-04-26T09:45:13.999Z</time></trkpt><trkpt lat="38.002999930593205" lon="15.205038894568288"><ele>561.0</ele><time>2026-04-26T09:45:14.999Z</time></trkpt><trkpt lat="38.00294641914993" lon="15.204973514827879"><ele>561.0</ele><time>2026-04-26T09:45:15.999Z</time></trkpt><trkpt lat="38.00291413708299" lon="15.204844419418071"><ele>561.0</ele><time>2026-04-26T09:45:17.999Z</time></trkpt><trkpt lat="38.002956917472034" lon="15.204738216112831"><ele>561.0</ele><time>2026-04-26T09:45:19.999Z</time></trkpt><trkpt lat="38.00300235332789" lon="15.204670474910404"><ele>561.0</ele><time>2026-04-26T09:45:20.999Z</time></trkpt><trkpt lat="38.00308547639696" lon="15.20466764306888"><ele>561.0</ele><time>2026-04-26T09:45:21.999Z</time></trkpt><trkpt lat="38.00317369508426" lon="15.20469769614879"><ele>561.6666666666666</ele><time>2026-04-26T09:45:22.999Z</time></trkpt><trkpt lat="38.00328144952079" lon="15.204716380833355"><ele>562.3333333333334</ele><time>2026-04-26T09:45:23.999Z</time></trkpt><trkpt lat="38.00336556683447" lon="15.204735513529993"><ele>563.0</ele><time>2026-04-26T09:45:24.999Z</time></trkpt><trkpt lat="38.00343562730322" lon="15.204754029973708"><ele>563.6666666666667</ele><time>2026-04-26T09:45:25.999Z</time></trkpt><trkpt lat="38.00351438338299" lon="15.204765186357148"><ele>564.3333333333334</ele><time>2026-04-26T09:45:26.999Z</time></trkpt><trkpt lat="38.00360342087958" lon="15.204727792250115"><ele>565.0</ele><time>2026-04-26T09:45:27.999Z</time></trkpt><trkpt lat="38.003700616503956" lon="15.204721385869181"><ele>565.0</ele><time>2026-04-26T09:45:28.999Z</time></trkpt><trkpt lat="38.00379577840471" lon="15.204737435976478"><ele>565.0</ele><time>2026-04-26T09:45:29.999Z</time></trkpt><trkpt lat="38.003879744237004" lon="15.204729290828519"><ele>565.0</ele><time>2026-04-26T09:45:30.999Z</time></trkpt><trkpt lat="38.0039851683317" lon="15.204705618132918"><ele>565.0</ele><time>2026-04-26T09:45:31.999Z</time></trkpt><trkpt lat="38.004082083656996" lon="15.20465111669303"><ele>565.0</ele><time>2026-04-26T09:45:32.999Z</time></trkpt><trkpt lat="38.00418268996688" lon="15.204605965117766"><ele>561.0</ele><time>2026-04-26T09:45:33.999Z</time></trkpt><trkpt lat="38.00429009123551" lon="15.204571638078628"><ele>557.0</ele><time>2026-04-26T09:45:34.999Z</time></trkpt><trkpt lat="38.00440053926734" lon="15.204536719162677"><ele>553.0</ele><time>2026-04-26T09:45:35.999Z</time></trkpt><trkpt lat="38.004502596388875" lon="15.204492205258557"><ele>549.0</ele><time>2026-04-26T09:45:36.999Z</time></trkpt><trkpt lat="38.00460779265339" lon="15.20445891082765"><ele>545.0</ele><time>2026-04-26T09:45:37.999Z</time></trkpt><trkpt lat="38.0047135150864" lon="15.20442958189954"><ele>545.0</ele><time>2026-04-26T09:45:38.999Z</time></trkpt><trkpt lat="38.004818703925636" lon="15.204419349486766"><ele>545.0</ele><time>2026-04-26T09:45:39.999Z</time></trkpt><trkpt lat="38.00492598850761" lon="15.204432322170526"><ele>545.0</ele><time>2026-04-26T09:45:40.999Z</time></trkpt><trkpt lat="38.005033976665096" lon="15.204449462308414"><ele>545.0</ele><time>2026-04-26T09:45:41.999Z</time></trkpt><trkpt lat="38.00513977233706" lon="15.204482790393808"><ele>545.0</ele><time>2026-04-26T09:45:42.999Z</time></trkpt><trkpt lat="38.00525825523748" lon="15.20450112468596"><ele>541.25</ele><time>2026-04-26T09:45:43.999Z</time></trkpt><trkpt lat="38.00537301335287" lon="15.204517306161009"><ele>537.5</ele><time>2026-04-26T09:45:44.999Z</time></trkpt><trkpt lat="38.00548786067983" lon="15.204506100614184"><ele>533.75</ele><time>2026-04-26T09:45:45.999Z</time></trkpt><trkpt lat="38.00560723880624" lon="15.204476898999834"><ele>530.0</ele><time>2026-04-26T09:45:46.999Z</time></trkpt><trkpt lat="38.005714781430555" lon="15.204463355811257"><ele>530.0</ele><time>2026-04-26T09:45:47.999Z</time></trkpt><trkpt lat="38.00582646493591" lon="15.204459762312572"><ele>530.0</ele><time>2026-04-26T09:45:48.999Z</time></trkpt><trkpt lat="38.00592662633711" lon="15.20446945000672"><ele>530.0</ele><time>2026-04-26T09:45:49.999Z</time></trkpt><trkpt lat="38.006018887894804" lon="15.204446430661067"><ele>530.0</ele><time>2026-04-26T09:45:50.999Z</time></trkpt><trkpt lat="38.00608559500801" lon="15.204400850508183"><ele>530.0</ele><time>2026-04-26T09:45:51.999Z</time></trkpt><trkpt lat="38.006135633643154" lon="15.204323892452058"><ele>526.8</ele><time>2026-04-26T09:45:52.999Z</time></trkpt><trkpt lat="38.00617449415148" lon="15.20422976928195"><ele>523.6</ele><time>2026-04-26T09:45:53.999Z</time></trkpt><trkpt lat="38.00618492914997" lon="15.204133699705322"><ele>520.4</ele><time>2026-04-26T09:45:54.999Z</time></trkpt><trkpt lat="38.00618167294748" lon="15.20403436012386"><ele>517.2</ele><time>2026-04-26T09:45:55.999Z</time></trkpt><trkpt lat="38.00617501905386" lon="15.203904875835688"><ele>514.0</ele><time>2026-04-26T09:45:56.999Z</time></trkpt><trkpt lat="38.00618839788742" lon="15.203766406025412"><ele>512.8</ele><time>2026-04-26T09:45:57.999Z</time></trkpt><trkpt lat="38.00619321608792" lon="15.203633493714333"><ele>511.59999999999997</ele><time>2026-04-26T09:45:58.998Z</time></trkpt><trkpt lat="38.00620940013071" lon="15.20352120200581"><ele>510.4</ele><time>2026-04-26T09:46:00Z</time></trkpt><trkpt lat="38.00623431308799" lon="15.203410441437232"><ele>509.2</ele><time>2026-04-26T09:46:01Z</time></trkpt><trkpt lat="38.00626391655539" lon="15.20327353440485"><ele>508.0</ele><time>2026-04-26T09:46:02Z</time></trkpt><trkpt lat="38.00627245770402" lon="15.203141119091175"><ele>506.2</ele><time>2026-04-26T09:46:03Z</time></trkpt><trkpt lat="38.00625037100648" lon="15.203007991250473"><ele>504.4</ele><time>2026-04-26T09:46:04Z</time></trkpt><trkpt lat="38.00623633403987" lon="15.202889837864188"><ele>502.59999999999997</ele><time>2026-04-26T09:46:05Z</time></trkpt><trkpt lat="38.00623906592614" lon="15.202765545270548"><ele>500.79999999999995</ele><time>2026-04-26T09:46:06Z</time></trkpt><trkpt lat="38.00624675361041" lon="15.202640482610109"><ele>499.0</ele><time>2026-04-26T09:46:07Z</time></trkpt><trkpt lat="38.00627596777776" lon="15.202526022220377"><ele>499.0</ele><time>2026-04-26T09:46:08Z</time></trkpt><trkpt lat="38.006324996076515" lon="15.202407099352476"><ele>499.0</ele><time>2026-04-26T09:46:09Z</time></trkpt><trkpt lat="38.00637212990587" lon="15.202281053920983"><ele>499.0</ele><time>2026-04-26T09:46:10Z</time></trkpt><trkpt lat="38.00643746505176" lon="15.202164180849138"><ele>499.0</ele><time>2026-04-26T09:46:11Z</time></trkpt><trkpt lat="38.00647379029724" lon="15.202033832424098"><ele>499.0</ele><time>2026-04-26T09:46:12Z</time></trkpt><trkpt lat="38.00652340286966" lon="15.201893743415571"><ele>501.5</ele><time>2026-04-26T09:46:13Z</time></trkpt><trkpt lat="38.00654454590885" lon="15.201735471704241"><ele>504.0</ele><time>2026-04-26T09:46:14Z</time></trkpt><trkpt lat="38.00656572251616" lon="15.201586673301009"><ele>506.5</ele><time>2026-04-26T09:46:15Z</time></trkpt><trkpt lat="38.00660483316935" lon="15.201422505129747"><ele>509.0</ele><time>2026-04-26T09:46:16Z</time></trkpt><trkpt lat="38.00664857486866" lon="15.201257863746223"><ele>502.25</ele><time>2026-04-26T09:46:17Z</time></trkpt><trkpt lat="38.00669308830326" lon="15.20110753124653"><ele>495.5</ele><time>2026-04-26T09:46:18Z</time></trkpt><trkpt lat="38.00674507564833" lon="15.200968938709284"><ele>488.75</ele><time>2026-04-26T09:46:19Z</time></trkpt><trkpt lat="38.00676361504284" lon="15.200817142265432"><ele>482.0</ele><time>2026-04-26T09:46:20Z</time></trkpt><trkpt lat="38.006821867252306" lon="15.200687822661342"><ele>481.25</ele><time>2026-04-26T09:46:21Z</time></trkpt><trkpt lat="38.00688393455583" lon="15.200560042717571"><ele>480.5</ele><time>2026-04-26T09:46:22Z</time></trkpt><trkpt lat="38.006935734047566" lon="15.200383279434812"><ele>479.75</ele><time>2026-04-26T09:46:23Z</time></trkpt><trkpt lat="38.006959575937216" lon="15.200184053440609"><ele>479.0</ele><time>2026-04-26T09:46:24Z</time></trkpt><trkpt lat="38.00696622437061" lon="15.2000160119728"><ele>479.0</ele><time>2026-04-26T09:46:25Z</time></trkpt><trkpt lat="38.00697311491447" lon="15.199841850318762"><ele>479.0</ele><time>2026-04-26T09:46:26Z</time></trkpt><trkpt lat="38.0069773927974" lon="15.199672391606795"><ele>479.0</ele><time>2026-04-26T09:46:27Z</time></trkpt><trkpt lat="38.00696182822804" lon="15.199498000471122"><ele>479.0</ele><time>2026-04-26T09:46:28Z</time></trkpt><trkpt lat="38.00699023942786" lon="15.199310747922901"><ele>479.25</ele><time>2026-04-26T09:46:29Z</time></trkpt><trkpt lat="38.00702192815009" lon="15.199133804213137"><ele>479.5</ele><time>2026-04-26T09:46:30Z</time></trkpt><trkpt lat="38.007023077086295" lon="15.198941076266772"><ele>479.75</ele><time>2026-04-26T09:46:31Z</time></trkpt><trkpt lat="38.007044384020766" lon="15.198757560738596"><ele>480.0</ele><time>2026-04-26T09:46:32Z</time></trkpt><trkpt lat="38.00707171645304" lon="15.198580510054166"><ele>480.75</ele><time>2026-04-26T09:46:32.999Z</time></trkpt><trkpt lat="38.007067805515156" lon="15.198405427901333"><ele>481.5</ele><time>2026-04-26T09:46:33.999Z</time></trkpt><trkpt lat="38.0070574358785" lon="15.198216114736827"><ele>482.25</ele><time>2026-04-26T09:46:34.999Z</time></trkpt><trkpt lat="38.00703614748613" lon="15.198027812140046"><ele>483.0</ele><time>2026-04-26T09:46:35.999Z</time></trkpt><trkpt lat="38.0070157753117" lon="15.197837942024776"><ele>483.25</ele><time>2026-04-26T09:46:36.999Z</time></trkpt><trkpt lat="38.00699891701663" lon="15.197643845957302"><ele>483.5</ele><time>2026-04-26T09:46:37.999Z</time></trkpt><trkpt lat="38.00700115115641" lon="15.197466039786521"><ele>483.75</ele><time>2026-04-26T09:46:38.999Z</time></trkpt><trkpt lat="38.00702467540683" lon="15.197284421914"><ele>484.0</ele><time>2026-04-26T09:46:39.999Z</time></trkpt><trkpt lat="38.007071677369865" lon="15.197106994290484"><ele>482.6666666666667</ele><time>2026-04-26T09:46:40.999Z</time></trkpt><trkpt lat="38.0071275619313" lon="15.196911951514373"><ele>481.33333333333337</ele><time>2026-04-26T09:46:41.999Z</time></trkpt><trkpt lat="38.00718314635269" lon="15.196744730735896"><ele>480.0</ele><time>2026-04-26T09:46:42.999Z</time></trkpt><trkpt lat="38.00724213022803" lon="15.196570558425"><ele>475.5</ele><time>2026-04-26T09:46:43.999Z</time></trkpt><trkpt lat="38.00731738884239" lon="15.19640096929055"><ele>471.0</ele><time>2026-04-26T09:46:44.999Z</time></trkpt><trkpt lat="38.00736963682578" lon="15.196241534567518"><ele>466.5</ele><time>2026-04-26T09:46:45.999Z</time></trkpt><trkpt lat="38.00742064898823" lon="15.19608081909562"><ele>462.0</ele><time>2026-04-26T09:46:46.999Z</time></trkpt><trkpt lat="38.00747093900712" lon="15.19591250787105"><ele>460.75</ele><time>2026-04-26T09:46:47.999Z</time></trkpt><trkpt lat="38.00751674774487" lon="15.19573798559826"><ele>459.5</ele><time>2026-04-26T09:46:48.999Z</time></trkpt><trkpt lat="38.007556949945325" lon="15.195562288765165"><ele>458.25</ele><time>2026-04-26T09:46:49.999Z</time></trkpt><trkpt lat="38.00759049855191" lon="15.195414500919474"><ele>457.0</ele><time>2026-04-26T09:46:50.999Z</time></trkpt><trkpt lat="38.00762190086105" lon="15.195268199270165"><ele>456.5</ele><time>2026-04-26T09:46:51.999Z</time></trkpt><trkpt lat="38.00765172651229" lon="15.195116201825895"><ele>456.0</ele><time>2026-04-26T09:46:52.999Z</time></trkpt><trkpt lat="38.00767239563138" lon="15.194956524146658"><ele>455.5</ele><time>2026-04-26T09:46:53.999Z</time></trkpt><trkpt lat="38.007680074088164" lon="15.194801202322518"><ele>455.0</ele><time>2026-04-26T09:46:54.999Z</time></trkpt><trkpt lat="38.007677653285214" lon="15.194652690589967"><ele>453.75</ele><time>2026-04-26T09:46:55.999Z</time></trkpt><trkpt lat="38.00766765583753" lon="15.194502706504927"><ele>452.5</ele><time>2026-04-26T09:46:56.999Z</time></trkpt><trkpt lat="38.00765052748348" lon="15.194357020899563"><ele>451.25</ele><time>2026-04-26T09:46:57.999Z</time></trkpt><trkpt lat="38.00762476888315" lon="15.194193757589966"><ele>450.0</ele><time>2026-04-26T09:46:58.999Z</time></trkpt><trkpt lat="38.007596538536696" lon="15.194044812430866"><ele>449.6</ele><time>2026-04-26T09:46:59.999Z</time></trkpt><trkpt lat="38.00756844252899" lon="15.19391205517256"><ele>449.2</ele><time>2026-04-26T09:47:00.999Z</time></trkpt><trkpt lat="38.00754182053974" lon="15.193793724910648"><ele>448.79999999999995</ele><time>2026-04-26T09:47:01.999Z</time></trkpt><trkpt lat="38.00751471879952" lon="15.193703680117716"><ele>448.4</ele><time>2026-04-26T09:47:02.999Z</time></trkpt><trkpt lat="38.00745953496071" lon="15.19359508259012"><ele>448.0</ele><time>2026-04-26T09:47:04.999Z</time></trkpt><trkpt lat="38.00740873906648" lon="15.193476159110919"><ele>448.0</ele><time>2026-04-26T09:47:06.999Z</time></trkpt><trkpt lat="38.007374488307946" lon="15.193399226787662"><ele>447.99999999999994</ele><time>2026-04-26T09:47:07.999Z</time></trkpt><trkpt lat="38.00731389546424" lon="15.193336441883437"><ele>447.99999999999994</ele><time>2026-04-26T09:47:08.999Z</time></trkpt><trkpt lat="38.00725749267789" lon="15.193245763392035"><ele>448.0</ele><time>2026-04-26T09:47:09.999Z</time></trkpt><trkpt lat="38.0072164751213" lon="15.19312413950886"><ele>448.0</ele><time>2026-04-26T09:47:10.999Z</time></trkpt><trkpt lat="38.0071795915342" lon="15.192991788554428"><ele>448.33333333333337</ele><time>2026-04-26T09:47:11.999Z</time></trkpt><trkpt lat="38.00715085271003" lon="15.192876748751468"><ele>448.6666666666667</ele><time>2026-04-26T09:47:12.999Z</time></trkpt><trkpt lat="38.007133130194795" lon="15.192772299842561"><ele>449.0</ele><time>2026-04-26T09:47:13.999Z</time></trkpt><trkpt lat="38.00712031780238" lon="15.192620223358192"><ele>449.33333333333337</ele><time>2026-04-26T09:47:15.999Z</time></trkpt><trkpt lat="38.00710105737497" lon="15.192523410405709"><ele>449.6666666666667</ele><time>2026-04-26T09:47:17.999Z</time></trkpt><trkpt lat="38.007097886142255" lon="15.192433429119285"><ele>450.0</ele><time>2026-04-26T09:47:19.999Z</time></trkpt><trkpt lat="38.00704295679999" lon="15.19235683582475"><ele>450.0</ele><time>2026-04-26T09:47:21.999Z</time></trkpt><trkpt lat="38.00705204018127" lon="15.192241751192626"><ele>450.0</ele><time>2026-04-26T09:47:24.999Z</time></trkpt><trkpt lat="38.007204782787895" lon="15.192415778719738"><ele>450.0</ele><time>2026-04-26T09:47:45.999Z</time></trkpt><trkpt lat="38.00727892608485" lon="15.192562262933288"><ele>450.0</ele><time>2026-04-26T09:47:46.999Z</time></trkpt><trkpt lat="38.00744447587155" lon="15.192634865287664"><ele>448.0</ele><time>2026-04-26T09:47:47.999Z</time></trkpt><trkpt lat="38.007531401987855" lon="15.192659166313339"><ele>446.0</ele><time>2026-04-26T09:47:48.999Z</time></trkpt><trkpt lat="38.00775480205945" lon="15.192125916757396"><ele>446.0</ele><time>2026-04-26T09:47:49.999Z</time></trkpt><trkpt lat="38.007848298397676" lon="15.192078395803442"><ele>446.0</ele><time>2026-04-26T09:47:50.999Z</time></trkpt><trkpt lat="38.00795830725894" lon="15.192010123125094"><ele>446.0</ele><time>2026-04-26T09:47:51.999Z</time></trkpt><trkpt lat="38.00806969004114" lon="15.191947480675331"><ele>446.0</ele><time>2026-04-26T09:47:52.999Z</time></trkpt><trkpt lat="38.00819231758841" lon="15.191894723197843"><ele>446.0</ele><time>2026-04-26T09:47:53.999Z</time></trkpt><trkpt lat="38.008324089388154" lon="15.191854841930484"><ele>446.0</ele><time>2026-04-26T09:47:54.999Z</time></trkpt><trkpt lat="38.00844635161478" lon="15.191824997999001"><ele>446.0</ele><time>2026-04-26T09:47:55.999Z</time></trkpt><trkpt lat="38.00855819357763" lon="15.19180512113526"><ele>446.0</ele><time>2026-04-26T09:47:56.999Z</time></trkpt><trkpt lat="38.008657070676755" lon="15.19179489954074"><ele>445.3333333333333</ele><time>2026-04-26T09:47:57.999Z</time></trkpt><trkpt lat="38.008757160711994" lon="15.191791133582331"><ele>444.66666666666663</ele><time>2026-04-26T09:47:58.999Z</time></trkpt><trkpt lat="38.00883665494659" lon="15.191791795962585"><ele>444.0</ele><time>2026-04-26T09:47:59.999Z</time></trkpt><trkpt lat="38.00892650015845" lon="15.19179338604304"><ele>443.33333333333337</ele><time>2026-04-26T09:48:00.999Z</time></trkpt><trkpt lat="38.00901562116673" lon="15.191779404433003"><ele>442.6666666666667</ele><time>2026-04-26T09:48:01.999Z</time></trkpt><trkpt lat="38.009102586126325" lon="15.191772971417688"><ele>442.0</ele><time>2026-04-26T09:48:02.999Z</time></trkpt><trkpt lat="38.00920287616601" lon="15.191753068694686"><ele>442.0</ele><time>2026-04-26T09:48:03.999Z</time></trkpt><trkpt lat="38.00929726426189" lon="15.19173439949578"><ele>442.00000000000006</ele><time>2026-04-26T09:48:04.999Z</time></trkpt><trkpt lat="38.009384620824775" lon="15.191718040787778"><ele>442.00000000000006</ele><time>2026-04-26T09:48:06Z</time></trkpt><trkpt lat="38.00948718924887" lon="15.191700711496159"><ele>442.0</ele><time>2026-04-26T09:48:07Z</time></trkpt><trkpt lat="38.009597338234094" lon="15.19167521261409"><ele>442.0</ele><time>2026-04-26T09:48:08Z</time></trkpt><trkpt lat="38.009688774984106" lon="15.191658331399568"><ele>442.00000000000006</ele><time>2026-04-26T09:48:09Z</time></trkpt><trkpt lat="38.00977625845949" lon="15.191630343217483"><ele>442.0</ele><time>2026-04-26T09:48:10Z</time></trkpt><trkpt lat="38.00985487843946" lon="15.191604955175592"><ele>442.0</ele><time>2026-04-26T09:48:11Z</time></trkpt><trkpt lat="38.00995681896679" lon="15.191590786866978"><ele>442.0</ele><time>2026-04-26T09:48:13Z</time></trkpt><trkpt lat="38.01004829637887" lon="15.191579314603695"><ele>442.00000000000006</ele><time>2026-04-26T09:48:16Z</time></trkpt><trkpt lat="38.01009311872941" lon="15.19164501236774"><ele>442.0</ele><time>2026-04-26T09:48:19Z</time></trkpt><trkpt lat="38.01009072474698" lon="15.191737219117984"><ele>441.6666666666667</ele><time>2026-04-26T09:48:21Z</time></trkpt><trkpt lat="38.01013665145027" lon="15.191886088823559"><ele>441.33333333333337</ele><time>2026-04-26T09:48:23Z</time></trkpt><trkpt lat="38.010180359885226" lon="15.191950622487836"><ele>441.0</ele><time>2026-04-26T09:48:24Z</time></trkpt><trkpt lat="38.01024591087721" lon="15.191992727676352"><ele>440.66666666666663</ele><time>2026-04-26T09:48:25Z</time></trkpt><trkpt lat="38.010315174758745" lon="15.192006201371088"><ele>440.3333333333333</ele><time>2026-04-26T09:48:26Z</time></trkpt><trkpt lat="38.01040240192209" lon="15.192012980734463"><ele>440.0</ele><time>2026-04-26T09:48:27Z</time></trkpt><trkpt lat="38.0104758894677" lon="15.192003316157438"><ele>439.99999999999994</ele><time>2026-04-26T09:48:28Z</time></trkpt><trkpt lat="38.01056697995963" lon="15.191951223105043"><ele>440.0</ele><time>2026-04-26T09:48:33Z</time></trkpt><trkpt lat="38.010631043653156" lon="15.191927933333389"><ele>440.0</ele><time>2026-04-26T09:48:34Z</time></trkpt><trkpt lat="38.01071844886277" lon="15.191907606293677"><ele>440.0</ele><time>2026-04-26T09:48:35Z</time></trkpt><trkpt lat="38.010807455366155" lon="15.191900068153243"><ele>439.99999999999994</ele><time>2026-04-26T09:48:36Z</time></trkpt><trkpt lat="38.0109028725802" lon="15.191900679187214"><ele>440.0</ele><time>2026-04-26T09:48:37Z</time></trkpt><trkpt lat="38.01099840740801" lon="15.191906561446123"><ele>439.49999999999994</ele><time>2026-04-26T09:48:38Z</time></trkpt><trkpt lat="38.011077475512" lon="15.191916403914007"><ele>439.0</ele><time>2026-04-26T09:48:39Z</time></trkpt><trkpt lat="38.01115625526034" lon="15.191927406096054"><ele>438.5</ele><time>2026-04-26T09:48:40Z</time></trkpt><trkpt lat="38.011239216398074" lon="15.191943913105048"><ele>438.0</ele><time>2026-04-26T09:48:41Z</time></trkpt><trkpt lat="38.01130303738556" lon="15.191949753382923"><ele>437.49999999999994</ele><time>2026-04-26T09:48:42Z</time></trkpt><trkpt lat="38.01138258712556" lon="15.191944259274443"><ele>437.0</ele><time>2026-04-26T09:48:42.999Z</time></trkpt><trkpt lat="38.01145563806927" lon="15.191944906831871"><ele>437.0</ele><time>2026-04-26T09:48:43.999Z</time></trkpt><trkpt lat="38.011523952369465" lon="15.191941985166924"><ele>437.0</ele><time>2026-04-26T09:48:44.999Z</time></trkpt><trkpt lat="38.01159473139339" lon="15.191932609676366"><ele>437.0</ele><time>2026-04-26T09:48:45.999Z</time></trkpt><trkpt lat="38.01165797347327" lon="15.191938022504864"><ele>437.0</ele><time>2026-04-26T09:48:46.999Z</time></trkpt><trkpt lat="38.011728996798226" lon="15.191946741112293"><ele>437.0</ele><time>2026-04-26T09:48:47.999Z</time></trkpt><trkpt lat="38.01180944778983" lon="15.191949803896007"><ele>437.0</ele><time>2026-04-26T09:48:48.999Z</time></trkpt><trkpt lat="38.011887549568094" lon="15.191951743101908"><ele>437.0</ele><time>2026-04-26T09:48:49.999Z</time></trkpt><trkpt lat="38.0119697985792" lon="15.191956403996809"><ele>436.8</ele><time>2026-04-26T09:48:50.999Z</time></trkpt><trkpt lat="38.01203350673368" lon="15.191968116187818"><ele>436.6</ele><time>2026-04-26T09:48:51.999Z</time></trkpt><trkpt lat="38.01213737813058" lon="15.192029324076145"><ele>436.40000000000003</ele><time>2026-04-26T09:48:53.999Z</time></trkpt><trkpt lat="38.01220118661312" lon="15.192045470194923"><ele>436.20000000000005</ele><time>2026-04-26T09:48:54.999Z</time></trkpt><trkpt lat="38.01232367606825" lon="15.19208428537433"><ele>436.0</ele><time>2026-04-26T09:48:56.999Z</time></trkpt><trkpt lat="38.012412428696024" lon="15.192154382569765"><ele>435.0</ele><time>2026-04-26T09:48:58.999Z</time></trkpt><trkpt lat="38.0125418402325" lon="15.192208749820642"><ele>434.0</ele><time>2026-04-26T09:49:00.999Z</time></trkpt><trkpt lat="38.012627946075774" lon="15.192245836978335"><ele>433.0</ele><time>2026-04-26T09:49:01.999Z</time></trkpt><trkpt lat="38.012709744953945" lon="15.192285663079598"><ele>432.0</ele><time>2026-04-26T09:49:02.999Z</time></trkpt><trkpt lat="38.01278467471321" lon="15.192301791635447"><ele>431.0</ele><time>2026-04-26T09:49:03.999Z</time></trkpt><trkpt lat="38.012869727550594" lon="15.192293516287965"><ele>430.99999999999994</ele><time>2026-04-26T09:49:04.999Z</time></trkpt><trkpt lat="38.0129467246803" lon="15.192290306332414"><ele>431.0</ele><time>2026-04-26T09:49:05.999Z</time></trkpt><trkpt lat="38.013014004432975" lon="15.192297132003253"><ele>431.0</ele><time>2026-04-26T09:49:06.999Z</time></trkpt><trkpt lat="38.01307723083862" lon="15.192319520959115"><ele>431.0</ele><time>2026-04-26T09:49:07.999Z</time></trkpt><trkpt lat="38.01312322411395" lon="15.192254405295605"><ele>430.99999999999994</ele><time>2026-04-26T09:49:10.999Z</time></trkpt><trkpt lat="38.01314980168813" lon="15.192123863985648"><ele>431.0</ele><time>2026-04-26T09:49:12.999Z</time></trkpt><trkpt lat="38.01318320494587" lon="15.192033634071883"><ele>430.99999999999994</ele><time>2026-04-26T09:49:14.999Z</time></trkpt><trkpt lat="38.013218022058666" lon="15.191953679559479"><ele>431.0</ele><time>2026-04-26T09:49:17.999Z</time></trkpt><trkpt lat="38.01323894015665" lon="15.191873996604018"><ele>431.0</ele><time>2026-04-26T09:49:20.999Z</time></trkpt><trkpt lat="38.01329605763335" lon="15.191834984041554"><ele>431.0</ele><time>2026-04-26T09:49:50.999Z</time></trkpt><trkpt lat="38.01334736463387" lon="15.191889912148152"><ele>430.99999999999994</ele><time>2026-04-26T09:49:56.999Z</time></trkpt><trkpt lat="38.013309367986956" lon="15.191806644361712"><ele>431.0</ele><time>2026-04-26T09:50:01.999Z</time></trkpt><trkpt lat="38.01333136695827" lon="15.191673906189779"><ele>430.20000000000005</ele><time>2026-04-26T09:50:03.999Z</time></trkpt><trkpt lat="38.01342774954149" lon="15.191528949220961"><ele>429.40000000000003</ele><time>2026-04-26T09:50:05.999Z</time></trkpt><trkpt lat="38.013491325370545" lon="15.191447457061305"><ele>428.6</ele><time>2026-04-26T09:50:06.999Z</time></trkpt><trkpt lat="38.01355646460689" lon="15.191377626862913"><ele>427.8</ele><time>2026-04-26T09:50:07.999Z</time></trkpt><trkpt lat="38.01363496518303" lon="15.191298850807922"><ele>427.0</ele><time>2026-04-26T09:50:08.999Z</time></trkpt><trkpt lat="38.01370933349637" lon="15.191221684263141"><ele>427.0</ele><time>2026-04-26T09:50:09.999Z</time></trkpt><trkpt lat="38.013790663626494" lon="15.191129860014154"><ele>427.00000000000006</ele><time>2026-04-26T09:50:10.999Z</time></trkpt><trkpt lat="38.0138689770017" lon="15.191047467718045"><ele>427.00000000000006</ele><time>2026-04-26T09:50:12Z</time></trkpt><trkpt lat="38.01394964210264" lon="15.190977920762181"><ele>427.0</ele><time>2026-04-26T09:50:13Z</time></trkpt><trkpt lat="38.014022192549426" lon="15.19093282389797"><ele>427.0</ele><time>2026-04-26T09:50:14Z</time></trkpt><trkpt lat="38.014096031988096" lon="15.190903254515481"><ele>426.0</ele><time>2026-04-26T09:50:15Z</time></trkpt><trkpt lat="38.014164395145464" lon="15.190872578542438"><ele>425.00000000000006</ele><time>2026-04-26T09:50:16Z</time></trkpt><trkpt lat="38.01427498168297" lon="15.190830994223976"><ele>424.0</ele><time>2026-04-26T09:50:18Z</time></trkpt><trkpt lat="38.01438301934328" lon="15.190806366180148"><ele>423.0</ele><time>2026-04-26T09:50:20Z</time></trkpt><trkpt lat="38.01449299683281" lon="15.19072948641786"><ele>422.0</ele><time>2026-04-26T09:50:22Z</time></trkpt><trkpt lat="38.014548922230844" lon="15.190692332287941"><ele>424.20000000000005</ele><time>2026-04-26T09:50:23Z</time></trkpt><trkpt lat="38.01462057745832" lon="15.190673186899652"><ele>426.4</ele><time>2026-04-26T09:50:24Z</time></trkpt><trkpt lat="38.01469920303687" lon="15.190646645577619"><ele>428.59999999999997</ele><time>2026-04-26T09:50:25Z</time></trkpt><trkpt lat="38.014777453901104" lon="15.190552982212752"><ele>430.79999999999995</ele><time>2026-04-26T09:50:27Z</time></trkpt><trkpt lat="38.01483749761395" lon="15.190455536077945"><ele>433.0</ele><time>2026-04-26T09:50:29Z</time></trkpt><trkpt lat="38.014885444238615" lon="15.19035724906701"><ele>433.00000000000006</ele><time>2026-04-26T09:50:30Z</time></trkpt><trkpt lat="38.014916093511765" lon="15.190264167909824"><ele>433.0</ele><time>2026-04-26T09:50:31Z</time></trkpt><trkpt lat="38.01494309665323" lon="15.190153026371455"><ele>433.0</ele><time>2026-04-26T09:50:32Z</time></trkpt><trkpt lat="38.01496467922676" lon="15.190056276512562"><ele>433.0</ele><time>2026-04-26T09:50:33Z</time></trkpt><trkpt lat="38.01499832950671" lon="15.189969553116914"><ele>433.00000000000006</ele><time>2026-04-26T09:50:34Z</time></trkpt><trkpt lat="38.01503985066529" lon="15.1898804066964"><ele>433.0</ele><time>2026-04-26T09:50:35Z</time></trkpt><trkpt lat="38.01506989624999" lon="15.189808302617728"><ele>435.75</ele><time>2026-04-26T09:50:36Z</time></trkpt><trkpt lat="38.01513388492494" lon="15.189762274851423"><ele>438.5</ele><time>2026-04-26T09:50:37Z</time></trkpt><trkpt lat="38.01524169841458" lon="15.18970504143762"><ele>441.25</ele><time>2026-04-26T09:50:38Z</time></trkpt><trkpt lat="38.015370726862564" lon="15.189620489580978"><ele>444.0</ele><time>2026-04-26T09:50:39Z</time></trkpt><trkpt lat="38.01549342288403" lon="15.189524868927533"><ele>444.0</ele><time>2026-04-26T09:50:40Z</time></trkpt><trkpt lat="38.015605053347976" lon="15.189430936527469"><ele>444.0</ele><time>2026-04-26T09:50:41Z</time></trkpt><trkpt lat="38.015714145422976" lon="15.18934046738609"><ele>444.0</ele><time>2026-04-26T09:50:42Z</time></trkpt><trkpt lat="38.01581260184989" lon="15.189245491929027"><ele>444.0</ele><time>2026-04-26T09:50:43Z</time></trkpt><trkpt lat="38.01590154904807" lon="15.189137477254558"><ele>443.0</ele><time>2026-04-26T09:50:44Z</time></trkpt><trkpt lat="38.01598304277212" lon="15.189029113534835"><ele>442.0</ele><time>2026-04-26T09:50:45Z</time></trkpt><trkpt lat="38.01606619338965" lon="15.188915340413935"><ele>441.0</ele><time>2026-04-26T09:50:46Z</time></trkpt><trkpt lat="38.016140823085365" lon="15.188796660720014"><ele>440.0</ele><time>2026-04-26T09:50:47Z</time></trkpt><trkpt lat="38.01620576694953" lon="15.188678289197696"><ele>440.0</ele><time>2026-04-26T09:50:48Z</time></trkpt><trkpt lat="38.01626888954489" lon="15.188568556044759"><ele>440.0</ele><time>2026-04-26T09:50:49Z</time></trkpt><trkpt lat="38.016337776790124" lon="15.18845823993326"><ele>440.0</ele><time>2026-04-26T09:50:50Z</time></trkpt><trkpt lat="38.016410495646035" lon="15.18833396549484"><ele>440.0</ele><time>2026-04-26T09:50:51Z</time></trkpt><trkpt lat="38.0164867770518" lon="15.188197695340792"><ele>440.25</ele><time>2026-04-26T09:50:52Z</time></trkpt><trkpt lat="38.01656959639971" lon="15.188045160841437"><ele>440.5</ele><time>2026-04-26T09:50:53Z</time></trkpt><trkpt lat="38.01665777544663" lon="15.187898897926424"><ele>440.75</ele><time>2026-04-26T09:50:54Z</time></trkpt><trkpt lat="38.0167496860932" lon="15.187748323740166"><ele>441.0</ele><time>2026-04-26T09:50:55Z</time></trkpt><trkpt lat="38.01684508506652" lon="15.187600897808892"><ele>440.75</ele><time>2026-04-26T09:50:56Z</time></trkpt><trkpt lat="38.01693903855266" lon="15.187469810346872"><ele>440.5</ele><time>2026-04-26T09:50:57Z</time></trkpt><trkpt lat="38.017036021748595" lon="15.187351876151697"><ele>440.25</ele><time>2026-04-26T09:50:58Z</time></trkpt><trkpt lat="38.017142531598665" lon="15.187240184449971"><ele>440.0</ele><time>2026-04-26T09:50:59Z</time></trkpt><trkpt lat="38.01724799778676" lon="15.1871374069034"><ele>440.0</ele><time>2026-04-26T09:51:00Z</time></trkpt><trkpt lat="38.017352566250146" lon="15.187042639503916"><ele>440.0</ele><time>2026-04-26T09:51:01Z</time></trkpt><trkpt lat="38.01745927506802" lon="15.186949784182099"><ele>440.0</ele><time>2026-04-26T09:51:02Z</time></trkpt><trkpt lat="38.01755921290522" lon="15.186864736092083"><ele>440.0</ele><time>2026-04-26T09:51:03Z</time></trkpt><trkpt lat="38.017657006930634" lon="15.18678866596102"><ele>439.8</ele><time>2026-04-26T09:51:04Z</time></trkpt><trkpt lat="38.01775298311184" lon="15.186717386928034"><ele>439.6</ele><time>2026-04-26T09:51:05Z</time></trkpt><trkpt lat="38.01785331240351" lon="15.186660509831452"><ele>439.4</ele><time>2026-04-26T09:51:06Z</time></trkpt><trkpt lat="38.01795913167587" lon="15.186612122956376"><ele>439.2</ele><time>2026-04-26T09:51:07Z</time></trkpt><trkpt lat="38.01806843102986" lon="15.186576193092181"><ele>439.0</ele><time>2026-04-26T09:51:08Z</time></trkpt><trkpt lat="38.018171237179175" lon="15.186579443070968"><ele>439.0</ele><time>2026-04-26T09:51:09Z</time></trkpt><trkpt lat="38.0182748685378" lon="15.186552291911045"><ele>439.0</ele><time>2026-04-26T09:51:10Z</time></trkpt><trkpt lat="38.01838736461197" lon="15.186553394008824"><ele>439.0</ele><time>2026-04-26T09:51:11Z</time></trkpt><trkpt lat="38.018500125520355" lon="15.186576083194243"><ele>439.0</ele><time>2026-04-26T09:51:12Z</time></trkpt><trkpt lat="38.01860861832518" lon="15.186616835552664"><ele>439.0</ele><time>2026-04-26T09:51:13Z</time></trkpt><trkpt lat="38.01871912481203" lon="15.186663946899461"><ele>440.4</ele><time>2026-04-26T09:51:14Z</time></trkpt><trkpt lat="38.0188204636401" lon="15.18670731710081"><ele>441.79999999999995</ele><time>2026-04-26T09:51:15Z</time></trkpt><trkpt lat="38.018907421518826" lon="15.186742646471036"><ele>443.20000000000005</ele><time>2026-04-26T09:51:15.999Z</time></trkpt><trkpt lat="38.01898865138121" lon="15.186757579460522"><ele>444.6</ele><time>2026-04-26T09:51:16.999Z</time></trkpt><trkpt lat="38.019078628081495" lon="15.186758291017664"><ele>446.0</ele><time>2026-04-26T09:51:17.999Z</time></trkpt><trkpt lat="38.01918059894937" lon="15.186742747581365"><ele>448.6</ele><time>2026-04-26T09:51:18.999Z</time></trkpt><trkpt lat="38.01928916408819" lon="15.186732257816354"><ele>451.20000000000005</ele><time>2026-04-26T09:51:19.999Z</time></trkpt><trkpt lat="38.01939754025133" lon="15.186742145580183"><ele>453.79999999999995</ele><time>2026-04-26T09:51:20.999Z</time></trkpt><trkpt lat="38.0195024746273" lon="15.18676461340877"><ele>456.4</ele><time>2026-04-26T09:51:21.999Z</time></trkpt><trkpt lat="38.01960658637365" lon="15.186791130577681"><ele>459.0</ele><time>2026-04-26T09:51:22.999Z</time></trkpt><trkpt lat="38.0196996264066" lon="15.18680866297987"><ele>459.0</ele><time>2026-04-26T09:51:23.999Z</time></trkpt><trkpt lat="38.019794736378294" lon="15.186829921328576"><ele>459.0</ele><time>2026-04-26T09:51:24.999Z</time></trkpt><trkpt lat="38.01988739593672" lon="15.186853735437365"><ele>459.0</ele><time>2026-04-26T09:51:25.999Z</time></trkpt><trkpt lat="38.019984846626194" lon="15.186878082123954"><ele>459.0</ele><time>2026-04-26T09:51:26.999Z</time></trkpt><trkpt lat="38.02008229813619" lon="15.186895477468193"><ele>459.0</ele><time>2026-04-26T09:51:27.999Z</time></trkpt><trkpt lat="38.02016884187997" lon="15.186895606238457"><ele>460.5</ele><time>2026-04-26T09:51:28.999Z</time></trkpt><trkpt lat="38.02025012557962" lon="15.186862158321587"><ele>462.0</ele><time>2026-04-26T09:51:29.999Z</time></trkpt><trkpt lat="38.020314189340965" lon="15.186810952911005"><ele>463.5</ele><time>2026-04-26T09:51:30.999Z</time></trkpt><trkpt lat="38.02037794573446" lon="15.186761613104563"><ele>465.0</ele><time>2026-04-26T09:51:31.999Z</time></trkpt><trkpt lat="38.02046262890093" lon="15.186736241367086"><ele>466.5</ele><time>2026-04-26T09:51:32.999Z</time></trkpt><trkpt lat="38.02057283634767" lon="15.186746911051179"><ele>468.0</ele><time>2026-04-26T09:51:33.999Z</time></trkpt><trkpt lat="38.02069776806438" lon="15.186768997561288"><ele>466.5</ele><time>2026-04-26T09:51:34.999Z</time></trkpt><trkpt lat="38.02082115884342" lon="15.18677855515778"><ele>465.0</ele><time>2026-04-26T09:51:35.999Z</time></trkpt><trkpt lat="38.020940694840725" lon="15.186755277621506"><ele>463.5</ele><time>2026-04-26T09:51:36.999Z</time></trkpt><trkpt lat="38.021062302345015" lon="15.186683580246727"><ele>462.0</ele><time>2026-04-26T09:51:37.999Z</time></trkpt><trkpt lat="38.02117909422578" lon="15.186588948567897"><ele>467.25</ele><time>2026-04-26T09:51:38.999Z</time></trkpt><trkpt lat="38.021297556154096" lon="15.186478027752834"><ele>472.5</ele><time>2026-04-26T09:51:39.999Z</time></trkpt><trkpt lat="38.021419295240634" lon="15.186396654495605"><ele>477.75</ele><time>2026-04-26T09:51:40.999Z</time></trkpt><trkpt lat="38.02153538637502" lon="15.186329354293944"><ele>483.0</ele><time>2026-04-26T09:51:41.999Z</time></trkpt><trkpt lat="38.02165256207007" lon="15.186269740512925"><ele>483.0</ele><time>2026-04-26T09:51:42.999Z</time></trkpt><trkpt lat="38.021794757292426" lon="15.186254573245098"><ele>483.0</ele><time>2026-04-26T09:51:43.999Z</time></trkpt><trkpt lat="38.02194236565687" lon="15.18626307294229"><ele>483.0</ele><time>2026-04-26T09:51:44.999Z</time></trkpt><trkpt lat="38.02208985344593" lon="15.18630201412148"><ele>483.0</ele><time>2026-04-26T09:51:45.999Z</time></trkpt><trkpt lat="38.0222374546516" lon="15.186370266451977"><ele>483.0</ele><time>2026-04-26T09:51:46.999Z</time></trkpt><trkpt lat="38.02237259349557" lon="15.186465669751824"><ele>483.0</ele><time>2026-04-26T09:51:47.999Z</time></trkpt><trkpt lat="38.02249937063543" lon="15.186588803884675"><ele>483.0</ele><time>2026-04-26T09:51:48.999Z</time></trkpt><trkpt lat="38.02260933363046" lon="15.186701716014031"><ele>475.0</ele><time>2026-04-26T09:51:49.999Z</time></trkpt><trkpt lat="38.02272511537894" lon="15.186811665283802"><ele>467.0</ele><time>2026-04-26T09:51:50.999Z</time></trkpt><trkpt lat="38.022830675593354" lon="15.186914212153196"><ele>459.0</ele><time>2026-04-26T09:51:51.999Z</time></trkpt><trkpt lat="38.02293760325626" lon="15.187003075361039"><ele>451.0</ele><time>2026-04-26T09:51:52.999Z</time></trkpt><trkpt lat="38.023069238394626" lon="15.187081182786905"><ele>451.0</ele><time>2026-04-26T09:51:53.999Z</time></trkpt><trkpt lat="38.02321651539505" lon="15.18712649062651"><ele>451.0</ele><time>2026-04-26T09:51:54.999Z</time></trkpt><trkpt lat="38.0233700235497" lon="15.187154545722278"><ele>451.0</ele><time>2026-04-26T09:51:55.999Z</time></trkpt><trkpt lat="38.02352341286372" lon="15.187156912949918"><ele>454.6666666666667</ele><time>2026-04-26T09:51:56.999Z</time></trkpt><trkpt lat="38.023678173671875" lon="15.187142295970007"><ele>458.33333333333337</ele><time>2026-04-26T09:51:57.999Z</time></trkpt><trkpt lat="38.023829751168755" lon="15.187136317396474"><ele>462.0</ele><time>2026-04-26T09:51:58.999Z</time></trkpt><trkpt lat="38.02399041025177" lon="15.187136100666141"><ele>462.0</ele><time>2026-04-26T09:51:59.999Z</time></trkpt><trkpt lat="38.02414649027259" lon="15.187137803915146"><ele>462.0</ele><time>2026-04-26T09:52:00.999Z</time></trkpt><trkpt lat="38.02430430137647" lon="15.187136712546145"><ele>462.0</ele><time>2026-04-26T09:52:01.999Z</time></trkpt><trkpt lat="38.02445050624592" lon="15.18713842813142"><ele>462.0</ele><time>2026-04-26T09:52:02.999Z</time></trkpt><trkpt lat="38.024587344316686" lon="15.187136375284357"><ele>462.0</ele><time>2026-04-26T09:52:03.999Z</time></trkpt><trkpt lat="38.024720576207145" lon="15.187130810835363"><ele>462.0</ele><time>2026-04-26T09:52:04.999Z</time></trkpt><trkpt lat="38.02485150521745" lon="15.18709310554144"><ele>462.0</ele><time>2026-04-26T09:52:05.999Z</time></trkpt><trkpt lat="38.02497913996086" lon="15.187018157830632"><ele>460.75</ele><time>2026-04-26T09:52:06.999Z</time></trkpt><trkpt lat="38.02508461050241" lon="15.186914983032347"><ele>459.5</ele><time>2026-04-26T09:52:07.999Z</time></trkpt><trkpt lat="38.02517121047675" lon="15.186781523441583"><ele>458.25</ele><time>2026-04-26T09:52:08.999Z</time></trkpt><trkpt lat="38.02523412617396" lon="15.186621765276264"><ele>457.0</ele><time>2026-04-26T09:52:09.999Z</time></trkpt><trkpt lat="38.025278742039035" lon="15.186439587910174"><ele>457.0</ele><time>2026-04-26T09:52:10.999Z</time></trkpt><trkpt lat="38.02530640110698" lon="15.18627349802286"><ele>457.0</ele><time>2026-04-26T09:52:11.999Z</time></trkpt><trkpt lat="38.02534981665961" lon="15.186119178992799"><ele>457.0</ele><time>2026-04-26T09:52:12.999Z</time></trkpt><trkpt lat="38.02542026219067" lon="15.185958908860908"><ele>457.0</ele><time>2026-04-26T09:52:13.999Z</time></trkpt><trkpt lat="38.025501275074674" lon="15.185803934013103"><ele>457.0</ele><time>2026-04-26T09:52:14.999Z</time></trkpt><trkpt lat="38.02561722356001" lon="15.185681026603422"><ele>457.0</ele><time>2026-04-26T09:52:15.999Z</time></trkpt><trkpt lat="38.025736285718914" lon="15.185572609569734"><ele>457.0</ele><time>2026-04-26T09:52:16.999Z</time></trkpt><trkpt lat="38.02587003189167" lon="15.185476013119333"><ele>455.25</ele><time>2026-04-26T09:52:18Z</time></trkpt><trkpt lat="38.025996207198666" lon="15.18537902161574"><ele>453.5</ele><time>2026-04-26T09:52:19Z</time></trkpt><trkpt lat="38.02612388195584" lon="15.185305800066613"><ele>451.75</ele><time>2026-04-26T09:52:20Z</time></trkpt><trkpt lat="38.02623638959394" lon="15.185235576962635"><ele>450.0</ele><time>2026-04-26T09:52:21Z</time></trkpt><trkpt lat="38.02634734739585" lon="15.185174401408874"><ele>450.0</ele><time>2026-04-26T09:52:22Z</time></trkpt><trkpt lat="38.02645862020945" lon="15.185102561259711"><ele>450.0</ele><time>2026-04-26T09:52:23Z</time></trkpt><trkpt lat="38.02656183992244" lon="15.18503455600189"><ele>450.0</ele><time>2026-04-26T09:52:24Z</time></trkpt><trkpt lat="38.02666461864587" lon="15.184976580848367"><ele>450.0</ele><time>2026-04-26T09:52:25Z</time></trkpt><trkpt lat="38.026759685816074" lon="15.184910846284087"><ele>451.6</ele><time>2026-04-26T09:52:26Z</time></trkpt><trkpt lat="38.02684161216659" lon="15.184858422092253"><ele>453.2</ele><time>2026-04-26T09:52:27Z</time></trkpt><trkpt lat="38.02693845762029" lon="15.184796058358877"><ele>454.79999999999995</ele><time>2026-04-26T09:52:28Z</time></trkpt><trkpt lat="38.02703147270501" lon="15.184730479968282"><ele>456.4</ele><time>2026-04-26T09:52:29Z</time></trkpt><trkpt lat="38.02711688636266" lon="15.18466758692494"><ele>458.0</ele><time>2026-04-26T09:52:30Z</time></trkpt><trkpt lat="38.02720378125385" lon="15.184605527769556"><ele>458.0</ele><time>2026-04-26T09:52:31Z</time></trkpt><trkpt lat="38.027275523891674" lon="15.184510173852312"><ele>458.0</ele><time>2026-04-26T09:52:32Z</time></trkpt><trkpt lat="38.027316723677735" lon="15.18437457285059"><ele>458.0</ele><time>2026-04-26T09:52:33Z</time></trkpt><trkpt lat="38.027331304022084" lon="15.18420854791944"><ele>458.0</ele><time>2026-04-26T09:52:34Z</time></trkpt><trkpt lat="38.027313614276316" lon="15.184040786102488"><ele>457.2</ele><time>2026-04-26T09:52:35Z</time></trkpt><trkpt lat="38.027323702713886" lon="15.183890293156175"><ele>456.4</ele><time>2026-04-26T09:52:36Z</time></trkpt><trkpt lat="38.027322166013874" lon="15.183753666742877"><ele>455.59999999999997</ele><time>2026-04-26T09:52:37Z</time></trkpt><trkpt lat="38.02732216601456" lon="15.18362070463048"><ele>454.79999999999995</ele><time>2026-04-26T09:52:38Z</time></trkpt><trkpt lat="38.02732216601533" lon="15.18349089849082"><ele>454.0</ele><time>2026-04-26T09:52:39Z</time></trkpt><trkpt lat="38.027301076502575" lon="15.18336299595681"><ele>454.0</ele><time>2026-04-26T09:52:40Z</time></trkpt><trkpt lat="38.02730110374588" lon="15.183234596221117"><ele>454.0</ele><time>2026-04-26T09:52:41Z</time></trkpt><trkpt lat="38.027304527242904" lon="15.183106206171852"><ele>454.0</ele><time>2026-04-26T09:52:42Z</time></trkpt><trkpt lat="38.0272970195372" lon="15.182974389175088"><ele>454.0</ele><time>2026-04-26T09:52:43Z</time></trkpt><trkpt lat="38.027257969156594" lon="15.182846600590194"><ele>454.0</ele><time>2026-04-26T09:52:44Z</time></trkpt><trkpt lat="38.02719935131252" lon="15.182724569444584"><ele>446.5</ele><time>2026-04-26T09:52:45Z</time></trkpt><trkpt lat="38.02708012014301" lon="15.182644825935848"><ele>439.0</ele><time>2026-04-26T09:52:46Z</time></trkpt><trkpt lat="38.026944787456344" lon="15.18255294828094"><ele>431.5</ele><time>2026-04-26T09:52:47Z</time></trkpt><trkpt lat="38.02680985413749" lon="15.182476528960509"><ele>424.0</ele><time>2026-04-26T09:52:48Z</time></trkpt><trkpt lat="38.02670256982472" lon="15.182403913901599"><ele>425.25</ele><time>2026-04-26T09:52:49Z</time></trkpt><trkpt lat="38.02660173179976" lon="15.182329855171814"><ele>426.5</ele><time>2026-04-26T09:52:50Z</time></trkpt><trkpt lat="38.02648789494323" lon="15.182243165664921"><ele>427.75</ele><time>2026-04-26T09:52:51Z</time></trkpt><trkpt lat="38.02638130636007" lon="15.182163290459593"><ele>429.0</ele><time>2026-04-26T09:52:52Z</time></trkpt><trkpt lat="38.02627980806931" lon="15.182091569104736"><ele>429.0</ele><time>2026-04-26T09:52:53Z</time></trkpt><trkpt lat="38.02619169536093" lon="15.182024370256634"><ele>429.0</ele><time>2026-04-26T09:52:54Z</time></trkpt><trkpt lat="38.026125116649276" lon="15.181939051773474"><ele>429.0</ele><time>2026-04-26T09:52:55Z</time></trkpt><trkpt lat="38.026103915856396" lon="15.181832110172857"><ele>429.0</ele><time>2026-04-26T09:52:56Z</time></trkpt><trkpt lat="38.02613488218505" lon="15.181725886047042"><ele>429.0</ele><time>2026-04-26T09:52:57Z</time></trkpt><trkpt lat="38.026205620845026" lon="15.181662680927312"><ele>429.0</ele><time>2026-04-26T09:52:58Z</time></trkpt><trkpt lat="38.02629090462995" lon="15.18165466594934"><ele>429.0</ele><time>2026-04-26T09:52:59Z</time></trkpt><trkpt lat="38.026396239344486" lon="15.18171945533411"><ele>429.0</ele><time>2026-04-26T09:53:00Z</time></trkpt><trkpt lat="38.02648968619489" lon="15.181837784435258"><ele>429.0</ele><time>2026-04-26T09:53:01Z</time></trkpt><trkpt lat="38.02657082028717" lon="15.181940068465533"><ele>429.0</ele><time>2026-04-26T09:53:02Z</time></trkpt><trkpt lat="38.02666028175482" lon="15.182035802222796"><ele>424.3333333333333</ele><time>2026-04-26T09:53:03Z</time></trkpt><trkpt lat="38.026737355970646" lon="15.182119837345272"><ele>419.66666666666663</ele><time>2026-04-26T09:53:04Z</time></trkpt><trkpt lat="38.02680615908026" lon="15.182183415414302"><ele>415.0</ele><time>2026-04-26T09:53:05Z</time></trkpt><trkpt lat="38.02687415758324" lon="15.182233318820787"><ele>410.3333333333333</ele><time>2026-04-26T09:53:06Z</time></trkpt><trkpt lat="38.02695385739587" lon="15.18225794934119"><ele>405.66666666666663</ele><time>2026-04-26T09:53:07Z</time></trkpt><trkpt lat="38.02703130916464" lon="15.182234413159646"><ele>401.0</ele><time>2026-04-26T09:53:08Z</time></trkpt><trkpt lat="38.027100298071936" lon="15.182216857311566"><ele>401.0</ele><time>2026-04-26T09:53:09Z</time></trkpt><trkpt lat="38.027162625996745" lon="15.18218752395569"><ele>401.0</ele><time>2026-04-26T09:53:10Z</time></trkpt><trkpt lat="38.02715929476361" lon="15.18194347095175"><ele>401.0</ele><time>2026-04-26T09:53:12Z</time></trkpt><trkpt lat="38.027130723456466" lon="15.181812247641071"><ele>401.0</ele><time>2026-04-26T09:53:13Z</time></trkpt><trkpt lat="38.02709589167508" lon="15.181666955874693"><ele>401.0</ele><time>2026-04-26T09:53:14Z</time></trkpt><trkpt lat="38.02707116984995" lon="15.181535513904402"><ele>401.0</ele><time>2026-04-26T09:53:15Z</time></trkpt><trkpt lat="38.027048776021175" lon="15.181414214963905"><ele>401.0</ele><time>2026-04-26T09:53:16Z</time></trkpt><trkpt lat="38.027028055188836" lon="15.181299582359294"><ele>401.0</ele><time>2026-04-26T09:53:17Z</time></trkpt><trkpt lat="38.02700523406359" lon="15.181181559084067"><ele>401.0</ele><time>2026-04-26T09:53:18Z</time></trkpt><trkpt lat="38.026997616049854" lon="15.181069484617577"><ele>400.25</ele><time>2026-04-26T09:53:19Z</time></trkpt><trkpt lat="38.02701645833903" lon="15.18097036933787"><ele>399.5</ele><time>2026-04-26T09:53:20Z</time></trkpt><trkpt lat="38.026992275091814" lon="15.180875279515083"><ele>398.75</ele><time>2026-04-26T09:53:22Z</time></trkpt><trkpt lat="38.02719569014037" lon="15.18077052732141"><ele>398.0</ele><time>2026-04-26T09:53:23Z</time></trkpt><trkpt lat="38.02728891914228" lon="15.180749132708756"><ele>398.0</ele><time>2026-04-26T09:53:24Z</time></trkpt><trkpt lat="38.02737956852823" lon="15.180737779167831"><ele>398.0</ele><time>2026-04-26T09:53:25Z</time></trkpt><trkpt lat="38.02746754067176" lon="15.18072610111466"><ele>398.0</ele><time>2026-04-26T09:53:26Z</time></trkpt><trkpt lat="38.0275499373279" lon="15.180719571310494"><ele>398.0</ele><time>2026-04-26T09:53:27Z</time></trkpt><trkpt lat="38.0276385177205" lon="15.180715254429098"><ele>398.0</ele><time>2026-04-26T09:53:28Z</time></trkpt><trkpt lat="38.02774105300405" lon="15.180707534812703"><ele>397.59999999999997</ele><time>2026-04-26T09:53:29Z</time></trkpt><trkpt lat="38.02784061505732" lon="15.180704386740533"><ele>397.2</ele><time>2026-04-26T09:53:30Z</time></trkpt><trkpt lat="38.02793835278104" lon="15.18070134523877"><ele>396.8</ele><time>2026-04-26T09:53:31Z</time></trkpt><trkpt lat="38.028035629102476" lon="15.18070169902704"><ele>396.4</ele><time>2026-04-26T09:53:32Z</time></trkpt><trkpt lat="38.02813311452103" lon="15.180710179335506"><ele>396.0</ele><time>2026-04-26T09:53:33Z</time></trkpt><trkpt lat="38.02823916615045" lon="15.180729255506195"><ele>395.75</ele><time>2026-04-26T09:53:33.999Z</time></trkpt><trkpt lat="38.0283568505061" lon="15.180777425875633"><ele>395.5</ele><time>2026-04-26T09:53:34.999Z</time></trkpt><trkpt lat="38.02848368292034" lon="15.180864020889665"><ele>395.25</ele><time>2026-04-26T09:53:35.999Z</time></trkpt><trkpt lat="38.02860563816984" lon="15.180982050314457"><ele>395.0</ele><time>2026-04-26T09:53:36.999Z</time></trkpt><trkpt lat="38.02870171053116" lon="15.181110911808098"><ele>395.0</ele><time>2026-04-26T09:53:37.999Z</time></trkpt><trkpt lat="38.02877626770395" lon="15.18125301132736"><ele>395.0</ele><time>2026-04-26T09:53:38.999Z</time></trkpt><trkpt lat="38.02883840622187" lon="15.181412161496139"><ele>395.0</ele><time>2026-04-26T09:53:39.999Z</time></trkpt><trkpt lat="38.02889641882012" lon="15.181597861843908"><ele>395.0</ele><time>2026-04-26T09:53:40.999Z</time></trkpt><trkpt lat="38.02895398660629" lon="15.181783538287137"><ele>390.3333333333333</ele><time>2026-04-26T09:53:41.999Z</time></trkpt><trkpt lat="38.029016540021516" lon="15.181975397596467"><ele>385.66666666666663</ele><time>2026-04-26T09:53:42.999Z</time></trkpt><trkpt lat="38.0290711380611" lon="15.182148605478167"><ele>381.0</ele><time>2026-04-26T09:53:43.999Z</time></trkpt><trkpt lat="38.02912383042383" lon="15.18231760982464"><ele>384.33333333333337</ele><time>2026-04-26T09:53:44.999Z</time></trkpt><trkpt lat="38.029183624488695" lon="15.182513254796223"><ele>387.6666666666667</ele><time>2026-04-26T09:53:45.999Z</time></trkpt><trkpt lat="38.029237416324044" lon="15.18270282306759"><ele>391.0</ele><time>2026-04-26T09:53:46.999Z</time></trkpt><trkpt lat="38.02928999985676" lon="15.18288594523217"><ele>391.0</ele><time>2026-04-26T09:53:47.999Z</time></trkpt><trkpt lat="38.02933913515068" lon="15.18307203524401"><ele>391.0</ele><time>2026-04-26T09:53:48.999Z</time></trkpt><trkpt lat="38.02938643581329" lon="15.183262102011232"><ele>391.0</ele><time>2026-04-26T09:53:49.999Z</time></trkpt><trkpt lat="38.02943429399901" lon="15.183455428696767"><ele>387.33333333333337</ele><time>2026-04-26T09:53:50.999Z</time></trkpt><trkpt lat="38.029486375790455" lon="15.183653481386436"><ele>383.6666666666667</ele><time>2026-04-26T09:53:51.999Z</time></trkpt><trkpt lat="38.02953514579116" lon="15.183828242999533"><ele>380.0</ele><time>2026-04-26T09:53:52.999Z</time></trkpt><trkpt lat="38.02958336993504" lon="15.183998267687878"><ele>378.25</ele><time>2026-04-26T09:53:53.999Z</time></trkpt><trkpt lat="38.02962142750247" lon="15.184163621205972"><ele>376.5</ele><time>2026-04-26T09:53:54.999Z</time></trkpt><trkpt lat="38.02966383953521" lon="15.184327215772747"><ele>374.75</ele><time>2026-04-26T09:53:55.999Z</time></trkpt><trkpt lat="38.0297105742765" lon="15.184477069793223"><ele>373.0</ele><time>2026-04-26T09:53:56.999Z</time></trkpt><trkpt lat="38.029772519509194" lon="15.184608246796685"><ele>373.0</ele><time>2026-04-26T09:53:57.999Z</time></trkpt><trkpt lat="38.029867230837034" lon="15.184716658128492"><ele>373.0</ele><time>2026-04-26T09:53:58.999Z</time></trkpt><trkpt lat="38.02998815509739" lon="15.184789876758868"><ele>373.0</ele><time>2026-04-26T09:53:59.999Z</time></trkpt><trkpt lat="38.03012979810636" lon="15.184838187073817"><ele>373.0</ele><time>2026-04-26T09:54:00.999Z</time></trkpt><trkpt lat="38.030279174998405" lon="15.184869320066085"><ele>374.0</ele><time>2026-04-26T09:54:01.999Z</time></trkpt><trkpt lat="38.03041014270635" lon="15.184936311618939"><ele>375.0</ele><time>2026-04-26T09:54:02.999Z</time></trkpt><trkpt lat="38.03052174435446" lon="15.185049263843355"><ele>376.0</ele><time>2026-04-26T09:54:03.999Z</time></trkpt><trkpt lat="38.0306379930566" lon="15.185173434536553"><ele>377.0</ele><time>2026-04-26T09:54:04.999Z</time></trkpt><trkpt lat="38.030753878293424" lon="15.185260156023775"><ele>379.6666666666667</ele><time>2026-04-26T09:54:05.999Z</time></trkpt><trkpt lat="38.03090092569678" lon="15.185316419963916"><ele>382.33333333333337</ele><time>2026-04-26T09:54:06.999Z</time></trkpt><trkpt lat="38.031051818992545" lon="15.18534240352988"><ele>385.0</ele><time>2026-04-26T09:54:07.999Z</time></trkpt><trkpt lat="38.03122043461481" lon="15.185335404184267"><ele>385.0</ele><time>2026-04-26T09:54:08.999Z</time></trkpt><trkpt lat="38.0313848416022" lon="15.185320844261396"><ele>385.0</ele><time>2026-04-26T09:54:09.999Z</time></trkpt><trkpt lat="38.031526868983036" lon="15.18532949971791"><ele>385.0</ele><time>2026-04-26T09:54:10.999Z</time></trkpt><trkpt lat="38.031651641178264" lon="15.185358675684288"><ele>385.0</ele><time>2026-04-26T09:54:11.999Z</time></trkpt><trkpt lat="38.03176929461404" lon="15.185370752435844"><ele>385.5</ele><time>2026-04-26T09:54:12.999Z</time></trkpt><trkpt lat="38.03187085410349" lon="15.185335791600913"><ele>386.0</ele><time>2026-04-26T09:54:13.999Z</time></trkpt><trkpt lat="38.031974724610784" lon="15.185245778421194"><ele>386.5</ele><time>2026-04-26T09:54:14.999Z</time></trkpt><trkpt lat="38.03208892879593" lon="15.18512573029817"><ele>387.0</ele><time>2026-04-26T09:54:15.999Z</time></trkpt><trkpt lat="38.03221365886497" lon="15.185036899634817"><ele>387.0</ele><time>2026-04-26T09:54:16.999Z</time></trkpt><trkpt lat="38.032353752882436" lon="15.184988938590608"><ele>387.0</ele><time>2026-04-26T09:54:17.999Z</time></trkpt><trkpt lat="38.03248228621236" lon="15.184981241932089"><ele>387.0</ele><time>2026-04-26T09:54:18.999Z</time></trkpt><trkpt lat="38.032599255925334" lon="15.184974641574005"><ele>387.0</ele><time>2026-04-26T09:54:19.999Z</time></trkpt><trkpt lat="38.032700659442234" lon="15.184914136856088"><ele>391.25</ele><time>2026-04-26T09:54:20.999Z</time></trkpt><trkpt lat="38.03278579438625" lon="15.1848022977902"><ele>395.5</ele><time>2026-04-26T09:54:21.999Z</time></trkpt><trkpt lat="38.03286227530823" lon="15.18465589458808"><ele>399.75</ele><time>2026-04-26T09:54:23Z</time></trkpt><trkpt lat="38.03293469311486" lon="15.184500934161226"><ele>404.0</ele><time>2026-04-26T09:54:24Z</time></trkpt><trkpt lat="38.03300910813732" lon="15.184368636754348"><ele>404.0</ele><time>2026-04-26T09:54:25Z</time></trkpt><trkpt lat="38.03309278065566" lon="15.184258887865244"><ele>404.0</ele><time>2026-04-26T09:54:26Z</time></trkpt><trkpt lat="38.03319663825025" lon="15.184189123809677"><ele>404.0</ele><time>2026-04-26T09:54:27Z</time></trkpt><trkpt lat="38.03329636022894" lon="15.184123317864103"><ele>404.0</ele><time>2026-04-26T09:54:28Z</time></trkpt><trkpt lat="38.03341745230685" lon="15.18413380114699"><ele>398.5</ele><time>2026-04-26T09:54:29Z</time></trkpt><trkpt lat="38.033537082573865" lon="15.184211416635517"><ele>393.0</ele><time>2026-04-26T09:54:30Z</time></trkpt><trkpt lat="38.033663603134165" lon="15.18426932425471"><ele>387.5</ele><time>2026-04-26T09:54:31Z</time></trkpt><trkpt lat="38.033803409062905" lon="15.184316188227333"><ele>382.0</ele><time>2026-04-26T09:54:32Z</time></trkpt><trkpt lat="38.03396916062445" lon="15.184314505684954"><ele>382.0</ele><time>2026-04-26T09:54:33Z</time></trkpt><trkpt lat="38.03411746499756" lon="15.184318983464886"><ele>382.0</ele><time>2026-04-26T09:54:34Z</time></trkpt><trkpt lat="38.03425854504213" lon="15.184319220648186"><ele>382.0</ele><time>2026-04-26T09:54:35Z</time></trkpt><trkpt lat="38.034396033016804" lon="15.184326193454115"><ele>382.0</ele><time>2026-04-26T09:54:36Z</time></trkpt><trkpt lat="38.03452550418324" lon="15.184312853485466"><ele>379.5</ele><time>2026-04-26T09:54:37Z</time></trkpt><trkpt lat="38.03465173860184" lon="15.184268226852083"><ele>377.0</ele><time>2026-04-26T09:54:38Z</time></trkpt><trkpt lat="38.03477448125537" lon="15.184227755135186"><ele>374.5</ele><time>2026-04-26T09:54:39Z</time></trkpt><trkpt lat="38.0348967344626" lon="15.184229987810259"><ele>372.0</ele><time>2026-04-26T09:54:40Z</time></trkpt><trkpt lat="38.035021583759686" lon="15.18426901800554"><ele>369.5</ele><time>2026-04-26T09:54:41Z</time></trkpt><trkpt lat="38.035137120220604" lon="15.184335211365312"><ele>367.0</ele><time>2026-04-26T09:54:42Z</time></trkpt><trkpt lat="38.0352585419817" lon="15.184354519023227"><ele>364.5</ele><time>2026-04-26T09:54:43Z</time></trkpt><trkpt lat="38.03538124647073" lon="15.18431071839675"><ele>362.0</ele><time>2026-04-26T09:54:44Z</time></trkpt><trkpt lat="38.03550578211471" lon="15.18421109362355"><ele>362.0</ele><time>2026-04-26T09:54:45Z</time></trkpt><trkpt lat="38.035627924936044" lon="15.18406960834155"><ele>362.0</ele><time>2026-04-26T09:54:46Z</time></trkpt><trkpt lat="38.03575683061596" lon="15.183915128631517"><ele>362.0</ele><time>2026-04-26T09:54:47Z</time></trkpt><trkpt lat="38.035889899232735" lon="15.183795412782644"><ele>363.75</ele><time>2026-04-26T09:54:48Z</time></trkpt><trkpt lat="38.0360305828493" lon="15.18370919670739"><ele>365.5</ele><time>2026-04-26T09:54:49Z</time></trkpt><trkpt lat="38.036166188645765" lon="15.183662062014205"><ele>367.25</ele><time>2026-04-26T09:54:50Z</time></trkpt><trkpt lat="38.03629728878815" lon="15.183661425920791"><ele>369.0</ele><time>2026-04-26T09:54:51Z</time></trkpt><trkpt lat="38.036415266541404" lon="15.183718637906122"><ele>369.0</ele><time>2026-04-26T09:54:52Z</time></trkpt><trkpt lat="38.03651304858925" lon="15.183822762088221"><ele>369.0</ele><time>2026-04-26T09:54:53Z</time></trkpt><trkpt lat="38.036625020829256" lon="15.183939533356416"><ele>369.0</ele><time>2026-04-26T09:54:54Z</time></trkpt><trkpt lat="38.03675478559221" lon="15.184017699778844"><ele>369.0</ele><time>2026-04-26T09:54:55Z</time></trkpt><trkpt lat="38.03689477308636" lon="15.184060405052621"><ele>364.0</ele><time>2026-04-26T09:54:56Z</time></trkpt><trkpt lat="38.037039157556386" lon="15.18404746423173"><ele>359.0</ele><time>2026-04-26T09:54:57Z</time></trkpt><trkpt lat="38.037181401904" lon="15.183984702865299"><ele>354.0</ele><time>2026-04-26T09:54:58Z</time></trkpt><trkpt lat="38.03732510505911" lon="15.183885377512242"><ele>357.3333333333333</ele><time>2026-04-26T09:54:59Z</time></trkpt><trkpt lat="38.037470787452826" lon="15.183764085778483"><ele>360.66666666666663</ele><time>2026-04-26T09:55:00Z</time></trkpt><trkpt lat="38.03759666215647" lon="15.183658529723347"><ele>364.0</ele><time>2026-04-26T09:55:01Z</time></trkpt><trkpt lat="38.03773355363709" lon="15.183555452259474"><ele>364.0</ele><time>2026-04-26T09:55:02Z</time></trkpt><trkpt lat="38.03788785596011" lon="15.183463330345296"><ele>364.0</ele><time>2026-04-26T09:55:03Z</time></trkpt><trkpt lat="38.038021235004685" lon="15.18334418319992"><ele>364.0</ele><time>2026-04-26T09:55:04Z</time></trkpt><trkpt lat="38.038173689060294" lon="15.183237257330083"><ele>367.0</ele><time>2026-04-26T09:55:05Z</time></trkpt><trkpt lat="38.03831937711483" lon="15.183157561689404"><ele>370.0</ele><time>2026-04-26T09:55:06Z</time></trkpt><trkpt lat="38.03846960568993" lon="15.183087591974473"><ele>373.0</ele><time>2026-04-26T09:55:07Z</time></trkpt><trkpt lat="38.03862080922626" lon="15.183034639595899"><ele>373.0</ele><time>2026-04-26T09:55:08Z</time></trkpt><trkpt lat="38.03877657982589" lon="15.183003454677417"><ele>373.0</ele><time>2026-04-26T09:55:09Z</time></trkpt><trkpt lat="38.03894858195875" lon="15.182986429942163"><ele>373.0</ele><time>2026-04-26T09:55:10Z</time></trkpt><trkpt lat="38.039119611049806" lon="15.182983411113469"><ele>370.66666666666663</ele><time>2026-04-26T09:55:11Z</time></trkpt><trkpt lat="38.03929705371271" lon="15.18299711630416"><ele>368.3333333333333</ele><time>2026-04-26T09:55:12Z</time></trkpt><trkpt lat="38.03947641680764" lon="15.183027528916213"><ele>366.0</ele><time>2026-04-26T09:55:13Z</time></trkpt><trkpt lat="38.03966029097435" lon="15.183047134188188"><ele>366.0</ele><time>2026-04-26T09:55:14Z</time></trkpt><trkpt lat="38.03980276266793" lon="15.183059220023791"><ele>366.0</ele><time>2026-04-26T09:55:15Z</time></trkpt><trkpt lat="38.03995626241691" lon="15.183080277821793"><ele>366.0</ele><time>2026-04-26T09:55:16Z</time></trkpt><trkpt lat="38.04010601780688" lon="15.183094178760603"><ele>366.0</ele><time>2026-04-26T09:55:17Z</time></trkpt><trkpt lat="38.040272071068856" lon="15.183109715193243"><ele>366.3333333333333</ele><time>2026-04-26T09:55:18Z</time></trkpt><trkpt lat="38.04043525386833" lon="15.183124730243081"><ele>366.66666666666663</ele><time>2026-04-26T09:55:19Z</time></trkpt><trkpt lat="38.04059145016207" lon="15.183139600303871"><ele>367.0</ele><time>2026-04-26T09:55:20Z</time></trkpt><trkpt lat="38.04076169517075" lon="15.183161787684378"><ele>358.66666666666663</ele><time>2026-04-26T09:55:21Z</time></trkpt><trkpt lat="38.04092650688591" lon="15.1831828652"><ele>350.3333333333333</ele><time>2026-04-26T09:55:22Z</time></trkpt><trkpt lat="38.041102579789396" lon="15.183195382433022"><ele>342.0</ele><time>2026-04-26T09:55:23Z</time></trkpt><trkpt lat="38.04126951962155" lon="15.183221598239951"><ele>342.0</ele><time>2026-04-26T09:55:24Z</time></trkpt><trkpt lat="38.041432804844845" lon="15.18323681672673"><ele>342.0</ele><time>2026-04-26T09:55:25Z</time></trkpt><trkpt lat="38.041605431856425" lon="15.183251888907087"><ele>342.0</ele><time>2026-04-26T09:55:26Z</time></trkpt><trkpt lat="38.04178669174018" lon="15.183265120166809"><ele>340.6666666666667</ele><time>2026-04-26T09:55:27Z</time></trkpt><trkpt lat="38.041974955493934" lon="15.183277206124927"><ele>339.33333333333337</ele><time>2026-04-26T09:55:28Z</time></trkpt><trkpt lat="38.0421555366479" lon="15.183290587519066"><ele>338.0</ele><time>2026-04-26T09:55:29Z</time></trkpt><trkpt lat="38.04234004030852" lon="15.183313238813792"><ele>336.6666666666667</ele><time>2026-04-26T09:55:30Z</time></trkpt><trkpt lat="38.04251199081346" lon="15.183336012925528"><ele>335.3333333333333</ele><time>2026-04-26T09:55:31Z</time></trkpt><trkpt lat="38.042688749818396" lon="15.183354336447294"><ele>334.0</ele><time>2026-04-26T09:55:32Z</time></trkpt><trkpt lat="38.04286159685325" lon="15.183374223421271"><ele>334.0</ele><time>2026-04-26T09:55:33Z</time></trkpt><trkpt lat="38.043051538001386" lon="15.183390611246141"><ele>334.0</ele><time>2026-04-26T09:55:34Z</time></trkpt><trkpt lat="38.04323056745927" lon="15.18341020061914"><ele>334.0</ele><time>2026-04-26T09:55:35Z</time></trkpt><trkpt lat="38.04341372949951" lon="15.183427485657546"><ele>333.3333333333333</ele><time>2026-04-26T09:55:36Z</time></trkpt><trkpt lat="38.04358483896075" lon="15.18344276991233"><ele>332.6666666666667</ele><time>2026-04-26T09:55:37Z</time></trkpt><trkpt lat="38.04375969686586" lon="15.1834642291299"><ele>332.0</ele><time>2026-04-26T09:55:38Z</time></trkpt><trkpt lat="38.043921511751726" lon="15.183483643790211"><ele>332.0</ele><time>2026-04-26T09:55:39Z</time></trkpt><trkpt lat="38.04408186964055" lon="15.183497548095358"><ele>332.0</ele><time>2026-04-26T09:55:40Z</time></trkpt><trkpt lat="38.04423862686575" lon="15.183513273133354"><ele>332.0</ele><time>2026-04-26T09:55:41Z</time></trkpt><trkpt lat="38.04439947771189" lon="15.18353280772231"><ele>334.33333333333337</ele><time>2026-04-26T09:55:42Z</time></trkpt><trkpt lat="38.04455639026512" lon="15.183560147019692"><ele>336.6666666666667</ele><time>2026-04-26T09:55:43Z</time></trkpt><trkpt lat="38.04471843521538" lon="15.183595663270667"><ele>339.0</ele><time>2026-04-26T09:55:44Z</time></trkpt><trkpt lat="38.04488413590647" lon="15.183631708822418"><ele>342.3333333333333</ele><time>2026-04-26T09:55:45Z</time></trkpt><trkpt lat="38.04504619316976" lon="15.183672993473573"><ele>345.66666666666663</ele><time>2026-04-26T09:55:46Z</time></trkpt><trkpt lat="38.045219792241625" lon="15.183719896023774"><ele>349.0</ele><time>2026-04-26T09:55:46.999Z</time></trkpt><trkpt lat="38.045376399388" lon="15.183776393305408"><ele>349.0</ele><time>2026-04-26T09:55:47.999Z</time></trkpt><trkpt lat="38.04553397780326" lon="15.18383630037381"><ele>349.0</ele><time>2026-04-26T09:55:48.999Z</time></trkpt><trkpt lat="38.04569442602248" lon="15.183908272005041"><ele>349.0</ele><time>2026-04-26T09:55:49.999Z</time></trkpt><trkpt lat="38.04584543187826" lon="15.183993726090327"><ele>342.0</ele><time>2026-04-26T09:55:50.999Z</time></trkpt><trkpt lat="38.04598465733363" lon="15.184087318138042"><ele>335.0</ele><time>2026-04-26T09:55:51.999Z</time></trkpt><trkpt lat="38.046108658684716" lon="15.184193621458448"><ele>328.0</ele><time>2026-04-26T09:55:52.999Z</time></trkpt><trkpt lat="38.046233977743675" lon="15.184318077215908"><ele>328.0</ele><time>2026-04-26T09:55:53.999Z</time></trkpt><trkpt lat="38.04637168525128" lon="15.184460114145535"><ele>328.0</ele><time>2026-04-26T09:55:54.999Z</time></trkpt><trkpt lat="38.04648987198078" lon="15.184616865120837"><ele>328.0</ele><time>2026-04-26T09:55:55.999Z</time></trkpt><trkpt lat="38.04659568877967" lon="15.184795580428254"><ele>326.75</ele><time>2026-04-26T09:55:56.999Z</time></trkpt><trkpt lat="38.046681019991574" lon="15.184966580980245"><ele>325.5</ele><time>2026-04-26T09:55:57.999Z</time></trkpt><trkpt lat="38.04675852482695" lon="15.185115838032868"><ele>324.25</ele><time>2026-04-26T09:55:58.999Z</time></trkpt><trkpt lat="38.04683720229684" lon="15.185249194824097"><ele>323.0</ele><time>2026-04-26T09:55:59.999Z</time></trkpt><trkpt lat="38.04691986846378" lon="15.185350939277173"><ele>323.0</ele><time>2026-04-26T09:56:00.999Z</time></trkpt><trkpt lat="38.04702331741982" lon="15.1854072382987"><ele>323.0</ele><time>2026-04-26T09:56:01.999Z</time></trkpt><trkpt lat="38.04714513846592" lon="15.185414215205803"><ele>323.0</ele><time>2026-04-26T09:56:02.999Z</time></trkpt><trkpt lat="38.04727055616891" lon="15.185377437122535"><ele>323.0</ele><time>2026-04-26T09:56:03.999Z</time></trkpt><trkpt lat="38.047395085367285" lon="15.185300516873655"><ele>321.33333333333337</ele><time>2026-04-26T09:56:04.999Z</time></trkpt><trkpt lat="38.04753005086173" lon="15.18517438591076"><ele>319.6666666666667</ele><time>2026-04-26T09:56:05.999Z</time></trkpt><trkpt lat="38.047667031889276" lon="15.185044457251413"><ele>318.0</ele><time>2026-04-26T09:56:06.999Z</time></trkpt><trkpt lat="38.047807478140506" lon="15.184942014037867"><ele>318.5</ele><time>2026-04-26T09:56:07.999Z</time></trkpt><trkpt lat="38.04793765891363" lon="15.18483338012223"><ele>319.0</ele><time>2026-04-26T09:56:08.999Z</time></trkpt><trkpt lat="38.048058414556195" lon="15.184733507580134"><ele>319.5</ele><time>2026-04-26T09:56:09.999Z</time></trkpt><trkpt lat="38.048161692020315" lon="15.184622609654825"><ele>320.0</ele><time>2026-04-26T09:56:10.999Z</time></trkpt><trkpt lat="38.04827492098039" lon="15.184535671082935"><ele>319.75</ele><time>2026-04-26T09:56:11.999Z</time></trkpt><trkpt lat="38.04839012848532" lon="15.184476062637764"><ele>319.5</ele><time>2026-04-26T09:56:12.999Z</time></trkpt><trkpt lat="38.048517700955635" lon="15.184440043970001"><ele>319.25</ele><time>2026-04-26T09:56:13.999Z</time></trkpt><trkpt lat="38.04864735865479" lon="15.184425906685412"><ele>319.0</ele><time>2026-04-26T09:56:14.999Z</time></trkpt><trkpt lat="38.0487675342739" lon="15.18445584229285"><ele>319.0</ele><time>2026-04-26T09:56:15.999Z</time></trkpt><trkpt lat="38.04887714402455" lon="15.184541749494963"><ele>319.0</ele><time>2026-04-26T09:56:16.999Z</time></trkpt><trkpt lat="38.04896876349191" lon="15.184673843490943"><ele>319.0</ele><time>2026-04-26T09:56:17.999Z</time></trkpt><trkpt lat="38.04904725027812" lon="15.184841060758028"><ele>319.0</ele><time>2026-04-26T09:56:18.999Z</time></trkpt><trkpt lat="38.049123644750715" lon="15.18503688831328"><ele>317.66666666666663</ele><time>2026-04-26T09:56:19.999Z</time></trkpt><trkpt lat="38.04920711170285" lon="15.185225438107876"><ele>316.3333333333333</ele><time>2026-04-26T09:56:20.999Z</time></trkpt><trkpt lat="38.04930212207353" lon="15.185439106349934"><ele>315.0</ele><time>2026-04-26T09:56:21.999Z</time></trkpt><trkpt lat="38.049385791764315" lon="15.185634654955898"><ele>310.0</ele><time>2026-04-26T09:56:22.999Z</time></trkpt><trkpt lat="38.04946653717565" lon="15.185811802573511"><ele>305.0</ele><time>2026-04-26T09:56:23.999Z</time></trkpt><trkpt lat="38.049537739543986" lon="15.185990186550294"><ele>300.0</ele><time>2026-04-26T09:56:24.999Z</time></trkpt><trkpt lat="38.04961943185603" lon="15.1861605512929"><ele>300.0</ele><time>2026-04-26T09:56:25.999Z</time></trkpt><trkpt lat="38.049700158849454" lon="15.186333112218566"><ele>300.0</ele><time>2026-04-26T09:56:26.999Z</time></trkpt><trkpt lat="38.04978206355965" lon="15.18650846963391"><ele>300.0</ele><time>2026-04-26T09:56:27.999Z</time></trkpt><trkpt lat="38.04985551108753" lon="15.186667044151266"><ele>302.25</ele><time>2026-04-26T09:56:29Z</time></trkpt><trkpt lat="38.04992803572499" lon="15.186823079655527"><ele>304.5</ele><time>2026-04-26T09:56:30Z</time></trkpt><trkpt lat="38.05000315602187" lon="15.18698201770074"><ele>306.75</ele><time>2026-04-26T09:56:31Z</time></trkpt><trkpt lat="38.050076955229066" lon="15.187139506219221"><ele>309.0</ele><time>2026-04-26T09:56:32Z</time></trkpt><trkpt lat="38.050142202164544" lon="15.187286851130564"><ele>305.75</ele><time>2026-04-26T09:56:33Z</time></trkpt><trkpt lat="38.05020971116811" lon="15.187441421800443"><ele>302.5</ele><time>2026-04-26T09:56:34Z</time></trkpt><trkpt lat="38.05027269603981" lon="15.187603468638546"><ele>299.25</ele><time>2026-04-26T09:56:35Z</time></trkpt><trkpt lat="38.05032758511248" lon="15.187774111731889"><ele>296.0</ele><time>2026-04-26T09:56:36Z</time></trkpt><trkpt lat="38.05036552720055" lon="15.187959471583806"><ele>296.0</ele><time>2026-04-26T09:56:37Z</time></trkpt><trkpt lat="38.05038674664547" lon="15.188147606700603"><ele>296.0</ele><time>2026-04-26T09:56:38Z</time></trkpt><trkpt lat="38.0503908484759" lon="15.188341978840386"><ele>296.0</ele><time>2026-04-26T09:56:39Z</time></trkpt><trkpt lat="38.05036937985758" lon="15.188534759094356"><ele>294.0</ele><time>2026-04-26T09:56:40Z</time></trkpt><trkpt lat="38.050342267590665" lon="15.188739365419325"><ele>292.0</ele><time>2026-04-26T09:56:41Z</time></trkpt><trkpt lat="38.05032583590763" lon="15.1889340442545"><ele>290.0</ele><time>2026-04-26T09:56:42Z</time></trkpt><trkpt lat="38.050270656779084" lon="15.189112181771257"><ele>289.25</ele><time>2026-04-26T09:56:43Z</time></trkpt><trkpt lat="38.050231368070065" lon="15.18929141614688"><ele>288.5</ele><time>2026-04-26T09:56:44Z</time></trkpt><trkpt lat="38.05025167716832" lon="15.189468527684312"><ele>287.75</ele><time>2026-04-26T09:56:45Z</time></trkpt><trkpt lat="38.05023166959338" lon="15.189627598133509"><ele>287.0</ele><time>2026-04-26T09:56:46Z</time></trkpt><trkpt lat="38.05017027788688" lon="15.189774429418756"><ele>287.0</ele><time>2026-04-26T09:56:47Z</time></trkpt><trkpt lat="38.05010873623927" lon="15.1899089528223"><ele>287.0</ele><time>2026-04-26T09:56:48Z</time></trkpt><trkpt lat="38.05004075604447" lon="15.189990011558253"><ele>287.0</ele><time>2026-04-26T09:56:49Z</time></trkpt><trkpt lat="38.04998579209193" lon="15.190069159745413"><ele>287.0</ele><time>2026-04-26T09:56:50Z</time></trkpt><trkpt lat="38.04993914288247" lon="15.190174914119405"><ele>287.0</ele><time>2026-04-26T09:56:51Z</time></trkpt><trkpt lat="38.04989307925255" lon="15.190307688929277"><ele>285.5</ele><time>2026-04-26T09:56:52Z</time></trkpt><trkpt lat="38.04987794289326" lon="15.190448371852732"><ele>284.0</ele><time>2026-04-26T09:56:53Z</time></trkpt><trkpt lat="38.04989876052581" lon="15.190593957071739"><ele>282.5</ele><time>2026-04-26T09:56:54Z</time></trkpt><trkpt lat="38.04995028672897" lon="15.190727185090468"><ele>281.0</ele><time>2026-04-26T09:56:55Z</time></trkpt><trkpt lat="38.050018753645105" lon="15.190833830229543"><ele>281.0</ele><time>2026-04-26T09:56:56Z</time></trkpt><trkpt lat="38.05011977568297" lon="15.190890497301321"><ele>281.0</ele><time>2026-04-26T09:56:57Z</time></trkpt><trkpt lat="38.05024402149293" lon="15.190907909200128"><ele>281.0</ele><time>2026-04-26T09:56:58Z</time></trkpt><trkpt lat="38.05037392594615" lon="15.190884852197831"><ele>281.0</ele><time>2026-04-26T09:56:59Z</time></trkpt><trkpt lat="38.050497387327994" lon="15.190829698731779"><ele>281.0</ele><time>2026-04-26T09:57:00Z</time></trkpt><trkpt lat="38.050618254533724" lon="15.190725213206964"><ele>281.0</ele><time>2026-04-26T09:57:01Z</time></trkpt><trkpt lat="38.05074414378525" lon="15.19058341831656"><ele>281.0</ele><time>2026-04-26T09:57:02Z</time></trkpt><trkpt lat="38.05090091874661" lon="15.190430940924367"><ele>286.33333333333337</ele><time>2026-04-26T09:57:03Z</time></trkpt><trkpt lat="38.051068959019844" lon="15.190277472636215"><ele>291.6666666666667</ele><time>2026-04-26T09:57:04Z</time></trkpt><trkpt lat="38.05123113428376" lon="15.190148427870044"><ele>297.0</ele><time>2026-04-26T09:57:05Z</time></trkpt><trkpt lat="38.05137084258285" lon="15.190010227555085"><ele>297.0</ele><time>2026-04-26T09:57:06Z</time></trkpt><trkpt lat="38.051504344356616" lon="15.189890807388023"><ele>297.0</ele><time>2026-04-26T09:57:07Z</time></trkpt><trkpt lat="38.051637861432525" lon="15.189772401067275"><ele>297.0</ele><time>2026-04-26T09:57:08Z</time></trkpt><trkpt lat="38.05177170303856" lon="15.189662609801744"><ele>300.3333333333333</ele><time>2026-04-26T09:57:09Z</time></trkpt><trkpt lat="38.05193591049507" lon="15.18954404229989"><ele>303.66666666666663</ele><time>2026-04-26T09:57:10Z</time></trkpt><trkpt lat="38.05211451336639" lon="15.189449621048519"><ele>307.0</ele><time>2026-04-26T09:57:11Z</time></trkpt><trkpt lat="38.05230302058149" lon="15.189373217544954"><ele>296.66666666666663</ele><time>2026-04-26T09:57:12Z</time></trkpt><trkpt lat="38.05249015741858" lon="15.189298465487155"><ele>286.3333333333333</ele><time>2026-04-26T09:57:13Z</time></trkpt><trkpt lat="38.05266043492431" lon="15.189230460388979"><ele>276.0</ele><time>2026-04-26T09:57:14Z</time></trkpt><trkpt lat="38.052825320713" lon="15.189160135279307"><ele>276.0</ele><time>2026-04-26T09:57:15Z</time></trkpt><trkpt lat="38.052996254883936" lon="15.189086220146779"><ele>276.0</ele><time>2026-04-26T09:57:16Z</time></trkpt><trkpt lat="38.05316565311602" lon="15.189011582070963"><ele>276.0</ele><time>2026-04-26T09:57:17Z</time></trkpt><trkpt lat="38.053314426893806" lon="15.18894737358745"><ele>279.5</ele><time>2026-04-26T09:57:18Z</time></trkpt><trkpt lat="38.05345021614911" lon="15.188889418685262"><ele>283.0</ele><time>2026-04-26T09:57:19Z</time></trkpt><trkpt lat="38.053577996457264" lon="15.188838779531919"><ele>286.5</ele><time>2026-04-26T09:57:20Z</time></trkpt><trkpt lat="38.05369970211999" lon="15.188793179486586"><ele>290.0</ele><time>2026-04-26T09:57:21Z</time></trkpt><trkpt lat="38.05382486881484" lon="15.188766576641802"><ele>290.0</ele><time>2026-04-26T09:57:22Z</time></trkpt><trkpt lat="38.05395907479546" lon="15.188774641475662"><ele>290.0</ele><time>2026-04-26T09:57:23Z</time></trkpt><trkpt lat="38.05410059856115" lon="15.188807401361336"><ele>290.0</ele><time>2026-04-26T09:57:24Z</time></trkpt><trkpt lat="38.05423633485783" lon="15.188887296728005"><ele>290.0</ele><time>2026-04-26T09:57:25Z</time></trkpt><trkpt lat="38.05436397387972" lon="15.18899125934868"><ele>281.33333333333337</ele><time>2026-04-26T09:57:26Z</time></trkpt><trkpt lat="38.05448772701287" lon="15.189139071746581"><ele>272.6666666666667</ele><time>2026-04-26T09:57:27Z</time></trkpt><trkpt lat="38.05461780493114" lon="15.189286594592511"><ele>264.0</ele><time>2026-04-26T09:57:28Z</time></trkpt><trkpt lat="38.054740953480874" lon="15.189466541710734"><ele>264.0</ele><time>2026-04-26T09:57:29Z</time></trkpt><trkpt lat="38.05486154399824" lon="15.189636348981438"><ele>264.0</ele><time>2026-04-26T09:57:30Z</time></trkpt><trkpt lat="38.05499171154462" lon="15.189809977994615"><ele>264.0</ele><time>2026-04-26T09:57:31Z</time></trkpt><trkpt lat="38.055114062010965" lon="15.189973494827859"><ele>263.3333333333333</ele><time>2026-04-26T09:57:32Z</time></trkpt><trkpt lat="38.05524751787104" lon="15.190137334626998"><ele>262.66666666666663</ele><time>2026-04-26T09:57:33Z</time></trkpt><trkpt lat="38.055382337675134" lon="15.190290748403351"><ele>262.0</ele><time>2026-04-26T09:57:34Z</time></trkpt><trkpt lat="38.05552122964959" lon="15.190434642447599"><ele>262.0</ele><time>2026-04-26T09:57:35Z</time></trkpt><trkpt lat="38.055645181896274" lon="15.190563033064022"><ele>262.0</ele><time>2026-04-26T09:57:36Z</time></trkpt><trkpt lat="38.055755663540026" lon="15.190688174352642"><ele>262.0</ele><time>2026-04-26T09:57:37Z</time></trkpt><trkpt lat="38.05586696917718" lon="15.190811895599051"><ele>259.0</ele><time>2026-04-26T09:57:38Z</time></trkpt><trkpt lat="38.05599106329824" lon="15.190951531307936"><ele>256.0</ele><time>2026-04-26T09:57:39Z</time></trkpt><trkpt lat="38.056120111988555" lon="15.191092884949999"><ele>253.0</ele><time>2026-04-26T09:57:40Z</time></trkpt><trkpt lat="38.05625137465056" lon="15.191233179473524"><ele>253.0</ele><time>2026-04-26T09:57:41Z</time></trkpt><trkpt lat="38.05638547026935" lon="15.19137593105851"><ele>253.0</ele><time>2026-04-26T09:57:42Z</time></trkpt><trkpt lat="38.0565256407407" lon="15.191523180578303"><ele>253.0</ele><time>2026-04-26T09:57:43Z</time></trkpt><trkpt lat="38.056661004597885" lon="15.191660367300164"><ele>253.33333333333331</ele><time>2026-04-26T09:57:44Z</time></trkpt><trkpt lat="38.05678268534879" lon="15.191785568114353"><ele>253.66666666666669</ele><time>2026-04-26T09:57:45Z</time></trkpt><trkpt lat="38.05690823111585" lon="15.191922744257488"><ele>254.0</ele><time>2026-04-26T09:57:46Z</time></trkpt><trkpt lat="38.0570222205678" lon="15.192061118840828"><ele>254.0</ele><time>2026-04-26T09:57:47Z</time></trkpt><trkpt lat="38.05712430358414" lon="15.192202736536402"><ele>254.0</ele><time>2026-04-26T09:57:48Z</time></trkpt><trkpt lat="38.05720361329708" lon="15.192341596858466"><ele>254.0</ele><time>2026-04-26T09:57:49Z</time></trkpt><trkpt lat="38.05726927048963" lon="15.192510158011535"><ele>254.0</ele><time>2026-04-26T09:57:50Z</time></trkpt><trkpt lat="38.057317313719516" lon="15.192695542199116"><ele>252.66666666666669</ele><time>2026-04-26T09:57:51Z</time></trkpt><trkpt lat="38.05735657320515" lon="15.19289364723328"><ele>251.33333333333331</ele><time>2026-04-26T09:57:52Z</time></trkpt><trkpt lat="38.05738680936724" lon="15.193106671582019"><ele>250.0</ele><time>2026-04-26T09:57:53Z</time></trkpt><trkpt lat="38.05739782601167" lon="15.193323802906011"><ele>250.0</ele><time>2026-04-26T09:57:54Z</time></trkpt><trkpt lat="38.05739957550685" lon="15.193537463716817"><ele>250.0</ele><time>2026-04-26T09:57:55Z</time></trkpt><trkpt lat="38.057398851261325" lon="15.193718162070164"><ele>250.0</ele><time>2026-04-26T09:57:56Z</time></trkpt><trkpt lat="38.05740229783552" lon="15.193884739203042"><ele>250.0</ele><time>2026-04-26T09:57:57Z</time></trkpt><trkpt lat="38.05743424787266" lon="15.19403467944215"><ele>250.2</ele><time>2026-04-26T09:57:58Z</time></trkpt><trkpt lat="38.057497035589854" lon="15.194159227717067"><ele>250.4</ele><time>2026-04-26T09:57:59Z</time></trkpt><trkpt lat="38.05758091198373" lon="15.194243913554489"><ele>250.60000000000002</ele><time>2026-04-26T09:58:00Z</time></trkpt><trkpt lat="38.057685471571254" lon="15.194293052707819"><ele>250.8</ele><time>2026-04-26T09:58:01Z</time></trkpt><trkpt lat="38.05779177542242" lon="15.194285424054714"><ele>251.0</ele><time>2026-04-26T09:58:02Z</time></trkpt><trkpt lat="38.05788443473877" lon="15.194243032665463"><ele>250.99999999999997</ele><time>2026-04-26T09:58:03Z</time></trkpt><trkpt lat="38.05794039851483" lon="15.194200807974315"><ele>251.0</ele><time>2026-04-26T09:58:04Z</time></trkpt><trkpt lat="38.057997817530534" lon="15.194124186612532"><ele>250.99999999999997</ele><time>2026-04-26T09:58:06Z</time></trkpt><trkpt lat="38.05806025692375" lon="15.194047269207989"><ele>250.99999999999997</ele><time>2026-04-26T09:58:08Z</time></trkpt><trkpt lat="38.058115333332985" lon="15.194002998061654"><ele>251.0</ele><time>2026-04-26T09:58:10Z</time></trkpt><trkpt lat="38.058096994235186" lon="15.194093909361944"><ele>250.99999999999997</ele><time>2026-04-26T09:58:15.999Z</time></trkpt><trkpt lat="38.058045102281206" lon="15.1941424073768"><ele>250.99999999999997</ele><time>2026-04-26T09:58:17.999Z</time></trkpt><trkpt lat="38.058042392263715" lon="15.194300899442666"><ele>251.00000000000003</ele><time>2026-04-26T09:58:20.999Z</time></trkpt><trkpt lat="38.05806057458622" lon="15.19439244636288"><ele>251.0</ele><time>2026-04-26T09:58:24.999Z</time></trkpt><trkpt lat="38.05804616353361" lon="15.194501374365482"><ele>251.0</ele><time>2026-04-26T09:58:48Z</time></trkpt><trkpt lat="38.05802573420816" lon="15.19463854898258"><ele>251.0</ele><time>2026-04-26T09:58:50Z</time></trkpt><trkpt lat="38.058027568302585" lon="15.194727643273366"><ele>251.00000000000003</ele><time>2026-04-26T09:58:51Z</time></trkpt><trkpt lat="38.05794087668913" lon="15.194791441147943"><ele>251.0</ele><time>2026-04-26T09:58:52Z</time></trkpt><trkpt lat="38.057923455777924" lon="15.194868608158368"><ele>250.50000000000003</ele><time>2026-04-26T09:58:53Z</time></trkpt><trkpt lat="38.05790566399093" lon="15.194947417867896"><ele>250.0</ele><time>2026-04-26T09:58:54Z</time></trkpt><trkpt lat="38.05788197648564" lon="15.195032192532485"><ele>249.5</ele><time>2026-04-26T09:58:55Z</time></trkpt><trkpt lat="38.057820001824695" lon="15.195165096814684"><ele>249.0</ele><time>2026-04-26T09:58:57Z</time></trkpt><trkpt lat="38.05778398469772" lon="15.195293003431582"><ele>248.50000000000003</ele><time>2026-04-26T09:58:58Z</time></trkpt><trkpt lat="38.05776911564021" lon="15.195376710489557"><ele>248.0</ele><time>2026-04-26T09:58:59Z</time></trkpt><trkpt lat="38.05773904449528" lon="15.195521798087908"><ele>247.66666666666669</ele><time>2026-04-26T09:59:01Z</time></trkpt><trkpt lat="38.05770935757714" lon="15.195673873124756"><ele>247.33333333333331</ele><time>2026-04-26T09:59:03Z</time></trkpt><trkpt lat="38.05768457041676" lon="15.195785745345713"><ele>247.0</ele><time>2026-04-26T09:59:04Z</time></trkpt><trkpt lat="38.05762678999701" lon="15.196423627205457"><ele>247.6</ele><time>2026-04-26T09:59:06Z</time></trkpt><trkpt lat="38.05765241002418" lon="15.196569096268451"><ele>248.2</ele><time>2026-04-26T09:59:07Z</time></trkpt><trkpt lat="38.05767105255276" lon="15.196676346915904"><ele>248.8</ele><time>2026-04-26T09:59:08Z</time></trkpt><trkpt lat="38.05768615229834" lon="15.196791402938869"><ele>249.4</ele><time>2026-04-26T09:59:09Z</time></trkpt><trkpt lat="38.05769221892297" lon="15.196907415073419"><ele>250.0</ele><time>2026-04-26T09:59:10Z</time></trkpt><trkpt lat="38.05769863829597" lon="15.197004704395342"><ele>250.0</ele><time>2026-04-26T09:59:11Z</time></trkpt><trkpt lat="38.05770082603517" lon="15.197133048222092"><ele>250.0</ele><time>2026-04-26T09:59:12Z</time></trkpt><trkpt lat="38.057709798007885" lon="15.197275326740561"><ele>250.0</ele><time>2026-04-26T09:59:13Z</time></trkpt><trkpt lat="38.05772243770106" lon="15.197437314495758"><ele>250.0</ele><time>2026-04-26T09:59:14Z</time></trkpt><trkpt lat="38.05775082539968" lon="15.197617061840639"><ele>250.0</ele><time>2026-04-26T09:59:15Z</time></trkpt><trkpt lat="38.05785621120712" lon="15.197839432510293"><ele>250.0</ele><time>2026-04-26T09:59:16Z</time></trkpt><trkpt lat="38.05787936577148" lon="15.197949361000934"><ele>250.0</ele><time>2026-04-26T09:59:17Z</time></trkpt><trkpt lat="38.05790962951379" lon="15.198051129490914"><ele>250.0</ele><time>2026-04-26T09:59:18Z</time></trkpt><trkpt lat="38.05793124602942" lon="15.198212973965251"><ele>250.5</ele><time>2026-04-26T09:59:19Z</time></trkpt><trkpt lat="38.05794365840929" lon="15.19837268339825"><ele>251.0</ele><time>2026-04-26T09:59:20Z</time></trkpt><trkpt lat="38.05795307779578" lon="15.198539555249688"><ele>251.5</ele><time>2026-04-26T09:59:21Z</time></trkpt><trkpt lat="38.05796050887502" lon="15.198701763351872"><ele>252.0</ele><time>2026-04-26T09:59:22Z</time></trkpt><trkpt lat="38.0579612336147" lon="15.198851649078746"><ele>252.0</ele><time>2026-04-26T09:59:22.999Z</time></trkpt><trkpt lat="38.057951349072276" lon="15.19898078137809"><ele>252.0</ele><time>2026-04-26T09:59:23.999Z</time></trkpt><trkpt lat="38.057940864510385" lon="15.19909747787147"><ele>252.0</ele><time>2026-04-26T09:59:24.999Z</time></trkpt><trkpt lat="38.05790222552099" lon="15.199243900680512"><ele>252.0</ele><time>2026-04-26T09:59:25.999Z</time></trkpt><trkpt lat="38.05791081436592" lon="15.199448464325386"><ele>252.0</ele><time>2026-04-26T09:59:26.999Z</time></trkpt><trkpt lat="38.057931359009864" lon="15.199650446758785"><ele>252.0</ele><time>2026-04-26T09:59:27.999Z</time></trkpt><trkpt lat="38.05795914113988" lon="15.199801547289509"><ele>252.0</ele><time>2026-04-26T09:59:28.999Z</time></trkpt><trkpt lat="38.05799215370435" lon="15.199929201256047"><ele>252.0</ele><time>2026-04-26T09:59:29.999Z</time></trkpt><trkpt lat="38.058031162677395" lon="15.200059667839753"><ele>254.0</ele><time>2026-04-26T09:59:30.999Z</time></trkpt><trkpt lat="38.05805487762545" lon="15.20015516857972"><ele>256.0</ele><time>2026-04-26T09:59:31.999Z</time></trkpt><trkpt lat="38.058077713776136" lon="15.20027494748194"><ele>258.0</ele><time>2026-04-26T09:59:32.999Z</time></trkpt><trkpt lat="38.05865896498314" lon="15.200560081607486"><ele>259.0</ele><time>2026-04-26T09:59:33.999Z</time></trkpt><trkpt lat="38.05870706493908" lon="15.200736063208343"><ele>260.0</ele><time>2026-04-26T09:59:34.999Z</time></trkpt><trkpt lat="38.058766953986954" lon="15.20092145416567"><ele>261.0</ele><time>2026-04-26T09:59:35.999Z</time></trkpt><trkpt lat="38.058826286732" lon="15.201083973100193"><ele>262.0</ele><time>2026-04-26T09:59:36.999Z</time></trkpt><trkpt lat="38.05889057528887" lon="15.201221781820054"><ele>262.0</ele><time>2026-04-26T09:59:37.999Z</time></trkpt><trkpt lat="38.0589649408447" lon="15.201367218011955"><ele>262.0</ele><time>2026-04-26T09:59:38.999Z</time></trkpt><trkpt lat="38.05902795068147" lon="15.201491005902799"><ele>262.0</ele><time>2026-04-26T09:59:39.999Z</time></trkpt><trkpt lat="38.05905866144591" lon="15.201638167186031"><ele>262.0</ele><time>2026-04-26T09:59:40.999Z</time></trkpt><trkpt lat="38.05906416470204" lon="15.201790055327326"><ele>262.25</ele><time>2026-04-26T09:59:41.999Z</time></trkpt><trkpt lat="38.05905395206294" lon="15.201940200436335"><ele>262.5</ele><time>2026-04-26T09:59:42.999Z</time></trkpt><trkpt lat="38.0590257556226" lon="15.20208897461459"><ele>262.75</ele><time>2026-04-26T09:59:43.999Z</time></trkpt><trkpt lat="38.05899627648174" lon="15.202252020777985"><ele>263.0</ele><time>2026-04-26T09:59:44.999Z</time></trkpt><trkpt lat="38.05894469206968" lon="15.20240766380346"><ele>263.25</ele><time>2026-04-26T09:59:45.999Z</time></trkpt><trkpt lat="38.05888359023499" lon="15.20254888076561"><ele>263.5</ele><time>2026-04-26T09:59:46.999Z</time></trkpt><trkpt lat="38.05880281892329" lon="15.202664054855179"><ele>263.75</ele><time>2026-04-26T09:59:47.999Z</time></trkpt><trkpt lat="38.05870782708593" lon="15.202778265206556"><ele>264.0</ele><time>2026-04-26T09:59:48.999Z</time></trkpt><trkpt lat="38.05861760267573" lon="15.202886504319471"><ele>264.0</ele><time>2026-04-26T09:59:49.999Z</time></trkpt><trkpt lat="38.058527282848715" lon="15.202987088072"><ele>264.0</ele><time>2026-04-26T09:59:50.999Z</time></trkpt><trkpt lat="38.05842532872746" lon="15.203068356197388"><ele>264.0</ele><time>2026-04-26T09:59:51.999Z</time></trkpt><trkpt lat="38.05832604760262" lon="15.203152873656434"><ele>264.0</ele><time>2026-04-26T09:59:52.999Z</time></trkpt><trkpt lat="38.058233139102796" lon="15.203277484206874"><ele>265.25</ele><time>2026-04-26T09:59:53.999Z</time></trkpt><trkpt lat="38.05815015750993" lon="15.203408517338262"><ele>266.5</ele><time>2026-04-26T09:59:54.999Z</time></trkpt><trkpt lat="38.05806166140311" lon="15.203538711173147"><ele>267.75</ele><time>2026-04-26T09:59:55.999Z</time></trkpt><trkpt lat="38.05797480107977" lon="15.203680239691794"><ele>269.0</ele><time>2026-04-26T09:59:56.999Z</time></trkpt><trkpt lat="38.05789263386436" lon="15.20383577912634"><ele>269.0</ele><time>2026-04-26T09:59:57.999Z</time></trkpt><trkpt lat="38.05780694089417" lon="15.203979623797688"><ele>269.0</ele><time>2026-04-26T09:59:58.999Z</time></trkpt><trkpt lat="38.05771409891516" lon="15.20413114700027"><ele>269.0</ele><time>2026-04-26T09:59:59.999Z</time></trkpt><trkpt lat="38.057587768867016" lon="15.204241159410763"><ele>269.0</ele><time>2026-04-26T10:00:00.999Z</time></trkpt><trkpt lat="38.057501492313364" lon="15.20439847482639"><ele>269.75</ele><time>2026-04-26T10:00:01.999Z</time></trkpt><trkpt lat="38.057396460953825" lon="15.204522020609414"><ele>270.5</ele><time>2026-04-26T10:00:02.999Z</time></trkpt><trkpt lat="38.05727697658668" lon="15.204632939859836"><ele>271.25</ele><time>2026-04-26T10:00:03.999Z</time></trkpt><trkpt lat="38.05716020484942" lon="15.204753205456981"><ele>272.0</ele><time>2026-04-26T10:00:04.999Z</time></trkpt><trkpt lat="38.057044985096375" lon="15.20486595954347"><ele>272.75</ele><time>2026-04-26T10:00:05.999Z</time></trkpt><trkpt lat="38.05692812242147" lon="15.204975108059969"><ele>273.5</ele><time>2026-04-26T10:00:06.999Z</time></trkpt><trkpt lat="38.05681013957134" lon="15.205073328571215"><ele>274.25</ele><time>2026-04-26T10:00:07.999Z</time></trkpt><trkpt lat="38.05668457611468" lon="15.205175120565382"><ele>275.0</ele><time>2026-04-26T10:00:08.999Z</time></trkpt><trkpt lat="38.056557082042794" lon="15.205280291863044"><ele>275.33333333333337</ele><time>2026-04-26T10:00:09.999Z</time></trkpt><trkpt lat="38.056426351059315" lon="15.20539636567169"><ele>275.6666666666667</ele><time>2026-04-26T10:00:10.999Z</time></trkpt><trkpt lat="38.05630762394219" lon="15.205522462872795"><ele>276.0</ele><time>2026-04-26T10:00:11.999Z</time></trkpt><trkpt lat="38.056187698691545" lon="15.205634424692105"><ele>276.75</ele><time>2026-04-26T10:00:12.999Z</time></trkpt><trkpt lat="38.056074517988506" lon="15.20575384184508"><ele>277.5</ele><time>2026-04-26T10:00:13.999Z</time></trkpt><trkpt lat="38.055946080064146" lon="15.20584937777379"><ele>278.25</ele><time>2026-04-26T10:00:14.999Z</time></trkpt><trkpt lat="38.055852538626986" lon="15.205941876262777"><ele>279.0</ele><time>2026-04-26T10:00:15.999Z</time></trkpt><trkpt lat="38.05577134747935" lon="15.20606214987558"><ele>279.5</ele><time>2026-04-26T10:00:16.999Z</time></trkpt><trkpt lat="38.05569942598862" lon="15.20620929663466"><ele>280.0</ele><time>2026-04-26T10:00:17.999Z</time></trkpt><trkpt lat="38.05560930994872" lon="15.206362156829515"><ele>280.5</ele><time>2026-04-26T10:00:18.999Z</time></trkpt><trkpt lat="38.05550950682063" lon="15.20648361497549"><ele>281.0</ele><time>2026-04-26T10:00:19.999Z</time></trkpt><trkpt lat="38.055411195312345" lon="15.206613022237644"><ele>281.0</ele><time>2026-04-26T10:00:20.999Z</time></trkpt><trkpt lat="38.055307083185994" lon="15.206741066112835"><ele>281.0</ele><time>2026-04-26T10:00:21.999Z</time></trkpt><trkpt lat="38.055228141133874" lon="15.206869110797939"><ele>281.0</ele><time>2026-04-26T10:00:22.998Z</time></trkpt><trkpt lat="38.055166058098266" lon="15.206979536975336"><ele>281.0</ele><time>2026-04-26T10:00:23.998Z</time></trkpt><trkpt lat="38.05510941583312" lon="15.207071035902386"><ele>281.0</ele><time>2026-04-26T10:00:24.998Z</time></trkpt><trkpt lat="38.05505538805024" lon="15.207120137290817"><ele>281.0</ele><time>2026-04-26T10:00:25.998Z</time></trkpt><trkpt lat="38.05499530621433" lon="15.207173367390597"><ele>281.0</ele><time>2026-04-26T10:00:26.998Z</time></trkpt><trkpt lat="38.05490748495233" lon="15.207095179264497"><ele>281.0</ele><time>2026-04-26T10:00:27.998Z</time></trkpt><trkpt lat="38.0548091332432" lon="15.207095436579573"><ele>281.0</ele><time>2026-04-26T10:00:28.998Z</time></trkpt><trkpt lat="38.05468008546279" lon="15.207094705431729"><ele>281.5</ele><time>2026-04-26T10:00:29.998Z</time></trkpt><trkpt lat="38.0545422001709" lon="15.20711517059191"><ele>282.0</ele><time>2026-04-26T10:00:30.998Z</time></trkpt><trkpt lat="38.054410722970076" lon="15.20710953258506"><ele>282.5</ele><time>2026-04-26T10:00:31.998Z</time></trkpt><trkpt lat="38.05429193951922" lon="15.207109904829725"><ele>283.0</ele><time>2026-04-26T10:00:32.998Z</time></trkpt><trkpt lat="38.05417905856285" lon="15.207071106775434"><ele>284.75</ele><time>2026-04-26T10:00:33.998Z</time></trkpt><trkpt lat="38.054058008346374" lon="15.207019314399187"><ele>286.5</ele><time>2026-04-26T10:00:34.998Z</time></trkpt><trkpt lat="38.05395591482055" lon="15.20699409626537"><ele>288.25</ele><time>2026-04-26T10:00:35.998Z</time></trkpt><trkpt lat="38.05384701237656" lon="15.206998974561296"><ele>290.0</ele><time>2026-04-26T10:00:36.998Z</time></trkpt><trkpt lat="38.053735427911086" lon="15.207051438173439"><ele>290.0</ele><time>2026-04-26T10:00:37.998Z</time></trkpt><trkpt lat="38.05361802612922" lon="15.207129626070905"><ele>290.0</ele><time>2026-04-26T10:00:38.998Z</time></trkpt><trkpt lat="38.053514209970785" lon="15.207206668536978"><ele>290.0</ele><time>2026-04-26T10:00:39.998Z</time></trkpt><trkpt lat="38.05341062762735" lon="15.20732127527198"><ele>290.0</ele><time>2026-04-26T10:00:40.999Z</time></trkpt><trkpt lat="38.05329887017434" lon="15.207454100371036"><ele>291.0</ele><time>2026-04-26T10:00:41.999Z</time></trkpt><trkpt lat="38.053197091637585" lon="15.207558585931027"><ele>292.0</ele><time>2026-04-26T10:00:42.999Z</time></trkpt><trkpt lat="38.053093543594976" lon="15.207643946257972"><ele>293.0</ele><time>2026-04-26T10:00:43.999Z</time></trkpt><trkpt lat="38.05297610659764" lon="15.207692707992328"><ele>294.0</ele><time>2026-04-26T10:00:44.999Z</time></trkpt><trkpt lat="38.05284744677813" lon="15.207759392700433"><ele>294.0</ele><time>2026-04-26T10:00:45.999Z</time></trkpt><trkpt lat="38.05270395876207" lon="15.20782988315989"><ele>294.0</ele><time>2026-04-26T10:00:46.999Z</time></trkpt><trkpt lat="38.052554020768945" lon="15.20790256591549"><ele>294.0</ele><time>2026-04-26T10:00:47.999Z</time></trkpt><trkpt lat="38.05240897816177" lon="15.207965689744396"><ele>294.75</ele><time>2026-04-26T10:00:48.999Z</time></trkpt><trkpt lat="38.052304927382735" lon="15.208019404207949"><ele>295.5</ele><time>2026-04-26T10:00:49.999Z</time></trkpt><trkpt lat="38.052219136011814" lon="15.20808888135078"><ele>296.25</ele><time>2026-04-26T10:00:50.999Z</time></trkpt><trkpt lat="38.052112832568426" lon="15.20815970889658"><ele>297.0</ele><time>2026-04-26T10:00:51.999Z</time></trkpt><trkpt lat="38.05202493331116" lon="15.208259981335125"><ele>297.5</ele><time>2026-04-26T10:00:52.999Z</time></trkpt><trkpt lat="38.05195045823829" lon="15.208376958083374"><ele>298.0</ele><time>2026-04-26T10:00:53.999Z</time></trkpt><trkpt lat="38.05188103208827" lon="15.20849828044085"><ele>298.5</ele><time>2026-04-26T10:00:54.999Z</time></trkpt><trkpt lat="38.05182409220718" lon="15.208647918744433"><ele>299.0</ele><time>2026-04-26T10:00:55.999Z</time></trkpt><trkpt lat="38.05175242769402" lon="15.20877860510894"><ele>299.0</ele><time>2026-04-26T10:00:56.999Z</time></trkpt><trkpt lat="38.05166788676612" lon="15.208875596126155"><ele>299.0</ele><time>2026-04-26T10:00:57.999Z</time></trkpt><trkpt lat="38.05156249206066" lon="15.208964790361875"><ele>299.0</ele><time>2026-04-26T10:00:58.999Z</time></trkpt><trkpt lat="38.051489068370195" lon="15.209069865040236"><ele>299.0</ele><time>2026-04-26T10:00:59.999Z</time></trkpt><trkpt lat="38.05141258495874" lon="15.209186552269983"><ele>299.5</ele><time>2026-04-26T10:01:00.999Z</time></trkpt><trkpt lat="38.051350245418824" lon="15.209320196191845"><ele>300.0</ele><time>2026-04-26T10:01:01.999Z</time></trkpt><trkpt lat="38.051294784832784" lon="15.20946522662601"><ele>300.5</ele><time>2026-04-26T10:01:02.999Z</time></trkpt><trkpt lat="38.05121789978466" lon="15.209561247761645"><ele>301.0</ele><time>2026-04-26T10:01:03.999Z</time></trkpt><trkpt lat="38.05113826719682" lon="15.209628580810245"><ele>301.0</ele><time>2026-04-26T10:01:04.999Z</time></trkpt><trkpt lat="38.05104382620894" lon="15.20967455632569"><ele>301.0</ele><time>2026-04-26T10:01:05.999Z</time></trkpt><trkpt lat="38.05093796736819" lon="15.209695362276065"><ele>301.0</ele><time>2026-04-26T10:01:06.999Z</time></trkpt><trkpt lat="38.050844240990195" lon="15.20974561452534"><ele>301.0</ele><time>2026-04-26T10:01:07.999Z</time></trkpt><trkpt lat="38.05074669026307" lon="15.209861589800854"><ele>301.0</ele><time>2026-04-26T10:01:08.999Z</time></trkpt><trkpt lat="38.05065149948375" lon="15.209981385159049"><ele>302.5</ele><time>2026-04-26T10:01:09.999Z</time></trkpt><trkpt lat="38.050549690377196" lon="15.210084156576265"><ele>304.0</ele><time>2026-04-26T10:01:10.999Z</time></trkpt><trkpt lat="38.050441971032626" lon="15.210134419375336"><ele>305.5</ele><time>2026-04-26T10:01:11.999Z</time></trkpt><trkpt lat="38.05032377159898" lon="15.210157203440877"><ele>307.0</ele><time>2026-04-26T10:01:12.999Z</time></trkpt><trkpt lat="38.05023028101542" lon="15.210150052017125"><ele>307.0</ele><time>2026-04-26T10:01:13.999Z</time></trkpt><trkpt lat="38.050128378880665" lon="15.210138479997504"><ele>307.0</ele><time>2026-04-26T10:01:15.999Z</time></trkpt><trkpt lat="38.05003995536191" lon="15.210196445690135"><ele>307.0</ele><time>2026-04-26T10:01:17.999Z</time></trkpt><trkpt lat="38.049956273731034" lon="15.21025463487978"><ele>307.0</ele><time>2026-04-26T10:01:18.999Z</time></trkpt><trkpt lat="38.049881688778704" lon="15.210363615478494"><ele>307.0</ele><time>2026-04-26T10:01:19.999Z</time></trkpt><trkpt lat="38.049814186685715" lon="15.210490910196405"><ele>307.75</ele><time>2026-04-26T10:01:20.999Z</time></trkpt><trkpt lat="38.04971277794347" lon="15.210578045561979"><ele>308.5</ele><time>2026-04-26T10:01:21.999Z</time></trkpt><trkpt lat="38.04961899357605" lon="15.210663349164067"><ele>309.25</ele><time>2026-04-26T10:01:22.999Z</time></trkpt><trkpt lat="38.04951301537931" lon="15.210753266232725"><ele>310.0</ele><time>2026-04-26T10:01:23.999Z</time></trkpt><trkpt lat="38.04939302672725" lon="15.210855114672889"><ele>311.0</ele><time>2026-04-26T10:01:24.999Z</time></trkpt><trkpt lat="38.049290964463765" lon="15.210960347556487"><ele>312.0</ele><time>2026-04-26T10:01:25.999Z</time></trkpt><trkpt lat="38.04920561655815" lon="15.211104104631792"><ele>313.0</ele><time>2026-04-26T10:01:26.999Z</time></trkpt><trkpt lat="38.04912240529035" lon="15.211236586971621"><ele>314.0</ele><time>2026-04-26T10:01:27.999Z</time></trkpt><trkpt lat="38.04904185370544" lon="15.211370585443719"><ele>314.4</ele><time>2026-04-26T10:01:28.999Z</time></trkpt><trkpt lat="38.048968852843544" lon="15.211466738362388"><ele>314.79999999999995</ele><time>2026-04-26T10:01:29.999Z</time></trkpt><trkpt lat="38.04889563653068" lon="15.211517354790125"><ele>315.20000000000005</ele><time>2026-04-26T10:01:30.999Z</time></trkpt><trkpt lat="38.04875304181647" lon="15.211550439799387"><ele>315.6</ele><time>2026-04-26T10:01:32.999Z</time></trkpt><trkpt lat="38.048647836639844" lon="15.21159595508195"><ele>316.0</ele><time>2026-04-26T10:01:33.999Z</time></trkpt><trkpt lat="38.04852077683141" lon="15.211601237213834"><ele>317.0</ele><time>2026-04-26T10:01:34.999Z</time></trkpt><trkpt lat="38.048378660533444" lon="15.211639185214962"><ele>318.0</ele><time>2026-04-26T10:01:35.999Z</time></trkpt><trkpt lat="38.048237560408865" lon="15.211677698156675"><ele>319.0</ele><time>2026-04-26T10:01:36.999Z</time></trkpt><trkpt lat="38.04809604273042" lon="15.211720340170105"><ele>320.0</ele><time>2026-04-26T10:01:37.999Z</time></trkpt><trkpt lat="38.04796353493138" lon="15.211790805723833"><ele>320.25</ele><time>2026-04-26T10:01:38.999Z</time></trkpt><trkpt lat="38.04785487269273" lon="15.211857845535643"><ele>320.5</ele><time>2026-04-26T10:01:39.999Z</time></trkpt><trkpt lat="38.04773258149304" lon="15.21191467727468"><ele>320.75</ele><time>2026-04-26T10:01:40.999Z</time></trkpt><trkpt lat="38.047625521696695" lon="15.21200445607748"><ele>321.0</ele><time>2026-04-26T10:01:41.999Z</time></trkpt><trkpt lat="38.047502580164014" lon="15.212066640893775"><ele>322.25</ele><time>2026-04-26T10:01:42.999Z</time></trkpt><trkpt lat="38.04736313767361" lon="15.212119106270967"><ele>323.5</ele><time>2026-04-26T10:01:43.999Z</time></trkpt><trkpt lat="38.04721980137937" lon="15.212136248798148"><ele>324.75</ele><time>2026-04-26T10:01:44.999Z</time></trkpt><trkpt lat="38.04708666496473" lon="15.212145832388646"><ele>326.0</ele><time>2026-04-26T10:01:45.999Z</time></trkpt><trkpt lat="38.04693703485637" lon="15.212155967158365"><ele>326.0</ele><time>2026-04-26T10:01:46.999Z</time></trkpt><trkpt lat="38.0467687766291" lon="15.212133323702558"><ele>326.0</ele><time>2026-04-26T10:01:47.999Z</time></trkpt><trkpt lat="38.04661597416635" lon="15.212056692201497"><ele>326.0</ele><time>2026-04-26T10:01:48.999Z</time></trkpt><trkpt lat="38.04649054128827" lon="15.21196964695043"><ele>324.75</ele><time>2026-04-26T10:01:49.999Z</time></trkpt><trkpt lat="38.046353456714584" lon="15.211900302845482"><ele>323.5</ele><time>2026-04-26T10:01:50.999Z</time></trkpt><trkpt lat="38.04619234855454" lon="15.21188184825832"><ele>322.25</ele><time>2026-04-26T10:01:51.999Z</time></trkpt><trkpt lat="38.04605621870023" lon="15.211883268474676"><ele>321.0</ele><time>2026-04-26T10:01:52.999Z</time></trkpt><trkpt lat="38.04590752838211" lon="15.211894436540307"><ele>322.0</ele><time>2026-04-26T10:01:53.999Z</time></trkpt><trkpt lat="38.04577474381264" lon="15.211845650944447"><ele>323.0</ele><time>2026-04-26T10:01:54.999Z</time></trkpt><trkpt lat="38.04562996600679" lon="15.211811698529836"><ele>324.0</ele><time>2026-04-26T10:01:55.999Z</time></trkpt><trkpt lat="38.04548817993732" lon="15.211785514079953"><ele>325.0</ele><time>2026-04-26T10:01:56.999Z</time></trkpt><trkpt lat="38.045357263702265" lon="15.21177649294807"><ele>325.0</ele><time>2026-04-26T10:01:57.999Z</time></trkpt><trkpt lat="38.04523148216609" lon="15.211723480853356"><ele>325.0</ele><time>2026-04-26T10:01:58.999Z</time></trkpt><trkpt lat="38.04508439639105" lon="15.211701297964668"><ele>325.0</ele><time>2026-04-26T10:01:59.999Z</time></trkpt><trkpt lat="38.04492295633311" lon="15.21168932343317"><ele>325.0</ele><time>2026-04-26T10:02:00.999Z</time></trkpt><trkpt lat="38.04478373867244" lon="15.211675519692406"><ele>326.5</ele><time>2026-04-26T10:02:01.999Z</time></trkpt><trkpt lat="38.04465654481233" lon="15.211686809493253"><ele>328.0</ele><time>2026-04-26T10:02:02.999Z</time></trkpt><trkpt lat="38.044509920931596" lon="15.211710292926947"><ele>329.5</ele><time>2026-04-26T10:02:03.999Z</time></trkpt><trkpt lat="38.04436496735495" lon="15.21172283933079"><ele>331.0</ele><time>2026-04-26T10:02:04.999Z</time></trkpt><trkpt lat="38.04425350829963" lon="15.211734879842643"><ele>331.0</ele><time>2026-04-26T10:02:05.999Z</time></trkpt><trkpt lat="38.04414897274805" lon="15.211766179259778"><ele>331.0</ele><time>2026-04-26T10:02:06.999Z</time></trkpt><trkpt lat="38.04404844766654" lon="15.211785523477147"><ele>331.0</ele><time>2026-04-26T10:02:07.999Z</time></trkpt><trkpt lat="38.04392451168285" lon="15.211596120124717"><ele>331.0</ele><time>2026-04-26T10:02:08.999Z</time></trkpt><trkpt lat="38.04379302768893" lon="15.211523475876286"><ele>331.0</ele><time>2026-04-26T10:02:09.999Z</time></trkpt><trkpt lat="38.043652604313664" lon="15.211490706377754"><ele>331.0</ele><time>2026-04-26T10:02:10.999Z</time></trkpt><trkpt lat="38.04350379574923" lon="15.211463401205428"><ele>331.0</ele><time>2026-04-26T10:02:11.999Z</time></trkpt><trkpt lat="38.04335792284076" lon="15.21143627820022"><ele>331.0</ele><time>2026-04-26T10:02:12.999Z</time></trkpt><trkpt lat="38.04321040243561" lon="15.211398537471336"><ele>332.0</ele><time>2026-04-26T10:02:13.999Z</time></trkpt><trkpt lat="38.0430698767045" lon="15.211369663784946"><ele>333.0</ele><time>2026-04-26T10:02:14.999Z</time></trkpt><trkpt lat="38.0429391609556" lon="15.211356098634164"><ele>334.0</ele><time>2026-04-26T10:02:15.999Z</time></trkpt><trkpt lat="38.042826067975916" lon="15.211361307109925"><ele>335.0</ele><time>2026-04-26T10:02:16.999Z</time></trkpt><trkpt lat="38.04271923891447" lon="15.211373454175803"><ele>335.0</ele><time>2026-04-26T10:02:17.999Z</time></trkpt><trkpt lat="38.042633971896514" lon="15.211395713502831"><ele>335.0</ele><time>2026-04-26T10:02:18.999Z</time></trkpt><trkpt lat="38.04256659933139" lon="15.21145075190471"><ele>335.0</ele><time>2026-04-26T10:02:19.999Z</time></trkpt><trkpt lat="38.04250874507539" lon="15.21152469878568"><ele>335.0</ele><time>2026-04-26T10:02:20.999Z</time></trkpt><trkpt lat="38.04245465750294" lon="15.211593974724822"><ele>335.0</ele><time>2026-04-26T10:02:21.999Z</time></trkpt><trkpt lat="38.04231951522176" lon="15.211606423638314"><ele>335.25</ele><time>2026-04-26T10:02:23.999Z</time></trkpt><trkpt lat="38.04222564871208" lon="15.21163799292753"><ele>335.5</ele><time>2026-04-26T10:02:24.999Z</time></trkpt><trkpt lat="38.04213633823081" lon="15.211685054544049"><ele>335.75</ele><time>2026-04-26T10:02:25.999Z</time></trkpt><trkpt lat="38.042035262939756" lon="15.211758398432849"><ele>336.0</ele><time>2026-04-26T10:02:26.999Z</time></trkpt><trkpt lat="38.041915304352464" lon="15.211851218501453"><ele>336.0</ele><time>2026-04-26T10:02:27.999Z</time></trkpt><trkpt lat="38.04181114668398" lon="15.211930884854443"><ele>336.0</ele><time>2026-04-26T10:02:28.999Z</time></trkpt><trkpt lat="38.04172173089199" lon="15.211990636505533"><ele>336.0</ele><time>2026-04-26T10:02:29.999Z</time></trkpt><trkpt lat="38.041640883840266" lon="15.21205334841897"><ele>336.0</ele><time>2026-04-26T10:02:30.999Z</time></trkpt><trkpt lat="38.0415417704921" lon="15.212165806601936"><ele>337.0</ele><time>2026-04-26T10:02:31.999Z</time></trkpt><trkpt lat="38.04144196918667" lon="15.212250897672154"><ele>338.0</ele><time>2026-04-26T10:02:32.999Z</time></trkpt><trkpt lat="38.041351867004494" lon="15.212300577316118"><ele>339.0</ele><time>2026-04-26T10:02:33.999Z</time></trkpt><trkpt lat="38.04128197159974" lon="15.2122916874641"><ele>340.0</ele><time>2026-04-26T10:02:34.999Z</time></trkpt><trkpt lat="38.04120555285656" lon="15.212259784443276"><ele>341.0</ele><time>2026-04-26T10:02:35.999Z</time></trkpt><trkpt lat="38.041114004515684" lon="15.21222959471002"><ele>341.0</ele><time>2026-04-26T10:02:36.999Z</time></trkpt><trkpt lat="38.04104015984686" lon="15.212237742837274"><ele>341.0</ele><time>2026-04-26T10:02:37.999Z</time></trkpt><trkpt lat="38.040934925932376" lon="15.2122636435061"><ele>341.0</ele><time>2026-04-26T10:02:38.998Z</time></trkpt><trkpt lat="38.04082922687422" lon="15.21228634417103"><ele>341.0</ele><time>2026-04-26T10:02:39.998Z</time></trkpt><trkpt lat="38.04073456613853" lon="15.212302983398404"><ele>341.0</ele><time>2026-04-26T10:02:40.998Z</time></trkpt><trkpt lat="38.04061711215652" lon="15.21234458106371"><ele>342.4</ele><time>2026-04-26T10:02:41.998Z</time></trkpt><trkpt lat="38.04049638209981" lon="15.212389438689453"><ele>343.8</ele><time>2026-04-26T10:02:42.998Z</time></trkpt><trkpt lat="38.040388077118834" lon="15.212433918920121"><ele>345.2</ele><time>2026-04-26T10:02:43.998Z</time></trkpt><trkpt lat="38.04031150603527" lon="15.212508395168546"><ele>346.59999999999997</ele><time>2026-04-26T10:02:44.998Z</time></trkpt><trkpt lat="38.0402441925744" lon="15.21260170470131"><ele>348.0</ele><time>2026-04-26T10:02:45.999Z</time></trkpt><trkpt lat="38.04016538287441" lon="15.212688181773322"><ele>348.0</ele><time>2026-04-26T10:02:46.999Z</time></trkpt><trkpt lat="38.0400729296822" lon="15.212762234026808"><ele>348.0</ele><time>2026-04-26T10:02:47.999Z</time></trkpt><trkpt lat="38.03996836486201" lon="15.212842460094137"><ele>348.0</ele><time>2026-04-26T10:02:48.999Z</time></trkpt><trkpt lat="38.039873345075385" lon="15.21291183739429"><ele>348.0</ele><time>2026-04-26T10:02:49.999Z</time></trkpt><trkpt lat="38.03976983197397" lon="15.212954732754685"><ele>348.79999999999995</ele><time>2026-04-26T10:02:50.999Z</time></trkpt><trkpt lat="38.03965625048323" lon="15.212984695037163"><ele>349.6</ele><time>2026-04-26T10:02:51.999Z</time></trkpt><trkpt lat="38.03954485547691" lon="15.213022836412355"><ele>350.4</ele><time>2026-04-26T10:02:52.999Z</time></trkpt><trkpt lat="38.039450359446136" lon="15.213075740784127"><ele>351.20000000000005</ele><time>2026-04-26T10:02:53.999Z</time></trkpt><trkpt lat="38.039358795390406" lon="15.213156304530251"><ele>352.0</ele><time>2026-04-26T10:02:54.999Z</time></trkpt><trkpt lat="38.03926579214075" lon="15.213241001286212"><ele>352.75</ele><time>2026-04-26T10:02:55.999Z</time></trkpt><trkpt lat="38.03916958930657" lon="15.21333928112937"><ele>353.5</ele><time>2026-04-26T10:02:56.999Z</time></trkpt><trkpt lat="38.039085013092695" lon="15.21343257568916"><ele>354.25</ele><time>2026-04-26T10:02:57.999Z</time></trkpt><trkpt lat="38.038981427094754" lon="15.21351637602846"><ele>355.0</ele><time>2026-04-26T10:02:58.999Z</time></trkpt><trkpt lat="38.038881351013096" lon="15.21357741689806"><ele>355.66666666666663</ele><time>2026-04-26T10:02:59.999Z</time></trkpt><trkpt lat="38.038759446566964" lon="15.21365832636602"><ele>356.3333333333333</ele><time>2026-04-26T10:03:00.999Z</time></trkpt><trkpt lat="38.03861391029811" lon="15.213746301825308"><ele>357.0</ele><time>2026-04-26T10:03:01.999Z</time></trkpt><trkpt lat="38.03844354608504" lon="15.213824907479028"><ele>357.6666666666667</ele><time>2026-04-26T10:03:02.999Z</time></trkpt><trkpt lat="38.038281483422296" lon="15.213898183017864"><ele>358.33333333333337</ele><time>2026-04-26T10:03:03.999Z</time></trkpt><trkpt lat="38.03813465795181" lon="15.213986035411198"><ele>359.0</ele><time>2026-04-26T10:03:04.999Z</time></trkpt><trkpt lat="38.03799362825821" lon="15.214097753592"><ele>361.5</ele><time>2026-04-26T10:03:05.999Z</time></trkpt><trkpt lat="38.03785861300545" lon="15.214209433143207"><ele>364.0</ele><time>2026-04-26T10:03:06.999Z</time></trkpt><trkpt lat="38.03773306048534" lon="15.214310386106952"><ele>366.5</ele><time>2026-04-26T10:03:07.999Z</time></trkpt><trkpt lat="38.037612145096276" lon="15.214387787206574"><ele>369.0</ele><time>2026-04-26T10:03:08.999Z</time></trkpt><trkpt lat="38.037508067132435" lon="15.214449226529181"><ele>368.6</ele><time>2026-04-26T10:03:09.999Z</time></trkpt><trkpt lat="38.03741761217337" lon="15.214488311538839"><ele>368.2</ele><time>2026-04-26T10:03:10.999Z</time></trkpt><trkpt lat="38.037332626560215" lon="15.214492575699849"><ele>367.8</ele><time>2026-04-26T10:03:11.999Z</time></trkpt><trkpt lat="38.0372300556828" lon="15.214477848212434"><ele>367.40000000000003</ele><time>2026-04-26T10:03:12.999Z</time></trkpt><trkpt lat="38.037101743805664" lon="15.214438668881908"><ele>367.0</ele><time>2026-04-26T10:03:13.999Z</time></trkpt><trkpt lat="38.03696962001844" lon="15.214400686799049"><ele>367.0</ele><time>2026-04-26T10:03:14.999Z</time></trkpt><trkpt lat="38.03682121933119" lon="15.214377278026973"><ele>367.0</ele><time>2026-04-26T10:03:15.999Z</time></trkpt><trkpt lat="38.0366748846964" lon="15.21436134235365"><ele>367.0</ele><time>2026-04-26T10:03:16.999Z</time></trkpt><trkpt lat="38.03654206509526" lon="15.214341862450912"><ele>367.0</ele><time>2026-04-26T10:03:17.999Z</time></trkpt><trkpt lat="38.03643032113354" lon="15.214320929945142"><ele>367.0</ele><time>2026-04-26T10:03:18.999Z</time></trkpt><trkpt lat="38.0363140440208" lon="15.214295502188385"><ele>367.0</ele><time>2026-04-26T10:03:19.999Z</time></trkpt><trkpt lat="38.03620141227252" lon="15.21430446591211"><ele>367.0</ele><time>2026-04-26T10:03:20.999Z</time></trkpt><trkpt lat="38.03608264624129" lon="15.214345648126834"><ele>367.0</ele><time>2026-04-26T10:03:21.999Z</time></trkpt><trkpt lat="38.03595375365001" lon="15.21440624915522"><ele>367.0</ele><time>2026-04-26T10:03:22.999Z</time></trkpt><trkpt lat="38.03581755263929" lon="15.214472319491355"><ele>367.0</ele><time>2026-04-26T10:03:23.999Z</time></trkpt><trkpt lat="38.03567558277242" lon="15.214532136670707"><ele>367.0</ele><time>2026-04-26T10:03:24.999Z</time></trkpt><trkpt lat="38.035542342395544" lon="15.21458382896497"><ele>367.0</ele><time>2026-04-26T10:03:25.999Z</time></trkpt><trkpt lat="38.03540918693025" lon="15.214642453341588"><ele>367.5</ele><time>2026-04-26T10:03:26.999Z</time></trkpt><trkpt lat="38.03528405797503" lon="15.214711951895016"><ele>368.0</ele><time>2026-04-26T10:03:27.999Z</time></trkpt><trkpt lat="38.03516683358779" lon="15.214806755617776"><ele>368.5</ele><time>2026-04-26T10:03:28.999Z</time></trkpt><trkpt lat="38.03504455378191" lon="15.214906257621836"><ele>369.0</ele><time>2026-04-26T10:03:29.999Z</time></trkpt><trkpt lat="38.03491629015408" lon="15.214999373897921"><ele>371.25</ele><time>2026-04-26T10:03:30.999Z</time></trkpt><trkpt lat="38.034797859327725" lon="15.215058015038325"><ele>373.5</ele><time>2026-04-26T10:03:31.999Z</time></trkpt><trkpt lat="38.034672848942016" lon="15.215102900933573"><ele>375.75</ele><time>2026-04-26T10:03:32.999Z</time></trkpt><trkpt lat="38.03454946176094" lon="15.215128376310059"><ele>378.0</ele><time>2026-04-26T10:03:33.999Z</time></trkpt><trkpt lat="38.0344248519128" lon="15.215142958529139"><ele>378.0</ele><time>2026-04-26T10:03:34.999Z</time></trkpt><trkpt lat="38.03428774045966" lon="15.21514235955572"><ele>378.0</ele><time>2026-04-26T10:03:35.999Z</time></trkpt><trkpt lat="38.03415245194008" lon="15.215134310678085"><ele>378.0</ele><time>2026-04-26T10:03:36.999Z</time></trkpt><trkpt lat="38.03402214319827" lon="15.21511567637907"><ele>378.0</ele><time>2026-04-26T10:03:37.999Z</time></trkpt><trkpt lat="38.033898546514706" lon="15.21510998310818"><ele>378.4</ele><time>2026-04-26T10:03:38.999Z</time></trkpt><trkpt lat="38.03378917472629" lon="15.215117045618792"><ele>378.79999999999995</ele><time>2026-04-26T10:03:39.999Z</time></trkpt><trkpt lat="38.033688945571235" lon="15.215125818486186"><ele>379.2</ele><time>2026-04-26T10:03:40.999Z</time></trkpt><trkpt lat="38.03360359220199" lon="15.215142778825141"><ele>379.6</ele><time>2026-04-26T10:03:41.999Z</time></trkpt><trkpt lat="38.033525640825985" lon="15.215189717256846"><ele>380.0</ele><time>2026-04-26T10:03:42.999Z</time></trkpt><trkpt lat="38.03344336899897" lon="15.215271964278495"><ele>380.0</ele><time>2026-04-26T10:03:43.999Z</time></trkpt><trkpt lat="38.03332658697668" lon="15.21534423913557"><ele>380.0</ele><time>2026-04-26T10:03:44.999Z</time></trkpt><trkpt lat="38.033205946235014" lon="15.215358798861441"><ele>380.0</ele><time>2026-04-26T10:03:45.999Z</time></trkpt><trkpt lat="38.033057484064635" lon="15.215352853247472"><ele>380.0</ele><time>2026-04-26T10:03:46.999Z</time></trkpt><trkpt lat="38.03288199028917" lon="15.215355895652861"><ele>380.4</ele><time>2026-04-26T10:03:47.999Z</time></trkpt><trkpt lat="38.03274887362748" lon="15.21536707144097"><ele>380.8</ele><time>2026-04-26T10:03:48.999Z</time></trkpt><trkpt lat="38.03263665805732" lon="15.215367718714297"><ele>381.20000000000005</ele><time>2026-04-26T10:03:49.999Z</time></trkpt><trkpt lat="38.032544020077076" lon="15.215372717476214"><ele>381.6</ele><time>2026-04-26T10:03:50.999Z</time></trkpt><trkpt lat="38.03247072444499" lon="15.215389907507651"><ele>382.0</ele><time>2026-04-26T10:03:51.999Z</time></trkpt><trkpt lat="38.03240693476546" lon="15.215429714244719"><ele>382.8</ele><time>2026-04-26T10:03:52.999Z</time></trkpt><trkpt lat="38.032338336727506" lon="15.215499520999751"><ele>383.6</ele><time>2026-04-26T10:03:53.999Z</time></trkpt><trkpt lat="38.03227717514882" lon="15.215579296101671"><ele>384.40000000000003</ele><time>2026-04-26T10:03:54.999Z</time></trkpt><trkpt lat="38.03219022502292" lon="15.215656418749804"><ele>385.20000000000005</ele><time>2026-04-26T10:03:55.999Z</time></trkpt><trkpt lat="38.03208491607118" lon="15.215710390606958"><ele>386.0</ele><time>2026-04-26T10:03:56.999Z</time></trkpt><trkpt lat="38.031969424408665" lon="15.215766224854516"><ele>387.0</ele><time>2026-04-26T10:03:57.999Z</time></trkpt><trkpt lat="38.03186735727843" lon="15.21583889789391"><ele>388.0</ele><time>2026-04-26T10:03:58.999Z</time></trkpt><trkpt lat="38.03178122044773" lon="15.21595006380388"><ele>389.0</ele><time>2026-04-26T10:03:59.999Z</time></trkpt><trkpt lat="38.0317158722043" lon="15.216098976775715"><ele>390.0</ele><time>2026-04-26T10:04:00.999Z</time></trkpt><trkpt lat="38.03166532926074" lon="15.216224906307653"><ele>390.5</ele><time>2026-04-26T10:04:01.999Z</time></trkpt><trkpt lat="38.03158583747243" lon="15.21637636230657"><ele>391.0</ele><time>2026-04-26T10:04:02.999Z</time></trkpt><trkpt lat="38.031497715910696" lon="15.21651879871128"><ele>391.5</ele><time>2026-04-26T10:04:03.999Z</time></trkpt><trkpt lat="38.03140837444869" lon="15.216634064074604"><ele>392.0</ele><time>2026-04-26T10:04:04.999Z</time></trkpt><trkpt lat="38.031325752718445" lon="15.21673256192472"><ele>392.0</ele><time>2026-04-26T10:04:05.999Z</time></trkpt><trkpt lat="38.03125169868541" lon="15.216832467174905"><ele>392.0</ele><time>2026-04-26T10:04:06.999Z</time></trkpt><trkpt lat="38.031196140681644" lon="15.216908125925785"><ele>392.0</ele><time>2026-04-26T10:04:07.999Z</time></trkpt><trkpt lat="38.03110548167983" lon="15.217010164827135"><ele>392.0</ele><time>2026-04-26T10:04:09.999Z</time></trkpt><trkpt lat="38.03108851771714" lon="15.21709486619514"><ele>392.0</ele><time>2026-04-26T10:04:10.999Z</time></trkpt><trkpt lat="38.03106288350455" lon="15.217236345907628"><ele>393.0</ele><time>2026-04-26T10:04:11.999Z</time></trkpt><trkpt lat="38.03102262231636" lon="15.217380659924752"><ele>394.0</ele><time>2026-04-26T10:04:12.999Z</time></trkpt><trkpt lat="38.03096960894288" lon="15.217501110452762"><ele>395.0</ele><time>2026-04-26T10:04:13.999Z</time></trkpt><trkpt lat="38.03091654070969" lon="15.217583790386456"><ele>396.0</ele><time>2026-04-26T10:04:14.999Z</time></trkpt><trkpt lat="38.03085971503563" lon="15.21766438603599"><ele>397.0</ele><time>2026-04-26T10:04:15.999Z</time></trkpt><trkpt lat="38.03078536088004" lon="15.217792658831996"><ele>397.6</ele><time>2026-04-26T10:04:17.999Z</time></trkpt><trkpt lat="38.03074556968125" lon="15.217915602876118"><ele>398.20000000000005</ele><time>2026-04-26T10:04:19.999Z</time></trkpt><trkpt lat="38.03074797991101" lon="15.21800540327546"><ele>398.8</ele><time>2026-04-26T10:04:20.999Z</time></trkpt><trkpt lat="38.03074792934122" lon="15.218143444840853"><ele>399.4</ele><time>2026-04-26T10:04:21.999Z</time></trkpt><trkpt lat="38.030745698257675" lon="15.218275955244676"><ele>400.0</ele><time>2026-04-26T10:04:22.999Z</time></trkpt><trkpt lat="38.030755628920836" lon="15.218394870387218"><ele>400.00000000000006</ele><time>2026-04-26T10:04:23.999Z</time></trkpt><trkpt lat="38.030763334471004" lon="15.218510438023271"><ele>400.0</ele><time>2026-04-26T10:04:24.999Z</time></trkpt><trkpt lat="38.030751226559794" lon="15.218602699293763"><ele>400.0</ele><time>2026-04-26T10:04:25.999Z</time></trkpt><trkpt lat="38.030708332444625" lon="15.218672768728233"><ele>400.0</ele><time>2026-04-26T10:04:26.999Z</time></trkpt><trkpt lat="38.0306443197789" lon="15.218713303506219"><ele>400.00000000000006</ele><time>2026-04-26T10:04:27.999Z</time></trkpt><trkpt lat="38.03055232666697" lon="15.2187483823227"><ele>400.0</ele><time>2026-04-26T10:04:28.999Z</time></trkpt><trkpt lat="38.03043255788181" lon="15.21877996417006"><ele>400.0</ele><time>2026-04-26T10:04:29.999Z</time></trkpt><trkpt lat="38.03031585947946" lon="15.218793599181092"><ele>400.0</ele><time>2026-04-26T10:04:30.999Z</time></trkpt><trkpt lat="38.03022836931154" lon="15.21878860322349"><ele>400.0</ele><time>2026-04-26T10:04:31.999Z</time></trkpt><trkpt lat="38.03012641308802" lon="15.218836835602474"><ele>400.0</ele><time>2026-04-26T10:04:33.999Z</time></trkpt><trkpt lat="38.03011795492139" lon="15.218943587592882"><ele>400.0</ele><time>2026-04-26T10:04:35.999Z</time></trkpt><trkpt lat="38.03018115942401" lon="15.21900729232151"><ele>400.6666666666667</ele><time>2026-04-26T10:04:37.999Z</time></trkpt><trkpt lat="38.030243702342396" lon="15.219021746756793"><ele>401.33333333333337</ele><time>2026-04-26T10:04:38.999Z</time></trkpt><trkpt lat="38.03032157909423" lon="15.219034936092319"><ele>402.0</ele><time>2026-04-26T10:04:39.999Z</time></trkpt><trkpt lat="38.030398588597826" lon="15.219078118692016"><ele>402.66666666666663</ele><time>2026-04-26T10:04:40.999Z</time></trkpt><trkpt lat="38.030448091065" lon="15.219137952228493"><ele>403.3333333333333</ele><time>2026-04-26T10:04:42.999Z</time></trkpt><trkpt lat="38.030516152247195" lon="15.219216577497889"><ele>404.0</ele><time>2026-04-26T10:04:59Z</time></trkpt><trkpt lat="38.030563619824505" lon="15.219282992525791"><ele>404.0</ele><time>2026-04-26T10:05:00Z</time></trkpt><trkpt lat="38.03061939855174" lon="15.21932893367716"><ele>404.0</ele><time>2026-04-26T10:05:01Z</time></trkpt><trkpt lat="38.03066331291094" lon="15.219388842701921"><ele>404.0</ele><time>2026-04-26T10:05:02Z</time></trkpt><trkpt lat="38.030709805639646" lon="15.219506588103275"><ele>404.0</ele><time>2026-04-26T10:05:04Z</time></trkpt><trkpt lat="38.03072763004254" lon="15.21958858541615"><ele>404.0</ele><time>2026-04-26T10:05:05Z</time></trkpt><trkpt lat="38.03076415355828" lon="15.219674151773368"><ele>404.0</ele><time>2026-04-26T10:05:06Z</time></trkpt><trkpt lat="38.03081374936941" lon="15.219737474295194"><ele>404.0</ele><time>2026-04-26T10:05:07Z</time></trkpt><trkpt lat="38.03086765248952" lon="15.219805244584306"><ele>407.16666666666663</ele><time>2026-04-26T10:05:08Z</time></trkpt><trkpt lat="38.03091556559421" lon="15.219870742517429"><ele>410.3333333333333</ele><time>2026-04-26T10:05:09Z</time></trkpt><trkpt lat="38.03096519958222" lon="15.219920095544428"><ele>413.5</ele><time>2026-04-26T10:05:10Z</time></trkpt><trkpt lat="38.031032964266714" lon="15.21995416692563"><ele>416.66666666666663</ele><time>2026-04-26T10:05:11Z</time></trkpt><trkpt lat="38.03110329763819" lon="15.219965714203731"><ele>419.8333333333333</ele><time>2026-04-26T10:05:12Z</time></trkpt><trkpt lat="38.03119746575992" lon="15.219960699430512"><ele>423.0</ele><time>2026-04-26T10:05:13Z</time></trkpt><trkpt lat="38.03130284665307" lon="15.219926743514606"><ele>423.0</ele><time>2026-04-26T10:05:14Z</time></trkpt><trkpt lat="38.03140048508063" lon="15.219902260464934"><ele>423.0</ele><time>2026-04-26T10:05:15Z</time></trkpt><trkpt lat="38.03146218765067" lon="15.219884015902904"><ele>423.0</ele><time>2026-04-26T10:05:16Z</time></trkpt><trkpt lat="38.03155562446291" lon="15.21987381381723"><ele>423.0</ele><time>2026-04-26T10:05:18Z</time></trkpt><trkpt lat="38.031603160408935" lon="15.219949830709554"><ele>423.0</ele><time>2026-04-26T10:05:20Z</time></trkpt><trkpt lat="38.03161593157357" lon="15.220111730363303"><ele>423.0</ele><time>2026-04-26T10:05:22Z</time></trkpt><trkpt lat="38.03161508439705" lon="15.220201680215975"><ele>423.0</ele><time>2026-04-26T10:05:23Z</time></trkpt><trkpt lat="38.03166715409769" lon="15.220301252786694"><ele>423.0</ele><time>2026-04-26T10:05:25Z</time></trkpt><trkpt lat="38.03174705990868" lon="15.220340929342932"><ele>423.0</ele><time>2026-04-26T10:05:26Z</time></trkpt><trkpt lat="38.03182826826932" lon="15.220387096117783"><ele>423.0</ele><time>2026-04-26T10:05:28Z</time></trkpt><trkpt lat="38.03176568631651" lon="15.22043526115425"><ele>423.0</ele><time>2026-04-26T10:05:50.999Z</time></trkpt><trkpt lat="38.031658064112364" lon="15.220465137057815"><ele>423.0</ele><time>2026-04-26T10:05:52.999Z</time></trkpt><trkpt lat="38.03155880268393" lon="15.2205075664358"><ele>423.0</ele><time>2026-04-26T10:05:54.999Z</time></trkpt><trkpt lat="38.03149462147551" lon="15.220509865474389"><ele>423.0</ele><time>2026-04-26T10:05:55.999Z</time></trkpt><trkpt lat="38.03141100405414" lon="15.22052077523276"><ele>423.0</ele><time>2026-04-26T10:05:56.999Z</time></trkpt><trkpt lat="38.03132411491574" lon="15.220530773664052"><ele>423.0</ele><time>2026-04-26T10:05:57.999Z</time></trkpt><trkpt lat="38.031239481299885" lon="15.220554850051514"><ele>423.0</ele><time>2026-04-26T10:05:58.999Z</time></trkpt><trkpt lat="38.03117057092866" lon="15.220589299534712"><ele>423.0</ele><time>2026-04-26T10:05:59.999Z</time></trkpt><trkpt lat="38.03110225314744" lon="15.22060498021077"><ele>423.0</ele><time>2026-04-26T10:06:00.999Z</time></trkpt><trkpt lat="38.03103744070823" lon="15.220583619008945"><ele>423.0</ele><time>2026-04-26T10:06:01.999Z</time></trkpt><trkpt lat="38.03097472129952" lon="15.220536295453023"><ele>423.0</ele><time>2026-04-26T10:06:02.999Z</time></trkpt><trkpt lat="38.030932404351205" lon="15.220618758849383"><ele>423.0</ele><time>2026-04-26T10:06:05.999Z</time></trkpt><trkpt lat="38.03098333742171" lon="15.22067535629115"><ele>423.0</ele><time>2026-04-26T10:06:07.999Z</time></trkpt><trkpt lat="38.0311110737921" lon="15.220718381050641"><ele>430.2</ele><time>2026-04-26T10:06:09.999Z</time></trkpt><trkpt lat="38.031174879507034" lon="15.220753537590035"><ele>437.4</ele><time>2026-04-26T10:06:10.999Z</time></trkpt><trkpt lat="38.03126365249919" lon="15.220789323863746"><ele>444.59999999999997</ele><time>2026-04-26T10:06:11.999Z</time></trkpt><trkpt lat="38.03135989929093" lon="15.22080752001998"><ele>451.79999999999995</ele><time>2026-04-26T10:06:12.999Z</time></trkpt><trkpt lat="38.03144313166989" lon="15.22082183561052"><ele>459.0</ele><time>2026-04-26T10:06:13.999Z</time></trkpt><trkpt lat="38.03156957964448" lon="15.220842307598609"><ele>458.6666666666667</ele><time>2026-04-26T10:06:15.999Z</time></trkpt><trkpt lat="38.03164547361806" lon="15.220862070811227"><ele>458.33333333333337</ele><time>2026-04-26T10:06:16.999Z</time></trkpt><trkpt lat="38.03170440191234" lon="15.220907060397206"><ele>458.0</ele><time>2026-04-26T10:06:17.999Z</time></trkpt><trkpt lat="38.03173309491626" lon="15.22099873653502"><ele>457.6666666666667</ele><time>2026-04-26T10:06:18.999Z</time></trkpt><trkpt lat="38.03173546774713" lon="15.221118741330887"><ele>457.33333333333337</ele><time>2026-04-26T10:06:19.999Z</time></trkpt><trkpt lat="38.03171570344922" lon="15.221247715283363"><ele>457.0</ele><time>2026-04-26T10:06:20.999Z</time></trkpt><trkpt lat="38.03169977124212" lon="15.221405418046341"><ele>460.40000000000003</ele><time>2026-04-26T10:06:21.999Z</time></trkpt><trkpt lat="38.031698145647155" lon="15.221549809702632"><ele>463.80000000000007</ele><time>2026-04-26T10:06:22.999Z</time></trkpt><trkpt lat="38.031680760232796" lon="15.221658212793155"><ele>467.2</ele><time>2026-04-26T10:06:23.999Z</time></trkpt><trkpt lat="38.03162915740909" lon="15.221774313195475"><ele>470.6</ele><time>2026-04-26T10:06:25.999Z</time></trkpt><trkpt lat="38.0315542022214" lon="15.221845982435566"><ele>474.0</ele><time>2026-04-26T10:06:27.999Z</time></trkpt><trkpt lat="38.03149034733711" lon="15.221825600345355"><ele>471.0</ele><time>2026-04-26T10:06:29.999Z</time></trkpt><trkpt lat="38.031521516483565" lon="15.221685981622906"><ele>468.0</ele><time>2026-04-26T10:06:31.999Z</time></trkpt><trkpt lat="38.03155289892511" lon="15.221607209376838"><ele>465.0</ele><time>2026-04-26T10:06:32.999Z</time></trkpt><trkpt lat="38.03149854885601" lon="15.221472519264982"><ele>462.0</ele><time>2026-04-26T10:06:34.999Z</time></trkpt><trkpt lat="38.031444258646104" lon="15.221392610942218"><ele>459.0</ele><time>2026-04-26T10:06:35.999Z</time></trkpt><trkpt lat="38.03139050648463" lon="15.221308347031385"><ele>459.0</ele><time>2026-04-26T10:06:36.999Z</time></trkpt><trkpt lat="38.03132808743845" lon="15.2212572235722"><ele>459.0</ele><time>2026-04-26T10:06:37.999Z</time></trkpt><trkpt lat="38.03118705195412" lon="15.221291298900613"><ele>459.0</ele><time>2026-04-26T10:06:39.999Z</time></trkpt><trkpt lat="38.03108532166486" lon="15.221277119339577"><ele>459.0</ele><time>2026-04-26T10:06:41.999Z</time></trkpt><trkpt lat="38.03102031841909" lon="15.221337469797934"><ele>459.0</ele><time>2026-04-26T10:06:44.999Z</time></trkpt><trkpt lat="38.03107295992207" lon="15.221427628631316"><ele>459.0</ele><time>2026-04-26T10:06:46.999Z</time></trkpt><trkpt lat="38.031208504412135" lon="15.221440319173725"><ele>459.0</ele><time>2026-04-26T10:06:48.999Z</time></trkpt><trkpt lat="38.03126035382399" lon="15.221489454504493"><ele>459.0</ele><time>2026-04-26T10:06:49.999Z</time></trkpt><trkpt lat="38.03128650522915" lon="15.221586747593701"><ele>459.0</ele><time>2026-04-26T10:06:50.999Z</time></trkpt><trkpt lat="38.03128419070878" lon="15.221676613506336"><ele>459.0</ele><time>2026-04-26T10:06:51.999Z</time></trkpt><trkpt lat="38.031261023056494" lon="15.221755395021628"><ele>459.0</ele><time>2026-04-26T10:06:52.999Z</time></trkpt><trkpt lat="38.03120483098883" lon="15.2218455813071"><ele>465.2</ele><time>2026-04-26T10:06:53.999Z</time></trkpt><trkpt lat="38.03114710865952" lon="15.221966385102208"><ele>471.4</ele><time>2026-04-26T10:06:54.999Z</time></trkpt><trkpt lat="38.03110546090617" lon="15.22209827000906"><ele>477.6</ele><time>2026-04-26T10:06:55.999Z</time></trkpt><trkpt lat="38.03107104058245" lon="15.222222238605987"><ele>483.8</ele><time>2026-04-26T10:06:56.999Z</time></trkpt><trkpt lat="38.03104491256597" lon="15.222324714817924"><ele>490.0</ele><time>2026-04-26T10:06:58Z</time></trkpt><trkpt lat="38.031009911254074" lon="15.222439920354738"><ele>493.83333333333337</ele><time>2026-04-26T10:06:59Z</time></trkpt><trkpt lat="38.030997649086544" lon="15.222539284216303"><ele>497.6666666666667</ele><time>2026-04-26T10:07:00Z</time></trkpt><trkpt lat="38.03098216198882" lon="15.222660597127367"><ele>501.5</ele><time>2026-04-26T10:07:01Z</time></trkpt><trkpt lat="38.030961216802524" lon="15.222769848138473"><ele>505.33333333333337</ele><time>2026-04-26T10:07:02Z</time></trkpt><trkpt lat="38.03094432910037" lon="15.222861650966356"><ele>509.1666666666667</ele><time>2026-04-26T10:07:03Z</time></trkpt><trkpt lat="38.030929310606474" lon="15.222999790979992"><ele>513.0</ele><time>2026-04-26T10:07:05Z</time></trkpt><trkpt lat="38.030866159086706" lon="15.22302612712345"><ele>513.0</ele><time>2026-04-26T10:07:07Z</time></trkpt><trkpt lat="38.030825847316464" lon="15.222902097808628"><ele>513.0</ele><time>2026-04-26T10:07:09Z</time></trkpt><trkpt lat="38.030852181859395" lon="15.222828213579419"><ele>513.0</ele><time>2026-04-26T10:07:10Z</time></trkpt><trkpt lat="38.030884050152835" lon="15.22273688331707"><ele>513.0</ele><time>2026-04-26T10:07:11Z</time></trkpt><trkpt lat="38.030889845209174" lon="15.222619911406944"><ele>513.0</ele><time>2026-04-26T10:07:12Z</time></trkpt><trkpt lat="38.03086588790258" lon="15.222532451536797"><ele>513.0</ele><time>2026-04-26T10:07:13Z</time></trkpt><trkpt lat="38.03082791210282" lon="15.222430683924554"><ele>514.8333333333334</ele><time>2026-04-26T10:07:14Z</time></trkpt><trkpt lat="38.03079438028686" lon="15.222347984784161"><ele>516.6666666666666</ele><time>2026-04-26T10:07:15Z</time></trkpt><trkpt lat="38.0306859064755" lon="15.222319340050872"><ele>518.5</ele><time>2026-04-26T10:07:17Z</time></trkpt><trkpt lat="38.030610595134775" lon="15.222352273120901"><ele>520.3333333333333</ele><time>2026-04-26T10:07:18Z</time></trkpt><trkpt lat="38.03053801634052" lon="15.222392055470337"><ele>522.1666666666666</ele><time>2026-04-26T10:07:19Z</time></trkpt><trkpt lat="38.030514464877704" lon="15.222507884525307"><ele>524.0</ele><time>2026-04-26T10:07:21Z</time></trkpt><trkpt lat="38.03056864578988" lon="15.222566111476391"><ele>524.0</ele><time>2026-04-26T10:07:22Z</time></trkpt><trkpt lat="38.03063811520004" lon="15.222641866891175"><ele>524.0</ele><time>2026-04-26T10:07:23Z</time></trkpt><trkpt lat="38.03067188437074" lon="15.222765819377006"><ele>524.0</ele><time>2026-04-26T10:07:25Z</time></trkpt><trkpt lat="38.03064908621419" lon="15.22285549504453"><ele>524.0</ele><time>2026-04-26T10:07:26Z</time></trkpt><trkpt lat="38.030624960512746" lon="15.22299551586956"><ele>524.0</ele><time>2026-04-26T10:07:27Z</time></trkpt><trkpt lat="38.03059933742894" lon="15.223137894258402"><ele>531.4</ele><time>2026-04-26T10:07:28Z</time></trkpt><trkpt lat="38.03060484835113" lon="15.223269520243674"><ele>538.8</ele><time>2026-04-26T10:07:29Z</time></trkpt><trkpt lat="38.03061742497636" lon="15.223393468355768"><ele>546.2</ele><time>2026-04-26T10:07:30Z</time></trkpt><trkpt lat="38.0306277863938" lon="15.223518600057217"><ele>553.6</ele><time>2026-04-26T10:07:31Z</time></trkpt><trkpt lat="38.03062197567041" lon="15.223619414185395"><ele>561.0</ele><time>2026-04-26T10:07:32Z</time></trkpt><trkpt lat="38.03061635138717" lon="15.223721971738346"><ele>561.0</ele><time>2026-04-26T10:07:33Z</time></trkpt><trkpt lat="38.030603827562004" lon="15.223851810643536"><ele>561.0</ele><time>2026-04-26T10:07:34Z</time></trkpt><trkpt lat="38.030577548472124" lon="15.223960239588552"><ele>561.0</ele><time>2026-04-26T10:07:35Z</time></trkpt><trkpt lat="38.03052309396113" lon="15.22405660085093"><ele>561.0</ele><time>2026-04-26T10:07:36Z</time></trkpt><trkpt lat="38.03046920866318" lon="15.224120482741197"><ele>561.0</ele><time>2026-04-26T10:07:37Z</time></trkpt><trkpt lat="38.03041208075994" lon="15.224185572258289"><ele>561.0</ele><time>2026-04-26T10:07:38Z</time></trkpt><trkpt lat="38.03033248038628" lon="15.224247780711385"><ele>563.4</ele><time>2026-04-26T10:07:39Z</time></trkpt><trkpt lat="38.03025081754028" lon="15.224321634803903"><ele>565.8</ele><time>2026-04-26T10:07:40Z</time></trkpt><trkpt lat="38.03018195916111" lon="15.224408699830828"><ele>568.1999999999999</ele><time>2026-04-26T10:07:41Z</time></trkpt><trkpt lat="38.03011060431955" lon="15.224518532947773"><ele>570.6</ele><time>2026-04-26T10:07:42Z</time></trkpt><trkpt lat="38.030048912202545" lon="15.224604355567092"><ele>573.0</ele><time>2026-04-26T10:07:43Z</time></trkpt><trkpt lat="38.02999110288908" lon="15.224705523503294"><ele>579.8</ele><time>2026-04-26T10:07:44Z</time></trkpt><trkpt lat="38.02992952914512" lon="15.224818998386636"><ele>586.5999999999999</ele><time>2026-04-26T10:07:45Z</time></trkpt><trkpt lat="38.02987956975593" lon="15.22490853860132"><ele>593.4000000000001</ele><time>2026-04-26T10:07:46Z</time></trkpt><trkpt lat="38.02984542778821" lon="15.225012758819847"><ele>600.2</ele><time>2026-04-26T10:07:47Z</time></trkpt><trkpt lat="38.029835788104975" lon="15.225144826380195"><ele>607.0</ele><time>2026-04-26T10:07:48Z</time></trkpt><trkpt lat="38.0298331213815" lon="15.225277163150132"><ele>607.0</ele><time>2026-04-26T10:07:49Z</time></trkpt><trkpt lat="38.02981851220332" lon="15.225396862078222"><ele>607.0</ele><time>2026-04-26T10:07:50Z</time></trkpt><trkpt lat="38.02981445713403" lon="15.225500996554642"><ele>607.0</ele><time>2026-04-26T10:07:51Z</time></trkpt><trkpt lat="38.02978772703692" lon="15.225578849821014"><ele>607.0</ele><time>2026-04-26T10:07:52Z</time></trkpt><trkpt lat="38.02972548804328" lon="15.225595795253625"><ele>607.0</ele><time>2026-04-26T10:07:53Z</time></trkpt><trkpt lat="38.02964301091233" lon="15.225619035389148"><ele>607.0</ele><time>2026-04-26T10:07:54Z</time></trkpt><trkpt lat="38.029603143923765" lon="15.225742656252837"><ele>608.0</ele><time>2026-04-26T10:07:56Z</time></trkpt><trkpt lat="38.029598824394874" lon="15.22583372177528"><ele>609.0</ele><time>2026-04-26T10:07:57Z</time></trkpt><trkpt lat="38.02963052098087" lon="15.225912501126775"><ele>610.0</ele><time>2026-04-26T10:07:58Z</time></trkpt><trkpt lat="38.02969706889081" lon="15.225986334886827"><ele>611.0</ele><time>2026-04-26T10:07:59Z</time></trkpt><trkpt lat="38.029792674010466" lon="15.226073915593265"><ele>612.0</ele><time>2026-04-26T10:08:00Z</time></trkpt><trkpt lat="38.02986428862885" lon="15.226153520147085"><ele>613.0</ele><time>2026-04-26T10:08:01Z</time></trkpt><trkpt lat="38.02990976526727" lon="15.226227511278932"><ele>613.0</ele><time>2026-04-26T10:08:02Z</time></trkpt><trkpt lat="38.02995757671944" lon="15.226325858977557"><ele>613.0</ele><time>2026-04-26T10:08:03Z</time></trkpt><trkpt lat="38.02998979504487" lon="15.22643777911632"><ele>613.0</ele><time>2026-04-26T10:08:04Z</time></trkpt><trkpt lat="38.030011879519" lon="15.226551848368018"><ele>613.0</ele><time>2026-04-26T10:08:05Z</time></trkpt><trkpt lat="38.03006191973897" lon="15.226630261461487"><ele>613.0</ele><time>2026-04-26T10:08:06Z</time></trkpt><trkpt lat="38.03014265504693" lon="15.226668418395525"><ele>613.0</ele><time>2026-04-26T10:08:07Z</time></trkpt><trkpt lat="38.030224794393924" lon="15.22672004751676"><ele>608.0</ele><time>2026-04-26T10:08:08Z</time></trkpt><trkpt lat="38.030269871441526" lon="15.226817262672999"><ele>603.0</ele><time>2026-04-26T10:08:09Z</time></trkpt><trkpt lat="38.030305425710274" lon="15.226913543732199"><ele>598.0</ele><time>2026-04-26T10:08:10Z</time></trkpt><trkpt lat="38.03035739498506" lon="15.227015181432641"><ele>593.0</ele><time>2026-04-26T10:08:11Z</time></trkpt><trkpt lat="38.03040426203774" lon="15.227112984051987"><ele>588.0</ele><time>2026-04-26T10:08:12Z</time></trkpt><trkpt lat="38.03044340538817" lon="15.227222821756143"><ele>588.1999999999999</ele><time>2026-04-26T10:08:13Z</time></trkpt><trkpt lat="38.03050008215177" lon="15.22731179901695"><ele>588.4</ele><time>2026-04-26T10:08:14Z</time></trkpt><trkpt lat="38.03057890577798" lon="15.22739293498446"><ele>588.5999999999999</ele><time>2026-04-26T10:08:15Z</time></trkpt><trkpt lat="38.0306621263969" lon="15.227471852198155"><ele>588.8</ele><time>2026-04-26T10:08:16Z</time></trkpt><trkpt lat="38.03074144467376" lon="15.227560067591023"><ele>589.0</ele><time>2026-04-26T10:08:17Z</time></trkpt><trkpt lat="38.030818447990036" lon="15.227644410590463"><ele>589.0</ele><time>2026-04-26T10:08:18Z</time></trkpt><trkpt lat="38.03088638487896" lon="15.227733400932104"><ele>589.0</ele><time>2026-04-26T10:08:19Z</time></trkpt><trkpt lat="38.03094907379462" lon="15.227835242896711"><ele>589.0</ele><time>2026-04-26T10:08:20Z</time></trkpt><trkpt lat="38.030982617054114" lon="15.227923914734616"><ele>589.0</ele><time>2026-04-26T10:08:21Z</time></trkpt><trkpt lat="38.03104063962011" lon="15.227990307727321"><ele>589.0</ele><time>2026-04-26T10:08:22Z</time></trkpt><trkpt lat="38.03109750637299" lon="15.228035650035736"><ele>589.0</ele><time>2026-04-26T10:08:23Z</time></trkpt><trkpt lat="38.031096355757214" lon="15.228123351249033"><ele>589.0</ele><time>2026-04-26T10:08:25Z</time></trkpt><trkpt lat="38.03099394729856" lon="15.228121980704893"><ele>589.0</ele><time>2026-04-26T10:08:27Z</time></trkpt><trkpt lat="38.030881665809275" lon="15.227999735922024"><ele>589.0</ele><time>2026-04-26T10:08:29Z</time></trkpt><trkpt lat="38.03080466261246" lon="15.22795052186537"><ele>589.0</ele><time>2026-04-26T10:08:30Z</time></trkpt><trkpt lat="38.03071380424339" lon="15.227893026986356"><ele>589.0</ele><time>2026-04-26T10:08:31Z</time></trkpt><trkpt lat="38.030621211125975" lon="15.227824851813947"><ele>594.6</ele><time>2026-04-26T10:08:32Z</time></trkpt><trkpt lat="38.0305376023634" lon="15.227777692743574"><ele>600.2</ele><time>2026-04-26T10:08:32.999Z</time></trkpt><trkpt lat="38.03046926918067" lon="15.227726413141417"><ele>605.8000000000001</ele><time>2026-04-26T10:08:33.999Z</time></trkpt><trkpt lat="38.030396174772555" lon="15.227673164535162"><ele>611.4</ele><time>2026-04-26T10:08:34.999Z</time></trkpt><trkpt lat="38.030291739116784" lon="15.227628232417675"><ele>617.0</ele><time>2026-04-26T10:08:36.999Z</time></trkpt><trkpt lat="38.03030090796111" lon="15.227757388802"><ele>617.0</ele><time>2026-04-26T10:08:39.999Z</time></trkpt><trkpt lat="38.030358974858586" lon="15.227811796391222"><ele>617.0</ele><time>2026-04-26T10:08:40.999Z</time></trkpt><trkpt lat="38.03046102489603" lon="15.227849028856012"><ele>617.0</ele><time>2026-04-26T10:08:41.999Z</time></trkpt><trkpt lat="38.03054299621471" lon="15.227913354452205"><ele>617.0</ele><time>2026-04-26T10:08:42.999Z</time></trkpt><trkpt lat="38.030635028298825" lon="15.228008644706781"><ele>617.0</ele><time>2026-04-26T10:08:43.999Z</time></trkpt><trkpt lat="38.03075663336231" lon="15.228149113218374"><ele>617.75</ele><time>2026-04-26T10:08:44.999Z</time></trkpt><trkpt lat="38.03088092006306" lon="15.228313654275784"><ele>618.5</ele><time>2026-04-26T10:08:45.999Z</time></trkpt><trkpt lat="38.030985470406314" lon="15.228437725402046"><ele>619.25</ele><time>2026-04-26T10:08:46.999Z</time></trkpt><trkpt lat="38.031073933310545" lon="15.22853746353021"><ele>620.0</ele><time>2026-04-26T10:08:47.999Z</time></trkpt><trkpt lat="38.03117225380443" lon="15.228613615144734"><ele>620.0</ele><time>2026-04-26T10:08:48.999Z</time></trkpt><trkpt lat="38.031275352003426" lon="15.228656803873221"><ele>620.0</ele><time>2026-04-26T10:08:49.999Z</time></trkpt><trkpt lat="38.031333400484435" lon="15.228712408014255"><ele>620.0</ele><time>2026-04-26T10:08:50.999Z</time></trkpt><trkpt lat="38.03136177198343" lon="15.228788489736182"><ele>620.0</ele><time>2026-04-26T10:08:52.999Z</time></trkpt><trkpt lat="38.03129986994069" lon="15.228838979920363"><ele>620.0</ele><time>2026-04-26T10:08:55.999Z</time></trkpt><trkpt lat="38.03122108466399" lon="15.228811210023192"><ele>620.0</ele><time>2026-04-26T10:08:57.999Z</time></trkpt><trkpt lat="38.03115445337304" lon="15.228738643154625"><ele>620.0</ele><time>2026-04-26T10:08:58.999Z</time></trkpt><trkpt lat="38.03107359201099" lon="15.228675508287717"><ele>620.0</ele><time>2026-04-26T10:08:59.999Z</time></trkpt><trkpt lat="38.03097741341403" lon="15.228637632708566"><ele>620.0</ele><time>2026-04-26T10:09:00.999Z</time></trkpt><trkpt lat="38.030848345422676" lon="15.228590246220275"><ele>620.0</ele><time>2026-04-26T10:09:01.999Z</time></trkpt><trkpt lat="38.03074321287282" lon="15.228511593824829"><ele>626.2</ele><time>2026-04-26T10:09:02.999Z</time></trkpt><trkpt lat="38.03064331028787" lon="15.228447483354802"><ele>632.4</ele><time>2026-04-26T10:09:04Z</time></trkpt><trkpt lat="38.03054023910734" lon="15.228386314428585"><ele>638.5999999999999</ele><time>2026-04-26T10:09:05Z</time></trkpt><trkpt lat="38.03044714712967" lon="15.228342499508164"><ele>644.8</ele><time>2026-04-26T10:09:06Z</time></trkpt><trkpt lat="38.0303676388364" lon="15.228319663823285"><ele>651.0</ele><time>2026-04-26T10:09:07Z</time></trkpt><trkpt lat="38.03027946896199" lon="15.22831252386381"><ele>651.0</ele><time>2026-04-26T10:09:08Z</time></trkpt><trkpt lat="38.03014893672606" lon="15.228294653395734"><ele>651.0</ele><time>2026-04-26T10:09:09Z</time></trkpt><trkpt lat="38.03002159796731" lon="15.228278589052268"><ele>651.0</ele><time>2026-04-26T10:09:10Z</time></trkpt><trkpt lat="38.029910704625394" lon="15.22824750580959"><ele>651.0</ele><time>2026-04-26T10:09:11Z</time></trkpt><trkpt lat="38.02980143380156" lon="15.22817881661785"><ele>652.0</ele><time>2026-04-26T10:09:12Z</time></trkpt><trkpt lat="38.02969264063324" lon="15.228093166905031"><ele>653.0</ele><time>2026-04-26T10:09:13Z</time></trkpt><trkpt lat="38.02961178411293" lon="15.227998572920631"><ele>654.0</ele><time>2026-04-26T10:09:14Z</time></trkpt><trkpt lat="38.02953890205874" lon="15.22788573758909"><ele>655.0</ele><time>2026-04-26T10:09:15Z</time></trkpt><trkpt lat="38.029455952528515" lon="15.227778802397689"><ele>655.0</ele><time>2026-04-26T10:09:16Z</time></trkpt><trkpt lat="38.02939288561268" lon="15.227708486151892"><ele>655.0</ele><time>2026-04-26T10:09:17Z</time></trkpt><trkpt lat="38.0293367032868" lon="15.227638808456009"><ele>655.0</ele><time>2026-04-26T10:09:18Z</time></trkpt><trkpt lat="38.029178869016256" lon="15.227663328213279"><ele>655.0</ele><time>2026-04-26T10:09:20Z</time></trkpt><trkpt lat="38.02909235757545" lon="15.227659189961086"><ele>655.0</ele><time>2026-04-26T10:09:21Z</time></trkpt><trkpt lat="38.02898393912574" lon="15.227620388656256"><ele>658.6</ele><time>2026-04-26T10:09:22Z</time></trkpt><trkpt lat="38.0289086141232" lon="15.227542426918156"><ele>662.2</ele><time>2026-04-26T10:09:23Z</time></trkpt><trkpt lat="38.02885629823104" lon="15.22743919438494"><ele>665.8</ele><time>2026-04-26T10:09:24Z</time></trkpt><trkpt lat="38.028811896686605" lon="15.227311842612822"><ele>669.4</ele><time>2026-04-26T10:09:25Z</time></trkpt><trkpt lat="38.02877097930737" lon="15.227186429106226"><ele>673.0</ele><time>2026-04-26T10:09:26Z</time></trkpt><trkpt lat="38.028692798654646" lon="15.227098408889853"><ele>673.0</ele><time>2026-04-26T10:09:27Z</time></trkpt><trkpt lat="38.02860330613153" lon="15.226986708570703"><ele>673.0</ele><time>2026-04-26T10:09:28Z</time></trkpt><trkpt lat="38.02854212731456" lon="15.226845100879453"><ele>673.0</ele><time>2026-04-26T10:09:29Z</time></trkpt><trkpt lat="38.02849192026424" lon="15.22673849211962"><ele>673.0</ele><time>2026-04-26T10:09:30Z</time></trkpt><trkpt lat="38.028436194556036" lon="15.226685951298222"><ele>673.0</ele><time>2026-04-26T10:09:31Z</time></trkpt><trkpt lat="38.02836106548543" lon="15.226674027826878"><ele>672.0</ele><time>2026-04-26T10:09:32Z</time></trkpt><trkpt lat="38.02825432824231" lon="15.226685652918142"><ele>671.0</ele><time>2026-04-26T10:09:33Z</time></trkpt><trkpt lat="38.0281402907321" lon="15.226710972368675"><ele>670.0</ele><time>2026-04-26T10:09:34Z</time></trkpt><trkpt lat="38.02805535778555" lon="15.226755409950377"><ele>669.0</ele><time>2026-04-26T10:09:35Z</time></trkpt><trkpt lat="38.027986814725914" lon="15.226825534521813"><ele>668.0</ele><time>2026-04-26T10:09:36Z</time></trkpt><trkpt lat="38.02791793594114" lon="15.226914852141642"><ele>668.0</ele><time>2026-04-26T10:09:37Z</time></trkpt><trkpt lat="38.02783963568589" lon="15.226934035413096"><ele>668.0</ele><time>2026-04-26T10:09:38Z</time></trkpt><trkpt lat="38.027761530262985" lon="15.226901682405426"><ele>668.0</ele><time>2026-04-26T10:09:39Z</time></trkpt><trkpt lat="38.02768641719762" lon="15.226885285451441"><ele>668.0</ele><time>2026-04-26T10:09:40Z</time></trkpt><trkpt lat="38.02760602454911" lon="15.226915951851243"><ele>668.0</ele><time>2026-04-26T10:09:41Z</time></trkpt><trkpt lat="38.02750747416334" lon="15.226988027934286"><ele>668.0</ele><time>2026-04-26T10:09:42Z</time></trkpt><trkpt lat="38.027439213967234" lon="15.227075444508202"><ele>671.4</ele><time>2026-04-26T10:09:43Z</time></trkpt><trkpt lat="38.02737721472055" lon="15.22718165734282"><ele>674.8</ele><time>2026-04-26T10:09:44Z</time></trkpt><trkpt lat="38.027319760713766" lon="15.227296637226466"><ele>678.2</ele><time>2026-04-26T10:09:45Z</time></trkpt><trkpt lat="38.02726682337871" lon="15.227425819826568"><ele>681.6</ele><time>2026-04-26T10:09:46Z</time></trkpt><trkpt lat="38.02722005932602" lon="15.227551460258473"><ele>685.0</ele><time>2026-04-26T10:09:47Z</time></trkpt><trkpt lat="38.02715115784323" lon="15.227667163177422"><ele>685.0</ele><time>2026-04-26T10:09:48Z</time></trkpt><trkpt lat="38.027069417446725" lon="15.227743631767877"><ele>685.0</ele><time>2026-04-26T10:09:49Z</time></trkpt><trkpt lat="38.026961422928515" lon="15.22775033619028"><ele>685.0</ele><time>2026-04-26T10:09:50Z</time></trkpt><trkpt lat="38.0268669541818" lon="15.227762229930649"><ele>685.0</ele><time>2026-04-26T10:09:51Z</time></trkpt><trkpt lat="38.0267458428294" lon="15.227762409580862"><ele>685.0</ele><time>2026-04-26T10:09:52Z</time></trkpt><trkpt lat="38.02663695050426" lon="15.227789505139294"><ele>680.5</ele><time>2026-04-26T10:09:53Z</time></trkpt><trkpt lat="38.026544330647496" lon="15.227823492992162"><ele>676.0</ele><time>2026-04-26T10:09:54Z</time></trkpt><trkpt lat="38.02646025502315" lon="15.227949249327366"><ele>671.5</ele><time>2026-04-26T10:09:55Z</time></trkpt><trkpt lat="38.02636581812173" lon="15.228029088306224"><ele>667.0</ele><time>2026-04-26T10:09:56Z</time></trkpt><trkpt lat="38.02626508053452" lon="15.228109143999209"><ele>674.8</ele><time>2026-04-26T10:09:57Z</time></trkpt><trkpt lat="38.02618990234577" lon="15.228225861600997"><ele>682.6</ele><time>2026-04-26T10:09:58Z</time></trkpt><trkpt lat="38.02609955682735" lon="15.228321659836205"><ele>690.4</ele><time>2026-04-26T10:09:59Z</time></trkpt><trkpt lat="38.02601215400559" lon="15.228411999160896"><ele>698.1999999999999</ele><time>2026-04-26T10:10:00Z</time></trkpt><trkpt lat="38.02594307024456" lon="15.228492540098554"><ele>706.0</ele><time>2026-04-26T10:10:01Z</time></trkpt><trkpt lat="38.02586782183234" lon="15.228577219531875"><ele>707.4</ele><time>2026-04-26T10:10:02Z</time></trkpt><trkpt lat="38.02578015044867" lon="15.22858637448301"><ele>708.8</ele><time>2026-04-26T10:10:03Z</time></trkpt><trkpt lat="38.0256806984521" lon="15.228578414481976"><ele>710.1999999999999</ele><time>2026-04-26T10:10:04Z</time></trkpt><trkpt lat="38.025590804039695" lon="15.228596466797669"><ele>711.5999999999999</ele><time>2026-04-26T10:10:05Z</time></trkpt><trkpt lat="38.025494349862576" lon="15.228638958486723"><ele>713.0</ele><time>2026-04-26T10:10:06Z</time></trkpt><trkpt lat="38.02540718265365" lon="15.22866063470748"><ele>713.0</ele><time>2026-04-26T10:10:07Z</time></trkpt><trkpt lat="38.02532645683553" lon="15.228650442705577"><ele>713.0</ele><time>2026-04-26T10:10:08Z</time></trkpt><trkpt lat="38.02523975933815" lon="15.228597579481068"><ele>713.0</ele><time>2026-04-26T10:10:09Z</time></trkpt><trkpt lat="38.02513189626214" lon="15.22857232999294"><ele>713.0</ele><time>2026-04-26T10:10:10Z</time></trkpt><trkpt lat="38.02502629197029" lon="15.228559716120966"><ele>713.0</ele><time>2026-04-26T10:10:11Z</time></trkpt><trkpt lat="38.02492660805041" lon="15.228587695159629"><ele>714.8</ele><time>2026-04-26T10:10:12Z</time></trkpt><trkpt lat="38.024818975862225" lon="15.228547614940563"><ele>716.5999999999999</ele><time>2026-04-26T10:10:13Z</time></trkpt><trkpt lat="38.02472223262383" lon="15.22854087129396"><ele>718.4000000000001</ele><time>2026-04-26T10:10:14Z</time></trkpt><trkpt lat="38.024627536114345" lon="15.228547975830704"><ele>720.2</ele><time>2026-04-26T10:10:15Z</time></trkpt><trkpt lat="38.02451161694192" lon="15.22853992670128"><ele>722.0</ele><time>2026-04-26T10:10:16Z</time></trkpt><trkpt lat="38.024390479217395" lon="15.228548069019757"><ele>722.0</ele><time>2026-04-26T10:10:17Z</time></trkpt><trkpt lat="38.02427923989578" lon="15.228553142569252"><ele>722.0</ele><time>2026-04-26T10:10:18Z</time></trkpt><trkpt lat="38.024168483409724" lon="15.228553431751342"><ele>722.0</ele><time>2026-04-26T10:10:19Z</time></trkpt><trkpt lat="38.02405925577" lon="15.228543365839325"><ele>722.0</ele><time>2026-04-26T10:10:20Z</time></trkpt><trkpt lat="38.023965628605275" lon="15.22851884847947"><ele>722.0</ele><time>2026-04-26T10:10:21Z</time></trkpt><trkpt lat="38.023889691702216" lon="15.228483500573216"><ele>723.5</ele><time>2026-04-26T10:10:22Z</time></trkpt><trkpt lat="38.02380994758732" lon="15.228440126316794"><ele>725.0</ele><time>2026-04-26T10:10:23Z</time></trkpt><trkpt lat="38.02373761309392" lon="15.228420198996911"><ele>726.5</ele><time>2026-04-26T10:10:24Z</time></trkpt><trkpt lat="38.02365862800673" lon="15.22852429820125"><ele>728.0</ele><time>2026-04-26T10:10:25Z</time></trkpt><trkpt lat="38.02357673241358" lon="15.22855752201517"><ele>729.5</ele><time>2026-04-26T10:10:26Z</time></trkpt><trkpt lat="38.02349693187712" lon="15.228509131773318"><ele>731.0</ele><time>2026-04-26T10:10:27Z</time></trkpt><trkpt lat="38.023417432030115" lon="15.228509131778887"><ele>731.0</ele><time>2026-04-26T10:10:28Z</time></trkpt><trkpt lat="38.02333681408375" lon="15.228522138920207"><ele>731.0</ele><time>2026-04-26T10:10:29Z</time></trkpt><trkpt lat="38.02327348681185" lon="15.228558135177167"><ele>731.0</ele><time>2026-04-26T10:10:30Z</time></trkpt><trkpt lat="38.02320470549188" lon="15.22860263082247"><ele>731.0</ele><time>2026-04-26T10:10:31Z</time></trkpt><trkpt lat="38.0231529906869" lon="15.228704070515201"><ele>731.0</ele><time>2026-04-26T10:10:33Z</time></trkpt><trkpt lat="38.02326179708453" lon="15.228726142298319"><ele>731.0</ele><time>2026-04-26T10:10:35Z</time></trkpt><trkpt lat="38.02333122088321" lon="15.228744141948775"><ele>731.0</ele><time>2026-04-26T10:10:36Z</time></trkpt><trkpt lat="38.023403401640316" lon="15.228744652609226"><ele>731.0</ele><time>2026-04-26T10:10:37Z</time></trkpt><trkpt lat="38.0233978471034" lon="15.228849964985189"><ele>731.0</ele><time>2026-04-26T10:10:41Z</time></trkpt><trkpt lat="38.023317245498056" lon="15.22885389423911"><ele>731.0</ele><time>2026-04-26T10:10:43Z</time></trkpt><trkpt lat="38.02322468769143" lon="15.22884615033754"><ele>731.0</ele><time>2026-04-26T10:10:45Z</time></trkpt><trkpt lat="38.02320206876272" lon="15.228923951171197"><ele>731.0</ele><time>2026-04-26T10:10:46Z</time></trkpt><trkpt lat="38.02331032603422" lon="15.228979301469572"><ele>737.5999999999999</ele><time>2026-04-26T10:10:48Z</time></trkpt><trkpt lat="38.02337189168527" lon="15.229010152798232"><ele>744.2</ele><time>2026-04-26T10:10:49Z</time></trkpt><trkpt lat="38.02346908122352" lon="15.229048930781728"><ele>750.8</ele><time>2026-04-26T10:10:50Z</time></trkpt><trkpt lat="38.02358204160289" lon="15.229059381691286"><ele>757.4000000000001</ele><time>2026-04-26T10:10:51Z</time></trkpt><trkpt lat="38.0236739771078" lon="15.229027650591316"><ele>764.0</ele><time>2026-04-26T10:10:52Z</time></trkpt><trkpt lat="38.02374406642807" lon="15.229061351196036"><ele>764.0</ele><time>2026-04-26T10:10:53Z</time></trkpt><trkpt lat="38.02380522949674" lon="15.229123251292693"><ele>764.0</ele><time>2026-04-26T10:10:54Z</time></trkpt><trkpt lat="38.023932307660395" lon="15.229174680299433"><ele>764.0</ele><time>2026-04-26T10:10:55Z</time></trkpt><trkpt lat="38.02402727707397" lon="15.22915323640624"><ele>764.0</ele><time>2026-04-26T10:10:56Z</time></trkpt><trkpt lat="38.02409375440748" lon="15.229180642317447"><ele>764.0</ele><time>2026-04-26T10:10:58.999Z</time></trkpt><trkpt lat="38.0240237670484" lon="15.22926120788387"><ele>764.0</ele><time>2026-04-26T10:11:00.999Z</time></trkpt><trkpt lat="38.02395127398063" lon="15.229313188175906"><ele>764.0</ele><time>2026-04-26T10:11:01.999Z</time></trkpt><trkpt lat="38.023845467005046" lon="15.22938192275237"><ele>764.0</ele><time>2026-04-26T10:11:02.999Z</time></trkpt><trkpt lat="38.023727957994396" lon="15.2294407830225"><ele>764.0</ele><time>2026-04-26T10:11:03.999Z</time></trkpt><trkpt lat="38.02365296376272" lon="15.229478756865994"><ele>764.0</ele><time>2026-04-26T10:11:04.999Z</time></trkpt><trkpt lat="38.02353714206229" lon="15.229491889476916"><ele>764.0</ele><time>2026-04-26T10:11:05.999Z</time></trkpt><trkpt lat="38.02341051351773" lon="15.22947526895061"><ele>764.0</ele><time>2026-04-26T10:11:06.999Z</time></trkpt><trkpt lat="38.02330476945098" lon="15.22943384898254"><ele>764.0</ele><time>2026-04-26T10:11:07.999Z</time></trkpt><trkpt lat="38.02322635477494" lon="15.229419087469633"><ele>764.0</ele><time>2026-04-26T10:11:08.999Z</time></trkpt><trkpt lat="38.02313247451187" lon="15.229379176269513"><ele>764.0</ele><time>2026-04-26T10:11:11.001Z</time></trkpt><trkpt lat="38.023082631247725" lon="15.229328131841315"><ele>766.8333333333333</ele><time>2026-04-26T10:11:12Z</time></trkpt><trkpt lat="38.023006070676196" lon="15.22935649609559"><ele>769.6666666666666</ele><time>2026-04-26T10:11:14Z</time></trkpt><trkpt lat="38.022953069097134" lon="15.22941601361795"><ele>772.5</ele><time>2026-04-26T10:11:15Z</time></trkpt><trkpt lat="38.02288454341912" lon="15.2294705396916"><ele>775.3333333333333</ele><time>2026-04-26T10:11:16Z</time></trkpt><trkpt lat="38.02276466927062" lon="15.229472254985174"><ele>778.1666666666666</ele><time>2026-04-26T10:11:18Z</time></trkpt><trkpt lat="38.02266801206899" lon="15.229470428894867"><ele>781.0</ele><time>2026-04-26T10:11:19Z</time></trkpt><trkpt lat="38.02255649607518" lon="15.229556916398762"><ele>780.9999999999999</ele><time>2026-04-26T10:11:21Z</time></trkpt><trkpt lat="38.02249274969734" lon="15.229629423184763"><ele>781.0</ele><time>2026-04-26T10:11:22Z</time></trkpt><trkpt lat="38.02242461361368" lon="15.229676942254097"><ele>781.0</ele><time>2026-04-26T10:11:23Z</time></trkpt><trkpt lat="38.02235940588679" lon="15.229687505610366"><ele>781.0</ele><time>2026-04-26T10:11:24Z</time></trkpt><trkpt lat="38.022285978362035" lon="15.229700237831413"><ele>780.9999999999999</ele><time>2026-04-26T10:11:25Z</time></trkpt><trkpt lat="38.02222194993798" lon="15.22969639035761"><ele>781.0</ele><time>2026-04-26T10:11:26Z</time></trkpt><trkpt lat="38.02223304654891" lon="15.229803574417963"><ele>785.1999999999999</ele><time>2026-04-26T10:11:29Z</time></trkpt><trkpt lat="38.0223055574738" lon="15.229836423832756"><ele>789.4</ele><time>2026-04-26T10:11:30Z</time></trkpt><trkpt lat="38.02240799317496" lon="15.229843287666082"><ele>793.6</ele><time>2026-04-26T10:11:31Z</time></trkpt><trkpt lat="38.02254618127967" lon="15.229838359952428"><ele>797.8</ele><time>2026-04-26T10:11:32Z</time></trkpt><trkpt lat="38.022664980429425" lon="15.229838909434967"><ele>802.0</ele><time>2026-04-26T10:11:33Z</time></trkpt><trkpt lat="38.02277981589322" lon="15.229854148784797"><ele>801.9999999999999</ele><time>2026-04-26T10:11:35Z</time></trkpt><trkpt lat="38.02281454569318" lon="15.229923123795096"><ele>802.0</ele><time>2026-04-26T10:11:36Z</time></trkpt><trkpt lat="38.02286271942813" lon="15.230011956176021"><ele>802.0</ele><time>2026-04-26T10:11:37Z</time></trkpt><trkpt lat="38.02291872013829" lon="15.230088798072705"><ele>802.0</ele><time>2026-04-26T10:11:38Z</time></trkpt><trkpt lat="38.02297517164461" lon="15.230166649430458"><ele>801.9999999999999</ele><time>2026-04-26T10:11:39Z</time></trkpt><trkpt lat="38.02304898670882" lon="15.23022240763011"><ele>802.0</ele><time>2026-04-26T10:11:40Z</time></trkpt><trkpt lat="38.023125877968894" lon="15.23019679961961"><ele>802.0</ele><time>2026-04-26T10:11:41Z</time></trkpt><trkpt lat="38.02324157484816" lon="15.2301709696616"><ele>802.0</ele><time>2026-04-26T10:11:42Z</time></trkpt><trkpt lat="38.023358740712844" lon="15.230180353592896"><ele>802.0</ele><time>2026-04-26T10:11:43Z</time></trkpt><trkpt lat="38.023463759048" lon="15.230232543267707"><ele>802.0</ele><time>2026-04-26T10:11:44Z</time></trkpt><trkpt lat="38.0235875261859" lon="15.230277201001236"><ele>800.0</ele><time>2026-04-26T10:11:45Z</time></trkpt><trkpt lat="38.023701479315854" lon="15.230314398827927"><ele>798.0</ele><time>2026-04-26T10:11:46Z</time></trkpt><trkpt lat="38.023827547445606" lon="15.230347589466463"><ele>796.0</ele><time>2026-04-26T10:11:47Z</time></trkpt><trkpt lat="38.023950629497094" lon="15.230341311430948"><ele>794.0</ele><time>2026-04-26T10:11:48Z</time></trkpt><trkpt lat="38.02406467631201" lon="15.230320920782288"><ele>793.6</ele><time>2026-04-26T10:11:49Z</time></trkpt><trkpt lat="38.024160334248144" lon="15.230321039094319"><ele>793.2</ele><time>2026-04-26T10:11:50Z</time></trkpt><trkpt lat="38.02426000542052" lon="15.230320138061648"><ele>792.8000000000001</ele><time>2026-04-26T10:11:51Z</time></trkpt><trkpt lat="38.02434811770034" lon="15.230305397348918"><ele>792.4000000000001</ele><time>2026-04-26T10:11:52Z</time></trkpt><trkpt lat="38.02446519750865" lon="15.230347694890973"><ele>792.0</ele><time>2026-04-26T10:11:54Z</time></trkpt><trkpt lat="38.02455493483536" lon="15.230408061347179"><ele>792.0</ele><time>2026-04-26T10:11:55Z</time></trkpt><trkpt lat="38.02458938576145" lon="15.23053833404231"><ele>792.0</ele><time>2026-04-26T10:11:56Z</time></trkpt><trkpt lat="38.024700161140515" lon="15.230524101178567"><ele>792.0</ele><time>2026-04-26T10:15:33.001Z</time></trkpt><trkpt lat="38.024792227259134" lon="15.23056056918599"><ele>792.0</ele><time>2026-04-26T10:15:35.001Z</time></trkpt><trkpt lat="38.02487626432953" lon="15.2305990491362"><ele>792.0</ele><time>2026-04-26T10:15:36.001Z</time></trkpt><trkpt lat="38.024967031954105" lon="15.230638937504084"><ele>793.8</ele><time>2026-04-26T10:15:37.001Z</time></trkpt><trkpt lat="38.02506283622707" lon="15.230686990984639"><ele>795.6</ele><time>2026-04-26T10:15:38.001Z</time></trkpt><trkpt lat="38.02513500685815" lon="15.23075090684087"><ele>797.4</ele><time>2026-04-26T10:15:39.001Z</time></trkpt><trkpt lat="38.02520055820942" lon="15.230822303804503"><ele>799.1999999999999</ele><time>2026-04-26T10:15:40.001Z</time></trkpt><trkpt lat="38.02530400172049" lon="15.230948436644935"><ele>801.0</ele><time>2026-04-26T10:15:42.001Z</time></trkpt><trkpt lat="38.02537914283868" lon="15.23098743427404"><ele>801.0</ele><time>2026-04-26T10:15:43.001Z</time></trkpt><trkpt lat="38.02546753896789" lon="15.231019698253952"><ele>801.0</ele><time>2026-04-26T10:15:44.001Z</time></trkpt><trkpt lat="38.025550978816405" lon="15.231048220840888"><ele>801.0</ele><time>2026-04-26T10:15:45.001Z</time></trkpt><trkpt lat="38.0256347828225" lon="15.231072960930003"><ele>801.0</ele><time>2026-04-26T10:15:46.001Z</time></trkpt><trkpt lat="38.025739019296466" lon="15.231121945734266"><ele>801.0</ele><time>2026-04-26T10:15:48.001Z</time></trkpt><trkpt lat="38.02576748300317" lon="15.231194440511374"><ele>801.0</ele><time>2026-04-26T10:15:50.001Z</time></trkpt><trkpt lat="38.025708916271334" lon="15.231223928047799"><ele>801.0</ele><time>2026-04-26T10:15:52.001Z</time></trkpt><trkpt lat="38.02563854188712" lon="15.231219425683278"><ele>801.0</ele><time>2026-04-26T10:15:53.001Z</time></trkpt><trkpt lat="38.025545963301894" lon="15.231199025300112"><ele>801.0</ele><time>2026-04-26T10:15:54.001Z</time></trkpt><trkpt lat="38.02546276265337" lon="15.231202140525145"><ele>801.0</ele><time>2026-04-26T10:15:55Z</time></trkpt><trkpt lat="38.02539310943465" lon="15.231203850775886"><ele>801.0</ele><time>2026-04-26T10:15:56Z</time></trkpt><trkpt lat="38.025309673626964" lon="15.231206074879845"><ele>801.0</ele><time>2026-04-26T10:15:57Z</time></trkpt><trkpt lat="38.025234484576444" lon="15.231219721787022"><ele>801.0</ele><time>2026-04-26T10:15:58Z</time></trkpt><trkpt lat="38.02515746314165" lon="15.23123636529957"><ele>801.0</ele><time>2026-04-26T10:15:59Z</time></trkpt><trkpt lat="38.02506306237725" lon="15.231263033216136"><ele>801.0</ele><time>2026-04-26T10:16:00Z</time></trkpt><trkpt lat="38.024970816916095" lon="15.231289969623107"><ele>801.0</ele><time>2026-04-26T10:16:01Z</time></trkpt><trkpt lat="38.02486510611478" lon="15.231324307676937"><ele>801.0</ele><time>2026-04-26T10:16:02Z</time></trkpt><trkpt lat="38.02474553103054" lon="15.231389527031446"><ele>801.5999999999999</ele><time>2026-04-26T10:16:03Z</time></trkpt><trkpt lat="38.02465847725433" lon="15.231437261163062"><ele>802.2</ele><time>2026-04-26T10:16:04Z</time></trkpt><trkpt lat="38.02456595227217" lon="15.231484783426883"><ele>802.8</ele><time>2026-04-26T10:16:05Z</time></trkpt><trkpt lat="38.02448125462744" lon="15.231502223760748"><ele>803.4000000000001</ele><time>2026-04-26T10:16:06Z</time></trkpt><trkpt lat="38.02439462777726" lon="15.23149615279629"><ele>804.0</ele><time>2026-04-26T10:16:07Z</time></trkpt><trkpt lat="38.02428083686447" lon="15.231498876696147"><ele>800.4000000000001</ele><time>2026-04-26T10:16:08Z</time></trkpt><trkpt lat="38.024177297154814" lon="15.23151768601438"><ele>796.8</ele><time>2026-04-26T10:16:09Z</time></trkpt><trkpt lat="38.02406585927167" lon="15.231574033382039"><ele>793.2</ele><time>2026-04-26T10:16:10Z</time></trkpt><trkpt lat="38.023973833528274" lon="15.231617663760497"><ele>789.5999999999999</ele><time>2026-04-26T10:16:11Z</time></trkpt><trkpt lat="38.02388027285907" lon="15.231669279635879"><ele>786.0</ele><time>2026-04-26T10:16:12Z</time></trkpt><trkpt lat="38.023801917562515" lon="15.231684312204118"><ele>786.0</ele><time>2026-04-26T10:16:13Z</time></trkpt><trkpt lat="38.02372232699054" lon="15.231702447056009"><ele>786.0</ele><time>2026-04-26T10:16:14Z</time></trkpt><trkpt lat="38.02361870531354" lon="15.23170796574621"><ele>786.0</ele><time>2026-04-26T10:16:15Z</time></trkpt><trkpt lat="38.02351246551342" lon="15.231736104335372"><ele>786.0</ele><time>2026-04-26T10:16:16Z</time></trkpt><trkpt lat="38.02341958902828" lon="15.231785359541513"><ele>786.0</ele><time>2026-04-26T10:16:17Z</time></trkpt><trkpt lat="38.02333143788312" lon="15.231837641064612"><ele>786.8</ele><time>2026-04-26T10:16:18Z</time></trkpt><trkpt lat="38.02323996523084" lon="15.231921051179814"><ele>787.5999999999999</ele><time>2026-04-26T10:16:19Z</time></trkpt><trkpt lat="38.02314110694454" lon="15.232005747583502"><ele>788.4</ele><time>2026-04-26T10:16:20Z</time></trkpt><trkpt lat="38.023052523316096" lon="15.23208120069828"><ele>789.2</ele><time>2026-04-26T10:16:21Z</time></trkpt><trkpt lat="38.02297715576388" lon="15.23212671646503"><ele>790.0</ele><time>2026-04-26T10:16:22Z</time></trkpt><trkpt lat="38.02289974791925" lon="15.232154915778471"><ele>789.9999999999999</ele><time>2026-04-26T10:16:23Z</time></trkpt><trkpt lat="38.02281488594875" lon="15.232158548269963"><ele>790.0</ele><time>2026-04-26T10:16:24Z</time></trkpt><trkpt lat="38.02273675779452" lon="15.232163109717643"><ele>790.0</ele><time>2026-04-26T10:16:25Z</time></trkpt><trkpt lat="38.0226617823297" lon="15.232163915315692"><ele>790.0</ele><time>2026-04-26T10:16:26Z</time></trkpt><trkpt lat="38.02257445021357" lon="15.23213841201106"><ele>789.9999999999999</ele><time>2026-04-26T10:16:27Z</time></trkpt><trkpt lat="38.02247879599467" lon="15.232103408261612"><ele>790.0</ele><time>2026-04-26T10:16:28Z</time></trkpt><trkpt lat="38.02236952763995" lon="15.232097639801054"><ele>790.0</ele><time>2026-04-26T10:16:30Z</time></trkpt><trkpt lat="38.022285001439634" lon="15.232190244710566"><ele>790.0</ele><time>2026-04-26T10:16:32Z</time></trkpt><trkpt lat="38.022245355174114" lon="15.232288936330008"><ele>790.0</ele><time>2026-04-26T10:16:33Z</time></trkpt><trkpt lat="38.022203365603254" lon="15.232395680524954"><ele>790.0</ele><time>2026-04-26T10:16:34Z</time></trkpt><trkpt lat="38.02212940053133" lon="15.23244069272208"><ele>790.0</ele><time>2026-04-26T10:16:35Z</time></trkpt><trkpt lat="38.02206008104939" lon="15.232479004929147"><ele>790.0</ele><time>2026-04-26T10:16:36Z</time></trkpt><trkpt lat="38.02201009471841" lon="15.23261258209247"><ele>790.0</ele><time>2026-04-26T10:16:38Z</time></trkpt><trkpt lat="38.021984061212464" lon="15.23271826072177"><ele>790.0</ele><time>2026-04-26T10:16:39Z</time></trkpt><trkpt lat="38.02193421463682" lon="15.232825141866654"><ele>790.0</ele><time>2026-04-26T10:16:40Z</time></trkpt><trkpt lat="38.02188023700068" lon="15.23292383421563"><ele>790.0</ele><time>2026-04-26T10:16:41Z</time></trkpt><trkpt lat="38.021858816006926" lon="15.233015053658242"><ele>787.0</ele><time>2026-04-26T10:16:42Z</time></trkpt><trkpt lat="38.021904784842505" lon="15.233151900780058"><ele>784.0</ele><time>2026-04-26T10:16:44Z</time></trkpt><trkpt lat="38.0220132295853" lon="15.233273294913547"><ele>781.0</ele><time>2026-04-26T10:16:46Z</time></trkpt><trkpt lat="38.022037957670534" lon="15.233348757590472"><ele>778.0</ele><time>2026-04-26T10:16:47Z</time></trkpt><trkpt lat="38.02205635915305" lon="15.233430536010026"><ele>775.0</ele><time>2026-04-26T10:16:48Z</time></trkpt><trkpt lat="38.02204201122356" lon="15.233597429727784"><ele>775.0</ele><time>2026-04-26T10:16:50Z</time></trkpt><trkpt lat="38.02201071898396" lon="15.233683472122094"><ele>775.0</ele><time>2026-04-26T10:16:51Z</time></trkpt><trkpt lat="38.02192865968276" lon="15.23381611049613"><ele>775.0</ele><time>2026-04-26T10:16:53Z</time></trkpt><trkpt lat="38.02187821683635" lon="15.233882772496678"><ele>775.0</ele><time>2026-04-26T10:16:54Z</time></trkpt><trkpt lat="38.02183264742553" lon="15.233993151206642"><ele>775.0</ele><time>2026-04-26T10:16:55Z</time></trkpt><trkpt lat="38.0217694124895" lon="15.234083213457488"><ele>773.3333333333333</ele><time>2026-04-26T10:16:56Z</time></trkpt><trkpt lat="38.021706138713526" lon="15.234167319658924"><ele>771.6666666666666</ele><time>2026-04-26T10:16:57Z</time></trkpt><trkpt lat="38.02165124319826" lon="15.234228031844745"><ele>770.0</ele><time>2026-04-26T10:16:58Z</time></trkpt><trkpt lat="38.02161302799335" lon="15.234296974587258"><ele>768.3333333333333</ele><time>2026-04-26T10:17:00Z</time></trkpt><trkpt lat="38.02168115090748" lon="15.234306136386397"><ele>766.6666666666666</ele><time>2026-04-26T10:17:02Z</time></trkpt><trkpt lat="38.02178656419357" lon="15.234200369489304"><ele>765.0</ele><time>2026-04-26T10:17:04Z</time></trkpt><trkpt lat="38.02186392134187" lon="15.234122884295568"><ele>762.0</ele><time>2026-04-26T10:17:05Z</time></trkpt><trkpt lat="38.02193178724535" lon="15.234065683723925"><ele>759.0</ele><time>2026-04-26T10:17:06Z</time></trkpt><trkpt lat="38.02202606932171" lon="15.233997050163044"><ele>756.0</ele><time>2026-04-26T10:17:08Z</time></trkpt><trkpt lat="38.022060991686935" lon="15.234106283566112"><ele>753.0</ele><time>2026-04-26T10:17:11Z</time></trkpt><trkpt lat="38.0220228621509" lon="15.23417634844541"><ele>750.0</ele><time>2026-04-26T10:17:13Z</time></trkpt><trkpt lat="38.021902680204356" lon="15.2342786026882"><ele>750.0</ele><time>2026-04-26T10:17:15Z</time></trkpt><trkpt lat="38.0218362998586" lon="15.23436408759674"><ele>750.0</ele><time>2026-04-26T10:17:16Z</time></trkpt><trkpt lat="38.02177760713041" lon="15.234445252375405"><ele>750.0</ele><time>2026-04-26T10:17:17Z</time></trkpt><trkpt lat="38.021730046916154" lon="15.234512971490945"><ele>750.0</ele><time>2026-04-26T10:17:18Z</time></trkpt><trkpt lat="38.02166442712844" lon="15.234602668126941"><ele>750.0</ele><time>2026-04-26T10:17:20Z</time></trkpt><trkpt lat="38.021637714328335" lon="15.234680942652139"><ele>750.0</ele><time>2026-04-26T10:17:22Z</time></trkpt><trkpt lat="38.021723345300565" lon="15.234664401053484"><ele>750.0</ele><time>2026-04-26T10:17:24Z</time></trkpt><trkpt lat="38.02180271925162" lon="15.234590517134892"><ele>750.0</ele><time>2026-04-26T10:17:25Z</time></trkpt><trkpt lat="38.021867414739305" lon="15.234536957583122"><ele>750.0</ele><time>2026-04-26T10:17:26Z</time></trkpt><trkpt lat="38.021945240153656" lon="15.234501944715115"><ele>750.0</ele><time>2026-04-26T10:17:27Z</time></trkpt><trkpt lat="38.0220342231285" lon="15.234479807518081"><ele>750.0</ele><time>2026-04-26T10:17:28.001Z</time></trkpt><trkpt lat="38.022115086443435" lon="15.234444532676124"><ele>750.0</ele><time>2026-04-26T10:17:29.001Z</time></trkpt><trkpt lat="38.02217225104673" lon="15.234406913729684"><ele>750.0</ele><time>2026-04-26T10:17:30.001Z</time></trkpt><trkpt lat="38.02219770773023" lon="15.234306510362746"><ele>750.0</ele><time>2026-04-26T10:17:32.001Z</time></trkpt><trkpt lat="38.022227692222316" lon="15.23421853443234"><ele>750.0</ele><time>2026-04-26T10:17:33.001Z</time></trkpt><trkpt lat="38.022291913513406" lon="15.234104605768366"><ele>750.0</ele><time>2026-04-26T10:17:34.001Z</time></trkpt><trkpt lat="38.0223338945809" lon="15.234027804238954"><ele>750.0</ele><time>2026-04-26T10:17:35.001Z</time></trkpt><trkpt lat="38.0223980069663" lon="15.233946128571038"><ele>750.0</ele><time>2026-04-26T10:17:37.001Z</time></trkpt><trkpt lat="38.02246800906831" lon="15.233977044375765"><ele>750.0</ele><time>2026-04-26T10:17:39.001Z</time></trkpt><trkpt lat="38.0224489360265" lon="15.234103926187123"><ele>750.0</ele><time>2026-04-26T10:17:41.001Z</time></trkpt><trkpt lat="38.02241599691837" lon="15.23417629462183"><ele>750.0</ele><time>2026-04-26T10:17:42.001Z</time></trkpt><trkpt lat="38.02237631224781" lon="15.234283762131035"><ele>750.0</ele><time>2026-04-26T10:17:43.001Z</time></trkpt><trkpt lat="38.02236159987916" lon="15.234368630912082"><ele>750.0</ele><time>2026-04-26T10:17:44.001Z</time></trkpt><trkpt lat="38.022348443216664" lon="15.23448092639381"><ele>750.0</ele><time>2026-04-26T10:17:45.001Z</time></trkpt><trkpt lat="38.02234464031553" lon="15.234614610208025"><ele>750.0</ele><time>2026-04-26T10:17:46.001Z</time></trkpt><trkpt lat="38.0223296139648" lon="15.23471776699969"><ele>750.0</ele><time>2026-04-26T10:17:47Z</time></trkpt><trkpt lat="38.02231476589027" lon="15.234830945438198"><ele>750.0</ele><time>2026-04-26T10:17:48Z</time></trkpt><trkpt lat="38.02228632263156" lon="15.234942414564982"><ele>750.0</ele><time>2026-04-26T10:17:49Z</time></trkpt><trkpt lat="38.022258864150196" lon="15.235041803049674"><ele>750.0</ele><time>2026-04-26T10:17:50Z</time></trkpt><trkpt lat="38.02223055686398" lon="15.235153130068692"><ele>750.0</ele><time>2026-04-26T10:17:51Z</time></trkpt><trkpt lat="38.02217511930965" lon="15.235258659835676"><ele>745.3333333333334</ele><time>2026-04-26T10:17:52Z</time></trkpt><trkpt lat="38.022117866486454" lon="15.235325061601916"><ele>740.6666666666666</ele><time>2026-04-26T10:17:53Z</time></trkpt><trkpt lat="38.02205124797868" lon="15.23536084057087"><ele>736.0</ele><time>2026-04-26T10:17:54Z</time></trkpt><trkpt lat="38.021987939997224" lon="15.235364581833414"><ele>731.3333333333333</ele><time>2026-04-26T10:17:55Z</time></trkpt><trkpt lat="38.02191495132065" lon="15.23533450690375"><ele>726.6666666666666</ele><time>2026-04-26T10:17:56Z</time></trkpt><trkpt lat="38.021819103395174" lon="15.23530612010668"><ele>722.0</ele><time>2026-04-26T10:17:57Z</time></trkpt><trkpt lat="38.021709716778176" lon="15.23531685473539"><ele>724.0</ele><time>2026-04-26T10:17:58Z</time></trkpt><trkpt lat="38.02163229062674" lon="15.235320971427548"><ele>726.0</ele><time>2026-04-26T10:17:58.999Z</time></trkpt><trkpt lat="38.02156225820202" lon="15.235304528376506"><ele>728.0</ele><time>2026-04-26T10:17:59.999Z</time></trkpt><trkpt lat="38.02149550393268" lon="15.235268438776739"><ele>730.0</ele><time>2026-04-26T10:18:00.999Z</time></trkpt><trkpt lat="38.021427570573856" lon="15.235233641397462"><ele>732.0</ele><time>2026-04-26T10:18:01.999Z</time></trkpt><trkpt lat="38.02133784008226" lon="15.235208249689295"><ele>734.0</ele><time>2026-04-26T10:18:03.999Z</time></trkpt><trkpt lat="38.02134736420893" lon="15.235324865858374"><ele>734.0</ele><time>2026-04-26T10:18:05.999Z</time></trkpt><trkpt lat="38.021461996263895" lon="15.235378128937429"><ele>734.0</ele><time>2026-04-26T10:18:07.999Z</time></trkpt><trkpt lat="38.021545515616" lon="15.235429837526109"><ele>734.0</ele><time>2026-04-26T10:18:08.999Z</time></trkpt><trkpt lat="38.0216286262248" lon="15.235500220382987"><ele>734.0</ele><time>2026-04-26T10:18:09.999Z</time></trkpt><trkpt lat="38.02171679550403" lon="15.235570113461344"><ele>734.0</ele><time>2026-04-26T10:18:10.999Z</time></trkpt><trkpt lat="38.021800253984054" lon="15.235629901495415"><ele>728.8333333333333</ele><time>2026-04-26T10:18:11.999Z</time></trkpt><trkpt lat="38.021878568275746" lon="15.235685162891713"><ele>723.6666666666666</ele><time>2026-04-26T10:18:12.999Z</time></trkpt><trkpt lat="38.02195231515751" lon="15.235722907384856"><ele>718.5</ele><time>2026-04-26T10:18:13.999Z</time></trkpt><trkpt lat="38.02202264360029" lon="15.235767413801492"><ele>713.3333333333334</ele><time>2026-04-26T10:18:14.999Z</time></trkpt><trkpt lat="38.02209069944713" lon="15.235788573161026"><ele>708.1666666666667</ele><time>2026-04-26T10:18:15.999Z</time></trkpt><trkpt lat="38.02216418799853" lon="15.23578680877076"><ele>703.0</ele><time>2026-04-26T10:18:16.999Z</time></trkpt><trkpt lat="38.02223209795631" lon="15.235772681135746"><ele>703.0</ele><time>2026-04-26T10:18:17.999Z</time></trkpt><trkpt lat="38.02230757834475" lon="15.23573470940863"><ele>703.0</ele><time>2026-04-26T10:18:18.999Z</time></trkpt><trkpt lat="38.02237159632556" lon="15.235703120181231"><ele>703.0</ele><time>2026-04-26T10:18:19.999Z</time></trkpt><trkpt lat="38.02243408181647" lon="15.235673348628488"><ele>703.0</ele><time>2026-04-26T10:18:20.999Z</time></trkpt><trkpt lat="38.022539715183854" lon="15.235630968458281"><ele>703.0</ele><time>2026-04-26T10:18:22.999Z</time></trkpt><trkpt lat="38.0225961834613" lon="15.235672087449986"><ele>703.0</ele><time>2026-04-26T10:18:23.999Z</time></trkpt><trkpt lat="38.022653638350704" lon="15.23575144031143"><ele>699.5999999999999</ele><time>2026-04-26T10:18:24.999Z</time></trkpt><trkpt lat="38.02270144339512" lon="15.235855826119362"><ele>696.1999999999999</ele><time>2026-04-26T10:18:25.999Z</time></trkpt><trkpt lat="38.02275353644285" lon="15.235953441583224"><ele>692.8</ele><time>2026-04-26T10:18:26.999Z</time></trkpt><trkpt lat="38.022811154049165" lon="15.236007211549232"><ele>689.4</ele><time>2026-04-26T10:18:27.999Z</time></trkpt><trkpt lat="38.02295215875516" lon="15.236040075892577"><ele>686.0</ele><time>2026-04-26T10:18:29.999Z</time></trkpt><trkpt lat="38.0230517488532" lon="15.23601761237943"><ele>686.0</ele><time>2026-04-26T10:18:31.999Z</time></trkpt><trkpt lat="38.023069951159904" lon="15.235915566628725"><ele>686.0</ele><time>2026-04-26T10:18:33.999Z</time></trkpt><trkpt lat="38.022990781899146" lon="15.235796943512801"><ele>686.0</ele><time>2026-04-26T10:18:35.999Z</time></trkpt><trkpt lat="38.02294953964142" lon="15.235734191789247"><ele>686.0</ele><time>2026-04-26T10:18:36.999Z</time></trkpt><trkpt lat="38.02298600267617" lon="15.235571971773703"><ele>686.0</ele><time>2026-04-26T10:18:38.999Z</time></trkpt><trkpt lat="38.023032036659586" lon="15.235509032286716"><ele>686.1999999999999</ele><time>2026-04-26T10:18:39.999Z</time></trkpt><trkpt lat="38.023146691485856" lon="15.235443967858497"><ele>686.4</ele><time>2026-04-26T10:18:41.999Z</time></trkpt><trkpt lat="38.02327103345814" lon="15.235480728659024"><ele>686.6</ele><time>2026-04-26T10:18:43.999Z</time></trkpt><trkpt lat="38.023355373404165" lon="15.235460007954996"><ele>686.8</ele><time>2026-04-26T10:18:44.999Z</time></trkpt><trkpt lat="38.02344182320456" lon="15.235433142730344"><ele>687.0</ele><time>2026-04-26T10:18:45.999Z</time></trkpt><trkpt lat="38.02352272794417" lon="15.235438903437823"><ele>687.0</ele><time>2026-04-26T10:18:46.999Z</time></trkpt><trkpt lat="38.02361713684095" lon="15.235468684867687"><ele>687.0</ele><time>2026-04-26T10:18:47.999Z</time></trkpt><trkpt lat="38.023688729879936" lon="15.235498543682214"><ele>687.0</ele><time>2026-04-26T10:18:48.999Z</time></trkpt><trkpt lat="38.02379556526561" lon="15.235421634161273"><ele>687.0</ele><time>2026-04-26T10:18:50.999Z</time></trkpt><trkpt lat="38.023884566888334" lon="15.235328552540901"><ele>687.0</ele><time>2026-04-26T10:18:51.999Z</time></trkpt><trkpt lat="38.023964427292945" lon="15.235259369326942"><ele>687.0</ele><time>2026-04-26T10:18:52.999Z</time></trkpt><trkpt lat="38.02405276743323" lon="15.235224236606474"><ele>687.0</ele><time>2026-04-26T10:18:53.999Z</time></trkpt><trkpt lat="38.024148615238566" lon="15.235211898617958"><ele>687.0</ele><time>2026-04-26T10:18:54.999Z</time></trkpt><trkpt lat="38.02424642849454" lon="15.235208513721034"><ele>687.0</ele><time>2026-04-26T10:18:55.999Z</time></trkpt><trkpt lat="38.02434848067541" lon="15.235228194427636"><ele>687.0</ele><time>2026-04-26T10:18:56.999Z</time></trkpt><trkpt lat="38.02443602176745" lon="15.235231252212738"><ele>683.0</ele><time>2026-04-26T10:18:57.999Z</time></trkpt><trkpt lat="38.02453982117575" lon="15.235230094051845"><ele>679.0</ele><time>2026-04-26T10:18:59.999Z</time></trkpt><trkpt lat="38.02454297244477" lon="15.235339978200935"><ele>675.0</ele><time>2026-04-26T10:19:01.999Z</time></trkpt><trkpt lat="38.02445619713825" lon="15.235433333694719"><ele>671.0</ele><time>2026-04-26T10:19:03.999Z</time></trkpt><trkpt lat="38.02434074562085" lon="15.235439911196007"><ele>667.0</ele><time>2026-04-26T10:19:05.999Z</time></trkpt><trkpt lat="38.024257443585626" lon="15.235420221418687"><ele>667.0</ele><time>2026-04-26T10:19:06.999Z</time></trkpt><trkpt lat="38.024176343693426" lon="15.23544309381936"><ele>667.0</ele><time>2026-04-26T10:19:07.999Z</time></trkpt><trkpt lat="38.024100980249784" lon="15.235491591757107"><ele>667.0</ele><time>2026-04-26T10:19:08.999Z</time></trkpt><trkpt lat="38.02402384589705" lon="15.235526379962618"><ele>667.0</ele><time>2026-04-26T10:19:09.999Z</time></trkpt><trkpt lat="38.02392105517438" lon="15.235604019287214"><ele>667.0</ele><time>2026-04-26T10:19:11.999Z</time></trkpt><trkpt lat="38.023867309946205" lon="15.235658939524887"><ele>667.0</ele><time>2026-04-26T10:19:12.999Z</time></trkpt><trkpt lat="38.02383004830056" lon="15.235775504159776"><ele>667.1666666666667</ele><time>2026-04-26T10:19:14.999Z</time></trkpt><trkpt lat="38.02387107171361" lon="15.235891848846546"><ele>667.3333333333334</ele><time>2026-04-26T10:19:16.999Z</time></trkpt><trkpt lat="38.02399051221042" lon="15.235935894168657"><ele>667.5</ele><time>2026-04-26T10:19:18.999Z</time></trkpt><trkpt lat="38.02407234449604" lon="15.235918620469132"><ele>667.6666666666666</ele><time>2026-04-26T10:19:19.999Z</time></trkpt><trkpt lat="38.024140758919806" lon="15.235926817431423"><ele>667.8333333333333</ele><time>2026-04-26T10:19:20.999Z</time></trkpt><trkpt lat="38.024205830840266" lon="15.23595640484299"><ele>668.0</ele><time>2026-04-26T10:19:21.999Z</time></trkpt><trkpt lat="38.02427524760438" lon="15.235995761695236"><ele>664.8</ele><time>2026-04-26T10:19:22.999Z</time></trkpt><trkpt lat="38.02433674550939" lon="15.236069350419228"><ele>661.5999999999999</ele><time>2026-04-26T10:19:23.999Z</time></trkpt><trkpt lat="38.02439244182787" lon="15.236173957324175"><ele>658.4000000000001</ele><time>2026-04-26T10:19:24.999Z</time></trkpt><trkpt lat="38.02447260001983" lon="15.236254453726325"><ele>655.2</ele><time>2026-04-26T10:19:25.999Z</time></trkpt><trkpt lat="38.02457840528569" lon="15.236274145107142"><ele>652.0</ele><time>2026-04-26T10:19:27.999Z</time></trkpt><trkpt lat="38.02465301705028" lon="15.236245573248302"><ele>652.0</ele><time>2026-04-26T10:19:28.999Z</time></trkpt><trkpt lat="38.02477758429268" lon="15.2362075094029"><ele>652.0</ele><time>2026-04-26T10:19:29.999Z</time></trkpt><trkpt lat="38.024895188737176" lon="15.236160705233956"><ele>652.0</ele><time>2026-04-26T10:19:30.999Z</time></trkpt><trkpt lat="38.02500310251601" lon="15.236084762187003"><ele>652.0</ele><time>2026-04-26T10:19:31.999Z</time></trkpt><trkpt lat="38.025081126127866" lon="15.236009925942927"><ele>650.8</ele><time>2026-04-26T10:19:32.999Z</time></trkpt><trkpt lat="38.02514211868699" lon="15.235948628070881"><ele>649.6</ele><time>2026-04-26T10:19:34Z</time></trkpt><trkpt lat="38.02519689594543" lon="15.23590385610337"><ele>648.4</ele><time>2026-04-26T10:19:35Z</time></trkpt><trkpt lat="38.02532127765661" lon="15.235880922372571"><ele>647.1999999999999</ele><time>2026-04-26T10:19:37Z</time></trkpt><trkpt lat="38.025395320799525" lon="15.23591340379835"><ele>646.0</ele><time>2026-04-26T10:19:39Z</time></trkpt><trkpt lat="38.025418926952845" lon="15.236045288849379"><ele>646.0</ele><time>2026-04-26T10:19:42Z</time></trkpt><trkpt lat="38.02544072967079" lon="15.23614871270223"><ele>646.0</ele><time>2026-04-26T10:19:43Z</time></trkpt><trkpt lat="38.02547115039932" lon="15.236272456927692"><ele>646.0</ele><time>2026-04-26T10:19:43.999Z</time></trkpt><trkpt lat="38.02550327230244" lon="15.236392929320704"><ele>646.0</ele><time>2026-04-26T10:19:44.999Z</time></trkpt><trkpt lat="38.02551963714863" lon="15.236493924412088"><ele>646.0</ele><time>2026-04-26T10:19:45.999Z</time></trkpt><trkpt lat="38.02552169504757" lon="15.236603944105514"><ele>646.0</ele><time>2026-04-26T10:19:48Z</time></trkpt><trkpt lat="38.02544151109189" lon="15.236586679259814"><ele>646.0</ele><time>2026-04-26T10:19:51Z</time></trkpt><trkpt lat="38.02534371838359" lon="15.236467529409627"><ele>646.0</ele><time>2026-04-26T10:19:53Z</time></trkpt><trkpt lat="38.02528409594399" lon="15.236380117328416"><ele>646.0</ele><time>2026-04-26T10:19:54Z</time></trkpt><trkpt lat="38.02524998926223" lon="15.236307133344784"><ele>646.0</ele><time>2026-04-26T10:19:55Z</time></trkpt><trkpt lat="38.02516729965393" lon="15.236276487114797"><ele>646.0</ele><time>2026-04-26T10:19:57Z</time></trkpt><trkpt lat="38.02515452469927" lon="15.23635489847785"><ele>646.0</ele><time>2026-04-26T10:19:59Z</time></trkpt><trkpt lat="38.025208596871366" lon="15.236447512428954"><ele>646.0</ele><time>2026-04-26T10:20:01Z</time></trkpt><trkpt lat="38.025257255911065" lon="15.236506364836247"><ele>646.0</ele><time>2026-04-26T10:20:02Z</time></trkpt><trkpt lat="38.025305559742684" lon="15.236626012359602"><ele>646.0</ele><time>2026-04-26T10:20:03Z</time></trkpt><trkpt lat="38.02536531972667" lon="15.23670260904817"><ele>646.0</ele><time>2026-04-26T10:20:04Z</time></trkpt><trkpt lat="38.025377894889274" lon="15.23681266273465"><ele>650.8333333333334</ele><time>2026-04-26T10:20:06Z</time></trkpt><trkpt lat="38.02529736448578" lon="15.236832265330916"><ele>655.6666666666667</ele><time>2026-04-26T10:20:07.999Z</time></trkpt><trkpt lat="38.0252445737243" lon="15.236715014315587"><ele>660.5</ele><time>2026-04-26T10:20:09.999Z</time></trkpt><trkpt lat="38.02521222265751" lon="15.236642167693894"><ele>665.3333333333334</ele><time>2026-04-26T10:20:10.999Z</time></trkpt><trkpt lat="38.02515645893779" lon="15.236584186608589"><ele>670.1666666666666</ele><time>2026-04-26T10:20:11.999Z</time></trkpt><trkpt lat="38.025084949749676" lon="15.23653731730999"><ele>675.0</ele><time>2026-04-26T10:20:12.999Z</time></trkpt><trkpt lat="38.02497704854362" lon="15.236551016552049"><ele>675.0</ele><time>2026-04-26T10:20:14.999Z</time></trkpt><trkpt lat="38.0249466599291" lon="15.236642510671038"><ele>675.0</ele><time>2026-04-26T10:20:16.999Z</time></trkpt><trkpt lat="38.02503306975584" lon="15.236684932713889"><ele>675.0</ele><time>2026-04-26T10:20:18.999Z</time></trkpt><trkpt lat="38.02508421133224" lon="15.236743147727745"><ele>675.0</ele><time>2026-04-26T10:20:19.999Z</time></trkpt><trkpt lat="38.025112136414215" lon="15.23682079982709"><ele>675.0</ele><time>2026-04-26T10:20:20.999Z</time></trkpt><trkpt lat="38.02511663865" lon="15.236918698242473"><ele>675.0</ele><time>2026-04-26T10:20:21.999Z</time></trkpt><trkpt lat="38.02511795010611" lon="15.237045969707724"><ele>675.0</ele><time>2026-04-26T10:20:22.999Z</time></trkpt><trkpt lat="38.02515758358255" lon="15.237160731164785"><ele>675.0</ele><time>2026-04-26T10:20:23.999Z</time></trkpt><trkpt lat="38.025212127286764" lon="15.237252893723387"><ele>675.0</ele><time>2026-04-26T10:20:24.999Z</time></trkpt><trkpt lat="38.02528390001917" lon="15.237342464588332"><ele>675.0</ele><time>2026-04-26T10:20:25.999Z</time></trkpt><trkpt lat="38.0253333168357" lon="15.237408293181293"><ele>675.0</ele><time>2026-04-26T10:20:26.999Z</time></trkpt><trkpt lat="38.02537425688752" lon="15.237499090550951"><ele>675.0</ele><time>2026-04-26T10:20:27.999Z</time></trkpt><trkpt lat="38.02542497056356" lon="15.237587628910791"><ele>679.8333333333334</ele><time>2026-04-26T10:20:28.999Z</time></trkpt><trkpt lat="38.02546907142733" lon="15.237694193690752"><ele>684.6666666666666</ele><time>2026-04-26T10:20:29.999Z</time></trkpt><trkpt lat="38.02548020870868" lon="15.237796853585179"><ele>689.5</ele><time>2026-04-26T10:20:30.999Z</time></trkpt><trkpt lat="38.02548871884986" lon="15.23791324734109"><ele>694.3333333333333</ele><time>2026-04-26T10:20:31.999Z</time></trkpt><trkpt lat="38.0254698039181" lon="15.238010475264717"><ele>699.1666666666666</ele><time>2026-04-26T10:20:32.999Z</time></trkpt><trkpt lat="38.02543908381929" lon="15.23811364185033"><ele>704.0</ele><time>2026-04-26T10:20:34.999Z</time></trkpt><trkpt lat="38.02534373375835" lon="15.238170364397819"><ele>705.0</ele><time>2026-04-26T10:20:36.999Z</time></trkpt><trkpt lat="38.02526905603908" lon="15.238206023575845"><ele>706.0</ele><time>2026-04-26T10:20:37.999Z</time></trkpt><trkpt lat="38.025215973006226" lon="15.238254304132502"><ele>707.0</ele><time>2026-04-26T10:20:38.999Z</time></trkpt><trkpt lat="38.02517695654283" lon="15.238330580703586"><ele>708.0</ele><time>2026-04-26T10:20:39.999Z</time></trkpt><trkpt lat="38.02515154814891" lon="15.23844064585391"><ele>709.0</ele><time>2026-04-26T10:20:40.999Z</time></trkpt><trkpt lat="38.02514423033526" lon="15.238532262635651"><ele>710.0</ele><time>2026-04-26T10:20:41.999Z</time></trkpt><trkpt lat="38.02511378017926" lon="15.238631979724843"><ele>710.0</ele><time>2026-04-26T10:20:42.999Z</time></trkpt><trkpt lat="38.02508386028751" lon="15.238706061435668"><ele>710.0</ele><time>2026-04-26T10:20:43.999Z</time></trkpt><trkpt lat="38.02507295339056" lon="15.2388569994828"><ele>710.0</ele><time>2026-04-26T10:20:45.999Z</time></trkpt><trkpt lat="38.025126970455375" lon="15.238899554521943"><ele>710.0</ele><time>2026-04-26T10:20:46.999Z</time></trkpt><trkpt lat="38.025219004622464" lon="15.238865376295394"><ele>710.0</ele><time>2026-04-26T10:20:48.999Z</time></trkpt><trkpt lat="38.02531632652183" lon="15.238802164568765"><ele>710.0</ele><time>2026-04-26T10:20:50.999Z</time></trkpt><trkpt lat="38.02537419825783" lon="15.238893571515804"><ele>710.0</ele><time>2026-04-26T10:20:53.999Z</time></trkpt><trkpt lat="38.02542618647729" lon="15.238947347470722"><ele>710.0</ele><time>2026-04-26T10:20:54.999Z</time></trkpt><trkpt lat="38.02548354069458" lon="15.238981423638492"><ele>710.0</ele><time>2026-04-26T10:20:55.999Z</time></trkpt><trkpt lat="38.02555510946663" lon="15.238989740513697"><ele>710.0</ele><time>2026-04-26T10:20:56.999Z</time></trkpt><trkpt lat="38.02567209144174" lon="15.239042084123012"><ele>710.0</ele><time>2026-04-26T10:20:58.999Z</time></trkpt><trkpt lat="38.02574981524087" lon="15.239095797458338"><ele>705.1666666666666</ele><time>2026-04-26T10:20:59.999Z</time></trkpt><trkpt lat="38.0258176199585" lon="15.239116783061498"><ele>700.3333333333333</ele><time>2026-04-26T10:21:00.999Z</time></trkpt><trkpt lat="38.02589815890459" lon="15.239119885540648"><ele>695.5</ele><time>2026-04-26T10:21:01.999Z</time></trkpt><trkpt lat="38.02598012950642" lon="15.239188914873592"><ele>690.6666666666666</ele><time>2026-04-26T10:21:03.999Z</time></trkpt><trkpt lat="38.026021893488725" lon="15.239250416381287"><ele>685.8333333333334</ele><time>2026-04-26T10:21:04.999Z</time></trkpt><trkpt lat="38.02604926179612" lon="15.239330105888643"><ele>681.0</ele><time>2026-04-26T10:21:05.999Z</time></trkpt><trkpt lat="38.026072694122696" lon="15.239426979626437"><ele>681.0</ele><time>2026-04-26T10:21:07.999Z</time></trkpt><trkpt lat="38.02612833879142" lon="15.239382165881345"><ele>681.0</ele><time>2026-04-26T10:21:09.999Z</time></trkpt><trkpt lat="38.02613698970166" lon="15.239235188033728"><ele>681.0</ele><time>2026-04-26T10:21:11.999Z</time></trkpt><trkpt lat="38.02612284730352" lon="15.239139751537294"><ele>681.0</ele><time>2026-04-26T10:21:12.999Z</time></trkpt><trkpt lat="38.02609040664099" lon="15.239045206273012"><ele>681.0</ele><time>2026-04-26T10:21:14.999Z</time></trkpt><trkpt lat="38.02596383820188" lon="15.238988388253038"><ele>679.5</ele><time>2026-04-26T10:21:16.999Z</time></trkpt><trkpt lat="38.02589387050016" lon="15.238948385952277"><ele>678.0</ele><time>2026-04-26T10:21:17.999Z</time></trkpt><trkpt lat="38.02579249513005" lon="15.238882865795635"><ele>676.5</ele><time>2026-04-26T10:21:19.999Z</time></trkpt><trkpt lat="38.02574427283116" lon="15.238814986635715"><ele>675.0</ele><time>2026-04-26T10:21:21.999Z</time></trkpt><trkpt lat="38.0257811481319" lon="15.238740732783402"><ele>673.5</ele><time>2026-04-26T10:21:23.999Z</time></trkpt><trkpt lat="38.0258822056974" lon="15.238810912619103"><ele>672.0</ele><time>2026-04-26T10:21:25.999Z</time></trkpt><trkpt lat="38.02595036281475" lon="15.238867008942668"><ele>672.0</ele><time>2026-04-26T10:21:26.999Z</time></trkpt><trkpt lat="38.02605148400133" lon="15.238897058043175"><ele>672.0</ele><time>2026-04-26T10:21:27.999Z</time></trkpt><trkpt lat="38.02613023533546" lon="15.238943186002565"><ele>672.0</ele><time>2026-04-26T10:21:28.999Z</time></trkpt><trkpt lat="38.02620816398753" lon="15.23903735702468"><ele>672.0</ele><time>2026-04-26T10:21:30.999Z</time></trkpt><trkpt lat="38.026243748679974" lon="15.239186646970396"><ele>672.0</ele><time>2026-04-26T10:21:32.999Z</time></trkpt><trkpt lat="38.02629347761877" lon="15.239286260215104"><ele>673.5</ele><time>2026-04-26T10:21:33.999Z</time></trkpt><trkpt lat="38.026347346458046" lon="15.239379510339377"><ele>675.0</ele><time>2026-04-26T10:21:34.999Z</time></trkpt><trkpt lat="38.02641213097434" lon="15.239462996618299"><ele>676.5</ele><time>2026-04-26T10:21:35.999Z</time></trkpt><trkpt lat="38.0264701273642" lon="15.239515471440516"><ele>678.0</ele><time>2026-04-26T10:21:36.999Z</time></trkpt><trkpt lat="38.02653114321775" lon="15.239586017684156"><ele>679.5</ele><time>2026-04-26T10:21:38.999Z</time></trkpt><trkpt lat="38.02654084950441" lon="15.239705859315045"><ele>681.0</ele><time>2026-04-26T10:21:41Z</time></trkpt><trkpt lat="38.026554219535164" lon="15.239892072260961"><ele>684.0</ele><time>2026-04-26T10:21:43Z</time></trkpt><trkpt lat="38.026589455705164" lon="15.240006690397058"><ele>687.0</ele><time>2026-04-26T10:21:44Z</time></trkpt><trkpt lat="38.02661458268652" lon="15.240109267176207"><ele>690.0</ele><time>2026-04-26T10:21:45Z</time></trkpt><trkpt lat="38.026609232247964" lon="15.240194522140499"><ele>693.0</ele><time>2026-04-26T10:21:46Z</time></trkpt><trkpt lat="38.026585339039045" lon="15.240319842042023"><ele>696.0</ele><time>2026-04-26T10:21:47Z</time></trkpt><trkpt lat="38.026567333629" lon="15.24046073550894"><ele>696.0</ele><time>2026-04-26T10:21:48Z</time></trkpt><trkpt lat="38.026571156401" lon="15.240580064267439"><ele>696.0</ele><time>2026-04-26T10:21:49Z</time></trkpt><trkpt lat="38.02658090804405" lon="15.240663614025449"><ele>696.0</ele><time>2026-04-26T10:21:50Z</time></trkpt><trkpt lat="38.0265920478621" lon="15.240808634041345"><ele>696.0</ele><time>2026-04-26T10:21:52Z</time></trkpt><trkpt lat="38.02658539906516" lon="15.240895716173943"><ele>696.0</ele><time>2026-04-26T10:21:54Z</time></trkpt><trkpt lat="38.026573449960914" lon="15.240975582905696"><ele>696.0</ele><time>2026-04-26T10:21:57Z</time></trkpt><trkpt lat="38.026610058583955" lon="15.24106935751654"><ele>695.6666666666666</ele><time>2026-04-26T10:22:45.999Z</time></trkpt><trkpt lat="38.02663589243657" lon="15.241145112372086"><ele>695.3333333333334</ele><time>2026-04-26T10:22:48.999Z</time></trkpt><trkpt lat="38.02665775204815" lon="15.241221519575724"><ele>695.0</ele><time>2026-04-26T10:23:30.999Z</time></trkpt><trkpt lat="38.026665695500334" lon="15.24131451695878"><ele>694.6666666666667</ele><time>2026-04-26T10:23:32.999Z</time></trkpt><trkpt lat="38.02664314075718" lon="15.241454720727903"><ele>694.3333333333334</ele><time>2026-04-26T10:23:34.999Z</time></trkpt><trkpt lat="38.02660750183656" lon="15.241582299502726"><ele>694.0</ele><time>2026-04-26T10:23:36.999Z</time></trkpt><trkpt lat="38.02659182729503" lon="15.241726614092054"><ele>692.3333333333334</ele><time>2026-04-26T10:23:38.999Z</time></trkpt><trkpt lat="38.02662737484518" lon="15.241809828569934"><ele>690.6666666666667</ele><time>2026-04-26T10:23:39.999Z</time></trkpt><trkpt lat="38.02666813074898" lon="15.24191531820051"><ele>689.0</ele><time>2026-04-26T10:23:40.999Z</time></trkpt><trkpt lat="38.02670017338559" lon="15.242020463491938"><ele>687.3333333333334</ele><time>2026-04-26T10:23:41.999Z</time></trkpt><trkpt lat="38.02673516232576" lon="15.242104096232664"><ele>685.6666666666666</ele><time>2026-04-26T10:23:42.999Z</time></trkpt><trkpt lat="38.02678365277173" lon="15.242206367796197"><ele>684.0</ele><time>2026-04-26T10:23:43.999Z</time></trkpt><trkpt lat="38.026834201265515" lon="15.24230480694675"><ele>680.3333333333334</ele><time>2026-04-26T10:23:44.999Z</time></trkpt><trkpt lat="38.02686422463556" lon="15.242397608331176"><ele>676.6666666666666</ele><time>2026-04-26T10:23:46Z</time></trkpt><trkpt lat="38.026875919066065" lon="15.242483824465241"><ele>673.0</ele><time>2026-04-26T10:23:47Z</time></trkpt><trkpt lat="38.026874190236974" lon="15.242580293262371"><ele>669.3333333333333</ele><time>2026-04-26T10:23:48Z</time></trkpt><trkpt lat="38.026846507991316" lon="15.242660815385934"><ele>665.6666666666666</ele><time>2026-04-26T10:23:49Z</time></trkpt><trkpt lat="38.02680929225092" lon="15.242764610269264"><ele>662.0</ele><time>2026-04-26T10:23:50Z</time></trkpt><trkpt lat="38.0267673591309" lon="15.242868563481307"><ele>662.0</ele><time>2026-04-26T10:23:51Z</time></trkpt><trkpt lat="38.02672968423066" lon="15.242968626223094"><ele>662.0</ele><time>2026-04-26T10:23:52Z</time></trkpt><trkpt lat="38.02671349913725" lon="15.243052753841907"><ele>662.0</ele><time>2026-04-26T10:23:53Z</time></trkpt><trkpt lat="38.026714052296576" lon="15.243134745388199"><ele>662.0</ele><time>2026-04-26T10:23:54Z</time></trkpt><trkpt lat="38.02672125973643" lon="15.243261375800977"><ele>662.0</ele><time>2026-04-26T10:23:56Z</time></trkpt><trkpt lat="38.026767709424064" lon="15.24332227741088"><ele>662.0</ele><time>2026-04-26T10:23:58Z</time></trkpt><trkpt lat="38.02688247418385" lon="15.243383360957422"><ele>663.8</ele><time>2026-04-26T10:24:00Z</time></trkpt><trkpt lat="38.027004606951316" lon="15.243437922486947"><ele>665.6</ele><time>2026-04-26T10:24:02Z</time></trkpt><trkpt lat="38.027058850909086" lon="15.243484462397122"><ele>667.4</ele><time>2026-04-26T10:24:03Z</time></trkpt><trkpt lat="38.027120087477336" lon="15.24355154042324"><ele>669.1999999999999</ele><time>2026-04-26T10:24:04Z</time></trkpt><trkpt lat="38.02718062413538" lon="15.243633413357447"><ele>671.0</ele><time>2026-04-26T10:24:05Z</time></trkpt><trkpt lat="38.0272492601633" lon="15.243708370231031"><ele>671.0</ele><time>2026-04-26T10:24:06Z</time></trkpt><trkpt lat="38.02731067110186" lon="15.243768416023217"><ele>671.0</ele><time>2026-04-26T10:24:07Z</time></trkpt><trkpt lat="38.02736966891391" lon="15.243836286246985"><ele>671.0</ele><time>2026-04-26T10:24:08Z</time></trkpt><trkpt lat="38.02741062815291" lon="15.243901114488851"><ele>671.0</ele><time>2026-04-26T10:24:09Z</time></trkpt><trkpt lat="38.027406249235696" lon="15.24405132467735"><ele>671.0</ele><time>2026-04-26T10:24:11Z</time></trkpt><trkpt lat="38.027446189014" lon="15.244197181665525"><ele>670.4</ele><time>2026-04-26T10:24:13Z</time></trkpt><trkpt lat="38.02752568430822" lon="15.244275068783413"><ele>669.8</ele><time>2026-04-26T10:24:15Z</time></trkpt><trkpt lat="38.02762769583374" lon="15.244260892807414"><ele>669.1999999999999</ele><time>2026-04-26T10:24:18Z</time></trkpt><trkpt lat="38.027671575817834" lon="15.244125615168329"><ele>668.5999999999999</ele><time>2026-04-26T10:24:20Z</time></trkpt><trkpt lat="38.02769657864352" lon="15.24401039804833"><ele>668.0</ele><time>2026-04-26T10:24:21Z</time></trkpt><trkpt lat="38.027714074840176" lon="15.243929129621762"><ele>668.0</ele><time>2026-04-26T10:24:22Z</time></trkpt><trkpt lat="38.027719369343586" lon="15.24384364596575"><ele>668.0</ele><time>2026-04-26T10:24:23Z</time></trkpt><trkpt lat="38.0277452248451" lon="15.243763127366645"><ele>668.0</ele><time>2026-04-26T10:24:24Z</time></trkpt><trkpt lat="38.02780692760591" lon="15.243721817300933"><ele>668.0</ele><time>2026-04-26T10:24:25Z</time></trkpt><trkpt lat="38.02788132339716" lon="15.243690455651283"><ele>668.0</ele><time>2026-04-26T10:24:26Z</time></trkpt><trkpt lat="38.0279630968275" lon="15.24360196683629"><ele>668.0</ele><time>2026-04-26T10:24:28Z</time></trkpt><trkpt lat="38.02796476285587" lon="15.243517233772875"><ele>668.0</ele><time>2026-04-26T10:24:29Z</time></trkpt><trkpt lat="38.02789735334156" lon="15.24335737644002"><ele>668.0</ele><time>2026-04-26T10:24:31Z</time></trkpt><trkpt lat="38.02787125676356" lon="15.24321981020429"><ele>668.0</ele><time>2026-04-26T10:24:32Z</time></trkpt><trkpt lat="38.02784736464556" lon="15.243075036358288"><ele>668.0</ele><time>2026-04-26T10:24:33Z</time></trkpt><trkpt lat="38.027798802293724" lon="15.242955506734592"><ele>666.5999999999999</ele><time>2026-04-26T10:24:34Z</time></trkpt><trkpt lat="38.02770661964045" lon="15.242814171180418"><ele>665.1999999999999</ele><time>2026-04-26T10:24:35Z</time></trkpt><trkpt lat="38.02767325470221" lon="15.242744286686282"><ele>663.8</ele><time>2026-04-26T10:24:36Z</time></trkpt><trkpt lat="38.027661903246006" lon="15.242659291443486"><ele>662.4</ele><time>2026-04-26T10:24:37Z</time></trkpt><trkpt lat="38.02766350422202" lon="15.242532015425963"><ele>661.0</ele><time>2026-04-26T10:24:38Z</time></trkpt><trkpt lat="38.0276820569344" lon="15.242400353160594"><ele>661.0</ele><time>2026-04-26T10:24:39Z</time></trkpt><trkpt lat="38.02771510055827" lon="15.242298298981755"><ele>661.0</ele><time>2026-04-26T10:24:40Z</time></trkpt><trkpt lat="38.02777000268657" lon="15.242233552388788"><ele>661.0</ele><time>2026-04-26T10:24:41Z</time></trkpt><trkpt lat="38.02782977669217" lon="15.24220677050292"><ele>661.0</ele><time>2026-04-26T10:24:41.999Z</time></trkpt><trkpt lat="38.027910457571245" lon="15.242189729405967"><ele>661.0</ele><time>2026-04-26T10:24:42.999Z</time></trkpt><trkpt lat="38.02800551249649" lon="15.242174275318598"><ele>661.0</ele><time>2026-04-26T10:24:43.999Z</time></trkpt><trkpt lat="38.02811329407549" lon="15.242161789145966"><ele>659.1999999999999</ele><time>2026-04-26T10:24:44.999Z</time></trkpt><trkpt lat="38.02821375307382" lon="15.242166692518659"><ele>657.4</ele><time>2026-04-26T10:24:45.999Z</time></trkpt><trkpt lat="38.02832756075211" lon="15.242206586297755"><ele>655.6</ele><time>2026-04-26T10:24:47.999Z</time></trkpt><trkpt lat="38.02840355446389" lon="15.242259052380337"><ele>653.8</ele><time>2026-04-26T10:24:49.999Z</time></trkpt><trkpt lat="38.028452144320674" lon="15.242174013985801"><ele>652.0</ele><time>2026-04-26T10:24:51.999Z</time></trkpt><trkpt lat="38.02842211382915" lon="15.242036114562426"><ele>655.4000000000001</ele><time>2026-04-26T10:24:53.999Z</time></trkpt><trkpt lat="38.028432410145236" lon="15.241935622851864"><ele>658.8000000000001</ele><time>2026-04-26T10:24:54.999Z</time></trkpt><trkpt lat="38.02843239240233" lon="15.24181172985246"><ele>662.2</ele><time>2026-04-26T10:24:55.999Z</time></trkpt><trkpt lat="38.02843839269456" lon="15.2416587515545"><ele>665.6</ele><time>2026-04-26T10:24:56.999Z</time></trkpt><trkpt lat="38.02842915524001" lon="15.241538464511917"><ele>669.0</ele><time>2026-04-26T10:24:57.999Z</time></trkpt><trkpt lat="38.028433520607756" lon="15.241434929922326"><ele>669.0</ele><time>2026-04-26T10:24:58.999Z</time></trkpt><trkpt lat="38.02848049957531" lon="15.24135602426793"><ele>669.0</ele><time>2026-04-26T10:24:59.999Z</time></trkpt><trkpt lat="38.028555028266716" lon="15.241273330110497"><ele>669.0</ele><time>2026-04-26T10:25:00.999Z</time></trkpt><trkpt lat="38.028646636284286" lon="15.241199277327624"><ele>669.0</ele><time>2026-04-26T10:25:01.999Z</time></trkpt><trkpt lat="38.02870461997646" lon="15.241128714295508"><ele>669.0</ele><time>2026-04-26T10:25:02.999Z</time></trkpt><trkpt lat="38.028670749932544" lon="15.240974757269937"><ele>669.0</ele><time>2026-04-26T10:25:04.999Z</time></trkpt><trkpt lat="38.02864558404923" lon="15.240882321118292"><ele>669.0</ele><time>2026-04-26T10:25:05.999Z</time></trkpt><trkpt lat="38.02865224954272" lon="15.240772616492578"><ele>669.0</ele><time>2026-04-26T10:25:06.999Z</time></trkpt><trkpt lat="38.02870529551352" lon="15.240659949318257"><ele>669.0</ele><time>2026-04-26T10:25:07.999Z</time></trkpt><trkpt lat="38.02876084234123" lon="15.240549834483613"><ele>669.0</ele><time>2026-04-26T10:25:08.999Z</time></trkpt><trkpt lat="38.02879235183021" lon="15.240457723491536"><ele>669.0</ele><time>2026-04-26T10:25:09.999Z</time></trkpt><trkpt lat="38.028838678477264" lon="15.240294189152188"><ele>667.8333333333334</ele><time>2026-04-26T10:25:11.999Z</time></trkpt><trkpt lat="38.02888528978982" lon="15.240217700300771"><ele>666.6666666666666</ele><time>2026-04-26T10:25:12.999Z</time></trkpt><trkpt lat="38.02894728150447" lon="15.240179744607975"><ele>665.5</ele><time>2026-04-26T10:25:13.999Z</time></trkpt><trkpt lat="38.02901311678487" lon="15.240187251079556"><ele>664.3333333333333</ele><time>2026-04-26T10:25:14.999Z</time></trkpt><trkpt lat="38.02911126251352" lon="15.240230247648658"><ele>663.1666666666666</ele><time>2026-04-26T10:25:15.999Z</time></trkpt><trkpt lat="38.02918692060226" lon="15.240278932261246"><ele>662.0</ele><time>2026-04-26T10:25:16.999Z</time></trkpt><trkpt lat="38.02930285284615" lon="15.240198675093554"><ele>660.8</ele><time>2026-04-26T10:25:18.999Z</time></trkpt><trkpt lat="38.02935604727765" lon="15.240103423023916"><ele>659.6</ele><time>2026-04-26T10:25:19.999Z</time></trkpt><trkpt lat="38.02942884465324" lon="15.239985623668588"><ele>658.4</ele><time>2026-04-26T10:25:20.999Z</time></trkpt><trkpt lat="38.02948438875508" lon="15.239866105890052"><ele>657.1999999999999</ele><time>2026-04-26T10:25:21.999Z</time></trkpt><trkpt lat="38.029520219724525" lon="15.239744713298526"><ele>656.0</ele><time>2026-04-26T10:25:22.999Z</time></trkpt><trkpt lat="38.02955671576543" lon="15.239612692927766"><ele>656.0</ele><time>2026-04-26T10:25:23.999Z</time></trkpt><trkpt lat="38.029654810162086" lon="15.23948935132641"><ele>656.0</ele><time>2026-04-26T10:25:25.999Z</time></trkpt><trkpt lat="38.02973249093567" lon="15.239423151381159"><ele>656.0</ele><time>2026-04-26T10:25:26.999Z</time></trkpt><trkpt lat="38.02980936731218" lon="15.239339400719109"><ele>656.0</ele><time>2026-04-26T10:25:27.999Z</time></trkpt><trkpt lat="38.029877699278295" lon="15.239230599805728"><ele>656.0</ele><time>2026-04-26T10:25:28.999Z</time></trkpt><trkpt lat="38.029927128340994" lon="15.239113143901843"><ele>656.0</ele><time>2026-04-26T10:25:29.999Z</time></trkpt><trkpt lat="38.02996844569025" lon="15.23901176083484"><ele>656.0</ele><time>2026-04-26T10:25:30.999Z</time></trkpt><trkpt lat="38.0300067790557" lon="15.238926700994675"><ele>656.0</ele><time>2026-04-26T10:25:31.999Z</time></trkpt><trkpt lat="38.03003806628794" lon="15.238831085258898"><ele>656.0</ele><time>2026-04-26T10:25:32.999Z</time></trkpt><trkpt lat="38.03003876624811" lon="15.238746660981267"><ele>656.0</ele><time>2026-04-26T10:25:33.999Z</time></trkpt><trkpt lat="38.03011041998094" lon="15.238644613837224"><ele>656.0</ele><time>2026-04-26T10:25:35.999Z</time></trkpt><trkpt lat="38.03018334484171" lon="15.2386380045703"><ele>656.5999999999999</ele><time>2026-04-26T10:25:36.999Z</time></trkpt><trkpt lat="38.030257592758794" lon="15.238630383900315"><ele>657.2</ele><time>2026-04-26T10:25:37.999Z</time></trkpt><trkpt lat="38.03032507980361" lon="15.238580150758724"><ele>657.8</ele><time>2026-04-26T10:25:38.999Z</time></trkpt><trkpt lat="38.030391154600224" lon="15.238475326289267"><ele>658.4000000000001</ele><time>2026-04-26T10:25:39.999Z</time></trkpt><trkpt lat="38.03042037554607" lon="15.23839405289788"><ele>659.0</ele><time>2026-04-26T10:25:40.999Z</time></trkpt><trkpt lat="38.03041218613718" lon="15.238229730781311"><ele>653.8333333333333</ele><time>2026-04-26T10:25:42.999Z</time></trkpt><trkpt lat="38.03040066675036" lon="15.23813277574934"><ele>648.6666666666666</ele><time>2026-04-26T10:25:43.999Z</time></trkpt><trkpt lat="38.030438113354634" lon="15.238001290569569"><ele>643.5</ele><time>2026-04-26T10:25:45.999Z</time></trkpt><trkpt lat="38.030492136615315" lon="15.237932521572983"><ele>638.3333333333334</ele><time>2026-04-26T10:25:46.999Z</time></trkpt><trkpt lat="38.030561619958966" lon="15.237880047403436"><ele>633.1666666666667</ele><time>2026-04-26T10:25:47.999Z</time></trkpt><trkpt lat="38.03064500161832" lon="15.237833094917145"><ele>628.0</ele><time>2026-04-26T10:25:48.999Z</time></trkpt><trkpt lat="38.030707532555795" lon="15.23780196437223"><ele>628.0</ele><time>2026-04-26T10:25:49.999Z</time></trkpt><trkpt lat="38.030763439117486" lon="15.23774005098602"><ele>628.0</ele><time>2026-04-26T10:25:50.999Z</time></trkpt><trkpt lat="38.03080771396612" lon="15.23766655444665"><ele>628.0</ele><time>2026-04-26T10:25:52Z</time></trkpt><trkpt lat="38.030834692008646" lon="15.23758831201315"><ele>628.0</ele><time>2026-04-26T10:25:53Z</time></trkpt><trkpt lat="38.0309312352247" lon="15.237563471818119"><ele>628.0</ele><time>2026-04-26T10:25:55Z</time></trkpt><trkpt lat="38.03101472702663" lon="15.23762706056428"><ele>628.0</ele><time>2026-04-26T10:25:56Z</time></trkpt><trkpt lat="38.03111167196567" lon="15.237703352179121"><ele>633.8</ele><time>2026-04-26T10:25:57Z</time></trkpt><trkpt lat="38.03119652452838" lon="15.237722019731306"><ele>639.5999999999999</ele><time>2026-04-26T10:25:58Z</time></trkpt><trkpt lat="38.03125700537784" lon="15.237683425315964"><ele>645.4000000000001</ele><time>2026-04-26T10:25:59Z</time></trkpt><trkpt lat="38.03132684932426" lon="15.23760605103261"><ele>651.2</ele><time>2026-04-26T10:26:01Z</time></trkpt><trkpt lat="38.03131215741015" lon="15.23748001523134"><ele>657.0</ele><time>2026-04-26T10:26:03Z</time></trkpt><trkpt lat="38.03119129942431" lon="15.237416652699052"><ele>657.0</ele><time>2026-04-26T10:26:05Z</time></trkpt><trkpt lat="38.0311277807023" lon="15.237382250381907"><ele>657.0</ele><time>2026-04-26T10:26:06Z</time></trkpt><trkpt lat="38.031101508305994" lon="15.237240243200484"><ele>657.0</ele><time>2026-04-26T10:26:08Z</time></trkpt><trkpt lat="38.03109492191229" lon="15.237129701535638"><ele>657.0</ele><time>2026-04-26T10:26:09Z</time></trkpt><trkpt lat="38.03106697846902" lon="15.237055720895679"><ele>657.0</ele><time>2026-04-26T10:26:10Z</time></trkpt><trkpt lat="38.0310135030403" lon="15.23698432640059"><ele>657.0</ele><time>2026-04-26T10:26:11Z</time></trkpt><trkpt lat="38.03095128409504" lon="15.236908549527017"><ele>653.0</ele><time>2026-04-26T10:26:12Z</time></trkpt><trkpt lat="38.030907914740204" lon="15.236821126734357"><ele>649.0</ele><time>2026-04-26T10:26:13Z</time></trkpt><trkpt lat="38.03088372834304" lon="15.236689938490034"><ele>645.0</ele><time>2026-04-26T10:26:14Z</time></trkpt><trkpt lat="38.0308544641918" lon="15.236569789283017"><ele>641.0</ele><time>2026-04-26T10:26:15Z</time></trkpt><trkpt lat="38.03080283670916" lon="15.236466687183496"><ele>637.0</ele><time>2026-04-26T10:26:16Z</time></trkpt><trkpt lat="38.03075332364341" lon="15.236394773540436"><ele>633.8000000000001</ele><time>2026-04-26T10:26:17Z</time></trkpt><trkpt lat="38.030698754967986" lon="15.236338442061948"><ele>630.6</ele><time>2026-04-26T10:26:18Z</time></trkpt><trkpt lat="38.030708339979626" lon="15.236238121581815"><ele>627.4000000000001</ele><time>2026-04-26T10:26:20Z</time></trkpt><trkpt lat="38.03084017655455" lon="15.236249833928717"><ele>624.2</ele><time>2026-04-26T10:26:22Z</time></trkpt><trkpt lat="38.03092586393267" lon="15.236293848583443"><ele>621.0</ele><time>2026-04-26T10:26:23Z</time></trkpt><trkpt lat="38.03102198674166" lon="15.236347974107561"><ele>621.0</ele><time>2026-04-26T10:26:24Z</time></trkpt><trkpt lat="38.03112235532849" lon="15.23638561243179"><ele>621.0</ele><time>2026-04-26T10:26:25Z</time></trkpt><trkpt lat="38.03122442344781" lon="15.236425810985484"><ele>621.0</ele><time>2026-04-26T10:26:26Z</time></trkpt><trkpt lat="38.03128737963937" lon="15.236461797377858"><ele>621.0</ele><time>2026-04-26T10:26:27Z</time></trkpt><trkpt lat="38.031320469070735" lon="15.236640001398872"><ele>621.0</ele><time>2026-04-26T10:26:29Z</time></trkpt><trkpt lat="38.031335024968236" lon="15.236723645735934"><ele>620.8333333333334</ele><time>2026-04-26T10:26:30Z</time></trkpt><trkpt lat="38.03140066149964" lon="15.236762540601768"><ele>620.6666666666666</ele><time>2026-04-26T10:26:31Z</time></trkpt><trkpt lat="38.03150365726547" lon="15.23677329708486"><ele>620.5</ele><time>2026-04-26T10:26:32Z</time></trkpt><trkpt lat="38.03159854467866" lon="15.236734572116225"><ele>620.3333333333333</ele><time>2026-04-26T10:26:33Z</time></trkpt><trkpt lat="38.03168317387676" lon="15.236750847939707"><ele>620.1666666666666</ele><time>2026-04-26T10:26:34Z</time></trkpt><trkpt lat="38.031749999508044" lon="15.236772430738325"><ele>620.0</ele><time>2026-04-26T10:26:35Z</time></trkpt><trkpt lat="38.031835027955914" lon="15.23680136231891"><ele>620.0</ele><time>2026-04-26T10:26:37Z</time></trkpt><trkpt lat="38.03185379105577" lon="15.236680838608251"><ele>620.0</ele><time>2026-04-26T10:26:40Z</time></trkpt><trkpt lat="38.031829097505366" lon="15.236596828516067"><ele>620.0</ele><time>2026-04-26T10:26:41Z</time></trkpt><trkpt lat="38.03176905279484" lon="15.236528548291476"><ele>620.0</ele><time>2026-04-26T10:26:42Z</time></trkpt><trkpt lat="38.03168935299811" lon="15.236478012976715"><ele>620.0</ele><time>2026-04-26T10:26:43Z</time></trkpt><trkpt lat="38.031612515042134" lon="15.236445657014402"><ele>620.0</ele><time>2026-04-26T10:26:44Z</time></trkpt><trkpt lat="38.03152319506443" lon="15.236408227204976"><ele>620.2</ele><time>2026-04-26T10:26:46Z</time></trkpt><trkpt lat="38.031529310888146" lon="15.23626442183565"><ele>620.4</ele><time>2026-04-26T10:26:48Z</time></trkpt><trkpt lat="38.03153814953025" lon="15.236174598649507"><ele>620.6</ele><time>2026-04-26T10:26:49Z</time></trkpt><trkpt lat="38.031524091341616" lon="15.236087442694375"><ele>620.8</ele><time>2026-04-26T10:26:50Z</time></trkpt><trkpt lat="38.03146596028028" lon="15.236006953220745"><ele>621.0</ele><time>2026-04-26T10:26:52Z</time></trkpt><trkpt lat="38.031356543209114" lon="15.235990998161862"><ele>620.9999999999999</ele><time>2026-04-26T10:26:53.999Z</time></trkpt><trkpt lat="38.031296538380076" lon="15.23594011924467"><ele>621.0</ele><time>2026-04-26T10:26:54.999Z</time></trkpt><trkpt lat="38.03125769879798" lon="15.235857139815833"><ele>621.0</ele><time>2026-04-26T10:26:55.999Z</time></trkpt><trkpt lat="38.03122443624342" lon="15.23578012431913"><ele>621.0</ele><time>2026-04-26T10:26:56.999Z</time></trkpt><trkpt lat="38.031182455194426" lon="15.235692200357837"><ele>621.0</ele><time>2026-04-26T10:26:57.999Z</time></trkpt><trkpt lat="38.031127398867845" lon="15.235641413353887"><ele>620.9999999999999</ele><time>2026-04-26T10:26:58.999Z</time></trkpt><trkpt lat="38.03107041160075" lon="15.235594460422021"><ele>621.0</ele><time>2026-04-26T10:26:59.999Z</time></trkpt><trkpt lat="38.03107231470213" lon="15.23546769119874"><ele>617.5</ele><time>2026-04-26T10:27:01.999Z</time></trkpt><trkpt lat="38.03110270200231" lon="15.235368352204711"><ele>614.0</ele><time>2026-04-26T10:27:02.999Z</time></trkpt><trkpt lat="38.03111277994709" lon="15.235260158609387"><ele>610.5</ele><time>2026-04-26T10:27:03.999Z</time></trkpt><trkpt lat="38.031095817173195" lon="15.235173466902747"><ele>607.0</ele><time>2026-04-26T10:27:04.999Z</time></trkpt><trkpt lat="38.03109208398731" lon="15.235073440573338"><ele>603.5</ele><time>2026-04-26T10:27:05.999Z</time></trkpt><trkpt lat="38.031083589730436" lon="15.234961801409895"><ele>600.0</ele><time>2026-04-26T10:27:06.999Z</time></trkpt><trkpt lat="38.03107996058423" lon="15.234871350876377"><ele>594.8</ele><time>2026-04-26T10:27:07.999Z</time></trkpt><trkpt lat="38.03100734998895" lon="15.234773107565283"><ele>589.6</ele><time>2026-04-26T10:27:09.999Z</time></trkpt><trkpt lat="38.03093418591597" lon="15.234739039341044"><ele>584.4</ele><time>2026-04-26T10:27:10.999Z</time></trkpt><trkpt lat="38.030871652534074" lon="15.234684931830305"><ele>579.2</ele><time>2026-04-26T10:27:12.999Z</time></trkpt><trkpt lat="38.03093254784881" lon="15.234620950429822"><ele>574.0</ele><time>2026-04-26T10:27:14.999Z</time></trkpt><trkpt lat="38.03106631818585" lon="15.23463694608821"><ele>574.0</ele><time>2026-04-26T10:27:16.999Z</time></trkpt><trkpt lat="38.03113695409835" lon="15.23467376311548"><ele>574.0</ele><time>2026-04-26T10:27:17.999Z</time></trkpt><trkpt lat="38.03119136797236" lon="15.234720916783424"><ele>574.0</ele><time>2026-04-26T10:27:18.999Z</time></trkpt><trkpt lat="38.031237446471" lon="15.234790176704834"><ele>574.0</ele><time>2026-04-26T10:27:19.999Z</time></trkpt><trkpt lat="38.031272145012544" lon="15.234885464002376"><ele>574.0</ele><time>2026-04-26T10:27:20.999Z</time></trkpt><trkpt lat="38.03130852064434" lon="15.235032939454218"><ele>574.0</ele><time>2026-04-26T10:27:22.999Z</time></trkpt><trkpt lat="38.03134567215768" lon="15.235158155370858"><ele>571.8333333333334</ele><time>2026-04-26T10:27:24.999Z</time></trkpt><trkpt lat="38.03141747303927" lon="15.235263586318396"><ele>569.6666666666667</ele><time>2026-04-26T10:27:26.999Z</time></trkpt><trkpt lat="38.031479653902686" lon="15.235285367982726"><ele>567.5</ele><time>2026-04-26T10:27:27.999Z</time></trkpt><trkpt lat="38.031555865831734" lon="15.235298882668298"><ele>565.3333333333334</ele><time>2026-04-26T10:27:28.999Z</time></trkpt><trkpt lat="38.031637454613474" lon="15.235336812482018"><ele>563.1666666666666</ele><time>2026-04-26T10:27:29.999Z</time></trkpt><trkpt lat="38.031716819648665" lon="15.235392351474168"><ele>561.0</ele><time>2026-04-26T10:27:30.999Z</time></trkpt><trkpt lat="38.031782820514664" lon="15.235438152452003"><ele>561.0</ele><time>2026-04-26T10:27:31.999Z</time></trkpt><trkpt lat="38.03185181072996" lon="15.235483326187193"><ele>561.0</ele><time>2026-04-26T10:27:32.999Z</time></trkpt><trkpt lat="38.03195096988873" lon="15.235526653318516"><ele>561.0</ele><time>2026-04-26T10:27:34.999Z</time></trkpt><trkpt lat="38.03201102757552" lon="15.235436311463346"><ele>561.0</ele><time>2026-04-26T10:27:37.999Z</time></trkpt><trkpt lat="38.031931399248506" lon="15.23528214223594"><ele>561.0</ele><time>2026-04-26T10:27:39.999Z</time></trkpt><trkpt lat="38.031875986898115" lon="15.235219340283564"><ele>561.0</ele><time>2026-04-26T10:27:40.999Z</time></trkpt><trkpt lat="38.03183589732023" lon="15.235137409660508"><ele>561.0</ele><time>2026-04-26T10:27:41.999Z</time></trkpt><trkpt lat="38.03178966829886" lon="15.235043229115135"><ele>561.0</ele><time>2026-04-26T10:27:42.999Z</time></trkpt><trkpt lat="38.0317529106111" lon="15.234956382290477"><ele>561.0</ele><time>2026-04-26T10:27:43.999Z</time></trkpt><trkpt lat="38.03172819122341" lon="15.234877352582581"><ele>561.0</ele><time>2026-04-26T10:27:44.999Z</time></trkpt><trkpt lat="38.03170670478629" lon="15.234718177150928"><ele>561.0</ele><time>2026-04-26T10:27:46.999Z</time></trkpt><trkpt lat="38.03169823593" lon="15.23463517355655"><ele>563.6</ele><time>2026-04-26T10:27:47.999Z</time></trkpt><trkpt lat="38.03167178562987" lon="15.23456205910499"><ele>566.2</ele><time>2026-04-26T10:27:48.999Z</time></trkpt><trkpt lat="38.03159684121536" lon="15.234433580115926"><ele>568.8</ele><time>2026-04-26T10:27:50.999Z</time></trkpt><trkpt lat="38.03154092147945" lon="15.234295622120253"><ele>571.4</ele><time>2026-04-26T10:27:52.999Z</time></trkpt><trkpt lat="38.031554430697526" lon="15.23418091444001"><ele>574.0</ele><time>2026-04-26T10:27:54.999Z</time></trkpt><trkpt lat="38.03163518528906" lon="15.234132102690804"><ele>567.6</ele><time>2026-04-26T10:27:56.999Z</time></trkpt><trkpt lat="38.0317297049443" lon="15.234204943189033"><ele>561.2</ele><time>2026-04-26T10:27:59Z</time></trkpt><trkpt lat="38.03176707204097" lon="15.234273352048529"><ele>554.8000000000001</ele><time>2026-04-26T10:28:00Z</time></trkpt><trkpt lat="38.03183399059359" lon="15.234325543450558"><ele>548.4</ele><time>2026-04-26T10:28:02Z</time></trkpt><trkpt lat="38.03193671877891" lon="15.234276332316217"><ele>542.0</ele><time>2026-04-26T10:28:04Z</time></trkpt><trkpt lat="38.032008295260084" lon="15.23419604856839"><ele>542.0</ele><time>2026-04-26T10:28:05Z</time></trkpt><trkpt lat="38.03209331682418" lon="15.234110996526145"><ele>542.0</ele><time>2026-04-26T10:28:06Z</time></trkpt><trkpt lat="38.03219328990346" lon="15.234049833006262"><ele>542.0</ele><time>2026-04-26T10:28:07Z</time></trkpt><trkpt lat="38.032302911568046" lon="15.233998650607735"><ele>542.0</ele><time>2026-04-26T10:28:08Z</time></trkpt><trkpt lat="38.03238738232425" lon="15.233920055784052"><ele>542.0</ele><time>2026-04-26T10:28:09Z</time></trkpt><trkpt lat="38.0324530549633" lon="15.233809739852015"><ele>540.8333333333333</ele><time>2026-04-26T10:28:10Z</time></trkpt><trkpt lat="38.032506980011505" lon="15.233722071484408"><ele>539.6666666666666</ele><time>2026-04-26T10:28:11Z</time></trkpt><trkpt lat="38.03256141420941" lon="15.233678226091122"><ele>538.5</ele><time>2026-04-26T10:28:12Z</time></trkpt><trkpt lat="38.03265313083162" lon="15.233591487904029"><ele>537.3333333333334</ele><time>2026-04-26T10:28:13Z</time></trkpt><trkpt lat="38.03270374774298" lon="15.23349706440896"><ele>536.1666666666667</ele><time>2026-04-26T10:28:14Z</time></trkpt><trkpt lat="38.03272847995828" lon="15.233398499477362"><ele>535.0</ele><time>2026-04-26T10:28:15Z</time></trkpt><trkpt lat="38.03274633944188" lon="15.233274293835183"><ele>535.0</ele><time>2026-04-26T10:28:16Z</time></trkpt><trkpt lat="38.03276708505099" lon="15.233139882803986"><ele>535.0</ele><time>2026-04-26T10:28:17Z</time></trkpt><trkpt lat="38.03276794247145" lon="15.233033199057953"><ele>535.0</ele><time>2026-04-26T10:28:18Z</time></trkpt><trkpt lat="38.03275503911388" lon="15.232951186518157"><ele>535.0</ele><time>2026-04-26T10:28:19Z</time></trkpt><trkpt lat="38.03274542511963" lon="15.232858661292186"><ele>535.0</ele><time>2026-04-26T10:28:20Z</time></trkpt><trkpt lat="38.032738074739406" lon="15.232777272818593"><ele>535.0</ele><time>2026-04-26T10:28:21Z</time></trkpt><trkpt lat="38.032709800709824" lon="15.232678333307222"><ele>535.0</ele><time>2026-04-26T10:28:22Z</time></trkpt><trkpt lat="38.032667447609235" lon="15.232563888367068"><ele>535.0</ele><time>2026-04-26T10:28:23Z</time></trkpt><trkpt lat="38.03266374456927" lon="15.232458254689233"><ele>535.0</ele><time>2026-04-26T10:28:24Z</time></trkpt><trkpt lat="38.03268621592681" lon="15.23234065367899"><ele>535.0</ele><time>2026-04-26T10:28:25Z</time></trkpt><trkpt lat="38.03272392288996" lon="15.232204106878708"><ele>535.0</ele><time>2026-04-26T10:28:26Z</time></trkpt><trkpt lat="38.032736088830504" lon="15.23207210895062"><ele>533.5</ele><time>2026-04-26T10:28:27Z</time></trkpt><trkpt lat="38.032724936527245" lon="15.23195193222999"><ele>532.0</ele><time>2026-04-26T10:28:28Z</time></trkpt><trkpt lat="38.03272464577984" lon="15.231839002928979"><ele>530.5</ele><time>2026-04-26T10:28:29Z</time></trkpt><trkpt lat="38.03265297896584" lon="15.231753609518854"><ele>529.0</ele><time>2026-04-26T10:28:30Z</time></trkpt><trkpt lat="38.0326179089865" lon="15.231678509974264"><ele>527.5</ele><time>2026-04-26T10:28:31Z</time></trkpt><trkpt lat="38.03261960618894" lon="15.23159485644256"><ele>526.0</ele><time>2026-04-26T10:28:32Z</time></trkpt><trkpt lat="38.032662800856166" lon="15.231511004705073"><ele>523.25</ele><time>2026-04-26T10:28:33Z</time></trkpt><trkpt lat="38.03273847946092" lon="15.231420307688728"><ele>520.5</ele><time>2026-04-26T10:28:34Z</time></trkpt><trkpt lat="38.03283402739435" lon="15.231349505994194"><ele>517.75</ele><time>2026-04-26T10:28:35Z</time></trkpt><trkpt lat="38.03294427762868" lon="15.231273971243473"><ele>515.0</ele><time>2026-04-26T10:28:36Z</time></trkpt><trkpt lat="38.03305064862496" lon="15.231211053982154"><ele>515.0</ele><time>2026-04-26T10:28:37Z</time></trkpt><trkpt lat="38.03313773722129" lon="15.23116039600369"><ele>515.0</ele><time>2026-04-26T10:28:38Z</time></trkpt><trkpt lat="38.0332306804073" lon="15.231148991450242"><ele>515.0</ele><time>2026-04-26T10:28:39Z</time></trkpt><trkpt lat="38.03332428417623" lon="15.231192200856576"><ele>515.0</ele><time>2026-04-26T10:28:40Z</time></trkpt><trkpt lat="38.03341389074803" lon="15.231160495067087"><ele>515.0</ele><time>2026-04-26T10:28:41Z</time></trkpt><trkpt lat="38.03350962381019" lon="15.231160569900087"><ele>515.4</ele><time>2026-04-26T10:28:42Z</time></trkpt><trkpt lat="38.033600492057" lon="15.231182695946355"><ele>515.8</ele><time>2026-04-26T10:28:43Z</time></trkpt><trkpt lat="38.03370494429225" lon="15.23119776637857"><ele>516.2</ele><time>2026-04-26T10:28:44Z</time></trkpt><trkpt lat="38.03382907821604" lon="15.231213334140472"><ele>516.6</ele><time>2026-04-26T10:28:45Z</time></trkpt><trkpt lat="38.03394188504571" lon="15.231179674918904"><ele>517.0</ele><time>2026-04-26T10:28:46Z</time></trkpt><trkpt lat="38.034030959959495" lon="15.231170407295355"><ele>517.0</ele><time>2026-04-26T10:28:47Z</time></trkpt><trkpt lat="38.03411939092748" lon="15.231202664710056"><ele>517.0</ele><time>2026-04-26T10:28:48Z</time></trkpt><trkpt lat="38.0341939890316" lon="15.231214531801294"><ele>517.0</ele><time>2026-04-26T10:28:49Z</time></trkpt><trkpt lat="38.03425584438507" lon="15.231266504432297"><ele>517.0</ele><time>2026-04-26T10:28:50Z</time></trkpt><trkpt lat="38.034286367791466" lon="15.231341351058576"><ele>517.0</ele><time>2026-04-26T10:28:51Z</time></trkpt><trkpt lat="38.03425696346062" lon="15.231441274431221"><ele>517.0</ele><time>2026-04-26T10:28:52Z</time></trkpt><trkpt lat="38.03428735771446" lon="15.231579534705842"><ele>523.5</ele><time>2026-04-26T10:28:53Z</time></trkpt><trkpt lat="38.034325556062015" lon="15.231673683531495"><ele>530.0</ele><time>2026-04-26T10:28:54Z</time></trkpt><trkpt lat="38.034433694118704" lon="15.231770020999855"><ele>536.5</ele><time>2026-04-26T10:28:55Z</time></trkpt><trkpt lat="38.0345344580221" lon="15.23187377087376"><ele>543.0</ele><time>2026-04-26T10:28:56Z</time></trkpt><trkpt lat="38.034622273368804" lon="15.231956572985242"><ele>543.0</ele><time>2026-04-26T10:28:57Z</time></trkpt><trkpt lat="38.034721510908206" lon="15.232013340566052"><ele>543.0</ele><time>2026-04-26T10:28:58Z</time></trkpt><trkpt lat="38.034797420696805" lon="15.232070013935983"><ele>543.0</ele><time>2026-04-26T10:28:59Z</time></trkpt><trkpt lat="38.034860856005366" lon="15.232128473017104"><ele>543.0</ele><time>2026-04-26T10:29:00Z</time></trkpt><trkpt lat="38.034914864403625" lon="15.232189246089224"><ele>543.0</ele><time>2026-04-26T10:29:01Z</time></trkpt><trkpt lat="38.03496702231825" lon="15.232258537865947"><ele>543.0</ele><time>2026-04-26T10:29:02Z</time></trkpt><trkpt lat="38.03500651273242" lon="15.232328915199089"><ele>539.1999999999999</ele><time>2026-04-26T10:29:03Z</time></trkpt><trkpt lat="38.03502683949479" lon="15.232483449515012"><ele>535.4</ele><time>2026-04-26T10:29:04.999Z</time></trkpt><trkpt lat="38.03499067959941" lon="15.23256739900903"><ele>531.5999999999999</ele><time>2026-04-26T10:29:05.999Z</time></trkpt><trkpt lat="38.03491710332862" lon="15.232631774218861"><ele>527.8</ele><time>2026-04-26T10:29:06.999Z</time></trkpt><trkpt lat="38.03489100951797" lon="15.232736785832088"><ele>524.0</ele><time>2026-04-26T10:29:07.999Z</time></trkpt><trkpt lat="38.03484974957883" lon="15.232824741261206"><ele>530.8333333333333</ele><time>2026-04-26T10:29:08.999Z</time></trkpt><trkpt lat="38.03481884845492" lon="15.232926979969783"><ele>537.6666666666666</ele><time>2026-04-26T10:29:09.999Z</time></trkpt><trkpt lat="38.034787694592396" lon="15.233011694219885"><ele>544.5</ele><time>2026-04-26T10:29:10.999Z</time></trkpt><trkpt lat="38.03475147682936" lon="15.233089587629573"><ele>551.3333333333334</ele><time>2026-04-26T10:29:11.999Z</time></trkpt><trkpt lat="38.03471728449824" lon="15.233178702751518"><ele>558.1666666666667</ele><time>2026-04-26T10:29:12.999Z</time></trkpt><trkpt lat="38.03469839357759" lon="15.23327056688446"><ele>565.0</ele><time>2026-04-26T10:29:55.999Z</time></trkpt><trkpt lat="38.03470688489946" lon="15.23337499300845"><ele>568.0</ele><time>2026-04-26T10:29:59.999Z</time></trkpt><trkpt lat="38.034735133333" lon="15.233447273038184"><ele>571.0</ele><time>2026-04-26T10:30:50Z</time></trkpt><trkpt lat="38.034810610614024" lon="15.233563356358887"><ele>574.0</ele><time>2026-04-26T10:30:52Z</time></trkpt><trkpt lat="38.03485957513349" lon="15.233650355047466"><ele>577.0</ele><time>2026-04-26T10:30:53Z</time></trkpt><trkpt lat="38.03490479235435" lon="15.233720517745107"><ele>580.0</ele><time>2026-04-26T10:30:54Z</time></trkpt><trkpt lat="38.03495319557391" lon="15.23379198434866"><ele>583.0</ele><time>2026-04-26T10:30:55Z</time></trkpt><trkpt lat="38.034999001656246" lon="15.23384690632785"><ele>572.1666666666667</ele><time>2026-04-26T10:30:56Z</time></trkpt><trkpt lat="38.03507437133854" lon="15.233873368480582"><ele>561.3333333333334</ele><time>2026-04-26T10:30:57Z</time></trkpt><trkpt lat="38.035162203527626" lon="15.233852969630746"><ele>550.5</ele><time>2026-04-26T10:30:58Z</time></trkpt><trkpt lat="38.03523534314991" lon="15.233846791079433"><ele>539.6666666666666</ele><time>2026-04-26T10:30:59Z</time></trkpt><trkpt lat="38.03531465764168" lon="15.233838278413549"><ele>528.8333333333333</ele><time>2026-04-26T10:31:00Z</time></trkpt><trkpt lat="38.0353781869384" lon="15.233829695529169"><ele>518.0</ele><time>2026-04-26T10:31:01Z</time></trkpt><trkpt lat="38.03545475750835" lon="15.233814152274562"><ele>518.0</ele><time>2026-04-26T10:31:02Z</time></trkpt><trkpt lat="38.03555028763641" lon="15.233785571697195"><ele>518.0</ele><time>2026-04-26T10:31:03Z</time></trkpt><trkpt lat="38.035623793527684" lon="15.233757521511397"><ele>518.0</ele><time>2026-04-26T10:31:04Z</time></trkpt><trkpt lat="38.03568836453412" lon="15.233719107640395"><ele>518.0</ele><time>2026-04-26T10:31:05Z</time></trkpt><trkpt lat="38.03575065587737" lon="15.233685843762272"><ele>518.0</ele><time>2026-04-26T10:31:06Z</time></trkpt><trkpt lat="38.035878085655476" lon="15.233633630496591"><ele>518.0</ele><time>2026-04-26T10:31:08Z</time></trkpt><trkpt lat="38.035945255286926" lon="15.2335956547012"><ele>515.6</ele><time>2026-04-26T10:31:09Z</time></trkpt><trkpt lat="38.03606242773434" lon="15.233516930549154"><ele>513.1999999999999</ele><time>2026-04-26T10:31:11Z</time></trkpt><trkpt lat="38.03613180710266" lon="15.23346222122092"><ele>510.8</ele><time>2026-04-26T10:31:12Z</time></trkpt><trkpt lat="38.03618733190265" lon="15.233394709192194"><ele>508.4</ele><time>2026-04-26T10:31:13Z</time></trkpt><trkpt lat="38.036229474878525" lon="15.23326767151407"><ele>506.0</ele><time>2026-04-26T10:31:15Z</time></trkpt><trkpt lat="38.03622259277026" lon="15.233181241107248"><ele>506.20000000000005</ele><time>2026-04-26T10:31:16.999Z</time></trkpt><trkpt lat="38.03615796796071" lon="15.23312793664736"><ele>506.40000000000003</ele><time>2026-04-26T10:31:19.999Z</time></trkpt><trkpt lat="38.036063271587864" lon="15.233072705869217"><ele>506.6</ele><time>2026-04-26T10:31:21.999Z</time></trkpt><trkpt lat="38.035983036508206" lon="15.23306105768003"><ele>506.8</ele><time>2026-04-26T10:31:22.999Z</time></trkpt><trkpt lat="38.03587742282986" lon="15.233025903856499"><ele>507.0</ele><time>2026-04-26T10:31:24.999Z</time></trkpt><trkpt lat="38.03582011700117" lon="15.23292918018268"><ele>507.0</ele><time>2026-04-26T10:31:26.999Z</time></trkpt><trkpt lat="38.035838626196245" lon="15.232750769742982"><ele>507.0</ele><time>2026-04-26T10:31:28.999Z</time></trkpt><trkpt lat="38.0358644401661" lon="15.232614610905333"><ele>507.0</ele><time>2026-04-26T10:31:29.999Z</time></trkpt><trkpt lat="38.03590544224055" lon="15.232484073452481"><ele>507.0</ele><time>2026-04-26T10:31:30.999Z</time></trkpt><trkpt lat="38.035944581172515" lon="15.232359218370231"><ele>505.8</ele><time>2026-04-26T10:31:31.999Z</time></trkpt><trkpt lat="38.03598174733477" lon="15.2322545367331"><ele>504.6</ele><time>2026-04-26T10:31:32.999Z</time></trkpt><trkpt lat="38.03603131072911" lon="15.23214194006339"><ele>503.40000000000003</ele><time>2026-04-26T10:31:33.999Z</time></trkpt><trkpt lat="38.03608547955138" lon="15.23203219380869"><ele>502.20000000000005</ele><time>2026-04-26T10:31:34.999Z</time></trkpt><trkpt lat="38.03613211726276" lon="15.231924785138414"><ele>501.0</ele><time>2026-04-26T10:31:35.999Z</time></trkpt><trkpt lat="38.036187524963054" lon="15.231819059471572"><ele>501.0</ele><time>2026-04-26T10:31:37.999Z</time></trkpt><trkpt lat="38.03626331211557" lon="15.231803058025834"><ele>501.0</ele><time>2026-04-26T10:31:39.999Z</time></trkpt><trkpt lat="38.03637192851644" lon="15.231819946886247"><ele>501.0</ele><time>2026-04-26T10:31:41.999Z</time></trkpt><trkpt lat="38.03649286191772" lon="15.231769364883174"><ele>501.0</ele><time>2026-04-26T10:31:43.999Z</time></trkpt><trkpt lat="38.03657534733537" lon="15.231712150399336"><ele>501.0</ele><time>2026-04-26T10:31:44.999Z</time></trkpt><trkpt lat="38.03667402773732" lon="15.23164124668836"><ele>503.0</ele><time>2026-04-26T10:31:45.999Z</time></trkpt><trkpt lat="38.036771448216896" lon="15.231590750846523"><ele>505.0</ele><time>2026-04-26T10:31:46.999Z</time></trkpt><trkpt lat="38.03687872124695" lon="15.231552278950748"><ele>507.0</ele><time>2026-04-26T10:31:47.999Z</time></trkpt><trkpt lat="38.036994316857644" lon="15.23151591925721"><ele>509.0</ele><time>2026-04-26T10:31:48.999Z</time></trkpt><trkpt lat="38.03708802596271" lon="15.231465656698534"><ele>511.0</ele><time>2026-04-26T10:31:49.999Z</time></trkpt><trkpt lat="38.03717311729953" lon="15.231408700741753"><ele>511.0</ele><time>2026-04-26T10:31:50.999Z</time></trkpt><trkpt lat="38.03724806519807" lon="15.231334471484553"><ele>511.0</ele><time>2026-04-26T10:31:51.999Z</time></trkpt><trkpt lat="38.03732455984345" lon="15.231249471607647"><ele>511.0</ele><time>2026-04-26T10:31:52.999Z</time></trkpt><trkpt lat="38.0374093185233" lon="15.231166036574745"><ele>511.0</ele><time>2026-04-26T10:31:53.999Z</time></trkpt><trkpt lat="38.037459036975186" lon="15.231077724696023"><ele>511.0</ele><time>2026-04-26T10:31:54.999Z</time></trkpt><trkpt lat="38.037482351690294" lon="15.230986926468601"><ele>511.0</ele><time>2026-04-26T10:31:55.999Z</time></trkpt><trkpt lat="38.03744962196124" lon="15.230859261368709"><ele>511.0</ele><time>2026-04-26T10:31:56.999Z</time></trkpt><trkpt lat="38.03746438998229" lon="15.23073463961205"><ele>511.0</ele><time>2026-04-26T10:31:57.999Z</time></trkpt><trkpt lat="38.03748121124406" lon="15.230610038888189"><ele>511.0</ele><time>2026-04-26T10:31:58.999Z</time></trkpt><trkpt lat="38.03749275222339" lon="15.230476243710369"><ele>511.0</ele><time>2026-04-26T10:31:59.999Z</time></trkpt><trkpt lat="38.037489075798405" lon="15.23032608982397"><ele>511.6</ele><time>2026-04-26T10:32:00.999Z</time></trkpt><trkpt lat="38.03746520384099" lon="15.230195990010605"><ele>512.2</ele><time>2026-04-26T10:32:01.999Z</time></trkpt><trkpt lat="38.03742380590578" lon="15.230067485841134"><ele>512.8</ele><time>2026-04-26T10:32:02.999Z</time></trkpt><trkpt lat="38.0373727870515" lon="15.229928085286133"><ele>513.4</ele><time>2026-04-26T10:32:03.999Z</time></trkpt><trkpt lat="38.03734450876888" lon="15.229797722463466"><ele>514.0</ele><time>2026-04-26T10:32:04.999Z</time></trkpt><trkpt lat="38.037346581930294" lon="15.229651546254026"><ele>517.0</ele><time>2026-04-26T10:32:05.999Z</time></trkpt><trkpt lat="38.03732415392062" lon="15.229502363380924"><ele>520.0</ele><time>2026-04-26T10:32:06.999Z</time></trkpt><trkpt lat="38.03733764884343" lon="15.22934089654685"><ele>523.0</ele><time>2026-04-26T10:32:07.999Z</time></trkpt><trkpt lat="38.03734179666424" lon="15.229172518601402"><ele>526.0</ele><time>2026-04-26T10:32:09Z</time></trkpt><trkpt lat="38.03730536240052" lon="15.229004001725412"><ele>523.6</ele><time>2026-04-26T10:32:10Z</time></trkpt><trkpt lat="38.03730167387262" lon="15.228872585415152"><ele>521.2</ele><time>2026-04-26T10:32:11Z</time></trkpt><trkpt lat="38.037291016606204" lon="15.228781391649317"><ele>518.8</ele><time>2026-04-26T10:32:12Z</time></trkpt><trkpt lat="38.03732258740539" lon="15.228660880630718"><ele>516.4</ele><time>2026-04-26T10:32:14Z</time></trkpt><trkpt lat="38.03740806698943" lon="15.228663229801516"><ele>514.0</ele><time>2026-04-26T10:32:16Z</time></trkpt><trkpt lat="38.037494054877456" lon="15.228696107101321"><ele>522.0</ele><time>2026-04-26T10:32:17Z</time></trkpt><trkpt lat="38.0375783959149" lon="15.228755682836539"><ele>530.0</ele><time>2026-04-26T10:32:18Z</time></trkpt><trkpt lat="38.03764233854576" lon="15.22886278925075"><ele>538.0</ele><time>2026-04-26T10:32:19Z</time></trkpt><trkpt lat="38.03770731325779" lon="15.228982952469218"><ele>546.0</ele><time>2026-04-26T10:32:20Z</time></trkpt><trkpt lat="38.03778515383618" lon="15.229084610220754"><ele>554.0</ele><time>2026-04-26T10:32:21Z</time></trkpt><trkpt lat="38.037885108402335" lon="15.229157894636806"><ele>554.1666666666666</ele><time>2026-04-26T10:32:22Z</time></trkpt><trkpt lat="38.03798054630386" lon="15.229223977806905"><ele>554.3333333333333</ele><time>2026-04-26T10:32:23Z</time></trkpt><trkpt lat="38.038027505885346" lon="15.229286128776026"><ele>554.5</ele><time>2026-04-26T10:32:24Z</time></trkpt><trkpt lat="38.0380370923959" lon="15.229378431447284"><ele>554.6666666666666</ele><time>2026-04-26T10:32:25Z</time></trkpt><trkpt lat="38.03800599685838" lon="15.229473774989183"><ele>554.8333333333334</ele><time>2026-04-26T10:32:26Z</time></trkpt><trkpt lat="38.03799603541454" lon="15.229573769023881"><ele>555.0</ele><time>2026-04-26T10:32:28Z</time></trkpt><trkpt lat="38.03807734205934" lon="15.22954832300426"><ele>555.0</ele><time>2026-04-26T10:32:30Z</time></trkpt><trkpt lat="38.038186291669376" lon="15.229465447121118"><ele>555.0</ele><time>2026-04-26T10:32:32Z</time></trkpt><trkpt lat="38.0382604353767" lon="15.229428212048319"><ele>555.0</ele><time>2026-04-26T10:32:33Z</time></trkpt><trkpt lat="38.03835052310962" lon="15.229419869080571"><ele>555.0</ele><time>2026-04-26T10:32:34Z</time></trkpt><trkpt lat="38.038444652431" lon="15.22943545079122"><ele>555.0</ele><time>2026-04-26T10:32:35Z</time></trkpt><trkpt lat="38.03850841497745" lon="15.229462229657909"><ele>555.0</ele><time>2026-04-26T10:32:37Z</time></trkpt><trkpt lat="38.038486329456944" lon="15.229541268597243"><ele>555.0</ele><time>2026-04-26T10:32:39Z</time></trkpt><trkpt lat="38.038391538610696" lon="15.229559230636998"><ele>555.0</ele><time>2026-04-26T10:32:41Z</time></trkpt><trkpt lat="38.03832037576622" lon="15.229571494029916"><ele>555.0</ele><time>2026-04-26T10:32:42Z</time></trkpt><trkpt lat="38.03824533537242" lon="15.229638398313236"><ele>555.0</ele><time>2026-04-26T10:32:43Z</time></trkpt><trkpt lat="38.03817870172764" lon="15.229739704675403"><ele>555.0</ele><time>2026-04-26T10:32:44Z</time></trkpt><trkpt lat="38.038135249228255" lon="15.229867022846923"><ele>554.4</ele><time>2026-04-26T10:32:45Z</time></trkpt><trkpt lat="38.03812129405148" lon="15.229984584300942"><ele>553.8</ele><time>2026-04-26T10:32:46Z</time></trkpt><trkpt lat="38.03814129101949" lon="15.230094016714995"><ele>553.2</ele><time>2026-04-26T10:32:47Z</time></trkpt><trkpt lat="38.038172971277795" lon="15.230241280937351"><ele>552.6</ele><time>2026-04-26T10:32:48Z</time></trkpt><trkpt lat="38.03820715254043" lon="15.230398357309562"><ele>552.0</ele><time>2026-04-26T10:32:49Z</time></trkpt><trkpt lat="38.03824957729781" lon="15.230567422295945"><ele>562.0</ele><time>2026-04-26T10:32:50Z</time></trkpt><trkpt lat="38.03830749055082" lon="15.230724444029835"><ele>572.0</ele><time>2026-04-26T10:32:51Z</time></trkpt><trkpt lat="38.0383530467351" lon="15.230856839070745"><ele>582.0</ele><time>2026-04-26T10:32:52Z</time></trkpt><trkpt lat="38.038404924979716" lon="15.230958322488881"><ele>592.0</ele><time>2026-04-26T10:32:53Z</time></trkpt><trkpt lat="38.03845088304188" lon="15.231057012248199"><ele>602.0</ele><time>2026-04-26T10:32:54Z</time></trkpt><trkpt lat="38.03848933556968" lon="15.231196837783468"><ele>602.0</ele><time>2026-04-26T10:32:55Z</time></trkpt><trkpt lat="38.03851405309455" lon="15.231306726788493"><ele>602.0</ele><time>2026-04-26T10:32:56Z</time></trkpt><trkpt lat="38.03850770830013" lon="15.23142409565399"><ele>602.0</ele><time>2026-04-26T10:32:57Z</time></trkpt><trkpt lat="38.03846166729419" lon="15.231552845747302"><ele>602.0</ele><time>2026-04-26T10:32:58Z</time></trkpt><trkpt lat="38.03842351378997" lon="15.231692712327709"><ele>602.0</ele><time>2026-04-26T10:32:59Z</time></trkpt><trkpt lat="38.03838844094919" lon="15.231813075886256"><ele>603.0</ele><time>2026-04-26T10:33:00Z</time></trkpt><trkpt lat="38.03836575483878" lon="15.231917788738603"><ele>604.0</ele><time>2026-04-26T10:33:01Z</time></trkpt><trkpt lat="38.03833136503637" lon="15.231999586161287"><ele>605.0</ele><time>2026-04-26T10:33:02Z</time></trkpt><trkpt lat="38.03833737886131" lon="15.232113741872201"><ele>606.0</ele><time>2026-04-26T10:33:04Z</time></trkpt><trkpt lat="38.03838584241879" lon="15.232170036723392"><ele>607.0</ele><time>2026-04-26T10:33:05Z</time></trkpt><trkpt lat="38.03846835029898" lon="15.232228755162733"><ele>608.0</ele><time>2026-04-26T10:33:06Z</time></trkpt><trkpt lat="38.038569633599025" lon="15.232257228655236"><ele>608.0</ele><time>2026-04-26T10:33:07Z</time></trkpt><trkpt lat="38.03870404956998" lon="15.232293747492669"><ele>608.0</ele><time>2026-04-26T10:33:08Z</time></trkpt><trkpt lat="38.03883294313454" lon="15.232346274449963"><ele>608.0</ele><time>2026-04-26T10:33:09Z</time></trkpt><trkpt lat="38.038938716192504" lon="15.232433004409241"><ele>608.0</ele><time>2026-04-26T10:33:10Z</time></trkpt><trkpt lat="38.03904047970447" lon="15.232520385166564"><ele>613.6</ele><time>2026-04-26T10:33:11Z</time></trkpt><trkpt lat="38.039150750697935" lon="15.23256047829567"><ele>619.1999999999999</ele><time>2026-04-26T10:33:12Z</time></trkpt><trkpt lat="38.0392631117326" lon="15.23257139149229"><ele>624.8</ele><time>2026-04-26T10:33:13Z</time></trkpt><trkpt lat="38.03937427412986" lon="15.232599340179311"><ele>630.4</ele><time>2026-04-26T10:33:14Z</time></trkpt><trkpt lat="38.03945550416619" lon="15.232653088405092"><ele>636.0</ele><time>2026-04-26T10:33:15Z</time></trkpt><trkpt lat="38.03951725090921" lon="15.232750861271784"><ele>636.0</ele><time>2026-04-26T10:33:16Z</time></trkpt><trkpt lat="38.03956428988976" lon="15.232870853368228"><ele>636.0</ele><time>2026-04-26T10:33:17Z</time></trkpt><trkpt lat="38.039601052696646" lon="15.23296467258237"><ele>636.0</ele><time>2026-04-26T10:33:18Z</time></trkpt><trkpt lat="38.03964653887026" lon="15.233028187901478"><ele>636.0</ele><time>2026-04-26T10:33:19Z</time></trkpt><trkpt lat="38.03971125646645" lon="15.233056435142418"><ele>636.0</ele><time>2026-04-26T10:33:20Z</time></trkpt><trkpt lat="38.039784118616076" lon="15.233034738426015"><ele>636.0</ele><time>2026-04-26T10:33:21Z</time></trkpt><trkpt lat="38.03984182854161" lon="15.232976106872094"><ele>636.0</ele><time>2026-04-26T10:33:22Z</time></trkpt><trkpt lat="38.039913018197176" lon="15.23286873926534"><ele>636.0</ele><time>2026-04-26T10:33:23Z</time></trkpt><trkpt lat="38.039985718620436" lon="15.232740063535115"><ele>636.0</ele><time>2026-04-26T10:33:24Z</time></trkpt><trkpt lat="38.04004566203488" lon="15.232605851718088"><ele>636.0</ele><time>2026-04-26T10:33:25Z</time></trkpt><trkpt lat="38.04011727335899" lon="15.232493756150665"><ele>639.25</ele><time>2026-04-26T10:33:26Z</time></trkpt><trkpt lat="38.04021269324757" lon="15.232421844062824"><ele>642.5</ele><time>2026-04-26T10:33:27Z</time></trkpt><trkpt lat="38.04034539446625" lon="15.232375069249768"><ele>645.75</ele><time>2026-04-26T10:33:28Z</time></trkpt><trkpt lat="38.04046503303137" lon="15.232331032408139"><ele>649.0</ele><time>2026-04-26T10:33:29Z</time></trkpt><trkpt lat="38.0405407421415" lon="15.232271352002607"><ele>653.4000000000001</ele><time>2026-04-26T10:33:30Z</time></trkpt><trkpt lat="38.04061934723218" lon="15.232238734007396"><ele>657.8</ele><time>2026-04-26T10:33:31Z</time></trkpt><trkpt lat="38.04071255542831" lon="15.232248389401795"><ele>662.2</ele><time>2026-04-26T10:33:32Z</time></trkpt><trkpt lat="38.04080166144539" lon="15.232244758473824"><ele>666.5999999999999</ele><time>2026-04-26T10:33:33Z</time></trkpt><trkpt lat="38.04088120968522" lon="15.232179331844547"><ele>671.0</ele><time>2026-04-26T10:33:34Z</time></trkpt><trkpt lat="38.04099116797671" lon="15.232079691946938"><ele>671.0</ele><time>2026-04-26T10:33:35Z</time></trkpt><trkpt lat="38.041107433180116" lon="15.231977209549187"><ele>671.0</ele><time>2026-04-26T10:33:36Z</time></trkpt><trkpt lat="38.04124160337384" lon="15.231884314827"><ele>671.0</ele><time>2026-04-26T10:33:37Z</time></trkpt><trkpt lat="38.041347798322995" lon="15.23183756718167"><ele>671.0</ele><time>2026-04-26T10:33:38Z</time></trkpt><trkpt lat="38.0414630797698" lon="15.231829811320562"><ele>671.0</ele><time>2026-04-26T10:33:39Z</time></trkpt><trkpt lat="38.04158026578601" lon="15.23185395915164"><ele>671.0</ele><time>2026-04-26T10:33:40Z</time></trkpt><trkpt lat="38.04168195681906" lon="15.231856006556937"><ele>671.0</ele><time>2026-04-26T10:33:41Z</time></trkpt><trkpt lat="38.04177878950027" lon="15.23186846684023"><ele>671.0</ele><time>2026-04-26T10:33:42Z</time></trkpt><trkpt lat="38.04185722493625" lon="15.231938980216075"><ele>671.0</ele><time>2026-04-26T10:33:43Z</time></trkpt><trkpt lat="38.041966723291374" lon="15.231992099185778"><ele>670.1999999999999</ele><time>2026-04-26T10:33:44Z</time></trkpt><trkpt lat="38.04208653878265" lon="15.231995934765372"><ele>669.4</ele><time>2026-04-26T10:33:45Z</time></trkpt><trkpt lat="38.042194418683785" lon="15.231977584277052"><ele>668.6</ele><time>2026-04-26T10:33:46Z</time></trkpt><trkpt lat="38.042274444023256" lon="15.232009234769516"><ele>667.8</ele><time>2026-04-26T10:33:46.999Z</time></trkpt><trkpt lat="38.04233213809513" lon="15.232083339361097"><ele>667.0</ele><time>2026-04-26T10:33:47.999Z</time></trkpt><trkpt lat="38.04238897226535" lon="15.23219942869118"><ele>669.0</ele><time>2026-04-26T10:33:48.999Z</time></trkpt><trkpt lat="38.04245623674457" lon="15.232307390830554"><ele>671.0</ele><time>2026-04-26T10:33:49.999Z</time></trkpt><trkpt lat="38.042519126598826" lon="15.232354466562573"><ele>673.0</ele><time>2026-04-26T10:33:50.999Z</time></trkpt><trkpt lat="38.04258356943529" lon="15.232341678143383"><ele>675.0</ele><time>2026-04-26T10:33:51.999Z</time></trkpt><trkpt lat="38.042674017551164" lon="15.232312825542516"><ele>677.0</ele><time>2026-04-26T10:33:52.999Z</time></trkpt><trkpt lat="38.04280131512763" lon="15.232254668673637"><ele>677.0</ele><time>2026-04-26T10:33:53.999Z</time></trkpt><trkpt lat="38.04292274127049" lon="15.232212326360335"><ele>677.0</ele><time>2026-04-26T10:33:54.999Z</time></trkpt><trkpt lat="38.04301618126665" lon="15.232223144631394"><ele>677.0</ele><time>2026-04-26T10:33:55.999Z</time></trkpt><trkpt lat="38.04310043088306" lon="15.232256064858436"><ele>677.0</ele><time>2026-04-26T10:33:56.999Z</time></trkpt><trkpt lat="38.04317496231127" lon="15.232319109745225"><ele>677.0</ele><time>2026-04-26T10:33:57.999Z</time></trkpt><trkpt lat="38.043211951694225" lon="15.23243561226102"><ele>676.6666666666666</ele><time>2026-04-26T10:33:58.999Z</time></trkpt><trkpt lat="38.04321700486457" lon="15.23255482496137"><ele>676.3333333333333</ele><time>2026-04-26T10:33:59.999Z</time></trkpt><trkpt lat="38.04321594195234" lon="15.232654641956975"><ele>676.0</ele><time>2026-04-26T10:34:00.999Z</time></trkpt><trkpt lat="38.043233528596645" lon="15.232752136074236"><ele>675.6666666666666</ele><time>2026-04-26T10:34:01.999Z</time></trkpt><trkpt lat="38.04329201224663" lon="15.232819672197747"><ele>675.3333333333334</ele><time>2026-04-26T10:34:02.999Z</time></trkpt><trkpt lat="38.043387580375644" lon="15.232896878666503"><ele>675.0</ele><time>2026-04-26T10:34:03.999Z</time></trkpt><trkpt lat="38.04349344579041" lon="15.232996699270435"><ele>675.0</ele><time>2026-04-26T10:34:04.999Z</time></trkpt><trkpt lat="38.04357682767566" lon="15.233128475610465"><ele>675.0</ele><time>2026-04-26T10:34:05.999Z</time></trkpt><trkpt lat="38.043649369264315" lon="15.23323725455196"><ele>675.0</ele><time>2026-04-26T10:34:06.999Z</time></trkpt><trkpt lat="38.04373234025781" lon="15.233346018057695"><ele>675.0</ele><time>2026-04-26T10:34:07.999Z</time></trkpt><trkpt lat="38.04380292859281" lon="15.233479249973781"><ele>670.4</ele><time>2026-04-26T10:34:08.999Z</time></trkpt><trkpt lat="38.04385601134554" lon="15.233611843335357"><ele>665.8</ele><time>2026-04-26T10:34:09.999Z</time></trkpt><trkpt lat="38.04390517726841" lon="15.233715950251893"><ele>661.2</ele><time>2026-04-26T10:34:10.999Z</time></trkpt><trkpt lat="38.04394007097341" lon="15.23383174010573"><ele>656.6</ele><time>2026-04-26T10:34:11.999Z</time></trkpt><trkpt lat="38.04393661419935" lon="15.233956927623836"><ele>652.0</ele><time>2026-04-26T10:34:12.999Z</time></trkpt><trkpt lat="38.04391409576267" lon="15.234078578030308"><ele>648.6</ele><time>2026-04-26T10:34:13.999Z</time></trkpt><trkpt lat="38.04388822754923" lon="15.234188324722625"><ele>645.2</ele><time>2026-04-26T10:34:15Z</time></trkpt><trkpt lat="38.0439151852046" lon="15.234282600089308"><ele>641.8</ele><time>2026-04-26T10:34:16Z</time></trkpt><trkpt lat="38.0439910036045" lon="15.23439227377158"><ele>638.4</ele><time>2026-04-26T10:34:17Z</time></trkpt><trkpt lat="38.04407877468219" lon="15.234506560139428"><ele>635.0</ele><time>2026-04-26T10:34:18Z</time></trkpt><trkpt lat="38.044142372401026" lon="15.23462645338812"><ele>641.5</ele><time>2026-04-26T10:34:19Z</time></trkpt><trkpt lat="38.04419432347241" lon="15.234756636423542"><ele>648.0</ele><time>2026-04-26T10:34:20Z</time></trkpt><trkpt lat="38.0442912542799" lon="15.23487876216026"><ele>654.5</ele><time>2026-04-26T10:34:21Z</time></trkpt><trkpt lat="38.04440200988834" lon="15.234990897757863"><ele>661.0</ele><time>2026-04-26T10:34:22Z</time></trkpt><trkpt lat="38.04449199870026" lon="15.235084964247422"><ele>661.0</ele><time>2026-04-26T10:34:23Z</time></trkpt><trkpt lat="38.0445566781094" lon="15.235190426024241"><ele>661.0</ele><time>2026-04-26T10:34:24Z</time></trkpt><trkpt lat="38.04459971065507" lon="15.235317040256065"><ele>661.0</ele><time>2026-04-26T10:34:25Z</time></trkpt><trkpt lat="38.04462641530123" lon="15.23542297703806"><ele>661.0</ele><time>2026-04-26T10:34:26Z</time></trkpt><trkpt lat="38.04471324746587" lon="15.235498283916161"><ele>661.0</ele><time>2026-04-26T10:34:28Z</time></trkpt><trkpt lat="38.04479374363372" lon="15.23551130318964"><ele>661.0</ele><time>2026-04-26T10:34:29Z</time></trkpt><trkpt lat="38.04487246719108" lon="15.235502576659941"><ele>661.0</ele><time>2026-04-26T10:34:30Z</time></trkpt><trkpt lat="38.04495271833148" lon="15.235470582194816"><ele>661.0</ele><time>2026-04-26T10:34:31Z</time></trkpt><trkpt lat="38.045044429599734" lon="15.235400539250685"><ele>661.0</ele><time>2026-04-26T10:34:32Z</time></trkpt><trkpt lat="38.0451499139141" lon="15.235330528777386"><ele>661.0</ele><time>2026-04-26T10:34:33Z</time></trkpt><trkpt lat="38.04525531933186" lon="15.235296563630548"><ele>666.4</ele><time>2026-04-26T10:34:34Z</time></trkpt><trkpt lat="38.045361703347375" lon="15.235302499781406"><ele>671.8</ele><time>2026-04-26T10:34:35Z</time></trkpt><trkpt lat="38.04547335619035" lon="15.235339469314864"><ele>677.1999999999999</ele><time>2026-04-26T10:34:36Z</time></trkpt><trkpt lat="38.04557058108331" lon="15.235375534952938"><ele>682.5999999999999</ele><time>2026-04-26T10:34:37Z</time></trkpt><trkpt lat="38.04564596111923" lon="15.235412752195"><ele>688.0</ele><time>2026-04-26T10:34:38Z</time></trkpt><trkpt lat="38.04570921573377" lon="15.235485385674366"><ele>688.0</ele><time>2026-04-26T10:34:39Z</time></trkpt><trkpt lat="38.04574706490897" lon="15.235605691736186"><ele>688.0</ele><time>2026-04-26T10:34:40Z</time></trkpt><trkpt lat="38.04578981341819" lon="15.235714330305438"><ele>688.0</ele><time>2026-04-26T10:34:41Z</time></trkpt><trkpt lat="38.04585702544199" lon="15.235749674502866"><ele>688.0</ele><time>2026-04-26T10:34:42Z</time></trkpt><trkpt lat="38.04593351346096" lon="15.235756052951766"><ele>688.0</ele><time>2026-04-26T10:34:43Z</time></trkpt><trkpt lat="38.04601821875675" lon="15.23572170492406"><ele>688.0</ele><time>2026-04-26T10:34:44Z</time></trkpt><trkpt lat="38.04612179645999" lon="15.235676538694637"><ele>690.8</ele><time>2026-04-26T10:34:45Z</time></trkpt><trkpt lat="38.046229392606456" lon="15.235606477491071"><ele>693.5999999999999</ele><time>2026-04-26T10:34:46Z</time></trkpt><trkpt lat="38.046330745292686" lon="15.23555682794193"><ele>696.4000000000001</ele><time>2026-04-26T10:34:47Z</time></trkpt><trkpt lat="38.04642455064339" lon="15.23556629555207"><ele>699.2</ele><time>2026-04-26T10:34:48Z</time></trkpt><trkpt lat="38.04651213895187" lon="15.23561082777839"><ele>702.0</ele><time>2026-04-26T10:34:49Z</time></trkpt><trkpt lat="38.04658243621582" lon="15.235690376491679"><ele>699.1666666666666</ele><time>2026-04-26T10:34:50Z</time></trkpt><trkpt lat="38.04662684298122" lon="15.235791805665844"><ele>696.3333333333334</ele><time>2026-04-26T10:34:51Z</time></trkpt><trkpt lat="38.04667907270303" lon="15.235897041840289"><ele>693.5</ele><time>2026-04-26T10:34:52Z</time></trkpt><trkpt lat="38.04671560691148" lon="15.235965744603726"><ele>690.6666666666667</ele><time>2026-04-26T10:34:53Z</time></trkpt><trkpt lat="38.04677642441172" lon="15.235995992579248"><ele>687.8333333333334</ele><time>2026-04-26T10:34:54Z</time></trkpt><trkpt lat="38.04688758010571" lon="15.236027906104187"><ele>685.0</ele><time>2026-04-26T10:34:55Z</time></trkpt><trkpt lat="38.04700075049349" lon="15.236059326431578"><ele>685.0</ele><time>2026-04-26T10:34:56Z</time></trkpt><trkpt lat="38.04709518969929" lon="15.236038990323136"><ele>685.0</ele><time>2026-04-26T10:34:57Z</time></trkpt><trkpt lat="38.04718674568973" lon="15.235984914093736"><ele>685.0</ele><time>2026-04-26T10:34:58Z</time></trkpt><trkpt lat="38.04726696904664" lon="15.235951605333495"><ele>685.0</ele><time>2026-04-26T10:34:59Z</time></trkpt><trkpt lat="38.04737123063953" lon="15.235854945020083"><ele>685.0</ele><time>2026-04-26T10:35:01Z</time></trkpt><trkpt lat="38.047467216066245" lon="15.235903042894746"><ele>685.4</ele><time>2026-04-26T10:35:03Z</time></trkpt><trkpt lat="38.04753104684014" lon="15.23597661543479"><ele>685.8</ele><time>2026-04-26T10:35:04Z</time></trkpt><trkpt lat="38.04760817607715" lon="15.236045061292016"><ele>686.2</ele><time>2026-04-26T10:35:05Z</time></trkpt><trkpt lat="38.0477143853138" lon="15.236089124448842"><ele>686.6</ele><time>2026-04-26T10:35:06Z</time></trkpt><trkpt lat="38.0478286110693" lon="15.23611502982223"><ele>687.0</ele><time>2026-04-26T10:35:07Z</time></trkpt><trkpt lat="38.04794003614615" lon="15.236126148351953"><ele>687.0</ele><time>2026-04-26T10:35:08Z</time></trkpt><trkpt lat="38.04804944743817" lon="15.236150437884373"><ele>687.0</ele><time>2026-04-26T10:35:09Z</time></trkpt><trkpt lat="38.04814361731669" lon="15.236206178038021"><ele>687.0</ele><time>2026-04-26T10:35:10Z</time></trkpt><trkpt lat="38.04823148128232" lon="15.236253691678744"><ele>687.0</ele><time>2026-04-26T10:35:11Z</time></trkpt><trkpt lat="38.04829406492148" lon="15.236302682592958"><ele>687.0</ele><time>2026-04-26T10:35:12Z</time></trkpt><trkpt lat="38.04833724353291" lon="15.236405426242435"><ele>686.0</ele><time>2026-04-26T10:35:14Z</time></trkpt><trkpt lat="38.04831666493593" lon="15.236481593739231"><ele>685.0</ele><time>2026-04-26T10:35:15Z</time></trkpt><trkpt lat="38.048286983376734" lon="15.23657848359055"><ele>684.0</ele><time>2026-04-26T10:35:16Z</time></trkpt><trkpt lat="38.048292082233914" lon="15.236694532144243"><ele>683.0</ele><time>2026-04-26T10:35:17Z</time></trkpt><trkpt lat="38.048325568748474" lon="15.236829137471034"><ele>682.0</ele><time>2026-04-26T10:35:18Z</time></trkpt><trkpt lat="38.04836687292291" lon="15.236933823819774"><ele>681.0</ele><time>2026-04-26T10:35:19Z</time></trkpt><trkpt lat="38.04840646507896" lon="15.237034498827136"><ele>681.0</ele><time>2026-04-26T10:35:20Z</time></trkpt><trkpt lat="38.048360224650715" lon="15.23709594054479"><ele>681.0</ele><time>2026-04-26T10:35:22Z</time></trkpt><trkpt lat="38.048269480348935" lon="15.237089146531332"><ele>681.0</ele><time>2026-04-26T10:35:24Z</time></trkpt><trkpt lat="38.04820430095849" lon="15.237040905153203"><ele>681.0</ele><time>2026-04-26T10:35:25Z</time></trkpt><trkpt lat="38.04813960274295" lon="15.236968931337076"><ele>681.0</ele><time>2026-04-26T10:35:26Z</time></trkpt><trkpt lat="38.04808160470279" lon="15.23689593703896"><ele>681.0</ele><time>2026-04-26T10:35:27Z</time></trkpt><trkpt lat="38.04798348555001" lon="15.236951298986966"><ele>678.0</ele><time>2026-04-26T10:35:29Z</time></trkpt><trkpt lat="38.04788702517477" lon="15.237088725644718"><ele>675.0</ele><time>2026-04-26T10:35:31Z</time></trkpt><trkpt lat="38.04781237049674" lon="15.237156277887822"><ele>672.0</ele><time>2026-04-26T10:35:32Z</time></trkpt><trkpt lat="38.047736293041304" lon="15.237145267233467"><ele>669.0</ele><time>2026-04-26T10:35:33Z</time></trkpt><trkpt lat="38.0476599334291" lon="15.237148234502708"><ele>666.0</ele><time>2026-04-26T10:35:34Z</time></trkpt><trkpt lat="38.04759532544857" lon="15.237183916129407"><ele>666.0</ele><time>2026-04-26T10:35:35Z</time></trkpt><trkpt lat="38.04748322765422" lon="15.237249187848782"><ele>666.0</ele><time>2026-04-26T10:35:38Z</time></trkpt><trkpt lat="38.04743222009675" lon="15.237311973637173"><ele>666.0</ele><time>2026-04-26T10:35:39Z</time></trkpt><trkpt lat="38.04737720469032" lon="15.237377738599648"><ele>666.0</ele><time>2026-04-26T10:35:40Z</time></trkpt><trkpt lat="38.04732198191736" lon="15.23749387452817"><ele>666.0</ele><time>2026-04-26T10:35:42Z</time></trkpt><trkpt lat="38.04720982033833" lon="15.237557484448647"><ele>672.0</ele><time>2026-04-26T10:35:44Z</time></trkpt><trkpt lat="38.04709436193446" lon="15.23757085600113"><ele>678.0</ele><time>2026-04-26T10:35:46Z</time></trkpt><trkpt lat="38.04701685170913" lon="15.237580959908184"><ele>684.0</ele><time>2026-04-26T10:35:47Z</time></trkpt><trkpt lat="38.04694247074933" lon="15.237612324986177"><ele>690.0</ele><time>2026-04-26T10:35:48Z</time></trkpt><trkpt lat="38.04681256547634" lon="15.237638988377991"><ele>696.0</ele><time>2026-04-26T10:35:50Z</time></trkpt><trkpt lat="38.04674502667455" lon="15.237615458985944"><ele>696.0</ele><time>2026-04-26T10:35:51Z</time></trkpt><trkpt lat="38.04668020295515" lon="15.237558977692364"><ele>696.0</ele><time>2026-04-26T10:35:52Z</time></trkpt><trkpt lat="38.04660534244481" lon="15.237480828726174"><ele>696.0</ele><time>2026-04-26T10:35:53Z</time></trkpt><trkpt lat="38.04654359183462" lon="15.237406702051322"><ele>696.0</ele><time>2026-04-26T10:35:54Z</time></trkpt><trkpt lat="38.04648811758632" lon="15.237343703431751"><ele>696.0</ele><time>2026-04-26T10:35:55Z</time></trkpt><trkpt lat="38.04639217554835" lon="15.237328446055361"><ele>696.0</ele><time>2026-04-26T10:35:57Z</time></trkpt><trkpt lat="38.04626975489458" lon="15.237402716677144"><ele>694.5</ele><time>2026-04-26T10:35:59Z</time></trkpt><trkpt lat="38.0461735506517" lon="15.237482555913614"><ele>693.0</ele><time>2026-04-26T10:35:59.999Z</time></trkpt><trkpt lat="38.046075821431366" lon="15.237549371579142"><ele>691.5</ele><time>2026-04-26T10:36:00.999Z</time></trkpt><trkpt lat="38.04596332254745" lon="15.237609601481825"><ele>690.0</ele><time>2026-04-26T10:36:01.999Z</time></trkpt><trkpt lat="38.04586801363769" lon="15.237681014505489"><ele>688.1666666666666</ele><time>2026-04-26T10:36:02.999Z</time></trkpt><trkpt lat="38.045769179306795" lon="15.23772402065163"><ele>686.3333333333334</ele><time>2026-04-26T10:36:03.999Z</time></trkpt><trkpt lat="38.04567966395073" lon="15.237741027974812"><ele>684.5</ele><time>2026-04-26T10:36:04.999Z</time></trkpt><trkpt lat="38.04561623860555" lon="15.23778037615801"><ele>682.6666666666667</ele><time>2026-04-26T10:36:05.999Z</time></trkpt><trkpt lat="38.04553087472798" lon="15.237840533708859"><ele>680.8333333333334</ele><time>2026-04-26T10:36:06.999Z</time></trkpt><trkpt lat="38.04545273319555" lon="15.237886943237537"><ele>679.0</ele><time>2026-04-26T10:36:07.999Z</time></trkpt><trkpt lat="38.04535527282977" lon="15.237918519193853"><ele>679.0</ele><time>2026-04-26T10:36:08.999Z</time></trkpt><trkpt lat="38.04526742723952" lon="15.237965015165775"><ele>679.0</ele><time>2026-04-26T10:36:09.999Z</time></trkpt><trkpt lat="38.045183874325836" lon="15.238039481933455"><ele>679.0</ele><time>2026-04-26T10:36:10.999Z</time></trkpt><trkpt lat="38.04509539072625" lon="15.238110745917087"><ele>679.0</ele><time>2026-04-26T10:36:11.999Z</time></trkpt><trkpt lat="38.04500368890562" lon="15.238159692930386"><ele>679.0</ele><time>2026-04-26T10:36:12.999Z</time></trkpt><trkpt lat="38.04489600070283" lon="15.238175549880403"><ele>687.0</ele><time>2026-04-26T10:36:13.999Z</time></trkpt><trkpt lat="38.04477716579497" lon="15.238203507243528"><ele>695.0</ele><time>2026-04-26T10:36:14.999Z</time></trkpt><trkpt lat="38.04465984270804" lon="15.238268564487417"><ele>703.0</ele><time>2026-04-26T10:36:15.999Z</time></trkpt><trkpt lat="38.04456467975852" lon="15.238351968270056"><ele>711.0</ele><time>2026-04-26T10:36:16.999Z</time></trkpt><trkpt lat="38.044465656853745" lon="15.238463329504636"><ele>711.0</ele><time>2026-04-26T10:36:17.999Z</time></trkpt><trkpt lat="38.044371501065584" lon="15.23858356386866"><ele>711.0</ele><time>2026-04-26T10:36:18.999Z</time></trkpt><trkpt lat="38.04429407062954" lon="15.238658423589802"><ele>711.0</ele><time>2026-04-26T10:36:19.999Z</time></trkpt><trkpt lat="38.04419962559793" lon="15.238708951939042"><ele>711.0</ele><time>2026-04-26T10:36:20.999Z</time></trkpt><trkpt lat="38.04408909178024" lon="15.238769348763048"><ele>710.0</ele><time>2026-04-26T10:36:21.999Z</time></trkpt><trkpt lat="38.04396899955757" lon="15.238814108157442"><ele>709.0</ele><time>2026-04-26T10:36:22.999Z</time></trkpt><trkpt lat="38.04385112733157" lon="15.23883308818178"><ele>708.0</ele><time>2026-04-26T10:36:23.999Z</time></trkpt><trkpt lat="38.04373221967387" lon="15.238833384361126"><ele>707.0</ele><time>2026-04-26T10:36:24.999Z</time></trkpt><trkpt lat="38.0436290873878" lon="15.238848060466253"><ele>707.0</ele><time>2026-04-26T10:36:25.999Z</time></trkpt><trkpt lat="38.04356440051973" lon="15.23885592286893"><ele>707.0</ele><time>2026-04-26T10:36:26.999Z</time></trkpt><trkpt lat="38.043518517188694" lon="15.23893882043128"><ele>707.0</ele><time>2026-04-26T10:36:28.999Z</time></trkpt><trkpt lat="38.04357548662491" lon="15.239053748376389"><ele>707.0</ele><time>2026-04-26T10:36:30.999Z</time></trkpt><trkpt lat="38.04363719249145" lon="15.239077295233857"><ele>707.0</ele><time>2026-04-26T10:36:31.999Z</time></trkpt><trkpt lat="38.04372228279471" lon="15.239094728934909"><ele>707.0</ele><time>2026-04-26T10:36:32.999Z</time></trkpt><trkpt lat="38.04383732483171" lon="15.23911663499738"><ele>707.2</ele><time>2026-04-26T10:36:33.999Z</time></trkpt><trkpt lat="38.043949268697325" lon="15.23915788996234"><ele>707.4000000000001</ele><time>2026-04-26T10:36:34.999Z</time></trkpt><trkpt lat="38.04404841843842" lon="15.239204579130448"><ele>707.5999999999999</ele><time>2026-04-26T10:36:35.999Z</time></trkpt><trkpt lat="38.04413894795297" lon="15.23927415617536"><ele>707.8</ele><time>2026-04-26T10:36:36.999Z</time></trkpt><trkpt lat="38.044224629842894" lon="15.23935072061656"><ele>708.0</ele><time>2026-04-26T10:36:37.999Z</time></trkpt><trkpt lat="38.04429767007308" lon="15.239415417971989"><ele>712.5</ele><time>2026-04-26T10:36:38.999Z</time></trkpt><trkpt lat="38.04438642298167" lon="15.239390426312356"><ele>717.0</ele><time>2026-04-26T10:36:41.999Z</time></trkpt><trkpt lat="38.044451728968" lon="15.239366777377715"><ele>721.5</ele><time>2026-04-26T10:36:42.999Z</time></trkpt><trkpt lat="38.04451450440126" lon="15.239346495696418"><ele>726.0</ele><time>2026-04-26T10:36:43.999Z</time></trkpt><trkpt lat="38.044603176976665" lon="15.239357587445078"><ele>730.5</ele><time>2026-04-26T10:36:44.999Z</time></trkpt><trkpt lat="38.04470357050929" lon="15.239367326284723"><ele>735.0</ele><time>2026-04-26T10:36:45.999Z</time></trkpt><trkpt lat="38.044801519090285" lon="15.239365729930341"><ele>735.0</ele><time>2026-04-26T10:36:46.999Z</time></trkpt><trkpt lat="38.04491955159798" lon="15.239352141055392"><ele>735.0</ele><time>2026-04-26T10:36:47.999Z</time></trkpt><trkpt lat="38.045054837450245" lon="15.239337108337407"><ele>735.0</ele><time>2026-04-26T10:36:48.999Z</time></trkpt><trkpt lat="38.04516693961738" lon="15.239320809784537"><ele>735.0</ele><time>2026-04-26T10:36:49.999Z</time></trkpt><trkpt lat="38.045277896472335" lon="15.239307189704503"><ele>738.5</ele><time>2026-04-26T10:36:50.999Z</time></trkpt><trkpt lat="38.045387085661496" lon="15.239282561141666"><ele>742.0</ele><time>2026-04-26T10:36:51.999Z</time></trkpt><trkpt lat="38.04549196287937" lon="15.239235312915005"><ele>745.5</ele><time>2026-04-26T10:36:52.999Z</time></trkpt><trkpt lat="38.04560386605408" lon="15.23919396571149"><ele>749.0</ele><time>2026-04-26T10:36:53.999Z</time></trkpt><trkpt lat="38.04571953611631" lon="15.239163675504509"><ele>752.25</ele><time>2026-04-26T10:36:54.999Z</time></trkpt><trkpt lat="38.04583851868665" lon="15.239152856727642"><ele>755.5</ele><time>2026-04-26T10:36:55.999Z</time></trkpt><trkpt lat="38.04595395446947" lon="15.239143424349248"><ele>758.75</ele><time>2026-04-26T10:36:56.999Z</time></trkpt><trkpt lat="38.04606184046674" lon="15.239108930765585"><ele>762.0</ele><time>2026-04-26T10:36:57.999Z</time></trkpt><trkpt lat="38.04616993361991" lon="15.239069532740757"><ele>762.0</ele><time>2026-04-26T10:36:58.999Z</time></trkpt><trkpt lat="38.046268736823976" lon="15.23904490310656"><ele>762.0</ele><time>2026-04-26T10:36:59.999Z</time></trkpt><trkpt lat="38.04638319770696" lon="15.239027947399702"><ele>762.0</ele><time>2026-04-26T10:37:00.999Z</time></trkpt><trkpt lat="38.04649728682973" lon="15.23902578317496"><ele>762.0</ele><time>2026-04-26T10:37:01.999Z</time></trkpt><trkpt lat="38.04661255286266" lon="15.239024309536452"><ele>762.0</ele><time>2026-04-26T10:37:02.999Z</time></trkpt><trkpt lat="38.04673081721045" lon="15.239006962896093"><ele>764.8</ele><time>2026-04-26T10:37:03.999Z</time></trkpt><trkpt lat="38.04683050844567" lon="15.238996145564885"><ele>767.6</ele><time>2026-04-26T10:37:04.999Z</time></trkpt><trkpt lat="38.04693307290263" lon="15.239003288460134"><ele>770.4</ele><time>2026-04-26T10:37:05.999Z</time></trkpt><trkpt lat="38.04702467587163" lon="15.239022172891994"><ele>773.1999999999999</ele><time>2026-04-26T10:37:06.999Z</time></trkpt><trkpt lat="38.04713303357495" lon="15.239064358183418"><ele>776.0</ele><time>2026-04-26T10:37:07.999Z</time></trkpt><trkpt lat="38.047218850521894" lon="15.239103030583548"><ele>776.0000000000001</ele><time>2026-04-26T10:37:08.999Z</time></trkpt><trkpt lat="38.04728396231424" lon="15.239137727682134"><ele>776.0</ele><time>2026-04-26T10:37:09.999Z</time></trkpt><trkpt lat="38.047335316292234" lon="15.239238215334572"><ele>776.0</ele><time>2026-04-26T10:37:11.999Z</time></trkpt><trkpt lat="38.047359028824275" lon="15.239336799577867"><ele>776.0</ele><time>2026-04-26T10:37:12.999Z</time></trkpt><trkpt lat="38.04738739398403" lon="15.239449422842426"><ele>776.0000000000001</ele><time>2026-04-26T10:37:13.999Z</time></trkpt><trkpt lat="38.04742252236634" lon="15.239575616124151"><ele>776.0</ele><time>2026-04-26T10:37:14.999Z</time></trkpt><trkpt lat="38.04746177921194" lon="15.239721178588699"><ele>780.4</ele><time>2026-04-26T10:37:15.999Z</time></trkpt><trkpt lat="38.047512534155246" lon="15.239853891018804"><ele>784.8</ele><time>2026-04-26T10:37:16.999Z</time></trkpt><trkpt lat="38.047568334385886" lon="15.239952949589705"><ele>789.1999999999999</ele><time>2026-04-26T10:37:17.999Z</time></trkpt><trkpt lat="38.04761802000277" lon="15.240044948002495"><ele>793.5999999999999</ele><time>2026-04-26T10:37:18.999Z</time></trkpt><trkpt lat="38.047678446551735" lon="15.240134482584644"><ele>798.0</ele><time>2026-04-26T10:37:19.999Z</time></trkpt><trkpt lat="38.0477462969513" lon="15.24020490686349"><ele>798.0</ele><time>2026-04-26T10:37:20.999Z</time></trkpt><trkpt lat="38.047812656723664" lon="15.240245760380754"><ele>798.0</ele><time>2026-04-26T10:37:21.999Z</time></trkpt><trkpt lat="38.04789456411046" lon="15.240245507708376"><ele>798.0</ele><time>2026-04-26T10:37:22.999Z</time></trkpt><trkpt lat="38.04800538065752" lon="15.240223748682608"><ele>798.0</ele><time>2026-04-26T10:37:23.999Z</time></trkpt><trkpt lat="38.048105171142836" lon="15.240212176046947"><ele>798.0</ele><time>2026-04-26T10:37:24.999Z</time></trkpt><trkpt lat="38.048189281253855" lon="15.240239571167397"><ele>798.0</ele><time>2026-04-26T10:37:25.999Z</time></trkpt><trkpt lat="38.04825540967652" lon="15.240295591547872"><ele>798.0</ele><time>2026-04-26T10:37:26.999Z</time></trkpt><trkpt lat="38.04830471000157" lon="15.240360679409523"><ele>798.0</ele><time>2026-04-26T10:37:27.999Z</time></trkpt><trkpt lat="38.04836542070772" lon="15.240471294043106"><ele>798.0</ele><time>2026-04-26T10:37:28.999Z</time></trkpt><trkpt lat="38.048445464594174" lon="15.240597444385536"><ele>798.0</ele><time>2026-04-26T10:37:29.999Z</time></trkpt><trkpt lat="38.04853198790192" lon="15.240729849203206"><ele>801.0</ele><time>2026-04-26T10:37:30.999Z</time></trkpt><trkpt lat="38.0486077390387" lon="15.240857332863827"><ele>804.0</ele><time>2026-04-26T10:37:31.999Z</time></trkpt><trkpt lat="38.04869282775123" lon="15.240978540342061"><ele>807.0</ele><time>2026-04-26T10:37:32.999Z</time></trkpt><trkpt lat="38.048767793808835" lon="15.241097543280528"><ele>810.0</ele><time>2026-04-26T10:37:33.999Z</time></trkpt><trkpt lat="38.048837210832545" lon="15.241218211110972"><ele>810.0</ele><time>2026-04-26T10:37:34.999Z</time></trkpt><trkpt lat="38.048892621043784" lon="15.241325434002631"><ele>810.0</ele><time>2026-04-26T10:37:35.999Z</time></trkpt><trkpt lat="38.04896240938573" lon="15.241424474566335"><ele>810.0</ele><time>2026-04-26T10:37:36.999Z</time></trkpt><trkpt lat="38.04906859556563" lon="15.241512457381608"><ele>810.0</ele><time>2026-04-26T10:37:37.999Z</time></trkpt><trkpt lat="38.049157544880956" lon="15.241598308995613"><ele>810.0</ele><time>2026-04-26T10:37:38.999Z</time></trkpt><trkpt lat="38.04925674683664" lon="15.241691070503837"><ele>810.4</ele><time>2026-04-26T10:37:39.999Z</time></trkpt><trkpt lat="38.04934365478002" lon="15.241780429251008"><ele>810.8</ele><time>2026-04-26T10:37:40.999Z</time></trkpt><trkpt lat="38.04941236339158" lon="15.241879178232502"><ele>811.2</ele><time>2026-04-26T10:37:41.999Z</time></trkpt><trkpt lat="38.04945548277997" lon="15.242000820381621"><ele>811.6</ele><time>2026-04-26T10:37:42.999Z</time></trkpt><trkpt lat="38.04949975569981" lon="15.242098988052687"><ele>812.0</ele><time>2026-04-26T10:37:43.999Z</time></trkpt><trkpt lat="38.04954613991519" lon="15.242183870372912"><ele>812.0000000000001</ele><time>2026-04-26T10:37:44.999Z</time></trkpt><trkpt lat="38.04957599168889" lon="15.24225454545513"><ele>812.0</ele><time>2026-04-26T10:37:45.999Z</time></trkpt><trkpt lat="38.049652053262484" lon="15.242337006647341"><ele>812.0</ele><time>2026-04-26T10:37:46.999Z</time></trkpt><trkpt lat="38.04972803593999" lon="15.242413192547208"><ele>812.0</ele><time>2026-04-26T10:37:47.999Z</time></trkpt><trkpt lat="38.04981272795809" lon="15.242478648580274"><ele>812.0000000000001</ele><time>2026-04-26T10:37:49.999Z</time></trkpt><trkpt lat="38.049878870238786" lon="15.242494464739744"><ele>812.0</ele><time>2026-04-26T10:37:51.999Z</time></trkpt><trkpt lat="38.04998016247553" lon="15.242495982615482"><ele>815.0000000000001</ele><time>2026-04-26T10:38:35Z</time></trkpt><trkpt lat="38.05006436662688" lon="15.24252056618539"><ele>818.0</ele><time>2026-04-26T10:38:36Z</time></trkpt><trkpt lat="38.0501426747844" lon="15.242547624924471"><ele>821.0</ele><time>2026-04-26T10:38:37Z</time></trkpt><trkpt lat="38.050238196299155" lon="15.242553676102931"><ele>824.0</ele><time>2026-04-26T10:38:38Z</time></trkpt><trkpt lat="38.05031963012281" lon="15.242523101762501"><ele>827.0000000000001</ele><time>2026-04-26T10:38:39Z</time></trkpt><trkpt lat="38.05040583964993" lon="15.2424863194431"><ele>830.0</ele><time>2026-04-26T10:38:40Z</time></trkpt><trkpt lat="38.05049874153344" lon="15.242465176727983"><ele>830.0000000000001</ele><time>2026-04-26T10:38:41Z</time></trkpt><trkpt lat="38.050571554616695" lon="15.242426676846053"><ele>830.0</ele><time>2026-04-26T10:38:42Z</time></trkpt><trkpt lat="38.05064285100583" lon="15.242414885076176"><ele>830.0</ele><time>2026-04-26T10:38:43Z</time></trkpt><trkpt lat="38.0507105370021" lon="15.242441696845113"><ele>830.0</ele><time>2026-04-26T10:38:44Z</time></trkpt><trkpt lat="38.050833531287374" lon="15.24250263573616"><ele>830.0000000000001</ele><time>2026-04-26T10:38:46Z</time></trkpt><trkpt lat="38.05090077490951" lon="15.242516508857655"><ele>830.0</ele><time>2026-04-26T10:38:47Z</time></trkpt><trkpt lat="38.05097143585973" lon="15.242531289271275"><ele>831.1666666666667</ele><time>2026-04-26T10:38:48Z</time></trkpt><trkpt lat="38.0510389522537" lon="15.242556913634328"><ele>832.3333333333334</ele><time>2026-04-26T10:38:49Z</time></trkpt><trkpt lat="38.05109426057806" lon="15.242601133230798"><ele>833.5</ele><time>2026-04-26T10:38:50Z</time></trkpt><trkpt lat="38.05114756872604" lon="15.242667766900894"><ele>834.6666666666667</ele><time>2026-04-26T10:38:51Z</time></trkpt><trkpt lat="38.05119233618494" lon="15.242731037215657"><ele>835.8333333333334</ele><time>2026-04-26T10:38:52Z</time></trkpt><trkpt lat="38.05129415017655" lon="15.242788545270955"><ele>837.0</ele><time>2026-04-26T10:38:54Z</time></trkpt><trkpt lat="38.05135745568252" lon="15.242682897407658"><ele>837.0</ele><time>2026-04-26T10:38:56Z</time></trkpt><trkpt lat="38.0513785513976" lon="15.242511534557153"><ele>837.0</ele><time>2026-04-26T10:38:58Z</time></trkpt><trkpt lat="38.051413368512335" lon="15.242431198103326"><ele>837.0</ele><time>2026-04-26T10:38:59Z</time></trkpt><trkpt lat="38.05146045451468" lon="15.242340630534722"><ele>837.0</ele><time>2026-04-26T10:39:01Z</time></trkpt><trkpt lat="38.05143970362775" lon="15.242231602235718"><ele>837.0</ele><time>2026-04-26T10:39:02Z</time></trkpt><trkpt lat="38.05140064836097" lon="15.24212008969547"><ele>832.8</ele><time>2026-04-26T10:39:03Z</time></trkpt><trkpt lat="38.051370245420564" lon="15.242020997364842"><ele>828.6</ele><time>2026-04-26T10:39:03.999Z</time></trkpt><trkpt lat="38.05133190346747" lon="15.241902233088366"><ele>824.4</ele><time>2026-04-26T10:39:04.999Z</time></trkpt><trkpt lat="38.05127737301444" lon="15.241758370012107"><ele>820.1999999999999</ele><time>2026-04-26T10:39:05.999Z</time></trkpt><trkpt lat="38.051222553466026" lon="15.24161920996243"><ele>816.0</ele><time>2026-04-26T10:39:06.999Z</time></trkpt><trkpt lat="38.05120006740549" lon="15.241501916584166"><ele>816.4</ele><time>2026-04-26T10:39:07.999Z</time></trkpt><trkpt lat="38.05115283040026" lon="15.241388364829643"><ele>816.8</ele><time>2026-04-26T10:39:08.999Z</time></trkpt><trkpt lat="38.0511392409582" lon="15.241267044144267"><ele>817.1999999999999</ele><time>2026-04-26T10:39:09.999Z</time></trkpt><trkpt lat="38.05113972023485" lon="15.24115226099993"><ele>817.5999999999999</ele><time>2026-04-26T10:39:10.999Z</time></trkpt><trkpt lat="38.05115499680102" lon="15.241046587916298"><ele>818.0</ele><time>2026-04-26T10:39:11.999Z</time></trkpt><trkpt lat="38.05118471203681" lon="15.240925878367701"><ele>818.0</ele><time>2026-04-26T10:39:12.999Z</time></trkpt><trkpt lat="38.051207742737446" lon="15.240812323996437"><ele>818.0</ele><time>2026-04-26T10:39:13.999Z</time></trkpt><trkpt lat="38.05121601425038" lon="15.240681952364097"><ele>818.0</ele><time>2026-04-26T10:39:14.999Z</time></trkpt><trkpt lat="38.051217691914424" lon="15.240543768876268"><ele>818.0</ele><time>2026-04-26T10:39:15.999Z</time></trkpt><trkpt lat="38.051225315107786" lon="15.240417612829782"><ele>818.0</ele><time>2026-04-26T10:39:16.999Z</time></trkpt><trkpt lat="38.05123791651759" lon="15.240280659049072"><ele>818.0</ele><time>2026-04-26T10:39:17.999Z</time></trkpt><trkpt lat="38.05123384966799" lon="15.24015777899954"><ele>818.0</ele><time>2026-04-26T10:39:18.999Z</time></trkpt><trkpt lat="38.051223015471656" lon="15.240071553841524"><ele>818.0</ele><time>2026-04-26T10:39:19.999Z</time></trkpt><trkpt lat="38.05122048410394" lon="15.23996691277595"><ele>818.0</ele><time>2026-04-26T10:39:20.999Z</time></trkpt><trkpt lat="38.05130392307916" lon="15.239844861007999"><ele>818.0</ele><time>2026-04-26T10:39:22.999Z</time></trkpt><trkpt lat="38.051361380451446" lon="15.23974557036903"><ele>815.8</ele><time>2026-04-26T10:39:23.999Z</time></trkpt><trkpt lat="38.05145013805589" lon="15.239615493520093"><ele>813.5999999999999</ele><time>2026-04-26T10:39:24.999Z</time></trkpt><trkpt lat="38.051520054859424" lon="15.239497289722395"><ele>811.4000000000001</ele><time>2026-04-26T10:39:25.999Z</time></trkpt><trkpt lat="38.051598368462464" lon="15.239431964887169"><ele>809.2</ele><time>2026-04-26T10:39:26.999Z</time></trkpt><trkpt lat="38.05168070114963" lon="15.239406439974722"><ele>807.0</ele><time>2026-04-26T10:39:27.999Z</time></trkpt><trkpt lat="38.05176423801117" lon="15.23939894063138"><ele>814.2</ele><time>2026-04-26T10:39:28.999Z</time></trkpt><trkpt lat="38.05185456343122" lon="15.239393753315477"><ele>821.4000000000001</ele><time>2026-04-26T10:39:29.999Z</time></trkpt><trkpt lat="38.0519548155426" lon="15.239370732027906"><ele>828.5999999999999</ele><time>2026-04-26T10:39:30.999Z</time></trkpt><trkpt lat="38.05203216773485" lon="15.239266030516085"><ele>835.8</ele><time>2026-04-26T10:39:32.999Z</time></trkpt><trkpt lat="38.052020646565076" lon="15.239138612005316"><ele>843.0</ele><time>2026-04-26T10:39:34.999Z</time></trkpt><trkpt lat="38.05199807990037" lon="15.238987626584388"><ele>840.5999999999999</ele><time>2026-04-26T10:39:35.999Z</time></trkpt><trkpt lat="38.05199800146033" lon="15.238801621007354"><ele>838.1999999999999</ele><time>2026-04-26T10:39:36.999Z</time></trkpt><trkpt lat="38.052019112512525" lon="15.238674190684586"><ele>835.8</ele><time>2026-04-26T10:39:37.999Z</time></trkpt><trkpt lat="38.05209456337954" lon="15.23856808526007"><ele>833.4</ele><time>2026-04-26T10:39:39.999Z</time></trkpt><trkpt lat="38.05216173724094" lon="15.238558435115728"><ele>831.0</ele><time>2026-04-26T10:39:40.999Z</time></trkpt><trkpt lat="38.052234573678696" lon="15.238563503338362"><ele>831.0</ele><time>2026-04-26T10:39:41.999Z</time></trkpt><trkpt lat="38.052276148771426" lon="15.238435324171768"><ele>831.0</ele><time>2026-04-26T10:39:43.999Z</time></trkpt><trkpt lat="38.052244905304704" lon="15.238350792501402"><ele>831.0</ele><time>2026-04-26T10:39:44.999Z</time></trkpt><trkpt lat="38.05220500732823" lon="15.238249770978653"><ele>831.0</ele><time>2026-04-26T10:39:45.999Z</time></trkpt><trkpt lat="38.052180167232784" lon="15.238134461461014"><ele>831.0</ele><time>2026-04-26T10:39:46.999Z</time></trkpt><trkpt lat="38.05218637078146" lon="15.238002222236414"><ele>831.1999999999999</ele><time>2026-04-26T10:39:47.999Z</time></trkpt><trkpt lat="38.05220008405924" lon="15.237852394255803"><ele>831.4</ele><time>2026-04-26T10:39:48.999Z</time></trkpt><trkpt lat="38.05221148879259" lon="15.23771611485952"><ele>831.6</ele><time>2026-04-26T10:39:49.999Z</time></trkpt><trkpt lat="38.05222206636875" lon="15.237630815804199"><ele>831.8</ele><time>2026-04-26T10:39:50.999Z</time></trkpt><trkpt lat="38.052302285087514" lon="15.23757788787013"><ele>832.0</ele><time>2026-04-26T10:39:52.999Z</time></trkpt><trkpt lat="38.05243502972739" lon="15.237614433165467"><ele>835.8</ele><time>2026-04-26T10:39:54.999Z</time></trkpt><trkpt lat="38.052531173263816" lon="15.237668864487118"><ele>839.6</ele><time>2026-04-26T10:39:55.999Z</time></trkpt><trkpt lat="38.052624503061445" lon="15.237740547054468"><ele>843.4</ele><time>2026-04-26T10:39:56.999Z</time></trkpt><trkpt lat="38.052696089118236" lon="15.237830375623687"><ele>847.1999999999999</ele><time>2026-04-26T10:39:57.999Z</time></trkpt><trkpt lat="38.052754750781574" lon="15.237908966491318"><ele>851.0</ele><time>2026-04-26T10:39:58.999Z</time></trkpt><trkpt lat="38.052829131662094" lon="15.237965657203107"><ele>851.0000000000001</ele><time>2026-04-26T10:39:59.999Z</time></trkpt><trkpt lat="38.05291476576638" lon="15.237985081967398"><ele>851.0</ele><time>2026-04-26T10:40:00.999Z</time></trkpt><trkpt lat="38.05300349821132" lon="15.23797614929113"><ele>851.0</ele><time>2026-04-26T10:40:01.999Z</time></trkpt><trkpt lat="38.05308436368339" lon="15.237922109464991"><ele>851.0</ele><time>2026-04-26T10:40:02.999Z</time></trkpt><trkpt lat="38.053174458435834" lon="15.237880854944649"><ele>851.0000000000001</ele><time>2026-04-26T10:40:03.999Z</time></trkpt><trkpt lat="38.05325031925744" lon="15.237898907414065"><ele>851.0</ele><time>2026-04-26T10:40:04.999Z</time></trkpt><trkpt lat="38.05332713113967" lon="15.237929664054686"><ele>850.5999999999999</ele><time>2026-04-26T10:40:06.999Z</time></trkpt><trkpt lat="38.05344195276715" lon="15.237817693305834"><ele>850.2</ele><time>2026-04-26T10:40:07.999Z</time></trkpt><trkpt lat="38.05351939957741" lon="15.23780356239883"><ele>849.8</ele><time>2026-04-26T10:40:08.999Z</time></trkpt><trkpt lat="38.05360002514089" lon="15.237847319851445"><ele>849.4000000000001</ele><time>2026-04-26T10:40:09.999Z</time></trkpt><trkpt lat="38.05369098337618" lon="15.237841348376863"><ele>849.0</ele><time>2026-04-26T10:40:10.999Z</time></trkpt><trkpt lat="38.053761672183555" lon="15.237793735830406"><ele>849.0</ele><time>2026-04-26T10:40:11.999Z</time></trkpt><trkpt lat="38.05381309121031" lon="15.23764860571"><ele>849.0</ele><time>2026-04-26T10:40:13.999Z</time></trkpt><trkpt lat="38.05381251720506" lon="15.237510560915545"><ele>849.0</ele><time>2026-04-26T10:40:14.999Z</time></trkpt><trkpt lat="38.053815901571966" lon="15.237382307929572"><ele>849.0</ele><time>2026-04-26T10:40:15.999Z</time></trkpt><trkpt lat="38.05382422001413" lon="15.237265922180198"><ele>849.0</ele><time>2026-04-26T10:40:16.999Z</time></trkpt><trkpt lat="38.053891518323084" lon="15.237164996562312"><ele>851.2</ele><time>2026-04-26T10:40:17.999Z</time></trkpt><trkpt lat="38.05397275266968" lon="15.23703548815733"><ele>853.4000000000001</ele><time>2026-04-26T10:40:18.999Z</time></trkpt><trkpt lat="38.05400995759244" lon="15.23691831923571"><ele>855.6</ele><time>2026-04-26T10:40:19.999Z</time></trkpt><trkpt lat="38.054033982515065" lon="15.236831756777171"><ele>857.8</ele><time>2026-04-26T10:40:20.999Z</time></trkpt><trkpt lat="38.054131509337545" lon="15.23675788071754"><ele>860.0</ele><time>2026-04-26T10:40:22.999Z</time></trkpt><trkpt lat="38.054239761436115" lon="15.236722251991507"><ele>860.0</ele><time>2026-04-26T10:40:23.999Z</time></trkpt><trkpt lat="38.05433973593733" lon="15.236678982580354"><ele>860.0</ele><time>2026-04-26T10:40:24.999Z</time></trkpt><trkpt lat="38.05440741686165" lon="15.23661286340665"><ele>860.0</ele><time>2026-04-26T10:40:25.999Z</time></trkpt><trkpt lat="38.05446370663305" lon="15.236553810469106"><ele>860.0</ele><time>2026-04-26T10:40:26.999Z</time></trkpt><trkpt lat="38.05457628750458" lon="15.23657958499753"><ele>860.0</ele><time>2026-04-26T10:40:28.999Z</time></trkpt><trkpt lat="38.05464573882597" lon="15.236637133482569"><ele>860.0</ele><time>2026-04-26T10:40:29.999Z</time></trkpt><trkpt lat="38.05471068240893" lon="15.236705769443045"><ele>860.0</ele><time>2026-04-26T10:40:30.999Z</time></trkpt><trkpt lat="38.05478319776948" lon="15.236779648125808"><ele>860.0</ele><time>2026-04-26T10:40:32Z</time></trkpt><trkpt lat="38.05485667476266" lon="15.236845814557785"><ele>860.0</ele><time>2026-04-26T10:40:33Z</time></trkpt><trkpt lat="38.05492854220035" lon="15.2369113098384"><ele>860.0</ele><time>2026-04-26T10:40:34Z</time></trkpt><trkpt lat="38.0550059030259" lon="15.23701655877436"><ele>860.3333333333334</ele><time>2026-04-26T10:40:36Z</time></trkpt><trkpt lat="38.0550266979004" lon="15.237112233278383"><ele>860.6666666666667</ele><time>2026-04-26T10:40:38Z</time></trkpt><trkpt lat="38.055105356105024" lon="15.237144844345694"><ele>861.0</ele><time>2026-04-26T10:40:40Z</time></trkpt><trkpt lat="38.05516865768606" lon="15.23709441705225"><ele>861.3333333333333</ele><time>2026-04-26T10:40:42Z</time></trkpt><trkpt lat="38.05521820511528" lon="15.23703914201431"><ele>861.6666666666666</ele><time>2026-04-26T10:40:43Z</time></trkpt><trkpt lat="38.05527990734737" lon="15.236980946099317"><ele>862.0</ele><time>2026-04-26T10:40:44Z</time></trkpt><trkpt lat="38.055348721901694" lon="15.236954624076185"><ele>861.9999999999999</ele><time>2026-04-26T10:40:45Z</time></trkpt><trkpt lat="38.05543546954791" lon="15.23695089067267"><ele>862.0</ele><time>2026-04-26T10:40:46Z</time></trkpt><trkpt lat="38.05550334567622" lon="15.236939736297717"><ele>862.0</ele><time>2026-04-26T10:40:47Z</time></trkpt><trkpt lat="38.05559873070966" lon="15.236886716293219"><ele>862.0</ele><time>2026-04-26T10:40:49Z</time></trkpt><trkpt lat="38.05568509681982" lon="15.236845736889123"><ele>861.9999999999999</ele><time>2026-04-26T10:40:50Z</time></trkpt><trkpt lat="38.05577402639734" lon="15.236866030695838"><ele>862.0</ele><time>2026-04-26T10:40:51Z</time></trkpt><trkpt lat="38.0558778866888" lon="15.236910526256475"><ele>863.0</ele><time>2026-04-26T10:40:52Z</time></trkpt><trkpt lat="38.05599270193515" lon="15.236924533595635"><ele>864.0</ele><time>2026-04-26T10:40:53Z</time></trkpt><trkpt lat="38.05608563990875" lon="15.23696027223274"><ele>865.0</ele><time>2026-04-26T10:40:54Z</time></trkpt><trkpt lat="38.05615563812087" lon="15.237010563634552"><ele>866.0</ele><time>2026-04-26T10:40:55Z</time></trkpt><trkpt lat="38.05621832759444" lon="15.237084035474275"><ele>867.0</ele><time>2026-04-26T10:40:56Z</time></trkpt><trkpt lat="38.05629725698952" lon="15.237075970006867"><ele>867.0</ele><time>2026-04-26T10:40:57Z</time></trkpt><trkpt lat="38.05637742023503" lon="15.23703739812101"><ele>867.0</ele><time>2026-04-26T10:40:58Z</time></trkpt><trkpt lat="38.05648490124712" lon="15.237006148337953"><ele>867.0</ele><time>2026-04-26T10:40:59Z</time></trkpt><trkpt lat="38.05659669864142" lon="15.236937965211313"><ele>867.0</ele><time>2026-04-26T10:41:00Z</time></trkpt><trkpt lat="38.05669878815326" lon="15.236909265880836"><ele>867.0</ele><time>2026-04-26T10:41:01Z</time></trkpt><trkpt lat="38.05681279542242" lon="15.236896188566913"><ele>867.1666666666666</ele><time>2026-04-26T10:41:03Z</time></trkpt><trkpt lat="38.05689032529331" lon="15.236894450091208"><ele>867.3333333333333</ele><time>2026-04-26T10:41:04Z</time></trkpt><trkpt lat="38.05698452778588" lon="15.236869208140602"><ele>867.5</ele><time>2026-04-26T10:41:05Z</time></trkpt><trkpt lat="38.05706556542126" lon="15.236821106533982"><ele>867.6666666666666</ele><time>2026-04-26T10:41:06Z</time></trkpt><trkpt lat="38.057158919216604" lon="15.236790053577764"><ele>867.8333333333333</ele><time>2026-04-26T10:41:07Z</time></trkpt><trkpt lat="38.0572225610627" lon="15.236728861698346"><ele>868.0</ele><time>2026-04-26T10:41:08Z</time></trkpt><trkpt lat="38.05728980043367" lon="15.23667746845525"><ele>867.9999999999999</ele><time>2026-04-26T10:41:09Z</time></trkpt><trkpt lat="38.05736604606703" lon="15.23669640841818"><ele>868.0</ele><time>2026-04-26T10:41:10Z</time></trkpt><trkpt lat="38.05745321879745" lon="15.236729171070683"><ele>868.0</ele><time>2026-04-26T10:41:11Z</time></trkpt><trkpt lat="38.05753276745355" lon="15.236758627751037"><ele>868.0</ele><time>2026-04-26T10:41:12Z</time></trkpt><trkpt lat="38.057604358620246" lon="15.236808674846033"><ele>867.9999999999999</ele><time>2026-04-26T10:41:13Z</time></trkpt><trkpt lat="38.057713991595634" lon="15.236775440527198"><ele>868.0</ele><time>2026-04-26T10:41:14Z</time></trkpt><trkpt lat="38.057795307110034" lon="15.23678450764828"><ele>870.0</ele><time>2026-04-26T10:41:15Z</time></trkpt><trkpt lat="38.057861231422336" lon="15.236822675919601"><ele>872.0</ele><time>2026-04-26T10:41:16Z</time></trkpt><trkpt lat="38.057885474664594" lon="15.236915408903851"><ele>874.0</ele><time>2026-04-26T10:41:17Z</time></trkpt><trkpt lat="38.05796521314924" lon="15.236983781128563"><ele>876.0</ele><time>2026-04-26T10:41:17.999Z</time></trkpt><trkpt lat="38.058051310326015" lon="15.237109250826753"><ele>878.0</ele><time>2026-04-26T10:41:18.999Z</time></trkpt><trkpt lat="38.05814633223514" lon="15.237220110056642"><ele>880.1666666666667</ele><time>2026-04-26T10:41:19.999Z</time></trkpt><trkpt lat="38.05822839862472" lon="15.237315355216685"><ele>882.3333333333334</ele><time>2026-04-26T10:41:20.999Z</time></trkpt><trkpt lat="38.05828549200198" lon="15.237392552516237"><ele>884.5</ele><time>2026-04-26T10:41:21.999Z</time></trkpt><trkpt lat="38.05835158035744" lon="15.23745779677619"><ele>886.6666666666667</ele><time>2026-04-26T10:41:22.999Z</time></trkpt><trkpt lat="38.05842202303025" lon="15.237522439951402"><ele>888.8333333333334</ele><time>2026-04-26T10:41:23.999Z</time></trkpt><trkpt lat="38.058485771688765" lon="15.23758007317572"><ele>891.0</ele><time>2026-04-26T10:41:24.999Z</time></trkpt><trkpt lat="38.058558656343656" lon="15.23765564058434"><ele>891.0</ele><time>2026-04-26T10:41:26.999Z</time></trkpt><trkpt lat="38.05865624521754" lon="15.237572420230473"><ele>891.0</ele><time>2026-04-26T10:41:28.999Z</time></trkpt><trkpt lat="38.058671345001" lon="15.237494281918323"><ele>891.0</ele><time>2026-04-26T10:41:29.999Z</time></trkpt><trkpt lat="38.05864308480055" lon="15.237421237552928"><ele>891.0</ele><time>2026-04-26T10:41:30.999Z</time></trkpt><trkpt lat="38.058587158440915" lon="15.237352163830236"><ele>891.0</ele><time>2026-04-26T10:41:31.999Z</time></trkpt><trkpt lat="38.05856266080898" lon="15.237270047649778"><ele>891.0</ele><time>2026-04-26T10:41:32.999Z</time></trkpt><trkpt lat="38.05853886463323" lon="15.237167677198338"><ele>889.0</ele><time>2026-04-26T10:41:33.999Z</time></trkpt><trkpt lat="38.0585141740633" lon="15.23704272399217"><ele>886.9999999999999</ele><time>2026-04-26T10:41:34.999Z</time></trkpt><trkpt lat="38.058499372372104" lon="15.236928656503848"><ele>884.9999999999999</ele><time>2026-04-26T10:41:35.999Z</time></trkpt><trkpt lat="38.05849783742234" lon="15.236831090785916"><ele>883.0</ele><time>2026-04-26T10:41:36.999Z</time></trkpt><trkpt lat="38.05853666202974" lon="15.236678962193524"><ele>881.0</ele><time>2026-04-26T10:41:38.999Z</time></trkpt><trkpt lat="38.058571953074164" lon="15.236602287324702"><ele>881.0</ele><time>2026-04-26T10:41:39.999Z</time></trkpt><trkpt lat="38.05860799399281" lon="15.236512831284813"><ele>880.9999999999999</ele><time>2026-04-26T10:41:40.999Z</time></trkpt><trkpt lat="38.05864108711078" lon="15.236413179290635"><ele>880.9999999999999</ele><time>2026-04-26T10:41:41.999Z</time></trkpt><trkpt lat="38.05869101819995" lon="15.236234367422277"><ele>881.0</ele><time>2026-04-26T10:41:43.999Z</time></trkpt><trkpt lat="38.05869773233232" lon="15.2361156433917"><ele>881.0</ele><time>2026-04-26T10:41:44.999Z</time></trkpt><trkpt lat="38.05872622689811" lon="15.236012844194713"><ele>880.4</ele><time>2026-04-26T10:41:45.999Z</time></trkpt><trkpt lat="38.05877776500202" lon="15.235893515657622"><ele>879.8</ele><time>2026-04-26T10:41:46.999Z</time></trkpt><trkpt lat="38.058848936918864" lon="15.235821842919195"><ele>879.1999999999999</ele><time>2026-04-26T10:41:47.999Z</time></trkpt><trkpt lat="38.05892366439382" lon="15.235734702767473"><ele>878.5999999999999</ele><time>2026-04-26T10:41:48.999Z</time></trkpt><trkpt lat="38.05900861286389" lon="15.235647102723012"><ele>878.0</ele><time>2026-04-26T10:41:49.999Z</time></trkpt><trkpt lat="38.059148943463455" lon="15.235684638037366"><ele>882.0</ele><time>2026-04-26T10:41:50.999Z</time></trkpt><trkpt lat="38.059253622775934" lon="15.235611593678524"><ele>886.0</ele><time>2026-04-26T10:41:51.999Z</time></trkpt><trkpt lat="38.059332721710575" lon="15.235530081629015"><ele>890.0</ele><time>2026-04-26T10:41:52.999Z</time></trkpt><trkpt lat="38.059348108704995" lon="15.235357297312794"><ele>894.0</ele><time>2026-04-26T10:41:53.999Z</time></trkpt><trkpt lat="38.05940131552713" lon="15.235245388120543"><ele>894.0</ele><time>2026-04-26T10:41:54.999Z</time></trkpt><trkpt lat="38.05945430507095" lon="15.235147805654982"><ele>894.0</ele><time>2026-04-26T10:41:55.999Z</time></trkpt><trkpt lat="38.059527789368985" lon="15.23508948851901"><ele>894.0</ele><time>2026-04-26T10:41:57.999Z</time></trkpt><trkpt lat="38.059555344279175" lon="15.235284690518752"><ele>894.0</ele><time>2026-04-26T10:42:00.999Z</time></trkpt><trkpt lat="38.059625519143445" lon="15.23541907606022"><ele>894.0</ele><time>2026-04-26T10:42:01.999Z</time></trkpt><trkpt lat="38.05968063051482" lon="15.235583009949192"><ele>894.0</ele><time>2026-04-26T10:42:02.999Z</time></trkpt><trkpt lat="38.05975504534012" lon="15.235758557655318"><ele>894.0</ele><time>2026-04-26T10:42:03.999Z</time></trkpt><trkpt lat="38.05983263498659" lon="15.235949205968684"><ele>894.25</ele><time>2026-04-26T10:42:04.999Z</time></trkpt><trkpt lat="38.059892931661935" lon="15.236101722784896"><ele>894.5</ele><time>2026-04-26T10:42:05.999Z</time></trkpt><trkpt lat="38.05998675175198" lon="15.236233958637014"><ele>894.75</ele><time>2026-04-26T10:42:06.999Z</time></trkpt><trkpt lat="38.06009950500803" lon="15.236382453888702"><ele>895.0</ele><time>2026-04-26T10:42:07.999Z</time></trkpt><trkpt lat="38.0602251214832" lon="15.236541343933602"><ele>896.25</ele><time>2026-04-26T10:42:08.999Z</time></trkpt><trkpt lat="38.06033600036831" lon="15.236660502440303"><ele>897.5</ele><time>2026-04-26T10:42:09.999Z</time></trkpt><trkpt lat="38.06042929389902" lon="15.236747903447746"><ele>898.75</ele><time>2026-04-26T10:42:10.999Z</time></trkpt><trkpt lat="38.06053178756286" lon="15.23684113947666"><ele>900.0</ele><time>2026-04-26T10:42:11.999Z</time></trkpt><trkpt lat="38.06062766180586" lon="15.236932109415418"><ele>900.0</ele><time>2026-04-26T10:42:12.999Z</time></trkpt><trkpt lat="38.06068604662917" lon="15.237047010328407"><ele>900.0</ele><time>2026-04-26T10:42:13.999Z</time></trkpt><trkpt lat="38.06073152470245" lon="15.237183809725554"><ele>900.0</ele><time>2026-04-26T10:42:14.999Z</time></trkpt><trkpt lat="38.06080418374555" lon="15.237304160452757"><ele>900.0</ele><time>2026-04-26T10:42:15.999Z</time></trkpt><trkpt lat="38.060859044371284" lon="15.23744931993415"><ele>902.0</ele><time>2026-04-26T10:42:16.999Z</time></trkpt><trkpt lat="38.060926786746755" lon="15.237583682648133"><ele>904.0</ele><time>2026-04-26T10:42:17.999Z</time></trkpt><trkpt lat="38.060930512503155" lon="15.237748064289868"><ele>906.0</ele><time>2026-04-26T10:42:18.999Z</time></trkpt><trkpt lat="38.060937047827615" lon="15.237912713471637"><ele>908.0</ele><time>2026-04-26T10:42:19.999Z</time></trkpt><trkpt lat="38.06095238738799" lon="15.238100600028625"><ele>907.75</ele><time>2026-04-26T10:42:20.999Z</time></trkpt><trkpt lat="38.060946687581634" lon="15.23829545724245"><ele>907.5</ele><time>2026-04-26T10:42:21.999Z</time></trkpt><trkpt lat="38.06093729080678" lon="15.238469973544028"><ele>907.25</ele><time>2026-04-26T10:42:22.999Z</time></trkpt><trkpt lat="38.06090031282548" lon="15.23866440666124"><ele>907.0</ele><time>2026-04-26T10:42:23.999Z</time></trkpt><trkpt lat="38.060882015655864" lon="15.238845390033246"><ele>907.4000000000001</ele><time>2026-04-26T10:42:24.999Z</time></trkpt><trkpt lat="38.060827297088835" lon="15.238999560272003"><ele>907.8000000000001</ele><time>2026-04-26T10:42:25.999Z</time></trkpt><trkpt lat="38.06077225418817" lon="15.239122591477027"><ele>908.2</ele><time>2026-04-26T10:42:26.999Z</time></trkpt><trkpt lat="38.06071876714107" lon="15.239224193906118"><ele>908.6</ele><time>2026-04-26T10:42:27.999Z</time></trkpt><trkpt lat="38.06067561448126" lon="15.23931411738511"><ele>909.0</ele><time>2026-04-26T10:42:28.999Z</time></trkpt><trkpt lat="38.06063941592479" lon="15.23938806239965"><ele>909.0</ele><time>2026-04-26T10:42:29.999Z</time></trkpt><trkpt lat="38.060595063931366" lon="15.239511808273857"><ele>909.0</ele><time>2026-04-26T10:42:31.999Z</time></trkpt><trkpt lat="38.06059798512248" lon="15.239599810838351"><ele>909.0</ele><time>2026-04-26T10:42:33.999Z</time></trkpt><trkpt lat="38.06074049583775" lon="15.23960941059095"><ele>909.0</ele><time>2026-04-26T10:42:34.999Z</time></trkpt><trkpt lat="38.06087536221551" lon="15.239608093531565"><ele>909.0</ele><time>2026-04-26T10:42:36.999Z</time></trkpt><trkpt lat="38.06096722411424" lon="15.239597349698842"><ele>909.0000000000001</ele><time>2026-04-26T10:42:38Z</time></trkpt><trkpt lat="38.06107400959592" lon="15.239575640908605"><ele>909.0000000000001</ele><time>2026-04-26T10:42:39Z</time></trkpt><trkpt lat="38.061202057865955" lon="15.239551005795912"><ele>909.0</ele><time>2026-04-26T10:42:40Z</time></trkpt><trkpt lat="38.06129477551922" lon="15.239548077574073"><ele>909.0</ele><time>2026-04-26T10:42:41Z</time></trkpt><trkpt lat="38.061360594317875" lon="15.239562070989662"><ele>909.0</ele><time>2026-04-26T10:42:42Z</time></trkpt><trkpt lat="38.061476732388286" lon="15.239558371468966"><ele>909.0000000000001</ele><time>2026-04-26T10:42:44Z</time></trkpt><trkpt lat="38.06158630178507" lon="15.239598780177472"><ele>909.0000000000001</ele><time>2026-04-26T10:42:46Z</time></trkpt><trkpt lat="38.061649981564045" lon="15.239626139033422"><ele>909.0</ele><time>2026-04-26T10:42:47Z</time></trkpt><trkpt lat="38.061730105794716" lon="15.239687056172972"><ele>909.0</ele><time>2026-04-26T10:42:48Z</time></trkpt><trkpt lat="38.06180907406866" lon="15.239714912929001"><ele>909.1666666666666</ele><time>2026-04-26T10:42:49Z</time></trkpt><trkpt lat="38.06188216811831" lon="15.239756789092292"><ele>909.3333333333333</ele><time>2026-04-26T10:42:50Z</time></trkpt><trkpt lat="38.061950705571704" lon="15.239793147080956"><ele>909.5</ele><time>2026-04-26T10:42:51Z</time></trkpt><trkpt lat="38.06201216952602" lon="15.239838199863705"><ele>909.6666666666666</ele><time>2026-04-26T10:42:52Z</time></trkpt><trkpt lat="38.06214267403085" lon="15.239910338117282"><ele>909.8333333333333</ele><time>2026-04-26T10:42:54Z</time></trkpt><trkpt lat="38.06220342813634" lon="15.239946366628908"><ele>910.0</ele><time>2026-04-26T10:42:55Z</time></trkpt><trkpt lat="38.06227172500751" lon="15.239982664114539"><ele>910.2</ele><time>2026-04-26T10:42:56Z</time></trkpt><trkpt lat="38.062331047115904" lon="15.240013939241573"><ele>910.4</ele><time>2026-04-26T10:42:57Z</time></trkpt><trkpt lat="38.06243033144159" lon="15.240094663168259"><ele>910.5999999999999</ele><time>2026-04-26T10:42:59Z</time></trkpt><trkpt lat="38.062540490433506" lon="15.240167339065565"><ele>910.8</ele><time>2026-04-26T10:43:01Z</time></trkpt><trkpt lat="38.06260919344296" lon="15.240224222203764"><ele>911.0</ele><time>2026-04-26T10:43:02Z</time></trkpt><trkpt lat="38.06267360319076" lon="15.240266693037693"><ele>911.8</ele><time>2026-04-26T10:43:03Z</time></trkpt><trkpt lat="38.06275623117271" lon="15.240328690102759"><ele>912.5999999999999</ele><time>2026-04-26T10:43:04Z</time></trkpt><trkpt lat="38.06284628292864" lon="15.240401315770663"><ele>913.4</ele><time>2026-04-26T10:43:05Z</time></trkpt><trkpt lat="38.06293238320657" lon="15.240474043850838"><ele>914.2</ele><time>2026-04-26T10:43:06Z</time></trkpt><trkpt lat="38.063018322562364" lon="15.24053984561194"><ele>915.0</ele><time>2026-04-26T10:43:07Z</time></trkpt><trkpt lat="38.06310958725105" lon="15.24060826895043"><ele>914.2</ele><time>2026-04-26T10:43:08Z</time></trkpt><trkpt lat="38.06319826710205" lon="15.240671367973297"><ele>913.4</ele><time>2026-04-26T10:43:09Z</time></trkpt><trkpt lat="38.063279984080765" lon="15.240734097524033"><ele>912.5999999999999</ele><time>2026-04-26T10:43:10Z</time></trkpt><trkpt lat="38.06336698119049" lon="15.240809520677194"><ele>911.8</ele><time>2026-04-26T10:43:11Z</time></trkpt><trkpt lat="38.063442701749906" lon="15.240860790642273"><ele>911.0</ele><time>2026-04-26T10:43:12Z</time></trkpt><trkpt lat="38.06352706982511" lon="15.240907740473165"><ele>913.25</ele><time>2026-04-26T10:43:13Z</time></trkpt><trkpt lat="38.063632035031816" lon="15.240952530134548"><ele>915.5</ele><time>2026-04-26T10:43:14Z</time></trkpt><trkpt lat="38.0637474228942" lon="15.240980781290888"><ele>917.75</ele><time>2026-04-26T10:43:15Z</time></trkpt><trkpt lat="38.06387104831727" lon="15.24099315805855"><ele>920.0</ele><time>2026-04-26T10:43:16Z</time></trkpt><trkpt lat="38.063980928278504" lon="15.240989214216949"><ele>920.0</ele><time>2026-04-26T10:43:17Z</time></trkpt><trkpt lat="38.06410279312001" lon="15.240973446474824"><ele>920.0</ele><time>2026-04-26T10:43:18Z</time></trkpt><trkpt lat="38.06422044959721" lon="15.240947872026554"><ele>920.0</ele><time>2026-04-26T10:43:19Z</time></trkpt><trkpt lat="38.06434269822018" lon="15.24090915191146"><ele>920.0</ele><time>2026-04-26T10:43:20Z</time></trkpt><trkpt lat="38.064461398206234" lon="15.240878982692495"><ele>921.2</ele><time>2026-04-26T10:43:21Z</time></trkpt><trkpt lat="38.064572263828154" lon="15.240856717545324"><ele>922.4</ele><time>2026-04-26T10:43:22Z</time></trkpt><trkpt lat="38.06467419886815" lon="15.240834452334969"><ele>923.5999999999999</ele><time>2026-04-26T10:43:23Z</time></trkpt><trkpt lat="38.06477502182396" lon="15.240844251349174"><ele>924.8</ele><time>2026-04-26T10:43:24Z</time></trkpt><trkpt lat="38.064844591480494" lon="15.240880499584252"><ele>926.0</ele><time>2026-04-26T10:43:25Z</time></trkpt><trkpt lat="38.06491923135213" lon="15.240948456391198"><ele>926.0</ele><time>2026-04-26T10:43:26Z</time></trkpt><trkpt lat="38.064939705800164" lon="15.241054847430156"><ele>925.9999999999999</ele><time>2026-04-26T10:43:27Z</time></trkpt><trkpt lat="38.064975414333695" lon="15.24116780975329"><ele>925.9999999999999</ele><time>2026-04-26T10:43:28Z</time></trkpt><trkpt lat="38.06502893191686" lon="15.241276084967813"><ele>926.0</ele><time>2026-04-26T10:43:29Z</time></trkpt><trkpt lat="38.06507943373561" lon="15.24141688683399"><ele>926.0</ele><time>2026-04-26T10:43:30Z</time></trkpt><trkpt lat="38.06514977873367" lon="15.241543130117297"><ele>928.75</ele><time>2026-04-26T10:43:31Z</time></trkpt><trkpt lat="38.06524588352809" lon="15.241658624789759"><ele>931.5</ele><time>2026-04-26T10:43:32Z</time></trkpt><trkpt lat="38.06535209070479" lon="15.241765895146063"><ele>934.25</ele><time>2026-04-26T10:43:33Z</time></trkpt><trkpt lat="38.06546523344317" lon="15.241868569509435"><ele>937.0</ele><time>2026-04-26T10:43:34Z</time></trkpt><trkpt lat="38.065582902935894" lon="15.241968701058088"><ele>937.0</ele><time>2026-04-26T10:43:34.999Z</time></trkpt><trkpt lat="38.06568099442558" lon="15.242081105337517"><ele>937.0</ele><time>2026-04-26T10:43:35.999Z</time></trkpt><trkpt lat="38.06580305144549" lon="15.242139320789702"><ele>937.0</ele><time>2026-04-26T10:43:36.999Z</time></trkpt><trkpt lat="38.06592172138518" lon="15.242198354893466"><ele>937.0</ele><time>2026-04-26T10:43:37.999Z</time></trkpt><trkpt lat="38.06604335409614" lon="15.242245772576624"><ele>938.5</ele><time>2026-04-26T10:43:38.999Z</time></trkpt><trkpt lat="38.066172903803604" lon="15.242267899975465"><ele>940.0</ele><time>2026-04-26T10:43:39.999Z</time></trkpt><trkpt lat="38.066301558941504" lon="15.242290282206158"><ele>941.5</ele><time>2026-04-26T10:43:40.999Z</time></trkpt><trkpt lat="38.06641921300973" lon="15.242327214422119"><ele>943.0</ele><time>2026-04-26T10:43:41.999Z</time></trkpt><trkpt lat="38.0665429880513" lon="15.242389624222945"><ele>943.25</ele><time>2026-04-26T10:43:42.999Z</time></trkpt><trkpt lat="38.066657152649455" lon="15.242449440707214"><ele>943.5</ele><time>2026-04-26T10:43:43.999Z</time></trkpt><trkpt lat="38.06677301812988" lon="15.242508489789744"><ele>943.75</ele><time>2026-04-26T10:43:44.999Z</time></trkpt><trkpt lat="38.066877194925006" lon="15.242564531538969"><ele>944.0</ele><time>2026-04-26T10:43:45.999Z</time></trkpt><trkpt lat="38.06697944142667" lon="15.242581333838046"><ele>944.0</ele><time>2026-04-26T10:43:46.999Z</time></trkpt><trkpt lat="38.06708042567305" lon="15.24258941886452"><ele>944.0000000000001</ele><time>2026-04-26T10:43:47.999Z</time></trkpt><trkpt lat="38.067178273427835" lon="15.242616000906274"><ele>944.0000000000001</ele><time>2026-04-26T10:43:48.999Z</time></trkpt><trkpt lat="38.067282042732266" lon="15.242668940636792"><ele>944.0</ele><time>2026-04-26T10:43:49.999Z</time></trkpt><trkpt lat="38.067394238228594" lon="15.24274613928391"><ele>944.0</ele><time>2026-04-26T10:43:50.999Z</time></trkpt><trkpt lat="38.06748684012833" lon="15.24283636195291"><ele>942.2</ele><time>2026-04-26T10:43:51.999Z</time></trkpt><trkpt lat="38.06756408044203" lon="15.242938631137866"><ele>940.4000000000001</ele><time>2026-04-26T10:43:52.999Z</time></trkpt><trkpt lat="38.06762840265001" lon="15.243046571905584"><ele>938.6</ele><time>2026-04-26T10:43:53.999Z</time></trkpt><trkpt lat="38.067698293811404" lon="15.24311412896652"><ele>936.8</ele><time>2026-04-26T10:43:54.999Z</time></trkpt><trkpt lat="38.06779909703099" lon="15.243148114928928"><ele>935.0</ele><time>2026-04-26T10:43:55.999Z</time></trkpt><trkpt lat="38.06793657950233" lon="15.243180822650631"><ele>935.0</ele><time>2026-04-26T10:43:56.999Z</time></trkpt><trkpt lat="38.06807522554367" lon="15.243206395835152"><ele>935.0</ele><time>2026-04-26T10:43:57.999Z</time></trkpt><trkpt lat="38.068211447542026" lon="15.243222871555716"><ele>935.0</ele><time>2026-04-26T10:43:58.999Z</time></trkpt><trkpt lat="38.06836579142239" lon="15.243238302070438"><ele>935.0</ele><time>2026-04-26T10:43:59.999Z</time></trkpt><trkpt lat="38.068521605516224" lon="15.24326135761866"><ele>936.0</ele><time>2026-04-26T10:44:00.999Z</time></trkpt><trkpt lat="38.06866455306307" lon="15.24329810756569"><ele>937.0</ele><time>2026-04-26T10:44:01.999Z</time></trkpt><trkpt lat="38.06880681377481" lon="15.243338447898148"><ele>938.0</ele><time>2026-04-26T10:44:02.999Z</time></trkpt><trkpt lat="38.068919620888494" lon="15.243394240862857"><ele>939.0</ele><time>2026-04-26T10:44:03.999Z</time></trkpt><trkpt lat="38.069024488907864" lon="15.243459501973495"><ele>941.5</ele><time>2026-04-26T10:44:04.999Z</time></trkpt><trkpt lat="38.06914671059612" lon="15.243497678674517"><ele>944.0</ele><time>2026-04-26T10:44:05.999Z</time></trkpt><trkpt lat="38.06927568089755" lon="15.243504550412181"><ele>946.5</ele><time>2026-04-26T10:44:06.999Z</time></trkpt><trkpt lat="38.06940828561457" lon="15.243498487305539"><ele>949.0</ele><time>2026-04-26T10:44:07.999Z</time></trkpt><trkpt lat="38.06954078024163" lon="15.243464634652263"><ele>949.0</ele><time>2026-04-26T10:44:08.999Z</time></trkpt><trkpt lat="38.0696818056826" lon="15.243421763199844"><ele>949.0</ele><time>2026-04-26T10:44:09.999Z</time></trkpt><trkpt lat="38.06980928118302" lon="15.243417596797553"><ele>949.0</ele><time>2026-04-26T10:44:10.999Z</time></trkpt><trkpt lat="38.06994725167102" lon="15.243397195254738"><ele>949.0</ele><time>2026-04-26T10:44:11.999Z</time></trkpt><trkpt lat="38.0700640047196" lon="15.243393228312028"><ele>950.2</ele><time>2026-04-26T10:44:12.999Z</time></trkpt><trkpt lat="38.07015164265569" lon="15.243417302625872"><ele>951.4000000000001</ele><time>2026-04-26T10:44:13.999Z</time></trkpt><trkpt lat="38.07024462367804" lon="15.243462255034776"><ele>952.6</ele><time>2026-04-26T10:44:14.999Z</time></trkpt><trkpt lat="38.070324925957976" lon="15.243510389747826"><ele>953.8</ele><time>2026-04-26T10:44:15.999Z</time></trkpt><trkpt lat="38.07039600240954" lon="15.243603363931859"><ele>955.0</ele><time>2026-04-26T10:44:16.999Z</time></trkpt><trkpt lat="38.070490906132854" lon="15.243666711769025"><ele>955.0</ele><time>2026-04-26T10:44:17.999Z</time></trkpt><trkpt lat="38.070583712316136" lon="15.243745682681899"><ele>955.0</ele><time>2026-04-26T10:44:18.999Z</time></trkpt><trkpt lat="38.07067094480472" lon="15.24377431859979"><ele>955.0</ele><time>2026-04-26T10:44:19.999Z</time></trkpt><trkpt lat="38.07078223309139" lon="15.243770025880067"><ele>955.0</ele><time>2026-04-26T10:44:20.999Z</time></trkpt><trkpt lat="38.07089505521724" lon="15.243796883991047"><ele>955.0</ele><time>2026-04-26T10:44:21.999Z</time></trkpt><trkpt lat="38.070974788197866" lon="15.243892610630125"><ele>952.4</ele><time>2026-04-26T10:44:22.999Z</time></trkpt><trkpt lat="38.07106247208154" lon="15.243943449305684"><ele>949.8</ele><time>2026-04-26T10:44:23.999Z</time></trkpt><trkpt lat="38.07116249363607" lon="15.243943420279813"><ele>947.2</ele><time>2026-04-26T10:44:24.999Z</time></trkpt><trkpt lat="38.071259069761226" lon="15.243924357304563"><ele>944.6</ele><time>2026-04-26T10:44:25.999Z</time></trkpt><trkpt lat="38.07135906442854" lon="15.243908986189366"><ele>942.0</ele><time>2026-04-26T10:44:26.999Z</time></trkpt><trkpt lat="38.0714580930464" lon="15.243913696380337"><ele>942.0</ele><time>2026-04-26T10:44:27.999Z</time></trkpt><trkpt lat="38.071566895946624" lon="15.243939525850593"><ele>942.0</ele><time>2026-04-26T10:44:28.999Z</time></trkpt><trkpt lat="38.071673701276794" lon="15.243976415038054"><ele>942.0</ele><time>2026-04-26T10:44:29.999Z</time></trkpt><trkpt lat="38.07175809693229" lon="15.244022723567532"><ele>942.0</ele><time>2026-04-26T10:44:30.999Z</time></trkpt><trkpt lat="38.07184585605964" lon="15.244084991360385"><ele>942.0</ele><time>2026-04-26T10:44:31.999Z</time></trkpt><trkpt lat="38.07193359388786" lon="15.244149732599308"><ele>952.5</ele><time>2026-04-26T10:44:32.999Z</time></trkpt><trkpt lat="38.072029341449735" lon="15.244231429649915"><ele>963.0</ele><time>2026-04-26T10:44:33.999Z</time></trkpt><trkpt lat="38.0721339635419" lon="15.244305455384435"><ele>973.5</ele><time>2026-04-26T10:44:34.999Z</time></trkpt><trkpt lat="38.07222946328499" lon="15.244344976201562"><ele>984.0</ele><time>2026-04-26T10:44:35.999Z</time></trkpt><trkpt lat="38.07235065879809" lon="15.244351141136757"><ele>984.0</ele><time>2026-04-26T10:44:36.999Z</time></trkpt><trkpt lat="38.072438059820676" lon="15.244339686823384"><ele>984.0</ele><time>2026-04-26T10:44:37.999Z</time></trkpt><trkpt lat="38.072547742019786" lon="15.244321419645232"><ele>984.0</ele><time>2026-04-26T10:44:38.999Z</time></trkpt><trkpt lat="38.07264650717184" lon="15.24432316499699"><ele>984.0</ele><time>2026-04-26T10:44:39.999Z</time></trkpt><trkpt lat="38.07270785325856" lon="15.244367135940006"><ele>984.0</ele><time>2026-04-26T10:44:40.999Z</time></trkpt><trkpt lat="38.07274919581792" lon="15.244440634650017"><ele>984.0</ele><time>2026-04-26T10:44:41.999Z</time></trkpt><trkpt lat="38.072794857936024" lon="15.244554672256246"><ele>985.4000000000001</ele><time>2026-04-26T10:44:42.999Z</time></trkpt><trkpt lat="38.07284331549521" lon="15.244649543247775"><ele>986.8000000000001</ele><time>2026-04-26T10:44:44Z</time></trkpt><trkpt lat="38.07290385165938" lon="15.244765517833466"><ele>988.1999999999999</ele><time>2026-04-26T10:44:45Z</time></trkpt><trkpt lat="38.07298791174384" lon="15.244845469427995"><ele>989.5999999999999</ele><time>2026-04-26T10:44:46Z</time></trkpt><trkpt lat="38.07307740858919" lon="15.244902433188242"><ele>991.0</ele><time>2026-04-26T10:44:47Z</time></trkpt><trkpt lat="38.073153131174486" lon="15.244934616568926"><ele>992.1999999999999</ele><time>2026-04-26T10:44:48Z</time></trkpt><trkpt lat="38.07323104348463" lon="15.244949766402433"><ele>993.3999999999999</ele><time>2026-04-26T10:44:49Z</time></trkpt><trkpt lat="38.07329713746449" lon="15.244950940556505"><ele>994.6</ele><time>2026-04-26T10:44:50Z</time></trkpt><trkpt lat="38.07338689172855" lon="15.244983617831961"><ele>995.8</ele><time>2026-04-26T10:44:51Z</time></trkpt><trkpt lat="38.07349613590087" lon="15.244982109976725"><ele>997.0</ele><time>2026-04-26T10:44:52Z</time></trkpt><trkpt lat="38.073603265105355" lon="15.245011269522632"><ele>997.0</ele><time>2026-04-26T10:44:53Z</time></trkpt><trkpt lat="38.07369221826721" lon="15.245076894109626"><ele>997.0</ele><time>2026-04-26T10:44:54Z</time></trkpt><trkpt lat="38.07379459518515" lon="15.245113158040072"><ele>997.0</ele><time>2026-04-26T10:44:55Z</time></trkpt><trkpt lat="38.073888749170116" lon="15.245104172234202"><ele>997.0</ele><time>2026-04-26T10:44:56Z</time></trkpt><trkpt lat="38.073977655888456" lon="15.24504956843755"><ele>997.0</ele><time>2026-04-26T10:44:57Z</time></trkpt><trkpt lat="38.074055548299405" lon="15.244980709217602"><ele>997.1666666666666</ele><time>2026-04-26T10:44:58Z</time></trkpt><trkpt lat="38.074124226668964" lon="15.244911034175596"><ele>997.3333333333333</ele><time>2026-04-26T10:44:59Z</time></trkpt><trkpt lat="38.07421545552769" lon="15.244812996116941"><ele>997.5</ele><time>2026-04-26T10:45:01Z</time></trkpt><trkpt lat="38.07424972834399" lon="15.24472342129242"><ele>997.6666666666667</ele><time>2026-04-26T10:47:20Z</time></trkpt><trkpt lat="38.07427292851947" lon="15.244642224314639"><ele>997.8333333333334</ele><time>2026-04-26T10:48:00Z</time></trkpt><trkpt lat="38.074209212400824" lon="15.244634928789202"><ele>998.0</ele><time>2026-04-26T10:48:03Z</time></trkpt><trkpt lat="38.074445281326895" lon="15.24444799153085"><ele>993.0</ele><time>2026-04-26T10:49:10Z</time></trkpt><trkpt lat="38.07438290798991" lon="15.244319328990544"><ele>988.0</ele><time>2026-04-26T10:49:12Z</time></trkpt><trkpt lat="38.07461253033332" lon="15.244266500088264"><ele>983.0</ele><time>2026-04-26T10:49:14Z</time></trkpt><trkpt lat="38.07472113008476" lon="15.244195462180773"><ele>983.0000000000001</ele><time>2026-04-26T10:49:16Z</time></trkpt><trkpt lat="38.07484433318824" lon="15.244175464472898"><ele>983.0</ele><time>2026-04-26T10:49:18Z</time></trkpt><trkpt lat="38.07490814460814" lon="15.244184906548098"><ele>983.0</ele><time>2026-04-26T10:49:19Z</time></trkpt><trkpt lat="38.07498963406326" lon="15.244185950734536"><ele>983.0</ele><time>2026-04-26T10:49:20Z</time></trkpt><trkpt lat="38.07508383544557" lon="15.244168350641871"><ele>983.0000000000001</ele><time>2026-04-26T10:49:22Z</time></trkpt><trkpt lat="38.0751257145449" lon="15.24410068808287"><ele>983.0</ele><time>2026-04-26T10:49:24Z</time></trkpt><trkpt lat="38.07515800502809" lon="15.243988687497154"><ele>981.0</ele><time>2026-04-26T10:49:26Z</time></trkpt><trkpt lat="38.07512980362634" lon="15.243842797839973"><ele>979.0</ele><time>2026-04-26T10:49:28Z</time></trkpt><trkpt lat="38.075098145313596" lon="15.243762424804563"><ele>977.0</ele><time>2026-04-26T10:49:29Z</time></trkpt><trkpt lat="38.075057346914534" lon="15.243676210476462"><ele>975.0</ele><time>2026-04-26T10:49:30Z</time></trkpt><trkpt lat="38.07501690183145" lon="15.243601007566516"><ele>973.0</ele><time>2026-04-26T10:49:31Z</time></trkpt><trkpt lat="38.0749718796591" lon="15.243454156106292"><ele>972.9999999999999</ele><time>2026-04-26T10:49:33Z</time></trkpt><trkpt lat="38.074969561095294" lon="15.243349108462422"><ele>973.0</ele><time>2026-04-26T10:49:34Z</time></trkpt><trkpt lat="38.07498838387405" lon="15.243244023221697"><ele>973.0</ele><time>2026-04-26T10:49:35Z</time></trkpt><trkpt lat="38.07499981923645" lon="15.243128454073933"><ele>973.0</ele><time>2026-04-26T10:49:36Z</time></trkpt><trkpt lat="38.07501947890297" lon="15.24302527175708"><ele>972.9999999999999</ele><time>2026-04-26T10:49:37Z</time></trkpt><trkpt lat="38.07505803122248" lon="15.242928834619233"><ele>973.0</ele><time>2026-04-26T10:49:38Z</time></trkpt><trkpt lat="38.07509789920216" lon="15.242854592328909"><ele>970.3333333333333</ele><time>2026-04-26T10:49:39Z</time></trkpt><trkpt lat="38.07515815126076" lon="15.242768329984699"><ele>967.6666666666666</ele><time>2026-04-26T10:49:40Z</time></trkpt><trkpt lat="38.07520689931358" lon="15.242710154512855"><ele>965.0</ele><time>2026-04-26T10:49:41Z</time></trkpt><trkpt lat="38.07526744316153" lon="15.242647466179035"><ele>962.3333333333333</ele><time>2026-04-26T10:49:42Z</time></trkpt><trkpt lat="38.07537718774203" lon="15.242616483575619"><ele>959.6666666666666</ele><time>2026-04-26T10:49:44Z</time></trkpt><trkpt lat="38.07544005426188" lon="15.242630124879835"><ele>957.0</ele><time>2026-04-26T10:49:45Z</time></trkpt><trkpt lat="38.07549449997058" lon="15.24267579921739"><ele>957.0</ele><time>2026-04-26T10:49:46Z</time></trkpt><trkpt lat="38.07552385291647" lon="15.242783704628309"><ele>957.0</ele><time>2026-04-26T10:49:48Z</time></trkpt><trkpt lat="38.0755323168934" lon="15.242866840435141"><ele>957.0</ele><time>2026-04-26T10:49:49Z</time></trkpt><trkpt lat="38.075530903032586" lon="15.242954707877711"><ele>957.0</ele><time>2026-04-26T10:49:50Z</time></trkpt><trkpt lat="38.07558122911407" lon="15.243101102103232"><ele>957.0</ele><time>2026-04-26T10:49:52Z</time></trkpt><trkpt lat="38.07563884532" lon="15.243155817564126"><ele>957.0</ele><time>2026-04-26T10:49:53Z</time></trkpt><trkpt lat="38.075726591092476" lon="15.243287348531954"><ele>957.8333333333334</ele><time>2026-04-26T10:49:55Z</time></trkpt><trkpt lat="38.07574502555345" lon="15.243371080264254"><ele>958.6666666666667</ele><time>2026-04-26T10:49:56Z</time></trkpt><trkpt lat="38.07577563866153" lon="15.243454014709865"><ele>959.5</ele><time>2026-04-26T10:49:57Z</time></trkpt><trkpt lat="38.07583466438358" lon="15.243511190044343"><ele>960.3333333333334</ele><time>2026-04-26T10:49:58Z</time></trkpt><trkpt lat="38.075906963726915" lon="15.24353838660402"><ele>961.1666666666667</ele><time>2026-04-26T10:49:59Z</time></trkpt><trkpt lat="38.076000068205296" lon="15.243557116786072"><ele>962.0</ele><time>2026-04-26T10:50:00Z</time></trkpt><trkpt lat="38.076080968432315" lon="15.24357484900257"><ele>962.0000000000001</ele><time>2026-04-26T10:50:01Z</time></trkpt><trkpt lat="38.076145731886456" lon="15.24360629667128"><ele>962.0</ele><time>2026-04-26T10:50:02Z</time></trkpt><trkpt lat="38.076231084786784" lon="15.243633652218326"><ele>962.0</ele><time>2026-04-26T10:50:03Z</time></trkpt><trkpt lat="38.07630211723785" lon="15.243668620577829"><ele>962.0</ele><time>2026-04-26T10:50:04Z</time></trkpt><trkpt lat="38.07640620795665" lon="15.243745100422709"><ele>962.0000000000001</ele><time>2026-04-26T10:50:06Z</time></trkpt><trkpt lat="38.076433703173024" lon="15.24381890653052"><ele>962.0</ele><time>2026-04-26T10:50:07Z</time></trkpt><trkpt lat="38.076452691324555" lon="15.24390075269959"><ele>962.0000000000001</ele><time>2026-04-26T10:50:08Z</time></trkpt><trkpt lat="38.076519048063" lon="15.243946071830829"><ele>962.0</ele><time>2026-04-26T10:50:10Z</time></trkpt><trkpt lat="38.0766284819717" lon="15.24388067695674"><ele>962.0</ele><time>2026-04-26T10:50:12Z</time></trkpt><trkpt lat="38.07670354432518" lon="15.243853061286483"><ele>962.0</ele><time>2026-04-26T10:50:13Z</time></trkpt><trkpt lat="38.07678808139451" lon="15.243844648083924"><ele>962.0000000000001</ele><time>2026-04-26T10:50:14Z</time></trkpt><trkpt lat="38.07685824721801" lon="15.243836264173087"><ele>962.0</ele><time>2026-04-26T10:50:15Z</time></trkpt><trkpt lat="38.07692377958295" lon="15.243836361683822"><ele>958.6666666666667</ele><time>2026-04-26T10:50:16Z</time></trkpt><trkpt lat="38.07699733653736" lon="15.243843792165366"><ele>955.3333333333334</ele><time>2026-04-26T10:50:17Z</time></trkpt><trkpt lat="38.077070277874434" lon="15.243865937121504"><ele>952.0</ele><time>2026-04-26T10:50:18Z</time></trkpt><trkpt lat="38.077143869354245" lon="15.24390786013998"><ele>948.6666666666667</ele><time>2026-04-26T10:50:19Z</time></trkpt><trkpt lat="38.07720887769724" lon="15.243938119274691"><ele>945.3333333333334</ele><time>2026-04-26T10:50:20Z</time></trkpt><trkpt lat="38.077311479189866" lon="15.243882988035988"><ele>942.0</ele><time>2026-04-26T10:50:21.999Z</time></trkpt><trkpt lat="38.077366982398935" lon="15.243837021618202"><ele>939.1666666666666</ele><time>2026-04-26T10:50:22.999Z</time></trkpt><trkpt lat="38.07745097496225" lon="15.243792903018223"><ele>936.3333333333333</ele><time>2026-04-26T10:50:23.999Z</time></trkpt><trkpt lat="38.077525435507006" lon="15.243760480699013"><ele>933.5</ele><time>2026-04-26T10:50:24.999Z</time></trkpt><trkpt lat="38.0775990198838" lon="15.243701860399336"><ele>930.6666666666666</ele><time>2026-04-26T10:50:25.999Z</time></trkpt><trkpt lat="38.077656084356626" lon="15.243643634060358"><ele>927.8333333333333</ele><time>2026-04-26T10:50:26.999Z</time></trkpt><trkpt lat="38.07770114541155" lon="15.243580762312071"><ele>925.0</ele><time>2026-04-26T10:50:27.999Z</time></trkpt><trkpt lat="38.07781297527889" lon="15.243533174315512"><ele>925.0</ele><time>2026-04-26T10:50:29.999Z</time></trkpt><trkpt lat="38.07787909020562" lon="15.243530638957175"><ele>925.0</ele><time>2026-04-26T10:50:30.999Z</time></trkpt><trkpt lat="38.07794020118418" lon="15.243507334857107"><ele>925.0</ele><time>2026-04-26T10:50:31.999Z</time></trkpt><trkpt lat="38.07803801434142" lon="15.243403185795605"><ele>925.0</ele><time>2026-04-26T10:50:33.999Z</time></trkpt><trkpt lat="38.07815677211517" lon="15.243341969580621"><ele>925.0</ele><time>2026-04-26T10:50:35.999Z</time></trkpt><trkpt lat="38.07822471300951" lon="15.24331799098014"><ele>926.8333333333333</ele><time>2026-04-26T10:50:36.999Z</time></trkpt><trkpt lat="38.07829155716988" lon="15.243290227041749"><ele>928.6666666666666</ele><time>2026-04-26T10:50:37.999Z</time></trkpt><trkpt lat="38.07835821136788" lon="15.243247802909442"><ele>930.5</ele><time>2026-04-26T10:50:38.999Z</time></trkpt><trkpt lat="38.0784265049068" lon="15.243186258855314"><ele>932.3333333333333</ele><time>2026-04-26T10:50:39.999Z</time></trkpt><trkpt lat="38.07849757639827" lon="15.243104606649897"><ele>934.1666666666666</ele><time>2026-04-26T10:50:40.999Z</time></trkpt><trkpt lat="38.07855400091703" lon="15.243021306237601"><ele>936.0</ele><time>2026-04-26T10:50:41.999Z</time></trkpt><trkpt lat="38.078608220684" lon="15.242923365053008"><ele>929.5</ele><time>2026-04-26T10:50:42.999Z</time></trkpt><trkpt lat="38.07865249243247" lon="15.242828622277536"><ele>923.0</ele><time>2026-04-26T10:50:43.999Z</time></trkpt><trkpt lat="38.078685637909246" lon="15.242748702355499"><ele>916.5</ele><time>2026-04-26T10:50:44.999Z</time></trkpt><trkpt lat="38.07872495410074" lon="15.242671437837732"><ele>910.0</ele><time>2026-04-26T10:50:45.999Z</time></trkpt><trkpt lat="38.078764749126634" lon="15.242594462783641"><ele>903.5</ele><time>2026-04-26T10:50:46.999Z</time></trkpt><trkpt lat="38.07883432346172" lon="15.242541484124654"><ele>897.0</ele><time>2026-04-26T10:50:48.999Z</time></trkpt><trkpt lat="38.07893138350698" lon="15.242566325434057"><ele>897.0</ele><time>2026-04-26T10:50:50.999Z</time></trkpt><trkpt lat="38.07900154014886" lon="15.242584288736372"><ele>897.0</ele><time>2026-04-26T10:50:51.999Z</time></trkpt><trkpt lat="38.079074212807825" lon="15.242577424511266"><ele>897.0</ele><time>2026-04-26T10:50:52.999Z</time></trkpt><trkpt lat="38.07915303401655" lon="15.242565954875197"><ele>897.0</ele><time>2026-04-26T10:50:53.999Z</time></trkpt><trkpt lat="38.07923911455521" lon="15.242550263685416"><ele>897.0</ele><time>2026-04-26T10:50:54.999Z</time></trkpt><trkpt lat="38.07931596079176" lon="15.242543689144485"><ele>897.0</ele><time>2026-04-26T10:50:55.999Z</time></trkpt><trkpt lat="38.07940986022737" lon="15.242542026992925"><ele>899.3333333333334</ele><time>2026-04-26T10:50:56.999Z</time></trkpt><trkpt lat="38.07949114205561" lon="15.242541200606798"><ele>901.6666666666667</ele><time>2026-04-26T10:50:57.999Z</time></trkpt><trkpt lat="38.07957609091902" lon="15.242559538638067"><ele>904.0</ele><time>2026-04-26T10:50:58.999Z</time></trkpt><trkpt lat="38.07965087279736" lon="15.24258304520872"><ele>906.3333333333334</ele><time>2026-04-26T10:50:59.999Z</time></trkpt><trkpt lat="38.079712520072604" lon="15.242618680309164"><ele>908.6666666666667</ele><time>2026-04-26T10:51:00.999Z</time></trkpt><trkpt lat="38.079776600534245" lon="15.242626067751436"><ele>911.0</ele><time>2026-04-26T10:51:03Z</time></trkpt><trkpt lat="38.07978034914397" lon="15.242532289596936"><ele>911.0000000000001</ele><time>2026-04-26T10:51:05Z</time></trkpt><trkpt lat="38.07971207615616" lon="15.242479174652514"><ele>911.0</ele><time>2026-04-26T10:51:07Z</time></trkpt><trkpt lat="38.07958983023474" lon="15.242463700644292"><ele>911.0</ele><time>2026-04-26T10:51:09Z</time></trkpt><trkpt lat="38.07951221974509" lon="15.242433990740679"><ele>911.0</ele><time>2026-04-26T10:51:10Z</time></trkpt><trkpt lat="38.07943764206926" lon="15.24239935715252"><ele>911.0000000000001</ele><time>2026-04-26T10:51:11Z</time></trkpt><trkpt lat="38.079360913372966" lon="15.2423627430051"><ele>911.0</ele><time>2026-04-26T10:51:12Z</time></trkpt><trkpt lat="38.07929237217098" lon="15.242341611537078"><ele>911.0000000000001</ele><time>2026-04-26T10:51:13Z</time></trkpt><trkpt lat="38.07921320369215" lon="15.242337243352654"><ele>911.0</ele><time>2026-04-26T10:51:14Z</time></trkpt><trkpt lat="38.079106088084906" lon="15.242302531191905"><ele>911.0</ele><time>2026-04-26T10:51:16Z</time></trkpt><trkpt lat="38.07905349550285" lon="15.24217524314193"><ele>911.0</ele><time>2026-04-26T10:51:18Z</time></trkpt><trkpt lat="38.07902051546931" lon="15.242082380145956"><ele>911.0000000000001</ele><time>2026-04-26T10:51:19Z</time></trkpt><trkpt lat="38.07899227234682" lon="15.242009720561716"><ele>911.0</ele><time>2026-04-26T10:51:20Z</time></trkpt><trkpt lat="38.07897711062306" lon="15.241926375842668"><ele>906.1666666666667</ele><time>2026-04-26T10:51:22Z</time></trkpt><trkpt lat="38.07905082500924" lon="15.24191962175932"><ele>901.3333333333334</ele><time>2026-04-26T10:51:24Z</time></trkpt><trkpt lat="38.07912368023989" lon="15.242023141936416"><ele>896.5</ele><time>2026-04-26T10:51:26Z</time></trkpt><trkpt lat="38.07919660478182" lon="15.242106746870745"><ele>891.6666666666667</ele><time>2026-04-26T10:51:28Z</time></trkpt><trkpt lat="38.079273176306344" lon="15.242117499849886"><ele>886.8333333333334</ele><time>2026-04-26T10:51:29Z</time></trkpt><trkpt lat="38.07935877371831" lon="15.242134187925386"><ele>882.0</ele><time>2026-04-26T10:51:30Z</time></trkpt><trkpt lat="38.07943751176966" lon="15.242149029107367"><ele>882.0</ele><time>2026-04-26T10:51:31Z</time></trkpt><trkpt lat="38.07952124038761" lon="15.242139523815334"><ele>882.0</ele><time>2026-04-26T10:51:32Z</time></trkpt><trkpt lat="38.07959309328347" lon="15.242116041536221"><ele>882.0</ele><time>2026-04-26T10:51:33Z</time></trkpt><trkpt lat="38.0796802118408" lon="15.24209768204049"><ele>882.0</ele><time>2026-04-26T10:51:34Z</time></trkpt><trkpt lat="38.07975138088081" lon="15.242101646660826"><ele>882.0</ele><time>2026-04-26T10:51:35Z</time></trkpt><trkpt lat="38.07981716893353" lon="15.242072637286777"><ele>882.0</ele><time>2026-04-26T10:51:38Z</time></trkpt><trkpt lat="38.07979078249096" lon="15.241998577329108"><ele>882.0</ele><time>2026-04-26T10:51:41Z</time></trkpt><trkpt lat="38.07968602949944" lon="15.24199002048283"><ele>882.0</ele><time>2026-04-26T10:51:43Z</time></trkpt><trkpt lat="38.07961161529278" lon="15.241975366208713"><ele>882.0</ele><time>2026-04-26T10:51:44Z</time></trkpt><trkpt lat="38.07953369601539" lon="15.241934265259559"><ele>882.0</ele><time>2026-04-26T10:51:45Z</time></trkpt><trkpt lat="38.07946730048035" lon="15.241873113935807"><ele>882.0</ele><time>2026-04-26T10:51:46Z</time></trkpt><trkpt lat="38.079412170911134" lon="15.241833716350655"><ele>882.0</ele><time>2026-04-26T10:51:47Z</time></trkpt><trkpt lat="38.079345350027474" lon="15.241746732602685"><ele>882.0</ele><time>2026-04-26T10:51:49Z</time></trkpt><trkpt lat="38.07938165020768" lon="15.241643010387193"><ele>882.0</ele><time>2026-04-26T10:51:51Z</time></trkpt><trkpt lat="38.07947219315769" lon="15.241690539618967"><ele>882.0</ele><time>2026-04-26T10:51:53Z</time></trkpt><trkpt lat="38.07959180009332" lon="15.241774079424438"><ele>882.0</ele><time>2026-04-26T10:51:55Z</time></trkpt><trkpt lat="38.079682272734495" lon="15.241799268237948"><ele>882.0</ele><time>2026-04-26T10:51:56Z</time></trkpt><trkpt lat="38.07975042702753" lon="15.241796747016625"><ele>882.0</ele><time>2026-04-26T10:51:57Z</time></trkpt><trkpt lat="38.079825000182716" lon="15.241803727239978"><ele>882.0</ele><time>2026-04-26T10:51:58Z</time></trkpt><trkpt lat="38.079897729603005" lon="15.241865342903454"><ele>882.0</ele><time>2026-04-26T10:52:00Z</time></trkpt><trkpt lat="38.07991137733973" lon="15.242010604099264"><ele>882.0</ele><time>2026-04-26T10:52:02Z</time></trkpt><trkpt lat="38.07992442267084" lon="15.242100740112692"><ele>882.0</ele><time>2026-04-26T10:52:03Z</time></trkpt><trkpt lat="38.07994358420058" lon="15.242181271287762"><ele>882.0</ele><time>2026-04-26T10:52:04Z</time></trkpt><trkpt lat="38.080004049681946" lon="15.242264431078176"><ele>879.8333333333334</ele><time>2026-04-26T10:52:06Z</time></trkpt><trkpt lat="38.08010896485111" lon="15.242258380965866"><ele>877.6666666666667</ele><time>2026-04-26T10:52:08Z</time></trkpt><trkpt lat="38.0801499653764" lon="15.242152086131515"><ele>875.5</ele><time>2026-04-26T10:52:10Z</time></trkpt><trkpt lat="38.08019060831559" lon="15.242062302540804"><ele>873.3333333333334</ele><time>2026-04-26T10:52:11Z</time></trkpt><trkpt lat="38.080223467326114" lon="15.241968426472825"><ele>871.1666666666667</ele><time>2026-04-26T10:52:12Z</time></trkpt><trkpt lat="38.08026135307882" lon="15.241890438508712"><ele>869.0</ele><time>2026-04-26T10:52:13Z</time></trkpt><trkpt lat="38.08030554711396" lon="15.241777827980853"><ele>869.0000000000001</ele><time>2026-04-26T10:52:15Z</time></trkpt><trkpt lat="38.080354530146515" lon="15.241725819982365"><ele>869.0</ele><time>2026-04-26T10:52:16Z</time></trkpt><trkpt lat="38.080472886620335" lon="15.241663252755256"><ele>869.0</ele><time>2026-04-26T10:52:18Z</time></trkpt><trkpt lat="38.080530587289175" lon="15.241621270098888"><ele>869.0</ele><time>2026-04-26T10:52:19Z</time></trkpt><trkpt lat="38.08059464990871" lon="15.241551904635928"><ele>869.0000000000001</ele><time>2026-04-26T10:52:20Z</time></trkpt><trkpt lat="38.08063432026563" lon="15.241475821561378"><ele>869.0</ele><time>2026-04-26T10:52:21Z</time></trkpt><trkpt lat="38.080664792945825" lon="15.241397232853213"><ele>863.3333333333334</ele><time>2026-04-26T10:52:22Z</time></trkpt><trkpt lat="38.08070215114135" lon="15.241329004836526"><ele>857.6666666666667</ele><time>2026-04-26T10:52:23Z</time></trkpt><trkpt lat="38.08078831553956" lon="15.241227088418979"><ele>852.0</ele><time>2026-04-26T10:52:25Z</time></trkpt><trkpt lat="38.08085890071924" lon="15.24120894793794"><ele>846.3333333333333</ele><time>2026-04-26T10:52:26Z</time></trkpt><trkpt lat="38.080921983446366" lon="15.241231682281425"><ele>840.6666666666666</ele><time>2026-04-26T10:52:27Z</time></trkpt><trkpt lat="38.08099083776654" lon="15.24126404593011"><ele>835.0</ele><time>2026-04-26T10:52:27.999Z</time></trkpt><trkpt lat="38.081072463096376" lon="15.241287952495998"><ele>834.1666666666666</ele><time>2026-04-26T10:52:28.999Z</time></trkpt><trkpt lat="38.08114146720693" lon="15.241268312973826"><ele>833.3333333333333</ele><time>2026-04-26T10:52:29.999Z</time></trkpt><trkpt lat="38.08120721249591" lon="15.241205736841348"><ele>832.5</ele><time>2026-04-26T10:52:30.999Z</time></trkpt><trkpt lat="38.08123983677263" lon="15.24111841140865"><ele>831.6666666666667</ele><time>2026-04-26T10:52:31.999Z</time></trkpt><trkpt lat="38.0812720216379" lon="15.241030351642944"><ele>830.8333333333334</ele><time>2026-04-26T10:52:32.999Z</time></trkpt><trkpt lat="38.081338850777065" lon="15.240959627173902"><ele>830.0</ele><time>2026-04-26T10:52:33.999Z</time></trkpt><trkpt lat="38.081430863503925" lon="15.240880598613268"><ele>830.0000000000001</ele><time>2026-04-26T10:52:34.999Z</time></trkpt><trkpt lat="38.08150936112216" lon="15.240812300032749"><ele>830.0</ele><time>2026-04-26T10:52:35.999Z</time></trkpt><trkpt lat="38.08158380466063" lon="15.240757719731128"><ele>830.0</ele><time>2026-04-26T10:52:36.999Z</time></trkpt><trkpt lat="38.08166686024873" lon="15.240716161456467"><ele>830.0</ele><time>2026-04-26T10:52:37.999Z</time></trkpt><trkpt lat="38.081740341569216" lon="15.240678363797915"><ele>830.0000000000001</ele><time>2026-04-26T10:52:38.999Z</time></trkpt><trkpt lat="38.08179777420588" lon="15.240612311709695"><ele>830.0</ele><time>2026-04-26T10:52:39.999Z</time></trkpt><trkpt lat="38.081821663249414" lon="15.240521641778187"><ele>829.3333333333334</ele><time>2026-04-26T10:52:40.999Z</time></trkpt><trkpt lat="38.08183686367732" lon="15.240440790105591"><ele>828.6666666666667</ele><time>2026-04-26T10:52:41.999Z</time></trkpt><trkpt lat="38.081882104931786" lon="15.240341341046534"><ele>828.0</ele><time>2026-04-26T10:52:42.999Z</time></trkpt><trkpt lat="38.08193253753013" lon="15.240284721232626"><ele>827.3333333333333</ele><time>2026-04-26T10:52:43.999Z</time></trkpt><trkpt lat="38.08204212757368" lon="15.240261516102022"><ele>826.6666666666666</ele><time>2026-04-26T10:52:45.999Z</time></trkpt><trkpt lat="38.08210178156425" lon="15.240295129165744"><ele>826.0</ele><time>2026-04-26T10:52:46.999Z</time></trkpt><trkpt lat="38.08216769736789" lon="15.240334568379902"><ele>826.0</ele><time>2026-04-26T10:52:47.999Z</time></trkpt><trkpt lat="38.082262984641446" lon="15.240395118256599"><ele>826.0</ele><time>2026-04-26T10:52:48.999Z</time></trkpt><trkpt lat="38.08236630576598" lon="15.24045971628054"><ele>826.0</ele><time>2026-04-26T10:52:49.999Z</time></trkpt><trkpt lat="38.08245853993874" lon="15.240492601965753"><ele>826.0</ele><time>2026-04-26T10:52:50.999Z</time></trkpt><trkpt lat="38.08254305859684" lon="15.240502042647755"><ele>826.0</ele><time>2026-04-26T10:52:51.999Z</time></trkpt><trkpt lat="38.082624354258044" lon="15.240500589642961"><ele>828.1999999999999</ele><time>2026-04-26T10:52:52.999Z</time></trkpt><trkpt lat="38.08273022132387" lon="15.240492991812669"><ele>830.4</ele><time>2026-04-26T10:52:53.999Z</time></trkpt><trkpt lat="38.0828392176897" lon="15.240470354028163"><ele>832.6</ele><time>2026-04-26T10:52:54.999Z</time></trkpt><trkpt lat="38.08295144307551" lon="15.240436153656015"><ele>834.8</ele><time>2026-04-26T10:52:55.999Z</time></trkpt><trkpt lat="38.08304469145336" lon="15.240400221238888"><ele>837.0</ele><time>2026-04-26T10:52:56.999Z</time></trkpt><trkpt lat="38.08315664576428" lon="15.240353310553468"><ele>836.6</ele><time>2026-04-26T10:52:57.999Z</time></trkpt><trkpt lat="38.08328366772531" lon="15.24033916513997"><ele>836.2</ele><time>2026-04-26T10:52:58.999Z</time></trkpt><trkpt lat="38.08339507758853" lon="15.24035230973787"><ele>835.8</ele><time>2026-04-26T10:52:59.999Z</time></trkpt><trkpt lat="38.083478873245284" lon="15.240359873630158"><ele>835.4</ele><time>2026-04-26T10:53:00.999Z</time></trkpt><trkpt lat="38.08355639060806" lon="15.240397208689725"><ele>835.0</ele><time>2026-04-26T10:53:01.999Z</time></trkpt><trkpt lat="38.08362522375784" lon="15.240446511397295"><ele>834.9999999999999</ele><time>2026-04-26T10:53:02.999Z</time></trkpt><trkpt lat="38.0837058391451" lon="15.240504056422129"><ele>835.0</ele><time>2026-04-26T10:53:03.999Z</time></trkpt><trkpt lat="38.08379022980787" lon="15.24050661147618"><ele>835.0</ele><time>2026-04-26T10:53:04.999Z</time></trkpt><trkpt lat="38.083876183414276" lon="15.240499385877731"><ele>835.0</ele><time>2026-04-26T10:53:05.999Z</time></trkpt><trkpt lat="38.08395030550393" lon="15.240530242911206"><ele>834.9999999999999</ele><time>2026-04-26T10:53:06.999Z</time></trkpt><trkpt lat="38.083999936036136" lon="15.240603734762976"><ele>835.0</ele><time>2026-04-26T10:53:08Z</time></trkpt><trkpt lat="38.08404437174116" lon="15.240698732010184"><ele>837.4</ele><time>2026-04-26T10:53:09Z</time></trkpt><trkpt lat="38.08410228719015" lon="15.240814473144384"><ele>839.8</ele><time>2026-04-26T10:53:10Z</time></trkpt><trkpt lat="38.08417321345962" lon="15.24093868980822"><ele>842.2</ele><time>2026-04-26T10:53:11Z</time></trkpt><trkpt lat="38.084239953932176" lon="15.241041285728864"><ele>844.6</ele><time>2026-04-26T10:53:12Z</time></trkpt><trkpt lat="38.084297655858244" lon="15.241136580970885"><ele>847.0</ele><time>2026-04-26T10:53:13Z</time></trkpt><trkpt lat="38.08435517611486" lon="15.241220783674516"><ele>846.9999999999999</ele><time>2026-04-26T10:53:14Z</time></trkpt><trkpt lat="38.08441088432444" lon="15.241290429235484"><ele>847.0</ele><time>2026-04-26T10:53:15Z</time></trkpt><trkpt lat="38.084477725572754" lon="15.241362651652091"><ele>847.0</ele><time>2026-04-26T10:53:16Z</time></trkpt><trkpt lat="38.08452404068262" lon="15.241447957065192"><ele>847.0</ele><time>2026-04-26T10:53:17Z</time></trkpt><trkpt lat="38.08456846625693" lon="15.241550415936715"><ele>846.9999999999999</ele><time>2026-04-26T10:53:18Z</time></trkpt><trkpt lat="38.08460726417382" lon="15.241644549575648"><ele>847.0</ele><time>2026-04-26T10:53:19Z</time></trkpt><trkpt lat="38.08466510546415" lon="15.241758666761426"><ele>846.9999999999999</ele><time>2026-04-26T10:53:21Z</time></trkpt><trkpt lat="38.08472836547339" lon="15.241780802566572"><ele>847.0</ele><time>2026-04-26T10:53:22Z</time></trkpt><trkpt lat="38.08478871563764" lon="15.241748011881306"><ele>847.0</ele><time>2026-04-26T10:53:23Z</time></trkpt><trkpt lat="38.08484012105518" lon="15.241683057008082"><ele>847.0</ele><time>2026-04-26T10:53:24Z</time></trkpt><trkpt lat="38.08488612971047" lon="15.241594032071214"><ele>846.9999999999999</ele><time>2026-04-26T10:53:25Z</time></trkpt><trkpt lat="38.084922082254906" lon="15.241435120880285"><ele>847.0</ele><time>2026-04-26T10:53:26Z</time></trkpt><trkpt lat="38.08494044372985" lon="15.241278808862175"><ele>846.3333333333333</ele><time>2026-04-26T10:53:27Z</time></trkpt><trkpt lat="38.08499032391348" lon="15.24119795321367"><ele>845.6666666666666</ele><time>2026-04-26T10:53:29Z</time></trkpt><trkpt lat="38.08503724673662" lon="15.241101096803272"><ele>845.0</ele><time>2026-04-26T10:53:31Z</time></trkpt><trkpt lat="38.08507510708283" lon="15.240983528088517"><ele>844.3333333333333</ele><time>2026-04-26T10:53:33Z</time></trkpt><trkpt lat="38.08509306996871" lon="15.240901267150882"><ele>843.6666666666666</ele><time>2026-04-26T10:53:34Z</time></trkpt><trkpt lat="38.085128795127765" lon="15.240829462902193"><ele>843.0</ele><time>2026-04-26T10:53:35Z</time></trkpt><trkpt lat="38.085173769763536" lon="15.240748114131963"><ele>843.0</ele><time>2026-04-26T10:53:36Z</time></trkpt><trkpt lat="38.085228507181185" lon="15.240685718501862"><ele>843.0</ele><time>2026-04-26T10:53:37Z</time></trkpt><trkpt lat="38.08528936138789" lon="15.240631344212977"><ele>843.0</ele><time>2026-04-26T10:53:38Z</time></trkpt><trkpt lat="38.08535539357269" lon="15.24057549106138"><ele>843.0</ele><time>2026-04-26T10:53:39Z</time></trkpt><trkpt lat="38.08546219211906" lon="15.240531791251382"><ele>843.0</ele><time>2026-04-26T10:53:41Z</time></trkpt><trkpt lat="38.08553249493854" lon="15.240556068576248"><ele>843.0</ele><time>2026-04-26T10:53:42Z</time></trkpt><trkpt lat="38.085613729428914" lon="15.240583645952377"><ele>845.4</ele><time>2026-04-26T10:53:43Z</time></trkpt><trkpt lat="38.08571072924095" lon="15.240592975355584"><ele>847.8</ele><time>2026-04-26T10:53:44Z</time></trkpt><trkpt lat="38.08577840982122" lon="15.240616075641077"><ele>850.2</ele><time>2026-04-26T10:53:45Z</time></trkpt><trkpt lat="38.08582771979851" lon="15.240666283642454"><ele>852.6</ele><time>2026-04-26T10:53:46Z</time></trkpt><trkpt lat="38.08589610567239" lon="15.24083058745587"><ele>855.0</ele><time>2026-04-26T10:53:48Z</time></trkpt><trkpt lat="38.085952531552984" lon="15.240908405481788"><ele>855.0</ele><time>2026-04-26T10:53:49Z</time></trkpt><trkpt lat="38.08602765303376" lon="15.240955113920277"><ele>855.0</ele><time>2026-04-26T10:53:50Z</time></trkpt><trkpt lat="38.08613422879604" lon="15.240966343314577"><ele>855.0</ele><time>2026-04-26T10:53:51Z</time></trkpt><trkpt lat="38.08624816784205" lon="15.240970351555424"><ele>855.0</ele><time>2026-04-26T10:53:52Z</time></trkpt><trkpt lat="38.08631115802036" lon="15.240998344968752"><ele>855.0</ele><time>2026-04-26T10:53:53Z</time></trkpt><trkpt lat="38.086368691931646" lon="15.241156123735946"><ele>855.0</ele><time>2026-04-26T10:53:55Z</time></trkpt><trkpt lat="38.086379628278195" lon="15.241256592585504"><ele>855.0</ele><time>2026-04-26T10:53:56Z</time></trkpt><trkpt lat="38.08638970257188" lon="15.241385013253858"><ele>855.0</ele><time>2026-04-26T10:53:57Z</time></trkpt><trkpt lat="38.08639386153535" lon="15.241521418840783"><ele>855.0</ele><time>2026-04-26T10:53:58Z</time></trkpt><trkpt lat="38.086404494659575" lon="15.241657032695075"><ele>855.0</ele><time>2026-04-26T10:53:59Z</time></trkpt><trkpt lat="38.08641918184116" lon="15.241782508020153"><ele>857.6</ele><time>2026-04-26T10:54:00Z</time></trkpt><trkpt lat="38.08649534709515" lon="15.241885967837106"><ele>860.2</ele><time>2026-04-26T10:54:02Z</time></trkpt><trkpt lat="38.086627583114634" lon="15.24186613537058"><ele>862.8</ele><time>2026-04-26T10:54:04Z</time></trkpt><trkpt lat="38.08669567148907" lon="15.24178364448732"><ele>865.4</ele><time>2026-04-26T10:54:05Z</time></trkpt><trkpt lat="38.08676457678314" lon="15.241698437458876"><ele>868.0</ele><time>2026-04-26T10:54:06Z</time></trkpt><trkpt lat="38.08684081361737" lon="15.241709916739744"><ele>868.0</ele><time>2026-04-26T10:54:07Z</time></trkpt><trkpt lat="38.08692334206613" lon="15.241736895896006"><ele>868.0</ele><time>2026-04-26T10:54:08Z</time></trkpt><trkpt lat="38.087024705988654" lon="15.241756508511834"><ele>868.0</ele><time>2026-04-26T10:54:09Z</time></trkpt><trkpt lat="38.08711667753342" lon="15.241740016390626"><ele>868.0</ele><time>2026-04-26T10:54:10Z</time></trkpt><trkpt lat="38.087186557597384" lon="15.24173194008444"><ele>868.0</ele><time>2026-04-26T10:54:11Z</time></trkpt><trkpt lat="38.08725165317097" lon="15.241837168152948"><ele>868.0</ele><time>2026-04-26T10:54:13Z</time></trkpt><trkpt lat="38.0872566973358" lon="15.24194710222483"><ele>868.0</ele><time>2026-04-26T10:54:14Z</time></trkpt><trkpt lat="38.08725875010518" lon="15.2420825307226"><ele>868.0</ele><time>2026-04-26T10:54:15Z</time></trkpt><trkpt lat="38.087272691606564" lon="15.24221190186366"><ele>868.0</ele><time>2026-04-26T10:54:16Z</time></trkpt><trkpt lat="38.08729843053173" lon="15.242289314893238"><ele>868.0</ele><time>2026-04-26T10:54:17Z</time></trkpt><trkpt lat="38.087313618223845" lon="15.242408049833253"><ele>867.9999999999999</ele><time>2026-04-26T10:54:19Z</time></trkpt><trkpt lat="38.08723482920384" lon="15.24242514659726"><ele>868.0</ele><time>2026-04-26T10:54:21Z</time></trkpt><trkpt lat="38.08717835162749" lon="15.242357320296035"><ele>868.0</ele><time>2026-04-26T10:54:24Z</time></trkpt><trkpt lat="38.087191015023656" lon="15.242273580497725"><ele>868.0</ele><time>2026-04-26T10:54:26Z</time></trkpt><trkpt lat="38.0871652032693" lon="15.24216122683407"><ele>867.9999999999999</ele><time>2026-04-26T10:54:28Z</time></trkpt><trkpt lat="38.087081128981445" lon="15.242069993190636"><ele>868.0</ele><time>2026-04-26T10:54:30Z</time></trkpt><trkpt lat="38.086953430355905" lon="15.242083224386251"><ele>867.9999999999999</ele><time>2026-04-26T10:54:32Z</time></trkpt><trkpt lat="38.08686996233771" lon="15.242113516239618"><ele>868.0</ele><time>2026-04-26T10:54:33Z</time></trkpt><trkpt lat="38.086805166567" lon="15.242159396310987"><ele>868.0</ele><time>2026-04-26T10:54:34Z</time></trkpt><trkpt lat="38.08674572555103" lon="15.242234570946383"><ele>868.0</ele><time>2026-04-26T10:54:36Z</time></trkpt><trkpt lat="38.0868044380935" lon="15.242297010508059"><ele>867.9999999999999</ele><time>2026-04-26T10:54:38Z</time></trkpt><trkpt lat="38.08691175041414" lon="15.242319765922733"><ele>868.0</ele><time>2026-04-26T10:54:40Z</time></trkpt><trkpt lat="38.086916324804534" lon="15.242420261229292"><ele>872.8</ele><time>2026-04-26T10:54:42Z</time></trkpt><trkpt lat="38.08686903658224" lon="15.242508923230345"><ele>877.5999999999999</ele><time>2026-04-26T10:54:44Z</time></trkpt><trkpt lat="38.086833451378766" lon="15.242631438396204"><ele>882.4000000000001</ele><time>2026-04-26T10:54:46Z</time></trkpt><trkpt lat="38.08676965895609" lon="15.242606222446057"><ele>887.2</ele><time>2026-04-26T10:54:48.999Z</time></trkpt><trkpt lat="38.086755861041674" lon="15.242485523110075"><ele>892.0</ele><time>2026-04-26T10:54:50.999Z</time></trkpt><trkpt lat="38.08662978137968" lon="15.242478423653695"><ele>895.0</ele><time>2026-04-26T10:54:52.998Z</time></trkpt><trkpt lat="38.08654717174213" lon="15.24253049836305"><ele>898.0</ele><time>2026-04-26T10:54:53.998Z</time></trkpt><trkpt lat="38.0864351723865" lon="15.2426042001591"><ele>901.0</ele><time>2026-04-26T10:54:55.998Z</time></trkpt><trkpt lat="38.08635181775634" lon="15.242601170704834"><ele>904.0</ele><time>2026-04-26T10:54:56.998Z</time></trkpt><trkpt lat="38.08627496742152" lon="15.242608958742027"><ele>907.0</ele><time>2026-04-26T10:54:57.998Z</time></trkpt><trkpt lat="38.086189276737265" lon="15.24260247496048"><ele>906.9999999999999</ele><time>2026-04-26T10:54:58.998Z</time></trkpt><trkpt lat="38.08612323182715" lon="15.242565053202988"><ele>907.0</ele><time>2026-04-26T10:54:59.998Z</time></trkpt><trkpt lat="38.086051627597364" lon="15.242511296052351"><ele>907.0</ele><time>2026-04-26T10:55:00.998Z</time></trkpt><trkpt lat="38.085984725232706" lon="15.24242212239301"><ele>907.0</ele><time>2026-04-26T10:55:01.998Z</time></trkpt><trkpt lat="38.08593865023613" lon="15.242347085193732"><ele>906.9999999999999</ele><time>2026-04-26T10:55:02.998Z</time></trkpt><trkpt lat="38.0858942453328" lon="15.242287375048775"><ele>907.0</ele><time>2026-04-26T10:55:03.998Z</time></trkpt><trkpt lat="38.08582917564722" lon="15.242257777532656"><ele>906.9999999999999</ele><time>2026-04-26T10:55:04.998Z</time></trkpt><trkpt lat="38.08575434650341" lon="15.242240153679198"><ele>907.0</ele><time>2026-04-26T10:55:05.998Z</time></trkpt><trkpt lat="38.08565050375785" lon="15.242222810096893"><ele>907.0</ele><time>2026-04-26T10:55:07.998Z</time></trkpt><trkpt lat="38.08558535784292" lon="15.242289754062845"><ele>907.0</ele><time>2026-04-26T10:55:09.998Z</time></trkpt><trkpt lat="38.08561023400491" lon="15.242368563269475"><ele>906.9999999999999</ele><time>2026-04-26T10:55:11.998Z</time></trkpt><trkpt lat="38.08571373231489" lon="15.242390318509521"><ele>907.0</ele><time>2026-04-26T10:55:13.999Z</time></trkpt><trkpt lat="38.08577748482586" lon="15.242399122739826"><ele>907.0</ele><time>2026-04-26T10:55:14.999Z</time></trkpt><trkpt lat="38.08584913233605" lon="15.242446852902699"><ele>907.0</ele><time>2026-04-26T10:55:15.999Z</time></trkpt><trkpt lat="38.085899501110184" lon="15.242539557112456"><ele>907.0</ele><time>2026-04-26T10:55:16.999Z</time></trkpt><trkpt lat="38.085962391556976" lon="15.242644953048103"><ele>907.0</ele><time>2026-04-26T10:55:17.999Z</time></trkpt><trkpt lat="38.0860373632221" lon="15.24274412951496"><ele>907.0</ele><time>2026-04-26T10:55:18.999Z</time></trkpt><trkpt lat="38.08613443761555" lon="15.242806152608281"><ele>906.9999999999999</ele><time>2026-04-26T10:55:19.999Z</time></trkpt><trkpt lat="38.086216963761245" lon="15.242845465528758"><ele>907.0</ele><time>2026-04-26T10:55:20.999Z</time></trkpt><trkpt lat="38.08630851995375" lon="15.242870543114615"><ele>907.0</ele><time>2026-04-26T10:55:21.999Z</time></trkpt><trkpt lat="38.086413708480855" lon="15.242883186856302"><ele>907.0</ele><time>2026-04-26T10:55:22.999Z</time></trkpt><trkpt lat="38.08649555368825" lon="15.24290391655707"><ele>906.9999999999999</ele><time>2026-04-26T10:55:23.999Z</time></trkpt><trkpt lat="38.08655595687786" lon="15.242956455509887"><ele>907.0</ele><time>2026-04-26T10:55:24.999Z</time></trkpt><trkpt lat="38.08659785212508" lon="15.243017757614469"><ele>906.4000000000001</ele><time>2026-04-26T10:55:25.999Z</time></trkpt><trkpt lat="38.086608474414014" lon="15.243153515142584"><ele>905.8000000000001</ele><time>2026-04-26T10:55:27.999Z</time></trkpt><trkpt lat="38.086533038324994" lon="15.243286793509098"><ele>905.2</ele><time>2026-04-26T10:55:29.999Z</time></trkpt><trkpt lat="38.086494010817" lon="15.243372556059857"><ele>904.6</ele><time>2026-04-26T10:55:30.999Z</time></trkpt><trkpt lat="38.086476634651106" lon="15.243457520930566"><ele>904.0</ele><time>2026-04-26T10:55:31.999Z</time></trkpt><trkpt lat="38.086488435025025" lon="15.243616342790487"><ele>909.6666666666666</ele><time>2026-04-26T10:55:33.999Z</time></trkpt><trkpt lat="38.086475831224305" lon="15.2437094672841"><ele>915.3333333333333</ele><time>2026-04-26T10:55:34.999Z</time></trkpt><trkpt lat="38.08640928903054" lon="15.243837844106958"><ele>921.0</ele><time>2026-04-26T10:55:36.999Z</time></trkpt><trkpt lat="38.08635923655859" lon="15.243904868720842"><ele>926.6666666666667</ele><time>2026-04-26T10:55:37.999Z</time></trkpt><trkpt lat="38.08630680974044" lon="15.243975709502973"><ele>932.3333333333334</ele><time>2026-04-26T10:55:38.999Z</time></trkpt><trkpt lat="38.086259648469174" lon="15.244067419308605"><ele>938.0</ele><time>2026-04-26T10:55:39.999Z</time></trkpt><trkpt lat="38.086212507495716" lon="15.244165140826208"><ele>940.3333333333334</ele><time>2026-04-26T10:55:40.999Z</time></trkpt><trkpt lat="38.086166638927985" lon="15.244252761293831"><ele>942.6666666666667</ele><time>2026-04-26T10:55:41.999Z</time></trkpt><trkpt lat="38.08613065167212" lon="15.244336406162956"><ele>945.0</ele><time>2026-04-26T10:55:42.999Z</time></trkpt><trkpt lat="38.0861011537027" lon="15.244415659373248"><ele>947.3333333333333</ele><time>2026-04-26T10:55:43.999Z</time></trkpt><trkpt lat="38.08609601534253" lon="15.244510176164976"><ele>949.6666666666666</ele><time>2026-04-26T10:55:44.999Z</time></trkpt><trkpt lat="38.08610930223873" lon="15.244601010804738"><ele>952.0</ele><time>2026-04-26T10:55:45.999Z</time></trkpt><trkpt lat="38.086151618308854" lon="15.244694582274127"><ele>951.5714285714286</ele><time>2026-04-26T10:55:46.999Z</time></trkpt><trkpt lat="38.08619341869668" lon="15.244803624990038"><ele>951.1428571428571</ele><time>2026-04-26T10:55:47.999Z</time></trkpt><trkpt lat="38.086205646161176" lon="15.24488653050391"><ele>950.7142857142858</ele><time>2026-04-26T10:55:48.999Z</time></trkpt><trkpt lat="38.086193149862076" lon="15.244973696757118"><ele>950.2857142857143</ele><time>2026-04-26T10:55:49.999Z</time></trkpt><trkpt lat="38.086166039790456" lon="15.245062344280534"><ele>949.8571428571429</ele><time>2026-04-26T10:55:50.999Z</time></trkpt><trkpt lat="38.086120316745856" lon="15.245117702657547"><ele>949.4285714285716</ele><time>2026-04-26T10:55:51.999Z</time></trkpt><trkpt lat="38.08605733113967" lon="15.24515699138777"><ele>949.0000000000001</ele><time>2026-04-26T10:55:52.999Z</time></trkpt><trkpt lat="38.08593469299806" lon="15.245128666873093"><ele>949.0</ele><time>2026-04-26T10:55:54.999Z</time></trkpt><trkpt lat="38.08586590544822" lon="15.245184744012604"><ele>949.0000000000001</ele><time>2026-04-26T10:55:56.999Z</time></trkpt><trkpt lat="38.08587386718161" lon="15.245316652617092"><ele>949.0000000000001</ele><time>2026-04-26T10:55:58.999Z</time></trkpt><trkpt lat="38.08595093042673" lon="15.24542853581271"><ele>949.0</ele><time>2026-04-26T10:56:00.999Z</time></trkpt><trkpt lat="38.08599535755511" lon="15.245514802637757"><ele>949.0</ele><time>2026-04-26T10:56:01.999Z</time></trkpt><trkpt lat="38.086039629992236" lon="15.245596907773917"><ele>948.9999999999999</ele><time>2026-04-26T10:56:02.999Z</time></trkpt><trkpt lat="38.086107888932595" lon="15.245688967988816"><ele>949.0</ele><time>2026-04-26T10:56:04.999Z</time></trkpt><trkpt lat="38.086052234639205" lon="15.245735412751221"><ele>949.0</ele><time>2026-04-26T10:56:06.999Z</time></trkpt><trkpt lat="38.08597451387022" lon="15.245639676718843"><ele>949.0</ele><time>2026-04-26T10:56:09.999Z</time></trkpt><trkpt lat="38.08593143144564" lon="15.245561442162764"><ele>948.9999999999999</ele><time>2026-04-26T10:56:10.999Z</time></trkpt><trkpt lat="38.08588085397759" lon="15.245489011553568"><ele>949.0</ele><time>2026-04-26T10:56:11.999Z</time></trkpt><trkpt lat="38.08582656984425" lon="15.245412564476235"><ele>948.9999999999999</ele><time>2026-04-26T10:56:12.999Z</time></trkpt><trkpt lat="38.08577189380686" lon="15.245340701424121"><ele>949.0</ele><time>2026-04-26T10:56:13.999Z</time></trkpt><trkpt lat="38.085698186958965" lon="15.245229090741335"><ele>949.0</ele><time>2026-04-26T10:56:15.999Z</time></trkpt><trkpt lat="38.08571337110368" lon="15.24508902552705"><ele>949.0</ele><time>2026-04-26T10:56:17.999Z</time></trkpt><trkpt lat="38.08575801360193" lon="15.245011206127106"><ele>948.9999999999999</ele><time>2026-04-26T10:56:18.999Z</time></trkpt><trkpt lat="38.08581070896371" lon="15.244961544848273"><ele>949.0</ele><time>2026-04-26T10:56:19.999Z</time></trkpt><trkpt lat="38.0858648091851" lon="15.244905809518192"><ele>948.9999999999999</ele><time>2026-04-26T10:56:20.999Z</time></trkpt><trkpt lat="38.08592526751613" lon="15.244853374244315"><ele>949.0</ele><time>2026-04-26T10:56:21.999Z</time></trkpt><trkpt lat="38.08596166447436" lon="15.244726546185635"><ele>949.0</ele><time>2026-04-26T10:56:23.999Z</time></trkpt><trkpt lat="38.08593690036171" lon="15.244652162065883"><ele>949.0</ele><time>2026-04-26T10:56:24.999Z</time></trkpt><trkpt lat="38.08590167496438" lon="15.244585030298794"><ele>948.9999999999999</ele><time>2026-04-26T10:56:25.999Z</time></trkpt><trkpt lat="38.085875780959" lon="15.244487941016036"><ele>949.0</ele><time>2026-04-26T10:56:26.999Z</time></trkpt><trkpt lat="38.085871916357426" lon="15.244392538706817"><ele>949.4285714285716</ele><time>2026-04-26T10:56:27.999Z</time></trkpt><trkpt lat="38.085894119838606" lon="15.24429161009392"><ele>949.8571428571429</ele><time>2026-04-26T10:56:28.999Z</time></trkpt><trkpt lat="38.085935765535844" lon="15.244215270072877"><ele>950.2857142857143</ele><time>2026-04-26T10:56:29.999Z</time></trkpt><trkpt lat="38.085974910330314" lon="15.244135464558697"><ele>950.7142857142858</ele><time>2026-04-26T10:56:30.999Z</time></trkpt><trkpt lat="38.08600049449015" lon="15.244046717773102"><ele>951.1428571428571</ele><time>2026-04-26T10:56:31.999Z</time></trkpt><trkpt lat="38.08600788799851" lon="15.243953186574274"><ele>951.5714285714286</ele><time>2026-04-26T10:56:32.999Z</time></trkpt><trkpt lat="38.08594622658148" lon="15.24391344697594"><ele>952.0</ele><time>2026-04-26T10:56:35.999Z</time></trkpt><trkpt lat="38.085913255544405" lon="15.24401951857815"><ele>952.0</ele><time>2026-04-26T10:56:39.999Z</time></trkpt><trkpt lat="38.08590612018317" lon="15.244104011526037"><ele>952.0</ele><time>2026-04-26T10:56:40.999Z</time></trkpt><trkpt lat="38.085883418222984" lon="15.244182677425476"><ele>952.0</ele><time>2026-04-26T10:56:41.999Z</time></trkpt><trkpt lat="38.08584636443731" lon="15.244258103143112"><ele>952.0</ele><time>2026-04-26T10:56:42.999Z</time></trkpt><trkpt lat="38.085808494549624" lon="15.244338256632243"><ele>952.0</ele><time>2026-04-26T10:56:43.999Z</time></trkpt><trkpt lat="38.08578570341767" lon="15.24443337886211"><ele>952.0</ele><time>2026-04-26T10:56:44.999Z</time></trkpt><trkpt lat="38.0857795001369" lon="15.244523496917175"><ele>952.0</ele><time>2026-04-26T10:56:45.999Z</time></trkpt><trkpt lat="38.08572662778055" lon="15.24465317866133"><ele>955.8333333333333</ele><time>2026-04-26T10:56:47.999Z</time></trkpt><trkpt lat="38.085656680668066" lon="15.244701874756252"><ele>959.6666666666666</ele><time>2026-04-26T10:56:48.999Z</time></trkpt><trkpt lat="38.08558052789507" lon="15.244740167733038"><ele>963.5</ele><time>2026-04-26T10:56:49.999Z</time></trkpt><trkpt lat="38.08553541601317" lon="15.244811629154478"><ele>967.3333333333333</ele><time>2026-04-26T10:56:50.999Z</time></trkpt><trkpt lat="38.08550905613637" lon="15.244892293303792"><ele>971.1666666666666</ele><time>2026-04-26T10:57:06.999Z</time></trkpt><trkpt lat="38.08550809353733" lon="15.244781564797854"><ele>975.0</ele><time>2026-04-26T10:57:09.999Z</time></trkpt><trkpt lat="38.085587211236806" lon="15.244653976974014"><ele>975.0</ele><time>2026-04-26T10:57:11.999Z</time></trkpt><trkpt lat="38.085667893399446" lon="15.244589509329948"><ele>975.0</ele><time>2026-04-26T10:57:12.999Z</time></trkpt><trkpt lat="38.08570813259327" lon="15.24445085580965"><ele>975.0</ele><time>2026-04-26T10:57:14.999Z</time></trkpt><trkpt lat="38.08568591778959" lon="15.244372121706862"><ele>975.0</ele><time>2026-04-26T10:57:15.998Z</time></trkpt><trkpt lat="38.08564182215409" lon="15.244290029841377"><ele>975.0</ele><time>2026-04-26T10:57:16.998Z</time></trkpt><trkpt lat="38.085619991098724" lon="15.24418342147547"><ele>975.0</ele><time>2026-04-26T10:57:19Z</time></trkpt><trkpt lat="38.085691146896544" lon="15.244070420026127"><ele>975.0</ele><time>2026-04-26T10:57:21Z</time></trkpt><trkpt lat="38.08571861230052" lon="15.243991465898619"><ele>975.0</ele><time>2026-04-26T10:57:22Z</time></trkpt><trkpt lat="38.085681351790704" lon="15.243880353819277"><ele>975.0</ele><time>2026-04-26T10:57:24Z</time></trkpt><trkpt lat="38.08563490253872" lon="15.243779127291985"><ele>975.0</ele><time>2026-04-26T10:57:26Z</time></trkpt><trkpt lat="38.08563869745298" lon="15.243686792384642"><ele>975.0</ele><time>2026-04-26T10:57:27Z</time></trkpt><trkpt lat="38.08565616452412" lon="15.243575509542262"><ele>975.0</ele><time>2026-04-26T10:57:29Z</time></trkpt><trkpt lat="38.08558463881282" lon="15.24351738421022"><ele>969.5</ele><time>2026-04-26T10:57:31Z</time></trkpt><trkpt lat="38.085441253086664" lon="15.243531532300022"><ele>964.0</ele><time>2026-04-26T10:57:33Z</time></trkpt><trkpt lat="38.08536030010372" lon="15.243549992876458"><ele>958.5</ele><time>2026-04-26T10:57:34Z</time></trkpt><trkpt lat="38.085285236784514" lon="15.243574000853833"><ele>953.0</ele><time>2026-04-26T10:57:35Z</time></trkpt><trkpt lat="38.08522319011674" lon="15.243607346410528"><ele>947.5</ele><time>2026-04-26T10:57:36Z</time></trkpt><trkpt lat="38.08517453177745" lon="15.243662787223913"><ele>942.0</ele><time>2026-04-26T10:57:37Z</time></trkpt><trkpt lat="38.08514463839969" lon="15.243741135195156"><ele>942.0</ele><time>2026-04-26T10:57:38Z</time></trkpt><trkpt lat="38.08510390580223" lon="15.243817822162983"><ele>942.0</ele><time>2026-04-26T10:57:39Z</time></trkpt><trkpt lat="38.08500356912721" lon="15.243896461347253"><ele>942.0</ele><time>2026-04-26T10:57:41Z</time></trkpt><trkpt lat="38.084961217156874" lon="15.243967806970613"><ele>942.0</ele><time>2026-04-26T10:57:43Z</time></trkpt><trkpt lat="38.085038069887325" lon="15.24399616338475"><ele>942.0</ele><time>2026-04-26T10:57:45Z</time></trkpt><trkpt lat="38.08509503876354" lon="15.243935484885741"><ele>942.0</ele><time>2026-04-26T10:57:47Z</time></trkpt><trkpt lat="38.08516361373057" lon="15.243832851293666"><ele>942.0</ele><time>2026-04-26T10:57:49Z</time></trkpt><trkpt lat="38.08521673249892" lon="15.243774673066687"><ele>942.0</ele><time>2026-04-26T10:57:49.999Z</time></trkpt><trkpt lat="38.08530766333414" lon="15.24370127251642"><ele>942.0</ele><time>2026-04-26T10:57:51.999Z</time></trkpt><trkpt lat="38.08538668442542" lon="15.24373808541279"><ele>942.0</ele><time>2026-04-26T10:57:53.999Z</time></trkpt><trkpt lat="38.0853776469114" lon="15.24386676739899"><ele>942.0</ele><time>2026-04-26T10:57:55.999Z</time></trkpt><trkpt lat="38.0853550268905" lon="15.243954592046752"><ele>942.0</ele><time>2026-04-26T10:57:56.999Z</time></trkpt><trkpt lat="38.085347060462134" lon="15.244048619829611"><ele>947.5</ele><time>2026-04-26T10:57:57.999Z</time></trkpt><trkpt lat="38.08538959185159" lon="15.244166613985195"><ele>953.0</ele><time>2026-04-26T10:57:59.999Z</time></trkpt><trkpt lat="38.08536819321764" lon="15.24426850834281"><ele>958.5</ele><time>2026-04-26T10:58:01.999Z</time></trkpt><trkpt lat="38.085309856070886" lon="15.244355527528233"><ele>964.0</ele><time>2026-04-26T10:58:03.999Z</time></trkpt><trkpt lat="38.08524484488859" lon="15.244400907033937"><ele>969.5</ele><time>2026-04-26T10:58:04.999Z</time></trkpt><trkpt lat="38.085203645384965" lon="15.244462009905122"><ele>975.0</ele><time>2026-04-26T10:58:05.999Z</time></trkpt><trkpt lat="38.08517067959594" lon="15.244536811127132"><ele>975.0</ele><time>2026-04-26T10:58:06.999Z</time></trkpt><trkpt lat="38.08512381113392" lon="15.244665790569051"><ele>975.0</ele><time>2026-04-26T10:58:08.999Z</time></trkpt><trkpt lat="38.08515027171315" lon="15.244796578669389"><ele>975.0</ele><time>2026-04-26T10:58:10.999Z</time></trkpt><trkpt lat="38.08517867338193" lon="15.244957102970373"><ele>975.0</ele><time>2026-04-26T10:58:12.999Z</time></trkpt><trkpt lat="38.08514797509992" lon="15.24508738071748"><ele>978.0</ele><time>2026-04-26T10:58:14.999Z</time></trkpt><trkpt lat="38.08512485622552" lon="15.245207572842942"><ele>981.0</ele><time>2026-04-26T10:58:16.999Z</time></trkpt><trkpt lat="38.08515555001627" lon="15.245343745296367"><ele>984.0</ele><time>2026-04-26T10:58:18.999Z</time></trkpt><trkpt lat="38.08517251722694" lon="15.245425826693133"><ele>987.0</ele><time>2026-04-26T10:58:19.999Z</time></trkpt><trkpt lat="38.0851858795153" lon="15.245521773289356"><ele>990.0</ele><time>2026-04-26T10:58:20.999Z</time></trkpt><trkpt lat="38.08519218960219" lon="15.245616267967566"><ele>993.0</ele><time>2026-04-26T10:58:21.999Z</time></trkpt><trkpt lat="38.085203167759566" lon="15.245706155522278"><ele>994.1666666666666</ele><time>2026-04-26T10:58:22.999Z</time></trkpt><trkpt lat="38.08522496478003" lon="15.245795919251227"><ele>995.3333333333333</ele><time>2026-04-26T10:58:23.999Z</time></trkpt><trkpt lat="38.08526990853619" lon="15.24592053821926"><ele>996.5</ele><time>2026-04-26T10:58:25.999Z</time></trkpt><trkpt lat="38.08521299004498" lon="15.245954746281466"><ele>997.6666666666666</ele><time>2026-04-26T10:58:27.999Z</time></trkpt><trkpt lat="38.085155797801946" lon="15.245851252246508"><ele>998.8333333333333</ele><time>2026-04-26T10:58:29.999Z</time></trkpt><trkpt lat="38.0851336611864" lon="15.245759533452437"><ele>1000.0</ele><time>2026-04-26T10:58:30.999Z</time></trkpt><trkpt lat="38.08512129579046" lon="15.245665971984112"><ele>998.8333333333333</ele><time>2026-04-26T10:58:31.999Z</time></trkpt><trkpt lat="38.085097531682614" lon="15.245536990873752"><ele>997.6666666666666</ele><time>2026-04-26T10:58:32.999Z</time></trkpt><trkpt lat="38.08507351011351" lon="15.245405059229846"><ele>996.5</ele><time>2026-04-26T10:58:33.999Z</time></trkpt><trkpt lat="38.0850492452253" lon="15.245314260156714"><ele>995.3333333333333</ele><time>2026-04-26T10:58:34.999Z</time></trkpt><trkpt lat="38.08501742513617" lon="15.245219172379565"><ele>994.1666666666666</ele><time>2026-04-26T10:58:35.999Z</time></trkpt><trkpt lat="38.08500303175796" lon="15.245121384549334"><ele>993.0</ele><time>2026-04-26T10:58:36.999Z</time></trkpt><trkpt lat="38.08501533955762" lon="15.245025745818772"><ele>993.0</ele><time>2026-04-26T10:58:37.999Z</time></trkpt><trkpt lat="38.085024818043436" lon="15.244930872473784"><ele>993.0</ele><time>2026-04-26T10:58:38.999Z</time></trkpt><trkpt lat="38.084971466212316" lon="15.24477613942347"><ele>993.0</ele><time>2026-04-26T10:58:40.999Z</time></trkpt><trkpt lat="38.08491193792539" lon="15.244584234510715"><ele>993.0</ele><time>2026-04-26T10:58:42.999Z</time></trkpt><trkpt lat="38.0848626706611" lon="15.244479804161134"><ele>989.8333333333334</ele><time>2026-04-26T10:58:44.999Z</time></trkpt><trkpt lat="38.08476078901497" lon="15.244491200254501"><ele>986.6666666666667</ele><time>2026-04-26T10:58:46.999Z</time></trkpt><trkpt lat="38.084690123372575" lon="15.244531082305379"><ele>983.5</ele><time>2026-04-26T10:58:47.999Z</time></trkpt><trkpt lat="38.0846006283411" lon="15.24456528009519"><ele>980.3333333333334</ele><time>2026-04-26T10:58:48.999Z</time></trkpt><trkpt lat="38.08451470107628" lon="15.244586699519225"><ele>977.1666666666667</ele><time>2026-04-26T10:58:49.999Z</time></trkpt><trkpt lat="38.08443539601954" lon="15.244618891162654"><ele>974.0</ele><time>2026-04-26T10:58:50.999Z</time></trkpt><trkpt lat="38.08436446953649" lon="15.244653891064463"><ele>974.0000000000001</ele><time>2026-04-26T10:58:51.999Z</time></trkpt><trkpt lat="38.08430126623451" lon="15.24469999551789"><ele>974.0</ele><time>2026-04-26T10:58:52.999Z</time></trkpt><trkpt lat="38.084234680903904" lon="15.244742003730607"><ele>974.0</ele><time>2026-04-26T10:58:53.999Z</time></trkpt><trkpt lat="38.08416965553634" lon="15.244769483369234"><ele>974.0</ele><time>2026-04-26T10:58:54.999Z</time></trkpt><trkpt lat="38.08405752612118" lon="15.244797301108237"><ele>974.0000000000001</ele><time>2026-04-26T10:58:56.999Z</time></trkpt><trkpt lat="38.0840857327971" lon="15.244901844189057"><ele>974.0</ele><time>2026-04-26T10:58:59.999Z</time></trkpt><trkpt lat="38.08417847336406" lon="15.244867957883582"><ele>974.0</ele><time>2026-04-26T10:59:01.999Z</time></trkpt><trkpt lat="38.08423398399365" lon="15.244825359125253"><ele>974.0</ele><time>2026-04-26T10:59:02.999Z</time></trkpt><trkpt lat="38.08429539526617" lon="15.244799647019732"><ele>974.0</ele><time>2026-04-26T10:59:03.999Z</time></trkpt><trkpt lat="38.08435877705654" lon="15.244771672182711"><ele>974.0</ele><time>2026-04-26T10:59:04.999Z</time></trkpt><trkpt lat="38.084442356055796" lon="15.244746854811028"><ele>974.0</ele><time>2026-04-26T10:59:05.999Z</time></trkpt><trkpt lat="38.08451677672989" lon="15.24472772827772"><ele>974.0</ele><time>2026-04-26T10:59:06.999Z</time></trkpt><trkpt lat="38.08459247582267" lon="15.244727059259708"><ele>974.0</ele><time>2026-04-26T10:59:07.999Z</time></trkpt><trkpt lat="38.08465983108566" lon="15.24473295693092"><ele>981.4000000000001</ele><time>2026-04-26T10:59:08.999Z</time></trkpt><trkpt lat="38.084743432513335" lon="15.244800750877847"><ele>988.8000000000001</ele><time>2026-04-26T10:59:10.999Z</time></trkpt><trkpt lat="38.08478632838165" lon="15.244941965001154"><ele>996.1999999999999</ele><time>2026-04-26T10:59:12.999Z</time></trkpt><trkpt lat="38.084796185339364" lon="15.245031965778931"><ele>1003.5999999999999</ele><time>2026-04-26T10:59:13.999Z</time></trkpt><trkpt lat="38.084763486322466" lon="15.24519042323972"><ele>1011.0</ele><time>2026-04-26T10:59:15.999Z</time></trkpt><trkpt lat="38.08477713550519" lon="15.24534024992469"><ele>1011.0</ele><time>2026-04-26T10:59:17.999Z</time></trkpt><trkpt lat="38.08479870828807" lon="15.245497239972188"><ele>1011.0</ele><time>2026-04-26T10:59:19.999Z</time></trkpt><trkpt lat="38.084802229609146" lon="15.245580941314492"><ele>1011.0</ele><time>2026-04-26T10:59:20.999Z</time></trkpt><trkpt lat="38.08480492735302" lon="15.245667757112336"><ele>1011.0</ele><time>2026-04-26T10:59:21.999Z</time></trkpt><trkpt lat="38.08478376199463" lon="15.245788255361221"><ele>1011.0</ele><time>2026-04-26T10:59:24Z</time></trkpt><trkpt lat="38.084711242133444" lon="15.245757701364017"><ele>1011.0</ele><time>2026-04-26T10:59:26Z</time></trkpt><trkpt lat="38.084712369269496" lon="15.245616555456824"><ele>1011.0</ele><time>2026-04-26T10:59:28Z</time></trkpt><trkpt lat="38.084729672346654" lon="15.245520962647078"><ele>1011.0</ele><time>2026-04-26T10:59:29Z</time></trkpt><trkpt lat="38.08472092022405" lon="15.245419005570932"><ele>1011.0</ele><time>2026-04-26T10:59:30Z</time></trkpt><trkpt lat="38.0846749795368" lon="15.245320811872121"><ele>1011.0</ele><time>2026-04-26T10:59:31Z</time></trkpt><trkpt lat="38.08463437085962" lon="15.245232242820732"><ele>1011.0</ele><time>2026-04-26T10:59:32Z</time></trkpt><trkpt lat="38.08457282213494" lon="15.2451160940596"><ele>1011.0</ele><time>2026-04-26T10:59:34Z</time></trkpt><trkpt lat="38.084496376008424" lon="15.245084714603108"><ele>1011.0</ele><time>2026-04-26T10:59:36Z</time></trkpt><trkpt lat="38.08438389339119" lon="15.24512525497624"><ele>1010.9999999999999</ele><time>2026-04-26T10:59:38Z</time></trkpt><trkpt lat="38.084322465009556" lon="15.245170494341398"><ele>1010.9999999999999</ele><time>2026-04-26T10:59:39Z</time></trkpt><trkpt lat="38.08422631875528" lon="15.24524570556973"><ele>1011.0</ele><time>2026-04-26T10:59:41Z</time></trkpt><trkpt lat="38.08414537178957" lon="15.245329894452341"><ele>1011.0</ele><time>2026-04-26T10:59:43Z</time></trkpt><trkpt lat="38.084104735605166" lon="15.245393019153617"><ele>1011.0</ele><time>2026-04-26T10:59:44Z</time></trkpt><trkpt lat="38.0840550358809" lon="15.245486258663114"><ele>1011.0</ele><time>2026-04-26T10:59:46Z</time></trkpt><trkpt lat="38.08412597027133" lon="15.245525487352893"><ele>1011.0</ele><time>2026-04-26T10:59:48Z</time></trkpt><trkpt lat="38.08418675733074" lon="15.245455383224272"><ele>1011.0</ele><time>2026-04-26T10:59:50Z</time></trkpt><trkpt lat="38.08426062904861" lon="15.245342132739417"><ele>1011.0</ele><time>2026-04-26T10:59:52Z</time></trkpt><trkpt lat="38.084316357071955" lon="15.245297456804625"><ele>1011.0</ele><time>2026-04-26T10:59:53Z</time></trkpt><trkpt lat="38.08438258847892" lon="15.245299590977604"><ele>1011.0</ele><time>2026-04-26T10:59:54Z</time></trkpt><trkpt lat="38.08447402962836" lon="15.245379677691263"><ele>1011.0</ele><time>2026-04-26T10:59:56Z</time></trkpt><trkpt lat="38.084510032337164" lon="15.245517432579534"><ele>1011.0</ele><time>2026-04-26T10:59:58Z</time></trkpt><trkpt lat="38.08450563754851" lon="15.245667486879425"><ele>1011.0</ele><time>2026-04-26T11:00:00Z</time></trkpt><trkpt lat="38.08447110396186" lon="15.24579821916656"><ele>1015.8333333333334</ele><time>2026-04-26T11:00:02Z</time></trkpt><trkpt lat="38.084438274824016" lon="15.245866748810013"><ele>1020.6666666666667</ele><time>2026-04-26T11:00:03Z</time></trkpt><trkpt lat="38.08439437701269" lon="15.246026909666424"><ele>1025.5</ele><time>2026-04-26T11:00:05Z</time></trkpt><trkpt lat="38.08436351042853" lon="15.246106707364383"><ele>1030.3333333333335</ele><time>2026-04-26T11:00:06Z</time></trkpt><trkpt lat="38.08432763183665" lon="15.246172854854253"><ele>1035.1666666666667</ele><time>2026-04-26T11:00:07Z</time></trkpt><trkpt lat="38.08427619251295" lon="15.246224895178809"><ele>1040.0</ele><time>2026-04-26T11:00:08Z</time></trkpt><trkpt lat="38.084222808907484" lon="15.246280071716585"><ele>1040.0000000000002</ele><time>2026-04-26T11:00:09Z</time></trkpt><trkpt lat="38.08417981892365" lon="15.24635504197874"><ele>1040.0</ele><time>2026-04-26T11:00:10Z</time></trkpt><trkpt lat="38.084180521899704" lon="15.246437669081404"><ele>1040.0</ele><time>2026-04-26T11:00:11Z</time></trkpt><trkpt lat="38.08418572471396" lon="15.246523294774557"><ele>1040.0</ele><time>2026-04-26T11:00:12Z</time></trkpt><trkpt lat="38.08418491949957" lon="15.2466184887793"><ele>1040.0</ele><time>2026-04-26T11:00:12.999Z</time></trkpt><trkpt lat="38.08420767820667" lon="15.246707386223338"><ele>1040.0000000000002</ele><time>2026-04-26T11:00:13.999Z</time></trkpt><trkpt lat="38.08424024958354" lon="15.246804890025865"><ele>1040.0</ele><time>2026-04-26T11:00:14.999Z</time></trkpt><trkpt lat="38.08427300872509" lon="15.246879403165895"><ele>1041.857142857143</ele><time>2026-04-26T11:00:15.999Z</time></trkpt><trkpt lat="38.084308459393796" lon="15.246962045712827"><ele>1043.7142857142858</ele><time>2026-04-26T11:00:16.999Z</time></trkpt><trkpt lat="38.08432823393635" lon="15.247055730775642"><ele>1045.5714285714284</ele><time>2026-04-26T11:00:17.999Z</time></trkpt><trkpt lat="38.08433892761236" lon="15.247139724435518"><ele>1047.4285714285716</ele><time>2026-04-26T11:00:18.999Z</time></trkpt><trkpt lat="38.08434383346747" lon="15.2472288894038"><ele>1049.2857142857142</ele><time>2026-04-26T11:00:19.999Z</time></trkpt><trkpt lat="38.08433969511532" lon="15.247328227221844"><ele>1051.142857142857</ele><time>2026-04-26T11:00:20.999Z</time></trkpt><trkpt lat="38.08435654409113" lon="15.247408814289676"><ele>1053.0</ele><time>2026-04-26T11:00:21.999Z</time></trkpt><trkpt lat="38.084459852484486" lon="15.247515203361694"><ele>1056.0</ele><time>2026-04-26T11:00:23.999Z</time></trkpt><trkpt lat="38.084521169599334" lon="15.247563261720781"><ele>1059.0</ele><time>2026-04-26T11:00:24.999Z</time></trkpt><trkpt lat="38.08458105227412" lon="15.247637108561072"><ele>1062.0</ele><time>2026-04-26T11:00:25.999Z</time></trkpt><trkpt lat="38.08463562879387" lon="15.247726667081489"><ele>1065.0</ele><time>2026-04-26T11:00:26.999Z</time></trkpt><trkpt lat="38.08466320667969" lon="15.247824032911485"><ele>1068.0</ele><time>2026-04-26T11:00:27.999Z</time></trkpt><trkpt lat="38.08474051130689" lon="15.247949926464997"><ele>1068.0</ele><time>2026-04-26T11:00:29.999Z</time></trkpt><trkpt lat="38.08480389159317" lon="15.24799597540232"><ele>1068.0</ele><time>2026-04-26T11:00:30.999Z</time></trkpt><trkpt lat="38.08487108758777" lon="15.248048167625104"><ele>1068.0</ele><time>2026-04-26T11:00:31.999Z</time></trkpt><trkpt lat="38.08494384499546" lon="15.248095913648404"><ele>1068.0</ele><time>2026-04-26T11:00:32.999Z</time></trkpt><trkpt lat="38.085016355450854" lon="15.248143155703701"><ele>1068.0</ele><time>2026-04-26T11:00:33.999Z</time></trkpt><trkpt lat="38.085088463713085" lon="15.248179531436229"><ele>1068.0</ele><time>2026-04-26T11:00:34.999Z</time></trkpt><trkpt lat="38.08515093242995" lon="15.24823597027193"><ele>1068.6666666666667</ele><time>2026-04-26T11:00:35.999Z</time></trkpt><trkpt lat="38.08520915384447" lon="15.248297095463858"><ele>1069.3333333333333</ele><time>2026-04-26T11:00:36.999Z</time></trkpt><trkpt lat="38.08527373942824" lon="15.248365320316589"><ele>1070.0</ele><time>2026-04-26T11:00:37.999Z</time></trkpt><trkpt lat="38.08534378543884" lon="15.248421369929442"><ele>1070.6666666666665</ele><time>2026-04-26T11:00:38.999Z</time></trkpt><trkpt lat="38.08540680198779" lon="15.248471544496324"><ele>1071.3333333333333</ele><time>2026-04-26T11:00:39.999Z</time></trkpt><trkpt lat="38.0854624916961" lon="15.248522686110755"><ele>1072.0</ele><time>2026-04-26T11:00:40.999Z</time></trkpt><trkpt lat="38.085514917732624" lon="15.248580631977228"><ele>1072.0</ele><time>2026-04-26T11:00:41.999Z</time></trkpt><trkpt lat="38.08555999030239" lon="15.248639233604159"><ele>1072.0</ele><time>2026-04-26T11:00:42.999Z</time></trkpt><trkpt lat="38.08560082513497" lon="15.248708905469032"><ele>1072.0</ele><time>2026-04-26T11:00:43.999Z</time></trkpt><trkpt lat="38.085658258308094" lon="15.248784105145404"><ele>1072.0</ele><time>2026-04-26T11:00:44.999Z</time></trkpt><trkpt lat="38.08571230293075" lon="15.24885976403313"><ele>1072.0</ele><time>2026-04-26T11:00:45.999Z</time></trkpt><trkpt lat="38.085779082267635" lon="15.248931199276289"><ele>1072.0</ele><time>2026-04-26T11:00:46.999Z</time></trkpt><trkpt lat="38.08583680648139" lon="15.24897318654283"><ele>1072.0</ele><time>2026-04-26T11:00:47.999Z</time></trkpt><trkpt lat="38.08581727194466" lon="15.249063647277895"><ele>1072.0</ele><time>2026-04-26T11:00:50.999Z</time></trkpt><trkpt lat="38.085729514435876" lon="15.249033163149594"><ele>1072.0</ele><time>2026-04-26T11:00:52.999Z</time></trkpt><trkpt lat="38.08568129881345" lon="15.248963044157353"><ele>1072.0</ele><time>2026-04-26T11:00:53.999Z</time></trkpt><trkpt lat="38.08562465490891" lon="15.248872836886044"><ele>1072.0</ele><time>2026-04-26T11:00:54.999Z</time></trkpt><trkpt lat="38.0855505801585" lon="15.248786648328855"><ele>1072.0</ele><time>2026-04-26T11:00:55.999Z</time></trkpt><trkpt lat="38.08547735767828" lon="15.24873217816063"><ele>1072.0</ele><time>2026-04-26T11:00:56.999Z</time></trkpt><trkpt lat="38.085378435638596" lon="15.248667255200457"><ele>1072.0</ele><time>2026-04-26T11:00:58.999Z</time></trkpt><trkpt lat="38.085324593375" lon="15.24862380945413"><ele>1072.0</ele><time>2026-04-26T11:00:59.999Z</time></trkpt><trkpt lat="38.08522965515582" lon="15.24857719603447"><ele>1072.0</ele><time>2026-04-26T11:01:00.999Z</time></trkpt><trkpt lat="38.0851631193745" lon="15.248548968431805"><ele>1072.0</ele><time>2026-04-26T11:01:01.999Z</time></trkpt><trkpt lat="38.08508650999492" lon="15.248518287297076"><ele>1072.0</ele><time>2026-04-26T11:01:02.999Z</time></trkpt><trkpt lat="38.0850140386443" lon="15.248483629667456"><ele>1072.0</ele><time>2026-04-26T11:01:03.999Z</time></trkpt><trkpt lat="38.08493173223728" lon="15.248432276200969"><ele>1072.0</ele><time>2026-04-26T11:01:04.999Z</time></trkpt><trkpt lat="38.08486465235672" lon="15.248411084319416"><ele>1072.0</ele><time>2026-04-26T11:01:05.999Z</time></trkpt><trkpt lat="38.08479477977384" lon="15.248386417551165"><ele>1072.0</ele><time>2026-04-26T11:01:06.999Z</time></trkpt><trkpt lat="38.08466235788005" lon="15.248335851074478"><ele>1072.0</ele><time>2026-04-26T11:01:08.999Z</time></trkpt><trkpt lat="38.08459675273716" lon="15.248332068076175"><ele>1072.0</ele><time>2026-04-26T11:01:09.999Z</time></trkpt><trkpt lat="38.084524629682065" lon="15.248327683723813"><ele>1071.3333333333333</ele><time>2026-04-26T11:01:10.999Z</time></trkpt><trkpt lat="38.08444110260887" lon="15.248309074177378"><ele>1070.6666666666665</ele><time>2026-04-26T11:01:11.999Z</time></trkpt><trkpt lat="38.08437182312261" lon="15.248266864300124"><ele>1070.0</ele><time>2026-04-26T11:01:12.999Z</time></trkpt><trkpt lat="38.084298511037254" lon="15.248199140678842"><ele>1069.3333333333333</ele><time>2026-04-26T11:01:13.999Z</time></trkpt><trkpt lat="38.08423153501008" lon="15.248118005378346"><ele>1068.6666666666667</ele><time>2026-04-26T11:01:14.999Z</time></trkpt><trkpt lat="38.08416375274369" lon="15.248063707469338"><ele>1068.0</ele><time>2026-04-26T11:01:15.999Z</time></trkpt><trkpt lat="38.08408331348242" lon="15.248012472491872"><ele>1073.3333333333333</ele><time>2026-04-26T11:01:16.999Z</time></trkpt><trkpt lat="38.08400765726072" lon="15.247964511204513"><ele>1078.6666666666667</ele><time>2026-04-26T11:01:17.999Z</time></trkpt><trkpt lat="38.083956013220686" lon="15.247894393743705"><ele>1084.0</ele><time>2026-04-26T11:01:18.999Z</time></trkpt><trkpt lat="38.08387418516771" lon="15.247819660890181"><ele>1089.3333333333335</ele><time>2026-04-26T11:01:20.999Z</time></trkpt><trkpt lat="38.083847545707435" lon="15.247918435315094"><ele>1094.6666666666667</ele><time>2026-04-26T11:01:22.999Z</time></trkpt><trkpt lat="38.08390765418626" lon="15.248014896901497"><ele>1100.0</ele><time>2026-04-26T11:01:24.999Z</time></trkpt><trkpt lat="38.083966800382285" lon="15.248062045644211"><ele>1100.0</ele><time>2026-04-26T11:01:25.999Z</time></trkpt><trkpt lat="38.08402624718062" lon="15.248100641205662"><ele>1100.0</ele><time>2026-04-26T11:01:26.999Z</time></trkpt><trkpt lat="38.084108836047" lon="15.248155697491457"><ele>1100.0</ele><time>2026-04-26T11:01:27.999Z</time></trkpt><trkpt lat="38.08416624347626" lon="15.248237847990033"><ele>1100.0</ele><time>2026-04-26T11:01:28.999Z</time></trkpt><trkpt lat="38.0842277196817" lon="15.24833047307215"><ele>1100.0</ele><time>2026-04-26T11:01:30Z</time></trkpt><trkpt lat="38.084301989288065" lon="15.248402311122703"><ele>1100.0</ele><time>2026-04-26T11:01:31Z</time></trkpt><trkpt lat="38.08436833445829" lon="15.248469166283305"><ele>1099.5</ele><time>2026-04-26T11:01:32Z</time></trkpt><trkpt lat="38.08444736147898" lon="15.248546657874257"><ele>1099.0</ele><time>2026-04-26T11:01:33Z</time></trkpt><trkpt lat="38.08453661453422" lon="15.248590617979993"><ele>1098.5</ele><time>2026-04-26T11:01:34Z</time></trkpt><trkpt lat="38.0846121532081" lon="15.248641060914535"><ele>1098.0</ele><time>2026-04-26T11:01:35Z</time></trkpt><trkpt lat="38.08469652425068" lon="15.24869042881701"><ele>1097.5</ele><time>2026-04-26T11:01:36Z</time></trkpt><trkpt lat="38.08474053817227" lon="15.248750857547304"><ele>1097.0</ele><time>2026-04-26T11:01:37Z</time></trkpt><trkpt lat="38.08481932938948" lon="15.248822307677708"><ele>1097.0</ele><time>2026-04-26T11:01:38Z</time></trkpt><trkpt lat="38.08486204444363" lon="15.248893333564443"><ele>1097.0</ele><time>2026-04-26T11:01:39Z</time></trkpt><trkpt lat="38.084921323388535" lon="15.248965174516247"><ele>1097.0</ele><time>2026-04-26T11:01:40Z</time></trkpt><trkpt lat="38.084982077739795" lon="15.249041560022672"><ele>1097.0</ele><time>2026-04-26T11:01:41Z</time></trkpt><trkpt lat="38.08502613015564" lon="15.249115643139232"><ele>1097.0</ele><time>2026-04-26T11:01:42Z</time></trkpt><trkpt lat="38.085077400160365" lon="15.24918947101108"><ele>1097.0</ele><time>2026-04-26T11:01:43Z</time></trkpt><trkpt lat="38.08510456720679" lon="15.249264719060168"><ele>1098.3333333333335</ele><time>2026-04-26T11:01:44Z</time></trkpt><trkpt lat="38.085147343269064" lon="15.24934432671458"><ele>1099.6666666666667</ele><time>2026-04-26T11:01:45Z</time></trkpt><trkpt lat="38.08519063678223" lon="15.249420241264623"><ele>1101.0</ele><time>2026-04-26T11:01:46Z</time></trkpt><trkpt lat="38.085255457265674" lon="15.249496680192236"><ele>1102.3333333333333</ele><time>2026-04-26T11:01:47Z</time></trkpt><trkpt lat="38.085307920279" lon="15.249569023335612"><ele>1103.6666666666665</ele><time>2026-04-26T11:01:48Z</time></trkpt><trkpt lat="38.08538510295931" lon="15.249633678954211"><ele>1105.0</ele><time>2026-04-26T11:01:49Z</time></trkpt><trkpt lat="38.085458757053075" lon="15.249693940313648"><ele>1105.0</ele><time>2026-04-26T11:01:50Z</time></trkpt><trkpt lat="38.08552369236971" lon="15.249751610526713"><ele>1105.0</ele><time>2026-04-26T11:01:51Z</time></trkpt><trkpt lat="38.08559102732461" lon="15.249815712273758"><ele>1105.0</ele><time>2026-04-26T11:01:52Z</time></trkpt><trkpt lat="38.08565304562968" lon="15.249879886461509"><ele>1105.0</ele><time>2026-04-26T11:01:53Z</time></trkpt><trkpt lat="38.08570891961725" lon="15.249944701981022"><ele>1105.0</ele><time>2026-04-26T11:01:54Z</time></trkpt><trkpt lat="38.08578614185743" lon="15.250041406008503"><ele>1105.0</ele><time>2026-04-26T11:01:56Z</time></trkpt><trkpt lat="38.08570084967766" lon="15.250065084186135"><ele>1108.2</ele><time>2026-04-26T11:01:59Z</time></trkpt><trkpt lat="38.08561982046803" lon="15.250019630860955"><ele>1111.4</ele><time>2026-04-26T11:02:01Z</time></trkpt><trkpt lat="38.08554393453093" lon="15.249960369016058"><ele>1114.6</ele><time>2026-04-26T11:02:03Z</time></trkpt><trkpt lat="38.0854225617324" lon="15.249930319764557"><ele>1117.8</ele><time>2026-04-26T11:02:05Z</time></trkpt><trkpt lat="38.08535840838623" lon="15.249908638885275"><ele>1121.0</ele><time>2026-04-26T11:02:06Z</time></trkpt><trkpt lat="38.08527479312376" lon="15.249877516606372"><ele>1121.0</ele><time>2026-04-26T11:02:07Z</time></trkpt><trkpt lat="38.08521133245492" lon="15.249857745013937"><ele>1121.0</ele><time>2026-04-26T11:02:08Z</time></trkpt><trkpt lat="38.085148081088576" lon="15.24983134668179"><ele>1121.0</ele><time>2026-04-26T11:02:09Z</time></trkpt><trkpt lat="38.08508344619403" lon="15.249794854416972"><ele>1121.0</ele><time>2026-04-26T11:02:10Z</time></trkpt><trkpt lat="38.08501769900382" lon="15.249743901991318"><ele>1121.0</ele><time>2026-04-26T11:02:12Z</time></trkpt><trkpt lat="38.08496590688056" lon="15.249670129348717"><ele>1121.0</ele><time>2026-04-26T11:02:15Z</time></trkpt><trkpt lat="38.08487375066656" lon="15.249566545253195"><ele>1121.5</ele><time>2026-04-26T11:02:17Z</time></trkpt><trkpt lat="38.08480543329963" lon="15.249510785596296"><ele>1122.0</ele><time>2026-04-26T11:02:18Z</time></trkpt><trkpt lat="38.08473525662973" lon="15.249449724938867"><ele>1122.5</ele><time>2026-04-26T11:02:19Z</time></trkpt><trkpt lat="38.084660696790436" lon="15.249384333551108"><ele>1123.0</ele><time>2026-04-26T11:02:20Z</time></trkpt><trkpt lat="38.08458041740354" lon="15.24933703607934"><ele>1123.5</ele><time>2026-04-26T11:02:21Z</time></trkpt><trkpt lat="38.08450131835078" lon="15.249297914485565"><ele>1124.0</ele><time>2026-04-26T11:02:22Z</time></trkpt><trkpt lat="38.08442107750799" lon="15.249258557137221"><ele>1124.0</ele><time>2026-04-26T11:02:23Z</time></trkpt><trkpt lat="38.084336268656735" lon="15.249229436344143"><ele>1124.0</ele><time>2026-04-26T11:02:24Z</time></trkpt><trkpt lat="38.08426578541418" lon="15.249199470725967"><ele>1124.0</ele><time>2026-04-26T11:02:25Z</time></trkpt><trkpt lat="38.084161482026275" lon="15.249174331077905"><ele>1124.0</ele><time>2026-04-26T11:02:27Z</time></trkpt><trkpt lat="38.084087870430494" lon="15.249168452150876"><ele>1124.0</ele><time>2026-04-26T11:02:29Z</time></trkpt><trkpt lat="38.08401815337773" lon="15.249139077525443"><ele>1124.0</ele><time>2026-04-26T11:02:39.999Z</time></trkpt><trkpt lat="38.084094245355004" lon="15.24916289846834"><ele>1124.0</ele><time>2026-04-26T11:03:24.999Z</time></trkpt><trkpt lat="38.084214608046075" lon="15.249190860375501"><ele>1124.0</ele><time>2026-04-26T11:03:26.999Z</time></trkpt><trkpt lat="38.084291471191996" lon="15.24920247363269"><ele>1124.0</ele><time>2026-04-26T11:03:27.999Z</time></trkpt><trkpt lat="38.084354170658145" lon="15.249230612563663"><ele>1124.0</ele><time>2026-04-26T11:03:28.999Z</time></trkpt><trkpt lat="38.084450280562315" lon="15.249285574568676"><ele>1124.0</ele><time>2026-04-26T11:03:30.999Z</time></trkpt><trkpt lat="38.0845701595088" lon="15.249328016936493"><ele>1124.0</ele><time>2026-04-26T11:03:32.999Z</time></trkpt><trkpt lat="38.084671881089356" lon="15.249390723018328"><ele>1124.0</ele><time>2026-04-26T11:03:34.999Z</time></trkpt><trkpt lat="38.08473400694127" lon="15.249437587317095"><ele>1124.0</ele><time>2026-04-26T11:03:36Z</time></trkpt><trkpt lat="38.08479794710654" lon="15.249489722910804"><ele>1124.0</ele><time>2026-04-26T11:03:37Z</time></trkpt><trkpt lat="38.08485717879382" lon="15.249550117697384"><ele>1124.0</ele><time>2026-04-26T11:03:38Z</time></trkpt><trkpt lat="38.084915481587025" lon="15.249607237375919"><ele>1124.0</ele><time>2026-04-26T11:03:39Z</time></trkpt><trkpt lat="38.08499905605109" lon="15.249704559266517"><ele>1123.5</ele><time>2026-04-26T11:03:41Z</time></trkpt><trkpt lat="38.0850429922007" lon="15.249811806445331"><ele>1123.0</ele><time>2026-04-26T11:03:43Z</time></trkpt><trkpt lat="38.085098048888774" lon="15.249914172032321"><ele>1122.5</ele><time>2026-04-26T11:03:45Z</time></trkpt><trkpt lat="38.08516546244486" lon="15.249975593931183"><ele>1122.0</ele><time>2026-04-26T11:03:48Z</time></trkpt><trkpt lat="38.0852360874795" lon="15.250044473883365"><ele>1121.5</ele><time>2026-04-26T11:03:51Z</time></trkpt><trkpt lat="38.08530961877079" lon="15.250081761401796"><ele>1121.0</ele><time>2026-04-26T11:03:53Z</time></trkpt><trkpt lat="38.085415376463516" lon="15.250123589522158"><ele>1121.0</ele><time>2026-04-26T11:03:55Z</time></trkpt><trkpt lat="38.08550605648827" lon="15.250187388801622"><ele>1121.0</ele><time>2026-04-26T11:03:57Z</time></trkpt><trkpt lat="38.085595616954286" lon="15.250218255726464"><ele>1121.0</ele><time>2026-04-26T11:04:00Z</time></trkpt><trkpt lat="38.08563878321858" lon="15.250278545709214"><ele>1121.0</ele><time>2026-04-26T11:04:03Z</time></trkpt><trkpt lat="38.08555285274984" lon="15.250216537785578"><ele>1121.0</ele><time>2026-04-26T11:04:18Z</time></trkpt><trkpt lat="38.08544453570886" lon="15.25015028212541"><ele>1121.0</ele><time>2026-04-26T11:04:20Z</time></trkpt><trkpt lat="38.08536141846398" lon="15.25010375229494"><ele>1121.0</ele><time>2026-04-26T11:04:21Z</time></trkpt><trkpt lat="38.085280199941685" lon="15.250060638215212"><ele>1121.0</ele><time>2026-04-26T11:04:22Z</time></trkpt><trkpt lat="38.08520519183918" lon="15.250029967226878"><ele>1121.0</ele><time>2026-04-26T11:04:23Z</time></trkpt><trkpt lat="38.0851100717714" lon="15.250000220198238"><ele>1121.0</ele><time>2026-04-26T11:04:24Z</time></trkpt><trkpt lat="38.08500472059197" lon="15.249975827215865"><ele>1122.6</ele><time>2026-04-26T11:04:25Z</time></trkpt><trkpt lat="38.08490556619187" lon="15.249953890216847"><ele>1124.1999999999998</ele><time>2026-04-26T11:04:26Z</time></trkpt><trkpt lat="38.084793017938736" lon="15.249945638618684"><ele>1125.8000000000002</ele><time>2026-04-26T11:04:27Z</time></trkpt><trkpt lat="38.0847029472217" lon="15.249941594066895"><ele>1127.4</ele><time>2026-04-26T11:04:28Z</time></trkpt><trkpt lat="38.08457770254123" lon="15.249898580623679"><ele>1129.0</ele><time>2026-04-26T11:04:30Z</time></trkpt><trkpt lat="38.08450229521078" lon="15.249866615366539"><ele>1129.0</ele><time>2026-04-26T11:04:31Z</time></trkpt><trkpt lat="38.08443568954276" lon="15.249840339318961"><ele>1129.0</ele><time>2026-04-26T11:04:32Z</time></trkpt><trkpt lat="38.08436224579448" lon="15.249805231770965"><ele>1129.0</ele><time>2026-04-26T11:04:33Z</time></trkpt><trkpt lat="38.0842416594941" lon="15.24976038526768"><ele>1129.0</ele><time>2026-04-26T11:04:35Z</time></trkpt><trkpt lat="38.08416749249497" lon="15.249744596435354"><ele>1129.0</ele><time>2026-04-26T11:04:36Z</time></trkpt><trkpt lat="38.08409833293613" lon="15.24973796251068"><ele>1129.0</ele><time>2026-04-26T11:04:37Z</time></trkpt><trkpt lat="38.0840131459438" lon="15.249710567731094"><ele>1130.5</ele><time>2026-04-26T11:04:38Z</time></trkpt><trkpt lat="38.08395112890075" lon="15.249693830317451"><ele>1132.0</ele><time>2026-04-26T11:04:39Z</time></trkpt><trkpt lat="38.08388781362937" lon="15.249644522376355"><ele>1133.5</ele><time>2026-04-26T11:04:40Z</time></trkpt><trkpt lat="38.08381495091841" lon="15.249602907605269"><ele>1135.0</ele><time>2026-04-26T11:04:41Z</time></trkpt><trkpt lat="38.0837164517921" lon="15.249546907614949"><ele>1136.5</ele><time>2026-04-26T11:04:42Z</time></trkpt><trkpt lat="38.08362228450113" lon="15.24950354379602"><ele>1138.0</ele><time>2026-04-26T11:04:43Z</time></trkpt><trkpt lat="38.08353714378676" lon="15.249460123289337"><ele>1138.0</ele><time>2026-04-26T11:04:44Z</time></trkpt><trkpt lat="38.08345673791929" lon="15.249412905076081"><ele>1138.0</ele><time>2026-04-26T11:04:45Z</time></trkpt><trkpt lat="38.08337984215909" lon="15.249384175641712"><ele>1138.0</ele><time>2026-04-26T11:04:46Z</time></trkpt><trkpt lat="38.0832952824885" lon="15.24933694242121"><ele>1138.0</ele><time>2026-04-26T11:04:47Z</time></trkpt><trkpt lat="38.083204082469315" lon="15.249305532484103"><ele>1138.0</ele><time>2026-04-26T11:04:48Z</time></trkpt><trkpt lat="38.083109603438324" lon="15.249267069160485"><ele>1142.2</ele><time>2026-04-26T11:04:49Z</time></trkpt><trkpt lat="38.08301746420491" lon="15.249253851268321"><ele>1146.4</ele><time>2026-04-26T11:04:50Z</time></trkpt><trkpt lat="38.08293296073802" lon="15.249241646350265"><ele>1150.6000000000001</ele><time>2026-04-26T11:04:51Z</time></trkpt><trkpt lat="38.0828105111839" lon="15.249209747709667"><ele>1154.8</ele><time>2026-04-26T11:04:52.999Z</time></trkpt><trkpt lat="38.08274301306387" lon="15.249165829576837"><ele>1159.0</ele><time>2026-04-26T11:04:53.999Z</time></trkpt><trkpt lat="38.08267006181574" lon="15.249129538458327"><ele>1159.0</ele><time>2026-04-26T11:04:54.999Z</time></trkpt><trkpt lat="38.08259564748232" lon="15.249097880850385"><ele>1159.0</ele><time>2026-04-26T11:04:55.999Z</time></trkpt><trkpt lat="38.082515863539626" lon="15.249058980406911"><ele>1159.0</ele><time>2026-04-26T11:04:56.999Z</time></trkpt><trkpt lat="38.08243551915375" lon="15.249011172100692"><ele>1159.0</ele><time>2026-04-26T11:04:57.999Z</time></trkpt><trkpt lat="38.08236806706899" lon="15.248986081765366"><ele>1159.0</ele><time>2026-04-26T11:04:58.999Z</time></trkpt><trkpt lat="38.082293740996455" lon="15.248939271745408"><ele>1159.0</ele><time>2026-04-26T11:04:59.999Z</time></trkpt><trkpt lat="38.08223014945151" lon="15.248924578032389"><ele>1155.0</ele><time>2026-04-26T11:05:00.999Z</time></trkpt><trkpt lat="38.082109746500436" lon="15.248834182307512"><ele>1155.0</ele><time>2026-04-26T11:05:02.999Z</time></trkpt><trkpt lat="38.08204557938174" lon="15.248846511078115"><ele>1155.0</ele><time>2026-04-26T11:05:04.999Z</time></trkpt><trkpt lat="38.08197855641633" lon="15.248834845246558"><ele>1155.0</ele><time>2026-04-26T11:05:06.999Z</time></trkpt><trkpt lat="38.08189059778246" lon="15.248831603321767"><ele>1155.0</ele><time>2026-04-26T11:05:09.999Z</time></trkpt></trkseg><trkseg><trkpt lat="38.08187516108942" lon="15.248763188724471"><ele>1155.0</ele><time>2026-04-26T12:12:28Z</time></trkpt><trkpt lat="38.081939592296884" lon="15.248755080725484"><ele>1155.0</ele><time>2026-04-26T12:21:01Z</time></trkpt><trkpt lat="38.081994628316224" lon="15.248817498892993"><ele>1155.0</ele><time>2026-04-26T12:21:07Z</time></trkpt><trkpt lat="38.0820596580604" lon="15.248872017263114"><ele>1155.0</ele><time>2026-04-26T12:21:18Z</time></trkpt><trkpt lat="38.0821519747754" lon="15.248886732586243"><ele>1155.0</ele><time>2026-04-26T12:21:21Z</time></trkpt><trkpt lat="38.08222391811698" lon="15.248911600966691"><ele>1155.0</ele><time>2026-04-26T12:21:23Z</time></trkpt><trkpt lat="38.08229929783599" lon="15.248942055207118"><ele>1155.8</ele><time>2026-04-26T12:21:25Z</time></trkpt><trkpt lat="38.08240747522992" lon="15.248999365070725"><ele>1156.6</ele><time>2026-04-26T12:21:26.999Z</time></trkpt><trkpt lat="38.082496303951345" lon="15.249051014832224"><ele>1157.4</ele><time>2026-04-26T12:21:28.999Z</time></trkpt><trkpt lat="38.08258764517484" lon="15.249100379668178"><ele>1158.2</ele><time>2026-04-26T12:21:30.999Z</time></trkpt><trkpt lat="38.08269410585223" lon="15.249140278431055"><ele>1159.0</ele><time>2026-04-26T12:21:32.999Z</time></trkpt><trkpt lat="38.082776096948216" lon="15.249177887347773"><ele>1159.0</ele><time>2026-04-26T12:21:34.999Z</time></trkpt><trkpt lat="38.082849613497004" lon="15.249211245720991"><ele>1159.0</ele><time>2026-04-26T12:21:36.999Z</time></trkpt><trkpt lat="38.08293014450003" lon="15.249250431889642"><ele>1159.0</ele><time>2026-04-26T12:21:38.999Z</time></trkpt><trkpt lat="38.08299638560224" lon="15.24926932738312"><ele>1159.0</ele><time>2026-04-26T12:21:39.999Z</time></trkpt><trkpt lat="38.08306403990786" lon="15.249282633379986"><ele>1159.0</ele><time>2026-04-26T12:21:40.999Z</time></trkpt><trkpt lat="38.08313531092271" lon="15.249299730859747"><ele>1159.0</ele><time>2026-04-26T12:21:41.999Z</time></trkpt><trkpt lat="38.08321417136718" lon="15.249319098843507"><ele>1154.8</ele><time>2026-04-26T12:21:42.999Z</time></trkpt><trkpt lat="38.08330120986857" lon="15.249336946581664"><ele>1150.6000000000001</ele><time>2026-04-26T12:21:43.999Z</time></trkpt><trkpt lat="38.083438327418136" lon="15.249395509995036"><ele>1146.4</ele><time>2026-04-26T12:21:45.999Z</time></trkpt><trkpt lat="38.08350242145378" lon="15.249428664571209"><ele>1142.2</ele><time>2026-04-26T12:21:46.999Z</time></trkpt><trkpt lat="38.08357533157396" lon="15.249452660139303"><ele>1138.0</ele><time>2026-04-26T12:21:47.999Z</time></trkpt><trkpt lat="38.08368908521593" lon="15.249533876122305"><ele>1138.0</ele><time>2026-04-26T12:21:49.999Z</time></trkpt><trkpt lat="38.08374837538199" lon="15.249563005492911"><ele>1138.0</ele><time>2026-04-26T12:21:50.999Z</time></trkpt><trkpt lat="38.08385940905467" lon="15.249627680320128"><ele>1138.0</ele><time>2026-04-26T12:21:52.999Z</time></trkpt><trkpt lat="38.08395177987348" lon="15.249678482129081"><ele>1138.0</ele><time>2026-04-26T12:21:54.999Z</time></trkpt><trkpt lat="38.08403031717653" lon="15.24971911356995"><ele>1138.0</ele><time>2026-04-26T12:21:56.999Z</time></trkpt><trkpt lat="38.0841108615475" lon="15.249747370034921"><ele>1136.2</ele><time>2026-04-26T12:22:18.999Z</time></trkpt><trkpt lat="38.084237219032644" lon="15.249788968842614"><ele>1134.4</ele><time>2026-04-26T12:22:20.999Z</time></trkpt><trkpt lat="38.084308639411816" lon="15.249805070668698"><ele>1132.6000000000001</ele><time>2026-04-26T12:22:21.999Z</time></trkpt><trkpt lat="38.0843912555505" lon="15.249825576148512"><ele>1130.8</ele><time>2026-04-26T12:22:22.999Z</time></trkpt><trkpt lat="38.084455107223846" lon="15.249844753340115"><ele>1129.0</ele><time>2026-04-26T12:22:23.999Z</time></trkpt><trkpt lat="38.084584739019995" lon="15.249893482792691"><ele>1129.0</ele><time>2026-04-26T12:22:25.999Z</time></trkpt><trkpt lat="38.08470196006272" lon="15.249938364307148"><ele>1129.0</ele><time>2026-04-26T12:22:27.999Z</time></trkpt><trkpt lat="38.084858387691455" lon="15.249963389425883"><ele>1129.0</ele><time>2026-04-26T12:22:29.999Z</time></trkpt><trkpt lat="38.08493889304665" lon="15.249970024512313"><ele>1129.0</ele><time>2026-04-26T12:22:30.999Z</time></trkpt><trkpt lat="38.08502485149713" lon="15.249981354687606"><ele>1129.0</ele><time>2026-04-26T12:22:31.999Z</time></trkpt><trkpt lat="38.085115450814875" lon="15.249998869755746"><ele>1127.4</ele><time>2026-04-26T12:22:32.999Z</time></trkpt><trkpt lat="38.08522437329429" lon="15.250032355797156"><ele>1125.8000000000002</ele><time>2026-04-26T12:22:33.999Z</time></trkpt><trkpt lat="38.0853107613356" lon="15.250075238379361"><ele>1124.1999999999998</ele><time>2026-04-26T12:22:34.999Z</time></trkpt><trkpt lat="38.08540240605548" lon="15.250129375522398"><ele>1122.6</ele><time>2026-04-26T12:22:35.999Z</time></trkpt><trkpt lat="38.085474529009495" lon="15.250174747485937"><ele>1121.0</ele><time>2026-04-26T12:22:36.999Z</time></trkpt><trkpt lat="38.08555505107971" lon="15.250214933229204"><ele>1121.0</ele><time>2026-04-26T12:22:37.999Z</time></trkpt><trkpt lat="38.08563892979324" lon="15.250257832768296"><ele>1121.0</ele><time>2026-04-26T12:22:39Z</time></trkpt><trkpt lat="38.085719864196506" lon="15.250302207081909"><ele>1121.0</ele><time>2026-04-26T12:22:40Z</time></trkpt><trkpt lat="38.08581466538598" lon="15.250350699787692"><ele>1121.0</ele><time>2026-04-26T12:22:41Z</time></trkpt><trkpt lat="38.08591507101454" lon="15.250385827659954"><ele>1121.0</ele><time>2026-04-26T12:22:42Z</time></trkpt><trkpt lat="38.08600909138264" lon="15.250410458545337"><ele>1118.2</ele><time>2026-04-26T12:22:43Z</time></trkpt><trkpt lat="38.08611277551461" lon="15.250439072723056"><ele>1115.3999999999999</ele><time>2026-04-26T12:22:44Z</time></trkpt><trkpt lat="38.08621858057966" lon="15.25046865460268"><ele>1112.6</ele><time>2026-04-26T12:22:45Z</time></trkpt><trkpt lat="38.08632946767199" lon="15.250498889307293"><ele>1109.8</ele><time>2026-04-26T12:22:46Z</time></trkpt><trkpt lat="38.08643196629212" lon="15.250528984897322"><ele>1107.0</ele><time>2026-04-26T12:22:47Z</time></trkpt><trkpt lat="38.0865428943812" lon="15.250562472872204"><ele>1107.6</ele><time>2026-04-26T12:22:48Z</time></trkpt><trkpt lat="38.08664068447702" lon="15.250599176464394"><ele>1108.2</ele><time>2026-04-26T12:22:49Z</time></trkpt><trkpt lat="38.08672808257778" lon="15.250629800321928"><ele>1108.8</ele><time>2026-04-26T12:22:50Z</time></trkpt><trkpt lat="38.08681281928496" lon="15.250652388783623"><ele>1109.4</ele><time>2026-04-26T12:22:51Z</time></trkpt><trkpt lat="38.08689599094506" lon="15.250685174735773"><ele>1110.0</ele><time>2026-04-26T12:22:52Z</time></trkpt><trkpt lat="38.086974291226916" lon="15.250743120495379"><ele>1110.0</ele><time>2026-04-26T12:22:53Z</time></trkpt><trkpt lat="38.08704516421465" lon="15.25081791559493"><ele>1110.0</ele><time>2026-04-26T12:22:54Z</time></trkpt><trkpt lat="38.08709657541516" lon="15.2508879720315"><ele>1110.0</ele><time>2026-04-26T12:22:55Z</time></trkpt><trkpt lat="38.0871911636962" lon="15.250972032420629"><ele>1110.0</ele><time>2026-04-26T12:22:57Z</time></trkpt><trkpt lat="38.08731903133355" lon="15.251009944565112"><ele>1110.0</ele><time>2026-04-26T12:22:59Z</time></trkpt><trkpt lat="38.08739966839094" lon="15.251023293951652"><ele>1109.3333333333333</ele><time>2026-04-26T12:23:00Z</time></trkpt><trkpt lat="38.08748196818544" lon="15.251042224982442"><ele>1108.6666666666667</ele><time>2026-04-26T12:23:01Z</time></trkpt><trkpt lat="38.087570219336996" lon="15.251062617785248"><ele>1108.0</ele><time>2026-04-26T12:23:02Z</time></trkpt><trkpt lat="38.08765346069915" lon="15.251082815034511"><ele>1107.3333333333335</ele><time>2026-04-26T12:23:03Z</time></trkpt><trkpt lat="38.087771243795" lon="15.25111141815331"><ele>1106.6666666666667</ele><time>2026-04-26T12:23:05Z</time></trkpt><trkpt lat="38.08783393469385" lon="15.251130693963226"><ele>1106.0</ele><time>2026-04-26T12:23:06Z</time></trkpt><trkpt lat="38.087939072504675" lon="15.251171083114066"><ele>1106.0</ele><time>2026-04-26T12:23:08Z</time></trkpt><trkpt lat="38.08803316566048" lon="15.251210842922086"><ele>1106.0</ele><time>2026-04-26T12:23:10Z</time></trkpt><trkpt lat="38.08811937561096" lon="15.251246252251859"><ele>1106.0</ele><time>2026-04-26T12:23:12Z</time></trkpt><trkpt lat="38.08818710028387" lon="15.251275966905661"><ele>1106.0</ele><time>2026-04-26T12:23:14Z</time></trkpt><trkpt lat="38.08826092286977" lon="15.251308475008118"><ele>1106.0</ele><time>2026-04-26T12:23:17Z</time></trkpt><trkpt lat="38.088335312652205" lon="15.25134612382017"><ele>1106.0</ele><time>2026-04-26T12:23:20Z</time></trkpt><trkpt lat="38.088423235800235" lon="15.251379843802122"><ele>1103.6666666666667</ele><time>2026-04-26T12:23:23Z</time></trkpt><trkpt lat="38.088505934620166" lon="15.251416009589551"><ele>1101.3333333333335</ele><time>2026-04-26T12:23:25Z</time></trkpt><trkpt lat="38.08856995896712" lon="15.25143999480112"><ele>1099.0</ele><time>2026-04-26T12:23:27Z</time></trkpt><trkpt lat="38.08864710937287" lon="15.251464469405164"><ele>1096.6666666666667</ele><time>2026-04-26T12:23:31Z</time></trkpt><trkpt lat="38.0886965663823" lon="15.251403865112612"><ele>1094.3333333333333</ele><time>2026-04-26T12:23:35Z</time></trkpt><trkpt lat="38.08862358602175" lon="15.25131680406104"><ele>1092.0</ele><time>2026-04-26T12:23:38Z</time></trkpt><trkpt lat="38.08855740292474" lon="15.25131100164279"><ele>1092.0</ele><time>2026-04-26T12:23:39Z</time></trkpt><trkpt lat="38.08846181161122" lon="15.251289978178658"><ele>1092.0</ele><time>2026-04-26T12:23:41Z</time></trkpt><trkpt lat="38.08837789371181" lon="15.251266593567232"><ele>1092.0</ele><time>2026-04-26T12:23:43Z</time></trkpt><trkpt lat="38.08829630969175" lon="15.251239946582656"><ele>1092.0</ele><time>2026-04-26T12:23:44.999Z</time></trkpt><trkpt lat="38.08822581206072" lon="15.251214697093555"><ele>1092.0</ele><time>2026-04-26T12:23:46.999Z</time></trkpt><trkpt lat="38.0881492639958" lon="15.25117889296982"><ele>1092.0</ele><time>2026-04-26T12:23:48.999Z</time></trkpt><trkpt lat="38.08805032095697" lon="15.25113601316692"><ele>1094.8</ele><time>2026-04-26T12:23:50.999Z</time></trkpt><trkpt lat="38.08795281719822" lon="15.251086416921579"><ele>1097.6</ele><time>2026-04-26T12:23:52.999Z</time></trkpt><trkpt lat="38.08786776381785" lon="15.251038165002344"><ele>1100.3999999999999</ele><time>2026-04-26T12:23:54.999Z</time></trkpt><trkpt lat="38.08775239527532" lon="15.25103011427332"><ele>1103.2</ele><time>2026-04-26T12:23:56.999Z</time></trkpt><trkpt lat="38.087681928620526" lon="15.251053213531659"><ele>1106.0</ele><time>2026-04-26T12:23:58.999Z</time></trkpt><trkpt lat="38.08760799756742" lon="15.251065487763075"><ele>1106.0</ele><time>2026-04-26T12:24:02.999Z</time></trkpt><trkpt lat="38.087527765276725" lon="15.251073704580689"><ele>1106.0</ele><time>2026-04-26T12:24:04.999Z</time></trkpt><trkpt lat="38.08741205471703" lon="15.251036638216489"><ele>1106.0</ele><time>2026-04-26T12:24:06.999Z</time></trkpt><trkpt lat="38.08734432663302" lon="15.251022100942228"><ele>1106.0</ele><time>2026-04-26T12:24:07.999Z</time></trkpt><trkpt lat="38.087229444607736" lon="15.250979336978705"><ele>1106.0</ele><time>2026-04-26T12:24:09.999Z</time></trkpt><trkpt lat="38.08713694602005" lon="15.250939607370595"><ele>1106.6666666666667</ele><time>2026-04-26T12:24:11.999Z</time></trkpt><trkpt lat="38.08709475615939" lon="15.250879139130557"><ele>1107.3333333333335</ele><time>2026-04-26T12:24:13.999Z</time></trkpt><trkpt lat="38.08703086122874" lon="15.250812955725605"><ele>1108.0</ele><time>2026-04-26T12:24:15.999Z</time></trkpt><trkpt lat="38.086943220359174" lon="15.250728123809369"><ele>1108.6666666666667</ele><time>2026-04-26T12:24:17.999Z</time></trkpt><trkpt lat="38.086868513389966" lon="15.250674348712224"><ele>1109.3333333333333</ele><time>2026-04-26T12:24:19.999Z</time></trkpt><trkpt lat="38.0867719025955" lon="15.250620869891577"><ele>1110.0</ele><time>2026-04-26T12:24:21.999Z</time></trkpt><trkpt lat="38.08668512356675" lon="15.250597157392255"><ele>1109.5</ele><time>2026-04-26T12:24:23.999Z</time></trkpt><trkpt lat="38.08661642678048" lon="15.250579752096579"><ele>1109.0</ele><time>2026-04-26T12:24:24.999Z</time></trkpt><trkpt lat="38.08655321479914" lon="15.250559856648056"><ele>1108.5</ele><time>2026-04-26T12:24:25.999Z</time></trkpt><trkpt lat="38.08647681803055" lon="15.250537578998394"><ele>1108.0</ele><time>2026-04-26T12:24:26.999Z</time></trkpt><trkpt lat="38.086394008600394" lon="15.250517988227237"><ele>1107.5</ele><time>2026-04-26T12:24:27.999Z</time></trkpt><trkpt lat="38.086308196941474" lon="15.250491962356314"><ele>1107.0</ele><time>2026-04-26T12:24:28.999Z</time></trkpt><trkpt lat="38.08622286217841" lon="15.250468818934195"><ele>1107.0</ele><time>2026-04-26T12:24:29.999Z</time></trkpt><trkpt lat="38.08615006495133" lon="15.250447011746251"><ele>1107.0</ele><time>2026-04-26T12:24:30.999Z</time></trkpt><trkpt lat="38.086074993856364" lon="15.250431173056558"><ele>1107.0</ele><time>2026-04-26T12:24:31.999Z</time></trkpt><trkpt lat="38.08600520593466" lon="15.250410470659416"><ele>1107.0</ele><time>2026-04-26T12:24:32.999Z</time></trkpt><trkpt lat="38.085937253214965" lon="15.250383051139327"><ele>1107.0</ele><time>2026-04-26T12:24:33.999Z</time></trkpt><trkpt lat="38.08585301498679" lon="15.250353746384633"><ele>1107.0</ele><time>2026-04-26T12:24:34.999Z</time></trkpt><trkpt lat="38.08577174302485" lon="15.250321235227968"><ele>1109.3333333333333</ele><time>2026-04-26T12:24:35.999Z</time></trkpt><trkpt lat="38.085684967841495" lon="15.250286238782497"><ele>1111.6666666666667</ele><time>2026-04-26T12:24:36.999Z</time></trkpt><trkpt lat="38.085603895669585" lon="15.250251131269223"><ele>1114.0</ele><time>2026-04-26T12:24:37.999Z</time></trkpt><trkpt lat="38.08554814840929" lon="15.250208668154224"><ele>1116.3333333333335</ele><time>2026-04-26T12:24:38.999Z</time></trkpt><trkpt lat="38.08547451262339" lon="15.2501694754647"><ele>1118.6666666666667</ele><time>2026-04-26T12:24:39.999Z</time></trkpt><trkpt lat="38.08541462637061" lon="15.250129513627067"><ele>1121.0</ele><time>2026-04-26T12:24:40.999Z</time></trkpt><trkpt lat="38.08534173436397" lon="15.250088708940785"><ele>1121.0</ele><time>2026-04-26T12:24:41.999Z</time></trkpt><trkpt lat="38.08524130503113" lon="15.250040753441434"><ele>1121.0</ele><time>2026-04-26T12:24:43.999Z</time></trkpt><trkpt lat="38.08517435255159" lon="15.249999923539516"><ele>1121.0</ele><time>2026-04-26T12:24:46Z</time></trkpt><trkpt lat="38.08510205236831" lon="15.249934729460591"><ele>1121.0</ele><time>2026-04-26T12:24:49Z</time></trkpt><trkpt lat="38.08506279096084" lon="15.24986437233924"><ele>1121.0</ele><time>2026-04-26T12:24:55Z</time></trkpt><trkpt lat="38.0850837779641" lon="15.249784729789958"><ele>1121.0</ele><time>2026-04-26T12:25:00Z</time></trkpt><trkpt lat="38.085162406998876" lon="15.249810786721795"><ele>1121.0</ele><time>2026-04-26T12:25:02Z</time></trkpt><trkpt lat="38.08525661939712" lon="15.249870851516448"><ele>1121.0</ele><time>2026-04-26T12:25:04Z</time></trkpt><trkpt lat="38.0853556912357" lon="15.249894901197301"><ele>1121.0</ele><time>2026-04-26T12:25:06Z</time></trkpt><trkpt lat="38.085456549667555" lon="15.249927551151577"><ele>1121.0</ele><time>2026-04-26T12:25:08Z</time></trkpt><trkpt lat="38.085556540783884" lon="15.249967628929959"><ele>1121.0</ele><time>2026-04-26T12:25:10Z</time></trkpt><trkpt lat="38.08564401315355" lon="15.250016119671098"><ele>1121.0</ele><time>2026-04-26T12:25:12Z</time></trkpt><trkpt lat="38.08570430566857" lon="15.250052970429364"><ele>1121.0</ele><time>2026-04-26T12:25:14Z</time></trkpt><trkpt lat="38.08575952653817" lon="15.24999748387034"><ele>1121.0</ele><time>2026-04-26T12:25:19Z</time></trkpt><trkpt lat="38.08570462055523" lon="15.249917692201576"><ele>1121.0</ele><time>2026-04-26T12:25:21Z</time></trkpt><trkpt lat="38.08560288821306" lon="15.249829955015972"><ele>1121.0</ele><time>2026-04-26T12:25:23Z</time></trkpt><trkpt lat="38.08554564718392" lon="15.249774617635154"><ele>1121.0</ele><time>2026-04-26T12:25:24Z</time></trkpt><trkpt lat="38.08547820688741" lon="15.249706841261714"><ele>1118.3333333333335</ele><time>2026-04-26T12:25:25Z</time></trkpt><trkpt lat="38.085411147240144" lon="15.249651222165669"><ele>1115.6666666666667</ele><time>2026-04-26T12:25:26Z</time></trkpt><trkpt lat="38.08534858231319" lon="15.249594436230813"><ele>1113.0</ele><time>2026-04-26T12:25:27Z</time></trkpt><trkpt lat="38.0852484144559" lon="15.249490404068016"><ele>1110.3333333333333</ele><time>2026-04-26T12:25:29Z</time></trkpt><trkpt lat="38.085194357821216" lon="15.249430335288407"><ele>1107.6666666666665</ele><time>2026-04-26T12:25:30Z</time></trkpt><trkpt lat="38.08515703711662" lon="15.249364032806454"><ele>1105.0</ele><time>2026-04-26T12:25:31Z</time></trkpt><trkpt lat="38.08510019137443" lon="15.249230600237242"><ele>1105.0</ele><time>2026-04-26T12:25:33Z</time></trkpt><trkpt lat="38.085033499688905" lon="15.249109139376586"><ele>1105.0</ele><time>2026-04-26T12:25:35Z</time></trkpt><trkpt lat="38.0849664460973" lon="15.249016428726744"><ele>1105.0</ele><time>2026-04-26T12:25:37Z</time></trkpt><trkpt lat="38.08490380214338" lon="15.248937507930993"><ele>1105.0</ele><time>2026-04-26T12:25:39Z</time></trkpt><trkpt lat="38.08483088819238" lon="15.248849432165784"><ele>1105.0</ele><time>2026-04-26T12:25:41Z</time></trkpt><trkpt lat="38.08478696547262" lon="15.24879198447135"><ele>1103.4</ele><time>2026-04-26T12:25:42Z</time></trkpt><trkpt lat="38.08473347740165" lon="15.248743890094731"><ele>1101.8</ele><time>2026-04-26T12:25:43Z</time></trkpt><trkpt lat="38.08461764193571" lon="15.24864901394989"><ele>1100.2</ele><time>2026-04-26T12:25:45Z</time></trkpt><trkpt lat="38.08453212520056" lon="15.248590630022038"><ele>1098.6</ele><time>2026-04-26T12:25:46Z</time></trkpt><trkpt lat="38.084445824286476" lon="15.248527622551986"><ele>1097.0</ele><time>2026-04-26T12:25:47Z</time></trkpt><trkpt lat="38.08436022922771" lon="15.248457516834081"><ele>1097.0</ele><time>2026-04-26T12:25:48Z</time></trkpt><trkpt lat="38.0842878750061" lon="15.248385252196648"><ele>1097.0</ele><time>2026-04-26T12:25:49Z</time></trkpt><trkpt lat="38.084221244331935" lon="15.248310912971245"><ele>1097.0</ele><time>2026-04-26T12:25:50Z</time></trkpt><trkpt lat="38.084166063071244" lon="15.248238387683415"><ele>1097.0</ele><time>2026-04-26T12:25:51Z</time></trkpt><trkpt lat="38.08410045547108" lon="15.24816660895286"><ele>1097.0</ele><time>2026-04-26T12:25:51.999Z</time></trkpt><trkpt lat="38.08403447916188" lon="15.248098627695107"><ele>1097.0</ele><time>2026-04-26T12:25:52.999Z</time></trkpt><trkpt lat="38.083937503084" lon="15.24802041415855"><ele>1097.5</ele><time>2026-04-26T12:25:54.999Z</time></trkpt><trkpt lat="38.08386830245" lon="15.2479564725067"><ele>1098.0</ele><time>2026-04-26T12:25:56.999Z</time></trkpt><trkpt lat="38.08386934915594" lon="15.247861915256909"><ele>1098.5</ele><time>2026-04-26T12:25:58.999Z</time></trkpt><trkpt lat="38.08394089748611" lon="15.247851550153547"><ele>1099.0</ele><time>2026-04-26T12:26:00.999Z</time></trkpt><trkpt lat="38.084019966750546" lon="15.247965402019386"><ele>1099.5</ele><time>2026-04-26T12:26:02.999Z</time></trkpt><trkpt lat="38.08407929292987" lon="15.248038374368084"><ele>1100.0</ele><time>2026-04-26T12:26:03.999Z</time></trkpt><trkpt lat="38.084155396027334" lon="15.248078841454175"><ele>1099.5</ele><time>2026-04-26T12:26:04.999Z</time></trkpt><trkpt lat="38.084243410482195" lon="15.248133756597055"><ele>1099.0</ele><time>2026-04-26T12:26:05.999Z</time></trkpt><trkpt lat="38.08430270228144" lon="15.24818676832274"><ele>1098.5</ele><time>2026-04-26T12:26:06.999Z</time></trkpt><trkpt lat="38.08434990321761" lon="15.24824233765285"><ele>1098.0</ele><time>2026-04-26T12:26:07.999Z</time></trkpt><trkpt lat="38.084415668695925" lon="15.248300212761222"><ele>1097.5</ele><time>2026-04-26T12:26:08.999Z</time></trkpt><trkpt lat="38.084484006929216" lon="15.248332800850692"><ele>1097.0</ele><time>2026-04-26T12:26:09.999Z</time></trkpt><trkpt lat="38.08456511367939" lon="15.248339344050876"><ele>1097.0</ele><time>2026-04-26T12:26:10.999Z</time></trkpt><trkpt lat="38.084670233877" lon="15.248332861525762"><ele>1097.0</ele><time>2026-04-26T12:26:11.999Z</time></trkpt><trkpt lat="38.08474979841328" lon="15.248359269271502"><ele>1097.0</ele><time>2026-04-26T12:26:12.999Z</time></trkpt><trkpt lat="38.08484098841867" lon="15.24839426859912"><ele>1097.0</ele><time>2026-04-26T12:26:13.999Z</time></trkpt><trkpt lat="38.08492564379785" lon="15.248429875191759"><ele>1097.0</ele><time>2026-04-26T12:26:14.999Z</time></trkpt><trkpt lat="38.0850132478833" lon="15.248469669699848"><ele>1092.0</ele><time>2026-04-26T12:26:15.999Z</time></trkpt><trkpt lat="38.0851137870175" lon="15.248519506679775"><ele>1087.0</ele><time>2026-04-26T12:26:16.999Z</time></trkpt><trkpt lat="38.08519963187442" lon="15.248559562855126"><ele>1082.0</ele><time>2026-04-26T12:26:17.999Z</time></trkpt><trkpt lat="38.08528807560332" lon="15.24860118029122"><ele>1077.0</ele><time>2026-04-26T12:26:18.999Z</time></trkpt><trkpt lat="38.08536589212362" lon="15.248648424320185"><ele>1072.0</ele><time>2026-04-26T12:26:19.999Z</time></trkpt><trkpt lat="38.08543907918268" lon="15.248695346198687"><ele>1072.0</ele><time>2026-04-26T12:26:20.999Z</time></trkpt><trkpt lat="38.08550496212862" lon="15.24875771381764"><ele>1072.0</ele><time>2026-04-26T12:26:21.999Z</time></trkpt><trkpt lat="38.0855655288387" lon="15.24881865769698"><ele>1072.0</ele><time>2026-04-26T12:26:22.999Z</time></trkpt><trkpt lat="38.08562325545761" lon="15.248880136366465"><ele>1072.0</ele><time>2026-04-26T12:26:23.999Z</time></trkpt><trkpt lat="38.085675034120925" lon="15.24893625622949"><ele>1072.0</ele><time>2026-04-26T12:26:24.999Z</time></trkpt><trkpt lat="38.08572074385453" lon="15.248996670901118"><ele>1072.0</ele><time>2026-04-26T12:26:25.999Z</time></trkpt><trkpt lat="38.08576705535936" lon="15.249052700734108"><ele>1072.0</ele><time>2026-04-26T12:26:26.999Z</time></trkpt><trkpt lat="38.08583746420043" lon="15.249076324710522"><ele>1072.0</ele><time>2026-04-26T12:26:28.999Z</time></trkpt><trkpt lat="38.08585054699102" lon="15.248992873849653"><ele>1072.0</ele><time>2026-04-26T12:26:30.999Z</time></trkpt><trkpt lat="38.085782625249315" lon="15.248913106264318"><ele>1072.0</ele><time>2026-04-26T12:26:32.999Z</time></trkpt><trkpt lat="38.08571019088068" lon="15.248861727697422"><ele>1072.0</ele><time>2026-04-26T12:26:33.999Z</time></trkpt><trkpt lat="38.085651479905756" lon="15.248798922784633"><ele>1072.0</ele><time>2026-04-26T12:26:34.999Z</time></trkpt><trkpt lat="38.085602410874316" lon="15.248725792013323"><ele>1072.0</ele><time>2026-04-26T12:26:35.999Z</time></trkpt><trkpt lat="38.08556108817616" lon="15.248657710903283"><ele>1072.0</ele><time>2026-04-26T12:26:36.999Z</time></trkpt><trkpt lat="38.08551820054185" lon="15.248595025416833"><ele>1072.0</ele><time>2026-04-26T12:26:37.999Z</time></trkpt><trkpt lat="38.085451734973326" lon="15.248526662053145"><ele>1072.0</ele><time>2026-04-26T12:26:38.999Z</time></trkpt><trkpt lat="38.085384422427296" lon="15.248459352918015"><ele>1072.0</ele><time>2026-04-26T12:26:39.999Z</time></trkpt><trkpt lat="38.08531804098424" lon="15.248397674638015"><ele>1072.0</ele><time>2026-04-26T12:26:40.999Z</time></trkpt><trkpt lat="38.085232484356744" lon="15.248326996490636"><ele>1072.0</ele><time>2026-04-26T12:26:41.999Z</time></trkpt><trkpt lat="38.08514759609983" lon="15.248250567176909"><ele>1072.0</ele><time>2026-04-26T12:26:42.999Z</time></trkpt><trkpt lat="38.08508932447475" lon="15.248189582004722"><ele>1072.0</ele><time>2026-04-26T12:26:43.999Z</time></trkpt><trkpt lat="38.0850332750161" lon="15.24813801849566"><ele>1072.0</ele><time>2026-04-26T12:26:44.999Z</time></trkpt><trkpt lat="38.084953632536234" lon="15.248091706951575"><ele>1072.0</ele><time>2026-04-26T12:26:45.999Z</time></trkpt><trkpt lat="38.084877037934994" lon="15.248048744199533"><ele>1072.0</ele><time>2026-04-26T12:26:46.999Z</time></trkpt><trkpt lat="38.08478950216419" lon="15.247987117584064"><ele>1072.0</ele><time>2026-04-26T12:26:47.999Z</time></trkpt><trkpt lat="38.08471344644609" lon="15.247904757337373"><ele>1071.2</ele><time>2026-04-26T12:26:48.999Z</time></trkpt><trkpt lat="38.08465744487624" lon="15.247817135479275"><ele>1070.4</ele><time>2026-04-26T12:26:49.999Z</time></trkpt><trkpt lat="38.08461504126517" lon="15.24773277982931"><ele>1069.6</ele><time>2026-04-26T12:26:51Z</time></trkpt><trkpt lat="38.08453669158797" lon="15.24758066050895"><ele>1068.8</ele><time>2026-04-26T12:26:53Z</time></trkpt><trkpt lat="38.08447417188443" lon="15.24752621378855"><ele>1068.0</ele><time>2026-04-26T12:26:54Z</time></trkpt><trkpt lat="38.08440968185263" lon="15.247480292739551"><ele>1068.0</ele><time>2026-04-26T12:26:55Z</time></trkpt><trkpt lat="38.084351045943386" lon="15.247409832779374"><ele>1068.0</ele><time>2026-04-26T12:26:56Z</time></trkpt><trkpt lat="38.084328932908996" lon="15.24732553269074"><ele>1068.0</ele><time>2026-04-26T12:26:57Z</time></trkpt><trkpt lat="38.084341422160904" lon="15.247242137190042"><ele>1068.0</ele><time>2026-04-26T12:26:58Z</time></trkpt><trkpt lat="38.08435641999636" lon="15.247133825442049"><ele>1068.0</ele><time>2026-04-26T12:26:59Z</time></trkpt><trkpt lat="38.084340575308055" lon="15.247027892580414"><ele>1068.0</ele><time>2026-04-26T12:27:00Z</time></trkpt><trkpt lat="38.084309262739175" lon="15.246926646257657"><ele>1065.5</ele><time>2026-04-26T12:27:01Z</time></trkpt><trkpt lat="38.08426305648546" lon="15.246809651081636"><ele>1063.0</ele><time>2026-04-26T12:27:02Z</time></trkpt><trkpt lat="38.08423057973594" lon="15.246723918694345"><ele>1060.5</ele><time>2026-04-26T12:27:03Z</time></trkpt><trkpt lat="38.08420283276727" lon="15.246646674023365"><ele>1058.0</ele><time>2026-04-26T12:27:04Z</time></trkpt><trkpt lat="38.084189820852586" lon="15.246557288702741"><ele>1055.5</ele><time>2026-04-26T12:27:05Z</time></trkpt><trkpt lat="38.08419404403161" lon="15.246441965946362"><ele>1053.0</ele><time>2026-04-26T12:27:06Z</time></trkpt><trkpt lat="38.084216881323464" lon="15.246341741528399"><ele>1051.142857142857</ele><time>2026-04-26T12:27:07Z</time></trkpt><trkpt lat="38.08424439632477" lon="15.246258444341233"><ele>1049.2857142857142</ele><time>2026-04-26T12:27:08Z</time></trkpt><trkpt lat="38.08429666775903" lon="15.246190483030338"><ele>1047.4285714285716</ele><time>2026-04-26T12:27:09Z</time></trkpt><trkpt lat="38.08435495940877" lon="15.246149249690788"><ele>1045.5714285714284</ele><time>2026-04-26T12:27:10Z</time></trkpt><trkpt lat="38.08440207112467" lon="15.246075216232006"><ele>1043.7142857142858</ele><time>2026-04-26T12:27:11Z</time></trkpt><trkpt lat="38.08442328620334" lon="15.245981573307521"><ele>1041.857142857143</ele><time>2026-04-26T12:27:12Z</time></trkpt><trkpt lat="38.084437807428955" lon="15.245889413824832"><ele>1040.0</ele><time>2026-04-26T12:27:13Z</time></trkpt><trkpt lat="38.08447071478973" lon="15.24578574950459"><ele>1040.0</ele><time>2026-04-26T12:27:14Z</time></trkpt><trkpt lat="38.08449913874376" lon="15.245705223748542"><ele>1040.0</ele><time>2026-04-26T12:27:15Z</time></trkpt><trkpt lat="38.08451704165818" lon="15.245622987556446"><ele>1040.0</ele><time>2026-04-26T12:27:16Z</time></trkpt><trkpt lat="38.08451125507003" lon="15.245536234736242"><ele>1040.0</ele><time>2026-04-26T12:27:17Z</time></trkpt><trkpt lat="38.08446229379677" lon="15.24539096772625"><ele>1040.0</ele><time>2026-04-26T12:27:19Z</time></trkpt><trkpt lat="38.08436944927963" lon="15.245325238744545"><ele>1040.0</ele><time>2026-04-26T12:27:21Z</time></trkpt><trkpt lat="38.08425334274044" lon="15.245341045542943"><ele>1035.857142857143</ele><time>2026-04-26T12:27:23Z</time></trkpt><trkpt lat="38.08420204112975" lon="15.24539199555883"><ele>1031.7142857142858</ele><time>2026-04-26T12:27:24Z</time></trkpt><trkpt lat="38.0841616139797" lon="15.245453577353226"><ele>1027.5714285714284</ele><time>2026-04-26T12:27:25Z</time></trkpt><trkpt lat="38.0841033223983" lon="15.245546371641996"><ele>1023.4285714285714</ele><time>2026-04-26T12:27:27Z</time></trkpt><trkpt lat="38.08404861632118" lon="15.245492448604095"><ele>1019.2857142857142</ele><time>2026-04-26T12:27:30Z</time></trkpt><trkpt lat="38.08409118538956" lon="15.245403762083534"><ele>1015.142857142857</ele><time>2026-04-26T12:27:47Z</time></trkpt><trkpt lat="38.08414495277954" lon="15.245335775124579"><ele>1010.9999999999999</ele><time>2026-04-26T12:27:49Z</time></trkpt><trkpt lat="38.08421031276856" lon="15.24525969109554"><ele>1011.0</ele><time>2026-04-26T12:27:51Z</time></trkpt><trkpt lat="38.084283642008444" lon="15.245192886278248"><ele>1010.9999999999999</ele><time>2026-04-26T12:27:53Z</time></trkpt><trkpt lat="38.084371948483295" lon="15.245136430571579"><ele>1010.9999999999999</ele><time>2026-04-26T12:27:55Z</time></trkpt><trkpt lat="38.08447459754976" lon="15.24509497784231"><ele>1011.0</ele><time>2026-04-26T12:27:57Z</time></trkpt><trkpt lat="38.0845515063932" lon="15.24510595923113"><ele>1011.0</ele><time>2026-04-26T12:27:59Z</time></trkpt><trkpt lat="38.08461859578642" lon="15.245193346537551"><ele>1011.0</ele><time>2026-04-26T12:28:01Z</time></trkpt><trkpt lat="38.08465238867117" lon="15.245321055502721"><ele>1010.9999999999999</ele><time>2026-04-26T12:28:02.999Z</time></trkpt><trkpt lat="38.08470333173447" lon="15.245463911324137"><ele>1010.9999999999999</ele><time>2026-04-26T12:28:04.999Z</time></trkpt><trkpt lat="38.084725345110556" lon="15.245611204827824"><ele>1011.0</ele><time>2026-04-26T12:28:06.999Z</time></trkpt><trkpt lat="38.08470603993647" lon="15.245728407914694"><ele>1011.0</ele><time>2026-04-26T12:28:08.999Z</time></trkpt><trkpt lat="38.08477226493578" lon="15.245783258177573"><ele>1011.0</ele><time>2026-04-26T12:28:11.999Z</time></trkpt><trkpt lat="38.08481932386449" lon="15.24569010036035"><ele>1010.9999999999999</ele><time>2026-04-26T12:28:13.999Z</time></trkpt><trkpt lat="38.08480139122259" lon="15.24552416379314"><ele>1010.9999999999999</ele><time>2026-04-26T12:28:15.999Z</time></trkpt><trkpt lat="38.08480600239701" lon="15.245434024188823"><ele>1011.0</ele><time>2026-04-26T12:28:16.999Z</time></trkpt><trkpt lat="38.084776221882585" lon="15.245283186579707"><ele>1011.0</ele><time>2026-04-26T12:28:18.999Z</time></trkpt><trkpt lat="38.08475632682524" lon="15.245173598506119"><ele>1011.0</ele><time>2026-04-26T12:28:19.999Z</time></trkpt><trkpt lat="38.08477103891577" lon="15.245070740996749"><ele>1010.9999999999999</ele><time>2026-04-26T12:28:20.999Z</time></trkpt><trkpt lat="38.08478369281635" lon="15.244912583266641"><ele>1010.9999999999999</ele><time>2026-04-26T12:28:22.999Z</time></trkpt><trkpt lat="38.08473202677779" lon="15.244779324756395"><ele>1011.0</ele><time>2026-04-26T12:28:24.999Z</time></trkpt><trkpt lat="38.08464888963609" lon="15.244720384414665"><ele>1011.0</ele><time>2026-04-26T12:28:26.999Z</time></trkpt><trkpt lat="38.08452431203516" lon="15.24472769636488"><ele>1011.0</ele><time>2026-04-26T12:28:28.999Z</time></trkpt><trkpt lat="38.08444021244962" lon="15.244744063734828"><ele>1011.0</ele><time>2026-04-26T12:28:29.999Z</time></trkpt><trkpt lat="38.08436652183978" lon="15.244768755870586"><ele>1011.0</ele><time>2026-04-26T12:28:30.999Z</time></trkpt><trkpt lat="38.0843002035057" lon="15.244794562543094"><ele>1011.0</ele><time>2026-04-26T12:28:31.999Z</time></trkpt><trkpt lat="38.084228050582944" lon="15.244820996328512"><ele>1011.0</ele><time>2026-04-26T12:28:32.999Z</time></trkpt><trkpt lat="38.0841445369923" lon="15.244880604208843"><ele>1011.0</ele><time>2026-04-26T12:28:34.999Z</time></trkpt><trkpt lat="38.0840708095762" lon="15.24483628406856"><ele>1004.8333333333334</ele><time>2026-04-26T12:28:37.999Z</time></trkpt><trkpt lat="38.08410998470053" lon="15.244758997230752"><ele>998.6666666666667</ele><time>2026-04-26T12:28:39.999Z</time></trkpt><trkpt lat="38.08422848485011" lon="15.244737062296362"><ele>992.5</ele><time>2026-04-26T12:28:41.999Z</time></trkpt><trkpt lat="38.08429773676532" lon="15.244705740338127"><ele>986.3333333333334</ele><time>2026-04-26T12:28:42.999Z</time></trkpt><trkpt lat="38.08437062894233" lon="15.244666851658312"><ele>980.1666666666667</ele><time>2026-04-26T12:28:43.999Z</time></trkpt><trkpt lat="38.08443605437692" lon="15.24463225751624"><ele>974.0</ele><time>2026-04-26T12:28:44.999Z</time></trkpt><trkpt lat="38.08450591754935" lon="15.244595764125172"><ele>974.0</ele><time>2026-04-26T12:28:45.999Z</time></trkpt><trkpt lat="38.084575217529796" lon="15.24455688753311"><ele>974.0000000000001</ele><time>2026-04-26T12:28:46.999Z</time></trkpt><trkpt lat="38.08469539584387" lon="15.244528789681603"><ele>974.0000000000001</ele><time>2026-04-26T12:28:48.999Z</time></trkpt><trkpt lat="38.08481473846308" lon="15.244519770189257"><ele>974.0</ele><time>2026-04-26T12:28:50.999Z</time></trkpt><trkpt lat="38.084896385047806" lon="15.244542544719948"><ele>974.0</ele><time>2026-04-26T12:28:52.999Z</time></trkpt><trkpt lat="38.084947899714436" lon="15.24465776436416"><ele>977.8000000000001</ele><time>2026-04-26T12:28:54.999Z</time></trkpt><trkpt lat="38.08497537339736" lon="15.244815676802215"><ele>981.6000000000001</ele><time>2026-04-26T12:28:57Z</time></trkpt><trkpt lat="38.08500291574788" lon="15.244892977565929"><ele>985.4</ele><time>2026-04-26T12:28:58Z</time></trkpt><trkpt lat="38.085029284156576" lon="15.244971689252072"><ele>989.2</ele><time>2026-04-26T12:28:59Z</time></trkpt><trkpt lat="38.08502288794729" lon="15.245132225542909"><ele>993.0</ele><time>2026-04-26T12:29:01Z</time></trkpt><trkpt lat="38.08500960010422" lon="15.245228781318321"><ele>993.0</ele><time>2026-04-26T12:29:02Z</time></trkpt><trkpt lat="38.08503311268817" lon="15.245304341925173"><ele>993.0</ele><time>2026-04-26T12:29:03Z</time></trkpt><trkpt lat="38.08506624147321" lon="15.245383669831384"><ele>993.0</ele><time>2026-04-26T12:29:04Z</time></trkpt><trkpt lat="38.085104698242" lon="15.245534219086304"><ele>993.0</ele><time>2026-04-26T12:29:06Z</time></trkpt><trkpt lat="38.08512509072783" lon="15.24564500923806"><ele>993.0</ele><time>2026-04-26T12:29:07Z</time></trkpt><trkpt lat="38.08513574418708" lon="15.24573476163363"><ele>993.0</ele><time>2026-04-26T12:29:08Z</time></trkpt><trkpt lat="38.08515766585231" lon="15.245868363503138"><ele>993.0</ele><time>2026-04-26T12:29:10Z</time></trkpt><trkpt lat="38.08520361335754" lon="15.245945389103674"><ele>993.0</ele><time>2026-04-26T12:29:12Z</time></trkpt><trkpt lat="38.08526547630407" lon="15.245881075875342"><ele>993.0</ele><time>2026-04-26T12:29:14Z</time></trkpt><trkpt lat="38.0852113041197" lon="15.245738350196074"><ele>993.0</ele><time>2026-04-26T12:29:16Z</time></trkpt><trkpt lat="38.08518062296135" lon="15.245635050467655"><ele>993.0</ele><time>2026-04-26T12:29:17Z</time></trkpt><trkpt lat="38.085169540979834" lon="15.245545545225964"><ele>993.0</ele><time>2026-04-26T12:29:18Z</time></trkpt><trkpt lat="38.08516930853069" lon="15.245438991440665"><ele>993.0</ele><time>2026-04-26T12:29:19Z</time></trkpt><trkpt lat="38.08515906695798" lon="15.245350080269487"><ele>993.0</ele><time>2026-04-26T12:29:20Z</time></trkpt><trkpt lat="38.08514456461707" lon="15.245269275753673"><ele>993.0</ele><time>2026-04-26T12:29:21Z</time></trkpt><trkpt lat="38.085131847591335" lon="15.245139519065674"><ele>993.0</ele><time>2026-04-26T12:29:23Z</time></trkpt><trkpt lat="38.085164736573205" lon="15.24499378801007"><ele>993.0</ele><time>2026-04-26T12:29:25Z</time></trkpt><trkpt lat="38.085170925988706" lon="15.24491325010927"><ele>993.0</ele><time>2026-04-26T12:29:26Z</time></trkpt><trkpt lat="38.08516845399384" lon="15.244826957214151"><ele>989.4</ele><time>2026-04-26T12:29:27Z</time></trkpt><trkpt lat="38.08513478804853" lon="15.244690333489551"><ele>985.8</ele><time>2026-04-26T12:29:29Z</time></trkpt><trkpt lat="38.0851513685586" lon="15.244548887435908"><ele>982.2</ele><time>2026-04-26T12:29:31Z</time></trkpt><trkpt lat="38.08524658317589" lon="15.244427648208617"><ele>978.6</ele><time>2026-04-26T12:29:33Z</time></trkpt><trkpt lat="38.08530425326605" lon="15.24436995704683"><ele>975.0</ele><time>2026-04-26T12:29:34Z</time></trkpt><trkpt lat="38.08537507630064" lon="15.244250965510624"><ele>975.0</ele><time>2026-04-26T12:29:36Z</time></trkpt><trkpt lat="38.085377286312344" lon="15.244105617454709"><ele>975.0</ele><time>2026-04-26T12:29:38Z</time></trkpt><trkpt lat="38.08535604596084" lon="15.244004999859627"><ele>975.0</ele><time>2026-04-26T12:29:39Z</time></trkpt><trkpt lat="38.08534419346179" lon="15.24391704096715"><ele>975.0</ele><time>2026-04-26T12:29:40Z</time></trkpt><trkpt lat="38.0853604149906" lon="15.24382871196329"><ele>975.0</ele><time>2026-04-26T12:29:41Z</time></trkpt><trkpt lat="38.08534768842008" lon="15.243716276526545"><ele>975.0</ele><time>2026-04-26T12:29:43Z</time></trkpt><trkpt lat="38.08526856784742" lon="15.243715479578686"><ele>975.0</ele><time>2026-04-26T12:29:45Z</time></trkpt><trkpt lat="38.08516284435603" lon="15.243801901264824"><ele>975.0</ele><time>2026-04-26T12:29:47Z</time></trkpt><trkpt lat="38.085098611116344" lon="15.24392235085942"><ele>975.0</ele><time>2026-04-26T12:29:49Z</time></trkpt><trkpt lat="38.08502203290487" lon="15.243972827350857"><ele>975.0</ele><time>2026-04-26T12:29:51Z</time></trkpt><trkpt lat="38.08498326796977" lon="15.243902547227725"><ele>975.0</ele><time>2026-04-26T12:29:54Z</time></trkpt><trkpt lat="38.08508329282727" lon="15.243806022517813"><ele>969.5</ele><time>2026-04-26T12:29:56Z</time></trkpt><trkpt lat="38.08513859080683" lon="15.243756047823165"><ele>964.0</ele><time>2026-04-26T12:29:57Z</time></trkpt><trkpt lat="38.08521351244722" lon="15.24363092088075"><ele>958.5</ele><time>2026-04-26T12:29:59Z</time></trkpt><trkpt lat="38.08525821553219" lon="15.243567285655919"><ele>953.0</ele><time>2026-04-26T12:30:00Z</time></trkpt><trkpt lat="38.08532403439654" lon="15.243537593858575"><ele>947.5</ele><time>2026-04-26T12:30:01Z</time></trkpt><trkpt lat="38.08539729965724" lon="15.243521708678358"><ele>942.0</ele><time>2026-04-26T12:30:02Z</time></trkpt><trkpt lat="38.085467916016526" lon="15.243519843301964"><ele>942.0</ele><time>2026-04-26T12:30:03Z</time></trkpt><trkpt lat="38.08554514964013" lon="15.24351587573734"><ele>942.0</ele><time>2026-04-26T12:30:04Z</time></trkpt><trkpt lat="38.08564651746699" lon="15.2435454364375"><ele>942.0</ele><time>2026-04-26T12:30:06Z</time></trkpt><trkpt lat="38.08566467235648" lon="15.243667046741164"><ele>942.0</ele><time>2026-04-26T12:30:08Z</time></trkpt><trkpt lat="38.085658058403745" lon="15.24383547600214"><ele>942.0</ele><time>2026-04-26T12:30:10Z</time></trkpt><trkpt lat="38.08569292064336" lon="15.243946876314777"><ele>948.6</ele><time>2026-04-26T12:30:11Z</time></trkpt><trkpt lat="38.08568788450915" lon="15.244096382186271"><ele>955.2</ele><time>2026-04-26T12:30:13Z</time></trkpt><trkpt lat="38.08564695878658" lon="15.244170564577274"><ele>961.8</ele><time>2026-04-26T12:30:14Z</time></trkpt><trkpt lat="38.08561494738423" lon="15.244241606491068"><ele>968.4</ele><time>2026-04-26T12:30:15Z</time></trkpt><trkpt lat="38.08566993656992" lon="15.244371178283942"><ele>975.0</ele><time>2026-04-26T12:30:16.999Z</time></trkpt><trkpt lat="38.08569740853084" lon="15.24452217474241"><ele>975.0</ele><time>2026-04-26T12:30:18.999Z</time></trkpt><trkpt lat="38.085661671327784" lon="15.244592264225718"><ele>975.0</ele><time>2026-04-26T12:30:19.999Z</time></trkpt><trkpt lat="38.08560115545415" lon="15.244640836511918"><ele>975.0</ele><time>2026-04-26T12:30:20.999Z</time></trkpt><trkpt lat="38.08554547756228" lon="15.244686872310373"><ele>975.0</ele><time>2026-04-26T12:30:21.999Z</time></trkpt><trkpt lat="38.08547206570993" lon="15.244786019222206"><ele>975.0</ele><time>2026-04-26T12:30:23.999Z</time></trkpt><trkpt lat="38.08551867589635" lon="15.244856521679647"><ele>975.0</ele><time>2026-04-26T12:30:25.999Z</time></trkpt><trkpt lat="38.085584705185575" lon="15.244821768986135"><ele>975.0</ele><time>2026-04-26T12:30:27.999Z</time></trkpt><trkpt lat="38.08560305140221" lon="15.244712827839791"><ele>975.0</ele><time>2026-04-26T12:30:29.999Z</time></trkpt><trkpt lat="38.08566016755476" lon="15.244675111514079"><ele>975.0</ele><time>2026-04-26T12:30:31.999Z</time></trkpt><trkpt lat="38.08572631159334" lon="15.244646300076322"><ele>975.0</ele><time>2026-04-26T12:30:52.999Z</time></trkpt><trkpt lat="38.08579130453799" lon="15.244548398512885"><ele>975.0</ele><time>2026-04-26T12:30:54.999Z</time></trkpt><trkpt lat="38.08579544628862" lon="15.244407684660054"><ele>975.0</ele><time>2026-04-26T12:30:56.999Z</time></trkpt><trkpt lat="38.085828058438295" lon="15.244261915214654"><ele>971.1666666666666</ele><time>2026-04-26T12:30:58.999Z</time></trkpt><trkpt lat="38.0858709577926" lon="15.244185475627521"><ele>967.3333333333333</ele><time>2026-04-26T12:30:59.999Z</time></trkpt><trkpt lat="38.08591251170876" lon="15.244103305628299"><ele>963.5</ele><time>2026-04-26T12:31:00.999Z</time></trkpt><trkpt lat="38.085941862277075" lon="15.24399104910592"><ele>959.6666666666666</ele><time>2026-04-26T12:31:03Z</time></trkpt><trkpt lat="38.085989459727294" lon="15.244068408848165"><ele>955.8333333333333</ele><time>2026-04-26T12:31:10Z</time></trkpt><trkpt lat="38.08596404823246" lon="15.244141658001508"><ele>952.0</ele><time>2026-04-26T12:31:11Z</time></trkpt><trkpt lat="38.08593042361532" lon="15.244233558285735"><ele>951.9999999999999</ele><time>2026-04-26T12:31:12Z</time></trkpt><trkpt lat="38.08589825425871" lon="15.244328225274959"><ele>952.0</ele><time>2026-04-26T12:31:13Z</time></trkpt><trkpt lat="38.08587724527958" lon="15.244426404586378"><ele>952.0</ele><time>2026-04-26T12:31:14Z</time></trkpt><trkpt lat="38.085891157404205" lon="15.244532322739074"><ele>952.0</ele><time>2026-04-26T12:31:15Z</time></trkpt><trkpt lat="38.08591060774194" lon="15.244626214608703"><ele>951.9999999999999</ele><time>2026-04-26T12:31:16Z</time></trkpt><trkpt lat="38.08593843528212" lon="15.244724962192963"><ele>952.0</ele><time>2026-04-26T12:31:17Z</time></trkpt><trkpt lat="38.08595260268941" lon="15.244803923447884"><ele>951.5714285714286</ele><time>2026-04-26T12:31:18Z</time></trkpt><trkpt lat="38.08592436830483" lon="15.244881372641029"><ele>951.1428571428571</ele><time>2026-04-26T12:31:19Z</time></trkpt><trkpt lat="38.08586796262798" lon="15.244931243066707"><ele>950.7142857142858</ele><time>2026-04-26T12:31:20Z</time></trkpt><trkpt lat="38.08579486910182" lon="15.244975713222514"><ele>950.2857142857143</ele><time>2026-04-26T12:31:21Z</time></trkpt><trkpt lat="38.085741392235406" lon="15.245031220090864"><ele>949.8571428571429</ele><time>2026-04-26T12:31:22Z</time></trkpt><trkpt lat="38.08570983426526" lon="15.24511396369634"><ele>949.4285714285716</ele><time>2026-04-26T12:31:23Z</time></trkpt><trkpt lat="38.08569543813523" lon="15.24520862783932"><ele>949.0000000000001</ele><time>2026-04-26T12:31:24Z</time></trkpt><trkpt lat="38.08576137838525" lon="15.245342972619003"><ele>948.9999999999999</ele><time>2026-04-26T12:31:26Z</time></trkpt><trkpt lat="38.085818583666565" lon="15.245412937979216"><ele>949.0</ele><time>2026-04-26T12:31:27Z</time></trkpt><trkpt lat="38.08588133596757" lon="15.245487139140176"><ele>949.0</ele><time>2026-04-26T12:31:28Z</time></trkpt><trkpt lat="38.08594310052407" lon="15.245571112837533"><ele>949.0</ele><time>2026-04-26T12:31:29Z</time></trkpt><trkpt lat="38.08600002310744" lon="15.245634227923567"><ele>948.9999999999999</ele><time>2026-04-26T12:31:30Z</time></trkpt><trkpt lat="38.086051460748976" lon="15.245718696944046"><ele>949.0</ele><time>2026-04-26T12:31:32Z</time></trkpt><trkpt lat="38.08609226056607" lon="15.24561291703058"><ele>948.9999999999999</ele><time>2026-04-26T12:31:35Z</time></trkpt><trkpt lat="38.08601675623306" lon="15.245530080016021"><ele>949.0</ele><time>2026-04-26T12:31:37Z</time></trkpt><trkpt lat="38.08596899650005" lon="15.245460007670603"><ele>949.0</ele><time>2026-04-26T12:31:38Z</time></trkpt><trkpt lat="38.085923382883934" lon="15.245375894536014"><ele>949.0</ele><time>2026-04-26T12:31:39Z</time></trkpt><trkpt lat="38.08587709766625" lon="15.245267231115562"><ele>948.9999999999999</ele><time>2026-04-26T12:31:41Z</time></trkpt><trkpt lat="38.08588886974734" lon="15.24518020832154"><ele>949.0</ele><time>2026-04-26T12:31:43Z</time></trkpt><trkpt lat="38.08597321878637" lon="15.245130755237259"><ele>948.9999999999999</ele><time>2026-04-26T12:31:45Z</time></trkpt><trkpt lat="38.086095223726645" lon="15.245136047391664"><ele>949.0</ele><time>2026-04-26T12:31:47Z</time></trkpt><trkpt lat="38.086174211729244" lon="15.245046611797218"><ele>949.0</ele><time>2026-04-26T12:31:49Z</time></trkpt><trkpt lat="38.08620351449244" lon="15.244963803448346"><ele>949.0</ele><time>2026-04-26T12:31:50Z</time></trkpt><trkpt lat="38.086213150251986" lon="15.244878747776974"><ele>948.9999999999999</ele><time>2026-04-26T12:31:51Z</time></trkpt><trkpt lat="38.08620489336624" lon="15.244797266148467"><ele>949.0</ele><time>2026-04-26T12:31:52Z</time></trkpt><trkpt lat="38.08617790494601" lon="15.244718412774423"><ele>949.4999999999999</ele><time>2026-04-26T12:31:53Z</time></trkpt><trkpt lat="38.08613099996672" lon="15.244637303902456"><ele>950.0</ele><time>2026-04-26T12:31:54Z</time></trkpt><trkpt lat="38.08610728023501" lon="15.244547927273665"><ele>950.5</ele><time>2026-04-26T12:31:55Z</time></trkpt><trkpt lat="38.08610506518675" lon="15.244456965706629"><ele>951.0</ele><time>2026-04-26T12:31:56Z</time></trkpt><trkpt lat="38.08613095181073" lon="15.244376497970503"><ele>951.4999999999999</ele><time>2026-04-26T12:31:57Z</time></trkpt><trkpt lat="38.08617913017211" lon="15.244260558134126"><ele>952.0</ele><time>2026-04-26T12:31:58Z</time></trkpt><trkpt lat="38.08623082024112" lon="15.244163829259852"><ele>951.9999999999999</ele><time>2026-04-26T12:31:59Z</time></trkpt><trkpt lat="38.086286374911836" lon="15.244057941270494"><ele>952.0</ele><time>2026-04-26T12:32:00Z</time></trkpt><trkpt lat="38.08634399340251" lon="15.24395462509219"><ele>952.0</ele><time>2026-04-26T12:32:01Z</time></trkpt><trkpt lat="38.08639775167558" lon="15.243865209149577"><ele>952.0</ele><time>2026-04-26T12:32:02Z</time></trkpt><trkpt lat="38.086445203394966" lon="15.243797560751146"><ele>951.9999999999999</ele><time>2026-04-26T12:32:03Z</time></trkpt><trkpt lat="38.08648336641177" lon="15.24372152214073"><ele>952.0</ele><time>2026-04-26T12:32:04Z</time></trkpt><trkpt lat="38.08650602942497" lon="15.243642651206182"><ele>949.6666666666666</ele><time>2026-04-26T12:32:05Z</time></trkpt><trkpt lat="38.0865074464868" lon="15.243540036859043"><ele>947.3333333333333</ele><time>2026-04-26T12:32:06Z</time></trkpt><trkpt lat="38.086489380106066" lon="15.243432459379328"><ele>945.0</ele><time>2026-04-26T12:32:07Z</time></trkpt><trkpt lat="38.086495874656755" lon="15.243346621469227"><ele>942.6666666666667</ele><time>2026-04-26T12:32:08Z</time></trkpt><trkpt lat="38.0865337819618" lon="15.2432639256193"><ele>940.3333333333334</ele><time>2026-04-26T12:32:09Z</time></trkpt><trkpt lat="38.08658718389755" lon="15.24319015294636"><ele>938.0</ele><time>2026-04-26T12:32:10Z</time></trkpt><trkpt lat="38.086620588502925" lon="15.243081069458842"><ele>931.8</ele><time>2026-04-26T12:32:12Z</time></trkpt><trkpt lat="38.08656840973851" lon="15.242976466363068"><ele>925.5999999999999</ele><time>2026-04-26T12:32:14Z</time></trkpt><trkpt lat="38.086464345224115" lon="15.242904948549622"><ele>919.4000000000001</ele><time>2026-04-26T12:32:16Z</time></trkpt><trkpt lat="38.0863918040747" lon="15.242877920391868"><ele>913.2</ele><time>2026-04-26T12:32:17Z</time></trkpt><trkpt lat="38.08630514674672" lon="15.242863004654584"><ele>907.0</ele><time>2026-04-26T12:32:18Z</time></trkpt><trkpt lat="38.08622193541646" lon="15.24284718969451"><ele>906.9999999999999</ele><time>2026-04-26T12:32:19Z</time></trkpt><trkpt lat="38.08615494395765" lon="15.242819417843041"><ele>907.0</ele><time>2026-04-26T12:32:20Z</time></trkpt><trkpt lat="38.08609885158763" lon="15.242776149557795"><ele>907.0</ele><time>2026-04-26T12:32:21Z</time></trkpt><trkpt lat="38.08604260854851" lon="15.242724223520923"><ele>907.0</ele><time>2026-04-26T12:32:22Z</time></trkpt><trkpt lat="38.08596761035829" lon="15.242646579478862"><ele>906.9999999999999</ele><time>2026-04-26T12:32:23Z</time></trkpt><trkpt lat="38.0859031875075" lon="15.242551361537531"><ele>907.0</ele><time>2026-04-26T12:32:24Z</time></trkpt><trkpt lat="38.085858281505544" lon="15.242472108761364"><ele>906.9999999999999</ele><time>2026-04-26T12:32:25Z</time></trkpt><trkpt lat="38.085787965577225" lon="15.242412865004265"><ele>907.0</ele><time>2026-04-26T12:32:26Z</time></trkpt><trkpt lat="38.085721208552485" lon="15.24237514961372"><ele>907.0</ele><time>2026-04-26T12:32:27Z</time></trkpt><trkpt lat="38.0856534882668" lon="15.242373887806943"><ele>907.0</ele><time>2026-04-26T12:32:28Z</time></trkpt><trkpt lat="38.085581773708014" lon="15.242345967209484"><ele>906.9999999999999</ele><time>2026-04-26T12:32:29.999Z</time></trkpt><trkpt lat="38.08560235070403" lon="15.242243206779387"><ele>907.0</ele><time>2026-04-26T12:32:31.999Z</time></trkpt><trkpt lat="38.085697289873956" lon="15.242208069992069"><ele>907.0</ele><time>2026-04-26T12:32:33.999Z</time></trkpt><trkpt lat="38.0858121368162" lon="15.242297316056618"><ele>907.0</ele><time>2026-04-26T12:32:35.999Z</time></trkpt><trkpt lat="38.08588424300388" lon="15.242325066857685"><ele>907.0</ele><time>2026-04-26T12:32:36.999Z</time></trkpt><trkpt lat="38.085969106128374" lon="15.242385897978798"><ele>907.0</ele><time>2026-04-26T12:32:37.999Z</time></trkpt><trkpt lat="38.08602897685073" lon="15.242482023303413"><ele>907.0</ele><time>2026-04-26T12:32:38.999Z</time></trkpt><trkpt lat="38.08608562559118" lon="15.242562462935"><ele>907.0</ele><time>2026-04-26T12:32:39.999Z</time></trkpt><trkpt lat="38.086232128449026" lon="15.242610240463282"><ele>907.0</ele><time>2026-04-26T12:32:41.999Z</time></trkpt><trkpt lat="38.08634163440015" lon="15.242614273344588"><ele>907.0</ele><time>2026-04-26T12:32:42.999Z</time></trkpt><trkpt lat="38.086445913502615" lon="15.242590866248621"><ele>907.0</ele><time>2026-04-26T12:32:43.999Z</time></trkpt><trkpt lat="38.08653123993059" lon="15.242560882754834"><ele>904.4999999999999</ele><time>2026-04-26T12:32:44.999Z</time></trkpt><trkpt lat="38.086615867697574" lon="15.242519756428052"><ele>902.0</ele><time>2026-04-26T12:32:45.999Z</time></trkpt><trkpt lat="38.08667912025807" lon="15.24248656958662"><ele>899.5</ele><time>2026-04-26T12:32:46.999Z</time></trkpt><trkpt lat="38.08676222318853" lon="15.242489120420219"><ele>897.0</ele><time>2026-04-26T12:32:48.999Z</time></trkpt><trkpt lat="38.08679342520211" lon="15.242598231908465"><ele>894.4999999999999</ele><time>2026-04-26T12:32:50.999Z</time></trkpt><trkpt lat="38.08687102125826" lon="15.242535457349952"><ele>892.0</ele><time>2026-04-26T12:32:54.999Z</time></trkpt><trkpt lat="38.086914211262986" lon="15.2423944182318"><ele>892.0</ele><time>2026-04-26T12:32:56.999Z</time></trkpt><trkpt lat="38.08689637109014" lon="15.24230883490901"><ele>892.0</ele><time>2026-04-26T12:32:58.999Z</time></trkpt><trkpt lat="38.08681096029164" lon="15.242266005463776"><ele>892.0</ele><time>2026-04-26T12:33:00.999Z</time></trkpt><trkpt lat="38.086796800874545" lon="15.242162946019508"><ele>892.0</ele><time>2026-04-26T12:33:04.999Z</time></trkpt><trkpt lat="38.08692089131266" lon="15.242112403801848"><ele>892.0</ele><time>2026-04-26T12:33:07Z</time></trkpt><trkpt lat="38.0870149665953" lon="15.242083887819371"><ele>892.0</ele><time>2026-04-26T12:33:08Z</time></trkpt><trkpt lat="38.08712561185315" lon="15.242087731567958"><ele>892.0</ele><time>2026-04-26T12:33:10Z</time></trkpt><trkpt lat="38.08718272524884" lon="15.242204954425148"><ele>892.0</ele><time>2026-04-26T12:33:12Z</time></trkpt><trkpt lat="38.087206426146956" lon="15.242351736963709"><ele>892.0</ele><time>2026-04-26T12:33:14Z</time></trkpt><trkpt lat="38.08729626182366" lon="15.242349241392553"><ele>892.0</ele><time>2026-04-26T12:33:20Z</time></trkpt><trkpt lat="38.08731570727134" lon="15.242263538053365"><ele>887.2</ele><time>2026-04-26T12:33:22Z</time></trkpt><trkpt lat="38.08727188086197" lon="15.242140222049425"><ele>882.4000000000001</ele><time>2026-04-26T12:33:24Z</time></trkpt><trkpt lat="38.08725290780869" lon="15.242047279399168"><ele>877.5999999999999</ele><time>2026-04-26T12:33:25Z</time></trkpt><trkpt lat="38.08725516558133" lon="15.241955670789372"><ele>872.8</ele><time>2026-04-26T12:33:26Z</time></trkpt><trkpt lat="38.08725143968344" lon="15.241851958328008"><ele>868.0</ele><time>2026-04-26T12:33:27Z</time></trkpt><trkpt lat="38.08717978914303" lon="15.241736708650821"><ele>867.9999999999999</ele><time>2026-04-26T12:33:29Z</time></trkpt><trkpt lat="38.08707365757106" lon="15.241723511593843"><ele>868.0</ele><time>2026-04-26T12:33:31Z</time></trkpt><trkpt lat="38.08700231618967" lon="15.241744471125607"><ele>868.0</ele><time>2026-04-26T12:33:32Z</time></trkpt><trkpt lat="38.08692225873332" lon="15.24176558833425"><ele>868.0</ele><time>2026-04-26T12:33:33Z</time></trkpt><trkpt lat="38.08683697032199" lon="15.241760166874"><ele>867.9999999999999</ele><time>2026-04-26T12:33:34Z</time></trkpt><trkpt lat="38.08676536808373" lon="15.24173642642971"><ele>868.0</ele><time>2026-04-26T12:33:35Z</time></trkpt><trkpt lat="38.08669551642238" lon="15.241745943514728"><ele>867.9999999999999</ele><time>2026-04-26T12:33:36Z</time></trkpt><trkpt lat="38.086639279974364" lon="15.241796095774308"><ele>868.0</ele><time>2026-04-26T12:33:37Z</time></trkpt><trkpt lat="38.08659347819958" lon="15.241867660801926"><ele>868.0</ele><time>2026-04-26T12:33:38Z</time></trkpt><trkpt lat="38.08647792579172" lon="15.24188226074272"><ele>868.0</ele><time>2026-04-26T12:33:40Z</time></trkpt><trkpt lat="38.08643778055102" lon="15.241810264385522"><ele>867.9999999999999</ele><time>2026-04-26T12:33:41Z</time></trkpt><trkpt lat="38.08642948096386" lon="15.24171309671593"><ele>868.0</ele><time>2026-04-26T12:33:42Z</time></trkpt><trkpt lat="38.08642141804815" lon="15.24157995932472"><ele>865.4</ele><time>2026-04-26T12:33:43Z</time></trkpt><trkpt lat="38.086426160003654" lon="15.241460473616085"><ele>862.8</ele><time>2026-04-26T12:33:44Z</time></trkpt><trkpt lat="38.08641403302798" lon="15.24130350841189"><ele>860.2</ele><time>2026-04-26T12:33:45Z</time></trkpt><trkpt lat="38.08638863722871" lon="15.241198391437662"><ele>857.6</ele><time>2026-04-26T12:33:46Z</time></trkpt><trkpt lat="38.08636871820934" lon="15.241086248498894"><ele>855.0</ele><time>2026-04-26T12:33:47Z</time></trkpt><trkpt lat="38.08629881270519" lon="15.240971709221284"><ele>855.0</ele><time>2026-04-26T12:33:49Z</time></trkpt><trkpt lat="38.0862335693586" lon="15.240953932098561"><ele>855.0</ele><time>2026-04-26T12:33:50Z</time></trkpt><trkpt lat="38.08614369656563" lon="15.240949206126462"><ele>855.0</ele><time>2026-04-26T12:33:51Z</time></trkpt><trkpt lat="38.08605059164092" lon="15.240945339349182"><ele>855.0</ele><time>2026-04-26T12:33:52Z</time></trkpt><trkpt lat="38.08597038080626" lon="15.24091404996124"><ele>855.0</ele><time>2026-04-26T12:33:53Z</time></trkpt><trkpt lat="38.085908805561836" lon="15.240840785121515"><ele>855.0</ele><time>2026-04-26T12:33:54Z</time></trkpt><trkpt lat="38.085856183878484" lon="15.240741088940252"><ele>855.0</ele><time>2026-04-26T12:33:55Z</time></trkpt><trkpt lat="38.085817627846055" lon="15.240639922016182"><ele>855.0</ele><time>2026-04-26T12:33:56Z</time></trkpt><trkpt lat="38.085769244593614" lon="15.24058115956881"><ele>855.0</ele><time>2026-04-26T12:33:57Z</time></trkpt><trkpt lat="38.08562650222815" lon="15.240569806915031"><ele>855.0</ele><time>2026-04-26T12:33:59Z</time></trkpt><trkpt lat="38.085530862093414" lon="15.240578029023071"><ele>855.0</ele><time>2026-04-26T12:34:00Z</time></trkpt><trkpt lat="38.08545821524353" lon="15.24054494091015"><ele>852.6</ele><time>2026-04-26T12:34:01Z</time></trkpt><trkpt lat="38.0853410218285" lon="15.240585929369331"><ele>850.2</ele><time>2026-04-26T12:34:03Z</time></trkpt><trkpt lat="38.08528230864342" lon="15.240661193908972"><ele>847.8</ele><time>2026-04-26T12:34:04Z</time></trkpt><trkpt lat="38.08522304969083" lon="15.240740750052629"><ele>845.4</ele><time>2026-04-26T12:34:05Z</time></trkpt><trkpt lat="38.085160672860376" lon="15.240829814647235"><ele>843.0</ele><time>2026-04-26T12:34:06Z</time></trkpt><trkpt lat="38.08511991313217" lon="15.240938245486044"><ele>843.0</ele><time>2026-04-26T12:34:07Z</time></trkpt><trkpt lat="38.08509277763768" lon="15.241026208034768"><ele>843.0</ele><time>2026-04-26T12:34:08Z</time></trkpt><trkpt lat="38.08506901421035" lon="15.241133209769169"><ele>843.0</ele><time>2026-04-26T12:34:10Z</time></trkpt><trkpt lat="38.08503517710173" lon="15.241214152672198"><ele>843.0</ele><time>2026-04-26T12:34:15Z</time></trkpt><trkpt lat="38.08499603091388" lon="15.24128644415369"><ele>843.0</ele><time>2026-04-26T12:34:18Z</time></trkpt><trkpt lat="38.08494963171539" lon="15.241406813161426"><ele>843.0</ele><time>2026-04-26T12:34:21Z</time></trkpt><trkpt lat="38.084909420056185" lon="15.241544290871376"><ele>848.1666666666666</ele><time>2026-04-26T12:34:23Z</time></trkpt><trkpt lat="38.08487095475267" lon="15.241665709766718"><ele>853.3333333333333</ele><time>2026-04-26T12:34:25Z</time></trkpt><trkpt lat="38.0848233944005" lon="15.24175084565855"><ele>858.5</ele><time>2026-04-26T12:34:27Z</time></trkpt><trkpt lat="38.08473775714856" lon="15.241786014339214"><ele>863.6666666666666</ele><time>2026-04-26T12:34:29Z</time></trkpt><trkpt lat="38.084640917402815" lon="15.241738870424863"><ele>868.8333333333333</ele><time>2026-04-26T12:34:31Z</time></trkpt><trkpt lat="38.08461029259746" lon="15.241667331855044"><ele>874.0</ele><time>2026-04-26T12:34:32Z</time></trkpt><trkpt lat="38.08458655486807" lon="15.241579248307186"><ele>874.0</ele><time>2026-04-26T12:34:33Z</time></trkpt><trkpt lat="38.08455342191083" lon="15.24148309901538"><ele>874.0000000000001</ele><time>2026-04-26T12:34:34Z</time></trkpt><trkpt lat="38.08449422408308" lon="15.241364293205603"><ele>874.0000000000001</ele><time>2026-04-26T12:34:35Z</time></trkpt><trkpt lat="38.08443332654275" lon="15.241271876051902"><ele>874.0</ele><time>2026-04-26T12:34:36Z</time></trkpt><trkpt lat="38.08436722196481" lon="15.241199162978404"><ele>874.0</ele><time>2026-04-26T12:34:37Z</time></trkpt><trkpt lat="38.08429502492632" lon="15.241124425472803"><ele>872.0</ele><time>2026-04-26T12:34:38Z</time></trkpt><trkpt lat="38.0842321342699" lon="15.241027528972692"><ele>870.0000000000001</ele><time>2026-04-26T12:34:39Z</time></trkpt><trkpt lat="38.0841743129511" lon="15.240922241207324"><ele>868.0000000000001</ele><time>2026-04-26T12:34:40Z</time></trkpt><trkpt lat="38.08411767604303" lon="15.240821137286723"><ele>866.0</ele><time>2026-04-26T12:34:41Z</time></trkpt><trkpt lat="38.084067433780994" lon="15.240736872937212"><ele>864.0</ele><time>2026-04-26T12:34:42Z</time></trkpt><trkpt lat="38.08401521438723" lon="15.24065150861254"><ele>859.1666666666666</ele><time>2026-04-26T12:34:43Z</time></trkpt><trkpt lat="38.08396050959575" lon="15.240570217494868"><ele>854.3333333333333</ele><time>2026-04-26T12:34:44Z</time></trkpt><trkpt lat="38.083898529438535" lon="15.24049806499773"><ele>849.5</ele><time>2026-04-26T12:34:45Z</time></trkpt><trkpt lat="38.083781607889414" lon="15.240478501531882"><ele>844.6666666666666</ele><time>2026-04-26T12:34:46.999Z</time></trkpt><trkpt lat="38.08370121871768" lon="15.240488010670244"><ele>839.8333333333333</ele><time>2026-04-26T12:34:47.999Z</time></trkpt><trkpt lat="38.08362624776073" lon="15.2404654454656"><ele>835.0</ele><time>2026-04-26T12:34:48.999Z</time></trkpt><trkpt lat="38.08355351032272" lon="15.240408817876546"><ele>835.0</ele><time>2026-04-26T12:34:49.999Z</time></trkpt><trkpt lat="38.083487441189604" lon="15.24036695662023"><ele>835.0</ele><time>2026-04-26T12:34:50.999Z</time></trkpt><trkpt lat="38.083388739990035" lon="15.24033383550613"><ele>835.0</ele><time>2026-04-26T12:34:51.999Z</time></trkpt><trkpt lat="38.08330463628655" lon="15.240349416677923"><ele>835.0</ele><time>2026-04-26T12:34:52.999Z</time></trkpt><trkpt lat="38.08319534466928" lon="15.240365562446232"><ele>835.0</ele><time>2026-04-26T12:34:53.999Z</time></trkpt><trkpt lat="38.08310322826503" lon="15.240389346852814"><ele>835.4</ele><time>2026-04-26T12:34:54.999Z</time></trkpt><trkpt lat="38.08299343454408" lon="15.240411456423088"><ele>835.8</ele><time>2026-04-26T12:34:55.999Z</time></trkpt><trkpt lat="38.08291858494096" lon="15.240442595171706"><ele>836.2</ele><time>2026-04-26T12:34:56.999Z</time></trkpt><trkpt lat="38.08283196127257" lon="15.240472573638096"><ele>836.6</ele><time>2026-04-26T12:34:57.998Z</time></trkpt><trkpt lat="38.08272447402451" lon="15.240498962394302"><ele>837.0</ele><time>2026-04-26T12:34:58.998Z</time></trkpt><trkpt lat="38.082609769405025" lon="15.240498966489747"><ele>837.0</ele><time>2026-04-26T12:34:59.998Z</time></trkpt><trkpt lat="38.08248869066028" lon="15.240501879549427"><ele>837.0</ele><time>2026-04-26T12:35:00.998Z</time></trkpt><trkpt lat="38.08239608546406" lon="15.240473907665468"><ele>837.0</ele><time>2026-04-26T12:35:01.998Z</time></trkpt><trkpt lat="38.082304669911785" lon="15.240417899550945"><ele>837.0</ele><time>2026-04-26T12:35:02.998Z</time></trkpt><trkpt lat="38.082214029973386" lon="15.240360534005353"><ele>837.0</ele><time>2026-04-26T12:35:03.998Z</time></trkpt><trkpt lat="38.08214533477581" lon="15.2403159946371"><ele>835.1666666666666</ele><time>2026-04-26T12:35:04.998Z</time></trkpt><trkpt lat="38.082072321690006" lon="15.240277551052397"><ele>833.3333333333333</ele><time>2026-04-26T12:35:05.998Z</time></trkpt><trkpt lat="38.08195258503636" lon="15.240279793603797"><ele>831.5</ele><time>2026-04-26T12:35:07.998Z</time></trkpt><trkpt lat="38.08190532711666" lon="15.24033426274027"><ele>829.6666666666666</ele><time>2026-04-26T12:35:08.998Z</time></trkpt><trkpt lat="38.08185593173434" lon="15.240417679282896"><ele>827.8333333333333</ele><time>2026-04-26T12:35:09.998Z</time></trkpt><trkpt lat="38.08181855136522" lon="15.240519771189286"><ele>826.0</ele><time>2026-04-26T12:35:10.998Z</time></trkpt><trkpt lat="38.081775756520265" lon="15.240644496753463"><ele>826.8</ele><time>2026-04-26T12:35:12Z</time></trkpt><trkpt lat="38.08172283651303" lon="15.240732365641632"><ele>827.5999999999999</ele><time>2026-04-26T12:35:13Z</time></trkpt><trkpt lat="38.08164450417006" lon="15.240781761300756"><ele>828.4</ele><time>2026-04-26T12:35:14Z</time></trkpt><trkpt lat="38.08154841432918" lon="15.24080962398432"><ele>829.2</ele><time>2026-04-26T12:35:15Z</time></trkpt><trkpt lat="38.081456713278236" lon="15.240858413303071"><ele>830.0</ele><time>2026-04-26T12:35:16Z</time></trkpt><trkpt lat="38.081367333057294" lon="15.240945082160472"><ele>830.0000000000001</ele><time>2026-04-26T12:35:17Z</time></trkpt><trkpt lat="38.08128998426475" lon="15.241036953919131"><ele>830.0</ele><time>2026-04-26T12:35:18Z</time></trkpt><trkpt lat="38.0812219666344" lon="15.241127777998102"><ele>830.0</ele><time>2026-04-26T12:35:18.999Z</time></trkpt><trkpt lat="38.081183054835556" lon="15.241200493734754"><ele>830.0</ele><time>2026-04-26T12:35:19.999Z</time></trkpt><trkpt lat="38.08113564124518" lon="15.241277077919616"><ele>830.0000000000001</ele><time>2026-04-26T12:35:20.999Z</time></trkpt><trkpt lat="38.08106721367619" lon="15.241306562103011"><ele>830.0</ele><time>2026-04-26T12:35:21.999Z</time></trkpt><trkpt lat="38.08099280399423" lon="15.241298484261772"><ele>830.0</ele><time>2026-04-26T12:35:22.999Z</time></trkpt><trkpt lat="38.080931060987815" lon="15.241262895468669"><ele>830.0</ele><time>2026-04-26T12:35:23.999Z</time></trkpt><trkpt lat="38.08085220286573" lon="15.24123100048089"><ele>830.0</ele><time>2026-04-26T12:35:25Z</time></trkpt><trkpt lat="38.08075187195847" lon="15.241281060746992"><ele>830.0</ele><time>2026-04-26T12:35:26.999Z</time></trkpt><trkpt lat="38.080701486806106" lon="15.241334255169821"><ele>830.0</ele><time>2026-04-26T12:35:27.999Z</time></trkpt><trkpt lat="38.08063207344026" lon="15.24148820776476"><ele>835.5714285714286</ele><time>2026-04-26T12:35:29.999Z</time></trkpt><trkpt lat="38.080591151143636" lon="15.24156613962971"><ele>841.1428571428571</ele><time>2026-04-26T12:35:30.999Z</time></trkpt><trkpt lat="38.08054839383927" lon="15.241629820733946"><ele>846.7142857142858</ele><time>2026-04-26T12:35:31.999Z</time></trkpt><trkpt lat="38.080489759802" lon="15.241693063252608"><ele>852.2857142857142</ele><time>2026-04-26T12:35:32.999Z</time></trkpt><trkpt lat="38.08042028580197" lon="15.241720747987141"><ele>857.8571428571428</ele><time>2026-04-26T12:35:33.999Z</time></trkpt><trkpt lat="38.08034956882457" lon="15.241746022216306"><ele>863.4285714285714</ele><time>2026-04-26T12:35:34.999Z</time></trkpt><trkpt lat="38.080293705050885" lon="15.241800916138988"><ele>869.0</ele><time>2026-04-26T12:35:35.999Z</time></trkpt><trkpt lat="38.08026296718622" lon="15.241873454566642"><ele>869.0000000000001</ele><time>2026-04-26T12:35:36.999Z</time></trkpt><trkpt lat="38.08024544392239" lon="15.241953055713827"><ele>869.0</ele><time>2026-04-26T12:35:37.999Z</time></trkpt><trkpt lat="38.080223076884415" lon="15.242041490900977"><ele>869.0</ele><time>2026-04-26T12:35:38.999Z</time></trkpt><trkpt lat="38.08019758632177" lon="15.242121479198321"><ele>869.0</ele><time>2026-04-26T12:35:39.999Z</time></trkpt><trkpt lat="38.080149825722486" lon="15.242213786165582"><ele>869.0000000000001</ele><time>2026-04-26T12:35:40.999Z</time></trkpt><trkpt lat="38.08007180654867" lon="15.242278206837002"><ele>869.0</ele><time>2026-04-26T12:35:42.999Z</time></trkpt><trkpt lat="38.07997190630539" lon="15.242207448542102"><ele>869.0</ele><time>2026-04-26T12:35:44.999Z</time></trkpt><trkpt lat="38.07994335411003" lon="15.242070625683661"><ele>869.0000000000001</ele><time>2026-04-26T12:35:46.999Z</time></trkpt><trkpt lat="38.079932978996574" lon="15.241966258959067"><ele>869.0000000000001</ele><time>2026-04-26T12:35:47.999Z</time></trkpt><trkpt lat="38.07991736864314" lon="15.241862941217507"><ele>869.0</ele><time>2026-04-26T12:35:48.999Z</time></trkpt><trkpt lat="38.079837506707904" lon="15.24178597170165"><ele>869.0</ele><time>2026-04-26T12:35:50.999Z</time></trkpt><trkpt lat="38.07970991147891" lon="15.241774156485247"><ele>871.1666666666667</ele><time>2026-04-26T12:35:52.999Z</time></trkpt><trkpt lat="38.07963616679591" lon="15.24176444282171"><ele>873.3333333333334</ele><time>2026-04-26T12:35:53.999Z</time></trkpt><trkpt lat="38.07952990484275" lon="15.241733051775434"><ele>875.5</ele><time>2026-04-26T12:35:55.999Z</time></trkpt><trkpt lat="38.079467256384326" lon="15.241683169409825"><ele>877.6666666666667</ele><time>2026-04-26T12:35:56.999Z</time></trkpt><trkpt lat="38.07939180189872" lon="15.241655175526512"><ele>879.8333333333334</ele><time>2026-04-26T12:35:58.999Z</time></trkpt><trkpt lat="38.079392426253975" lon="15.241772687813404"><ele>882.0</ele><time>2026-04-26T12:36:00.999Z</time></trkpt><trkpt lat="38.079441561656395" lon="15.241850354098503"><ele>882.0</ele><time>2026-04-26T12:36:02.999Z</time></trkpt><trkpt lat="38.079553265712526" lon="15.241916591750185"><ele>882.0</ele><time>2026-04-26T12:36:05.999Z</time></trkpt><trkpt lat="38.0796114717554" lon="15.241955282708274"><ele>882.0</ele><time>2026-04-26T12:36:06.999Z</time></trkpt><trkpt lat="38.07968360977342" lon="15.242005278989964"><ele>882.0</ele><time>2026-04-26T12:36:07.999Z</time></trkpt><trkpt lat="38.07976263631321" lon="15.242021352111246"><ele>882.0</ele><time>2026-04-26T12:36:08.999Z</time></trkpt><trkpt lat="38.07982963608498" lon="15.242045180214491"><ele>882.0</ele><time>2026-04-26T12:36:10.999Z</time></trkpt><trkpt lat="38.079791609449366" lon="15.242129211958712"><ele>882.0</ele><time>2026-04-26T12:36:13.999Z</time></trkpt><trkpt lat="38.07969475417387" lon="15.242131685265843"><ele>882.0</ele><time>2026-04-26T12:36:15.999Z</time></trkpt><trkpt lat="38.07962666116192" lon="15.242118438537672"><ele>882.0</ele><time>2026-04-26T12:36:16.999Z</time></trkpt><trkpt lat="38.079549306617174" lon="15.24211821776832"><ele>882.0</ele><time>2026-04-26T12:36:17.999Z</time></trkpt><trkpt lat="38.079478428436644" lon="15.242131576043436"><ele>882.0</ele><time>2026-04-26T12:36:18.999Z</time></trkpt><trkpt lat="38.07940241538135" lon="15.242148734677107"><ele>882.0</ele><time>2026-04-26T12:36:19.999Z</time></trkpt><trkpt lat="38.07933245338279" lon="15.242142581608352"><ele>882.0</ele><time>2026-04-26T12:36:20.999Z</time></trkpt><trkpt lat="38.079257638450414" lon="15.24212617471206"><ele>882.0</ele><time>2026-04-26T12:36:21.999Z</time></trkpt><trkpt lat="38.079191835680035" lon="15.242079035711043"><ele>882.0</ele><time>2026-04-26T12:36:22.999Z</time></trkpt><trkpt lat="38.079134975962425" lon="15.242023981731794"><ele>882.0</ele><time>2026-04-26T12:36:23.999Z</time></trkpt><trkpt lat="38.07907092151011" lon="15.241945431426556"><ele>882.0</ele><time>2026-04-26T12:36:24.999Z</time></trkpt><trkpt lat="38.07899287040794" lon="15.241909508495658"><ele>882.0</ele><time>2026-04-26T12:36:26.999Z</time></trkpt><trkpt lat="38.07899299649718" lon="15.242035477192406"><ele>882.0</ele><time>2026-04-26T12:36:28.999Z</time></trkpt><trkpt lat="38.07902642407526" lon="15.242107770895993"><ele>882.0</ele><time>2026-04-26T12:36:29.999Z</time></trkpt><trkpt lat="38.07907225192081" lon="15.242188336359881"><ele>882.0</ele><time>2026-04-26T12:36:30.999Z</time></trkpt><trkpt lat="38.079116684567815" lon="15.242284297640055"><ele>882.0</ele><time>2026-04-26T12:36:31.999Z</time></trkpt><trkpt lat="38.07923516330967" lon="15.24235254566561"><ele>882.0</ele><time>2026-04-26T12:36:33.999Z</time></trkpt><trkpt lat="38.07934606701251" lon="15.242368289997588"><ele>887.8</ele><time>2026-04-26T12:36:34.999Z</time></trkpt><trkpt lat="38.07944064566316" lon="15.242387854225639"><ele>893.6</ele><time>2026-04-26T12:36:35.999Z</time></trkpt><trkpt lat="38.07954182132292" lon="15.242430557090872"><ele>899.3999999999999</ele><time>2026-04-26T12:36:36.999Z</time></trkpt><trkpt lat="38.07963773537791" lon="15.24246942268425"><ele>905.1999999999999</ele><time>2026-04-26T12:36:37.999Z</time></trkpt><trkpt lat="38.07974570411596" lon="15.242520535147284"><ele>911.0</ele><time>2026-04-26T12:36:39.999Z</time></trkpt><trkpt lat="38.079777980976964" lon="15.242606688015794"><ele>911.0</ele><time>2026-04-26T12:36:42.999Z</time></trkpt><trkpt lat="38.079677873658405" lon="15.242625836377002"><ele>910.9999999999999</ele><time>2026-04-26T12:36:45.999Z</time></trkpt><trkpt lat="38.079560766164754" lon="15.242566517422679"><ele>910.9999999999999</ele><time>2026-04-26T12:36:47.999Z</time></trkpt><trkpt lat="38.07949314651934" lon="15.242537616618893"><ele>911.0</ele><time>2026-04-26T12:36:48.999Z</time></trkpt><trkpt lat="38.07941008374315" lon="15.24253143554908"><ele>911.0</ele><time>2026-04-26T12:36:49.999Z</time></trkpt><trkpt lat="38.07931210406337" lon="15.24252631327756"><ele>911.0</ele><time>2026-04-26T12:36:50.999Z</time></trkpt><trkpt lat="38.079199863969976" lon="15.24253888491173"><ele>910.9999999999999</ele><time>2026-04-26T12:36:51.999Z</time></trkpt><trkpt lat="38.07910298604401" lon="15.242544669639475"><ele>910.9999999999999</ele><time>2026-04-26T12:36:52.999Z</time></trkpt><trkpt lat="38.07900072306871" lon="15.242561088038471"><ele>911.0</ele><time>2026-04-26T12:36:53.999Z</time></trkpt><trkpt lat="38.07892173611927" lon="15.242570684929245"><ele>911.0</ele><time>2026-04-26T12:36:54.999Z</time></trkpt><trkpt lat="38.07885473580363" lon="15.242562634599702"><ele>908.1999999999999</ele><time>2026-04-26T12:36:55.999Z</time></trkpt><trkpt lat="38.07875750063084" lon="15.242604535955241"><ele>905.3999999999999</ele><time>2026-04-26T12:36:57.998Z</time></trkpt><trkpt lat="38.07871966460318" lon="15.242709205326168"><ele>902.6</ele><time>2026-04-26T12:36:59.998Z</time></trkpt><trkpt lat="38.07867495565186" lon="15.242836381836115"><ele>899.8</ele><time>2026-04-26T12:37:01.998Z</time></trkpt><trkpt lat="38.07860575045691" lon="15.242957677587116"><ele>897.0</ele><time>2026-04-26T12:37:03.998Z</time></trkpt><trkpt lat="38.078530924428705" lon="15.243098971140247"><ele>901.6666666666666</ele><time>2026-04-26T12:37:05.998Z</time></trkpt><trkpt lat="38.07848255483735" lon="15.243160425569934"><ele>906.3333333333333</ele><time>2026-04-26T12:37:06.998Z</time></trkpt><trkpt lat="38.07842291713851" lon="15.243215150220479"><ele>911.0</ele><time>2026-04-26T12:37:07.998Z</time></trkpt><trkpt lat="38.07836368047751" lon="15.243265232234027"><ele>915.6666666666666</ele><time>2026-04-26T12:37:08.998Z</time></trkpt><trkpt lat="38.07829173669264" lon="15.24331241569152"><ele>920.3333333333333</ele><time>2026-04-26T12:37:09.998Z</time></trkpt><trkpt lat="38.078218193746615" lon="15.243344164127318"><ele>925.0</ele><time>2026-04-26T12:37:10.998Z</time></trkpt><trkpt lat="38.078134449404764" lon="15.243363081504882"><ele>924.9999999999999</ele><time>2026-04-26T12:37:11.998Z</time></trkpt><trkpt lat="38.07805633014165" lon="15.243389902701512"><ele>925.0</ele><time>2026-04-26T12:37:12.998Z</time></trkpt><trkpt lat="38.077994946284164" lon="15.243430672512398"><ele>925.0</ele><time>2026-04-26T12:37:13.998Z</time></trkpt><trkpt lat="38.07793568184933" lon="15.24349355823256"><ele>925.0</ele><time>2026-04-26T12:37:14.998Z</time></trkpt><trkpt lat="38.0778308265306" lon="15.243588319895277"><ele>924.9999999999999</ele><time>2026-04-26T12:37:16.998Z</time></trkpt><trkpt lat="38.077760357105454" lon="15.243587626621018"><ele>925.0</ele><time>2026-04-26T12:37:18Z</time></trkpt><trkpt lat="38.07765184555942" lon="15.243601274747396"><ele>925.0</ele><time>2026-04-26T12:37:20Z</time></trkpt><trkpt lat="38.077605011976424" lon="15.243660966999212"><ele>925.0</ele><time>2026-04-26T12:37:21Z</time></trkpt><trkpt lat="38.077531950533036" lon="15.243769626725364"><ele>925.0</ele><time>2026-04-26T12:37:23Z</time></trkpt><trkpt lat="38.07747910272083" lon="15.24381873585899"><ele>925.0</ele><time>2026-04-26T12:37:24Z</time></trkpt><trkpt lat="38.077348431778" lon="15.243860193828784"><ele>925.0</ele><time>2026-04-26T12:37:26Z</time></trkpt><trkpt lat="38.07726247090501" lon="15.243889208879734"><ele>927.8333333333333</ele><time>2026-04-26T12:37:27Z</time></trkpt><trkpt lat="38.0771865637679" lon="15.243926874136564"><ele>930.6666666666666</ele><time>2026-04-26T12:37:29Z</time></trkpt><trkpt lat="38.077118662250335" lon="15.24391729705191"><ele>933.5</ele><time>2026-04-26T12:37:30Z</time></trkpt><trkpt lat="38.077053693952735" lon="15.243878247198124"><ele>936.3333333333333</ele><time>2026-04-26T12:37:31Z</time></trkpt><trkpt lat="38.07699338877434" lon="15.243831853690779"><ele>939.1666666666666</ele><time>2026-04-26T12:37:32Z</time></trkpt><trkpt lat="38.0768726535675" lon="15.243817084996056"><ele>942.0</ele><time>2026-04-26T12:37:34Z</time></trkpt><trkpt lat="38.076798562067104" lon="15.243831361423366"><ele>942.0</ele><time>2026-04-26T12:37:35Z</time></trkpt><trkpt lat="38.076727163411796" lon="15.24384946918423"><ele>942.0</ele><time>2026-04-26T12:37:36Z</time></trkpt><trkpt lat="38.07665897044471" lon="15.243876677978898"><ele>942.0</ele><time>2026-04-26T12:37:37Z</time></trkpt><trkpt lat="38.0765900986299" lon="15.243918873758005"><ele>942.0</ele><time>2026-04-26T12:37:39Z</time></trkpt><trkpt lat="38.07650773087149" lon="15.243909881973282"><ele>942.0</ele><time>2026-04-26T12:37:40Z</time></trkpt><trkpt lat="38.07647813388444" lon="15.243813330947281"><ele>942.0</ele><time>2026-04-26T12:37:42Z</time></trkpt><trkpt lat="38.07645498058166" lon="15.243735693942622"><ele>945.3333333333334</ele><time>2026-04-26T12:37:43Z</time></trkpt><trkpt lat="38.076404752586065" lon="15.243676832479645"><ele>948.6666666666667</ele><time>2026-04-26T12:37:44Z</time></trkpt><trkpt lat="38.07634313785192" lon="15.24364299139361"><ele>952.0</ele><time>2026-04-26T12:37:45Z</time></trkpt><trkpt lat="38.07626739281877" lon="15.243621864011741"><ele>955.3333333333334</ele><time>2026-04-26T12:37:46Z</time></trkpt><trkpt lat="38.0761806349403" lon="15.243606168993944"><ele>958.6666666666667</ele><time>2026-04-26T12:37:46.999Z</time></trkpt><trkpt lat="38.07607967020497" lon="15.243578937206227"><ele>962.0</ele><time>2026-04-26T12:37:47.999Z</time></trkpt><trkpt lat="38.07598168846073" lon="15.243536647672736"><ele>962.0000000000001</ele><time>2026-04-26T12:37:48.999Z</time></trkpt><trkpt lat="38.07589233936004" lon="15.243494117708577"><ele>962.0</ele><time>2026-04-26T12:37:49.999Z</time></trkpt><trkpt lat="38.075787892225655" lon="15.243410385655515"><ele>962.0</ele><time>2026-04-26T12:37:51.999Z</time></trkpt><trkpt lat="38.075761642203496" lon="15.243327905926172"><ele>962.0</ele><time>2026-04-26T12:37:52.999Z</time></trkpt><trkpt lat="38.0757464145573" lon="15.243246930017815"><ele>962.0000000000001</ele><time>2026-04-26T12:37:53.999Z</time></trkpt><trkpt lat="38.075698975671884" lon="15.243157975922403"><ele>962.0</ele><time>2026-04-26T12:37:54.999Z</time></trkpt><trkpt lat="38.075628877413955" lon="15.243065458670712"><ele>961.0</ele><time>2026-04-26T12:37:55.999Z</time></trkpt><trkpt lat="38.07557388390282" lon="15.242985094025366"><ele>960.0</ele><time>2026-04-26T12:37:56.999Z</time></trkpt><trkpt lat="38.07555812490033" lon="15.242887518221387"><ele>959.0</ele><time>2026-04-26T12:37:57.999Z</time></trkpt><trkpt lat="38.0755559651405" lon="15.242780722222571"><ele>958.0</ele><time>2026-04-26T12:37:58.999Z</time></trkpt><trkpt lat="38.07554276453228" lon="15.242675548782355"><ele>957.0</ele><time>2026-04-26T12:37:59.999Z</time></trkpt><trkpt lat="38.075439814188115" lon="15.24259539408079"><ele>957.0</ele><time>2026-04-26T12:38:01.999Z</time></trkpt><trkpt lat="38.07532805111024" lon="15.242599414396558"><ele>957.0</ele><time>2026-04-26T12:38:03.999Z</time></trkpt><trkpt lat="38.07522811653332" lon="15.2426834750392"><ele>957.0</ele><time>2026-04-26T12:38:05.999Z</time></trkpt><trkpt lat="38.07517599343657" lon="15.242750274487726"><ele>957.0</ele><time>2026-04-26T12:38:06.999Z</time></trkpt><trkpt lat="38.07511734394877" lon="15.242837752170916"><ele>957.0</ele><time>2026-04-26T12:38:07.999Z</time></trkpt><trkpt lat="38.07506288896278" lon="15.242936202924344"><ele>957.0</ele><time>2026-04-26T12:38:08.999Z</time></trkpt><trkpt lat="38.07502086717717" lon="15.243035970513711"><ele>957.0</ele><time>2026-04-26T12:38:09.999Z</time></trkpt><trkpt lat="38.07499638331144" lon="15.24314616824238"><ele>957.0</ele><time>2026-04-26T12:38:10.999Z</time></trkpt><trkpt lat="38.07498810735944" lon="15.243273703412738"><ele>957.0</ele><time>2026-04-26T12:38:11.999Z</time></trkpt><trkpt lat="38.07499038603884" lon="15.243392932263381"><ele>957.0</ele><time>2026-04-26T12:38:12.999Z</time></trkpt><trkpt lat="38.07499805246139" lon="15.243524877400136"><ele>959.6666666666666</ele><time>2026-04-26T12:38:13.999Z</time></trkpt><trkpt lat="38.075026234410686" lon="15.243621227763674"><ele>962.3333333333333</ele><time>2026-04-26T12:38:14.999Z</time></trkpt><trkpt lat="38.075073723008884" lon="15.243706619993482"><ele>965.0</ele><time>2026-04-26T12:38:15.999Z</time></trkpt><trkpt lat="38.07512885147579" lon="15.243800320467573"><ele>967.6666666666666</ele><time>2026-04-26T12:38:16.999Z</time></trkpt><trkpt lat="38.075159956183995" lon="15.243896435184269"><ele>970.3333333333333</ele><time>2026-04-26T12:38:17.999Z</time></trkpt><trkpt lat="38.075167801162394" lon="15.24399908889785"><ele>973.0</ele><time>2026-04-26T12:38:18.999Z</time></trkpt><trkpt lat="38.075145431246774" lon="15.244097591222255"><ele>975.0</ele><time>2026-04-26T12:38:19.999Z</time></trkpt><trkpt lat="38.07507233174811" lon="15.244184255614146"><ele>977.0</ele><time>2026-04-26T12:38:21.999Z</time></trkpt><trkpt lat="38.074955023890624" lon="15.244178636862673"><ele>979.0</ele><time>2026-04-26T12:38:23.999Z</time></trkpt><trkpt lat="38.07487269259518" lon="15.244161905264036"><ele>981.0</ele><time>2026-04-26T12:38:24.999Z</time></trkpt><trkpt lat="38.07478964488194" lon="15.244171673923091"><ele>983.0</ele><time>2026-04-26T12:38:25.999Z</time></trkpt><trkpt lat="38.0747096946881" lon="15.24419748575773"><ele>983.0000000000001</ele><time>2026-04-26T12:38:26.999Z</time></trkpt><trkpt lat="38.07463051441641" lon="15.244247316717589"><ele>983.0</ele><time>2026-04-26T12:38:27.999Z</time></trkpt><trkpt lat="38.074579765523424" lon="15.244320490592647"><ele>983.0</ele><time>2026-04-26T12:38:28.999Z</time></trkpt><trkpt lat="38.07452551555832" lon="15.244400533551591"><ele>983.0</ele><time>2026-04-26T12:38:29.999Z</time></trkpt><trkpt lat="38.07447829010041" lon="15.244477963614152"><ele>983.0000000000001</ele><time>2026-04-26T12:38:30.999Z</time></trkpt><trkpt lat="38.07443555602214" lon="15.24453948743549"><ele>983.0</ele><time>2026-04-26T12:38:31.999Z</time></trkpt><trkpt lat="38.07435429693735" lon="15.244553846571433"><ele>983.0000000000001</ele><time>2026-04-26T12:38:35.999Z</time></trkpt><trkpt lat="38.074274785864255" lon="15.244598179736558"><ele>983.0</ele><time>2026-04-26T12:38:37.999Z</time></trkpt><trkpt lat="38.074259061948965" lon="15.244691556096262"><ele>983.0</ele><time>2026-04-26T12:38:40.999Z</time></trkpt><trkpt lat="38.074235915940704" lon="15.244768334047295"><ele>983.0</ele><time>2026-04-26T12:39:54Z</time></trkpt><trkpt lat="38.074187278633026" lon="15.244855798486244"><ele>983.0000000000001</ele><time>2026-04-26T12:39:56Z</time></trkpt><trkpt lat="38.07409930137868" lon="15.244937141875619"><ele>983.0</ele><time>2026-04-26T12:39:58Z</time></trkpt><trkpt lat="38.07403865803283" lon="15.244982467284471"><ele>984.9999999999999</ele><time>2026-04-26T12:39:59Z</time></trkpt><trkpt lat="38.07397855528401" lon="15.24503755477609"><ele>987.0</ele><time>2026-04-26T12:40:00Z</time></trkpt><trkpt lat="38.07391253110998" lon="15.245047973301316"><ele>988.9999999999999</ele><time>2026-04-26T12:40:01Z</time></trkpt><trkpt lat="38.07384087829875" lon="15.245068622356248"><ele>990.9999999999999</ele><time>2026-04-26T12:40:02Z</time></trkpt><trkpt lat="38.07376093263105" lon="15.245055096436618"><ele>993.0</ele><time>2026-04-26T12:40:02.999Z</time></trkpt><trkpt lat="38.073688725231776" lon="15.245025170184105"><ele>994.9999999999999</ele><time>2026-04-26T12:40:03.999Z</time></trkpt><trkpt lat="38.07361578411196" lon="15.244992944515493"><ele>996.9999999999999</ele><time>2026-04-26T12:40:04.999Z</time></trkpt><trkpt lat="38.07353324064122" lon="15.244965684433193"><ele>996.9999999999999</ele><time>2026-04-26T12:40:05.999Z</time></trkpt><trkpt lat="38.07345396531327" lon="15.244964105412796"><ele>997.0</ele><time>2026-04-26T12:40:06.999Z</time></trkpt><trkpt lat="38.07337647670979" lon="15.244955288738254"><ele>997.0</ele><time>2026-04-26T12:40:07.999Z</time></trkpt><trkpt lat="38.07331191860949" lon="15.24493126431458"><ele>997.0</ele><time>2026-04-26T12:40:08.999Z</time></trkpt><trkpt lat="38.07323629184374" lon="15.244914489849185"><ele>996.9999999999999</ele><time>2026-04-26T12:40:09.999Z</time></trkpt><trkpt lat="38.0731702328224" lon="15.244891515054722"><ele>997.0</ele><time>2026-04-26T12:40:10.999Z</time></trkpt><trkpt lat="38.07308302300662" lon="15.244851975999772"><ele>997.4000000000001</ele><time>2026-04-26T12:40:11.999Z</time></trkpt><trkpt lat="38.073008529483076" lon="15.244807899891496"><ele>997.8000000000001</ele><time>2026-04-26T12:40:12.999Z</time></trkpt><trkpt lat="38.072931495953085" lon="15.244741320403543"><ele>998.2</ele><time>2026-04-26T12:40:13.999Z</time></trkpt><trkpt lat="38.07289100965409" lon="15.24467001578914"><ele>998.6</ele><time>2026-04-26T12:40:14.999Z</time></trkpt><trkpt lat="38.07283046147389" lon="15.244547585762174"><ele>999.0</ele><time>2026-04-26T12:40:16.999Z</time></trkpt><trkpt lat="38.072782936345696" lon="15.244428282955738"><ele>997.4000000000001</ele><time>2026-04-26T12:40:18.999Z</time></trkpt><trkpt lat="38.07271304361471" lon="15.24433448435361"><ele>995.8000000000001</ele><time>2026-04-26T12:40:20.999Z</time></trkpt><trkpt lat="38.07261986652511" lon="15.24428973820791"><ele>994.1999999999999</ele><time>2026-04-26T12:40:22.999Z</time></trkpt><trkpt lat="38.07250512101264" lon="15.244297881618369"><ele>992.5999999999999</ele><time>2026-04-26T12:40:24.999Z</time></trkpt><trkpt lat="38.07239407236688" lon="15.2443028140836"><ele>991.0</ele><time>2026-04-26T12:40:26.999Z</time></trkpt><trkpt lat="38.072267787475546" lon="15.244309285583006"><ele>989.5999999999999</ele><time>2026-04-26T12:40:28.999Z</time></trkpt><trkpt lat="38.072141818727275" lon="15.244267523093702"><ele>988.1999999999999</ele><time>2026-04-26T12:40:30.999Z</time></trkpt><trkpt lat="38.07203471533095" lon="15.244188830531067"><ele>986.8000000000001</ele><time>2026-04-26T12:40:32.999Z</time></trkpt><trkpt lat="38.071976396086725" lon="15.244135147933067"><ele>985.4000000000001</ele><time>2026-04-26T12:40:33.999Z</time></trkpt><trkpt lat="38.071906640125185" lon="15.244087409196268"><ele>984.0</ele><time>2026-04-26T12:40:34.999Z</time></trkpt><trkpt lat="38.071796848046546" lon="15.243992293790752"><ele>977.6666666666666</ele><time>2026-04-26T12:40:36.999Z</time></trkpt><trkpt lat="38.071740326332254" lon="15.243950085366185"><ele>971.3333333333333</ele><time>2026-04-26T12:40:37.999Z</time></trkpt><trkpt lat="38.07166702352588" lon="15.243924528323806"><ele>965.0</ele><time>2026-04-26T12:40:38.999Z</time></trkpt><trkpt lat="38.07159242150991" lon="15.243901615158197"><ele>958.6666666666666</ele><time>2026-04-26T12:40:39.999Z</time></trkpt><trkpt lat="38.07151615125239" lon="15.24388908072234"><ele>952.3333333333333</ele><time>2026-04-26T12:40:40.999Z</time></trkpt><trkpt lat="38.07144102297193" lon="15.243883794719165"><ele>946.0</ele><time>2026-04-26T12:40:41.999Z</time></trkpt><trkpt lat="38.07135960957073" lon="15.243877932040435"><ele>945.4285714285714</ele><time>2026-04-26T12:40:42.999Z</time></trkpt><trkpt lat="38.07128055573001" lon="15.243880004170078"><ele>944.8571428571429</ele><time>2026-04-26T12:40:43.999Z</time></trkpt><trkpt lat="38.07120373135418" lon="15.243880949133754"><ele>944.2857142857143</ele><time>2026-04-26T12:40:44.999Z</time></trkpt><trkpt lat="38.07113404655766" lon="15.243899649874342"><ele>943.7142857142858</ele><time>2026-04-26T12:40:45.999Z</time></trkpt><trkpt lat="38.07106196836976" lon="15.24391273156622"><ele>943.1428571428571</ele><time>2026-04-26T12:40:46.999Z</time></trkpt><trkpt lat="38.07099388304419" lon="15.243897340055751"><ele>942.5714285714287</ele><time>2026-04-26T12:40:47.999Z</time></trkpt><trkpt lat="38.07094360920066" lon="15.243821547517557"><ele>942.0000000000001</ele><time>2026-04-26T12:40:48.999Z</time></trkpt><trkpt lat="38.07087371188778" lon="15.243789702988009"><ele>942.0</ele><time>2026-04-26T12:40:49.999Z</time></trkpt><trkpt lat="38.07080002016632" lon="15.243738544169105"><ele>942.0</ele><time>2026-04-26T12:40:50.999Z</time></trkpt><trkpt lat="38.070723519784856" lon="15.243718246135042"><ele>942.0</ele><time>2026-04-26T12:40:51.999Z</time></trkpt><trkpt lat="38.07065732784447" lon="15.243725836912514"><ele>942.0</ele><time>2026-04-26T12:40:52.999Z</time></trkpt><trkpt lat="38.07058437699758" lon="15.243719537081667"><ele>942.0</ele><time>2026-04-26T12:40:53.999Z</time></trkpt><trkpt lat="38.07046977600705" lon="15.243625595167199"><ele>942.0</ele><time>2026-04-26T12:40:55.999Z</time></trkpt><trkpt lat="38.07042104316378" lon="15.243563929112385"><ele>944.1666666666666</ele><time>2026-04-26T12:40:56.999Z</time></trkpt><trkpt lat="38.070353172793794" lon="15.243508519304198"><ele>946.3333333333333</ele><time>2026-04-26T12:40:57.999Z</time></trkpt><trkpt lat="38.07029952597082" lon="15.24344507305577"><ele>948.5</ele><time>2026-04-26T12:40:58.999Z</time></trkpt><trkpt lat="38.07022511244868" lon="15.243401892662094"><ele>950.6666666666666</ele><time>2026-04-26T12:40:59.999Z</time></trkpt><trkpt lat="38.070155512006295" lon="15.243371518517355"><ele>952.8333333333333</ele><time>2026-04-26T12:41:00.999Z</time></trkpt><trkpt lat="38.07007638567354" lon="15.243342125393893"><ele>955.0</ele><time>2026-04-26T12:41:01.999Z</time></trkpt><trkpt lat="38.06997970401523" lon="15.243333570909549"><ele>953.9999999999999</ele><time>2026-04-26T12:41:02.999Z</time></trkpt><trkpt lat="38.06990135568531" lon="15.243364354612558"><ele>953.0</ele><time>2026-04-26T12:41:03.999Z</time></trkpt><trkpt lat="38.06980517622241" lon="15.243386534715187"><ele>952.0</ele><time>2026-04-26T12:41:04.999Z</time></trkpt><trkpt lat="38.06972269680944" lon="15.243402228740482"><ele>951.0</ele><time>2026-04-26T12:41:05.999Z</time></trkpt><trkpt lat="38.069636634052856" lon="15.243413749579545"><ele>949.9999999999999</ele><time>2026-04-26T12:41:06.999Z</time></trkpt><trkpt lat="38.06955705750862" lon="15.243423917510812"><ele>949.0</ele><time>2026-04-26T12:41:07.999Z</time></trkpt><trkpt lat="38.06946535315728" lon="15.243438007422403"><ele>949.0</ele><time>2026-04-26T12:41:08.999Z</time></trkpt><trkpt lat="38.069379107150205" lon="15.24345550225346"><ele>949.0000000000001</ele><time>2026-04-26T12:41:09.999Z</time></trkpt><trkpt lat="38.06927958878264" lon="15.243467531539979"><ele>949.0000000000001</ele><time>2026-04-26T12:41:10.999Z</time></trkpt><trkpt lat="38.069181983521624" lon="15.243478290160493"><ele>949.0</ele><time>2026-04-26T12:41:11.999Z</time></trkpt><trkpt lat="38.06909230228572" lon="15.243435454990333"><ele>949.0</ele><time>2026-04-26T12:41:12.999Z</time></trkpt><trkpt lat="38.06900509735147" lon="15.243396546520563"><ele>947.0</ele><time>2026-04-26T12:41:13.999Z</time></trkpt><trkpt lat="38.06893082352286" lon="15.243359652033064"><ele>945.0000000000001</ele><time>2026-04-26T12:41:14.999Z</time></trkpt><trkpt lat="38.06883882141041" lon="15.243315835857942"><ele>943.0000000000001</ele><time>2026-04-26T12:41:15.999Z</time></trkpt><trkpt lat="38.06874952813608" lon="15.24327844910325"><ele>941.0</ele><time>2026-04-26T12:41:16.999Z</time></trkpt><trkpt lat="38.06865321759764" lon="15.243265859931629"><ele>939.0</ele><time>2026-04-26T12:41:17.999Z</time></trkpt><trkpt lat="38.06856128124947" lon="15.243243845587934"><ele>939.0</ele><time>2026-04-26T12:41:18.999Z</time></trkpt><trkpt lat="38.06847240913895" lon="15.243229928879384"><ele>939.0</ele><time>2026-04-26T12:41:19.999Z</time></trkpt><trkpt lat="38.068389504361335" lon="15.243222693803881"><ele>939.0</ele><time>2026-04-26T12:41:20.999Z</time></trkpt><trkpt lat="38.06831380147387" lon="15.243195455461564"><ele>939.0</ele><time>2026-04-26T12:41:21.999Z</time></trkpt><trkpt lat="38.06824053438341" lon="15.243204141984547"><ele>939.0</ele><time>2026-04-26T12:41:22.999Z</time></trkpt><trkpt lat="38.06816556491135" lon="15.243192749251648"><ele>939.0</ele><time>2026-04-26T12:41:23.999Z</time></trkpt><trkpt lat="38.06807923646686" lon="15.243166898487718"><ele>938.2</ele><time>2026-04-26T12:41:24.999Z</time></trkpt><trkpt lat="38.06796443953749" lon="15.243136200013648"><ele>937.4000000000001</ele><time>2026-04-26T12:41:25.999Z</time></trkpt><trkpt lat="38.06784094367151" lon="15.243105759560134"><ele>936.6</ele><time>2026-04-26T12:41:26.999Z</time></trkpt><trkpt lat="38.06774375725691" lon="15.24307637186799"><ele>935.8</ele><time>2026-04-26T12:41:27.999Z</time></trkpt><trkpt lat="38.06766321272947" lon="15.243036837962862"><ele>935.0</ele><time>2026-04-26T12:41:29Z</time></trkpt><trkpt lat="38.067589646555696" lon="15.242939988870422"><ele>933.4</ele><time>2026-04-26T12:41:30Z</time></trkpt><trkpt lat="38.067533838072364" lon="15.242866553100072"><ele>931.8</ele><time>2026-04-26T12:41:31Z</time></trkpt><trkpt lat="38.06747067727939" lon="15.242782738844332"><ele>930.2</ele><time>2026-04-26T12:41:32Z</time></trkpt><trkpt lat="38.06738318164081" lon="15.242710175340347"><ele>928.6</ele><time>2026-04-26T12:41:33Z</time></trkpt><trkpt lat="38.06729045922965" lon="15.242632971200985"><ele>927.0</ele><time>2026-04-26T12:41:34Z</time></trkpt><trkpt lat="38.06718608785985" lon="15.242592257648736"><ele>929.8333333333334</ele><time>2026-04-26T12:41:35Z</time></trkpt><trkpt lat="38.06708332510591" lon="15.242562777284535"><ele>932.6666666666667</ele><time>2026-04-26T12:41:36Z</time></trkpt><trkpt lat="38.06700175049273" lon="15.242548371131031"><ele>935.5</ele><time>2026-04-26T12:41:37Z</time></trkpt><trkpt lat="38.06692836794936" lon="15.242535875514443"><ele>938.3333333333334</ele><time>2026-04-26T12:41:38Z</time></trkpt><trkpt lat="38.06685860181322" lon="15.242504685437458"><ele>941.1666666666667</ele><time>2026-04-26T12:41:39Z</time></trkpt><trkpt lat="38.06675113046908" lon="15.242483515376975"><ele>944.0</ele><time>2026-04-26T12:41:40Z</time></trkpt><trkpt lat="38.06665399322765" lon="15.242434763015119"><ele>943.8000000000001</ele><time>2026-04-26T12:41:41Z</time></trkpt><trkpt lat="38.06656106632118" lon="15.242359928779106"><ele>943.6000000000001</ele><time>2026-04-26T12:41:42Z</time></trkpt><trkpt lat="38.0664737000718" lon="15.24231139101403"><ele>943.4</ele><time>2026-04-26T12:41:43Z</time></trkpt><trkpt lat="38.0663650925151" lon="15.242258695681125"><ele>943.2</ele><time>2026-04-26T12:41:44Z</time></trkpt><trkpt lat="38.066256042168185" lon="15.242220403280108"><ele>943.0</ele><time>2026-04-26T12:41:45Z</time></trkpt><trkpt lat="38.06612625644159" lon="15.242186684772257"><ele>941.5</ele><time>2026-04-26T12:41:46Z</time></trkpt><trkpt lat="38.06601122118753" lon="15.24216285193964"><ele>940.0</ele><time>2026-04-26T12:41:47Z</time></trkpt><trkpt lat="38.06589846706355" lon="15.242128258922603"><ele>938.5</ele><time>2026-04-26T12:41:48Z</time></trkpt><trkpt lat="38.0657871918207" lon="15.242061578382481"><ele>937.0</ele><time>2026-04-26T12:41:49Z</time></trkpt><trkpt lat="38.0656768311679" lon="15.241973934367207"><ele>937.0</ele><time>2026-04-26T12:41:50Z</time></trkpt><trkpt lat="38.06556106481616" lon="15.241888213155821"><ele>937.0</ele><time>2026-04-26T12:41:51Z</time></trkpt><trkpt lat="38.06545172413875" lon="15.241810494328796"><ele>937.0</ele><time>2026-04-26T12:41:52Z</time></trkpt><trkpt lat="38.065343697163286" lon="15.241721253699547"><ele>937.0</ele><time>2026-04-26T12:41:53Z</time></trkpt><trkpt lat="38.06525260153616" lon="15.241607160971526"><ele>937.0</ele><time>2026-04-26T12:41:54Z</time></trkpt><trkpt lat="38.06517391477437" lon="15.24150211768753"><ele>937.0</ele><time>2026-04-26T12:41:55Z</time></trkpt><trkpt lat="38.06511409727226" lon="15.241399634944395"><ele>937.0</ele><time>2026-04-26T12:41:56Z</time></trkpt><trkpt lat="38.065044545602944" lon="15.241297197420755"><ele>937.0</ele><time>2026-04-26T12:41:57Z</time></trkpt><trkpt lat="38.06499853502343" lon="15.241179503043108"><ele>937.0</ele><time>2026-04-26T12:41:58Z</time></trkpt><trkpt lat="38.064975764527226" lon="15.241056146411225"><ele>935.1666666666666</ele><time>2026-04-26T12:41:59Z</time></trkpt><trkpt lat="38.064932824974655" lon="15.240962454190914"><ele>933.3333333333333</ele><time>2026-04-26T12:42:00Z</time></trkpt><trkpt lat="38.064888058461875" lon="15.240890026561164"><ele>931.5</ele><time>2026-04-26T12:42:01Z</time></trkpt><trkpt lat="38.06480805381393" lon="15.240811493672988"><ele>929.6666666666667</ele><time>2026-04-26T12:42:02Z</time></trkpt><trkpt lat="38.06473761631092" lon="15.24078293327741"><ele>927.8333333333334</ele><time>2026-04-26T12:42:03Z</time></trkpt><trkpt lat="38.064634429573985" lon="15.240800521584896"><ele>926.0</ele><time>2026-04-26T12:42:04Z</time></trkpt><trkpt lat="38.06455895595567" lon="15.240807280380928"><ele>926.0</ele><time>2026-04-26T12:42:05Z</time></trkpt><trkpt lat="38.06446732685233" lon="15.24082641359169"><ele>925.9999999999999</ele><time>2026-04-26T12:42:06Z</time></trkpt><trkpt lat="38.06437059572379" lon="15.240849667435219"><ele>925.9999999999999</ele><time>2026-04-26T12:42:07Z</time></trkpt><trkpt lat="38.064269654143494" lon="15.240873912058897"><ele>926.0</ele><time>2026-04-26T12:42:08Z</time></trkpt><trkpt lat="38.06416101637646" lon="15.240900005207813"><ele>926.0</ele><time>2026-04-26T12:42:09Z</time></trkpt><trkpt lat="38.06404901423703" lon="15.240923248498037"><ele>924.5</ele><time>2026-04-26T12:42:10Z</time></trkpt><trkpt lat="38.063932449003836" lon="15.24093443447207"><ele>923.0</ele><time>2026-04-26T12:42:11Z</time></trkpt><trkpt lat="38.06380591456355" lon="15.240930640238867"><ele>921.5</ele><time>2026-04-26T12:42:12Z</time></trkpt><trkpt lat="38.063684008563555" lon="15.240908777263304"><ele>920.0</ele><time>2026-04-26T12:42:13Z</time></trkpt><trkpt lat="38.06358042771679" lon="15.240866646232403"><ele>920.0</ele><time>2026-04-26T12:42:14Z</time></trkpt><trkpt lat="38.06346950950525" lon="15.240806815157672"><ele>920.0</ele><time>2026-04-26T12:42:14.999Z</time></trkpt><trkpt lat="38.063357653090215" lon="15.240734522696476"><ele>920.0</ele><time>2026-04-26T12:42:15.999Z</time></trkpt><trkpt lat="38.0632399885459" lon="15.240651894044106"><ele>920.0</ele><time>2026-04-26T12:42:16.999Z</time></trkpt><trkpt lat="38.06311734711928" lon="15.240586253395776"><ele>918.75</ele><time>2026-04-26T12:42:17.999Z</time></trkpt><trkpt lat="38.063007529878" lon="15.24050714993241"><ele>917.5</ele><time>2026-04-26T12:42:18.999Z</time></trkpt><trkpt lat="38.06290796287475" lon="15.240411971558567"><ele>916.25</ele><time>2026-04-26T12:42:19.999Z</time></trkpt><trkpt lat="38.0628030428396" lon="15.240325893295243"><ele>915.0</ele><time>2026-04-26T12:42:20.999Z</time></trkpt><trkpt lat="38.06270073656149" lon="15.240242909470805"><ele>915.0</ele><time>2026-04-26T12:42:21.999Z</time></trkpt><trkpt lat="38.06259476361011" lon="15.240162461052655"><ele>915.0</ele><time>2026-04-26T12:42:22.999Z</time></trkpt><trkpt lat="38.062488285915556" lon="15.24008639941253"><ele>915.0</ele><time>2026-04-26T12:42:23.999Z</time></trkpt><trkpt lat="38.06236967953879" lon="15.240033991986403"><ele>915.0</ele><time>2026-04-26T12:42:24.999Z</time></trkpt><trkpt lat="38.062265685275506" lon="15.239950303205323"><ele>914.0</ele><time>2026-04-26T12:42:25.999Z</time></trkpt><trkpt lat="38.06214792396427" lon="15.239881658213793"><ele>913.0</ele><time>2026-04-26T12:42:26.999Z</time></trkpt><trkpt lat="38.06203336903818" lon="15.239815133900589"><ele>912.0</ele><time>2026-04-26T12:42:27.999Z</time></trkpt><trkpt lat="38.06191354650546" lon="15.239767878665294"><ele>911.0</ele><time>2026-04-26T12:42:28.999Z</time></trkpt><trkpt lat="38.061800421951155" lon="15.239696230911422"><ele>910.75</ele><time>2026-04-26T12:42:29.999Z</time></trkpt><trkpt lat="38.06168845403939" lon="15.239619196999273"><ele>910.5</ele><time>2026-04-26T12:42:30.999Z</time></trkpt><trkpt lat="38.06157770164589" lon="15.23956954209725"><ele>910.25</ele><time>2026-04-26T12:42:31.999Z</time></trkpt><trkpt lat="38.06147534859287" lon="15.239531110997227"><ele>910.0</ele><time>2026-04-26T12:42:32.999Z</time></trkpt><trkpt lat="38.06137656843474" lon="15.23953771946138"><ele>909.8333333333333</ele><time>2026-04-26T12:42:33.999Z</time></trkpt><trkpt lat="38.06127956537896" lon="15.239543300880726"><ele>909.6666666666666</ele><time>2026-04-26T12:42:34.999Z</time></trkpt><trkpt lat="38.061186357256" lon="15.239550497325567"><ele>909.5</ele><time>2026-04-26T12:42:35.999Z</time></trkpt><trkpt lat="38.06109523733359" lon="15.239538591025186"><ele>909.3333333333333</ele><time>2026-04-26T12:42:36.999Z</time></trkpt><trkpt lat="38.06101501341999" lon="15.239546252522526"><ele>909.1666666666666</ele><time>2026-04-26T12:42:37.999Z</time></trkpt><trkpt lat="38.06093954005904" lon="15.239574322122476"><ele>909.0</ele><time>2026-04-26T12:42:38.999Z</time></trkpt><trkpt lat="38.06087536597836" lon="15.239562598460349"><ele>909.0</ele><time>2026-04-26T12:42:39.999Z</time></trkpt><trkpt lat="38.060806874342234" lon="15.239573101819847"><ele>909.0</ele><time>2026-04-26T12:42:40.999Z</time></trkpt><trkpt lat="38.06073854674119" lon="15.239585662678264"><ele>909.0</ele><time>2026-04-26T12:42:42.999Z</time></trkpt><trkpt lat="38.06065001531301" lon="15.239582312852825"><ele>909.0</ele><time>2026-04-26T12:43:20.999Z</time></trkpt><trkpt lat="38.06063595692027" lon="15.239440521528145"><ele>909.0</ele><time>2026-04-26T12:43:22.999Z</time></trkpt><trkpt lat="38.06066671408316" lon="15.239365625139621"><ele>909.0</ele><time>2026-04-26T12:43:23.999Z</time></trkpt><trkpt lat="38.06071029749227" lon="15.239287121899041"><ele>909.0</ele><time>2026-04-26T12:43:24.999Z</time></trkpt><trkpt lat="38.06076639314604" lon="15.239193881661983"><ele>909.0000000000001</ele><time>2026-04-26T12:43:25.999Z</time></trkpt><trkpt lat="38.06082448428388" lon="15.23909311931212"><ele>909.0000000000001</ele><time>2026-04-26T12:43:26.999Z</time></trkpt><trkpt lat="38.06086946953789" lon="15.23897241573095"><ele>909.0</ele><time>2026-04-26T12:43:27.999Z</time></trkpt><trkpt lat="38.060898966370694" lon="15.238845353703981"><ele>909.0</ele><time>2026-04-26T12:43:28.999Z</time></trkpt><trkpt lat="38.06092716359454" lon="15.23871083775105"><ele>908.75</ele><time>2026-04-26T12:43:29.999Z</time></trkpt><trkpt lat="38.06094375569769" lon="15.238573057188242"><ele>908.5</ele><time>2026-04-26T12:43:30.999Z</time></trkpt><trkpt lat="38.060951467609485" lon="15.238424917985936"><ele>908.25</ele><time>2026-04-26T12:43:31.999Z</time></trkpt><trkpt lat="38.06095862200746" lon="15.23826823685438"><ele>908.0</ele><time>2026-04-26T12:43:32.999Z</time></trkpt><trkpt lat="38.0609634830187" lon="15.238112344919077"><ele>908.0</ele><time>2026-04-26T12:43:33.999Z</time></trkpt><trkpt lat="38.06095639697281" lon="15.237960117084125"><ele>908.0</ele><time>2026-04-26T12:43:35Z</time></trkpt><trkpt lat="38.06096025622698" lon="15.237811532313838"><ele>908.0</ele><time>2026-04-26T12:43:36Z</time></trkpt><trkpt lat="38.06094346377097" lon="15.237678384897707"><ele>908.0</ele><time>2026-04-26T12:43:37Z</time></trkpt><trkpt lat="38.06092202926503" lon="15.23754905419149"><ele>908.0</ele><time>2026-04-26T12:43:38Z</time></trkpt><trkpt lat="38.0608864150917" lon="15.23742761642756"><ele>908.0</ele><time>2026-04-26T12:43:39Z</time></trkpt><trkpt lat="38.06084329088672" lon="15.23733287493492"><ele>908.0</ele><time>2026-04-26T12:43:40Z</time></trkpt><trkpt lat="38.06078033652274" lon="15.237243269998482"><ele>908.0</ele><time>2026-04-26T12:43:41Z</time></trkpt><trkpt lat="38.06075008248186" lon="15.237138697485035"><ele>908.0</ele><time>2026-04-26T12:43:42Z</time></trkpt><trkpt lat="38.06069266631216" lon="15.23702998166169"><ele>908.0</ele><time>2026-04-26T12:43:43Z</time></trkpt><trkpt lat="38.06066703725482" lon="15.2369332689802"><ele>906.4</ele><time>2026-04-26T12:43:44Z</time></trkpt><trkpt lat="38.060579617295915" lon="15.236858150031589"><ele>904.8</ele><time>2026-04-26T12:43:45Z</time></trkpt><trkpt lat="38.06049803902382" lon="15.236791207992031"><ele>903.2</ele><time>2026-04-26T12:43:46Z</time></trkpt><trkpt lat="38.06042328151978" lon="15.236721927420604"><ele>901.6</ele><time>2026-04-26T12:43:47Z</time></trkpt><trkpt lat="38.060348854814755" lon="15.236630888311414"><ele>900.0</ele><time>2026-04-26T12:43:48Z</time></trkpt><trkpt lat="38.060267310663534" lon="15.236541141488784"><ele>900.6</ele><time>2026-04-26T12:43:49Z</time></trkpt><trkpt lat="38.060194117885935" lon="15.23644289040883"><ele>901.2</ele><time>2026-04-26T12:43:50Z</time></trkpt><trkpt lat="38.06012027887438" lon="15.236337664301956"><ele>901.8</ele><time>2026-04-26T12:43:51Z</time></trkpt><trkpt lat="38.06003973543991" lon="15.23623436970925"><ele>902.4</ele><time>2026-04-26T12:43:52Z</time></trkpt><trkpt lat="38.059960444979836" lon="15.236134245615835"><ele>903.0</ele><time>2026-04-26T12:43:53Z</time></trkpt><trkpt lat="38.0598906138898" lon="15.236032480661802"><ele>901.4</ele><time>2026-04-26T12:43:54Z</time></trkpt><trkpt lat="38.059834984720034" lon="15.235922059782537"><ele>899.8</ele><time>2026-04-26T12:43:55Z</time></trkpt><trkpt lat="38.05978877664422" lon="15.235809071862109"><ele>898.2</ele><time>2026-04-26T12:43:56Z</time></trkpt><trkpt lat="38.05975627179684" lon="15.235697421230366"><ele>896.6</ele><time>2026-04-26T12:43:57Z</time></trkpt><trkpt lat="38.05973447231881" lon="15.23557032051467"><ele>895.0</ele><time>2026-04-26T12:43:58Z</time></trkpt><trkpt lat="38.059704459120304" lon="15.23544432696667"><ele>894.8</ele><time>2026-04-26T12:43:59Z</time></trkpt><trkpt lat="38.059736977616296" lon="15.23531845596921"><ele>894.6</ele><time>2026-04-26T12:44:00Z</time></trkpt><trkpt lat="38.05975358177136" lon="15.235185203818371"><ele>894.4000000000001</ele><time>2026-04-26T12:44:01Z</time></trkpt><trkpt lat="38.059777346976475" lon="15.235047143434905"><ele>894.2</ele><time>2026-04-26T12:44:02Z</time></trkpt><trkpt lat="38.05979592734976" lon="15.23491806958975"><ele>894.0</ele><time>2026-04-26T12:44:03Z</time></trkpt><trkpt lat="38.05981172900755" lon="15.234817344060575"><ele>896.0</ele><time>2026-04-26T12:44:04Z</time></trkpt><trkpt lat="38.05983249052496" lon="15.234735216379695"><ele>898.0</ele><time>2026-04-26T12:44:05Z</time></trkpt><trkpt lat="38.05985154345879" lon="15.234652395291485"><ele>900.0</ele><time>2026-04-26T12:44:06Z</time></trkpt><trkpt lat="38.0598234197965" lon="15.234527328834194"><ele>902.0</ele><time>2026-04-26T12:44:08Z</time></trkpt><trkpt lat="38.05974995941166" lon="15.234513698400454"><ele>904.0</ele><time>2026-04-26T12:44:09Z</time></trkpt><trkpt lat="38.05967789540535" lon="15.234440834756178"><ele>906.0</ele><time>2026-04-26T12:44:11Z</time></trkpt><trkpt lat="38.0595754589621" lon="15.23437722765934"><ele>906.0</ele><time>2026-04-26T12:44:13Z</time></trkpt><trkpt lat="38.05949557606426" lon="15.234322720716289"><ele>906.0</ele><time>2026-04-26T12:44:14Z</time></trkpt><trkpt lat="38.05942535578275" lon="15.234285278807246"><ele>906.0</ele><time>2026-04-26T12:44:15Z</time></trkpt><trkpt lat="38.05936040461777" lon="15.23421967255487"><ele>906.0</ele><time>2026-04-26T12:44:16Z</time></trkpt><trkpt lat="38.059307032512805" lon="15.234103941837777"><ele>906.0</ele><time>2026-04-26T12:44:18Z</time></trkpt><trkpt lat="38.059313598755054" lon="15.234010234475111"><ele>906.0</ele><time>2026-04-26T12:44:19Z</time></trkpt><trkpt lat="38.05927942534719" lon="15.233923802181673"><ele>905.3333333333334</ele><time>2026-04-26T12:44:20Z</time></trkpt><trkpt lat="38.05922564356391" lon="15.233877426873569"><ele>904.6666666666667</ele><time>2026-04-26T12:44:21Z</time></trkpt><trkpt lat="38.05914079039017" lon="15.233860451731891"><ele>904.0</ele><time>2026-04-26T12:44:22Z</time></trkpt><trkpt lat="38.05906681760865" lon="15.233875799279321"><ele>903.3333333333334</ele><time>2026-04-26T12:44:23Z</time></trkpt><trkpt lat="38.05900064121417" lon="15.233854019927252"><ele>902.6666666666667</ele><time>2026-04-26T12:44:24Z</time></trkpt><trkpt lat="38.05897621196588" lon="15.233746372709904"><ele>902.0</ele><time>2026-04-26T12:44:26Z</time></trkpt><trkpt lat="38.05906882477092" lon="15.233682919351304"><ele>907.0</ele><time>2026-04-26T12:44:28Z</time></trkpt><trkpt lat="38.05913929880888" lon="15.233683747627559"><ele>912.0</ele><time>2026-04-26T12:44:29Z</time></trkpt><trkpt lat="38.05922089576188" lon="15.233668216731427"><ele>917.0</ele><time>2026-04-26T12:44:30Z</time></trkpt><trkpt lat="38.05931657019041" lon="15.233673750016816"><ele>922.0</ele><time>2026-04-26T12:44:31Z</time></trkpt><trkpt lat="38.05941705272417" lon="15.233675747667291"><ele>927.0</ele><time>2026-04-26T12:44:32Z</time></trkpt><trkpt lat="38.05953459011513" lon="15.233683101670053"><ele>927.0</ele><time>2026-04-26T12:44:32.999Z</time></trkpt><trkpt lat="38.05961851699336" lon="15.233696948093638"><ele>927.0</ele><time>2026-04-26T12:44:33.999Z</time></trkpt><trkpt lat="38.05968522876933" lon="15.233709374113797"><ele>927.0</ele><time>2026-04-26T12:44:34.999Z</time></trkpt><trkpt lat="38.05975380279872" lon="15.23372961286078"><ele>927.0</ele><time>2026-04-26T12:44:35.999Z</time></trkpt><trkpt lat="38.059804897812974" lon="15.233788554020709"><ele>927.0</ele><time>2026-04-26T12:44:36.999Z</time></trkpt><trkpt lat="38.059869760179915" lon="15.233871296610054"><ele>927.0</ele><time>2026-04-26T12:44:37.999Z</time></trkpt><trkpt lat="38.059991578900345" lon="15.233899004533129"><ele>927.8</ele><time>2026-04-26T12:44:39.999Z</time></trkpt><trkpt lat="38.060080468313046" lon="15.2338995432964"><ele>928.6</ele><time>2026-04-26T12:44:40.999Z</time></trkpt><trkpt lat="38.06015577776468" lon="15.233856597070728"><ele>929.3999999999999</ele><time>2026-04-26T12:44:41.999Z</time></trkpt><trkpt lat="38.060210498700386" lon="15.233817046713026"><ele>930.1999999999999</ele><time>2026-04-26T12:44:42.999Z</time></trkpt><trkpt lat="38.06029844196889" lon="15.233742772558816"><ele>931.0</ele><time>2026-04-26T12:44:44.999Z</time></trkpt><trkpt lat="38.06035882991403" lon="15.233586077021572"><ele>931.0</ele><time>2026-04-26T12:44:46.999Z</time></trkpt><trkpt lat="38.06038864074942" lon="15.233509608393721"><ele>931.0</ele><time>2026-04-26T12:44:47.999Z</time></trkpt><trkpt lat="38.06040369320776" lon="15.233431846843025"><ele>931.0</ele><time>2026-04-26T12:44:48.999Z</time></trkpt><trkpt lat="38.060403096742945" lon="15.233318317177877"><ele>931.0</ele><time>2026-04-26T12:44:49.999Z</time></trkpt><trkpt lat="38.06041123139321" lon="15.233206857424086"><ele>931.0</ele><time>2026-04-26T12:44:50.999Z</time></trkpt><trkpt lat="38.06042131995721" lon="15.233111129396404"><ele>931.0</ele><time>2026-04-26T12:44:51.999Z</time></trkpt><trkpt lat="38.060413946118814" lon="15.233029075356887"><ele>931.0</ele><time>2026-04-26T12:44:52.999Z</time></trkpt><trkpt lat="38.060337270292784" lon="15.232927545992597"><ele>934.4999999999999</ele><time>2026-04-26T12:44:54.999Z</time></trkpt><trkpt lat="38.06028047768888" lon="15.232849680354821"><ele>938.0</ele><time>2026-04-26T12:44:55.999Z</time></trkpt><trkpt lat="38.060289967476834" lon="15.232717919870826"><ele>941.5</ele><time>2026-04-26T12:44:57.999Z</time></trkpt><trkpt lat="38.0603387901188" lon="15.232657032342972"><ele>945.0</ele><time>2026-04-26T12:44:58.999Z</time></trkpt><trkpt lat="38.06040879890632" lon="15.232608051158234"><ele>948.4999999999999</ele><time>2026-04-26T12:44:59.999Z</time></trkpt><trkpt lat="38.06048013665807" lon="15.2325738234353"><ele>952.0</ele><time>2026-04-26T12:45:00.999Z</time></trkpt><trkpt lat="38.06056437522664" lon="15.232556837972941"><ele>952.0</ele><time>2026-04-26T12:45:01.999Z</time></trkpt><trkpt lat="38.060645686140376" lon="15.232505684452484"><ele>952.0</ele><time>2026-04-26T12:45:02.999Z</time></trkpt><trkpt lat="38.06071616410014" lon="15.232440134228478"><ele>952.0</ele><time>2026-04-26T12:45:03.999Z</time></trkpt><trkpt lat="38.06080192267796" lon="15.2323811718354"><ele>952.0</ele><time>2026-04-26T12:45:04.999Z</time></trkpt><trkpt lat="38.06087723972336" lon="15.23232586033005"><ele>952.0</ele><time>2026-04-26T12:45:05.999Z</time></trkpt><trkpt lat="38.060958779734975" lon="15.232275982988805"><ele>958.0</ele><time>2026-04-26T12:45:06.999Z</time></trkpt><trkpt lat="38.061040316092985" lon="15.232226860427584"><ele>964.0</ele><time>2026-04-26T12:45:07.999Z</time></trkpt><trkpt lat="38.06113349114394" lon="15.232176967554642"><ele>970.0</ele><time>2026-04-26T12:45:08.999Z</time></trkpt><trkpt lat="38.061232593837346" lon="15.23212475867318"><ele>976.0</ele><time>2026-04-26T12:45:09.999Z</time></trkpt><trkpt lat="38.06130453330171" lon="15.23213087140464"><ele>982.0</ele><time>2026-04-26T12:45:10.999Z</time></trkpt><trkpt lat="38.061403438651844" lon="15.232128390057094"><ele>982.0</ele><time>2026-04-26T12:45:11.999Z</time></trkpt><trkpt lat="38.0614882403786" lon="15.23213253479912"><ele>982.0</ele><time>2026-04-26T12:45:12.999Z</time></trkpt><trkpt lat="38.06158970805887" lon="15.23212479563104"><ele>982.0</ele><time>2026-04-26T12:45:13.999Z</time></trkpt><trkpt lat="38.061674275606364" lon="15.232105151285571"><ele>982.0</ele><time>2026-04-26T12:45:14.999Z</time></trkpt><trkpt lat="38.06176033673924" lon="15.232089401961755"><ele>982.0</ele><time>2026-04-26T12:45:15.999Z</time></trkpt><trkpt lat="38.061859925325194" lon="15.232078285549672"><ele>979.9999999999999</ele><time>2026-04-26T12:45:16.999Z</time></trkpt><trkpt lat="38.06194637502138" lon="15.232062688136047"><ele>978.0</ele><time>2026-04-26T12:45:17.999Z</time></trkpt><trkpt lat="38.06204006670666" lon="15.23204586293653"><ele>976.0</ele><time>2026-04-26T12:45:18.999Z</time></trkpt><trkpt lat="38.06213374639589" lon="15.232047892492641"><ele>974.0</ele><time>2026-04-26T12:45:19.999Z</time></trkpt><trkpt lat="38.062209780206956" lon="15.232048055010086"><ele>971.9999999999999</ele><time>2026-04-26T12:45:20.999Z</time></trkpt><trkpt lat="38.06228409221684" lon="15.23203575940936"><ele>970.0</ele><time>2026-04-26T12:45:21.999Z</time></trkpt><trkpt lat="38.06234779769704" lon="15.231985784684033"><ele>970.0</ele><time>2026-04-26T12:45:22.999Z</time></trkpt><trkpt lat="38.06238879583388" lon="15.231905998383787"><ele>970.0</ele><time>2026-04-26T12:45:23.999Z</time></trkpt><trkpt lat="38.06244796236876" lon="15.231826058838617"><ele>970.0</ele><time>2026-04-26T12:45:24.999Z</time></trkpt><trkpt lat="38.06249856870889" lon="15.23175000228504"><ele>970.0</ele><time>2026-04-26T12:45:25.999Z</time></trkpt><trkpt lat="38.06256276721059" lon="15.23171529523928"><ele>970.0</ele><time>2026-04-26T12:45:26.999Z</time></trkpt><trkpt lat="38.06266000161414" lon="15.23156532864154"><ele>971.8333333333333</ele><time>2026-04-26T12:45:28.999Z</time></trkpt><trkpt lat="38.06268810710972" lon="15.23149280733349"><ele>973.6666666666666</ele><time>2026-04-26T12:45:29.999Z</time></trkpt><trkpt lat="38.062702728153866" lon="15.231399253489544"><ele>975.5</ele><time>2026-04-26T12:45:30.999Z</time></trkpt><trkpt lat="38.06273824809348" lon="15.231291259493847"><ele>977.3333333333333</ele><time>2026-04-26T12:45:31.999Z</time></trkpt><trkpt lat="38.06276854503693" lon="15.231202803878821"><ele>979.1666666666666</ele><time>2026-04-26T12:45:32.999Z</time></trkpt><trkpt lat="38.06283556607549" lon="15.23111783597342"><ele>981.0</ele><time>2026-04-26T12:45:33.999Z</time></trkpt><trkpt lat="38.06286897977635" lon="15.23103947352551"><ele>981.0</ele><time>2026-04-26T12:45:34.999Z</time></trkpt><trkpt lat="38.06288152577935" lon="15.230945610770817"><ele>981.0</ele><time>2026-04-26T12:45:35.999Z</time></trkpt><trkpt lat="38.062888615069824" lon="15.23083483835177"><ele>981.0</ele><time>2026-04-26T12:45:36.999Z</time></trkpt><trkpt lat="38.06288592644889" lon="15.230742524368004"><ele>981.0</ele><time>2026-04-26T12:45:37.999Z</time></trkpt><trkpt lat="38.06291530254343" lon="15.230657051899488"><ele>981.0</ele><time>2026-04-26T12:45:38.999Z</time></trkpt><trkpt lat="38.06299155892556" lon="15.23056807748643"><ele>981.0</ele><time>2026-04-26T12:45:41Z</time></trkpt><trkpt lat="38.06307753092801" lon="15.230578504282931"><ele>981.0</ele><time>2026-04-26T12:45:43Z</time></trkpt><trkpt lat="38.063111679596254" lon="15.230701922951296"><ele>980.9999999999999</ele><time>2026-04-26T12:45:44Z</time></trkpt><trkpt lat="38.06318826280709" lon="15.230754116682359"><ele>980.9999999999999</ele><time>2026-04-26T12:45:45Z</time></trkpt><trkpt lat="38.06325918984065" lon="15.230814819246351"><ele>981.0</ele><time>2026-04-26T12:45:46Z</time></trkpt><trkpt lat="38.063354745507745" lon="15.230852367212659"><ele>981.0</ele><time>2026-04-26T12:45:47Z</time></trkpt><trkpt lat="38.06344475501513" lon="15.230864525814033"><ele>978.5999999999999</ele><time>2026-04-26T12:45:48Z</time></trkpt><trkpt lat="38.06354042819264" lon="15.230874157518748"><ele>976.1999999999999</ele><time>2026-04-26T12:45:49Z</time></trkpt><trkpt lat="38.06366255516133" lon="15.230871569563304"><ele>973.8000000000001</ele><time>2026-04-26T12:45:50Z</time></trkpt><trkpt lat="38.06377023770351" lon="15.230845606197567"><ele>971.4000000000001</ele><time>2026-04-26T12:45:51Z</time></trkpt><trkpt lat="38.06387713817783" lon="15.230805775001437"><ele>969.0</ele><time>2026-04-26T12:45:52Z</time></trkpt><trkpt lat="38.06397886226278" lon="15.230804100949657"><ele>969.0</ele><time>2026-04-26T12:45:53Z</time></trkpt><trkpt lat="38.064082064484694" lon="15.230831611318294"><ele>969.0000000000001</ele><time>2026-04-26T12:45:54Z</time></trkpt><trkpt lat="38.06417631274969" lon="15.230872414353037"><ele>969.0000000000001</ele><time>2026-04-26T12:45:55Z</time></trkpt><trkpt lat="38.06428966021905" lon="15.230901478877517"><ele>969.0</ele><time>2026-04-26T12:45:56Z</time></trkpt><trkpt lat="38.06438489474899" lon="15.230918159550201"><ele>969.0</ele><time>2026-04-26T12:45:57Z</time></trkpt><trkpt lat="38.06448423188834" lon="15.230916497555704"><ele>970.0</ele><time>2026-04-26T12:45:58Z</time></trkpt><trkpt lat="38.06456191081156" lon="15.230914883146863"><ele>971.0</ele><time>2026-04-26T12:45:59Z</time></trkpt><trkpt lat="38.0646308551531" lon="15.230855644268738"><ele>972.0</ele><time>2026-04-26T12:46:01Z</time></trkpt><trkpt lat="38.06457369072286" lon="15.230773103961745"><ele>973.0</ele><time>2026-04-26T12:46:03Z</time></trkpt><trkpt lat="38.06450989343315" lon="15.23075290440018"><ele>974.0</ele><time>2026-04-26T12:46:04Z</time></trkpt><trkpt lat="38.06443538451808" lon="15.23073220755299"><ele>975.0</ele><time>2026-04-26T12:46:05Z</time></trkpt><trkpt lat="38.064351938275884" lon="15.230707167205379"><ele>975.0</ele><time>2026-04-26T12:46:06Z</time></trkpt><trkpt lat="38.064261085039334" lon="15.230670610572991"><ele>975.0</ele><time>2026-04-26T12:46:07Z</time></trkpt><trkpt lat="38.064164769178774" lon="15.230647452671999"><ele>975.0</ele><time>2026-04-26T12:46:08Z</time></trkpt><trkpt lat="38.06406148663693" lon="15.230636294757186"><ele>975.0</ele><time>2026-04-26T12:46:09Z</time></trkpt><trkpt lat="38.06396870007597" lon="15.230611847733927"><ele>975.0</ele><time>2026-04-26T12:46:10Z</time></trkpt><trkpt lat="38.06389743012374" lon="15.23055802356271"><ele>978.6</ele><time>2026-04-26T12:46:11Z</time></trkpt><trkpt lat="38.063811489076926" lon="15.230502020083142"><ele>982.2</ele><time>2026-04-26T12:46:12Z</time></trkpt><trkpt lat="38.06372456094906" lon="15.230464770186304"><ele>985.8</ele><time>2026-04-26T12:46:13Z</time></trkpt><trkpt lat="38.06364059022148" lon="15.230433053978015"><ele>989.4</ele><time>2026-04-26T12:46:14Z</time></trkpt><trkpt lat="38.063551074254335" lon="15.230406991856384"><ele>993.0</ele><time>2026-04-26T12:46:15Z</time></trkpt><trkpt lat="38.063450724091936" lon="15.2303804094668"><ele>993.0</ele><time>2026-04-26T12:46:16Z</time></trkpt><trkpt lat="38.06338792370762" lon="15.230332785207366"><ele>993.0</ele><time>2026-04-26T12:46:17Z</time></trkpt><trkpt lat="38.06334151329879" lon="15.230265996737923"><ele>993.0</ele><time>2026-04-26T12:46:18Z</time></trkpt><trkpt lat="38.06328745521146" lon="15.230181065603194"><ele>993.0</ele><time>2026-04-26T12:46:19Z</time></trkpt><trkpt lat="38.06324759123697" lon="15.230091283026065"><ele>993.0</ele><time>2026-04-26T12:46:20Z</time></trkpt><trkpt lat="38.063211176811826" lon="15.229988525306133"><ele>993.0</ele><time>2026-04-26T12:46:21Z</time></trkpt><trkpt lat="38.06318253738652" lon="15.229877288043163"><ele>997.1666666666666</ele><time>2026-04-26T12:46:22Z</time></trkpt><trkpt lat="38.06317560678928" lon="15.229770775544756"><ele>1001.3333333333333</ele><time>2026-04-26T12:46:23Z</time></trkpt><trkpt lat="38.063190350228666" lon="15.229664511095534"><ele>1005.5</ele><time>2026-04-26T12:46:24Z</time></trkpt><trkpt lat="38.06322113214484" lon="15.229560989269542"><ele>1009.6666666666666</ele><time>2026-04-26T12:46:25Z</time></trkpt><trkpt lat="38.06323625011401" lon="15.229466767953246"><ele>1013.8333333333333</ele><time>2026-04-26T12:46:26Z</time></trkpt><trkpt lat="38.063221823826005" lon="15.229385564888776"><ele>1018.0</ele><time>2026-04-26T12:46:27Z</time></trkpt><trkpt lat="38.06320586586518" lon="15.229305863994137"><ele>1018.0</ele><time>2026-04-26T12:46:28Z</time></trkpt><trkpt lat="38.06326129534433" lon="15.229238400956785"><ele>1018.0</ele><time>2026-04-26T12:46:30Z</time></trkpt><trkpt lat="38.06338135889507" lon="15.229253862599665"><ele>1018.0</ele><time>2026-04-26T12:46:32Z</time></trkpt><trkpt lat="38.06345540660289" lon="15.229380407514794"><ele>1018.0</ele><time>2026-04-26T12:46:34Z</time></trkpt><trkpt lat="38.0634096143837" lon="15.22950884978978"><ele>1018.0</ele><time>2026-04-26T12:46:36Z</time></trkpt><trkpt lat="38.06340305747445" lon="15.229594490894318"><ele>1015.5999999999999</ele><time>2026-04-26T12:46:37Z</time></trkpt><trkpt lat="38.063443445607206" lon="15.229727213712032"><ele>1013.1999999999999</ele><time>2026-04-26T12:46:38Z</time></trkpt><trkpt lat="38.063508919804164" lon="15.229877932593851"><ele>1010.8</ele><time>2026-04-26T12:46:39Z</time></trkpt><trkpt lat="38.063564454487995" lon="15.229961633777496"><ele>1008.4</ele><time>2026-04-26T12:46:40Z</time></trkpt><trkpt lat="38.063624018940885" lon="15.23000093855373"><ele>1006.0</ele><time>2026-04-26T12:46:41Z</time></trkpt><trkpt lat="38.06369148862955" lon="15.229964714130787"><ele>1005.9999999999999</ele><time>2026-04-26T12:46:42Z</time></trkpt><trkpt lat="38.06375436510826" lon="15.229877477768126"><ele>1006.0</ele><time>2026-04-26T12:46:44Z</time></trkpt><trkpt lat="38.06372378859436" lon="15.229756258199762"><ele>1006.0</ele><time>2026-04-26T12:46:46Z</time></trkpt><trkpt lat="38.06370434890725" lon="15.229675846723458"><ele>1006.0</ele><time>2026-04-26T12:46:47Z</time></trkpt><trkpt lat="38.063682374732984" lon="15.229587277076847"><ele>1005.9999999999999</ele><time>2026-04-26T12:46:48Z</time></trkpt><trkpt lat="38.06367201866839" lon="15.229501474681307"><ele>1006.0</ele><time>2026-04-26T12:46:49Z</time></trkpt><trkpt lat="38.06370580944805" lon="15.229409916312719"><ele>1006.0</ele><time>2026-04-26T12:46:50Z</time></trkpt><trkpt lat="38.063737851684664" lon="15.229326008135141"><ele>1005.9999999999999</ele><time>2026-04-26T12:46:51Z</time></trkpt><trkpt lat="38.063814368252075" lon="15.229230874389721"><ele>1005.9999999999999</ele><time>2026-04-26T12:46:53Z</time></trkpt><trkpt lat="38.06388735594433" lon="15.229207074497356"><ele>1006.0</ele><time>2026-04-26T12:46:54Z</time></trkpt><trkpt lat="38.06401433243823" lon="15.22923760305383"><ele>1006.0</ele><time>2026-04-26T12:46:56Z</time></trkpt><trkpt lat="38.06407789735275" lon="15.22927747962022"><ele>1007.3333333333333</ele><time>2026-04-26T12:46:57Z</time></trkpt><trkpt lat="38.06415896770587" lon="15.229313047629084"><ele>1008.6666666666666</ele><time>2026-04-26T12:46:58Z</time></trkpt><trkpt lat="38.06422987885685" lon="15.229330882196349"><ele>1010.0</ele><time>2026-04-26T12:46:59Z</time></trkpt><trkpt lat="38.0643045616862" lon="15.229327296350311"><ele>1011.3333333333333</ele><time>2026-04-26T12:47:00Z</time></trkpt><trkpt lat="38.064426095970944" lon="15.22928271229695"><ele>1012.6666666666666</ele><time>2026-04-26T12:47:02Z</time></trkpt><trkpt lat="38.064464729969444" lon="15.229190771397615"><ele>1014.0</ele><time>2026-04-26T12:47:04Z</time></trkpt><trkpt lat="38.064462891063386" lon="15.229108379099397"><ele>1014.0</ele><time>2026-04-26T12:47:05Z</time></trkpt><trkpt lat="38.06445851788286" lon="15.229017926412945"><ele>1014.0</ele><time>2026-04-26T12:47:06Z</time></trkpt><trkpt lat="38.064474010526745" lon="15.228929665903348"><ele>1014.0</ele><time>2026-04-26T12:47:07Z</time></trkpt><trkpt lat="38.06453284903452" lon="15.228848733508126"><ele>1014.0</ele><time>2026-04-26T12:47:08Z</time></trkpt><trkpt lat="38.064608520920274" lon="15.22879953924437"><ele>1014.0</ele><time>2026-04-26T12:47:09Z</time></trkpt><trkpt lat="38.06469241368957" lon="15.22877307471328"><ele>1014.0</ele><time>2026-04-26T12:47:10Z</time></trkpt><trkpt lat="38.064775172978905" lon="15.228795636495551"><ele>1015.5</ele><time>2026-04-26T12:47:11Z</time></trkpt><trkpt lat="38.064857521345914" lon="15.228849749439568"><ele>1017.0</ele><time>2026-04-26T12:47:12Z</time></trkpt><trkpt lat="38.06493161890465" lon="15.22891213362816"><ele>1018.5</ele><time>2026-04-26T12:47:13Z</time></trkpt><trkpt lat="38.06500313739447" lon="15.22895419618276"><ele>1020.0</ele><time>2026-04-26T12:47:14Z</time></trkpt><trkpt lat="38.06506632487937" lon="15.228948832874229"><ele>1021.5</ele><time>2026-04-26T12:47:15Z</time></trkpt><trkpt lat="38.06514523283849" lon="15.228878424474905"><ele>1023.0</ele><time>2026-04-26T12:47:17Z</time></trkpt><trkpt lat="38.06516779407878" lon="15.228794614758364"><ele>1023.0</ele><time>2026-04-26T12:47:18Z</time></trkpt><trkpt lat="38.06517141873014" lon="15.228689896375473"><ele>1023.0</ele><time>2026-04-26T12:47:19Z</time></trkpt><trkpt lat="38.065162371883346" lon="15.228599024013036"><ele>1023.0</ele><time>2026-04-26T12:47:20Z</time></trkpt><trkpt lat="38.06519507759818" lon="15.228529367479744"><ele>1023.0</ele><time>2026-04-26T12:47:21Z</time></trkpt><trkpt lat="38.06525909056694" lon="15.22847782791356"><ele>1023.0</ele><time>2026-04-26T12:47:22Z</time></trkpt><trkpt lat="38.06535102088048" lon="15.22843063210194"><ele>1023.0</ele><time>2026-04-26T12:47:23Z</time></trkpt><trkpt lat="38.0654474931932" lon="15.228414304877871"><ele>1023.0</ele><time>2026-04-26T12:47:23.999Z</time></trkpt><trkpt lat="38.06553126197334" lon="15.228390826501089"><ele>1023.0</ele><time>2026-04-26T12:47:24.999Z</time></trkpt><trkpt lat="38.06559559298433" lon="15.228370264993412"><ele>1023.0</ele><time>2026-04-26T12:47:25.999Z</time></trkpt><trkpt lat="38.06565102562896" lon="15.228319483578945"><ele>1023.0</ele><time>2026-04-26T12:47:26.999Z</time></trkpt><trkpt lat="38.06569027735703" lon="15.228231739908379"><ele>1023.0</ele><time>2026-04-26T12:47:27.999Z</time></trkpt><trkpt lat="38.06573767647779" lon="15.228141882854233"><ele>1023.0</ele><time>2026-04-26T12:47:28.999Z</time></trkpt><trkpt lat="38.06577667963746" lon="15.228031066839428"><ele>1020.8</ele><time>2026-04-26T12:47:29.999Z</time></trkpt><trkpt lat="38.06580559453719" lon="15.22789132214862"><ele>1018.5999999999999</ele><time>2026-04-26T12:47:30.999Z</time></trkpt><trkpt lat="38.065844484799264" lon="15.227769511763604"><ele>1016.4000000000001</ele><time>2026-04-26T12:47:31.999Z</time></trkpt><trkpt lat="38.065854316259184" lon="15.227649613308959"><ele>1014.2</ele><time>2026-04-26T12:47:32.999Z</time></trkpt><trkpt lat="38.06585168638993" lon="15.227531262920559"><ele>1012.0</ele><time>2026-04-26T12:47:33.999Z</time></trkpt><trkpt lat="38.06586002600591" lon="15.227429808087223"><ele>1012.0</ele><time>2026-04-26T12:47:34.999Z</time></trkpt><trkpt lat="38.06585427030355" lon="15.227335604823464"><ele>1012.0</ele><time>2026-04-26T12:47:35.999Z</time></trkpt><trkpt lat="38.065828424670634" lon="15.227247755693913"><ele>1012.0</ele><time>2026-04-26T12:47:36.999Z</time></trkpt><trkpt lat="38.065828368372884" lon="15.22710339398582"><ele>1012.0</ele><time>2026-04-26T12:47:37.999Z</time></trkpt><trkpt lat="38.06584467674295" lon="15.226968367386256"><ele>1012.0</ele><time>2026-04-26T12:47:38.999Z</time></trkpt><trkpt lat="38.065891517143704" lon="15.226858412695526"><ele>1012.2</ele><time>2026-04-26T12:47:39.999Z</time></trkpt><trkpt lat="38.065923592531306" lon="15.226754826733629"><ele>1012.4000000000001</ele><time>2026-04-26T12:47:40.999Z</time></trkpt><trkpt lat="38.06594507460984" lon="15.22664384937999"><ele>1012.5999999999999</ele><time>2026-04-26T12:47:41.999Z</time></trkpt><trkpt lat="38.066002500475044" lon="15.226553836593107"><ele>1012.8</ele><time>2026-04-26T12:47:42.999Z</time></trkpt><trkpt lat="38.06608784534582" lon="15.226506075653095"><ele>1013.0</ele><time>2026-04-26T12:47:43.999Z</time></trkpt><trkpt lat="38.06618378530612" lon="15.226474474403444"><ele>1010.0</ele><time>2026-04-26T12:47:44.999Z</time></trkpt><trkpt lat="38.06627389030576" lon="15.226439268452953"><ele>1007.0</ele><time>2026-04-26T12:47:46.001Z</time></trkpt><trkpt lat="38.066391128136935" lon="15.22633536838038"><ele>1004.0</ele><time>2026-04-26T12:47:48.001Z</time></trkpt><trkpt lat="38.066417778737595" lon="15.226183223579913"><ele>1001.0</ele><time>2026-04-26T12:47:50.001Z</time></trkpt><trkpt lat="38.06640745685728" lon="15.226101917250075"><ele>998.0</ele><time>2026-04-26T12:47:51.001Z</time></trkpt><trkpt lat="38.066297427427855" lon="15.225999541595561"><ele>998.0000000000001</ele><time>2026-04-26T12:47:53.001Z</time></trkpt><trkpt lat="38.066237262777086" lon="15.225955319459322"><ele>998.0</ele><time>2026-04-26T12:47:54.001Z</time></trkpt><trkpt lat="38.06617283064236" lon="15.225892455615696"><ele>998.0</ele><time>2026-04-26T12:47:55.001Z</time></trkpt><trkpt lat="38.06610381941809" lon="15.22584701046368"><ele>998.0</ele><time>2026-04-26T12:47:56.001Z</time></trkpt><trkpt lat="38.0660219752891" lon="15.22576034905747"><ele>998.0000000000001</ele><time>2026-04-26T12:47:57.001Z</time></trkpt><trkpt lat="38.06599117801226" lon="15.225678191581727"><ele>998.0</ele><time>2026-04-26T12:47:58.001Z</time></trkpt><trkpt lat="38.06596325124614" lon="15.225600495056922"><ele>995.5999999999999</ele><time>2026-04-26T12:47:59.001Z</time></trkpt><trkpt lat="38.06592010873133" lon="15.225512695493927"><ele>993.1999999999999</ele><time>2026-04-26T12:48:00.001Z</time></trkpt><trkpt lat="38.06585313602282" lon="15.225422962383641"><ele>990.8</ele><time>2026-04-26T12:48:01Z</time></trkpt><trkpt lat="38.06579138426334" lon="15.225342910977705"><ele>988.4</ele><time>2026-04-26T12:48:02Z</time></trkpt><trkpt lat="38.0656851639232" lon="15.225234129438084"><ele>986.0</ele><time>2026-04-26T12:48:03Z</time></trkpt><trkpt lat="38.06559986300189" lon="15.22517612195986"><ele>986.0</ele><time>2026-04-26T12:48:04Z</time></trkpt><trkpt lat="38.065507792176255" lon="15.225120949130316"><ele>985.9999999999999</ele><time>2026-04-26T12:48:05Z</time></trkpt><trkpt lat="38.065410386870795" lon="15.22505625871618"><ele>985.9999999999999</ele><time>2026-04-26T12:48:06Z</time></trkpt><trkpt lat="38.0653228865195" lon="15.224999480592366"><ele>986.0</ele><time>2026-04-26T12:48:07Z</time></trkpt><trkpt lat="38.065248357501424" lon="15.224958427345419"><ele>986.0</ele><time>2026-04-26T12:48:08Z</time></trkpt><trkpt lat="38.06516672807051" lon="15.224926218415682"><ele>986.0000000000001</ele><time>2026-04-26T12:48:09Z</time></trkpt><trkpt lat="38.06508198407089" lon="15.224892879624749"><ele>986.0</ele><time>2026-04-26T12:48:10Z</time></trkpt><trkpt lat="38.064994357419" lon="15.224851084093977"><ele>986.0</ele><time>2026-04-26T12:48:11Z</time></trkpt><trkpt lat="38.064910418609166" lon="15.224823967588705"><ele>986.0</ele><time>2026-04-26T12:48:12Z</time></trkpt><trkpt lat="38.06484109486449" lon="15.224822972240279"><ele>986.0000000000001</ele><time>2026-04-26T12:48:13Z</time></trkpt><trkpt lat="38.06476895251471" lon="15.224848791913118"><ele>986.0</ele><time>2026-04-26T12:48:14Z</time></trkpt><trkpt lat="38.06466479671374" lon="15.224891873060265"><ele>983.5999999999999</ele><time>2026-04-26T12:48:16Z</time></trkpt><trkpt lat="38.06460228924607" lon="15.224788335311487"><ele>981.1999999999999</ele><time>2026-04-26T12:48:18Z</time></trkpt><trkpt lat="38.0645932577975" lon="15.224676818377214"><ele>978.8000000000001</ele><time>2026-04-26T12:48:19Z</time></trkpt><trkpt lat="38.064572395982815" lon="15.224582356465646"><ele>976.4000000000001</ele><time>2026-04-26T12:48:20Z</time></trkpt><trkpt lat="38.06453645082521" lon="15.224483162872716"><ele>974.0</ele><time>2026-04-26T12:48:21Z</time></trkpt><trkpt lat="38.06450918947144" lon="15.2243475394373"><ele>974.0</ele><time>2026-04-26T12:48:22Z</time></trkpt><trkpt lat="38.064496459367945" lon="15.224213099049402"><ele>974.0000000000001</ele><time>2026-04-26T12:48:23Z</time></trkpt><trkpt lat="38.06450476021523" lon="15.22408235811541"><ele>974.0000000000001</ele><time>2026-04-26T12:48:24Z</time></trkpt><trkpt lat="38.0645473783901" lon="15.223980938887905"><ele>974.0</ele><time>2026-04-26T12:48:25Z</time></trkpt><trkpt lat="38.064562546235805" lon="15.223873047681337"><ele>974.0</ele><time>2026-04-26T12:48:26Z</time></trkpt><trkpt lat="38.064582473317635" lon="15.223791699866364"><ele>974.0</ele><time>2026-04-26T12:48:27Z</time></trkpt><trkpt lat="38.06463567454191" lon="15.223725809109935"><ele>974.0</ele><time>2026-04-26T12:48:28Z</time></trkpt><trkpt lat="38.06469611264124" lon="15.223692733003192"><ele>974.0</ele><time>2026-04-26T12:48:29Z</time></trkpt><trkpt lat="38.064769360428585" lon="15.223691899297904"><ele>974.0</ele><time>2026-04-26T12:48:30Z</time></trkpt><trkpt lat="38.064830564323124" lon="15.223741365001256"><ele>974.0</ele><time>2026-04-26T12:48:31Z</time></trkpt><trkpt lat="38.0648622412845" lon="15.223835115229477"><ele>974.0</ele><time>2026-04-26T12:48:32Z</time></trkpt><trkpt lat="38.06485382885181" lon="15.223934939662938"><ele>974.0</ele><time>2026-04-26T12:48:33Z</time></trkpt><trkpt lat="38.06482151321902" lon="15.224008375964056"><ele>974.0</ele><time>2026-04-26T12:48:34Z</time></trkpt><trkpt lat="38.06477768848477" lon="15.224091378416318"><ele>974.0000000000001</ele><time>2026-04-26T12:48:35Z</time></trkpt><trkpt lat="38.06472241839905" lon="15.224178044028164"><ele>974.0000000000001</ele><time>2026-04-26T12:48:36Z</time></trkpt><trkpt lat="38.064689320219635" lon="15.224266447365205"><ele>974.0</ele><time>2026-04-26T12:48:36.999Z</time></trkpt><trkpt lat="38.06469995398054" lon="15.22441661262631"><ele>974.0</ele><time>2026-04-26T12:48:38.999Z</time></trkpt><trkpt lat="38.06479891676627" lon="15.22451507938505"><ele>974.0</ele><time>2026-04-26T12:48:40.999Z</time></trkpt><trkpt lat="38.06486419184343" lon="15.22452824980339"><ele>974.0000000000001</ele><time>2026-04-26T12:48:41.999Z</time></trkpt><trkpt lat="38.06495125132556" lon="15.224519098393062"><ele>974.0000000000001</ele><time>2026-04-26T12:48:42.999Z</time></trkpt><trkpt lat="38.06506115360553" lon="15.224492528960269"><ele>974.0</ele><time>2026-04-26T12:48:43.999Z</time></trkpt><trkpt lat="38.06516641665022" lon="15.224486726437075"><ele>974.0</ele><time>2026-04-26T12:48:44.999Z</time></trkpt><trkpt lat="38.06527024256286" lon="15.224510463302318"><ele>971.0</ele><time>2026-04-26T12:48:45.999Z</time></trkpt><trkpt lat="38.065364509657904" lon="15.224549421293514"><ele>968.0000000000001</ele><time>2026-04-26T12:48:46.999Z</time></trkpt><trkpt lat="38.06546714852854" lon="15.224591028410504"><ele>965.0000000000001</ele><time>2026-04-26T12:48:47.999Z</time></trkpt><trkpt lat="38.06559258588468" lon="15.224630380201841"><ele>962.0</ele><time>2026-04-26T12:48:48.999Z</time></trkpt><trkpt lat="38.0656798257389" lon="15.224678796247984"><ele>959.0</ele><time>2026-04-26T12:48:49.999Z</time></trkpt><trkpt lat="38.065775899475106" lon="15.22472038154393"><ele>953.6</ele><time>2026-04-26T12:48:50.999Z</time></trkpt><trkpt lat="38.06587236492733" lon="15.224772978853442"><ele>948.2</ele><time>2026-04-26T12:48:51.999Z</time></trkpt><trkpt lat="38.06596802481094" lon="15.224792776042701"><ele>942.8000000000001</ele><time>2026-04-26T12:48:52.999Z</time></trkpt><trkpt lat="38.06607452574957" lon="15.224800152994465"><ele>937.4000000000001</ele><time>2026-04-26T12:48:53.999Z</time></trkpt><trkpt lat="38.06617098806496" lon="15.22479542096683"><ele>932.0</ele><time>2026-04-26T12:48:54.999Z</time></trkpt><trkpt lat="38.06626665905135" lon="15.224787855478237"><ele>932.0000000000001</ele><time>2026-04-26T12:48:55.999Z</time></trkpt><trkpt lat="38.06635969118629" lon="15.224794926375361"><ele>932.0</ele><time>2026-04-26T12:48:56.999Z</time></trkpt><trkpt lat="38.06643667333203" lon="15.224819773890765"><ele>932.0</ele><time>2026-04-26T12:48:57.999Z</time></trkpt><trkpt lat="38.06650632668643" lon="15.224868758406789"><ele>932.0</ele><time>2026-04-26T12:48:58.999Z</time></trkpt><trkpt lat="38.066585148559135" lon="15.224949175523694"><ele>932.0000000000001</ele><time>2026-04-26T12:48:59.999Z</time></trkpt><trkpt lat="38.066656444024" lon="15.225019315262092"><ele>932.0</ele><time>2026-04-26T12:49:00.999Z</time></trkpt><trkpt lat="38.0667262729678" lon="15.225106152176702"><ele>933.5000000000001</ele><time>2026-04-26T12:49:01.999Z</time></trkpt><trkpt lat="38.06678884364581" lon="15.225195547930461"><ele>935.0</ele><time>2026-04-26T12:49:02.999Z</time></trkpt><trkpt lat="38.066843914242554" lon="15.22527525599297"><ele>936.5</ele><time>2026-04-26T12:49:03.999Z</time></trkpt><trkpt lat="38.06689883538795" lon="15.225348768944734"><ele>938.0</ele><time>2026-04-26T12:49:04.999Z</time></trkpt><trkpt lat="38.06697295829497" lon="15.225439010040915"><ele>939.5000000000001</ele><time>2026-04-26T12:49:06.999Z</time></trkpt><trkpt lat="38.06701607402482" lon="15.225374761602495"><ele>941.0</ele><time>2026-04-26T12:49:08.999Z</time></trkpt><trkpt lat="38.066976451809325" lon="15.225273097514266"><ele>941.0000000000001</ele><time>2026-04-26T12:49:10.999Z</time></trkpt><trkpt lat="38.066916586476665" lon="15.225196926645674"><ele>941.0</ele><time>2026-04-26T12:49:11.999Z</time></trkpt><trkpt lat="38.06687249907722" lon="15.22509968142901"><ele>941.0</ele><time>2026-04-26T12:49:12.999Z</time></trkpt><trkpt lat="38.066803752742004" lon="15.225000487380589"><ele>941.0</ele><time>2026-04-26T12:49:13.999Z</time></trkpt><trkpt lat="38.06675926109243" lon="15.224913933465936"><ele>941.0000000000001</ele><time>2026-04-26T12:49:14.999Z</time></trkpt><trkpt lat="38.06672131292299" lon="15.224837619561317"><ele>941.0</ele><time>2026-04-26T12:49:15.999Z</time></trkpt><trkpt lat="38.06665816158454" lon="15.22476469636381"><ele>939.1999999999999</ele><time>2026-04-26T12:49:16.999Z</time></trkpt><trkpt lat="38.06659660145921" lon="15.224696062135509"><ele>937.3999999999999</ele><time>2026-04-26T12:49:17.999Z</time></trkpt><trkpt lat="38.06653360985619" lon="15.224627305833394"><ele>935.6</ele><time>2026-04-26T12:49:18.999Z</time></trkpt><trkpt lat="38.06646063447697" lon="15.224569698243949"><ele>933.8</ele><time>2026-04-26T12:49:19.999Z</time></trkpt><trkpt lat="38.06633392317168" lon="15.22452211845808"><ele>932.0</ele><time>2026-04-26T12:49:21.999Z</time></trkpt><trkpt lat="38.06624917306726" lon="15.224535365323455"><ele>932.0000000000001</ele><time>2026-04-26T12:49:22.999Z</time></trkpt><trkpt lat="38.06614956535791" lon="15.224548160584668"><ele>932.0</ele><time>2026-04-26T12:49:23.999Z</time></trkpt><trkpt lat="38.066055486753314" lon="15.22454308813713"><ele>932.0</ele><time>2026-04-26T12:49:24.999Z</time></trkpt><trkpt lat="38.06597085432638" lon="15.224512867501282"><ele>932.0</ele><time>2026-04-26T12:49:25.999Z</time></trkpt><trkpt lat="38.06590227678984" lon="15.22445323543822"><ele>932.0000000000001</ele><time>2026-04-26T12:49:26.999Z</time></trkpt><trkpt lat="38.065855308144286" lon="15.224371453856229"><ele>932.0</ele><time>2026-04-26T12:49:27.999Z</time></trkpt><trkpt lat="38.06581227266473" lon="15.224309902156996"><ele>932.0</ele><time>2026-04-26T12:49:28.999Z</time></trkpt><trkpt lat="38.065691682681056" lon="15.224266811384476"><ele>932.0</ele><time>2026-04-26T12:49:30.999Z</time></trkpt><trkpt lat="38.06566453229086" lon="15.224172506897833"><ele>932.0</ele><time>2026-04-26T12:49:32.999Z</time></trkpt><trkpt lat="38.065742491764745" lon="15.224060810509062"><ele>932.0</ele><time>2026-04-26T12:49:34.999Z</time></trkpt><trkpt lat="38.06581314962854" lon="15.22401516112384"><ele>932.0</ele><time>2026-04-26T12:49:35.999Z</time></trkpt><trkpt lat="38.06590336623757" lon="15.22397423343681"><ele>930.8</ele><time>2026-04-26T12:49:36.999Z</time></trkpt><trkpt lat="38.06596270390171" lon="15.223937071453301"><ele>929.6</ele><time>2026-04-26T12:49:37.999Z</time></trkpt><trkpt lat="38.066018765557" lon="15.223762322449582"><ele>928.3999999999999</ele><time>2026-04-26T12:49:39.999Z</time></trkpt><trkpt lat="38.06604505527057" lon="15.223648638493511"><ele>927.1999999999999</ele><time>2026-04-26T12:49:40.999Z</time></trkpt><trkpt lat="38.06607377840869" lon="15.22354414431488"><ele>926.0</ele><time>2026-04-26T12:49:41.999Z</time></trkpt><trkpt lat="38.06610227237283" lon="15.22344168622313"><ele>926.0000000000001</ele><time>2026-04-26T12:49:42.999Z</time></trkpt><trkpt lat="38.066103478209385" lon="15.223329757382274"><ele>926.0</ele><time>2026-04-26T12:49:43.999Z</time></trkpt><trkpt lat="38.06606992580767" lon="15.223216967264888"><ele>926.0</ele><time>2026-04-26T12:49:44.999Z</time></trkpt><trkpt lat="38.06602365228724" lon="15.223121462625134"><ele>926.0</ele><time>2026-04-26T12:49:45.999Z</time></trkpt><trkpt lat="38.06599618670202" lon="15.223044191547771"><ele>926.0000000000001</ele><time>2026-04-26T12:49:46.999Z</time></trkpt><trkpt lat="38.06601379495379" lon="15.22291492127598"><ele>926.0</ele><time>2026-04-26T12:49:48.999Z</time></trkpt><trkpt lat="38.066070126108926" lon="15.222865704129187"><ele>921.1999999999999</ele><time>2026-04-26T12:49:49.999Z</time></trkpt><trkpt lat="38.06614722839248" lon="15.22280650044488"><ele>916.3999999999999</ele><time>2026-04-26T12:49:50.999Z</time></trkpt><trkpt lat="38.066236734905935" lon="15.22274145711028"><ele>911.6</ele><time>2026-04-26T12:49:52Z</time></trkpt><trkpt lat="38.066308185108404" lon="15.222670099522528"><ele>906.8</ele><time>2026-04-26T12:49:53Z</time></trkpt><trkpt lat="38.066381338785014" lon="15.222598747629647"><ele>902.0</ele><time>2026-04-26T12:49:54Z</time></trkpt><trkpt lat="38.066480750520604" lon="15.222548496930738"><ele>902.0</ele><time>2026-04-26T12:49:55Z</time></trkpt><trkpt lat="38.066586129698095" lon="15.222541734827244"><ele>902.0</ele><time>2026-04-26T12:49:56Z</time></trkpt><trkpt lat="38.066700115583046" lon="15.22253191472439"><ele>902.0</ele><time>2026-04-26T12:49:57Z</time></trkpt><trkpt lat="38.06680362544415" lon="15.222493461263284"><ele>902.0</ele><time>2026-04-26T12:49:58Z</time></trkpt><trkpt lat="38.066903691683954" lon="15.222422280518916"><ele>902.0</ele><time>2026-04-26T12:49:59Z</time></trkpt><trkpt lat="38.06699340715114" lon="15.222389901734173"><ele>902.0000000000001</ele><time>2026-04-26T12:50:00Z</time></trkpt><trkpt lat="38.06707595710354" lon="15.222367913125092"><ele>902.0</ele><time>2026-04-26T12:50:01Z</time></trkpt><trkpt lat="38.06715072644313" lon="15.222327674882191"><ele>902.0</ele><time>2026-04-26T12:50:02Z</time></trkpt><trkpt lat="38.067214533853544" lon="15.222265827723797"><ele>902.0</ele><time>2026-04-26T12:50:03Z</time></trkpt><trkpt lat="38.06727585146561" lon="15.222185083512905"><ele>902.0000000000001</ele><time>2026-04-26T12:50:04Z</time></trkpt><trkpt lat="38.067315729089394" lon="15.22208552030053"><ele>902.0</ele><time>2026-04-26T12:50:05Z</time></trkpt><trkpt lat="38.06734760595028" lon="15.221989380106729"><ele>899.5714285714286</ele><time>2026-04-26T12:50:06Z</time></trkpt><trkpt lat="38.06736151149007" lon="15.2219027020805"><ele>897.1428571428572</ele><time>2026-04-26T12:50:07Z</time></trkpt><trkpt lat="38.067316966815795" lon="15.221825751201884"><ele>894.7142857142858</ele><time>2026-04-26T12:50:10Z</time></trkpt><trkpt lat="38.06725795717789" lon="15.221792492811453"><ele>892.2857142857142</ele><time>2026-04-26T12:50:11Z</time></trkpt><trkpt lat="38.06719711412831" lon="15.22172935145271"><ele>889.8571428571429</ele><time>2026-04-26T12:50:12Z</time></trkpt><trkpt lat="38.067150052245246" lon="15.221657905842454"><ele>887.4285714285714</ele><time>2026-04-26T12:50:13Z</time></trkpt><trkpt lat="38.06711380026402" lon="15.22157803050651"><ele>885.0</ele><time>2026-04-26T12:50:14Z</time></trkpt><trkpt lat="38.067096320836164" lon="15.221480450693855"><ele>878.6</ele><time>2026-04-26T12:50:15Z</time></trkpt><trkpt lat="38.06711095174231" lon="15.221376370561327"><ele>872.2</ele><time>2026-04-26T12:50:16Z</time></trkpt><trkpt lat="38.067161589078076" lon="15.221275962796307"><ele>865.8</ele><time>2026-04-26T12:50:17Z</time></trkpt><trkpt lat="38.06720507949909" lon="15.221141619819159"><ele>859.4</ele><time>2026-04-26T12:50:18Z</time></trkpt><trkpt lat="38.06722225361611" lon="15.221025930902377"><ele>853.0</ele><time>2026-04-26T12:50:19Z</time></trkpt><trkpt lat="38.06724735905721" lon="15.220926541260507"><ele>852.9999999999999</ele><time>2026-04-26T12:50:20Z</time></trkpt><trkpt lat="38.06724948849889" lon="15.22084149865923"><ele>853.0</ele><time>2026-04-26T12:50:21Z</time></trkpt><trkpt lat="38.067258517285445" lon="15.220756788086252"><ele>853.0</ele><time>2026-04-26T12:50:22Z</time></trkpt><trkpt lat="38.06729730157663" lon="15.220675468469135"><ele>853.0</ele><time>2026-04-26T12:50:23Z</time></trkpt><trkpt lat="38.06736712891609" lon="15.22064274165948"><ele>852.9999999999999</ele><time>2026-04-26T12:50:24Z</time></trkpt><trkpt lat="38.067456261029854" lon="15.220637169226778"><ele>853.0</ele><time>2026-04-26T12:50:25Z</time></trkpt><trkpt lat="38.06755729663225" lon="15.220674870541767"><ele>856.4999999999999</ele><time>2026-04-26T12:50:26Z</time></trkpt><trkpt lat="38.06763856047023" lon="15.22072877801871"><ele>860.0</ele><time>2026-04-26T12:50:27Z</time></trkpt><trkpt lat="38.06770004349671" lon="15.220790738654546"><ele>863.5</ele><time>2026-04-26T12:50:28Z</time></trkpt><trkpt lat="38.06775334919615" lon="15.220876043874124"><ele>867.0</ele><time>2026-04-26T12:50:29Z</time></trkpt><trkpt lat="38.0677766870468" lon="15.220975002103296"><ele>870.4999999999999</ele><time>2026-04-26T12:50:30Z</time></trkpt><trkpt lat="38.06775886251182" lon="15.221089899416508"><ele>874.0</ele><time>2026-04-26T12:50:31Z</time></trkpt><trkpt lat="38.0677058658708" lon="15.221178249415955"><ele>873.9999999999999</ele><time>2026-04-26T12:50:32Z</time></trkpt><trkpt lat="38.06762926550141" lon="15.221227324044284"><ele>874.0</ele><time>2026-04-26T12:50:33Z</time></trkpt><trkpt lat="38.0675541969116" lon="15.221267760839941"><ele>874.0</ele><time>2026-04-26T12:50:34Z</time></trkpt><trkpt lat="38.06754363085575" lon="15.221390285856144"><ele>874.0</ele><time>2026-04-26T12:50:36Z</time></trkpt><trkpt lat="38.067575614764955" lon="15.22147187501869"><ele>873.9999999999999</ele><time>2026-04-26T12:50:37Z</time></trkpt><trkpt lat="38.067632952344624" lon="15.221560575017543"><ele>874.0</ele><time>2026-04-26T12:50:38Z</time></trkpt><trkpt lat="38.06770538308572" lon="15.221610770851903"><ele>874.0</ele><time>2026-04-26T12:50:39Z</time></trkpt><trkpt lat="38.06778489938644" lon="15.22161200369673"><ele>874.0000000000001</ele><time>2026-04-26T12:50:40Z</time></trkpt><trkpt lat="38.06786503701701" lon="15.221588775727906"><ele>874.0000000000001</ele><time>2026-04-26T12:50:41Z</time></trkpt><trkpt lat="38.067967432939355" lon="15.221549267029381"><ele>874.0</ele><time>2026-04-26T12:50:42Z</time></trkpt><trkpt lat="38.068056936201415" lon="15.221509566151857"><ele>874.0</ele><time>2026-04-26T12:50:43Z</time></trkpt><trkpt lat="38.06814403739323" lon="15.221448371764994"><ele>873.9999999999999</ele><time>2026-04-26T12:50:44Z</time></trkpt><trkpt lat="38.06822075703163" lon="15.2213860490163"><ele>874.0</ele><time>2026-04-26T12:50:45Z</time></trkpt><trkpt lat="38.068310689847465" lon="15.221347774439"><ele>874.0</ele><time>2026-04-26T12:50:46Z</time></trkpt><trkpt lat="38.068376717985096" lon="15.221353613920261"><ele>874.0</ele><time>2026-04-26T12:50:47Z</time></trkpt><trkpt lat="38.068456179834065" lon="15.221346724832607"><ele>873.9999999999999</ele><time>2026-04-26T12:50:48Z</time></trkpt><trkpt lat="38.0685497027771" lon="15.22132866762955"><ele>874.0</ele><time>2026-04-26T12:50:49Z</time></trkpt><trkpt lat="38.068622361940946" lon="15.22132863446987"><ele>874.4999999999999</ele><time>2026-04-26T12:50:50Z</time></trkpt><trkpt lat="38.06870429515094" lon="15.221398212546372"><ele>875.0</ele><time>2026-04-26T12:50:51Z</time></trkpt><trkpt lat="38.06875802746805" lon="15.221464992740424"><ele>875.5</ele><time>2026-04-26T12:50:52Z</time></trkpt><trkpt lat="38.06880450193446" lon="15.221540156576513"><ele>876.0</ele><time>2026-04-26T12:50:53Z</time></trkpt><trkpt lat="38.06884433191043" lon="15.22162132610276"><ele>876.4999999999999</ele><time>2026-04-26T12:50:54Z</time></trkpt><trkpt lat="38.068898929258836" lon="15.221702533584144"><ele>877.0</ele><time>2026-04-26T12:50:55Z</time></trkpt><trkpt lat="38.068963801325076" lon="15.221802273474827"><ele>877.0000000000001</ele><time>2026-04-26T12:50:56Z</time></trkpt><trkpt lat="38.068994232253004" lon="15.221874825201226"><ele>877.0</ele><time>2026-04-26T12:50:57Z</time></trkpt><trkpt lat="38.06900335304995" lon="15.22196592762085"><ele>877.0</ele><time>2026-04-26T12:50:58Z</time></trkpt><trkpt lat="38.06899284703197" lon="15.22204614086957"><ele>877.0</ele><time>2026-04-26T12:50:59Z</time></trkpt><trkpt lat="38.06895526213099" lon="15.222128082000612"><ele>877.0</ele><time>2026-04-26T12:51:00Z</time></trkpt><trkpt lat="38.06890501140636" lon="15.222182577140488"><ele>877.0000000000001</ele><time>2026-04-26T12:51:01Z</time></trkpt><trkpt lat="38.06882573262185" lon="15.222206536733706"><ele>877.0</ele><time>2026-04-26T12:51:02Z</time></trkpt><trkpt lat="38.06875515322004" lon="15.22222765743307"><ele>876.9999999999999</ele><time>2026-04-26T12:51:03Z</time></trkpt><trkpt lat="38.06869020254985" lon="15.222226028793576"><ele>877.0</ele><time>2026-04-26T12:51:04Z</time></trkpt><trkpt lat="38.06861104316917" lon="15.222294828912494"><ele>877.0</ele><time>2026-04-26T12:51:06Z</time></trkpt><trkpt lat="38.06864910258227" lon="15.222414165257067"><ele>877.0</ele><time>2026-04-26T12:51:08Z</time></trkpt><trkpt lat="38.06871289377803" lon="15.222442516039038"><ele>876.9999999999999</ele><time>2026-04-26T12:51:09Z</time></trkpt><trkpt lat="38.06878971361707" lon="15.222434099536608"><ele>877.0</ele><time>2026-04-26T12:51:10Z</time></trkpt><trkpt lat="38.06886896093766" lon="15.222427191835829"><ele>874.2</ele><time>2026-04-26T12:51:11Z</time></trkpt><trkpt lat="38.06895455498113" lon="15.222424740871476"><ele>871.4000000000001</ele><time>2026-04-26T12:51:12Z</time></trkpt><trkpt lat="38.069043619404766" lon="15.222386395284941"><ele>868.5999999999999</ele><time>2026-04-26T12:51:13Z</time></trkpt><trkpt lat="38.069149695992394" lon="15.22232205769412"><ele>865.8</ele><time>2026-04-26T12:51:14Z</time></trkpt><trkpt lat="38.06923060533373" lon="15.222258716069554"><ele>863.0</ele><time>2026-04-26T12:51:15Z</time></trkpt><trkpt lat="38.069331738863326" lon="15.222200540346623"><ele>862.1666666666667</ele><time>2026-04-26T12:51:16Z</time></trkpt><trkpt lat="38.06941620974415" lon="15.22215941538544"><ele>861.3333333333334</ele><time>2026-04-26T12:51:17Z</time></trkpt><trkpt lat="38.06949069665803" lon="15.222109763038539"><ele>860.5</ele><time>2026-04-26T12:51:18Z</time></trkpt><trkpt lat="38.069572019084504" lon="15.222062126378477"><ele>859.6666666666667</ele><time>2026-04-26T12:51:19Z</time></trkpt><trkpt lat="38.06963491620459" lon="15.222021192737278"><ele>858.8333333333334</ele><time>2026-04-26T12:51:20Z</time></trkpt><trkpt lat="38.069717083025985" lon="15.221980862535839"><ele>858.0</ele><time>2026-04-26T12:51:21Z</time></trkpt><trkpt lat="38.069763002436545" lon="15.221835561813982"><ele>858.0</ele><time>2026-04-26T12:51:23Z</time></trkpt><trkpt lat="38.06969924639322" lon="15.221708140127838"><ele>858.0</ele><time>2026-04-26T12:51:25Z</time></trkpt><trkpt lat="38.06956465011055" lon="15.22163763138172"><ele>858.0</ele><time>2026-04-26T12:51:27Z</time></trkpt><trkpt lat="38.069470549184075" lon="15.22160457644544"><ele>858.0</ele><time>2026-04-26T12:51:28Z</time></trkpt><trkpt lat="38.0693780447251" lon="15.221566414646647"><ele>858.0</ele><time>2026-04-26T12:51:29Z</time></trkpt><trkpt lat="38.069308709939065" lon="15.221532386714353"><ele>858.0</ele><time>2026-04-26T12:51:29.999Z</time></trkpt><trkpt lat="38.069248200174805" lon="15.22140369801215"><ele>858.0</ele><time>2026-04-26T12:51:31.999Z</time></trkpt><trkpt lat="38.069256147677045" lon="15.221319224716614"><ele>858.0</ele><time>2026-04-26T12:51:32.999Z</time></trkpt><trkpt lat="38.06925189505532" lon="15.221109245044437"><ele>858.0</ele><time>2026-04-26T12:51:34.999Z</time></trkpt><trkpt lat="38.06927641187464" lon="15.22102225911532"><ele>857.2</ele><time>2026-04-26T12:51:35.999Z</time></trkpt><trkpt lat="38.0692659744029" lon="15.220927762108813"><ele>856.4</ele><time>2026-04-26T12:51:36.999Z</time></trkpt><trkpt lat="38.06922817317921" lon="15.220818524989078"><ele>855.6000000000001</ele><time>2026-04-26T12:51:37.999Z</time></trkpt><trkpt lat="38.069191268521614" lon="15.220718464324872"><ele>854.8000000000001</ele><time>2026-04-26T12:51:38.999Z</time></trkpt><trkpt lat="38.0691392607023" lon="15.220626580393647"><ele>854.0</ele><time>2026-04-26T12:51:39.999Z</time></trkpt><trkpt lat="38.06907472708027" lon="15.220522277085193"><ele>854.0</ele><time>2026-04-26T12:51:40.999Z</time></trkpt><trkpt lat="38.069035367528386" lon="15.220425070760802"><ele>854.0000000000001</ele><time>2026-04-26T12:51:41.999Z</time></trkpt><trkpt lat="38.0689943360124" lon="15.220336226579386"><ele>854.0000000000001</ele><time>2026-04-26T12:51:42.999Z</time></trkpt><trkpt lat="38.068965380672005" lon="15.220208411121913"><ele>854.0</ele><time>2026-04-26T12:51:44.999Z</time></trkpt><trkpt lat="38.06902938673709" lon="15.220089653357526"><ele>854.0</ele><time>2026-04-26T12:51:46.999Z</time></trkpt><trkpt lat="38.06914878020069" lon="15.220072349482125"><ele>852.6</ele><time>2026-04-26T12:51:48.999Z</time></trkpt><trkpt lat="38.0692020400664" lon="15.220129235260604"><ele>851.2</ele><time>2026-04-26T12:51:49.999Z</time></trkpt><trkpt lat="38.06925667239698" lon="15.220217367155218"><ele>849.8000000000001</ele><time>2026-04-26T12:51:50.999Z</time></trkpt><trkpt lat="38.069312141677855" lon="15.220301798868187"><ele>848.4000000000001</ele><time>2026-04-26T12:51:51.999Z</time></trkpt><trkpt lat="38.06940079725768" lon="15.2203552845811"><ele>847.0</ele><time>2026-04-26T12:51:52.999Z</time></trkpt><trkpt lat="38.06950259037865" lon="15.220423566220594"><ele>847.0</ele><time>2026-04-26T12:51:53.999Z</time></trkpt><trkpt lat="38.069582302032934" lon="15.220468727292605"><ele>847.0</ele><time>2026-04-26T12:51:54.999Z</time></trkpt><trkpt lat="38.06966983922649" lon="15.220529450058114"><ele>847.0</ele><time>2026-04-26T12:51:55.999Z</time></trkpt><trkpt lat="38.06976221734719" lon="15.220559522828728"><ele>847.0</ele><time>2026-04-26T12:51:56.999Z</time></trkpt><trkpt lat="38.06985382861208" lon="15.220570644316519"><ele>847.0</ele><time>2026-04-26T12:51:58.001Z</time></trkpt><trkpt lat="38.06998287343029" lon="15.220579692683778"><ele>845.3333333333333</ele><time>2026-04-26T12:51:59.001Z</time></trkpt><trkpt lat="38.07006139775142" lon="15.220581080566252"><ele>843.6666666666666</ele><time>2026-04-26T12:52:00Z</time></trkpt><trkpt lat="38.07013946857013" lon="15.220604958003891"><ele>842.0</ele><time>2026-04-26T12:52:01.001Z</time></trkpt><trkpt lat="38.0702140124231" lon="15.220637111538421"><ele>840.3333333333333</ele><time>2026-04-26T12:52:02.001Z</time></trkpt><trkpt lat="38.07032021332486" lon="15.22060630615282"><ele>838.6666666666666</ele><time>2026-04-26T12:52:04Z</time></trkpt><trkpt lat="38.070348676741816" lon="15.220532946771268"><ele>837.0</ele><time>2026-04-26T12:52:05.001Z</time></trkpt><trkpt lat="38.07037346640941" lon="15.220420568080169"><ele>837.0</ele><time>2026-04-26T12:52:06Z</time></trkpt><trkpt lat="38.07041565400596" lon="15.220295390953122"><ele>837.0</ele><time>2026-04-26T12:52:07Z</time></trkpt><trkpt lat="38.07043383737628" lon="15.220195214497043"><ele>837.0</ele><time>2026-04-26T12:52:08Z</time></trkpt><trkpt lat="38.07039459603464" lon="15.22006348073881"><ele>837.0</ele><time>2026-04-26T12:52:10Z</time></trkpt><trkpt lat="38.07024795089043" lon="15.219976856406966"><ele>837.0</ele><time>2026-04-26T12:52:12Z</time></trkpt><trkpt lat="38.07020200657543" lon="15.219893464963334"><ele>837.0</ele><time>2026-04-26T12:52:13Z</time></trkpt><trkpt lat="38.070160778414085" lon="15.219803347739447"><ele>837.0</ele><time>2026-04-26T12:52:14Z</time></trkpt><trkpt lat="38.070186508369055" lon="15.219688821140013"><ele>837.0</ele><time>2026-04-26T12:52:15Z</time></trkpt><trkpt lat="38.07021002902245" lon="15.2195892522535"><ele>837.0</ele><time>2026-04-26T12:52:16Z</time></trkpt><trkpt lat="38.07022577939152" lon="15.21949066689447"><ele>837.0</ele><time>2026-04-26T12:52:17Z</time></trkpt><trkpt lat="38.07017937553421" lon="15.219330719441311"><ele>836.8333333333334</ele><time>2026-04-26T12:52:19Z</time></trkpt><trkpt lat="38.07012009554808" lon="15.21927293662834"><ele>836.6666666666667</ele><time>2026-04-26T12:52:20Z</time></trkpt><trkpt lat="38.07012314747619" lon="15.219125820619562"><ele>836.5</ele><time>2026-04-26T12:52:22Z</time></trkpt><trkpt lat="38.07017452029461" lon="15.219061625909228"><ele>836.3333333333334</ele><time>2026-04-26T12:52:23Z</time></trkpt><trkpt lat="38.07024138821153" lon="15.21902012133945"><ele>836.1666666666667</ele><time>2026-04-26T12:52:24Z</time></trkpt><trkpt lat="38.07032460650686" lon="15.219005672575005"><ele>836.0</ele><time>2026-04-26T12:52:25Z</time></trkpt><trkpt lat="38.07042369729045" lon="15.218982808300709"><ele>835.3333333333334</ele><time>2026-04-26T12:52:26Z</time></trkpt><trkpt lat="38.07053586693633" lon="15.218967973159412"><ele>834.6666666666667</ele><time>2026-04-26T12:52:27Z</time></trkpt><trkpt lat="38.070628911172584" lon="15.21893665306511"><ele>834.0</ele><time>2026-04-26T12:52:28Z</time></trkpt><trkpt lat="38.070716230695396" lon="15.218914002770525"><ele>833.3333333333333</ele><time>2026-04-26T12:52:29Z</time></trkpt><trkpt lat="38.070778069059806" lon="15.218880556965422"><ele>832.6666666666666</ele><time>2026-04-26T12:52:30Z</time></trkpt><trkpt lat="38.07082785536651" lon="15.218802677654022"><ele>832.0</ele><time>2026-04-26T12:52:31Z</time></trkpt><trkpt lat="38.07086460103264" lon="15.218678824319905"><ele>828.0</ele><time>2026-04-26T12:52:32Z</time></trkpt><trkpt lat="38.070915797300025" lon="15.21857984277399"><ele>824.0</ele><time>2026-04-26T12:52:33Z</time></trkpt><trkpt lat="38.07097771957864" lon="15.218514494352373"><ele>820.0</ele><time>2026-04-26T12:52:34Z</time></trkpt><trkpt lat="38.07097958463446" lon="15.218419968757393"><ele>816.0</ele><time>2026-04-26T12:52:37Z</time></trkpt><trkpt lat="38.07093380893562" lon="15.218309534470901"><ele>812.0</ele><time>2026-04-26T12:52:39Z</time></trkpt><trkpt lat="38.07085394746367" lon="15.218226037549275"><ele>812.0000000000001</ele><time>2026-04-26T12:53:03Z</time></trkpt><trkpt lat="38.0708221945187" lon="15.218155892078583"><ele>812.0</ele><time>2026-04-26T12:53:04Z</time></trkpt><trkpt lat="38.07080083664714" lon="15.218053886706803"><ele>812.0</ele><time>2026-04-26T12:53:05Z</time></trkpt><trkpt lat="38.07080083959712" lon="15.217915569665156"><ele>812.0</ele><time>2026-04-26T12:53:07Z</time></trkpt><trkpt lat="38.070853580236474" lon="15.217836436425507"><ele>812.0000000000001</ele><time>2026-04-26T12:53:08Z</time></trkpt><trkpt lat="38.070923578031106" lon="15.21779076808713"><ele>812.0</ele><time>2026-04-26T12:53:09Z</time></trkpt><trkpt lat="38.070989562024444" lon="15.217725856265004"><ele>812.6666666666667</ele><time>2026-04-26T12:53:10Z</time></trkpt><trkpt lat="38.07104756645906" lon="15.217664901830934"><ele>813.3333333333334</ele><time>2026-04-26T12:53:11Z</time></trkpt><trkpt lat="38.071109241883434" lon="15.217614282877806"><ele>814.0</ele><time>2026-04-26T12:53:12Z</time></trkpt><trkpt lat="38.07123657801586" lon="15.217588900270483"><ele>814.6666666666667</ele><time>2026-04-26T12:53:14Z</time></trkpt><trkpt lat="38.071307919136174" lon="15.217566395590275"><ele>815.3333333333334</ele><time>2026-04-26T12:53:15Z</time></trkpt><trkpt lat="38.071381300777084" lon="15.21757145670938"><ele>816.0</ele><time>2026-04-26T12:53:16Z</time></trkpt><trkpt lat="38.07151340979389" lon="15.217569350323789"><ele>816.0</ele><time>2026-04-26T12:53:18Z</time></trkpt><trkpt lat="38.071592053863334" lon="15.217557693650324"><ele>816.0</ele><time>2026-04-26T12:53:19Z</time></trkpt><trkpt lat="38.071677907063446" lon="15.217569250857746"><ele>816.0</ele><time>2026-04-26T12:53:20Z</time></trkpt><trkpt lat="38.07175337425927" lon="15.21762882338266"><ele>816.0</ele><time>2026-04-26T12:53:21Z</time></trkpt><trkpt lat="38.07182066700081" lon="15.217671959573103"><ele>816.0</ele><time>2026-04-26T12:53:22Z</time></trkpt><trkpt lat="38.07188966612043" lon="15.217673295381784"><ele>816.0</ele><time>2026-04-26T12:53:23Z</time></trkpt><trkpt lat="38.07195616340801" lon="15.21765008899595"><ele>813.1666666666666</ele><time>2026-04-26T12:53:24Z</time></trkpt><trkpt lat="38.07204222453158" lon="15.217628420360683"><ele>810.3333333333333</ele><time>2026-04-26T12:53:25Z</time></trkpt><trkpt lat="38.072124228877065" lon="15.217606233569555"><ele>807.5</ele><time>2026-04-26T12:53:26Z</time></trkpt><trkpt lat="38.07220120663768" lon="15.217575472541922"><ele>804.6666666666666</ele><time>2026-04-26T12:53:27Z</time></trkpt><trkpt lat="38.07226952629601" lon="15.217522105152145"><ele>801.8333333333333</ele><time>2026-04-26T12:53:28Z</time></trkpt><trkpt lat="38.07232980857186" lon="15.21744696135323"><ele>799.0</ele><time>2026-04-26T12:53:29Z</time></trkpt><trkpt lat="38.072379891339864" lon="15.217350625148585"><ele>800.2</ele><time>2026-04-26T12:53:30Z</time></trkpt><trkpt lat="38.07243428835856" lon="15.217256706095894"><ele>801.4000000000001</ele><time>2026-04-26T12:53:31Z</time></trkpt><trkpt lat="38.07250503661279" lon="15.217179047453085"><ele>802.6</ele><time>2026-04-26T12:53:32Z</time></trkpt><trkpt lat="38.072589179311315" lon="15.217083346360484"><ele>803.8</ele><time>2026-04-26T12:53:33Z</time></trkpt><trkpt lat="38.072657756728745" lon="15.21700622495744"><ele>805.0</ele><time>2026-04-26T12:53:34Z</time></trkpt><trkpt lat="38.072725059810814" lon="15.216921047181826"><ele>802.6666666666666</ele><time>2026-04-26T12:53:35Z</time></trkpt><trkpt lat="38.07279869835505" lon="15.216852842789743"><ele>800.3333333333333</ele><time>2026-04-26T12:53:35.999Z</time></trkpt><trkpt lat="38.072853081244354" lon="15.216762334565047"><ele>798.0</ele><time>2026-04-26T12:53:36.999Z</time></trkpt><trkpt lat="38.072869671596294" lon="15.216675356066846"><ele>795.6666666666667</ele><time>2026-04-26T12:53:37.999Z</time></trkpt><trkpt lat="38.072893083180595" lon="15.21657537421044"><ele>793.3333333333334</ele><time>2026-04-26T12:53:38.999Z</time></trkpt><trkpt lat="38.072893166126626" lon="15.216468457895324"><ele>791.0</ele><time>2026-04-26T12:53:39.999Z</time></trkpt><trkpt lat="38.07288076386048" lon="15.216346414251449"><ele>789.1666666666667</ele><time>2026-04-26T12:53:40.999Z</time></trkpt><trkpt lat="38.072873837641495" lon="15.21624699215295"><ele>787.3333333333334</ele><time>2026-04-26T12:53:41.999Z</time></trkpt><trkpt lat="38.072859545893" lon="15.216134221837265"><ele>785.5</ele><time>2026-04-26T12:53:42.999Z</time></trkpt><trkpt lat="38.072864171225405" lon="15.216011899099668"><ele>783.6666666666667</ele><time>2026-04-26T12:53:43.999Z</time></trkpt><trkpt lat="38.0728820782801" lon="15.215913545666767"><ele>781.8333333333334</ele><time>2026-04-26T12:53:44.999Z</time></trkpt><trkpt lat="38.072898519343134" lon="15.215816075680827"><ele>780.0</ele><time>2026-04-26T12:53:45.999Z</time></trkpt><trkpt lat="38.07286905992034" lon="15.215655020708276"><ele>771.75</ele><time>2026-04-26T12:53:47.999Z</time></trkpt><trkpt lat="38.07276358557077" lon="15.215558708708391"><ele>763.5</ele><time>2026-04-26T12:53:49.998Z</time></trkpt><trkpt lat="38.07263029006689" lon="15.215503554401836"><ele>755.25</ele><time>2026-04-26T12:53:51.998Z</time></trkpt><trkpt lat="38.07255151872486" lon="15.215477837715106"><ele>747.0</ele><time>2026-04-26T12:53:52.998Z</time></trkpt><trkpt lat="38.072447035804174" lon="15.21544811072964"><ele>747.8</ele><time>2026-04-26T12:53:53.998Z</time></trkpt><trkpt lat="38.07235765250651" lon="15.215413637695768"><ele>748.6</ele><time>2026-04-26T12:53:54.998Z</time></trkpt><trkpt lat="38.07225725733615" lon="15.215380283255845"><ele>749.4</ele><time>2026-04-26T12:53:55.998Z</time></trkpt><trkpt lat="38.07216218266173" lon="15.215350605411382"><ele>750.1999999999999</ele><time>2026-04-26T12:53:56.998Z</time></trkpt><trkpt lat="38.07207241405794" lon="15.215342580794179"><ele>751.0</ele><time>2026-04-26T12:53:57.998Z</time></trkpt><trkpt lat="38.07197198673873" lon="15.215335361297756"><ele>751.0</ele><time>2026-04-26T12:53:58.998Z</time></trkpt><trkpt lat="38.071888881104066" lon="15.215328881406856"><ele>751.0</ele><time>2026-04-26T12:53:59.998Z</time></trkpt><trkpt lat="38.07181034210582" lon="15.215343393874106"><ele>751.0</ele><time>2026-04-26T12:54:00.998Z</time></trkpt><trkpt lat="38.07172133430963" lon="15.215373730462444"><ele>751.0</ele><time>2026-04-26T12:54:01.998Z</time></trkpt><trkpt lat="38.07163503525132" lon="15.215393429960313"><ele>751.0</ele><time>2026-04-26T12:54:02.998Z</time></trkpt><trkpt lat="38.0715480697031" lon="15.21535406188682"><ele>751.0</ele><time>2026-04-26T12:54:04Z</time></trkpt><trkpt lat="38.07147128290036" lon="15.215286207669621"><ele>753.0</ele><time>2026-04-26T12:54:05Z</time></trkpt><trkpt lat="38.07139295045805" lon="15.215220308865748"><ele>755.0</ele><time>2026-04-26T12:54:06Z</time></trkpt><trkpt lat="38.07129014814902" lon="15.21515668582906"><ele>757.0</ele><time>2026-04-26T12:54:07Z</time></trkpt><trkpt lat="38.07119326987873" lon="15.215089318713751"><ele>759.0</ele><time>2026-04-26T12:54:08Z</time></trkpt><trkpt lat="38.07110899046619" lon="15.215001038684662"><ele>761.0</ele><time>2026-04-26T12:54:09Z</time></trkpt><trkpt lat="38.07103378694047" lon="15.214914160424101"><ele>761.0</ele><time>2026-04-26T12:54:10Z</time></trkpt><trkpt lat="38.07096221015827" lon="15.214827455068988"><ele>761.0</ele><time>2026-04-26T12:54:11Z</time></trkpt><trkpt lat="38.070889116131944" lon="15.214757824809233"><ele>761.0</ele><time>2026-04-26T12:54:12Z</time></trkpt><trkpt lat="38.07081570187164" lon="15.214715671623594"><ele>761.0</ele><time>2026-04-26T12:54:13Z</time></trkpt><trkpt lat="38.07074878858275" lon="15.214695877756359"><ele>761.0</ele><time>2026-04-26T12:54:14Z</time></trkpt><trkpt lat="38.07066397140725" lon="15.214707182287121"><ele>761.0</ele><time>2026-04-26T12:54:15Z</time></trkpt><trkpt lat="38.07058016894782" lon="15.214724209047667"><ele>754.8</ele><time>2026-04-26T12:54:16Z</time></trkpt><trkpt lat="38.07048320909632" lon="15.214722931066563"><ele>748.5999999999999</ele><time>2026-04-26T12:54:17Z</time></trkpt><trkpt lat="38.07039369056108" lon="15.214676372386043"><ele>742.4</ele><time>2026-04-26T12:54:18Z</time></trkpt><trkpt lat="38.07032946840452" lon="15.214583569943093"><ele>736.2</ele><time>2026-04-26T12:54:19Z</time></trkpt><trkpt lat="38.07027891602454" lon="15.214489706849882"><ele>730.0</ele><time>2026-04-26T12:54:20Z</time></trkpt><trkpt lat="38.070253162873954" lon="15.214408141067274"><ele>730.0</ele><time>2026-04-26T12:54:20.999Z</time></trkpt><trkpt lat="38.070265268135756" lon="15.214285135750185"><ele>730.0</ele><time>2026-04-26T12:54:22.999Z</time></trkpt><trkpt lat="38.07038176023253" lon="15.214246106246893"><ele>730.0</ele><time>2026-04-26T12:54:24.999Z</time></trkpt><trkpt lat="38.070484801306115" lon="15.214284816625913"><ele>730.0</ele><time>2026-04-26T12:54:26.999Z</time></trkpt><trkpt lat="38.070531203605974" lon="15.21435387682903"><ele>730.0</ele><time>2026-04-26T12:54:27.999Z</time></trkpt><trkpt lat="38.07057989625036" lon="15.214447675807522"><ele>730.0</ele><time>2026-04-26T12:54:28.999Z</time></trkpt><trkpt lat="38.07063365474009" lon="15.214528981282196"><ele>730.0</ele><time>2026-04-26T12:54:29.999Z</time></trkpt><trkpt lat="38.07069185599529" lon="15.214561947162466"><ele>730.0</ele><time>2026-04-26T12:54:30.999Z</time></trkpt><trkpt lat="38.070819313519486" lon="15.214491167325559"><ele>730.0</ele><time>2026-04-26T12:54:32.999Z</time></trkpt><trkpt lat="38.07088525011411" lon="15.214434320335092"><ele>730.0</ele><time>2026-04-26T12:54:33.999Z</time></trkpt><trkpt lat="38.07095202378138" lon="15.214407978339937"><ele>730.0</ele><time>2026-04-26T12:54:34.999Z</time></trkpt><trkpt lat="38.07103419231435" lon="15.214424343013352"><ele>730.6</ele><time>2026-04-26T12:54:35.999Z</time></trkpt><trkpt lat="38.07112399382107" lon="15.214445937003093"><ele>731.2</ele><time>2026-04-26T12:54:36.999Z</time></trkpt><trkpt lat="38.07121415402607" lon="15.21449662607154"><ele>731.8</ele><time>2026-04-26T12:54:37.999Z</time></trkpt><trkpt lat="38.0712995234909" lon="15.214540355939352"><ele>732.4</ele><time>2026-04-26T12:54:38.999Z</time></trkpt><trkpt lat="38.071387269594084" lon="15.214584615640812"><ele>733.0</ele><time>2026-04-26T12:54:39.999Z</time></trkpt><trkpt lat="38.07145790172919" lon="15.214624757518584"><ele>733.0</ele><time>2026-04-26T12:54:40.999Z</time></trkpt><trkpt lat="38.071516209145436" lon="15.214672146581409"><ele>733.0</ele><time>2026-04-26T12:54:41.999Z</time></trkpt><trkpt lat="38.07156213585349" lon="15.214741231686757"><ele>733.0</ele><time>2026-04-26T12:54:42.999Z</time></trkpt><trkpt lat="38.07159450639994" lon="15.214880719485679"><ele>733.0</ele><time>2026-04-26T12:54:44.999Z</time></trkpt><trkpt lat="38.07169245205315" lon="15.214898987429537"><ele>733.0</ele><time>2026-04-26T12:54:46.999Z</time></trkpt><trkpt lat="38.07174799297744" lon="15.214860247249183"><ele>733.0</ele><time>2026-04-26T12:54:47.999Z</time></trkpt><trkpt lat="38.07178361264266" lon="15.214787931306532"><ele>730.8333333333334</ele><time>2026-04-26T12:54:48.999Z</time></trkpt><trkpt lat="38.071823789613006" lon="15.214705808108784"><ele>728.6666666666667</ele><time>2026-04-26T12:54:49.999Z</time></trkpt><trkpt lat="38.0718798494572" lon="15.214637397653325"><ele>726.5</ele><time>2026-04-26T12:54:50.999Z</time></trkpt><trkpt lat="38.07194802374903" lon="15.214609071839819"><ele>724.3333333333334</ele><time>2026-04-26T12:54:51.999Z</time></trkpt><trkpt lat="38.0720268742696" lon="15.214600982642105"><ele>722.1666666666666</ele><time>2026-04-26T12:54:52.999Z</time></trkpt><trkpt lat="38.07211892949517" lon="15.214607889281107"><ele>720.0</ele><time>2026-04-26T12:54:53.999Z</time></trkpt><trkpt lat="38.07222020864195" lon="15.214623114636916"><ele>720.0</ele><time>2026-04-26T12:54:54.999Z</time></trkpt><trkpt lat="38.07231702048695" lon="15.214631510800816"><ele>720.0</ele><time>2026-04-26T12:54:55.999Z</time></trkpt><trkpt lat="38.07241073505421" lon="15.214620441939145"><ele>720.0</ele><time>2026-04-26T12:54:56.999Z</time></trkpt><trkpt lat="38.072503950249164" lon="15.214598965592238"><ele>720.0</ele><time>2026-04-26T12:54:57.999Z</time></trkpt><trkpt lat="38.07261229157243" lon="15.214596024689897"><ele>720.0</ele><time>2026-04-26T12:54:58.999Z</time></trkpt><trkpt lat="38.07272240030625" lon="15.214620033717182"><ele>718.0</ele><time>2026-04-26T12:54:59.999Z</time></trkpt><trkpt lat="38.07283236889019" lon="15.214652323804744"><ele>716.0</ele><time>2026-04-26T12:55:00.999Z</time></trkpt><trkpt lat="38.07293509022544" lon="15.214677126204053"><ele>714.0</ele><time>2026-04-26T12:55:01.999Z</time></trkpt><trkpt lat="38.07302986192132" lon="15.214693513598558"><ele>712.0</ele><time>2026-04-26T12:55:02.999Z</time></trkpt><trkpt lat="38.07314039241791" lon="15.21472129392685"><ele>710.0</ele><time>2026-04-26T12:55:03.999Z</time></trkpt><trkpt lat="38.07322311932671" lon="15.214755125971331"><ele>711.6</ele><time>2026-04-26T12:55:04.999Z</time></trkpt><trkpt lat="38.073312022088004" lon="15.214800379137566"><ele>713.2</ele><time>2026-04-26T12:55:05.999Z</time></trkpt><trkpt lat="38.07338651589974" lon="15.214868327849812"><ele>714.8</ele><time>2026-04-26T12:55:06.999Z</time></trkpt><trkpt lat="38.0734533131306" lon="15.214946750469855"><ele>716.4</ele><time>2026-04-26T12:55:07.999Z</time></trkpt><trkpt lat="38.07351506689085" lon="15.215039275116357"><ele>718.0</ele><time>2026-04-26T12:55:08.999Z</time></trkpt><trkpt lat="38.0735847963217" lon="15.215146743676453"><ele>718.0</ele><time>2026-04-26T12:55:09.999Z</time></trkpt><trkpt lat="38.07365303453783" lon="15.215277123038408"><ele>718.0</ele><time>2026-04-26T12:55:10.999Z</time></trkpt><trkpt lat="38.07371548691954" lon="15.215400990056638"><ele>718.0</ele><time>2026-04-26T12:55:11.999Z</time></trkpt><trkpt lat="38.07379152531234" lon="15.215515051500555"><ele>718.0</ele><time>2026-04-26T12:55:12.999Z</time></trkpt><trkpt lat="38.073874436846275" lon="15.215619936187235"><ele>725.75</ele><time>2026-04-26T12:55:13.999Z</time></trkpt><trkpt lat="38.07394944110007" lon="15.215741235666874"><ele>733.5</ele><time>2026-04-26T12:55:14.999Z</time></trkpt><trkpt lat="38.07400000283418" lon="15.215874213901662"><ele>741.25</ele><time>2026-04-26T12:55:15.999Z</time></trkpt><trkpt lat="38.074047536368774" lon="15.21600618088026"><ele>749.0</ele><time>2026-04-26T12:55:16.999Z</time></trkpt><trkpt lat="38.07410391332432" lon="15.216128906965858"><ele>742.0</ele><time>2026-04-26T12:55:17.999Z</time></trkpt><trkpt lat="38.074148047067595" lon="15.21624483461539"><ele>735.0</ele><time>2026-04-26T12:55:18.999Z</time></trkpt><trkpt lat="38.07417679747966" lon="15.216360397998727"><ele>728.0</ele><time>2026-04-26T12:55:19.999Z</time></trkpt><trkpt lat="38.07418405779363" lon="15.216478864382605"><ele>721.0</ele><time>2026-04-26T12:55:20.999Z</time></trkpt><trkpt lat="38.074184851545226" lon="15.216601313382727"><ele>714.0</ele><time>2026-04-26T12:55:21.999Z</time></trkpt><trkpt lat="38.07417926237841" lon="15.216713423858293"><ele>714.0</ele><time>2026-04-26T12:55:22.999Z</time></trkpt><trkpt lat="38.07416370877595" lon="15.216830545973274"><ele>714.0</ele><time>2026-04-26T12:55:23.999Z</time></trkpt><trkpt lat="38.07412529288358" lon="15.216944573110913"><ele>714.0</ele><time>2026-04-26T12:55:24.999Z</time></trkpt><trkpt lat="38.07409956516809" lon="15.217054387218324"><ele>714.0</ele><time>2026-04-26T12:55:25.999Z</time></trkpt><trkpt lat="38.074081560535575" lon="15.217177525236142"><ele>714.0</ele><time>2026-04-26T12:55:26.999Z</time></trkpt><trkpt lat="38.07409189853335" lon="15.217295877085768"><ele>714.4000000000001</ele><time>2026-04-26T12:55:27.999Z</time></trkpt><trkpt lat="38.07408189417385" lon="15.217392454271042"><ele>714.8</ele><time>2026-04-26T12:55:28.999Z</time></trkpt><trkpt lat="38.0740815695786" lon="15.217473464751704"><ele>715.2</ele><time>2026-04-26T12:55:29.999Z</time></trkpt><trkpt lat="38.07407648501186" lon="15.21756363074741"><ele>715.5999999999999</ele><time>2026-04-26T12:55:30.999Z</time></trkpt><trkpt lat="38.07415210502877" lon="15.217646729680848"><ele>716.0</ele><time>2026-04-26T12:55:32.999Z</time></trkpt><trkpt lat="38.07428438659376" lon="15.217588285340467"><ele>716.0</ele><time>2026-04-26T12:55:34.999Z</time></trkpt><trkpt lat="38.074322602561686" lon="15.217505918026005"><ele>716.0</ele><time>2026-04-26T12:55:35.999Z</time></trkpt><trkpt lat="38.07433593083532" lon="15.217409221241263"><ele>716.0</ele><time>2026-04-26T12:55:36.999Z</time></trkpt><trkpt lat="38.074321384283074" lon="15.217282233591826"><ele>716.0</ele><time>2026-04-26T12:55:37.999Z</time></trkpt><trkpt lat="38.07430618964799" lon="15.217159228958153"><ele>716.0</ele><time>2026-04-26T12:55:38.999Z</time></trkpt><trkpt lat="38.074287072485774" lon="15.217010914108238"><ele>715.5999999999999</ele><time>2026-04-26T12:55:39.999Z</time></trkpt><trkpt lat="38.0743196043" lon="15.216875209922646"><ele>715.2</ele><time>2026-04-26T12:55:40.999Z</time></trkpt><trkpt lat="38.0743600043697" lon="15.21675483983645"><ele>714.8</ele><time>2026-04-26T12:55:41.999Z</time></trkpt><trkpt lat="38.074387923805794" lon="15.216626646930992"><ele>714.4000000000001</ele><time>2026-04-26T12:55:42.999Z</time></trkpt><trkpt lat="38.074414553894876" lon="15.216521951939754"><ele>714.0</ele><time>2026-04-26T12:55:43.999Z</time></trkpt><trkpt lat="38.07441746694928" lon="15.216401893053048"><ele>711.6</ele><time>2026-04-26T12:55:44.999Z</time></trkpt><trkpt lat="38.07440296378962" lon="15.216257929037438"><ele>709.2</ele><time>2026-04-26T12:55:45.998Z</time></trkpt><trkpt lat="38.07441934560256" lon="15.21614017933116"><ele>706.8000000000001</ele><time>2026-04-26T12:55:46.998Z</time></trkpt><trkpt lat="38.074444359659964" lon="15.216016421760722"><ele>704.4000000000001</ele><time>2026-04-26T12:55:47.998Z</time></trkpt><trkpt lat="38.074444332570685" lon="15.215880764567355"><ele>702.0</ele><time>2026-04-26T12:55:48.998Z</time></trkpt><trkpt lat="38.074423877512096" lon="15.215759571098548"><ele>696.6</ele><time>2026-04-26T12:55:49.998Z</time></trkpt><trkpt lat="38.074407979765944" lon="15.215652895548349"><ele>691.2</ele><time>2026-04-26T12:55:50.998Z</time></trkpt><trkpt lat="38.07439010123538" lon="15.215513775926441"><ele>685.8</ele><time>2026-04-26T12:55:51.998Z</time></trkpt><trkpt lat="38.07437064204663" lon="15.215397432207723"><ele>680.4</ele><time>2026-04-26T12:55:52.998Z</time></trkpt><trkpt lat="38.074330915211924" lon="15.215292604142006"><ele>675.0</ele><time>2026-04-26T12:55:53.998Z</time></trkpt><trkpt lat="38.07428133478908" lon="15.2151812471001"><ele>675.0</ele><time>2026-04-26T12:55:54.998Z</time></trkpt><trkpt lat="38.07424535174316" lon="15.215066226210604"><ele>675.0</ele><time>2026-04-26T12:55:55.998Z</time></trkpt><trkpt lat="38.07421087644909" lon="15.214962275498298"><ele>675.0</ele><time>2026-04-26T12:55:56.998Z</time></trkpt><trkpt lat="38.07415954458276" lon="15.21485577975396"><ele>675.0</ele><time>2026-04-26T12:55:57.998Z</time></trkpt><trkpt lat="38.07410164947057" lon="15.214750399592612"><ele>675.0</ele><time>2026-04-26T12:55:58.998Z</time></trkpt><trkpt lat="38.07405184767631" lon="15.214647074094799"><ele>675.6666666666666</ele><time>2026-04-26T12:55:59.998Z</time></trkpt><trkpt lat="38.07399164163818" lon="15.21454146094207"><ele>676.3333333333334</ele><time>2026-04-26T12:56:00.998Z</time></trkpt><trkpt lat="38.07393189685771" lon="15.214443320558065"><ele>677.0</ele><time>2026-04-26T12:56:01.998Z</time></trkpt><trkpt lat="38.07387916259739" lon="15.214354098391816"><ele>677.6666666666667</ele><time>2026-04-26T12:56:02.998Z</time></trkpt><trkpt lat="38.07383227607752" lon="15.214276960476859"><ele>678.3333333333334</ele><time>2026-04-26T12:56:03.998Z</time></trkpt><trkpt lat="38.0737851042355" lon="15.214219462069122"><ele>679.0</ele><time>2026-04-26T12:56:04.998Z</time></trkpt><trkpt lat="38.07372368756899" lon="15.214195142201104"><ele>679.0</ele><time>2026-04-26T12:56:05.998Z</time></trkpt><trkpt lat="38.07362855118129" lon="15.214183622885601"><ele>679.0</ele><time>2026-04-26T12:56:06.998Z</time></trkpt><trkpt lat="38.07352924612803" lon="15.214156003658053"><ele>679.0</ele><time>2026-04-26T12:56:07.998Z</time></trkpt><trkpt lat="38.07343083166447" lon="15.214089018948265"><ele>679.0</ele><time>2026-04-26T12:56:08.998Z</time></trkpt><trkpt lat="38.07334426287861" lon="15.214019791141524"><ele>679.0</ele><time>2026-04-26T12:56:10Z</time></trkpt><trkpt lat="38.07325419860546" lon="15.213949674041592"><ele>677.6</ele><time>2026-04-26T12:56:11Z</time></trkpt><trkpt lat="38.0731809909676" lon="15.213861227085127"><ele>676.2</ele><time>2026-04-26T12:56:12Z</time></trkpt><trkpt lat="38.07311661675634" lon="15.213761675251918"><ele>674.8000000000001</ele><time>2026-04-26T12:56:13Z</time></trkpt><trkpt lat="38.073063790845296" lon="15.213671330000182"><ele>673.4000000000001</ele><time>2026-04-26T12:56:14Z</time></trkpt><trkpt lat="38.073021427133845" lon="15.213582284191059"><ele>672.0</ele><time>2026-04-26T12:56:15Z</time></trkpt><trkpt lat="38.072965452671845" lon="15.213480280514904"><ele>672.0</ele><time>2026-04-26T12:56:16Z</time></trkpt><trkpt lat="38.072899793080026" lon="15.213412089719839"><ele>672.0</ele><time>2026-04-26T12:56:17Z</time></trkpt><trkpt lat="38.07282889762058" lon="15.213371988068284"><ele>672.0</ele><time>2026-04-26T12:56:18Z</time></trkpt><trkpt lat="38.07276093611325" lon="15.213327091372067"><ele>672.0</ele><time>2026-04-26T12:56:19Z</time></trkpt><trkpt lat="38.07271547705101" lon="15.213254549841352"><ele>672.0</ele><time>2026-04-26T12:56:21Z</time></trkpt><trkpt lat="38.07276828357453" lon="15.213185203111603"><ele>672.0</ele><time>2026-04-26T12:56:23Z</time></trkpt><trkpt lat="38.07286311967527" lon="15.213224944264105"><ele>672.0</ele><time>2026-04-26T12:56:25Z</time></trkpt><trkpt lat="38.072919827441744" lon="15.213282335153977"><ele>672.0</ele><time>2026-04-26T12:56:26Z</time></trkpt><trkpt lat="38.07299327539335" lon="15.213349110308748"><ele>672.0</ele><time>2026-04-26T12:56:27Z</time></trkpt><trkpt lat="38.073080845624226" lon="15.213415979120995"><ele>672.0</ele><time>2026-04-26T12:56:28Z</time></trkpt><trkpt lat="38.07316483464924" lon="15.213479807576999"><ele>672.0</ele><time>2026-04-26T12:56:29Z</time></trkpt><trkpt lat="38.07325944482316" lon="15.213516101240222"><ele>666.0</ele><time>2026-04-26T12:56:30Z</time></trkpt><trkpt lat="38.0733418329776" lon="15.213534597660992"><ele>660.0</ele><time>2026-04-26T12:56:31Z</time></trkpt><trkpt lat="38.073445664357564" lon="15.213557324566292"><ele>654.0</ele><time>2026-04-26T12:56:32Z</time></trkpt><trkpt lat="38.07353544046264" lon="15.213575035863911"><ele>648.0</ele><time>2026-04-26T12:56:32.999Z</time></trkpt><trkpt lat="38.07363378843168" lon="15.213585927505747"><ele>642.0</ele><time>2026-04-26T12:56:33.999Z</time></trkpt><trkpt lat="38.073718295451684" lon="15.213618057551422"><ele>642.0</ele><time>2026-04-26T12:56:34.999Z</time></trkpt><trkpt lat="38.07380664283179" lon="15.213641274849554"><ele>642.0</ele><time>2026-04-26T12:56:35.999Z</time></trkpt><trkpt lat="38.07387204441951" lon="15.21368799473956"><ele>642.0</ele><time>2026-04-26T12:56:36.999Z</time></trkpt><trkpt lat="38.07393569631282" lon="15.213771552757581"><ele>642.0</ele><time>2026-04-26T12:56:38.999Z</time></trkpt><trkpt lat="38.07396993958515" lon="15.213674752370544"><ele>642.0</ele><time>2026-04-26T12:56:42.999Z</time></trkpt><trkpt lat="38.07390191041733" lon="15.213578958407906"><ele>642.0</ele><time>2026-04-26T12:56:44.999Z</time></trkpt><trkpt lat="38.07383813458581" lon="15.213515687533024"><ele>642.0</ele><time>2026-04-26T12:56:45.999Z</time></trkpt><trkpt lat="38.073757441475514" lon="15.213430825961511"><ele>642.0</ele><time>2026-04-26T12:56:46.999Z</time></trkpt><trkpt lat="38.073689985882986" lon="15.213366951008323"><ele>642.0</ele><time>2026-04-26T12:56:47.999Z</time></trkpt><trkpt lat="38.0736296931432" lon="15.213300939542442"><ele>642.0</ele><time>2026-04-26T12:56:48.999Z</time></trkpt><trkpt lat="38.07356491939192" lon="15.21323016588909"><ele>642.0</ele><time>2026-04-26T12:56:49.999Z</time></trkpt><trkpt lat="38.07350679217963" lon="15.213171262246245"><ele>642.0</ele><time>2026-04-26T12:56:50.999Z</time></trkpt><trkpt lat="38.073429541066574" lon="15.213124051685691"><ele>641.4</ele><time>2026-04-26T12:56:51.999Z</time></trkpt><trkpt lat="38.07333212131376" lon="15.213095374748375"><ele>640.8000000000001</ele><time>2026-04-26T12:56:52.999Z</time></trkpt><trkpt lat="38.07324915846173" lon="15.213087256243075"><ele>640.2</ele><time>2026-04-26T12:56:53.999Z</time></trkpt><trkpt lat="38.073171121295836" lon="15.213039798420601"><ele>639.6</ele><time>2026-04-26T12:56:54.999Z</time></trkpt><trkpt lat="38.07311018135574" lon="15.212943365743815"><ele>639.0</ele><time>2026-04-26T12:56:55.999Z</time></trkpt><trkpt lat="38.07304296239476" lon="15.212840038775072"><ele>639.0</ele><time>2026-04-26T12:56:56.999Z</time></trkpt><trkpt lat="38.072972563866415" lon="15.212743383039882"><ele>639.0</ele><time>2026-04-26T12:56:57.999Z</time></trkpt><trkpt lat="38.07289649803439" lon="15.212649080287603"><ele>639.0</ele><time>2026-04-26T12:56:58.999Z</time></trkpt><trkpt lat="38.0728425269732" lon="15.212566834791694"><ele>639.0</ele><time>2026-04-26T12:56:59.999Z</time></trkpt><trkpt lat="38.07278976828542" lon="15.212445894213948"><ele>639.0</ele><time>2026-04-26T12:57:00.999Z</time></trkpt><trkpt lat="38.07279959311496" lon="15.212307882142357"><ele>634.4</ele><time>2026-04-26T12:57:01.999Z</time></trkpt><trkpt lat="38.07276614050928" lon="15.21220158600184"><ele>629.8</ele><time>2026-04-26T12:57:02.999Z</time></trkpt><trkpt lat="38.07271047002892" lon="15.212078058094189"><ele>625.2</ele><time>2026-04-26T12:57:03.999Z</time></trkpt><trkpt lat="38.07268092636516" lon="15.211956949618486"><ele>620.6</ele><time>2026-04-26T12:57:04.999Z</time></trkpt><trkpt lat="38.07270458955309" lon="15.211843880764794"><ele>616.0</ele><time>2026-04-26T12:57:05.999Z</time></trkpt><trkpt lat="38.072719801114715" lon="15.211738745474179"><ele>616.0</ele><time>2026-04-26T12:57:06.999Z</time></trkpt><trkpt lat="38.07279665055692" lon="15.211661898424762"><ele>616.0</ele><time>2026-04-26T12:57:07.999Z</time></trkpt><trkpt lat="38.07285196074913" lon="15.211581576256298"><ele>616.0</ele><time>2026-04-26T12:57:08.999Z</time></trkpt><trkpt lat="38.072915207420785" lon="15.211510462019438"><ele>616.0</ele><time>2026-04-26T12:57:09.999Z</time></trkpt><trkpt lat="38.07297520080925" lon="15.211423113255302"><ele>616.0</ele><time>2026-04-26T12:57:10.999Z</time></trkpt><trkpt lat="38.07302945313805" lon="15.21133550838357"><ele>616.0</ele><time>2026-04-26T12:57:11.999Z</time></trkpt><trkpt lat="38.0730638081121" lon="15.211267865646821"><ele>612.2</ele><time>2026-04-26T12:57:12.999Z</time></trkpt><trkpt lat="38.07312398306884" lon="15.211154960320089"><ele>608.4000000000001</ele><time>2026-04-26T12:57:14.999Z</time></trkpt><trkpt lat="38.073106680694785" lon="15.21105667063118"><ele>604.6</ele><time>2026-04-26T12:57:15.999Z</time></trkpt><trkpt lat="38.073106526892374" lon="15.21093400408635"><ele>600.8000000000001</ele><time>2026-04-26T12:57:16.999Z</time></trkpt><trkpt lat="38.0730607168425" lon="15.210833591281235"><ele>597.0</ele><time>2026-04-26T12:57:17.999Z</time></trkpt><trkpt lat="38.073030416932106" lon="15.21073694925006"><ele>594.8000000000001</ele><time>2026-04-26T12:57:18.999Z</time></trkpt><trkpt lat="38.07299124196203" lon="15.210638459123754"><ele>592.6</ele><time>2026-04-26T12:57:19.999Z</time></trkpt><trkpt lat="38.07293312528645" lon="15.21055259745122"><ele>590.4000000000001</ele><time>2026-04-26T12:57:20.999Z</time></trkpt><trkpt lat="38.07285714689558" lon="15.2104557438029"><ele>588.2</ele><time>2026-04-26T12:57:21.999Z</time></trkpt><trkpt lat="38.072778083778495" lon="15.21036135368634"><ele>586.0</ele><time>2026-04-26T12:57:22.999Z</time></trkpt><trkpt lat="38.07274634832756" lon="15.210259383843619"><ele>586.0</ele><time>2026-04-26T12:57:23.999Z</time></trkpt><trkpt lat="38.07272907813667" lon="15.210119760551809"><ele>586.0</ele><time>2026-04-26T12:57:24.999Z</time></trkpt><trkpt lat="38.07271499649298" lon="15.210006221585882"><ele>586.0</ele><time>2026-04-26T12:57:25.999Z</time></trkpt><trkpt lat="38.072713228435845" lon="15.209883647198627"><ele>586.0</ele><time>2026-04-26T12:57:26.999Z</time></trkpt><trkpt lat="38.07269821748913" lon="15.209766250711102"><ele>586.0</ele><time>2026-04-26T12:57:27.999Z</time></trkpt><trkpt lat="38.07270420534412" lon="15.20963345626416"><ele>584.6</ele><time>2026-04-26T12:57:28.999Z</time></trkpt><trkpt lat="38.072737818337835" lon="15.20948905149613"><ele>583.2</ele><time>2026-04-26T12:57:29.999Z</time></trkpt><trkpt lat="38.07276525959951" lon="15.209357480212669"><ele>581.8</ele><time>2026-04-26T12:57:30.999Z</time></trkpt><trkpt lat="38.07277543422524" lon="15.20922571499939"><ele>580.4</ele><time>2026-04-26T12:57:31.999Z</time></trkpt><trkpt lat="38.07277884624143" lon="15.20908641632494"><ele>579.0</ele><time>2026-04-26T12:57:32.999Z</time></trkpt><trkpt lat="38.07276979719253" lon="15.20895058914493"><ele>579.0</ele><time>2026-04-26T12:57:33.999Z</time></trkpt><trkpt lat="38.0727423277301" lon="15.208818364975679"><ele>579.0</ele><time>2026-04-26T12:57:34.999Z</time></trkpt><trkpt lat="38.07270345355789" lon="15.208705132792794"><ele>579.0</ele><time>2026-04-26T12:57:35.999Z</time></trkpt><trkpt lat="38.072679142162826" lon="15.208596839851353"><ele>579.0</ele><time>2026-04-26T12:57:36.999Z</time></trkpt><trkpt lat="38.072678331060025" lon="15.208492902789835"><ele>579.0</ele><time>2026-04-26T12:57:37.999Z</time></trkpt><trkpt lat="38.072717700607754" lon="15.208382474272836"><ele>579.0</ele><time>2026-04-26T12:57:38.999Z</time></trkpt><trkpt lat="38.07278344018127" lon="15.20828959121979"><ele>579.0</ele><time>2026-04-26T12:57:39.999Z</time></trkpt><trkpt lat="38.07287408306458" lon="15.208223618703084"><ele>579.0</ele><time>2026-04-26T12:57:40.999Z</time></trkpt><trkpt lat="38.07297042506046" lon="15.208189563225254"><ele>579.0</ele><time>2026-04-26T12:57:41.999Z</time></trkpt><trkpt lat="38.0730647056532" lon="15.208179799604322"><ele>579.0</ele><time>2026-04-26T12:57:42.999Z</time></trkpt><trkpt lat="38.07313446944086" lon="15.208152917977898"><ele>577.8333333333334</ele><time>2026-04-26T12:57:43.999Z</time></trkpt><trkpt lat="38.073190998526925" lon="15.208085666426946"><ele>576.6666666666666</ele><time>2026-04-26T12:57:44.999Z</time></trkpt><trkpt lat="38.07321297598737" lon="15.207993788874589"><ele>575.5</ele><time>2026-04-26T12:57:45.999Z</time></trkpt><trkpt lat="38.073194867917806" lon="15.20789477467776"><ele>574.3333333333333</ele><time>2026-04-26T12:57:46.999Z</time></trkpt><trkpt lat="38.07314660852801" lon="15.207785948359911"><ele>573.1666666666666</ele><time>2026-04-26T12:57:47.999Z</time></trkpt><trkpt lat="38.07308952773755" lon="15.207666750417035"><ele>572.0</ele><time>2026-04-26T12:57:48.999Z</time></trkpt><trkpt lat="38.07304262598376" lon="15.207564400711416"><ele>572.0</ele><time>2026-04-26T12:57:49.999Z</time></trkpt><trkpt lat="38.0729953065864" lon="15.207497500950717"><ele>572.0</ele><time>2026-04-26T12:57:50.999Z</time></trkpt><trkpt lat="38.07293017858006" lon="15.20743510526128"><ele>572.0</ele><time>2026-04-26T12:57:51.999Z</time></trkpt><trkpt lat="38.07286242298732" lon="15.207380306639047"><ele>572.0</ele><time>2026-04-26T12:57:52.999Z</time></trkpt><trkpt lat="38.07280716947378" lon="15.207308868121503"><ele>572.0</ele><time>2026-04-26T12:57:54.999Z</time></trkpt><trkpt lat="38.07294942831063" lon="15.20732358891686"><ele>572.0</ele><time>2026-04-26T12:57:57.999Z</time></trkpt><trkpt lat="38.07300257944923" lon="15.207422272337858"><ele>572.0</ele><time>2026-04-26T12:57:58.999Z</time></trkpt><trkpt lat="38.07308533997416" lon="15.207508771891156"><ele>572.0</ele><time>2026-04-26T12:57:59.999Z</time></trkpt><trkpt lat="38.07317264243702" lon="15.207591668797594"><ele>572.0</ele><time>2026-04-26T12:58:00.999Z</time></trkpt><trkpt lat="38.07326114116331" lon="15.207664891218018"><ele>572.0</ele><time>2026-04-26T12:58:01.999Z</time></trkpt><trkpt lat="38.07336034116703" lon="15.207731398973506"><ele>569.8000000000001</ele><time>2026-04-26T12:58:02.998Z</time></trkpt><trkpt lat="38.073462290633714" lon="15.20776540547164"><ele>567.6</ele><time>2026-04-26T12:58:03.998Z</time></trkpt><trkpt lat="38.073561770609366" lon="15.207776173879667"><ele>565.4000000000001</ele><time>2026-04-26T12:58:04.998Z</time></trkpt><trkpt lat="38.07365440411153" lon="15.207810964285718"><ele>563.2</ele><time>2026-04-26T12:58:05.998Z</time></trkpt><trkpt lat="38.073734466718534" lon="15.20789705124299"><ele>561.0</ele><time>2026-04-26T12:58:06.998Z</time></trkpt><trkpt lat="38.07377538791556" lon="15.207994703161242"><ele>561.0</ele><time>2026-04-26T12:58:07.998Z</time></trkpt><trkpt lat="38.07381686274267" lon="15.20809207638591"><ele>561.0</ele><time>2026-04-26T12:58:08.998Z</time></trkpt><trkpt lat="38.073822730363524" lon="15.208182835483006"><ele>561.0</ele><time>2026-04-26T12:58:09.998Z</time></trkpt><trkpt lat="38.07379384488545" lon="15.208273119787608"><ele>561.0</ele><time>2026-04-26T12:58:10.998Z</time></trkpt><trkpt lat="38.07375543153726" lon="15.208355704162855"><ele>561.0</ele><time>2026-04-26T12:58:11.998Z</time></trkpt><trkpt lat="38.07369697057888" lon="15.20844767669438"><ele>561.0</ele><time>2026-04-26T12:58:12.998Z</time></trkpt><trkpt lat="38.0736509042554" lon="15.20854074992353"><ele>562.3333333333334</ele><time>2026-04-26T12:58:13.998Z</time></trkpt><trkpt lat="38.07356504122252" lon="15.20859591121386"><ele>563.6666666666666</ele><time>2026-04-26T12:58:14.998Z</time></trkpt><trkpt lat="38.07350382905282" lon="15.208643914651454"><ele>565.0</ele><time>2026-04-26T12:58:16Z</time></trkpt><trkpt lat="38.0734484762576" lon="15.208710899996815"><ele>566.3333333333333</ele><time>2026-04-26T12:58:17Z</time></trkpt><trkpt lat="38.07338812168195" lon="15.208772639138541"><ele>567.6666666666666</ele><time>2026-04-26T12:58:18Z</time></trkpt><trkpt lat="38.07333537952066" lon="15.208836464892366"><ele>569.0</ele><time>2026-04-26T12:58:19Z</time></trkpt><trkpt lat="38.073337120451" lon="15.20894806291131"><ele>568.6666666666666</ele><time>2026-04-26T12:58:20Z</time></trkpt><trkpt lat="38.07336729133077" lon="15.209042798205374"><ele>568.3333333333333</ele><time>2026-04-26T12:58:21Z</time></trkpt><trkpt lat="38.07341553299531" lon="15.209138587523814"><ele>568.0</ele><time>2026-04-26T12:58:22Z</time></trkpt><trkpt lat="38.07346854763297" lon="15.209237649175057"><ele>567.6666666666666</ele><time>2026-04-26T12:58:23Z</time></trkpt><trkpt lat="38.07351760284338" lon="15.209334242101246"><ele>567.3333333333334</ele><time>2026-04-26T12:58:24Z</time></trkpt><trkpt lat="38.07355567120991" lon="15.209435794158896"><ele>567.0</ele><time>2026-04-26T12:58:25Z</time></trkpt><trkpt lat="38.073584665345784" lon="15.20952819621939"><ele>567.0</ele><time>2026-04-26T12:58:26Z</time></trkpt><trkpt lat="38.07358311026732" lon="15.209611507680984"><ele>567.0</ele><time>2026-04-26T12:58:27Z</time></trkpt><trkpt lat="38.07360698763424" lon="15.209688994442695"><ele>567.0</ele><time>2026-04-26T12:58:28Z</time></trkpt><trkpt lat="38.073670581222366" lon="15.209740928954629"><ele>567.0</ele><time>2026-04-26T12:58:29Z</time></trkpt><trkpt lat="38.073766739682135" lon="15.20979018138382"><ele>567.0</ele><time>2026-04-26T12:58:30Z</time></trkpt><trkpt lat="38.0738373232936" lon="15.209870437735251"><ele>567.0</ele><time>2026-04-26T12:58:31Z</time></trkpt><trkpt lat="38.073923221740834" lon="15.209911473579735"><ele>570.0</ele><time>2026-04-26T12:58:32Z</time></trkpt><trkpt lat="38.07400223501042" lon="15.209983275426728"><ele>573.0</ele><time>2026-04-26T12:58:33Z</time></trkpt><trkpt lat="38.07410309176697" lon="15.210036804580648"><ele>576.0</ele><time>2026-04-26T12:58:34Z</time></trkpt><trkpt lat="38.07419758567446" lon="15.21005763213961"><ele>579.0</ele><time>2026-04-26T12:58:35Z</time></trkpt><trkpt lat="38.074276407781056" lon="15.210110596058472"><ele>582.0</ele><time>2026-04-26T12:58:36Z</time></trkpt><trkpt lat="38.07435345281706" lon="15.21016324392953"><ele>574.8000000000001</ele><time>2026-04-26T12:58:37Z</time></trkpt><trkpt lat="38.074388003183536" lon="15.210269476638278"><ele>567.6</ele><time>2026-04-26T12:58:38Z</time></trkpt><trkpt lat="38.07443689430498" lon="15.210351212157953"><ele>560.4000000000001</ele><time>2026-04-26T12:58:39Z</time></trkpt><trkpt lat="38.07448159501731" lon="15.210455019732404"><ele>553.2</ele><time>2026-04-26T12:58:41Z</time></trkpt><trkpt lat="38.07454338216016" lon="15.210425575125763"><ele>546.0</ele><time>2026-04-26T12:58:43Z</time></trkpt><trkpt lat="38.0745313612451" lon="15.210255284348518"><ele>546.0</ele><time>2026-04-26T12:58:45Z</time></trkpt><trkpt lat="38.07450457048159" lon="15.210154495448863"><ele>546.0</ele><time>2026-04-26T12:58:46Z</time></trkpt><trkpt lat="38.07448556859481" lon="15.210039564049866"><ele>546.0</ele><time>2026-04-26T12:58:47Z</time></trkpt><trkpt lat="38.07447276661246" lon="15.209940732000089"><ele>546.0</ele><time>2026-04-26T12:58:48Z</time></trkpt><trkpt lat="38.074426179734594" lon="15.209854911583934"><ele>546.0</ele><time>2026-04-26T12:58:49Z</time></trkpt><trkpt lat="38.074352294445156" lon="15.209800664688366"><ele>546.0</ele><time>2026-04-26T12:58:50Z</time></trkpt><trkpt lat="38.0742437053653" lon="15.209735556329916"><ele>543.4</ele><time>2026-04-26T12:58:51Z</time></trkpt><trkpt lat="38.074159449722714" lon="15.20965976560742"><ele>540.8</ele><time>2026-04-26T12:58:52Z</time></trkpt><trkpt lat="38.07408268304525" lon="15.20955753777215"><ele>538.1999999999999</ele><time>2026-04-26T12:58:52.999Z</time></trkpt><trkpt lat="38.07403580506444" lon="15.209489250598732"><ele>535.6</ele><time>2026-04-26T12:58:53.999Z</time></trkpt><trkpt lat="38.07397404902053" lon="15.209436303314025"><ele>533.0</ele><time>2026-04-26T12:58:54.999Z</time></trkpt><trkpt lat="38.07393302279049" lon="15.209274760080994"><ele>534.8333333333333</ele><time>2026-04-26T12:58:56.999Z</time></trkpt><trkpt lat="38.073920015557036" lon="15.20918932082062"><ele>536.6666666666666</ele><time>2026-04-26T12:58:57.999Z</time></trkpt><trkpt lat="38.07391750310965" lon="15.209106236803832"><ele>538.5</ele><time>2026-04-26T12:58:58.999Z</time></trkpt><trkpt lat="38.07394954701575" lon="15.20901383690964"><ele>540.3333333333334</ele><time>2026-04-26T12:58:59.999Z</time></trkpt><trkpt lat="38.07400699980208" lon="15.208971426130498"><ele>542.1666666666667</ele><time>2026-04-26T12:59:00.999Z</time></trkpt><trkpt lat="38.07408633980261" lon="15.208945361669082"><ele>544.0</ele><time>2026-04-26T12:59:01.999Z</time></trkpt><trkpt lat="38.07417229793524" lon="15.208897141512766"><ele>544.0</ele><time>2026-04-26T12:59:02.999Z</time></trkpt><trkpt lat="38.07426087029938" lon="15.20885449669456"><ele>544.0</ele><time>2026-04-26T12:59:03.999Z</time></trkpt><trkpt lat="38.074347653130935" lon="15.208821351731775"><ele>544.0</ele><time>2026-04-26T12:59:04.999Z</time></trkpt><trkpt lat="38.07441199665737" lon="15.208772801031971"><ele>544.0</ele><time>2026-04-26T12:59:05.999Z</time></trkpt><trkpt lat="38.07443916996411" lon="15.208684401068558"><ele>544.0</ele><time>2026-04-26T12:59:06.999Z</time></trkpt><trkpt lat="38.07446584197371" lon="15.208559290862272"><ele>544.0</ele><time>2026-04-26T12:59:07.999Z</time></trkpt><trkpt lat="38.07450217824792" lon="15.208482667098137"><ele>544.0</ele><time>2026-04-26T12:59:08.999Z</time></trkpt><trkpt lat="38.07457793450106" lon="15.208438462317098"><ele>544.0</ele><time>2026-04-26T12:59:10.999Z</time></trkpt><trkpt lat="38.074579119277196" lon="15.208538782820499"><ele>544.0</ele><time>2026-04-26T12:59:14.999Z</time></trkpt><trkpt lat="38.07453663817245" lon="15.208660651830957"><ele>544.0</ele><time>2026-04-26T12:59:16.999Z</time></trkpt><trkpt lat="38.074496596280326" lon="15.208759314675817"><ele>544.0</ele><time>2026-04-26T12:59:17.999Z</time></trkpt><trkpt lat="38.07445717822513" lon="15.208857102238284"><ele>544.0</ele><time>2026-04-26T12:59:18.999Z</time></trkpt><trkpt lat="38.074402557032755" lon="15.208937613636943"><ele>544.0</ele><time>2026-04-26T12:59:19.999Z</time></trkpt><trkpt lat="38.074336329702945" lon="15.208985953942813"><ele>544.0</ele><time>2026-04-26T12:59:20.999Z</time></trkpt><trkpt lat="38.0742675154906" lon="15.209017376068749"><ele>544.0</ele><time>2026-04-26T12:59:21.999Z</time></trkpt><trkpt lat="38.07421767597414" lon="15.209124962904276"><ele>544.0</ele><time>2026-04-26T12:59:23.999Z</time></trkpt><trkpt lat="38.074295637509316" lon="15.209218087795298"><ele>544.0</ele><time>2026-04-26T12:59:25.999Z</time></trkpt><trkpt lat="38.07438233710749" lon="15.209270168404563"><ele>542.1666666666667</ele><time>2026-04-26T12:59:27.999Z</time></trkpt><trkpt lat="38.074457427426296" lon="15.20935662684368"><ele>540.3333333333334</ele><time>2026-04-26T12:59:29.999Z</time></trkpt><trkpt lat="38.07451405027006" lon="15.209404572356236"><ele>538.5</ele><time>2026-04-26T12:59:30.999Z</time></trkpt><trkpt lat="38.074580613171335" lon="15.20946093463131"><ele>536.6666666666666</ele><time>2026-04-26T12:59:31.999Z</time></trkpt><trkpt lat="38.07465100285791" lon="15.209520537248872"><ele>534.8333333333333</ele><time>2026-04-26T12:59:32.999Z</time></trkpt><trkpt lat="38.0747145454444" lon="15.20957530542346"><ele>533.0</ele><time>2026-04-26T12:59:33.999Z</time></trkpt><trkpt lat="38.07478370068064" lon="15.209649611136191"><ele>533.0</ele><time>2026-04-26T12:59:34.999Z</time></trkpt><trkpt lat="38.07485290124878" lon="15.209711150033165"><ele>533.0</ele><time>2026-04-26T12:59:35.999Z</time></trkpt><trkpt lat="38.07488165515483" lon="15.209796260179589"><ele>533.0</ele><time>2026-04-26T12:59:36.999Z</time></trkpt><trkpt lat="38.07492801349191" lon="15.209875295493793"><ele>533.0</ele><time>2026-04-26T12:59:37.999Z</time></trkpt><trkpt lat="38.07496769159621" lon="15.209980534456477"><ele>533.0</ele><time>2026-04-26T12:59:39.999Z</time></trkpt><trkpt lat="38.075053266334855" lon="15.209868836164286"><ele>533.0</ele><time>2026-04-26T12:59:42.999Z</time></trkpt><trkpt lat="38.07498902464647" lon="15.20978914766555"><ele>533.0</ele><time>2026-04-26T12:59:43.999Z</time></trkpt><trkpt lat="38.07496091326058" lon="15.209709787552747"><ele>533.0</ele><time>2026-04-26T12:59:44.999Z</time></trkpt><trkpt lat="38.07492190391429" lon="15.209631768858577"><ele>533.0</ele><time>2026-04-26T12:59:45.999Z</time></trkpt><trkpt lat="38.07488306665333" lon="15.209549963243202"><ele>533.0</ele><time>2026-04-26T12:59:46.999Z</time></trkpt><trkpt lat="38.07484407341313" lon="15.209467047379189"><ele>533.0</ele><time>2026-04-26T12:59:47.999Z</time></trkpt><trkpt lat="38.07482708128177" lon="15.209383693527059"><ele>533.0</ele><time>2026-04-26T12:59:48.999Z</time></trkpt><trkpt lat="38.074809336125554" lon="15.209214852004365"><ele>533.0</ele><time>2026-04-26T12:59:50.999Z</time></trkpt><trkpt lat="38.074826255722215" lon="15.209133963466794"><ele>533.0</ele><time>2026-04-26T12:59:51.999Z</time></trkpt><trkpt lat="38.07484051650098" lon="15.209047630755622"><ele>533.0</ele><time>2026-04-26T12:59:52.999Z</time></trkpt><trkpt lat="38.074863420804476" lon="15.208969118716961"><ele>533.0</ele><time>2026-04-26T12:59:53.999Z</time></trkpt><trkpt lat="38.07488968499249" lon="15.208891609881737"><ele>533.0</ele><time>2026-04-26T12:59:54.999Z</time></trkpt><trkpt lat="38.07496506024006" lon="15.208784258819536"><ele>527.8333333333333</ele><time>2026-04-26T12:59:56.999Z</time></trkpt><trkpt lat="38.07502030020296" lon="15.208700701429569"><ele>522.6666666666666</ele><time>2026-04-26T12:59:58.999Z</time></trkpt><trkpt lat="38.07507524394172" lon="15.208617052391608"><ele>517.5</ele><time>2026-04-26T13:00:14.999Z</time></trkpt><trkpt lat="38.0751383625912" lon="15.208570444142381"><ele>512.3333333333334</ele><time>2026-04-26T13:00:17.999Z</time></trkpt><trkpt lat="38.07518305039115" lon="15.208682733927848"><ele>507.1666666666667</ele><time>2026-04-26T13:00:18.999Z</time></trkpt><trkpt lat="38.07523878290612" lon="15.208731794578307"><ele>502.0</ele><time>2026-04-26T13:00:19.999Z</time></trkpt><trkpt lat="38.075285785300714" lon="15.208786075354872"><ele>501.99999999999994</ele><time>2026-04-26T13:00:20.999Z</time></trkpt><trkpt lat="38.07533681867815" lon="15.208839464235258"><ele>502.0</ele><time>2026-04-26T13:00:22Z</time></trkpt><trkpt lat="38.07538613378029" lon="15.208905930579686"><ele>501.99999999999994</ele><time>2026-04-26T13:00:23Z</time></trkpt><trkpt lat="38.075419429352905" lon="15.20898980007574"><ele>501.99999999999994</ele><time>2026-04-26T13:00:24Z</time></trkpt><trkpt lat="38.07543647479378" lon="15.20908377391011"><ele>502.0</ele><time>2026-04-26T13:00:25Z</time></trkpt><trkpt lat="38.07544795279684" lon="15.209178308334423"><ele>501.99999999999994</ele><time>2026-04-26T13:00:26Z</time></trkpt><trkpt lat="38.07545268710007" lon="15.209274129705697"><ele>501.99999999999994</ele><time>2026-04-26T13:00:27Z</time></trkpt><trkpt lat="38.07545555849447" lon="15.209369313717701"><ele>501.2857142857142</ele><time>2026-04-26T13:00:28Z</time></trkpt><trkpt lat="38.07546522451628" lon="15.20946852178261"><ele>500.57142857142856</ele><time>2026-04-26T13:00:29Z</time></trkpt><trkpt lat="38.07547025792062" lon="15.20956872577857"><ele>499.85714285714283</ele><time>2026-04-26T13:00:30Z</time></trkpt><trkpt lat="38.07547050217595" lon="15.209671367344974"><ele>499.1428571428571</ele><time>2026-04-26T13:00:31Z</time></trkpt><trkpt lat="38.07547474775526" lon="15.209764945857108"><ele>498.42857142857144</ele><time>2026-04-26T13:00:32Z</time></trkpt><trkpt lat="38.07550746366563" lon="15.209841358072946"><ele>497.7142857142857</ele><time>2026-04-26T13:00:33Z</time></trkpt><trkpt lat="38.07556945514618" lon="15.209868944793575"><ele>497.0</ele><time>2026-04-26T13:00:34Z</time></trkpt><trkpt lat="38.07564974079829" lon="15.209845598647425"><ele>496.99999999999994</ele><time>2026-04-26T13:00:35Z</time></trkpt><trkpt lat="38.07573135729702" lon="15.209800038376576"><ele>497.0</ele><time>2026-04-26T13:00:36Z</time></trkpt><trkpt lat="38.07581172901558" lon="15.209758446319109"><ele>497.0</ele><time>2026-04-26T13:00:37Z</time></trkpt><trkpt lat="38.0758962543138" lon="15.209719313226296"><ele>497.0</ele><time>2026-04-26T13:00:38Z</time></trkpt><trkpt lat="38.075977103387096" lon="15.209680395622854"><ele>496.99999999999994</ele><time>2026-04-26T13:00:39Z</time></trkpt><trkpt lat="38.07606431066255" lon="15.209640485135164"><ele>497.0</ele><time>2026-04-26T13:00:40Z</time></trkpt><trkpt lat="38.07615277695205" lon="15.209602252065876"><ele>494.6</ele><time>2026-04-26T13:00:41Z</time></trkpt><trkpt lat="38.07624553352778" lon="15.20955844680605"><ele>492.20000000000005</ele><time>2026-04-26T13:00:42Z</time></trkpt><trkpt lat="38.07634340664958" lon="15.209541988151225"><ele>489.8</ele><time>2026-04-26T13:00:43Z</time></trkpt><trkpt lat="38.076432909860536" lon="15.209521314287707"><ele>487.4</ele><time>2026-04-26T13:00:44Z</time></trkpt><trkpt lat="38.07651199590968" lon="15.209540834529216"><ele>485.0</ele><time>2026-04-26T13:00:45Z</time></trkpt><trkpt lat="38.0765944129261" lon="15.209589774299767"><ele>484.99999999999994</ele><time>2026-04-26T13:00:46Z</time></trkpt><trkpt lat="38.07666552992951" lon="15.209603538053583"><ele>485.0</ele><time>2026-04-26T13:00:47Z</time></trkpt><trkpt lat="38.07675905425626" lon="15.209620985255764"><ele>485.0</ele><time>2026-04-26T13:00:49Z</time></trkpt><trkpt lat="38.076685980525035" lon="15.209635592769128"><ele>485.0</ele><time>2026-04-26T13:01:16.999Z</time></trkpt><trkpt lat="38.076615874409924" lon="15.209608672983506"><ele>484.99999999999994</ele><time>2026-04-26T13:01:17.999Z</time></trkpt><trkpt lat="38.07654034375674" lon="15.209566317240661"><ele>485.0</ele><time>2026-04-26T13:01:18.999Z</time></trkpt><trkpt lat="38.0764633519307" lon="15.20953291552134"><ele>485.0</ele><time>2026-04-26T13:01:19.999Z</time></trkpt><trkpt lat="38.076330350723715" lon="15.209508173727622"><ele>485.0</ele><time>2026-04-26T13:01:20.999Z</time></trkpt><trkpt lat="38.076230147963784" lon="15.209546277651851"><ele>485.0</ele><time>2026-04-26T13:01:21.999Z</time></trkpt><trkpt lat="38.076155256207514" lon="15.209592621946788"><ele>485.0</ele><time>2026-04-26T13:01:22.999Z</time></trkpt><trkpt lat="38.076081347448486" lon="15.209627930316461"><ele>485.0</ele><time>2026-04-26T13:01:23.999Z</time></trkpt><trkpt lat="38.07601123510479" lon="15.209654706135721"><ele>484.99999999999994</ele><time>2026-04-26T13:01:24.999Z</time></trkpt><trkpt lat="38.07594540154671" lon="15.209688544345537"><ele>485.0</ele><time>2026-04-26T13:01:25.999Z</time></trkpt><trkpt lat="38.07587334582668" lon="15.209728399522648"><ele>485.0</ele><time>2026-04-26T13:01:26.999Z</time></trkpt><trkpt lat="38.07579407196871" lon="15.209757315798074"><ele>485.0</ele><time>2026-04-26T13:01:27.999Z</time></trkpt><trkpt lat="38.0757134815686" lon="15.20978989721039"><ele>484.99999999999994</ele><time>2026-04-26T13:01:28.999Z</time></trkpt><trkpt lat="38.07563594693838" lon="15.209819699320954"><ele>485.0</ele><time>2026-04-26T13:01:29.999Z</time></trkpt><trkpt lat="38.075565642564" lon="15.20982583209571"><ele>487.4</ele><time>2026-04-26T13:01:30.999Z</time></trkpt><trkpt lat="38.07547604837604" lon="15.209738598839138"><ele>489.8</ele><time>2026-04-26T13:01:32.999Z</time></trkpt><trkpt lat="38.075478854296215" lon="15.209648666405156"><ele>492.20000000000005</ele><time>2026-04-26T13:01:33.999Z</time></trkpt><trkpt lat="38.07548444465284" lon="15.209550941275937"><ele>494.6</ele><time>2026-04-26T13:01:34.999Z</time></trkpt><trkpt lat="38.07547841592867" lon="15.209434899975621"><ele>497.0</ele><time>2026-04-26T13:01:35.999Z</time></trkpt><trkpt lat="38.0754736376449" lon="15.209306906375582"><ele>497.0</ele><time>2026-04-26T13:01:36.999Z</time></trkpt><trkpt lat="38.07546489796148" lon="15.209173771553411"><ele>497.00000000000006</ele><time>2026-04-26T13:01:37.999Z</time></trkpt><trkpt lat="38.07545308492985" lon="15.209041142693545"><ele>497.00000000000006</ele><time>2026-04-26T13:01:38.999Z</time></trkpt><trkpt lat="38.07542198922073" lon="15.208930352581827"><ele>497.0</ele><time>2026-04-26T13:01:39.999Z</time></trkpt><trkpt lat="38.07537065429037" lon="15.208842930036777"><ele>497.0</ele><time>2026-04-26T13:01:40.999Z</time></trkpt><trkpt lat="38.07530076326622" lon="15.20876543364064"><ele>498.0</ele><time>2026-04-26T13:01:41.999Z</time></trkpt><trkpt lat="38.07522936334558" lon="15.208695939163595"><ele>499.00000000000006</ele><time>2026-04-26T13:01:42.999Z</time></trkpt><trkpt lat="38.075178472576816" lon="15.208622253954017"><ele>500.00000000000006</ele><time>2026-04-26T13:01:43.999Z</time></trkpt><trkpt lat="38.07515418775783" lon="15.208416969987638"><ele>501.0</ele><time>2026-04-26T13:01:45.999Z</time></trkpt><trkpt lat="38.07519054800195" lon="15.208336162802086"><ele>502.0</ele><time>2026-04-26T13:01:46.999Z</time></trkpt><trkpt lat="38.07521726663669" lon="15.208233651016291"><ele>502.1666666666667</ele><time>2026-04-26T13:01:47.999Z</time></trkpt><trkpt lat="38.075247890018495" lon="15.208123858131442"><ele>502.33333333333337</ele><time>2026-04-26T13:01:48.999Z</time></trkpt><trkpt lat="38.075270544955664" lon="15.20800392198188"><ele>502.5</ele><time>2026-04-26T13:01:49.999Z</time></trkpt><trkpt lat="38.07528804971518" lon="15.207901912320528"><ele>502.66666666666663</ele><time>2026-04-26T13:01:50.999Z</time></trkpt><trkpt lat="38.075290414586895" lon="15.207796856700677"><ele>502.8333333333333</ele><time>2026-04-26T13:01:51.999Z</time></trkpt><trkpt lat="38.07526431981483" lon="15.207693963694966"><ele>503.0</ele><time>2026-04-26T13:01:52.999Z</time></trkpt><trkpt lat="38.07524736200384" lon="15.207600510281349"><ele>502.99999999999994</ele><time>2026-04-26T13:01:53.999Z</time></trkpt><trkpt lat="38.07520235600856" lon="15.207489191139446"><ele>503.0</ele><time>2026-04-26T13:01:54.999Z</time></trkpt><trkpt lat="38.07517619723829" lon="15.207374325594394"><ele>503.0</ele><time>2026-04-26T13:01:55.999Z</time></trkpt><trkpt lat="38.075164952048226" lon="15.20725436546305"><ele>503.0</ele><time>2026-04-26T13:01:56.999Z</time></trkpt><trkpt lat="38.07514370816902" lon="15.207146729768299"><ele>502.99999999999994</ele><time>2026-04-26T13:01:57.999Z</time></trkpt><trkpt lat="38.07512635897579" lon="15.207058827176994"><ele>503.0</ele><time>2026-04-26T13:01:58.999Z</time></trkpt><trkpt lat="38.07499100900571" lon="15.206965897847894"><ele>503.49999999999994</ele><time>2026-04-26T13:02:00.999Z</time></trkpt><trkpt lat="38.074939117026545" lon="15.206918011202117"><ele>504.0</ele><time>2026-04-26T13:02:01.999Z</time></trkpt><trkpt lat="38.07486085779587" lon="15.206892903936943"><ele>504.5</ele><time>2026-04-26T13:02:02.999Z</time></trkpt><trkpt lat="38.07477006105056" lon="15.206865309736642"><ele>505.0</ele><time>2026-04-26T13:02:03.999Z</time></trkpt><trkpt lat="38.07468981272447" lon="15.20684693546595"><ele>505.49999999999994</ele><time>2026-04-26T13:02:04.999Z</time></trkpt><trkpt lat="38.07459824461164" lon="15.20681926914242"><ele>506.0</ele><time>2026-04-26T13:02:05.999Z</time></trkpt><trkpt lat="38.0745200718235" lon="15.20677575192887"><ele>506.0</ele><time>2026-04-26T13:02:06.999Z</time></trkpt><trkpt lat="38.074446522413986" lon="15.206700953454874"><ele>506.0</ele><time>2026-04-26T13:02:07.999Z</time></trkpt><trkpt lat="38.07437517062871" lon="15.206631447975578"><ele>506.0</ele><time>2026-04-26T13:02:08.999Z</time></trkpt><trkpt lat="38.074349411303956" lon="15.206520147289442"><ele>506.0</ele><time>2026-04-26T13:02:09.999Z</time></trkpt><trkpt lat="38.0743402361413" lon="15.20640801944012"><ele>506.0</ele><time>2026-04-26T13:02:10.999Z</time></trkpt><trkpt lat="38.0743292011804" lon="15.206297996929823"><ele>504.16666666666663</ele><time>2026-04-26T13:02:11.999Z</time></trkpt><trkpt lat="38.07430890610897" lon="15.20619209004521"><ele>502.3333333333333</ele><time>2026-04-26T13:02:12.999Z</time></trkpt><trkpt lat="38.07428539443332" lon="15.206088936842264"><ele>500.5</ele><time>2026-04-26T13:02:13.999Z</time></trkpt><trkpt lat="38.074267129670226" lon="15.205991473713059"><ele>498.66666666666663</ele><time>2026-04-26T13:02:14.999Z</time></trkpt><trkpt lat="38.07424882487638" lon="15.205889677845297"><ele>496.8333333333333</ele><time>2026-04-26T13:02:15.999Z</time></trkpt><trkpt lat="38.07422644050139" lon="15.20579631583597"><ele>495.0</ele><time>2026-04-26T13:02:16.999Z</time></trkpt><trkpt lat="38.07420160999351" lon="15.20570077974731"><ele>495.8333333333333</ele><time>2026-04-26T13:02:17.999Z</time></trkpt><trkpt lat="38.07418124599731" lon="15.205604827397563"><ele>496.66666666666663</ele><time>2026-04-26T13:02:18.999Z</time></trkpt><trkpt lat="38.074178705197376" lon="15.205508601628706"><ele>497.5</ele><time>2026-04-26T13:02:19.999Z</time></trkpt><trkpt lat="38.07419371009127" lon="15.205417895181142"><ele>498.3333333333333</ele><time>2026-04-26T13:02:20.999Z</time></trkpt><trkpt lat="38.074216444696816" lon="15.205338734684887"><ele>499.16666666666663</ele><time>2026-04-26T13:02:21.999Z</time></trkpt><trkpt lat="38.07430596417814" lon="15.205237935471512"><ele>500.0</ele><time>2026-04-26T13:02:23.999Z</time></trkpt><trkpt lat="38.074366165611856" lon="15.205211764150574"><ele>499.99999999999994</ele><time>2026-04-26T13:02:24.999Z</time></trkpt><trkpt lat="38.074430391870344" lon="15.205185773895481"><ele>500.0</ele><time>2026-04-26T13:02:25.999Z</time></trkpt><trkpt lat="38.07451987561567" lon="15.205194517391185"><ele>500.0</ele><time>2026-04-26T13:02:26.999Z</time></trkpt><trkpt lat="38.0746003481874" lon="15.205191836338889"><ele>500.0</ele><time>2026-04-26T13:02:28Z</time></trkpt><trkpt lat="38.07468268551194" lon="15.205178482820521"><ele>499.99999999999994</ele><time>2026-04-26T13:02:29Z</time></trkpt><trkpt lat="38.07476139095404" lon="15.205179386951496"><ele>500.0</ele><time>2026-04-26T13:02:30Z</time></trkpt><trkpt lat="38.07483474012438" lon="15.205170964341752"><ele>499.99999999999994</ele><time>2026-04-26T13:02:31Z</time></trkpt><trkpt lat="38.07493734122354" lon="15.205166445794903"><ele>500.0</ele><time>2026-04-26T13:02:33Z</time></trkpt><trkpt lat="38.075009451507555" lon="15.205168965597231"><ele>500.0</ele><time>2026-04-26T13:02:36Z</time></trkpt><trkpt lat="38.075079645314815" lon="15.205170138068638"><ele>500.0</ele><time>2026-04-26T13:03:43.999Z</time></trkpt><trkpt lat="38.07514799537235" lon="15.205162251576636"><ele>499.99999999999994</ele><time>2026-04-26T13:04:27.999Z</time></trkpt><trkpt lat="38.075212285169805" lon="15.205222708193833"><ele>500.0</ele><time>2026-04-26T13:05:24Z</time></trkpt><trkpt lat="38.07525529591006" lon="15.205298222128324"><ele>499.99999999999994</ele><time>2026-04-26T13:05:28Z</time></trkpt><trkpt lat="38.07530912680969" lon="15.205364533547838"><ele>500.0</ele><time>2026-04-26T13:05:31Z</time></trkpt><trkpt lat="38.07540006719033" lon="15.205400386593755"><ele>500.0</ele><time>2026-04-26T13:05:33Z</time></trkpt><trkpt lat="38.07552521957529" lon="15.205428787674826"><ele>500.0</ele><time>2026-04-26T13:05:35Z</time></trkpt><trkpt lat="38.07559773086433" lon="15.205452963432883"><ele>499.99999999999994</ele><time>2026-04-26T13:05:36Z</time></trkpt><trkpt lat="38.07567014790512" lon="15.205472955588867"><ele>500.0</ele><time>2026-04-26T13:05:37Z</time></trkpt><trkpt lat="38.07573624854314" lon="15.205497852247007"><ele>499.49999999999994</ele><time>2026-04-26T13:05:38Z</time></trkpt><trkpt lat="38.07581204639018" lon="15.205508770010578"><ele>499.0</ele><time>2026-04-26T13:05:39Z</time></trkpt><trkpt lat="38.0758873613974" lon="15.205513484079002"><ele>498.5</ele><time>2026-04-26T13:05:40Z</time></trkpt><trkpt lat="38.075968609771074" lon="15.20550824249562"><ele>498.0</ele><time>2026-04-26T13:05:41Z</time></trkpt><trkpt lat="38.07603968781948" lon="15.205512333521408"><ele>497.49999999999994</ele><time>2026-04-26T13:05:42Z</time></trkpt><trkpt lat="38.07614128107325" lon="15.205517683294902"><ele>497.0</ele><time>2026-04-26T13:05:44Z</time></trkpt><trkpt lat="38.07620362498767" lon="15.205540003105591"><ele>496.99999999999994</ele><time>2026-04-26T13:05:46.999Z</time></trkpt><trkpt lat="38.07627594007943" lon="15.205617192825764"><ele>497.0</ele><time>2026-04-26T13:06:07.999Z</time></trkpt><trkpt lat="38.07634615795182" lon="15.205641724276454"><ele>497.0</ele><time>2026-04-26T13:06:08.999Z</time></trkpt><trkpt lat="38.07641743642696" lon="15.20566718227143"><ele>497.0</ele><time>2026-04-26T13:06:09.999Z</time></trkpt><trkpt lat="38.076485987106956" lon="15.20569203035672"><ele>496.99999999999994</ele><time>2026-04-26T13:06:10.999Z</time></trkpt><trkpt lat="38.0765769734896" lon="15.20574523662413"><ele>497.0</ele><time>2026-04-26T13:06:12.999Z</time></trkpt><trkpt lat="38.07664206648805" lon="15.205787619584246"><ele>492.42857142857144</ele><time>2026-04-26T13:06:15.999Z</time></trkpt><trkpt lat="38.07657499105833" lon="15.20582026277109"><ele>487.8571428571429</ele><time>2026-04-26T13:06:18.999Z</time></trkpt><trkpt lat="38.07650618473464" lon="15.20579002332801"><ele>483.2857142857143</ele><time>2026-04-26T13:06:20.999Z</time></trkpt><trkpt lat="38.07652292156045" lon="15.205890698472079"><ele>478.7142857142857</ele><time>2026-04-26T13:06:22.999Z</time></trkpt><trkpt lat="38.07659318728983" lon="15.205944469355428"><ele>474.14285714285717</ele><time>2026-04-26T13:06:23.999Z</time></trkpt><trkpt lat="38.07665124455826" lon="15.205980412448657"><ele>469.57142857142856</ele><time>2026-04-26T13:06:24.999Z</time></trkpt><trkpt lat="38.07670833531112" lon="15.206027172641143"><ele>465.0</ele><time>2026-04-26T13:06:25.999Z</time></trkpt><trkpt lat="38.07676841672444" lon="15.206069532922198"><ele>463.85714285714283</ele><time>2026-04-26T13:06:26.999Z</time></trkpt><trkpt lat="38.07683174116821" lon="15.206104630505232"><ele>462.7142857142858</ele><time>2026-04-26T13:06:27.999Z</time></trkpt><trkpt lat="38.07689580564121" lon="15.206142786045593"><ele>461.5714285714286</ele><time>2026-04-26T13:06:28.999Z</time></trkpt><trkpt lat="38.07695571483317" lon="15.206190701431085"><ele>460.42857142857144</ele><time>2026-04-26T13:06:29.999Z</time></trkpt><trkpt lat="38.07701936627683" lon="15.206228390198454"><ele>459.28571428571433</ele><time>2026-04-26T13:06:30.999Z</time></trkpt><trkpt lat="38.07708539355843" lon="15.206272447013339"><ele>458.1428571428572</ele><time>2026-04-26T13:06:31.999Z</time></trkpt><trkpt lat="38.07714914562118" lon="15.206326585354173"><ele>457.00000000000006</ele><time>2026-04-26T13:06:32.999Z</time></trkpt><trkpt lat="38.07722300232718" lon="15.206370645145022"><ele>457.00000000000006</ele><time>2026-04-26T13:06:33.999Z</time></trkpt><trkpt lat="38.07730037226531" lon="15.206423547340544"><ele>457.0</ele><time>2026-04-26T13:06:34.999Z</time></trkpt><trkpt lat="38.07737110138507" lon="15.206488045228799"><ele>457.0</ele><time>2026-04-26T13:06:35.999Z</time></trkpt><trkpt lat="38.077438525838296" lon="15.206564940118295"><ele>457.0</ele><time>2026-04-26T13:06:36.999Z</time></trkpt><trkpt lat="38.077512044566745" lon="15.206621258534183"><ele>457.00000000000006</ele><time>2026-04-26T13:06:37.999Z</time></trkpt><trkpt lat="38.07760607864069" lon="15.206621593512272"><ele>457.0</ele><time>2026-04-26T13:06:38.999Z</time></trkpt><trkpt lat="38.07770818434382" lon="15.206583496755695"><ele>454.0</ele><time>2026-04-26T13:06:40Z</time></trkpt><trkpt lat="38.077793785064074" lon="15.206506582790995"><ele>451.00000000000006</ele><time>2026-04-26T13:06:41Z</time></trkpt><trkpt lat="38.077860578207634" lon="15.206404803655852"><ele>448.00000000000006</ele><time>2026-04-26T13:06:42Z</time></trkpt><trkpt lat="38.07792434589569" lon="15.206313241502688"><ele>445.0</ele><time>2026-04-26T13:06:43Z</time></trkpt><trkpt lat="38.07800570924201" lon="15.206230135997792"><ele>442.0</ele><time>2026-04-26T13:06:44Z</time></trkpt><trkpt lat="38.07809296624385" lon="15.20616731835684"><ele>441.00000000000006</ele><time>2026-04-26T13:06:45Z</time></trkpt><trkpt lat="38.078171493246124" lon="15.206115433243212"><ele>440.0</ele><time>2026-04-26T13:06:46Z</time></trkpt><trkpt lat="38.078247794254864" lon="15.206072126621432"><ele>439.0</ele><time>2026-04-26T13:06:47Z</time></trkpt><trkpt lat="38.07831496973201" lon="15.206042124686293"><ele>438.0</ele><time>2026-04-26T13:06:48Z</time></trkpt><trkpt lat="38.07838561216073" lon="15.206020462060252"><ele>437.00000000000006</ele><time>2026-04-26T13:06:49Z</time></trkpt><trkpt lat="38.078458617999" lon="15.206013666956343"><ele>436.0</ele><time>2026-04-26T13:06:50Z</time></trkpt><trkpt lat="38.07854928014744" lon="15.206012570559466"><ele>434.5</ele><time>2026-04-26T13:06:51Z</time></trkpt><trkpt lat="38.0786527010073" lon="15.20602348774777"><ele>433.0</ele><time>2026-04-26T13:06:52Z</time></trkpt><trkpt lat="38.07876849179698" lon="15.206047504481525"><ele>431.5</ele><time>2026-04-26T13:06:53Z</time></trkpt><trkpt lat="38.07888367033306" lon="15.206094880513657"><ele>430.0</ele><time>2026-04-26T13:06:54Z</time></trkpt><trkpt lat="38.078985214369325" lon="15.206160316688226"><ele>430.0</ele><time>2026-04-26T13:06:55Z</time></trkpt><trkpt lat="38.07907631497624" lon="15.206234959415855"><ele>430.0</ele><time>2026-04-26T13:06:56Z</time></trkpt><trkpt lat="38.07916423527124" lon="15.206292618728988"><ele>430.0</ele><time>2026-04-26T13:06:57Z</time></trkpt><trkpt lat="38.079256238248824" lon="15.206314083842367"><ele>430.0</ele><time>2026-04-26T13:06:58Z</time></trkpt><trkpt lat="38.079361259126706" lon="15.206301906772348"><ele>430.0</ele><time>2026-04-26T13:06:59Z</time></trkpt><trkpt lat="38.07946926507418" lon="15.206251391980105"><ele>429.0</ele><time>2026-04-26T13:07:00Z</time></trkpt><trkpt lat="38.0795774731504" lon="15.20616987209921"><ele>428.0</ele><time>2026-04-26T13:07:01Z</time></trkpt><trkpt lat="38.079682682106" lon="15.206058680705251"><ele>427.0</ele><time>2026-04-26T13:07:02Z</time></trkpt><trkpt lat="38.07977958230203" lon="15.205921771322936"><ele>426.0</ele><time>2026-04-26T13:07:03Z</time></trkpt><trkpt lat="38.07987346617705" lon="15.205781438168037"><ele>423.5</ele><time>2026-04-26T13:07:04Z</time></trkpt><trkpt lat="38.07995539908248" lon="15.205648209178221"><ele>421.0</ele><time>2026-04-26T13:07:05Z</time></trkpt><trkpt lat="38.08002234512788" lon="15.20551982030473"><ele>418.5</ele><time>2026-04-26T13:07:06Z</time></trkpt><trkpt lat="38.08008345415961" lon="15.20539800149927"><ele>416.0</ele><time>2026-04-26T13:07:07Z</time></trkpt><trkpt lat="38.08014233654751" lon="15.2052839823713"><ele>416.0</ele><time>2026-04-26T13:07:08Z</time></trkpt><trkpt lat="38.08019713885702" lon="15.205168771391493"><ele>416.0</ele><time>2026-04-26T13:07:09Z</time></trkpt><trkpt lat="38.08025152763281" lon="15.205044966409105"><ele>416.0</ele><time>2026-04-26T13:07:10Z</time></trkpt><trkpt lat="38.08030846114861" lon="15.204919510465471"><ele>416.0</ele><time>2026-04-26T13:07:11Z</time></trkpt><trkpt lat="38.080364569900645" lon="15.204798609581768"><ele>416.0</ele><time>2026-04-26T13:07:12Z</time></trkpt><trkpt lat="38.080420320948186" lon="15.204692615759019"><ele>415.4</ele><time>2026-04-26T13:07:13Z</time></trkpt><trkpt lat="38.080481416198126" lon="15.204590835332246"><ele>414.8</ele><time>2026-04-26T13:07:14Z</time></trkpt><trkpt lat="38.08054005001853" lon="15.204494943574653"><ele>414.2</ele><time>2026-04-26T13:07:15Z</time></trkpt><trkpt lat="38.080613831431506" lon="15.204412932134554"><ele>413.59999999999997</ele><time>2026-04-26T13:07:16Z</time></trkpt><trkpt lat="38.080711301794004" lon="15.204356164888926"><ele>413.0</ele><time>2026-04-26T13:07:17Z</time></trkpt><trkpt lat="38.08082275407838" lon="15.204315456468139"><ele>413.0</ele><time>2026-04-26T13:07:18Z</time></trkpt><trkpt lat="38.080930350359694" lon="15.204259980411829"><ele>413.0</ele><time>2026-04-26T13:07:19Z</time></trkpt><trkpt lat="38.081028767692736" lon="15.204204495278418"><ele>413.0</ele><time>2026-04-26T13:07:20Z</time></trkpt><trkpt lat="38.08112323658382" lon="15.20414668147667"><ele>413.0</ele><time>2026-04-26T13:07:21Z</time></trkpt><trkpt lat="38.081212843505966" lon="15.20408722694934"><ele>413.0</ele><time>2026-04-26T13:07:22Z</time></trkpt><trkpt lat="38.08129841701951" lon="15.204018880836859"><ele>410.5</ele><time>2026-04-26T13:07:23Z</time></trkpt><trkpt lat="38.08138590984635" lon="15.203931723608923"><ele>408.0</ele><time>2026-04-26T13:07:24Z</time></trkpt><trkpt lat="38.08146472094729" lon="15.203824793431245"><ele>405.5</ele><time>2026-04-26T13:07:25Z</time></trkpt><trkpt lat="38.081533050916356" lon="15.203699232314085"><ele>403.0</ele><time>2026-04-26T13:07:26Z</time></trkpt><trkpt lat="38.08159200089237" lon="15.203569821417974"><ele>403.0</ele><time>2026-04-26T13:07:27Z</time></trkpt><trkpt lat="38.081647229708096" lon="15.203430085477706"><ele>403.0</ele><time>2026-04-26T13:07:28Z</time></trkpt><trkpt lat="38.081690754154145" lon="15.203289554398793"><ele>403.0</ele><time>2026-04-26T13:07:29Z</time></trkpt><trkpt lat="38.081731232081964" lon="15.203154586007795"><ele>403.0</ele><time>2026-04-26T13:07:30Z</time></trkpt><trkpt lat="38.08177739004258" lon="15.203023593082955"><ele>401.4</ele><time>2026-04-26T13:07:31Z</time></trkpt><trkpt lat="38.081825324653984" lon="15.202898112519"><ele>399.79999999999995</ele><time>2026-04-26T13:07:32Z</time></trkpt><trkpt lat="38.08187467159563" lon="15.202784660610426"><ele>398.2</ele><time>2026-04-26T13:07:33Z</time></trkpt><trkpt lat="38.08193001003422" lon="15.202681529562744"><ele>396.6</ele><time>2026-04-26T13:07:34Z</time></trkpt><trkpt lat="38.08200197579156" lon="15.20259052732221"><ele>395.0</ele><time>2026-04-26T13:07:35Z</time></trkpt><trkpt lat="38.08208160845721" lon="15.202515040124982"><ele>395.0</ele><time>2026-04-26T13:07:36Z</time></trkpt><trkpt lat="38.082161718784846" lon="15.20242134700666"><ele>395.0</ele><time>2026-04-26T13:07:37Z</time></trkpt><trkpt lat="38.082238638885855" lon="15.202333574439221"><ele>395.0</ele><time>2026-04-26T13:07:38Z</time></trkpt><trkpt lat="38.08232441544686" lon="15.202252029275117"><ele>395.0</ele><time>2026-04-26T13:07:39Z</time></trkpt><trkpt lat="38.08240345632599" lon="15.202164372676219"><ele>395.0</ele><time>2026-04-26T13:07:40Z</time></trkpt><trkpt lat="38.0824888033271" lon="15.202073363139872"><ele>392.4</ele><time>2026-04-26T13:07:41Z</time></trkpt><trkpt lat="38.082571961706655" lon="15.201990988829023"><ele>389.8</ele><time>2026-04-26T13:07:42Z</time></trkpt><trkpt lat="38.08265593615816" lon="15.201903333958684"><ele>387.20000000000005</ele><time>2026-04-26T13:07:43Z</time></trkpt><trkpt lat="38.08274107366263" lon="15.201829531657467"><ele>384.6</ele><time>2026-04-26T13:07:44Z</time></trkpt><trkpt lat="38.082830976177966" lon="15.201767578873392"><ele>382.0</ele><time>2026-04-26T13:07:45Z</time></trkpt><trkpt lat="38.08291889250365" lon="15.201718445893215"><ele>382.0</ele><time>2026-04-26T13:07:46Z</time></trkpt><trkpt lat="38.083005159594286" lon="15.201699158750902"><ele>382.0</ele><time>2026-04-26T13:07:47Z</time></trkpt><trkpt lat="38.08310325633025" lon="15.20170997809555"><ele>382.0</ele><time>2026-04-26T13:07:48Z</time></trkpt><trkpt lat="38.08318241023826" lon="15.201763459074973"><ele>382.0</ele><time>2026-04-26T13:07:49Z</time></trkpt><trkpt lat="38.08324287338097" lon="15.201831708780132"><ele>382.0</ele><time>2026-04-26T13:07:50Z</time></trkpt><trkpt lat="38.0833245613138" lon="15.201849056160032"><ele>382.0</ele><time>2026-04-26T13:07:51Z</time></trkpt><trkpt lat="38.083421271349465" lon="15.201832249026685"><ele>381.8</ele><time>2026-04-26T13:07:52Z</time></trkpt><trkpt lat="38.08351290362824" lon="15.201827264841661"><ele>381.6</ele><time>2026-04-26T13:07:53Z</time></trkpt><trkpt lat="38.08359619501367" lon="15.201844744217205"><ele>381.40000000000003</ele><time>2026-04-26T13:07:54Z</time></trkpt><trkpt lat="38.08367768151853" lon="15.201878158686027"><ele>381.20000000000005</ele><time>2026-04-26T13:07:55Z</time></trkpt><trkpt lat="38.08375898021836" lon="15.201937050803348"><ele>381.0</ele><time>2026-04-26T13:07:56Z</time></trkpt><trkpt lat="38.08386068348418" lon="15.201979063490802"><ele>381.0</ele><time>2026-04-26T13:07:57Z</time></trkpt><trkpt lat="38.0839703225678" lon="15.202025434542492"><ele>381.0</ele><time>2026-04-26T13:07:58Z</time></trkpt><trkpt lat="38.08407058697288" lon="15.202091710389846"><ele>381.0</ele><time>2026-04-26T13:07:59Z</time></trkpt><trkpt lat="38.084168992372" lon="15.202146998700815"><ele>381.0</ele><time>2026-04-26T13:08:00Z</time></trkpt><trkpt lat="38.0842774643294" lon="15.202175622874972"><ele>381.0</ele><time>2026-04-26T13:08:01Z</time></trkpt><trkpt lat="38.08439053047299" lon="15.20218107226817"><ele>379.8</ele><time>2026-04-26T13:08:02Z</time></trkpt><trkpt lat="38.084490290815026" lon="15.202171421900568"><ele>378.6</ele><time>2026-04-26T13:08:03Z</time></trkpt><trkpt lat="38.08458147340596" lon="15.202164332664742"><ele>377.4</ele><time>2026-04-26T13:08:04Z</time></trkpt><trkpt lat="38.08467502697383" lon="15.202158188325749"><ele>376.2</ele><time>2026-04-26T13:08:05Z</time></trkpt><trkpt lat="38.08476769825176" lon="15.202148887711644"><ele>375.0</ele><time>2026-04-26T13:08:06Z</time></trkpt><trkpt lat="38.084863875082426" lon="15.202138040460904"><ele>372.8</ele><time>2026-04-26T13:08:07Z</time></trkpt><trkpt lat="38.084954648734644" lon="15.202120587405707"><ele>370.6</ele><time>2026-04-26T13:08:08Z</time></trkpt><trkpt lat="38.08505005831846" lon="15.20209585708963"><ele>368.4</ele><time>2026-04-26T13:08:09Z</time></trkpt><trkpt lat="38.08515842565513" lon="15.202054261968064"><ele>366.2</ele><time>2026-04-26T13:08:10Z</time></trkpt><trkpt lat="38.08527860024052" lon="15.202006929676564"><ele>364.0</ele><time>2026-04-26T13:08:11Z</time></trkpt><trkpt lat="38.08540008402979" lon="15.201965776528883"><ele>364.0</ele><time>2026-04-26T13:08:12Z</time></trkpt><trkpt lat="38.08551416930352" lon="15.201940594876428"><ele>364.0</ele><time>2026-04-26T13:08:13Z</time></trkpt><trkpt lat="38.08562773806096" lon="15.201937302011153"><ele>364.0</ele><time>2026-04-26T13:08:13.999Z</time></trkpt><trkpt lat="38.085738080781816" lon="15.201954497013363"><ele>364.0</ele><time>2026-04-26T13:08:14.999Z</time></trkpt><trkpt lat="38.08584335454882" lon="15.201956580142854"><ele>364.0</ele><time>2026-04-26T13:08:15.999Z</time></trkpt><trkpt lat="38.08595348733664" lon="15.201913092323688"><ele>362.25</ele><time>2026-04-26T13:08:16.999Z</time></trkpt><trkpt lat="38.08606210601042" lon="15.2018507236402"><ele>360.5</ele><time>2026-04-26T13:08:17.999Z</time></trkpt><trkpt lat="38.08616394302799" lon="15.201791434154194"><ele>358.75</ele><time>2026-04-26T13:08:18.999Z</time></trkpt><trkpt lat="38.086262249654865" lon="15.201736854472122"><ele>357.0</ele><time>2026-04-26T13:08:19.999Z</time></trkpt><trkpt lat="38.08636594490076" lon="15.201681432747169"><ele>357.0</ele><time>2026-04-26T13:08:20.999Z</time></trkpt><trkpt lat="38.08647079603528" lon="15.201623670596252"><ele>357.0</ele><time>2026-04-26T13:08:21.999Z</time></trkpt><trkpt lat="38.08658385612731" lon="15.201563999467206"><ele>357.0</ele><time>2026-04-26T13:08:22.999Z</time></trkpt><trkpt lat="38.08669304594171" lon="15.201518124062437"><ele>357.0</ele><time>2026-04-26T13:08:23.999Z</time></trkpt><trkpt lat="38.086804118297486" lon="15.201490820704604"><ele>353.0</ele><time>2026-04-26T13:08:24.999Z</time></trkpt><trkpt lat="38.086918953141584" lon="15.201478344047842"><ele>349.0</ele><time>2026-04-26T13:08:25.999Z</time></trkpt><trkpt lat="38.08703598913105" lon="15.201483339735077"><ele>345.0</ele><time>2026-04-26T13:08:26.999Z</time></trkpt><trkpt lat="38.0871497547793" lon="15.201484097778827"><ele>341.0</ele><time>2026-04-26T13:08:27.999Z</time></trkpt><trkpt lat="38.087262503093385" lon="15.201484411817026"><ele>341.0</ele><time>2026-04-26T13:08:28.999Z</time></trkpt><trkpt lat="38.087369812761274" lon="15.201478534962071"><ele>341.0</ele><time>2026-04-26T13:08:29.999Z</time></trkpt><trkpt lat="38.08747522048377" lon="15.20144679178978"><ele>341.0</ele><time>2026-04-26T13:08:30.999Z</time></trkpt><trkpt lat="38.0875799919932" lon="15.201371364156232"><ele>341.0</ele><time>2026-04-26T13:08:31.999Z</time></trkpt><trkpt lat="38.08767834773195" lon="15.201266914905467"><ele>341.0</ele><time>2026-04-26T13:08:32.999Z</time></trkpt><trkpt lat="38.08777555005512" lon="15.201146901014669"><ele>341.0</ele><time>2026-04-26T13:08:33.999Z</time></trkpt><trkpt lat="38.087878046600146" lon="15.201026379412163"><ele>341.0</ele><time>2026-04-26T13:08:34.999Z</time></trkpt><trkpt lat="38.087987889005454" lon="15.200906046150209"><ele>341.0</ele><time>2026-04-26T13:08:35.999Z</time></trkpt><trkpt lat="38.08810136546446" lon="15.200783712894394"><ele>339.25</ele><time>2026-04-26T13:08:36.999Z</time></trkpt><trkpt lat="38.088212585034235" lon="15.20066279721572"><ele>337.5</ele><time>2026-04-26T13:08:37.999Z</time></trkpt><trkpt lat="38.08831511978164" lon="15.200554453452273"><ele>335.75</ele><time>2026-04-26T13:08:38.999Z</time></trkpt><trkpt lat="38.08841426885942" lon="15.200445003154327"><ele>334.0</ele><time>2026-04-26T13:08:39.999Z</time></trkpt><trkpt lat="38.08850754955395" lon="15.200342508607578"><ele>334.0</ele><time>2026-04-26T13:08:40.999Z</time></trkpt><trkpt lat="38.08859993096317" lon="15.200239445090753"><ele>334.0</ele><time>2026-04-26T13:08:41.999Z</time></trkpt><trkpt lat="38.08869397295664" lon="15.20014566535061"><ele>334.0</ele><time>2026-04-26T13:08:42.999Z</time></trkpt><trkpt lat="38.08878568394515" lon="15.200064657680622"><ele>334.0</ele><time>2026-04-26T13:08:43.999Z</time></trkpt><trkpt lat="38.08888203418394" lon="15.199993540890787"><ele>334.0</ele><time>2026-04-26T13:08:44.999Z</time></trkpt><trkpt lat="38.08898681861135" lon="15.199923281874431"><ele>334.0</ele><time>2026-04-26T13:08:46Z</time></trkpt><trkpt lat="38.08907294300883" lon="15.199883568051295"><ele>334.0</ele><time>2026-04-26T13:08:47Z</time></trkpt><trkpt lat="38.089138547378326" lon="15.19986097755446"><ele>334.0</ele><time>2026-04-26T13:08:48Z</time></trkpt><trkpt lat="38.08920915490744" lon="15.19984009003955"><ele>334.0</ele><time>2026-04-26T13:08:50Z</time></trkpt><trkpt lat="38.08927628858804" lon="15.199791427702817"><ele>334.0</ele><time>2026-04-26T13:08:53Z</time></trkpt><trkpt lat="38.08930627709239" lon="15.199709035107793"><ele>332.66666666666663</ele><time>2026-04-26T13:08:57Z</time></trkpt><trkpt lat="38.08923354025797" lon="15.199670028540629"><ele>331.3333333333333</ele><time>2026-04-26T13:09:00Z</time></trkpt><trkpt lat="38.089162735878475" lon="15.199630582535528"><ele>330.0</ele><time>2026-04-26T13:09:02Z</time></trkpt><trkpt lat="38.08904218391789" lon="15.199658591994663"><ele>328.6666666666667</ele><time>2026-04-26T13:09:04Z</time></trkpt><trkpt lat="38.088971838391416" lon="15.199696470424234"><ele>327.33333333333337</ele><time>2026-04-26T13:09:05Z</time></trkpt><trkpt lat="38.088903428735605" lon="15.199733595698678"><ele>326.0</ele><time>2026-04-26T13:09:06Z</time></trkpt><trkpt lat="38.08882903144228" lon="15.199766463871228"><ele>325.5</ele><time>2026-04-26T13:09:07Z</time></trkpt><trkpt lat="38.08874878773668" lon="15.199779568426548"><ele>325.0</ele><time>2026-04-26T13:09:08Z</time></trkpt><trkpt lat="38.08866980121544" lon="15.199766019119611"><ele>324.5</ele><time>2026-04-26T13:09:09Z</time></trkpt><trkpt lat="38.0885869934037" lon="15.19974223257379"><ele>324.0</ele><time>2026-04-26T13:09:10Z</time></trkpt><trkpt lat="38.08850788566361" lon="15.199709750661466"><ele>323.5</ele><time>2026-04-26T13:09:11Z</time></trkpt><trkpt lat="38.08842589408254" lon="15.199655633754224"><ele>323.0</ele><time>2026-04-26T13:09:12Z</time></trkpt><trkpt lat="38.08834293121042" lon="15.199582071253378"><ele>323.0</ele><time>2026-04-26T13:09:13Z</time></trkpt><trkpt lat="38.08826246182813" lon="15.199510293012759"><ele>323.0</ele><time>2026-04-26T13:09:14Z</time></trkpt><trkpt lat="38.088180173537886" lon="15.199442529303614"><ele>323.0</ele><time>2026-04-26T13:09:15Z</time></trkpt><trkpt lat="38.088101195030355" lon="15.199374405881668"><ele>323.0</ele><time>2026-04-26T13:09:16Z</time></trkpt><trkpt lat="38.08802172663927" lon="15.19930616769515"><ele>323.0</ele><time>2026-04-26T13:09:17Z</time></trkpt><trkpt lat="38.08793797428003" lon="15.199234563051354"><ele>322.2</ele><time>2026-04-26T13:09:18Z</time></trkpt><trkpt lat="38.08785533953947" lon="15.199161556537224"><ele>321.4</ele><time>2026-04-26T13:09:19Z</time></trkpt><trkpt lat="38.08777672576465" lon="15.199087706987571"><ele>320.59999999999997</ele><time>2026-04-26T13:09:20Z</time></trkpt><trkpt lat="38.08769170076118" lon="15.19901606315938"><ele>319.79999999999995</ele><time>2026-04-26T13:09:21Z</time></trkpt><trkpt lat="38.08761269133595" lon="15.198950235780414"><ele>319.0</ele><time>2026-04-26T13:09:22Z</time></trkpt><trkpt lat="38.08753211440933" lon="15.19887241801476"><ele>316.4</ele><time>2026-04-26T13:09:23Z</time></trkpt><trkpt lat="38.08745088236402" lon="15.198796553925922"><ele>313.79999999999995</ele><time>2026-04-26T13:09:24Z</time></trkpt><trkpt lat="38.08737022285806" lon="15.198726498493574"><ele>311.20000000000005</ele><time>2026-04-26T13:09:25Z</time></trkpt><trkpt lat="38.087285361021266" lon="15.198664169871215"><ele>308.6</ele><time>2026-04-26T13:09:26Z</time></trkpt><trkpt lat="38.087198227641764" lon="15.198609635173298"><ele>306.0</ele><time>2026-04-26T13:09:27Z</time></trkpt><trkpt lat="38.087104349184514" lon="15.198564699362011"><ele>305.75</ele><time>2026-04-26T13:09:28Z</time></trkpt><trkpt lat="38.08699326663843" lon="15.198545706593338"><ele>305.5</ele><time>2026-04-26T13:09:29Z</time></trkpt><trkpt lat="38.086877157742705" lon="15.198539224263898"><ele>305.25</ele><time>2026-04-26T13:09:30Z</time></trkpt><trkpt lat="38.08676463589872" lon="15.198504895970188"><ele>305.0</ele><time>2026-04-26T13:09:31Z</time></trkpt><trkpt lat="38.08665331017372" lon="15.198450691454498"><ele>306.0</ele><time>2026-04-26T13:09:32Z</time></trkpt><trkpt lat="38.086548754713945" lon="15.198389001861964"><ele>307.0</ele><time>2026-04-26T13:09:33Z</time></trkpt><trkpt lat="38.08645369743149" lon="15.19832673111367"><ele>308.0</ele><time>2026-04-26T13:09:34Z</time></trkpt><trkpt lat="38.08636906360458" lon="15.198246743823661"><ele>309.0</ele><time>2026-04-26T13:09:35Z</time></trkpt><trkpt lat="38.086297757431666" lon="15.19813936120103"><ele>310.0</ele><time>2026-04-26T13:09:36Z</time></trkpt><trkpt lat="38.08624289868903" lon="15.198021378391559"><ele>308.0</ele><time>2026-04-26T13:09:37Z</time></trkpt><trkpt lat="38.08618576170009" lon="15.197896254071791"><ele>306.0</ele><time>2026-04-26T13:09:38Z</time></trkpt><trkpt lat="38.086124111438934" lon="15.197784995322342"><ele>304.0</ele><time>2026-04-26T13:09:39Z</time></trkpt><trkpt lat="38.086058830047406" lon="15.197680664716506"><ele>302.0</ele><time>2026-04-26T13:09:40Z</time></trkpt><trkpt lat="38.08599660076818" lon="15.197585220941857"><ele>300.0</ele><time>2026-04-26T13:09:41Z</time></trkpt><trkpt lat="38.08593271794349" lon="15.197498229200866"><ele>300.0</ele><time>2026-04-26T13:09:42Z</time></trkpt><trkpt lat="38.08587325683178" lon="15.19741758000435"><ele>300.0</ele><time>2026-04-26T13:09:43Z</time></trkpt><trkpt lat="38.08581332915803" lon="15.197340172423807"><ele>300.0</ele><time>2026-04-26T13:09:44Z</time></trkpt><trkpt lat="38.08575130396375" lon="15.197270733686558"><ele>300.0</ele><time>2026-04-26T13:09:45Z</time></trkpt><trkpt lat="38.085690864430354" lon="15.197202642822996"><ele>300.0</ele><time>2026-04-26T13:09:46Z</time></trkpt><trkpt lat="38.08565943126646" lon="15.197129333614788"><ele>300.0</ele><time>2026-04-26T13:09:47Z</time></trkpt><trkpt lat="38.085656592969215" lon="15.197033189699086"><ele>297.0</ele><time>2026-04-26T13:09:48Z</time></trkpt><trkpt lat="38.085670963790406" lon="15.196928262304084"><ele>294.0</ele><time>2026-04-26T13:09:49Z</time></trkpt><trkpt lat="38.08568488631387" lon="15.196805898891101"><ele>291.0</ele><time>2026-04-26T13:09:50Z</time></trkpt><trkpt lat="38.085701310531576" lon="15.19668219937097"><ele>288.0</ele><time>2026-04-26T13:09:51Z</time></trkpt><trkpt lat="38.085716412826116" lon="15.19655949293329"><ele>285.0</ele><time>2026-04-26T13:09:52Z</time></trkpt><trkpt lat="38.08572784263649" lon="15.196437967124332"><ele>284.4</ele><time>2026-04-26T13:09:53Z</time></trkpt><trkpt lat="38.08573504374086" lon="15.196311951735334"><ele>283.8</ele><time>2026-04-26T13:09:54Z</time></trkpt><trkpt lat="38.08573945482569" lon="15.196190165612354"><ele>283.2</ele><time>2026-04-26T13:09:55Z</time></trkpt><trkpt lat="38.08574670587608" lon="15.196071249585868"><ele>282.6</ele><time>2026-04-26T13:09:56Z</time></trkpt><trkpt lat="38.085758427878616" lon="15.195952204250874"><ele>282.0</ele><time>2026-04-26T13:09:57Z</time></trkpt><trkpt lat="38.08576646812137" lon="15.195831634900532"><ele>282.0</ele><time>2026-04-26T13:09:58Z</time></trkpt><trkpt lat="38.08577541674305" lon="15.195722951723132"><ele>282.0</ele><time>2026-04-26T13:09:59Z</time></trkpt><trkpt lat="38.08578391139298" lon="15.195602094690479"><ele>282.0</ele><time>2026-04-26T13:10:00Z</time></trkpt><trkpt lat="38.08578756163444" lon="15.195480952686781"><ele>282.0</ele><time>2026-04-26T13:10:01Z</time></trkpt><trkpt lat="38.08579051330702" lon="15.195363642603747"><ele>282.0</ele><time>2026-04-26T13:10:02Z</time></trkpt><trkpt lat="38.0857928946796" lon="15.195229860932033"><ele>280.6</ele><time>2026-04-26T13:10:03Z</time></trkpt><trkpt lat="38.0858015625303" lon="15.195090310754958"><ele>279.2</ele><time>2026-04-26T13:10:04Z</time></trkpt><trkpt lat="38.08581779578348" lon="15.194959335605079"><ele>277.8</ele><time>2026-04-26T13:10:05Z</time></trkpt><trkpt lat="38.08582804818009" lon="15.194821415711207"><ele>276.4</ele><time>2026-04-26T13:10:06Z</time></trkpt><trkpt lat="38.085840045056024" lon="15.194704282531516"><ele>275.0</ele><time>2026-04-26T13:10:07Z</time></trkpt><trkpt lat="38.08584861996035" lon="15.194585638301518"><ele>273.6</ele><time>2026-04-26T13:10:08Z</time></trkpt><trkpt lat="38.08584750956599" lon="15.194469887431541"><ele>272.2</ele><time>2026-04-26T13:10:09Z</time></trkpt><trkpt lat="38.08583974781084" lon="15.194353362491174"><ele>270.8</ele><time>2026-04-26T13:10:10Z</time></trkpt><trkpt lat="38.08582708052438" lon="15.19424086241472"><ele>269.4</ele><time>2026-04-26T13:10:11Z</time></trkpt><trkpt lat="38.0858137884565" lon="15.194117278747251"><ele>268.0</ele><time>2026-04-26T13:10:12Z</time></trkpt><trkpt lat="38.085805349881284" lon="15.193993139076092"><ele>267.2</ele><time>2026-04-26T13:10:13Z</time></trkpt><trkpt lat="38.08580239516283" lon="15.193867206893067"><ele>266.4</ele><time>2026-04-26T13:10:14Z</time></trkpt><trkpt lat="38.08579391358693" lon="15.193734493711874"><ele>265.59999999999997</ele><time>2026-04-26T13:10:15Z</time></trkpt><trkpt lat="38.0857787852974" lon="15.19359569380327"><ele>264.8</ele><time>2026-04-26T13:10:16Z</time></trkpt><trkpt lat="38.085747207497846" lon="15.193475273195627"><ele>264.0</ele><time>2026-04-26T13:10:17Z</time></trkpt><trkpt lat="38.08569995552605" lon="15.193363099755912"><ele>262.0</ele><time>2026-04-26T13:10:18Z</time></trkpt><trkpt lat="38.08564909938879" lon="15.193265779165145"><ele>260.0</ele><time>2026-04-26T13:10:19Z</time></trkpt><trkpt lat="38.08560201882803" lon="15.193165177664032"><ele>258.0</ele><time>2026-04-26T13:10:20Z</time></trkpt><trkpt lat="38.085549171808026" lon="15.193055230120468"><ele>256.0</ele><time>2026-04-26T13:10:20.999Z</time></trkpt><trkpt lat="38.08550986798568" lon="15.192964621975966"><ele>254.0</ele><time>2026-04-26T13:10:21.999Z</time></trkpt><trkpt lat="38.08546843421312" lon="15.19287484215256"><ele>252.0</ele><time>2026-04-26T13:10:22.999Z</time></trkpt><trkpt lat="38.085434915442974" lon="15.192770826058059"><ele>252.0</ele><time>2026-04-26T13:10:23.999Z</time></trkpt><trkpt lat="38.08541297733447" lon="15.192657821943037"><ele>252.0</ele><time>2026-04-26T13:10:24.999Z</time></trkpt><trkpt lat="38.085388070274924" lon="15.192539153701452"><ele>252.0</ele><time>2026-04-26T13:10:25.999Z</time></trkpt><trkpt lat="38.08536774275668" lon="15.192422525912592"><ele>252.0</ele><time>2026-04-26T13:10:26.999Z</time></trkpt><trkpt lat="38.08534284170607" lon="15.192314924320025"><ele>252.0</ele><time>2026-04-26T13:10:27.999Z</time></trkpt><trkpt lat="38.085316268874664" lon="15.192213603375475"><ele>251.0</ele><time>2026-04-26T13:10:28.999Z</time></trkpt><trkpt lat="38.085280529530756" lon="15.192116414974782"><ele>250.0</ele><time>2026-04-26T13:10:29.999Z</time></trkpt><trkpt lat="38.08524189594726" lon="15.192023788933195"><ele>249.0</ele><time>2026-04-26T13:10:30.999Z</time></trkpt><trkpt lat="38.08520059267111" lon="15.191932974122935"><ele>248.0</ele><time>2026-04-26T13:10:31.999Z</time></trkpt><trkpt lat="38.08515140929755" lon="15.191830306648072"><ele>247.0</ele><time>2026-04-26T13:10:32.999Z</time></trkpt><trkpt lat="38.085098023608516" lon="15.191724373920325"><ele>246.0</ele><time>2026-04-26T13:10:33.999Z</time></trkpt><trkpt lat="38.0850434584251" lon="15.19159265915742"><ele>245.0</ele><time>2026-04-26T13:10:34.999Z</time></trkpt><trkpt lat="38.0850265637044" lon="15.191457563438277"><ele>244.00000000000003</ele><time>2026-04-26T13:10:35.999Z</time></trkpt><trkpt lat="38.085022545205845" lon="15.191328635709521"><ele>243.00000000000003</ele><time>2026-04-26T13:10:36.999Z</time></trkpt><trkpt lat="38.085013039030464" lon="15.191216618877974"><ele>242.0</ele><time>2026-04-26T13:10:37.999Z</time></trkpt><trkpt lat="38.08498855945177" lon="15.191079239197098"><ele>241.0</ele><time>2026-04-26T13:10:38.999Z</time></trkpt><trkpt lat="38.084949258648884" lon="15.190958685208042"><ele>239.33333333333331</ele><time>2026-04-26T13:10:39.999Z</time></trkpt><trkpt lat="38.084905975911234" lon="15.190859146942344"><ele>237.66666666666666</ele><time>2026-04-26T13:10:40.999Z</time></trkpt><trkpt lat="38.08487331278126" lon="15.190761956332699"><ele>236.0</ele><time>2026-04-26T13:10:41.999Z</time></trkpt><trkpt lat="38.084844207144826" lon="15.19067170479872"><ele>234.33333333333331</ele><time>2026-04-26T13:10:42.999Z</time></trkpt><trkpt lat="38.08481344349831" lon="15.190585847773884"><ele>232.66666666666666</ele><time>2026-04-26T13:10:43.999Z</time></trkpt><trkpt lat="38.08478104208238" lon="15.190507116030604"><ele>231.0</ele><time>2026-04-26T13:10:44.999Z</time></trkpt><trkpt lat="38.08474657952951" lon="15.190416441626414"><ele>231.0</ele><time>2026-04-26T13:10:45.999Z</time></trkpt><trkpt lat="38.08470316312734" lon="15.190346054714961"><ele>231.0</ele><time>2026-04-26T13:10:46.999Z</time></trkpt><trkpt lat="38.08464865563066" lon="15.190305360060501"><ele>231.0</ele><time>2026-04-26T13:10:47.999Z</time></trkpt><trkpt lat="38.0845812001762" lon="15.190298373909972"><ele>231.0</ele><time>2026-04-26T13:10:48.999Z</time></trkpt><trkpt lat="38.084510233692164" lon="15.190312824490116"><ele>231.0</ele><time>2026-04-26T13:10:49.999Z</time></trkpt><trkpt lat="38.08442700366022" lon="15.19034956730167"><ele>231.0</ele><time>2026-04-26T13:10:50.999Z</time></trkpt><trkpt lat="38.084345235521276" lon="15.190384352217212"><ele>231.0</ele><time>2026-04-26T13:10:52Z</time></trkpt><trkpt lat="38.08425217744683" lon="15.190417975152851"><ele>231.0</ele><time>2026-04-26T13:10:53Z</time></trkpt><trkpt lat="38.084167265395486" lon="15.190447592342027"><ele>231.00000000000003</ele><time>2026-04-26T13:10:54Z</time></trkpt><trkpt lat="38.08408177821001" lon="15.190464094252187"><ele>231.00000000000003</ele><time>2026-04-26T13:10:55Z</time></trkpt><trkpt lat="38.08398420930637" lon="15.190471892119414"><ele>231.0</ele><time>2026-04-26T13:10:56Z</time></trkpt><trkpt lat="38.0838708956693" lon="15.190479697768936"><ele>231.0</ele><time>2026-04-26T13:10:57Z</time></trkpt><trkpt lat="38.08374023163275" lon="15.190487586410123"><ele>227.0</ele><time>2026-04-26T13:10:58Z</time></trkpt><trkpt lat="38.08361191390497" lon="15.19048553075669"><ele>223.00000000000003</ele><time>2026-04-26T13:10:59Z</time></trkpt><trkpt lat="38.08349879604791" lon="15.190464683327516"><ele>219.0</ele><time>2026-04-26T13:11:00Z</time></trkpt><trkpt lat="38.08340579298492" lon="15.190444971502975"><ele>215.0</ele><time>2026-04-26T13:11:01Z</time></trkpt><trkpt lat="38.083334217583214" lon="15.190423516196311"><ele>211.0</ele><time>2026-04-26T13:11:02Z</time></trkpt><trkpt lat="38.08327639633064" lon="15.190370701805811"><ele>208.0</ele><time>2026-04-26T13:11:03Z</time></trkpt><trkpt lat="38.0831967649083" lon="15.190290737567391"><ele>205.0</ele><time>2026-04-26T13:11:04Z</time></trkpt><trkpt lat="38.083107699180154" lon="15.190214183519519"><ele>202.0</ele><time>2026-04-26T13:11:05Z</time></trkpt><trkpt lat="38.0830326091303" lon="15.190176663633713"><ele>199.0</ele><time>2026-04-26T13:11:06Z</time></trkpt><trkpt lat="38.08293267272555" lon="15.190154988484146"><ele>196.0</ele><time>2026-04-26T13:11:07Z</time></trkpt><trkpt lat="38.08282796154273" lon="15.190165372270437"><ele>196.0</ele><time>2026-04-26T13:11:08Z</time></trkpt><trkpt lat="38.08271666149923" lon="15.190183225597854"><ele>196.0</ele><time>2026-04-26T13:11:09Z</time></trkpt><trkpt lat="38.08261367382692" lon="15.190196145776072"><ele>196.0</ele><time>2026-04-26T13:11:10Z</time></trkpt><trkpt lat="38.08250983820048" lon="15.190211783983038"><ele>196.0</ele><time>2026-04-26T13:11:11Z</time></trkpt><trkpt lat="38.08241285890367" lon="15.190226186487793"><ele>196.0</ele><time>2026-04-26T13:11:12Z</time></trkpt><trkpt lat="38.08230951312954" lon="15.19023942995591"><ele>194.4</ele><time>2026-04-26T13:11:13Z</time></trkpt><trkpt lat="38.08219564462693" lon="15.19026670667228"><ele>192.8</ele><time>2026-04-26T13:11:14Z</time></trkpt><trkpt lat="38.08207933790738" lon="15.190295498295752"><ele>191.20000000000002</ele><time>2026-04-26T13:11:15Z</time></trkpt><trkpt lat="38.081964615992085" lon="15.190319926211398"><ele>189.60000000000002</ele><time>2026-04-26T13:11:16Z</time></trkpt><trkpt lat="38.0818713824135" lon="15.190348219889243"><ele>188.0</ele><time>2026-04-26T13:11:17Z</time></trkpt><trkpt lat="38.081788740025154" lon="15.190374878338243"><ele>188.0</ele><time>2026-04-26T13:11:18Z</time></trkpt><trkpt lat="38.08170884307894" lon="15.190372376015032"><ele>188.0</ele><time>2026-04-26T13:11:19Z</time></trkpt><trkpt lat="38.081642206567935" lon="15.190336250101508"><ele>188.0</ele><time>2026-04-26T13:11:20Z</time></trkpt><trkpt lat="38.08159737180086" lon="15.19027738649643"><ele>188.0</ele><time>2026-04-26T13:11:21Z</time></trkpt><trkpt lat="38.081536821234174" lon="15.190178129611649"><ele>188.0</ele><time>2026-04-26T13:11:23Z</time></trkpt><trkpt lat="38.08145120961775" lon="15.190093786792165"><ele>188.0</ele><time>2026-04-26T13:11:25Z</time></trkpt><trkpt lat="38.081407522135635" lon="15.190018323883562"><ele>187.4</ele><time>2026-04-26T13:11:26Z</time></trkpt><trkpt lat="38.08136755112633" lon="15.189946560670478"><ele>186.8</ele><time>2026-04-26T13:11:27Z</time></trkpt><trkpt lat="38.08129160735074" lon="15.18984822687633"><ele>186.2</ele><time>2026-04-26T13:11:28Z</time></trkpt><trkpt lat="38.08123856076336" lon="15.189757775636348"><ele>185.6</ele><time>2026-04-26T13:11:29Z</time></trkpt><trkpt lat="38.08117201354969" lon="15.189659068507567"><ele>185.0</ele><time>2026-04-26T13:11:30Z</time></trkpt><trkpt lat="38.081120817221674" lon="15.189569938047576"><ele>185.0</ele><time>2026-04-26T13:11:31Z</time></trkpt><trkpt lat="38.081058527977255" lon="15.189480510409965"><ele>185.0</ele><time>2026-04-26T13:11:32Z</time></trkpt><trkpt lat="38.08100406191091" lon="15.189391819832656"><ele>185.0</ele><time>2026-04-26T13:11:33Z</time></trkpt><trkpt lat="38.08096938680211" lon="15.18931226915491"><ele>185.0</ele><time>2026-04-26T13:11:34Z</time></trkpt><trkpt lat="38.08094100933937" lon="15.1892263080218"><ele>185.0</ele><time>2026-04-26T13:11:35Z</time></trkpt><trkpt lat="38.08093640969679" lon="15.189136167406822"><ele>185.0</ele><time>2026-04-26T13:11:36Z</time></trkpt><trkpt lat="38.08095373017314" lon="15.189042431813311"><ele>184.83333333333331</ele><time>2026-04-26T13:11:37Z</time></trkpt><trkpt lat="38.08097825989896" lon="15.188959268140545"><ele>184.66666666666666</ele><time>2026-04-26T13:11:38Z</time></trkpt><trkpt lat="38.08098306400036" lon="15.18886331806392"><ele>184.5</ele><time>2026-04-26T13:11:39Z</time></trkpt><trkpt lat="38.080981618192276" lon="15.188747589918405"><ele>184.33333333333334</ele><time>2026-04-26T13:11:40Z</time></trkpt><trkpt lat="38.08098561387516" lon="15.188656473684265"><ele>184.16666666666669</ele><time>2026-04-26T13:11:41Z</time></trkpt><trkpt lat="38.0810049286458" lon="15.188510701356236"><ele>184.0</ele><time>2026-04-26T13:11:43Z</time></trkpt><trkpt lat="38.08102454343566" lon="15.188415941017801"><ele>184.0</ele><time>2026-04-26T13:11:45Z</time></trkpt><trkpt lat="38.08100339385274" lon="15.18833817031661"><ele>184.0</ele><time>2026-04-26T13:12:02Z</time></trkpt><trkpt lat="38.08095417959012" lon="15.188284098522951"><ele>184.0</ele><time>2026-04-26T13:12:04Z</time></trkpt><trkpt lat="38.080879424809375" lon="15.188239545713738"><ele>184.0</ele><time>2026-04-26T13:12:07Z</time></trkpt><trkpt lat="38.08079550787848" lon="15.18817759002901"><ele>184.0</ele><time>2026-04-26T13:12:09Z</time></trkpt><trkpt lat="38.080722252439806" lon="15.188116406389586"><ele>184.0</ele><time>2026-04-26T13:12:11Z</time></trkpt><trkpt lat="38.08067802140144" lon="15.188035079489492"><ele>183.6</ele><time>2026-04-26T13:12:13Z</time></trkpt><trkpt lat="38.08063299349623" lon="15.18792501662107"><ele>183.2</ele><time>2026-04-26T13:12:15Z</time></trkpt><trkpt lat="38.0805709689946" lon="15.187836241937259"><ele>182.79999999999998</ele><time>2026-04-26T13:12:17Z</time></trkpt><trkpt lat="38.08048732999826" lon="15.18777710893197"><ele>182.39999999999998</ele><time>2026-04-26T13:12:19Z</time></trkpt><trkpt lat="38.08039135407194" lon="15.187733981022914"><ele>182.0</ele><time>2026-04-26T13:12:21Z</time></trkpt><trkpt lat="38.080335391813165" lon="15.187695841387436"><ele>182.0</ele><time>2026-04-26T13:12:22Z</time></trkpt><trkpt lat="38.080279376115136" lon="15.187642759740637"><ele>182.0</ele><time>2026-04-26T13:12:23Z</time></trkpt><trkpt lat="38.08022335506632" lon="15.187581935378581"><ele>182.0</ele><time>2026-04-26T13:12:24Z</time></trkpt><trkpt lat="38.08018519316172" lon="15.187512756078535"><ele>182.0</ele><time>2026-04-26T13:12:25Z</time></trkpt><trkpt lat="38.080156155023374" lon="15.18742444173269"><ele>182.0</ele><time>2026-04-26T13:12:26Z</time></trkpt><trkpt lat="38.08011978596269" lon="15.187321201376424"><ele>182.0</ele><time>2026-04-26T13:12:27Z</time></trkpt><trkpt lat="38.08008474142396" lon="15.187200202253273"><ele>182.66666666666666</ele><time>2026-04-26T13:12:28Z</time></trkpt><trkpt lat="38.080063293854835" lon="15.18711227569122"><ele>183.33333333333331</ele><time>2026-04-26T13:12:29Z</time></trkpt><trkpt lat="38.08007332134139" lon="15.186980116725598"><ele>184.0</ele><time>2026-04-26T13:12:31Z</time></trkpt><trkpt lat="38.080118416470555" lon="15.186918703458776"><ele>184.66666666666666</ele><time>2026-04-26T13:12:32Z</time></trkpt><trkpt lat="38.080194485558124" lon="15.18683856830625"><ele>185.33333333333334</ele><time>2026-04-26T13:12:32.999Z</time></trkpt><trkpt lat="38.08025381243933" lon="15.186740746983606"><ele>186.0</ele><time>2026-04-26T13:12:33.998Z</time></trkpt><trkpt lat="38.08031153752549" lon="15.186605209750041"><ele>186.83333333333334</ele><time>2026-04-26T13:12:34.998Z</time></trkpt><trkpt lat="38.080346438651176" lon="15.186483230965983"><ele>187.66666666666666</ele><time>2026-04-26T13:12:35.998Z</time></trkpt><trkpt lat="38.080369439956094" lon="15.18636464445394"><ele>188.5</ele><time>2026-04-26T13:12:36.998Z</time></trkpt><trkpt lat="38.080370311635285" lon="15.186276185323534"><ele>189.33333333333331</ele><time>2026-04-26T13:12:37.998Z</time></trkpt><trkpt lat="38.080372884131975" lon="15.186185222128849"><ele>190.16666666666666</ele><time>2026-04-26T13:12:38.998Z</time></trkpt><trkpt lat="38.080371651085166" lon="15.186086683637381"><ele>191.0</ele><time>2026-04-26T13:12:39.998Z</time></trkpt><trkpt lat="38.08037699676833" lon="15.185982478116303"><ele>191.0</ele><time>2026-04-26T13:12:42.998Z</time></trkpt><trkpt lat="38.08030812750937" lon="15.185983610721367"><ele>191.0</ele><time>2026-04-26T13:12:44.998Z</time></trkpt><trkpt lat="38.080255304074285" lon="15.186037185660027"><ele>191.0</ele><time>2026-04-26T13:12:45.998Z</time></trkpt><trkpt lat="38.08020331508908" lon="15.186114606640228"><ele>191.0</ele><time>2026-04-26T13:12:46.998Z</time></trkpt><trkpt lat="38.080140403369" lon="15.186178668928436"><ele>191.0</ele><time>2026-04-26T13:12:47.998Z</time></trkpt><trkpt lat="38.080074733576275" lon="15.186233374803706"><ele>191.0</ele><time>2026-04-26T13:12:48.998Z</time></trkpt><trkpt lat="38.080003442033636" lon="15.186287501724776"><ele>192.66666666666666</ele><time>2026-04-26T13:12:49.998Z</time></trkpt><trkpt lat="38.079926791926226" lon="15.186332812669194"><ele>194.33333333333331</ele><time>2026-04-26T13:12:50.998Z</time></trkpt><trkpt lat="38.07984447839416" lon="15.186364695939249"><ele>196.0</ele><time>2026-04-26T13:12:51.998Z</time></trkpt><trkpt lat="38.079763591492295" lon="15.186370911322918"><ele>197.66666666666666</ele><time>2026-04-26T13:12:52.998Z</time></trkpt><trkpt lat="38.07968039166245" lon="15.186368373465621"><ele>199.33333333333334</ele><time>2026-04-26T13:12:53.998Z</time></trkpt><trkpt lat="38.079604386076305" lon="15.1863572156455"><ele>201.0</ele><time>2026-04-26T13:12:54.998Z</time></trkpt><trkpt lat="38.07952826286361" lon="15.186349829532883"><ele>201.0</ele><time>2026-04-26T13:12:55.998Z</time></trkpt><trkpt lat="38.079463330119616" lon="15.1863540353565"><ele>201.0</ele><time>2026-04-26T13:12:56.998Z</time></trkpt><trkpt lat="38.07935511300014" lon="15.18634325155116"><ele>201.0</ele><time>2026-04-26T13:12:58.999Z</time></trkpt><trkpt lat="38.07926758941461" lon="15.186335995198096"><ele>201.0</ele><time>2026-04-26T13:13:00.999Z</time></trkpt><trkpt lat="38.07914383740672" lon="15.18631523749391"><ele>201.0</ele><time>2026-04-26T13:13:02.999Z</time></trkpt><trkpt lat="38.07904160974678" lon="15.18632049131976"><ele>203.8</ele><time>2026-04-26T13:13:04.999Z</time></trkpt><trkpt lat="38.078907877627536" lon="15.186327259540668"><ele>206.60000000000002</ele><time>2026-04-26T13:13:06.999Z</time></trkpt><trkpt lat="38.07883025900805" lon="15.186353247574104"><ele>209.4</ele><time>2026-04-26T13:13:07.999Z</time></trkpt><trkpt lat="38.078772450953686" lon="15.186397033988786"><ele>212.2</ele><time>2026-04-26T13:13:08.999Z</time></trkpt><trkpt lat="38.078707009360095" lon="15.186473109765904"><ele>215.0</ele><time>2026-04-26T13:13:09.999Z</time></trkpt><trkpt lat="38.07865583403222" lon="15.186574825327193"><ele>215.0</ele><time>2026-04-26T13:13:10.999Z</time></trkpt><trkpt lat="38.0785968952158" lon="15.186690232273387"><ele>215.0</ele><time>2026-04-26T13:13:11.999Z</time></trkpt><trkpt lat="38.07854166891391" lon="15.186802125273081"><ele>215.0</ele><time>2026-04-26T13:13:12.999Z</time></trkpt><trkpt lat="38.07849367295139" lon="15.186904563693659"><ele>215.0</ele><time>2026-04-26T13:13:13.999Z</time></trkpt><trkpt lat="38.078441479747156" lon="15.187005289483187"><ele>215.0</ele><time>2026-04-26T13:13:14.999Z</time></trkpt><trkpt lat="38.07837634680058" lon="15.187088760407397"><ele>215.0</ele><time>2026-04-26T13:13:15.999Z</time></trkpt><trkpt lat="38.07830313055463" lon="15.187163220534217"><ele>215.0</ele><time>2026-04-26T13:13:16.999Z</time></trkpt><trkpt lat="38.078228467554716" lon="15.187233102003123"><ele>215.0</ele><time>2026-04-26T13:13:17.999Z</time></trkpt><trkpt lat="38.078148750615924" lon="15.187306978520548"><ele>215.0</ele><time>2026-04-26T13:13:18.999Z</time></trkpt><trkpt lat="38.078071822236545" lon="15.187400232088887"><ele>215.0</ele><time>2026-04-26T13:13:19.999Z</time></trkpt><trkpt lat="38.07800265921367" lon="15.18750851652164"><ele>220.0</ele><time>2026-04-26T13:13:20.999Z</time></trkpt><trkpt lat="38.07794027633644" lon="15.18761987183052"><ele>225.0</ele><time>2026-04-26T13:13:21.999Z</time></trkpt><trkpt lat="38.07787064389439" lon="15.187729671740275"><ele>230.0</ele><time>2026-04-26T13:13:22.999Z</time></trkpt><trkpt lat="38.07779472668136" lon="15.187833758464546"><ele>235.0</ele><time>2026-04-26T13:13:23.999Z</time></trkpt><trkpt lat="38.07772024793126" lon="15.187935184488666"><ele>240.0</ele><time>2026-04-26T13:13:24.999Z</time></trkpt><trkpt lat="38.07765164445135" lon="15.188036303707767"><ele>240.0</ele><time>2026-04-26T13:13:25.999Z</time></trkpt><trkpt lat="38.0775912172677" lon="15.188136591271205"><ele>240.0</ele><time>2026-04-26T13:13:26.999Z</time></trkpt><trkpt lat="38.07753185495677" lon="15.188233439194871"><ele>240.0</ele><time>2026-04-26T13:13:27.999Z</time></trkpt><trkpt lat="38.07747656924543" lon="15.18833221196129"><ele>240.0</ele><time>2026-04-26T13:13:28.999Z</time></trkpt><trkpt lat="38.07742313526843" lon="15.188435808030874"><ele>240.0</ele><time>2026-04-26T13:13:29.999Z</time></trkpt><trkpt lat="38.07737302263481" lon="15.188546204186535"><ele>237.8</ele><time>2026-04-26T13:13:30.999Z</time></trkpt><trkpt lat="38.077332579804455" lon="15.188665991835842"><ele>235.6</ele><time>2026-04-26T13:13:31.999Z</time></trkpt><trkpt lat="38.07730073039078" lon="15.188797769531098"><ele>233.39999999999998</ele><time>2026-04-26T13:13:32.999Z</time></trkpt><trkpt lat="38.077267727236546" lon="15.18892253415704"><ele>231.2</ele><time>2026-04-26T13:13:33.999Z</time></trkpt><trkpt lat="38.077228093601335" lon="15.189036251063492"><ele>229.0</ele><time>2026-04-26T13:13:34.999Z</time></trkpt><trkpt lat="38.07717299156807" lon="15.18912627581804"><ele>223.79999999999998</ele><time>2026-04-26T13:13:35.999Z</time></trkpt><trkpt lat="38.077093261232854" lon="15.189188190447618"><ele>218.59999999999997</ele><time>2026-04-26T13:13:36.999Z</time></trkpt><trkpt lat="38.07699855437144" lon="15.189209978749178"><ele>213.4</ele><time>2026-04-26T13:13:37.999Z</time></trkpt><trkpt lat="38.07691394571692" lon="15.18919963660661"><ele>208.2</ele><time>2026-04-26T13:13:38.999Z</time></trkpt><trkpt lat="38.07684596413063" lon="15.18913666613513"><ele>203.0</ele><time>2026-04-26T13:13:39.999Z</time></trkpt><trkpt lat="38.07679063066197" lon="15.189037575134126"><ele>206.60000000000002</ele><time>2026-04-26T13:13:40.999Z</time></trkpt><trkpt lat="38.07676281938718" lon="15.188902624926923"><ele>210.20000000000002</ele><time>2026-04-26T13:13:41.999Z</time></trkpt><trkpt lat="38.07672489490208" lon="15.188781894039801"><ele>213.8</ele><time>2026-04-26T13:13:42.999Z</time></trkpt><trkpt lat="38.076677995423054" lon="15.18865679163107"><ele>217.4</ele><time>2026-04-26T13:13:43.999Z</time></trkpt><trkpt lat="38.07663908607517" lon="15.188562657739027"><ele>221.0</ele><time>2026-04-26T13:13:44.999Z</time></trkpt><trkpt lat="38.07659479430816" lon="15.188475198311421"><ele>221.0</ele><time>2026-04-26T13:13:45.999Z</time></trkpt><trkpt lat="38.07653904724227" lon="15.188401958463503"><ele>221.00000000000003</ele><time>2026-04-26T13:13:46.999Z</time></trkpt><trkpt lat="38.0764471111759" lon="15.188338535080257"><ele>221.00000000000003</ele><time>2026-04-26T13:13:47.999Z</time></trkpt><trkpt lat="38.07633207697925" lon="15.188311155830466"><ele>221.0</ele><time>2026-04-26T13:13:48.999Z</time></trkpt><trkpt lat="38.076206131352045" lon="15.188318861254613"><ele>221.0</ele><time>2026-04-26T13:13:49.999Z</time></trkpt><trkpt lat="38.07608434868655" lon="15.188324524060928"><ele>221.0</ele><time>2026-04-26T13:13:50.999Z</time></trkpt><trkpt lat="38.07597285466315" lon="15.188352576384283"><ele>221.00000000000003</ele><time>2026-04-26T13:13:51.999Z</time></trkpt><trkpt lat="38.07586007910641" lon="15.188399188051859"><ele>221.00000000000003</ele><time>2026-04-26T13:13:52.999Z</time></trkpt><trkpt lat="38.075755915673156" lon="15.188456736622808"><ele>221.0</ele><time>2026-04-26T13:13:53.999Z</time></trkpt><trkpt lat="38.075662777570756" lon="15.188513817572163"><ele>221.0</ele><time>2026-04-26T13:13:54.999Z</time></trkpt><trkpt lat="38.07557837112645" lon="15.18858283066861"><ele>219.60000000000002</ele><time>2026-04-26T13:13:55.999Z</time></trkpt><trkpt lat="38.075495196731055" lon="15.188670422487904"><ele>218.20000000000002</ele><time>2026-04-26T13:13:56.999Z</time></trkpt><trkpt lat="38.075415812159775" lon="15.188775734624677"><ele>216.79999999999998</ele><time>2026-04-26T13:13:57.999Z</time></trkpt><trkpt lat="38.075337269995266" lon="15.1888719118072"><ele>215.39999999999998</ele><time>2026-04-26T13:13:58.999Z</time></trkpt><trkpt lat="38.07525360362806" lon="15.188935492342257"><ele>214.0</ele><time>2026-04-26T13:13:59.999Z</time></trkpt><trkpt lat="38.075171936618766" lon="15.188955229867812"><ele>214.0</ele><time>2026-04-26T13:14:00.999Z</time></trkpt><trkpt lat="38.07509423443023" lon="15.188918384702028"><ele>213.99999999999997</ele><time>2026-04-26T13:14:01.999Z</time></trkpt><trkpt lat="38.07502187218463" lon="15.188825544106672"><ele>213.99999999999997</ele><time>2026-04-26T13:14:02.999Z</time></trkpt><trkpt lat="38.07497294156405" lon="15.188709096181885"><ele>214.0</ele><time>2026-04-26T13:14:03.999Z</time></trkpt><trkpt lat="38.07495204073189" lon="15.188569168458477"><ele>214.0</ele><time>2026-04-26T13:14:04.999Z</time></trkpt><trkpt lat="38.07495269129667" lon="15.18841205641507"><ele>213.0</ele><time>2026-04-26T13:14:05.999Z</time></trkpt><trkpt lat="38.074933670735895" lon="15.188253519256264"><ele>212.0</ele><time>2026-04-26T13:14:06.999Z</time></trkpt><trkpt lat="38.07489804132705" lon="15.188112745184162"><ele>211.0</ele><time>2026-04-26T13:14:07.999Z</time></trkpt><trkpt lat="38.074848141249625" lon="15.187995354312116"><ele>210.0</ele><time>2026-04-26T13:14:08.999Z</time></trkpt><trkpt lat="38.07476846053991" lon="15.18789679307654"><ele>210.0</ele><time>2026-04-26T13:14:09.999Z</time></trkpt><trkpt lat="38.07465098744773" lon="15.187834061930788"><ele>210.0</ele><time>2026-04-26T13:14:10.999Z</time></trkpt><trkpt lat="38.07452195490496" lon="15.187786268151415"><ele>210.0</ele><time>2026-04-26T13:14:11.999Z</time></trkpt><trkpt lat="38.07438875016095" lon="15.18773610793917"><ele>210.0</ele><time>2026-04-26T13:14:12.999Z</time></trkpt><trkpt lat="38.07426697014195" lon="15.187676733516541"><ele>210.0</ele><time>2026-04-26T13:14:13.999Z</time></trkpt><trkpt lat="38.074144298262986" lon="15.187648712982408"><ele>210.0</ele><time>2026-04-26T13:14:14.999Z</time></trkpt><trkpt lat="38.074022698131664" lon="15.187668531905953"><ele>210.0</ele><time>2026-04-26T13:14:15.999Z</time></trkpt><trkpt lat="38.07390314517221" lon="15.187727457069789"><ele>210.0</ele><time>2026-04-26T13:14:16.999Z</time></trkpt><trkpt lat="38.07378792799843" lon="15.187816595461062"><ele>210.5</ele><time>2026-04-26T13:14:17.999Z</time></trkpt><trkpt lat="38.07368832546801" lon="15.1879312868307"><ele>211.0</ele><time>2026-04-26T13:14:18.999Z</time></trkpt><trkpt lat="38.07358104938136" lon="15.188042274869076"><ele>211.5</ele><time>2026-04-26T13:14:19.999Z</time></trkpt><trkpt lat="38.073473395110554" lon="15.188155406078563"><ele>212.0</ele><time>2026-04-26T13:14:20.999Z</time></trkpt><trkpt lat="38.073366344632994" lon="15.188270521195449"><ele>212.5</ele><time>2026-04-26T13:14:21.999Z</time></trkpt><trkpt lat="38.07326535170402" lon="15.18838246997974"><ele>213.0</ele><time>2026-04-26T13:14:22.999Z</time></trkpt><trkpt lat="38.07315129071688" lon="15.188496973745387"><ele>213.5</ele><time>2026-04-26T13:14:23.999Z</time></trkpt><trkpt lat="38.073028144396574" lon="15.188605936264546"><ele>214.0</ele><time>2026-04-26T13:14:24.999Z</time></trkpt><trkpt lat="38.07290603074841" lon="15.188691638121252"><ele>214.0</ele><time>2026-04-26T13:14:25.999Z</time></trkpt><trkpt lat="38.07278586833288" lon="15.188765189335196"><ele>214.0</ele><time>2026-04-26T13:14:26.999Z</time></trkpt><trkpt lat="38.07265541817564" lon="15.188822181422225"><ele>214.0</ele><time>2026-04-26T13:14:27.999Z</time></trkpt><trkpt lat="38.07251229438186" lon="15.188869608938175"><ele>214.0</ele><time>2026-04-26T13:14:28.999Z</time></trkpt><trkpt lat="38.07238122577929" lon="15.188915853898292"><ele>214.25</ele><time>2026-04-26T13:14:29.999Z</time></trkpt><trkpt lat="38.072243813215415" lon="15.188964162341389"><ele>214.5</ele><time>2026-04-26T13:14:30.999Z</time></trkpt><trkpt lat="38.072102717142606" lon="15.189013353544187"><ele>214.75</ele><time>2026-04-26T13:14:31.999Z</time></trkpt><trkpt lat="38.07196156094431" lon="15.189065543720137"><ele>215.0</ele><time>2026-04-26T13:14:32.999Z</time></trkpt><trkpt lat="38.071819751579554" lon="15.189117710167057"><ele>211.66666666666669</ele><time>2026-04-26T13:14:33.999Z</time></trkpt><trkpt lat="38.07167523920387" lon="15.189172691603268"><ele>208.33333333333331</ele><time>2026-04-26T13:14:34.999Z</time></trkpt><trkpt lat="38.07152362963856" lon="15.189227634762348"><ele>205.0</ele><time>2026-04-26T13:14:35.999Z</time></trkpt><trkpt lat="38.07137918281331" lon="15.189279586091974"><ele>205.0</ele><time>2026-04-26T13:14:36.999Z</time></trkpt><trkpt lat="38.07123260789019" lon="15.189334447037735"><ele>205.0</ele><time>2026-04-26T13:14:37.999Z</time></trkpt><trkpt lat="38.071082895228464" lon="15.189384028169712"><ele>205.0</ele><time>2026-04-26T13:14:38.999Z</time></trkpt><trkpt lat="38.07094212728052" lon="15.189432024060686"><ele>205.0</ele><time>2026-04-26T13:14:39.999Z</time></trkpt><trkpt lat="38.0708011471029" lon="15.189485802287697"><ele>205.0</ele><time>2026-04-26T13:14:40.999Z</time></trkpt><trkpt lat="38.07064583322009" lon="15.189539550013457"><ele>205.0</ele><time>2026-04-26T13:14:41.999Z</time></trkpt><trkpt lat="38.07049681081254" lon="15.189587973137444"><ele>210.33333333333331</ele><time>2026-04-26T13:14:42.999Z</time></trkpt><trkpt lat="38.07034047963273" lon="15.18963904072582"><ele>215.66666666666669</ele><time>2026-04-26T13:14:43.999Z</time></trkpt><trkpt lat="38.07017825057837" lon="15.189701034826843"><ele>221.0</ele><time>2026-04-26T13:14:44.999Z</time></trkpt><trkpt lat="38.07002284054809" lon="15.189756428222385"><ele>221.33333333333334</ele><time>2026-04-26T13:14:45.999Z</time></trkpt><trkpt lat="38.06986501636264" lon="15.189811377993278"><ele>221.66666666666669</ele><time>2026-04-26T13:14:46.999Z</time></trkpt><trkpt lat="38.06971125358838" lon="15.189865169828465"><ele>222.0</ele><time>2026-04-26T13:14:47.998Z</time></trkpt><trkpt lat="38.06956074258661" lon="15.189918757246222"><ele>222.0</ele><time>2026-04-26T13:14:48.998Z</time></trkpt><trkpt lat="38.06940237535223" lon="15.189973454062237"><ele>222.0</ele><time>2026-04-26T13:14:49.998Z</time></trkpt><trkpt lat="38.06924147923287" lon="15.190029084217713"><ele>222.0</ele><time>2026-04-26T13:14:50.998Z</time></trkpt><trkpt lat="38.06908725324687" lon="15.190086717539389"><ele>225.66666666666669</ele><time>2026-04-26T13:14:51.998Z</time></trkpt><trkpt lat="38.06893235392774" lon="15.190148261748861"><ele>229.33333333333334</ele><time>2026-04-26T13:14:52.998Z</time></trkpt><trkpt lat="38.0687791153835" lon="15.190201892388552"><ele>233.0</ele><time>2026-04-26T13:14:53.998Z</time></trkpt><trkpt lat="38.06863620162594" lon="15.190254117421036"><ele>233.0</ele><time>2026-04-26T13:14:54.998Z</time></trkpt><trkpt lat="38.06848677020773" lon="15.190312966106092"><ele>233.0</ele><time>2026-04-26T13:14:55.998Z</time></trkpt><trkpt lat="38.068344274244225" lon="15.190376499691926"><ele>233.0</ele><time>2026-04-26T13:14:56.998Z</time></trkpt><trkpt lat="38.068200274086145" lon="15.190438838118512"><ele>237.25</ele><time>2026-04-26T13:14:57.998Z</time></trkpt><trkpt lat="38.06806350291277" lon="15.190498853653542"><ele>241.5</ele><time>2026-04-26T13:14:58.998Z</time></trkpt><trkpt lat="38.06792120077621" lon="15.190558952034287"><ele>245.75</ele><time>2026-04-26T13:14:59.998Z</time></trkpt><trkpt lat="38.06778263396136" lon="15.190614803515537"><ele>250.0</ele><time>2026-04-26T13:15:00.998Z</time></trkpt><trkpt lat="38.067659297274176" lon="15.19065942784523"><ele>247.25</ele><time>2026-04-26T13:15:01.998Z</time></trkpt><trkpt lat="38.06753987222748" lon="15.190680957265796"><ele>244.5</ele><time>2026-04-26T13:15:02.998Z</time></trkpt><trkpt lat="38.06742741852321" lon="15.190665904368647"><ele>241.75</ele><time>2026-04-26T13:15:03.999Z</time></trkpt><trkpt lat="38.06730809119682" lon="15.190613164819549"><ele>239.0</ele><time>2026-04-26T13:15:04.999Z</time></trkpt><trkpt lat="38.067193965804684" lon="15.19053144269595"><ele>239.0</ele><time>2026-04-26T13:15:05.999Z</time></trkpt><trkpt lat="38.06707595514559" lon="15.190442059113645"><ele>239.0</ele><time>2026-04-26T13:15:06.999Z</time></trkpt><trkpt lat="38.066954309934815" lon="15.190342414694825"><ele>239.0</ele><time>2026-04-26T13:15:07.999Z</time></trkpt><trkpt lat="38.06682687907301" lon="15.190242587096078"><ele>239.0</ele><time>2026-04-26T13:15:08.999Z</time></trkpt><trkpt lat="38.0666979444175" lon="15.190140529853"><ele>241.33333333333334</ele><time>2026-04-26T13:15:09.999Z</time></trkpt><trkpt lat="38.066572199333336" lon="15.190034402652564"><ele>243.66666666666669</ele><time>2026-04-26T13:15:10.999Z</time></trkpt><trkpt lat="38.06643934923758" lon="15.189926529114008"><ele>246.0</ele><time>2026-04-26T13:15:11.999Z</time></trkpt><trkpt lat="38.06631000517385" lon="15.189826289097777"><ele>246.0</ele><time>2026-04-26T13:15:12.999Z</time></trkpt><trkpt lat="38.06617416222682" lon="15.189724527471553"><ele>246.0</ele><time>2026-04-26T13:15:13.999Z</time></trkpt><trkpt lat="38.06604432992748" lon="15.18962628873713"><ele>246.0</ele><time>2026-04-26T13:15:14.999Z</time></trkpt><trkpt lat="38.065909943434924" lon="15.18951926241956"><ele>246.0</ele><time>2026-04-26T13:15:15.999Z</time></trkpt><trkpt lat="38.06578820714819" lon="15.189411190589967"><ele>246.0</ele><time>2026-04-26T13:15:16.999Z</time></trkpt><trkpt lat="38.06566557608522" lon="15.18930289966867"><ele>246.0</ele><time>2026-04-26T13:15:17.999Z</time></trkpt><trkpt lat="38.06554069781711" lon="15.189185396706332"><ele>246.0</ele><time>2026-04-26T13:15:18.999Z</time></trkpt><trkpt lat="38.06542202462553" lon="15.189060472479248"><ele>246.0</ele><time>2026-04-26T13:15:19.999Z</time></trkpt><trkpt lat="38.065304291625026" lon="15.188935820450446"><ele>246.0</ele><time>2026-04-26T13:15:20.999Z</time></trkpt><trkpt lat="38.06518191435602" lon="15.188810870426163"><ele>246.0</ele><time>2026-04-26T13:15:21.999Z</time></trkpt><trkpt lat="38.06505434068455" lon="15.188687751567192"><ele>246.0</ele><time>2026-04-26T13:15:22.999Z</time></trkpt><trkpt lat="38.06491389710046" lon="15.188584936970132"><ele>246.0</ele><time>2026-04-26T13:15:23.999Z</time></trkpt><trkpt lat="38.06476218752178" lon="15.188504757480645"><ele>241.33333333333331</ele><time>2026-04-26T13:15:24.999Z</time></trkpt><trkpt lat="38.064604275043486" lon="15.188440102203646"><ele>236.66666666666666</ele><time>2026-04-26T13:15:25.999Z</time></trkpt><trkpt lat="38.06444442740176" lon="15.188388658084834"><ele>232.0</ele><time>2026-04-26T13:15:26.999Z</time></trkpt><trkpt lat="38.064278726419815" lon="15.188346820824814"><ele>232.0</ele><time>2026-04-26T13:15:27.999Z</time></trkpt><trkpt lat="38.06411542075659" lon="15.188306502309796"><ele>232.0</ele><time>2026-04-26T13:15:28.999Z</time></trkpt><trkpt lat="38.06395660069807" lon="15.18826443217776"><ele>232.0</ele><time>2026-04-26T13:15:29.999Z</time></trkpt><trkpt lat="38.06380031281248" lon="15.188230183318195"><ele>230.66666666666666</ele><time>2026-04-26T13:15:30.999Z</time></trkpt><trkpt lat="38.06364539708958" lon="15.188198622641798"><ele>229.33333333333331</ele><time>2026-04-26T13:15:31.999Z</time></trkpt><trkpt lat="38.06348532257745" lon="15.188172396609044"><ele>228.0</ele><time>2026-04-26T13:15:32.999Z</time></trkpt><trkpt lat="38.06332239036826" lon="15.188168002202818"><ele>228.0</ele><time>2026-04-26T13:15:33.999Z</time></trkpt><trkpt lat="38.0631566148212" lon="15.18819411915632"><ele>228.0</ele><time>2026-04-26T13:15:34.999Z</time></trkpt><trkpt lat="38.062991891975635" lon="15.188249351522066"><ele>228.0</ele><time>2026-04-26T13:15:35.999Z</time></trkpt><trkpt lat="38.06283185678159" lon="15.188316768218222"><ele>228.0</ele><time>2026-04-26T13:15:36.999Z</time></trkpt><trkpt lat="38.062676362553226" lon="15.188398279732699"><ele>228.0</ele><time>2026-04-26T13:15:37.999Z</time></trkpt><trkpt lat="38.067193965804684" lon="15.19053144269595"><ele>230.75</ele><time>2026-04-26T13:15:05.999Z</time></trkpt><trkpt lat="38.06707595514559" lon="15.190442059113645"><ele>233.5</ele><time>2026-04-26T13:15:06.999Z</time></trkpt><trkpt lat="38.066954309934815" lon="15.190342414694825"><ele>236.25</ele><time>2026-04-26T13:15:07.999Z</time></trkpt><trkpt lat="38.06682687907301" lon="15.190242587096078"><ele>239.0</ele><time>2026-04-26T13:15:08.999Z</time></trkpt><trkpt lat="38.0666979444175" lon="15.190140529853"><ele>241.33333333333334</ele><time>2026-04-26T13:15:09.999Z</time></trkpt><trkpt lat="38.066572199333336" lon="15.190034402652564"><ele>243.66666666666669</ele><time>2026-04-26T13:15:10.999Z</time></trkpt><trkpt lat="38.06643934923758" lon="15.189926529114008"><ele>246.0</ele><time>2026-04-26T13:15:11.999Z</time></trkpt><trkpt lat="38.06631000517385" lon="15.189826289097777"><ele>246.0</ele><time>2026-04-26T13:15:12.999Z</time></trkpt><trkpt lat="38.06617416222682" lon="15.189724527471553"><ele>246.0</ele><time>2026-04-26T13:15:13.999Z</time></trkpt><trkpt lat="38.06604432992748" lon="15.18962628873713"><ele>246.0</ele><time>2026-04-26T13:15:14.999Z</time></trkpt><trkpt lat="38.065909943434924" lon="15.18951926241956"><ele>246.0</ele><time>2026-04-26T13:15:15.999Z</time></trkpt><trkpt lat="38.06578820714819" lon="15.189411190589967"><ele>246.0</ele><time>2026-04-26T13:15:16.999Z</time></trkpt><trkpt lat="38.06566557608522" lon="15.18930289966867"><ele>246.0</ele><time>2026-04-26T13:15:17.999Z</time></trkpt><trkpt lat="38.06554069781711" lon="15.189185396706332"><ele>246.0</ele><time>2026-04-26T13:15:18.999Z</time></trkpt><trkpt lat="38.06542202462553" lon="15.189060472479248"><ele>246.0</ele><time>2026-04-26T13:15:19.999Z</time></trkpt><trkpt lat="38.065304291625026" lon="15.188935820450446"><ele>246.0</ele><time>2026-04-26T13:15:20.999Z</time></trkpt><trkpt lat="38.06518191435602" lon="15.188810870426163"><ele>246.0</ele><time>2026-04-26T13:15:21.999Z</time></trkpt><trkpt lat="38.06505434068455" lon="15.188687751567192"><ele>246.0</ele><time>2026-04-26T13:15:22.999Z</time></trkpt><trkpt lat="38.06491389710046" lon="15.188584936970132"><ele>246.0</ele><time>2026-04-26T13:15:23.999Z</time></trkpt><trkpt lat="38.06476218752178" lon="15.188504757480645"><ele>241.33333333333331</ele><time>2026-04-26T13:15:24.999Z</time></trkpt><trkpt lat="38.064604275043486" lon="15.188440102203646"><ele>236.66666666666666</ele><time>2026-04-26T13:15:25.999Z</time></trkpt><trkpt lat="38.06444442740176" lon="15.188388658084834"><ele>232.0</ele><time>2026-04-26T13:15:26.999Z</time></trkpt><trkpt lat="38.064278726419815" lon="15.188346820824814"><ele>232.0</ele><time>2026-04-26T13:15:27.999Z</time></trkpt><trkpt lat="38.06411542075659" lon="15.188306502309796"><ele>232.0</ele><time>2026-04-26T13:15:28.999Z</time></trkpt><trkpt lat="38.06395660069807" lon="15.18826443217776"><ele>232.0</ele><time>2026-04-26T13:15:29.999Z</time></trkpt><trkpt lat="38.06380031281248" lon="15.188230183318195"><ele>230.66666666666666</ele><time>2026-04-26T13:15:30.999Z</time></trkpt><trkpt lat="38.06364539708958" lon="15.188198622641798"><ele>229.33333333333331</ele><time>2026-04-26T13:15:31.999Z</time></trkpt><trkpt lat="38.06348532257745" lon="15.188172396609044"><ele>228.0</ele><time>2026-04-26T13:15:32.999Z</time></trkpt><trkpt lat="38.06332239036826" lon="15.188168002202818"><ele>228.0</ele><time>2026-04-26T13:15:33.999Z</time></trkpt><trkpt lat="38.0631566148212" lon="15.18819411915632"><ele>228.0</ele><time>2026-04-26T13:15:34.999Z</time></trkpt><trkpt lat="38.062991891975635" lon="15.188249351522066"><ele>228.0</ele><time>2026-04-26T13:15:35.999Z</time></trkpt><trkpt lat="38.06283185678159" lon="15.188316768218222"><ele>228.0</ele><time>2026-04-26T13:15:36.999Z</time></trkpt><trkpt lat="38.062676362553226" lon="15.188398279732699"><ele>228.0</ele><time>2026-04-26T13:15:37.999Z</time></trkpt><trkpt lat="38.06251199726855" lon="15.188489733923335"><ele>228.0</ele><time>2026-04-26T13:15:38.999Z</time></trkpt><trkpt lat="38.062353847868984" lon="15.188574635392882"><ele>237.33333333333331</ele><time>2026-04-26T13:15:39.999Z</time></trkpt><trkpt lat="38.06219095678813" lon="15.188664038843857"><ele>246.66666666666666</ele><time>2026-04-26T13:15:40.999Z</time></trkpt><trkpt lat="38.06203289225225" lon="15.18875121350895"><ele>256.0</ele><time>2026-04-26T13:15:41.999Z</time></trkpt><trkpt lat="38.061896849697305" lon="15.18883688296887"><ele>256.0</ele><time>2026-04-26T13:15:42.999Z</time></trkpt><trkpt lat="38.0617675743678" lon="15.188922206309519"><ele>256.0</ele><time>2026-04-26T13:15:43.999Z</time></trkpt><trkpt lat="38.061645649405456" lon="15.18899549668293"><ele>256.0</ele><time>2026-04-26T13:15:44.999Z</time></trkpt><trkpt lat="38.06153138331329" lon="15.189090400553136"><ele>256.0</ele><time>2026-04-26T13:15:45.999Z</time></trkpt><trkpt lat="38.061427862210095" lon="15.189224383379116"><ele>255.66666666666666</ele><time>2026-04-26T13:15:46.999Z</time></trkpt><trkpt lat="38.06132717366323" lon="15.189381538678916"><ele>255.33333333333331</ele><time>2026-04-26T13:15:47.999Z</time></trkpt><trkpt lat="38.06121920978661" lon="15.189540492232693"><ele>255.0</ele><time>2026-04-26T13:15:48.999Z</time></trkpt><trkpt lat="38.06110707135633" lon="15.189708965950127"><ele>248.66666666666669</ele><time>2026-04-26T13:15:49.999Z</time></trkpt><trkpt lat="38.06099922391664" lon="15.189876907751705"><ele>242.33333333333334</ele><time>2026-04-26T13:15:50.999Z</time></trkpt><trkpt lat="38.060888409491106" lon="15.190045856680532"><ele>236.0</ele><time>2026-04-26T13:15:51.999Z</time></trkpt><trkpt lat="38.060783024269156" lon="15.190210237732856"><ele>237.0</ele><time>2026-04-26T13:15:52.999Z</time></trkpt><trkpt lat="38.06067191808193" lon="15.190383243742305"><ele>238.0</ele><time>2026-04-26T13:15:53.999Z</time></trkpt><trkpt lat="38.06056419170227" lon="15.190545389234675"><ele>239.0</ele><time>2026-04-26T13:15:54.999Z</time></trkpt><trkpt lat="38.060460622643106" lon="15.19070145494299"><ele>239.0</ele><time>2026-04-26T13:15:55.999Z</time></trkpt><trkpt lat="38.060353754082165" lon="15.190864711014672"><ele>239.0</ele><time>2026-04-26T13:15:56.999Z</time></trkpt><trkpt lat="38.0602518738429" lon="15.191012918545624"><ele>239.0</ele><time>2026-04-26T13:15:57.999Z</time></trkpt><trkpt lat="38.06015141114571" lon="15.191168831663479"><ele>239.0</ele><time>2026-04-26T13:15:58.999Z</time></trkpt><trkpt lat="38.06005124351673" lon="15.191328931691553"><ele>239.0</ele><time>2026-04-26T13:15:59.999Z</time></trkpt><trkpt lat="38.05994955430579" lon="15.191484990283877"><ele>239.0</ele><time>2026-04-26T13:16:00.999Z</time></trkpt><trkpt lat="38.059843084680345" lon="15.191643073772308"><ele>241.33333333333334</ele><time>2026-04-26T13:16:01.999Z</time></trkpt><trkpt lat="38.05973964063229" lon="15.191802996596852"><ele>243.66666666666669</ele><time>2026-04-26T13:16:02.999Z</time></trkpt><trkpt lat="38.05964066267651" lon="15.19195886138264"><ele>246.0</ele><time>2026-04-26T13:16:03.999Z</time></trkpt><trkpt lat="38.0595366069327" lon="15.192126565192266"><ele>246.0</ele><time>2026-04-26T13:16:04.999Z</time></trkpt><trkpt lat="38.05943334589884" lon="15.192287356971569"><ele>246.0</ele><time>2026-04-26T13:16:05.999Z</time></trkpt><trkpt lat="38.05933109614721" lon="15.192456710943956"><ele>246.0</ele><time>2026-04-26T13:16:06.999Z</time></trkpt><trkpt lat="38.05922362371456" lon="15.192620488786702"><ele>245.0</ele><time>2026-04-26T13:16:07.999Z</time></trkpt><trkpt lat="38.05911871753699" lon="15.19278480545527"><ele>244.0</ele><time>2026-04-26T13:16:08.999Z</time></trkpt><trkpt lat="38.05901728590532" lon="15.19295154066847"><ele>243.0</ele><time>2026-04-26T13:16:09.999Z</time></trkpt><trkpt lat="38.05892151074527" lon="15.193106629699296"><ele>247.25</ele><time>2026-04-26T13:16:10.999Z</time></trkpt><trkpt lat="38.058826753241526" lon="15.193249586644228"><ele>251.5</ele><time>2026-04-26T13:16:11.999Z</time></trkpt><trkpt lat="38.0587210387995" lon="15.193377484142001"><ele>255.75</ele><time>2026-04-26T13:16:12.999Z</time></trkpt><trkpt lat="38.058600362694825" lon="15.193499379137448"><ele>260.0</ele><time>2026-04-26T13:16:13.999Z</time></trkpt><trkpt lat="38.058475983340585" lon="15.193624421517676"><ele>260.0</ele><time>2026-04-26T13:16:14.999Z</time></trkpt><trkpt lat="38.058345677440705" lon="15.19374576123202"><ele>260.0</ele><time>2026-04-26T13:16:15.999Z</time></trkpt><trkpt lat="38.05822630956438" lon="15.193863145270692"><ele>260.0</ele><time>2026-04-26T13:16:16.999Z</time></trkpt><trkpt lat="38.058102013744616" lon="15.193984778330156"><ele>257.75</ele><time>2026-04-26T13:16:17.999Z</time></trkpt><trkpt lat="38.05798485802602" lon="15.19409535186983"><ele>255.5</ele><time>2026-04-26T13:16:18.999Z</time></trkpt><trkpt lat="38.05787931208959" lon="15.194184291742248"><ele>253.25</ele><time>2026-04-26T13:16:19.999Z</time></trkpt><trkpt lat="38.05778961884381" lon="15.194230526106729"><ele>251.0</ele><time>2026-04-26T13:16:20.999Z</time></trkpt><trkpt lat="38.057703473976" lon="15.194242575294266"><ele>251.0</ele><time>2026-04-26T13:16:21.999Z</time></trkpt><trkpt lat="38.05760714945344" lon="15.194224036554338"><ele>251.00000000000003</ele><time>2026-04-26T13:16:22.999Z</time></trkpt><trkpt lat="38.057535845206495" lon="15.194133528860753"><ele>251.00000000000003</ele><time>2026-04-26T13:16:23.999Z</time></trkpt><trkpt lat="38.05747888405245" lon="15.194034425419584"><ele>251.0</ele><time>2026-04-26T13:16:24.999Z</time></trkpt><trkpt lat="38.057439667532634" lon="15.193905531497641"><ele>251.0</ele><time>2026-04-26T13:16:25.999Z</time></trkpt><trkpt lat="38.0574259629938" lon="15.193762428770222"><ele>250.75</ele><time>2026-04-26T13:16:26.999Z</time></trkpt><trkpt lat="38.05740140015776" lon="15.193605906429665"><ele>250.5</ele><time>2026-04-26T13:16:27.999Z</time></trkpt><trkpt lat="38.05742629253207" lon="15.193436633031933"><ele>250.25</ele><time>2026-04-26T13:16:28.999Z</time></trkpt><trkpt lat="38.05741934376556" lon="15.193255104291875"><ele>250.0</ele><time>2026-04-26T13:16:29.999Z</time></trkpt><trkpt lat="38.05740506768574" lon="15.193070464837085"><ele>250.0</ele><time>2026-04-26T13:16:30.999Z</time></trkpt><trkpt lat="38.0573765997837" lon="15.192890384287692"><ele>250.0</ele><time>2026-04-26T13:16:31.999Z</time></trkpt><trkpt lat="38.05734209912637" lon="15.192720039446964"><ele>250.0</ele><time>2026-04-26T13:16:32.999Z</time></trkpt><trkpt lat="38.05730555513746" lon="15.192549938662355"><ele>250.0</ele><time>2026-04-26T13:16:33.999Z</time></trkpt><trkpt lat="38.05725848356402" lon="15.192401915280074"><ele>251.0</ele><time>2026-04-26T13:16:34.999Z</time></trkpt><trkpt lat="38.05718331181174" lon="15.192255690454832"><ele>252.0</ele><time>2026-04-26T13:16:35.999Z</time></trkpt><trkpt lat="38.05709830019396" lon="15.192112392739299"><ele>253.0</ele><time>2026-04-26T13:16:36.999Z</time></trkpt><trkpt lat="38.056988617591145" lon="15.191982134963425"><ele>254.0</ele><time>2026-04-26T13:16:37.999Z</time></trkpt><trkpt lat="38.056872126661084" lon="15.191851288644346"><ele>254.0</ele><time>2026-04-26T13:16:38.999Z</time></trkpt><trkpt lat="38.05675466466811" lon="15.191723841960451"><ele>254.0</ele><time>2026-04-26T13:16:39.999Z</time></trkpt><trkpt lat="38.056632775503026" lon="15.191591452494983"><ele>254.0</ele><time>2026-04-26T13:16:40.999Z</time></trkpt><trkpt lat="38.05650166012255" lon="15.191461062060718"><ele>253.66666666666669</ele><time>2026-04-26T13:16:41.999Z</time></trkpt><trkpt lat="38.05637163733837" lon="15.191332955904564"><ele>253.33333333333331</ele><time>2026-04-26T13:16:42.999Z</time></trkpt><trkpt lat="38.056258619293736" lon="15.191185559193856"><ele>253.0</ele><time>2026-04-26T13:16:43.999Z</time></trkpt><trkpt lat="38.05612456525547" lon="15.191057198320491"><ele>253.0</ele><time>2026-04-26T13:16:44.999Z</time></trkpt><trkpt lat="38.05600294083688" lon="15.190928361020578"><ele>253.0</ele><time>2026-04-26T13:16:45.999Z</time></trkpt><trkpt lat="38.05588083721895" lon="15.190789195356636"><ele>253.0</ele><time>2026-04-26T13:16:46.999Z</time></trkpt><trkpt lat="38.05576139741205" lon="15.19065886742585"><ele>256.0</ele><time>2026-04-26T13:16:47.999Z</time></trkpt><trkpt lat="38.05564140956678" lon="15.190528282175212"><ele>259.0</ele><time>2026-04-26T13:16:48.999Z</time></trkpt><trkpt lat="38.05551129555045" lon="15.190385416485546"><ele>262.0</ele><time>2026-04-26T13:16:49.999Z</time></trkpt><trkpt lat="38.05539018988294" lon="15.190256697397636"><ele>262.0</ele><time>2026-04-26T13:16:50.999Z</time></trkpt><trkpt lat="38.055258812861695" lon="15.19011415107381"><ele>262.0</ele><time>2026-04-26T13:16:51.999Z</time></trkpt><trkpt lat="38.05513542128813" lon="15.189969334622937"><ele>262.0</ele><time>2026-04-26T13:16:52.999Z</time></trkpt><trkpt lat="38.05502726399311" lon="15.18980266405028"><ele>262.66666666666663</ele><time>2026-04-26T13:16:53.999Z</time></trkpt><trkpt lat="38.05490987401243" lon="15.189643544044792"><ele>263.3333333333333</ele><time>2026-04-26T13:16:54.999Z</time></trkpt><trkpt lat="38.05477817732852" lon="15.18949219934576"><ele>264.0</ele><time>2026-04-26T13:16:55.999Z</time></trkpt><trkpt lat="38.0546664638748" lon="15.189339466499325"><ele>264.0</ele><time>2026-04-26T13:16:56.999Z</time></trkpt><trkpt lat="38.05456225579746" lon="15.18919868150206"><ele>264.0</ele><time>2026-04-26T13:16:57.999Z</time></trkpt><trkpt lat="38.054452378480036" lon="15.1890564128452"><ele>264.0</ele><time>2026-04-26T13:16:58.999Z</time></trkpt><trkpt lat="38.05434190975121" lon="15.188926387058421"><ele>269.25</ele><time>2026-04-26T13:16:59.999Z</time></trkpt><trkpt lat="38.054223573236875" lon="15.188831656131795"><ele>274.5</ele><time>2026-04-26T13:17:00.999Z</time></trkpt><trkpt lat="38.054083542232995" lon="15.188767110870952"><ele>279.75</ele><time>2026-04-26T13:17:01.999Z</time></trkpt><trkpt lat="38.05393236643076" lon="15.188739736016403"><ele>285.0</ele><time>2026-04-26T13:17:02.999Z</time></trkpt><trkpt lat="38.05378379098268" lon="15.188740206861068"><ele>286.6666666666667</ele><time>2026-04-26T13:17:03.999Z</time></trkpt><trkpt lat="38.05363460554706" lon="15.188771664873197"><ele>288.33333333333337</ele><time>2026-04-26T13:17:04.999Z</time></trkpt><trkpt lat="38.053485564082465" lon="15.188835527651024"><ele>290.0</ele><time>2026-04-26T13:17:05.999Z</time></trkpt><trkpt lat="38.053330665098635" lon="15.188908373088298"><ele>285.33333333333337</ele><time>2026-04-26T13:17:06.999Z</time></trkpt><trkpt lat="38.05317959271534" lon="15.188974547666156"><ele>280.6666666666667</ele><time>2026-04-26T13:17:07.999Z</time></trkpt><trkpt lat="38.053017164905334" lon="15.18904041313721"><ele>276.0</ele><time>2026-04-26T13:17:08.999Z</time></trkpt><trkpt lat="38.05286438771147" lon="15.189105339814187"><ele>276.0</ele><time>2026-04-26T13:17:10Z</time></trkpt><trkpt lat="38.052704466249416" lon="15.189175617074163"><ele>276.0</ele><time>2026-04-26T13:17:11Z</time></trkpt><trkpt lat="38.052553077947174" lon="15.189237835659313"><ele>276.0</ele><time>2026-04-26T13:17:12Z</time></trkpt><trkpt lat="38.05239229883117" lon="15.18930502190797"><ele>286.3333333333333</ele><time>2026-04-26T13:17:13Z</time></trkpt><trkpt lat="38.05223244914651" lon="15.18937409243651"><ele>296.66666666666663</ele><time>2026-04-26T13:17:14Z</time></trkpt><trkpt lat="38.052080795115366" lon="15.189438848558234"><ele>307.0</ele><time>2026-04-26T13:17:15Z</time></trkpt><trkpt lat="38.05192967324528" lon="15.18951318426307"><ele>307.0</ele><time>2026-04-26T13:17:16Z</time></trkpt><trkpt lat="38.05177915895736" lon="15.189612531046365"><ele>307.0</ele><time>2026-04-26T13:17:17Z</time></trkpt><trkpt lat="38.05163602299139" lon="15.189726782932695"><ele>307.0</ele><time>2026-04-26T13:17:18Z</time></trkpt><trkpt lat="38.051497215848244" lon="15.18984685660708"><ele>303.66666666666663</ele><time>2026-04-26T13:17:19Z</time></trkpt><trkpt lat="38.05136507008856" lon="15.189975187969017"><ele>300.3333333333333</ele><time>2026-04-26T13:17:20Z</time></trkpt><trkpt lat="38.05122284090631" lon="15.19011942018647"><ele>297.0</ele><time>2026-04-26T13:17:21Z</time></trkpt><trkpt lat="38.051091529087934" lon="15.190241304208715"><ele>297.0</ele><time>2026-04-26T13:17:22Z</time></trkpt><trkpt lat="38.05095688802598" lon="15.19036222338299"><ele>297.0</ele><time>2026-04-26T13:17:23Z</time></trkpt><trkpt lat="38.050822774551776" lon="15.190478304207032"><ele>297.0</ele><time>2026-04-26T13:17:24Z</time></trkpt><trkpt lat="38.05069601280104" lon="15.190592784829402"><ele>293.0</ele><time>2026-04-26T13:17:25Z</time></trkpt><trkpt lat="38.05057866722228" lon="15.19070491578199"><ele>289.0</ele><time>2026-04-26T13:17:26Z</time></trkpt><trkpt lat="38.050474408149874" lon="15.190793686599347"><ele>285.0</ele><time>2026-04-26T13:17:27Z</time></trkpt><trkpt lat="38.05036579113554" lon="15.190826764091028"><ele>281.0</ele><time>2026-04-26T13:17:28Z</time></trkpt><trkpt lat="38.050257876948756" lon="15.190856253194427"><ele>281.0</ele><time>2026-04-26T13:17:29Z</time></trkpt><trkpt lat="38.05014414811652" lon="15.19083183557604"><ele>281.0</ele><time>2026-04-26T13:17:30Z</time></trkpt><trkpt lat="38.05003194584976" lon="15.19081019100872"><ele>281.0</ele><time>2026-04-26T13:17:31Z</time></trkpt><trkpt lat="38.04996595765599" lon="15.190681840213784"><ele>281.0</ele><time>2026-04-26T13:17:32Z</time></trkpt><trkpt lat="38.0499283976158" lon="15.190554512113948"><ele>280.75</ele><time>2026-04-26T13:17:33Z</time></trkpt><trkpt lat="38.04991678670991" lon="15.190409015827306"><ele>280.5</ele><time>2026-04-26T13:17:34Z</time></trkpt><trkpt lat="38.04993739818303" lon="15.190256396736816"><ele>280.25</ele><time>2026-04-26T13:17:35Z</time></trkpt><trkpt lat="38.049998703902126" lon="15.190112922008838"><ele>280.0</ele><time>2026-04-26T13:17:36Z</time></trkpt><trkpt lat="38.050087802676444" lon="15.189988270568248"><ele>281.75</ele><time>2026-04-26T13:17:37Z</time></trkpt><trkpt lat="38.0501621464295" lon="15.189841521989623"><ele>283.5</ele><time>2026-04-26T13:17:38Z</time></trkpt><trkpt lat="38.05023165131322" lon="15.189690441806313"><ele>285.25</ele><time>2026-04-26T13:17:39Z</time></trkpt><trkpt lat="38.050272969774575" lon="15.189510225359282"><ele>287.0</ele><time>2026-04-26T13:17:40Z</time></trkpt><trkpt lat="38.05029706680824" lon="15.189316824790634"><ele>287.0</ele><time>2026-04-26T13:17:41Z</time></trkpt><trkpt lat="38.050316178495535" lon="15.189121597250052"><ele>287.0</ele><time>2026-04-26T13:17:42Z</time></trkpt><trkpt lat="38.05034303534911" lon="15.188929435481825"><ele>287.0</ele><time>2026-04-26T13:17:43Z</time></trkpt><trkpt lat="38.05037292804211" lon="15.18874379531135"><ele>287.75</ele><time>2026-04-26T13:17:44Z</time></trkpt><trkpt lat="38.05039391817065" lon="15.188550806141587"><ele>288.5</ele><time>2026-04-26T13:17:45Z</time></trkpt><trkpt lat="38.050402682548196" lon="15.188362951131266"><ele>289.25</ele><time>2026-04-26T13:17:45.999Z</time></trkpt><trkpt lat="38.05040698481793" lon="15.188180538782147"><ele>290.0</ele><time>2026-04-26T13:17:46.999Z</time></trkpt><trkpt lat="38.05039438512884" lon="15.187987410024274"><ele>292.0</ele><time>2026-04-26T13:17:47.999Z</time></trkpt><trkpt lat="38.05035984752563" lon="15.187791316300501"><ele>294.0</ele><time>2026-04-26T13:17:48.999Z</time></trkpt><trkpt lat="38.050297995378585" lon="15.187602504741337"><ele>296.0</ele><time>2026-04-26T13:17:49.999Z</time></trkpt><trkpt lat="38.05021958543088" lon="15.187424238210967"><ele>300.33333333333337</ele><time>2026-04-26T13:17:50.999Z</time></trkpt><trkpt lat="38.05013945137531" lon="15.187253995061123"><ele>304.6666666666667</ele><time>2026-04-26T13:17:51.999Z</time></trkpt><trkpt lat="38.05006067947163" lon="15.187077241599145"><ele>309.0</ele><time>2026-04-26T13:17:52.999Z</time></trkpt><trkpt lat="38.04999911089935" lon="15.18689912456641"><ele>306.0</ele><time>2026-04-26T13:17:53.999Z</time></trkpt><trkpt lat="38.04991995734644" lon="15.18672404367515"><ele>303.0</ele><time>2026-04-26T13:17:54.999Z</time></trkpt><trkpt lat="38.04984519474351" lon="15.186558675197572"><ele>300.0</ele><time>2026-04-26T13:17:55.999Z</time></trkpt><trkpt lat="38.04975777327617" lon="15.186396348124937"><ele>300.0</ele><time>2026-04-26T13:17:56.999Z</time></trkpt><trkpt lat="38.04968425452728" lon="15.186227490964775"><ele>300.0</ele><time>2026-04-26T13:17:57.999Z</time></trkpt><trkpt lat="38.04960113397186" lon="15.186054434076391"><ele>300.0</ele><time>2026-04-26T13:17:58.999Z</time></trkpt><trkpt lat="38.049539040129034" lon="15.185876546210034"><ele>300.0</ele><time>2026-04-26T13:17:59.999Z</time></trkpt><trkpt lat="38.049463232947005" lon="15.185706028235881"><ele>300.0</ele><time>2026-04-26T13:18:00.999Z</time></trkpt><trkpt lat="38.049373623997155" lon="15.185541989402331"><ele>300.0</ele><time>2026-04-26T13:18:01.999Z</time></trkpt><trkpt lat="38.04930395616065" lon="15.185377994376394"><ele>301.3333333333333</ele><time>2026-04-26T13:18:02.999Z</time></trkpt><trkpt lat="38.049227372064635" lon="15.185202167472431"><ele>302.66666666666663</ele><time>2026-04-26T13:18:03.999Z</time></trkpt><trkpt lat="38.04915390957657" lon="15.18503570966957"><ele>304.0</ele><time>2026-04-26T13:18:04.999Z</time></trkpt><trkpt lat="38.049082199595446" lon="15.184869079567362"><ele>307.75</ele><time>2026-04-26T13:18:05.999Z</time></trkpt><trkpt lat="38.04901193274443" lon="15.184722524592193"><ele>311.5</ele><time>2026-04-26T13:18:06.999Z</time></trkpt><trkpt lat="38.04893778905439" lon="15.18459433884714"><ele>315.25</ele><time>2026-04-26T13:18:07.999Z</time></trkpt><trkpt lat="38.04885972752421" lon="15.184475400772694"><ele>319.0</ele><time>2026-04-26T13:18:08.999Z</time></trkpt><trkpt lat="38.04872562447184" lon="15.1844260913577"><ele>319.0</ele><time>2026-04-26T13:18:09.999Z</time></trkpt><trkpt lat="38.048597910150264" lon="15.184393756984775"><ele>319.0</ele><time>2026-04-26T13:18:10.999Z</time></trkpt><trkpt lat="38.04846136904188" lon="15.184412443411892"><ele>319.0</ele><time>2026-04-26T13:18:11.999Z</time></trkpt><trkpt lat="38.04832452397873" lon="15.184468135831242"><ele>319.0</ele><time>2026-04-26T13:18:12.999Z</time></trkpt><trkpt lat="38.04819069477203" lon="15.184554451152467"><ele>319.3333333333333</ele><time>2026-04-26T13:18:13.999Z</time></trkpt><trkpt lat="38.048058786905024" lon="15.184667802614605"><ele>319.6666666666667</ele><time>2026-04-26T13:18:14.999Z</time></trkpt><trkpt lat="38.04792328593306" lon="15.184790125226932"><ele>320.0</ele><time>2026-04-26T13:18:15.999Z</time></trkpt><trkpt lat="38.04779701575117" lon="15.18491492261208"><ele>319.5</ele><time>2026-04-26T13:18:16.999Z</time></trkpt><trkpt lat="38.04766955299557" lon="15.185023447319484"><ele>319.0</ele><time>2026-04-26T13:18:17.999Z</time></trkpt><trkpt lat="38.0475625869172" lon="15.1851099896906"><ele>318.5</ele><time>2026-04-26T13:18:18.999Z</time></trkpt><trkpt lat="38.047466822482725" lon="15.185197157356493"><ele>318.0</ele><time>2026-04-26T13:18:19.999Z</time></trkpt><trkpt lat="38.04737006320355" lon="15.185270244113404"><ele>319.25</ele><time>2026-04-26T13:18:20.999Z</time></trkpt><trkpt lat="38.04727232933543" lon="15.185327643109654"><ele>320.5</ele><time>2026-04-26T13:18:21.999Z</time></trkpt><trkpt lat="38.047163625587594" lon="15.185367662675484"><ele>321.75</ele><time>2026-04-26T13:18:22.999Z</time></trkpt><trkpt lat="38.047051136010175" lon="15.185374835933336"><ele>323.0</ele><time>2026-04-26T13:18:23.999Z</time></trkpt><trkpt lat="38.04694566051873" lon="15.18530613467434"><ele>323.0</ele><time>2026-04-26T13:18:24.999Z</time></trkpt><trkpt lat="38.04685963175497" lon="15.185214444353626"><ele>323.0</ele><time>2026-04-26T13:18:25.999Z</time></trkpt><trkpt lat="38.046775629210636" lon="15.18510491522199"><ele>323.0</ele><time>2026-04-26T13:18:26.999Z</time></trkpt><trkpt lat="38.04671102324798" lon="15.184965086386592"><ele>323.0</ele><time>2026-04-26T13:18:27.999Z</time></trkpt><trkpt lat="38.04663932658925" lon="15.18482346406834"><ele>324.25</ele><time>2026-04-26T13:18:28.999Z</time></trkpt><trkpt lat="38.046555991203796" lon="15.184684242010652"><ele>325.5</ele><time>2026-04-26T13:18:29.999Z</time></trkpt><trkpt lat="38.04646519528107" lon="15.18453938060204"><ele>326.75</ele><time>2026-04-26T13:18:30.999Z</time></trkpt><trkpt lat="38.04636157348905" lon="15.1844117903935"><ele>328.0</ele><time>2026-04-26T13:18:31.999Z</time></trkpt><trkpt lat="38.04625679179596" lon="15.184294120233956"><ele>328.0</ele><time>2026-04-26T13:18:32.999Z</time></trkpt><trkpt lat="38.0461452260419" lon="15.184180715217646"><ele>328.0</ele><time>2026-04-26T13:18:33.999Z</time></trkpt><trkpt lat="38.04603134345445" lon="15.184085433251976"><ele>328.0</ele><time>2026-04-26T13:18:34.999Z</time></trkpt><trkpt lat="38.04591013401674" lon="15.184001243655043"><ele>328.0</ele><time>2026-04-26T13:18:35.999Z</time></trkpt><trkpt lat="38.045793381503046" lon="15.18393680490282"><ele>333.25</ele><time>2026-04-26T13:18:36.999Z</time></trkpt><trkpt lat="38.045662437381246" lon="15.183872968924899"><ele>338.5</ele><time>2026-04-26T13:18:37.999Z</time></trkpt><trkpt lat="38.045531966969776" lon="15.183808281019154"><ele>343.75</ele><time>2026-04-26T13:18:38.999Z</time></trkpt><trkpt lat="38.04538929719609" lon="15.183758009572019"><ele>349.0</ele><time>2026-04-26T13:18:39.999Z</time></trkpt><trkpt lat="38.045241602575594" lon="15.183705954056501"><ele>349.0</ele><time>2026-04-26T13:18:40.999Z</time></trkpt><trkpt lat="38.04509303157094" lon="15.183659370098617"><ele>349.0</ele><time>2026-04-26T13:18:41.999Z</time></trkpt><trkpt lat="38.04494021049935" lon="15.183618212078466"><ele>349.0</ele><time>2026-04-26T13:18:42.999Z</time></trkpt><trkpt lat="38.04477817699203" lon="15.183580164989769"><ele>345.66666666666663</ele><time>2026-04-26T13:18:43.999Z</time></trkpt><trkpt lat="38.044615992501356" lon="15.183550206584158"><ele>342.3333333333333</ele><time>2026-04-26T13:18:44.999Z</time></trkpt><trkpt lat="38.04445587795672" lon="15.183520819527905"><ele>339.0</ele><time>2026-04-26T13:18:45.999Z</time></trkpt><trkpt lat="38.044283361980085" lon="15.183493351828476"><ele>336.6666666666667</ele><time>2026-04-26T13:18:46.999Z</time></trkpt><trkpt lat="38.04411527429891" lon="15.18347222684147"><ele>334.33333333333337</ele><time>2026-04-26T13:18:47.999Z</time></trkpt><trkpt lat="38.04394613299726" lon="15.183454437215891"><ele>332.0</ele><time>2026-04-26T13:18:48.999Z</time></trkpt><trkpt lat="38.04377374588688" lon="15.183436404914525"><ele>332.0</ele><time>2026-04-26T13:18:49.999Z</time></trkpt><trkpt lat="38.043604444108794" lon="15.183419088856347"><ele>332.0</ele><time>2026-04-26T13:18:50.999Z</time></trkpt><trkpt lat="38.04343661177427" lon="15.183401981606307"><ele>332.0</ele><time>2026-04-26T13:18:51.999Z</time></trkpt><trkpt lat="38.04327447036675" lon="15.183386250610576"><ele>332.6666666666667</ele><time>2026-04-26T13:18:52.999Z</time></trkpt><trkpt lat="38.04312292512017" lon="15.183372750401594"><ele>333.3333333333333</ele><time>2026-04-26T13:18:53.999Z</time></trkpt><trkpt lat="38.042965502389976" lon="15.18336101885447"><ele>334.0</ele><time>2026-04-26T13:18:54.999Z</time></trkpt><trkpt lat="38.04281492315205" lon="15.18334991528275"><ele>334.0</ele><time>2026-04-26T13:18:55.999Z</time></trkpt><trkpt lat="38.04265317349017" lon="15.183313359259346"><ele>334.0</ele><time>2026-04-26T13:18:56.999Z</time></trkpt><trkpt lat="38.04248411737208" lon="15.18331631262085"><ele>334.0</ele><time>2026-04-26T13:18:57.999Z</time></trkpt><trkpt lat="38.04231961667873" lon="15.18329571981063"><ele>335.3333333333333</ele><time>2026-04-26T13:18:58.999Z</time></trkpt><trkpt lat="38.04215876135972" lon="15.183278514404503"><ele>336.6666666666667</ele><time>2026-04-26T13:18:59.999Z</time></trkpt><trkpt lat="38.04199369470137" lon="15.183263443148347"><ele>338.0</ele><time>2026-04-26T13:19:00.999Z</time></trkpt><trkpt lat="38.04184611321198" lon="15.183244415190076"><ele>338.0</ele><time>2026-04-26T13:19:01.999Z</time></trkpt><trkpt lat="38.04169870023769" lon="15.183226631096469"><ele>338.0</ele><time>2026-04-26T13:19:02.999Z</time></trkpt><trkpt lat="38.041554267054565" lon="15.183218607872954"><ele>338.0</ele><time>2026-04-26T13:19:03.999Z</time></trkpt><trkpt lat="38.04140962553248" lon="15.183204730429749"><ele>338.0</ele><time>2026-04-26T13:19:04.999Z</time></trkpt><trkpt lat="38.04126419207637" lon="15.18319344808753"><ele>342.75</ele><time>2026-04-26T13:19:05.999Z</time></trkpt><trkpt lat="38.041121508595594" lon="15.183176544330339"><ele>347.5</ele><time>2026-04-26T13:19:06.999Z</time></trkpt><trkpt lat="38.04097909326267" lon="15.183159450149054"><ele>352.25</ele><time>2026-04-26T13:19:07.999Z</time></trkpt><trkpt lat="38.04083757713466" lon="15.183142634661708"><ele>357.0</ele><time>2026-04-26T13:19:08.999Z</time></trkpt><trkpt lat="38.040696772630156" lon="15.183128211318836"><ele>359.5</ele><time>2026-04-26T13:19:09.999Z</time></trkpt><trkpt lat="38.040554268763" lon="15.183116837458053"><ele>362.0</ele><time>2026-04-26T13:19:10.999Z</time></trkpt><trkpt lat="38.04042032613532" lon="15.1830834954111"><ele>364.5</ele><time>2026-04-26T13:19:11.999Z</time></trkpt><trkpt lat="38.040282743480205" lon="15.183091224873923"><ele>367.0</ele><time>2026-04-26T13:19:12.999Z</time></trkpt><trkpt lat="38.04013755472875" lon="15.18307650782596"><ele>367.0</ele><time>2026-04-26T13:19:13.999Z</time></trkpt><trkpt lat="38.03998421686371" lon="15.18305706540497"><ele>367.0</ele><time>2026-04-26T13:19:14.999Z</time></trkpt><trkpt lat="38.03983670596229" lon="15.183036387624613"><ele>367.0</ele><time>2026-04-26T13:19:16Z</time></trkpt><trkpt lat="38.03968147716573" lon="15.18301811641635"><ele>366.66666666666663</ele><time>2026-04-26T13:19:17Z</time></trkpt><trkpt lat="38.03951416584676" lon="15.183005548687525"><ele>366.3333333333333</ele><time>2026-04-26T13:19:18Z</time></trkpt><trkpt lat="38.03934823254536" lon="15.182991047264485"><ele>366.0</ele><time>2026-04-26T13:19:19Z</time></trkpt><trkpt lat="38.03918672321641" lon="15.182978045487664"><ele>368.3333333333333</ele><time>2026-04-26T13:19:20Z</time></trkpt><trkpt lat="38.03901698989819" lon="15.182970920246385"><ele>370.66666666666663</ele><time>2026-04-26T13:19:21Z</time></trkpt><trkpt lat="38.03885647089365" lon="15.182976784314642"><ele>373.0</ele><time>2026-04-26T13:19:22Z</time></trkpt><trkpt lat="38.03870353704667" lon="15.182994264812503"><ele>373.0</ele><time>2026-04-26T13:19:23Z</time></trkpt><trkpt lat="38.03855095049232" lon="15.183034862905444"><ele>373.0</ele><time>2026-04-26T13:19:24Z</time></trkpt><trkpt lat="38.03840196197577" lon="15.183090094877109"><ele>373.0</ele><time>2026-04-26T13:19:25Z</time></trkpt><trkpt lat="38.03825159039353" lon="15.183159862168123"><ele>370.0</ele><time>2026-04-26T13:19:26Z</time></trkpt><trkpt lat="38.03810478204933" lon="15.183247165866893"><ele>367.0</ele><time>2026-04-26T13:19:27Z</time></trkpt><trkpt lat="38.037964138608615" lon="15.183354586495224"><ele>364.0</ele><time>2026-04-26T13:19:28Z</time></trkpt><trkpt lat="38.037825943122584" lon="15.18346207939604"><ele>364.0</ele><time>2026-04-26T13:19:29Z</time></trkpt><trkpt lat="38.03769206529131" lon="15.18356001805689"><ele>364.0</ele><time>2026-04-26T13:19:30Z</time></trkpt><trkpt lat="38.037558261572116" lon="15.183655239025825"><ele>364.0</ele><time>2026-04-26T13:19:31Z</time></trkpt><trkpt lat="38.03743239849857" lon="15.18375201349506"><ele>361.5</ele><time>2026-04-26T13:19:32Z</time></trkpt><trkpt lat="38.03730296282571" lon="15.183852982052604"><ele>359.0</ele><time>2026-04-26T13:19:33Z</time></trkpt><trkpt lat="38.03718108980666" lon="15.183935532152335"><ele>356.5</ele><time>2026-04-26T13:19:34Z</time></trkpt><trkpt lat="38.037075722190984" lon="15.183991322314748"><ele>354.0</ele><time>2026-04-26T13:19:35Z</time></trkpt><trkpt lat="38.03697150070435" lon="15.184015866811421"><ele>354.0</ele><time>2026-04-26T13:19:36Z</time></trkpt><trkpt lat="38.03685279853332" lon="15.184008992473535"><ele>354.0</ele><time>2026-04-26T13:19:37Z</time></trkpt><trkpt lat="38.03674386235402" lon="15.1839478611194"><ele>354.0</ele><time>2026-04-26T13:19:38Z</time></trkpt><trkpt lat="38.036639261538745" lon="15.183869407270274"><ele>354.0</ele><time>2026-04-26T13:19:39Z</time></trkpt><trkpt lat="38.03652345221603" lon="15.183803011413941"><ele>357.75</ele><time>2026-04-26T13:19:40Z</time></trkpt><trkpt lat="38.03642559698339" lon="15.183711149521741"><ele>361.5</ele><time>2026-04-26T13:19:41Z</time></trkpt><trkpt lat="38.03632590037339" lon="15.183652274893637"><ele>365.25</ele><time>2026-04-26T13:19:42Z</time></trkpt><trkpt lat="38.03622021269696" lon="15.18362691208483"><ele>369.0</ele><time>2026-04-26T13:19:43Z</time></trkpt><trkpt lat="38.0360978924294" lon="15.183634562173685"><ele>369.0</ele><time>2026-04-26T13:19:44Z</time></trkpt><trkpt lat="38.035971523539914" lon="15.183699154973432"><ele>369.0</ele><time>2026-04-26T13:19:45Z</time></trkpt><trkpt lat="38.03584991886487" lon="15.18379539245832"><ele>369.0</ele><time>2026-04-26T13:19:46Z</time></trkpt><trkpt lat="38.03574386578416" lon="15.183911360866478"><ele>369.0</ele><time>2026-04-26T13:19:47Z</time></trkpt><trkpt lat="38.03562350279384" lon="15.18400720694334"><ele>367.6</ele><time>2026-04-26T13:19:48Z</time></trkpt><trkpt lat="38.03553282430493" lon="15.184098390250123"><ele>366.2</ele><time>2026-04-26T13:19:49Z</time></trkpt><trkpt lat="38.03545019028121" lon="15.184181484133644"><ele>364.8</ele><time>2026-04-26T13:19:50Z</time></trkpt><trkpt lat="38.03537167265851" lon="15.184268221783997"><ele>363.40000000000003</ele><time>2026-04-26T13:19:51Z</time></trkpt><trkpt lat="38.03527309056361" lon="15.184293617084208"><ele>362.0</ele><time>2026-04-26T13:19:52Z</time></trkpt><trkpt lat="38.03517848410697" lon="15.1843174539174"><ele>362.0</ele><time>2026-04-26T13:19:53Z</time></trkpt><trkpt lat="38.03506883996735" lon="15.184258803199329"><ele>362.0</ele><time>2026-04-26T13:19:54Z</time></trkpt><trkpt lat="38.03495535591269" lon="15.184198498811433"><ele>362.0</ele><time>2026-04-26T13:19:55Z</time></trkpt><trkpt lat="38.0348246061445" lon="15.184183091972493"><ele>362.0</ele><time>2026-04-26T13:19:56Z</time></trkpt><trkpt lat="38.034694456979146" lon="15.184195440243347"><ele>364.5</ele><time>2026-04-26T13:19:57Z</time></trkpt><trkpt lat="38.03457522932318" lon="15.184267726156284"><ele>367.0</ele><time>2026-04-26T13:19:58Z</time></trkpt><trkpt lat="38.034455492375734" lon="15.184274561636666"><ele>369.5</ele><time>2026-04-26T13:19:59Z</time></trkpt><trkpt lat="38.03430101469095" lon="15.184272710660037"><ele>372.0</ele><time>2026-04-26T13:20:00Z</time></trkpt><trkpt lat="38.0341621691205" lon="15.1842646997009"><ele>374.5</ele><time>2026-04-26T13:20:01Z</time></trkpt><trkpt lat="38.03402093749063" lon="15.184259181162053"><ele>377.0</ele><time>2026-04-26T13:20:01.999Z</time></trkpt><trkpt lat="38.03389899746427" lon="15.18425420987002"><ele>379.5</ele><time>2026-04-26T13:20:02.999Z</time></trkpt><trkpt lat="38.03377352525283" lon="15.184241332701948"><ele>382.0</ele><time>2026-04-26T13:20:03.999Z</time></trkpt><trkpt lat="38.03365586610824" lon="15.184213640631038"><ele>382.0</ele><time>2026-04-26T13:20:04.999Z</time></trkpt><trkpt lat="38.0335430348456" lon="15.184169568450889"><ele>382.0</ele><time>2026-04-26T13:20:05.999Z</time></trkpt><trkpt lat="38.03343401493977" lon="15.184117508713591"><ele>382.0</ele><time>2026-04-26T13:20:06.999Z</time></trkpt><trkpt lat="38.0333199885405" lon="15.184094826651085"><ele>382.0</ele><time>2026-04-26T13:20:07.999Z</time></trkpt><trkpt lat="38.033200576196876" lon="15.184128187774974"><ele>387.5</ele><time>2026-04-26T13:20:08.999Z</time></trkpt><trkpt lat="38.033091342874506" lon="15.184239139391813"><ele>393.0</ele><time>2026-04-26T13:20:09.999Z</time></trkpt><trkpt lat="38.03299406609375" lon="15.184345965517497"><ele>398.5</ele><time>2026-04-26T13:20:10.999Z</time></trkpt><trkpt lat="38.03291018304004" lon="15.184493154321295"><ele>404.0</ele><time>2026-04-26T13:20:11.999Z</time></trkpt><trkpt lat="38.032833240792854" lon="15.184650718546871"><ele>404.0</ele><time>2026-04-26T13:20:12.999Z</time></trkpt><trkpt lat="38.0327480409979" lon="15.18477403165386"><ele>404.0</ele><time>2026-04-26T13:20:13.999Z</time></trkpt><trkpt lat="38.032688962247924" lon="15.184888865459433"><ele>404.0</ele><time>2026-04-26T13:20:14.999Z</time></trkpt><trkpt lat="38.032592804285436" lon="15.184943082877618"><ele>404.0</ele><time>2026-04-26T13:20:15.999Z</time></trkpt><trkpt lat="38.0324884079319" lon="15.184960551762776"><ele>404.0</ele><time>2026-04-26T13:20:16.999Z</time></trkpt><trkpt lat="38.03235887783327" lon="15.184962965842768"><ele>399.75</ele><time>2026-04-26T13:20:17.999Z</time></trkpt><trkpt lat="38.03223368944388" lon="15.185001136400773"><ele>395.5</ele><time>2026-04-26T13:20:18.999Z</time></trkpt><trkpt lat="38.03210432856138" lon="15.18505623514914"><ele>391.25</ele><time>2026-04-26T13:20:19.999Z</time></trkpt><trkpt lat="38.03198837416143" lon="15.18516577462264"><ele>387.0</ele><time>2026-04-26T13:20:20.999Z</time></trkpt><trkpt lat="38.03189175886051" lon="15.18526887951145"><ele>387.0</ele><time>2026-04-26T13:20:21.999Z</time></trkpt><trkpt lat="38.03179287658843" lon="15.18532179294749"><ele>387.0</ele><time>2026-04-26T13:20:22.999Z</time></trkpt><trkpt lat="38.03171036455549" lon="15.18534929209039"><ele>387.0</ele><time>2026-04-26T13:20:23.999Z</time></trkpt><trkpt lat="38.03158993849328" lon="15.185309222053816"><ele>387.0</ele><time>2026-04-26T13:20:24.999Z</time></trkpt><trkpt lat="38.0314879854929" lon="15.185266601151758"><ele>387.0</ele><time>2026-04-26T13:20:25.999Z</time></trkpt><trkpt lat="38.031330573821265" lon="15.185273202139722"><ele>386.5</ele><time>2026-04-26T13:20:26.999Z</time></trkpt><trkpt lat="38.03118602817614" lon="15.185280245156681"><ele>386.0</ele><time>2026-04-26T13:20:27.999Z</time></trkpt><trkpt lat="38.031040417086786" lon="15.185286640871551"><ele>385.5</ele><time>2026-04-26T13:20:28.999Z</time></trkpt><trkpt lat="38.03089698479634" lon="15.185264740702406"><ele>385.0</ele><time>2026-04-26T13:20:29.999Z</time></trkpt><trkpt lat="38.0307732732707" lon="15.185213912645194"><ele>383.0</ele><time>2026-04-26T13:20:30.999Z</time></trkpt><trkpt lat="38.03066084011466" lon="15.185143358295466"><ele>381.0</ele><time>2026-04-26T13:20:31.999Z</time></trkpt><trkpt lat="38.03055454176856" lon="15.185051198621679"><ele>379.0</ele><time>2026-04-26T13:20:32.999Z</time></trkpt><trkpt lat="38.0304504499529" lon="15.18494335844392"><ele>377.0</ele><time>2026-04-26T13:20:33.999Z</time></trkpt><trkpt lat="38.03033726478532" lon="15.18485244120058"><ele>376.0</ele><time>2026-04-26T13:20:34.999Z</time></trkpt><trkpt lat="38.03019612205" lon="15.18479106545672"><ele>375.0</ele><time>2026-04-26T13:20:35.999Z</time></trkpt><trkpt lat="38.03005186437979" lon="15.1847454325002"><ele>374.0</ele><time>2026-04-26T13:20:36.999Z</time></trkpt><trkpt lat="38.02991726528463" lon="15.18470093751141"><ele>373.0</ele><time>2026-04-26T13:20:37.999Z</time></trkpt><trkpt lat="38.02981956964754" lon="15.18462072549777"><ele>373.0</ele><time>2026-04-26T13:20:38.999Z</time></trkpt><trkpt lat="38.029744687935406" lon="15.184507180123711"><ele>373.0</ele><time>2026-04-26T13:20:39.999Z</time></trkpt><trkpt lat="38.02970938016119" lon="15.184366769877467"><ele>373.0</ele><time>2026-04-26T13:20:40.999Z</time></trkpt><trkpt lat="38.02965437353189" lon="15.184223439189157"><ele>373.0</ele><time>2026-04-26T13:20:41.999Z</time></trkpt><trkpt lat="38.029624023843866" lon="15.184061049146617"><ele>374.75</ele><time>2026-04-26T13:20:42.999Z</time></trkpt><trkpt lat="38.02958298708492" lon="15.18389537725264"><ele>376.5</ele><time>2026-04-26T13:20:43.999Z</time></trkpt><trkpt lat="38.029537165471396" lon="15.183722465587365"><ele>378.25</ele><time>2026-04-26T13:20:44.999Z</time></trkpt><trkpt lat="38.02948564904323" lon="15.183547457972551"><ele>380.0</ele><time>2026-04-26T13:20:45.999Z</time></trkpt><trkpt lat="38.029435818856726" lon="15.18337226936737"><ele>380.0</ele><time>2026-04-26T13:20:46.999Z</time></trkpt><trkpt lat="38.029388241783984" lon="15.183196182217287"><ele>380.0</ele><time>2026-04-26T13:20:47.999Z</time></trkpt><trkpt lat="38.02933802183466" lon="15.183013490196734"><ele>380.0</ele><time>2026-04-26T13:20:48.999Z</time></trkpt><trkpt lat="38.02929401033947" lon="15.182836533456122"><ele>380.0</ele><time>2026-04-26T13:20:49.999Z</time></trkpt><trkpt lat="38.02924480603481" lon="15.182659497101616"><ele>380.25</ele><time>2026-04-26T13:20:50.999Z</time></trkpt><trkpt lat="38.029192248193475" lon="15.182493936945662"><ele>380.5</ele><time>2026-04-26T13:20:51.999Z</time></trkpt><trkpt lat="38.02913990591614" lon="15.18232588763167"><ele>380.75</ele><time>2026-04-26T13:20:52.999Z</time></trkpt><trkpt lat="38.02908706501717" lon="15.182153115767768"><ele>381.0</ele><time>2026-04-26T13:20:53.999Z</time></trkpt><trkpt lat="38.02903207089632" lon="15.18198054418671"><ele>381.0</ele><time>2026-04-26T13:20:54.999Z</time></trkpt><trkpt lat="38.028979682661515" lon="15.18180991994287"><ele>381.0</ele><time>2026-04-26T13:20:55.999Z</time></trkpt><trkpt lat="38.02893384350071" lon="15.181652356984122"><ele>381.0</ele><time>2026-04-26T13:20:56.999Z</time></trkpt><trkpt lat="38.02888696446453" lon="15.181494080716394"><ele>381.0</ele><time>2026-04-26T13:20:57.999Z</time></trkpt><trkpt lat="38.028837593523996" lon="15.181338373478754"><ele>384.5</ele><time>2026-04-26T13:20:58.999Z</time></trkpt><trkpt lat="38.028778997064975" lon="15.181185934092458"><ele>388.0</ele><time>2026-04-26T13:20:59.999Z</time></trkpt><trkpt lat="38.028699420699645" lon="15.181043577787966"><ele>391.5</ele><time>2026-04-26T13:21:00.999Z</time></trkpt><trkpt lat="38.02859359996853" lon="15.180920259708946"><ele>395.0</ele><time>2026-04-26T13:21:01.999Z</time></trkpt><trkpt lat="38.028473593644556" lon="15.180816784936074"><ele>395.0</ele><time>2026-04-26T13:21:02.999Z</time></trkpt><trkpt lat="38.02834303225793" lon="15.180737239968154"><ele>395.0</ele><time>2026-04-26T13:21:03.999Z</time></trkpt><trkpt lat="38.02820588948057" lon="15.180685849458335"><ele>395.0</ele><time>2026-04-26T13:21:04.999Z</time></trkpt><trkpt lat="38.02806188604268" lon="15.180670929331704"><ele>395.0</ele><time>2026-04-26T13:21:05.999Z</time></trkpt><trkpt lat="38.027920102296406" lon="15.180676605052517"><ele>395.2</ele><time>2026-04-26T13:21:06.999Z</time></trkpt><trkpt lat="38.02779340084967" lon="15.180693198022297"><ele>395.4</ele><time>2026-04-26T13:21:07.999Z</time></trkpt><trkpt lat="38.027684876098306" lon="15.180699066785195"><ele>395.6</ele><time>2026-04-26T13:21:08.999Z</time></trkpt><trkpt lat="38.027580402835135" lon="15.180704712504207"><ele>395.8</ele><time>2026-04-26T13:21:09.999Z</time></trkpt><trkpt lat="38.02747146161879" lon="15.180703579262783"><ele>396.0</ele><time>2026-04-26T13:21:10.999Z</time></trkpt><trkpt lat="38.02737309024122" lon="15.18072075558758"><ele>396.3333333333333</ele><time>2026-04-26T13:21:11.999Z</time></trkpt><trkpt lat="38.027281935535264" lon="15.180732060886548"><ele>396.66666666666663</ele><time>2026-04-26T13:21:12.999Z</time></trkpt><trkpt lat="38.02719707663864" lon="15.180734478375422"><ele>397.0</ele><time>2026-04-26T13:21:13.999Z</time></trkpt><trkpt lat="38.0271216651432" lon="15.180739293954923"><ele>397.3333333333333</ele><time>2026-04-26T13:21:14.999Z</time></trkpt><trkpt lat="38.027051726975905" lon="15.180749126178089"><ele>397.66666666666663</ele><time>2026-04-26T13:21:15.999Z</time></trkpt><trkpt lat="38.02698951858979" lon="15.180764326759952"><ele>398.0</ele><time>2026-04-26T13:21:16.999Z</time></trkpt><trkpt lat="38.02691531609641" lon="15.180821254868253"><ele>398.0</ele><time>2026-04-26T13:21:18.999Z</time></trkpt><trkpt lat="38.02691750396837" lon="15.180958283904182"><ele>398.0</ele><time>2026-04-26T13:21:20.999Z</time></trkpt><trkpt lat="38.0269406700568" lon="15.18105185588207"><ele>398.0</ele><time>2026-04-26T13:21:22Z</time></trkpt><trkpt lat="38.02697035827592" lon="15.181152951086979"><ele>398.0</ele><time>2026-04-26T13:21:23Z</time></trkpt><trkpt lat="38.02699438870279" lon="15.18126802294646"><ele>398.0</ele><time>2026-04-26T13:21:24Z</time></trkpt><trkpt lat="38.027019058655505" lon="15.181405419763639"><ele>398.59999999999997</ele><time>2026-04-26T13:21:25Z</time></trkpt><trkpt lat="38.027044280580974" lon="15.18154363250881"><ele>399.2</ele><time>2026-04-26T13:21:26Z</time></trkpt><trkpt lat="38.0270754110962" lon="15.181673496720201"><ele>399.8</ele><time>2026-04-26T13:21:27Z</time></trkpt><trkpt lat="38.02709926687311" lon="15.181787164822541"><ele>400.4</ele><time>2026-04-26T13:21:28Z</time></trkpt><trkpt lat="38.02712060521789" lon="15.181896340367773"><ele>401.0</ele><time>2026-04-26T13:21:29Z</time></trkpt><trkpt lat="38.027134901436014" lon="15.181996564370785"><ele>400.99999999999994</ele><time>2026-04-26T13:21:30Z</time></trkpt><trkpt lat="38.02714261976903" lon="15.182086871543213"><ele>401.0</ele><time>2026-04-26T13:21:31Z</time></trkpt><trkpt lat="38.02711106965716" lon="15.182161040456982"><ele>401.0</ele><time>2026-04-26T13:21:32Z</time></trkpt><trkpt lat="38.02704209297324" lon="15.182208133369532"><ele>401.0</ele><time>2026-04-26T13:21:33Z</time></trkpt><trkpt lat="38.02695655017512" lon="15.18222930084432"><ele>400.99999999999994</ele><time>2026-04-26T13:21:34Z</time></trkpt><trkpt lat="38.026857716111195" lon="15.182204375577008"><ele>401.0</ele><time>2026-04-26T13:21:35Z</time></trkpt><trkpt lat="38.02678069375678" lon="15.182121483790583"><ele>401.0</ele><time>2026-04-26T13:21:36Z</time></trkpt><trkpt lat="38.026692601348394" lon="15.182026239684225"><ele>401.0</ele><time>2026-04-26T13:21:37Z</time></trkpt><trkpt lat="38.026601805443725" lon="15.181930346737369"><ele>401.0</ele><time>2026-04-26T13:21:38Z</time></trkpt><trkpt lat="38.026518655626305" lon="15.1818283070984"><ele>401.0</ele><time>2026-04-26T13:21:39Z</time></trkpt><trkpt lat="38.02644299909921" lon="15.181739602127667"><ele>406.6</ele><time>2026-04-26T13:21:40Z</time></trkpt><trkpt lat="38.02636653132914" lon="15.181663005483529"><ele>412.20000000000005</ele><time>2026-04-26T13:21:41Z</time></trkpt><trkpt lat="38.02628122406262" lon="15.181614111530685"><ele>417.79999999999995</ele><time>2026-04-26T13:21:42Z</time></trkpt><trkpt lat="38.02618810203879" lon="15.181622291873735"><ele>423.4</ele><time>2026-04-26T13:21:43Z</time></trkpt><trkpt lat="38.026105096025304" lon="15.18167967284627"><ele>429.0</ele><time>2026-04-26T13:21:44Z</time></trkpt><trkpt lat="38.026066140647494" lon="15.18179027075274"><ele>429.0</ele><time>2026-04-26T13:21:45Z</time></trkpt><trkpt lat="38.026072856790755" lon="15.181911450466002"><ele>429.0</ele><time>2026-04-26T13:21:46Z</time></trkpt><trkpt lat="38.026123576018584" lon="15.182017613700205"><ele>429.0</ele><time>2026-04-26T13:21:47Z</time></trkpt><trkpt lat="38.026201038526786" lon="15.182091414215833"><ele>429.0</ele><time>2026-04-26T13:21:48Z</time></trkpt><trkpt lat="38.02630815093424" lon="15.182148176898117"><ele>429.0</ele><time>2026-04-26T13:21:49Z</time></trkpt><trkpt lat="38.02642318597673" lon="15.182219422555148"><ele>429.0</ele><time>2026-04-26T13:21:50Z</time></trkpt><trkpt lat="38.02651844945573" lon="15.182290147762187"><ele>429.0</ele><time>2026-04-26T13:21:51Z</time></trkpt><trkpt lat="38.02661796002907" lon="15.182367181232015"><ele>429.0</ele><time>2026-04-26T13:21:52Z</time></trkpt><trkpt lat="38.026743677454206" lon="15.182445376592158"><ele>429.0</ele><time>2026-04-26T13:21:53Z</time></trkpt><trkpt lat="38.02686744367832" lon="15.182529955564895"><ele>427.75</ele><time>2026-04-26T13:21:54Z</time></trkpt><trkpt lat="38.026973979775136" lon="15.182607288645045"><ele>426.5</ele><time>2026-04-26T13:21:55Z</time></trkpt><trkpt lat="38.02707263418429" lon="15.182685821666409"><ele>425.25</ele><time>2026-04-26T13:21:56Z</time></trkpt><trkpt lat="38.02716404860895" lon="15.182773655651019"><ele>424.0</ele><time>2026-04-26T13:21:57Z</time></trkpt><trkpt lat="38.0272259106072" lon="15.182874090677185"><ele>424.0</ele><time>2026-04-26T13:21:58Z</time></trkpt><trkpt lat="38.02726826102397" lon="15.18302408989084"><ele>424.0</ele><time>2026-04-26T13:21:59Z</time></trkpt><trkpt lat="38.02727394252911" lon="15.183166532582657"><ele>424.0</ele><time>2026-04-26T13:22:00Z</time></trkpt><trkpt lat="38.02727879622092" lon="15.183297818138609"><ele>424.0</ele><time>2026-04-26T13:22:01Z</time></trkpt><trkpt lat="38.02728870493577" lon="15.183421150377068"><ele>424.0</ele><time>2026-04-26T13:22:02Z</time></trkpt><trkpt lat="38.02729520614289" lon="15.183635399990402"><ele>431.5</ele><time>2026-04-26T13:22:03Z</time></trkpt><trkpt lat="38.02729626765977" lon="15.183801018408213"><ele>439.0</ele><time>2026-04-26T13:22:04Z</time></trkpt><trkpt lat="38.0272959121241" lon="15.183971860423174"><ele>446.5</ele><time>2026-04-26T13:22:05Z</time></trkpt><trkpt lat="38.027299292728735" lon="15.184142664431327"><ele>454.0</ele><time>2026-04-26T13:22:06Z</time></trkpt><trkpt lat="38.02730035321659" lon="15.184302955909073"><ele>455.0</ele><time>2026-04-26T13:22:07Z</time></trkpt><trkpt lat="38.02729057082542" lon="15.184441697511188"><ele>456.0</ele><time>2026-04-26T13:22:08Z</time></trkpt><trkpt lat="38.02724867004307" lon="15.184565191145529"><ele>457.0</ele><time>2026-04-26T13:22:09Z</time></trkpt><trkpt lat="38.02713807756203" lon="15.184611480363136"><ele>458.0</ele><time>2026-04-26T13:22:10Z</time></trkpt><trkpt lat="38.02702810952766" lon="15.18469079394835"><ele>458.0</ele><time>2026-04-26T13:22:11Z</time></trkpt><trkpt lat="38.02690769602455" lon="15.18477119750722"><ele>458.0</ele><time>2026-04-26T13:22:12Z</time></trkpt><trkpt lat="38.0267770573253" lon="15.184858428680263"><ele>458.0</ele><time>2026-04-26T13:22:13Z</time></trkpt><trkpt lat="38.02665096011895" lon="15.184941693744376"><ele>458.0</ele><time>2026-04-26T13:22:14Z</time></trkpt><trkpt lat="38.02651603725236" lon="15.18502817206598"><ele>455.3333333333333</ele><time>2026-04-26T13:22:15Z</time></trkpt><trkpt lat="38.02637595144169" lon="15.185115222182995"><ele>452.66666666666663</ele><time>2026-04-26T13:22:16Z</time></trkpt><trkpt lat="38.02623962901974" lon="15.185220029303117"><ele>450.0</ele><time>2026-04-26T13:22:17Z</time></trkpt><trkpt lat="38.026098101891435" lon="15.185308482378915"><ele>450.0</ele><time>2026-04-26T13:22:18Z</time></trkpt><trkpt lat="38.02594852057555" lon="15.185381222032419"><ele>450.0</ele><time>2026-04-26T13:22:19Z</time></trkpt><trkpt lat="38.02581687390863" lon="15.185485884806054"><ele>450.0</ele><time>2026-04-26T13:22:20Z</time></trkpt><trkpt lat="38.025685547763" lon="15.185577511499044"><ele>452.33333333333337</ele><time>2026-04-26T13:22:21Z</time></trkpt><trkpt lat="38.02555986170927" lon="15.185689190461012"><ele>454.6666666666667</ele><time>2026-04-26T13:22:22Z</time></trkpt><trkpt lat="38.0254499417894" lon="15.185828596173042"><ele>457.0</ele><time>2026-04-26T13:22:23Z</time></trkpt><trkpt lat="38.025357175315115" lon="15.185984720800985"><ele>457.0</ele><time>2026-04-26T13:22:24Z</time></trkpt><trkpt lat="38.025293057300516" lon="15.18616111253395"><ele>457.0</ele><time>2026-04-26T13:22:25Z</time></trkpt><trkpt lat="38.02527242479233" lon="15.186348755864755"><ele>457.0</ele><time>2026-04-26T13:22:26Z</time></trkpt><trkpt lat="38.02523634343204" lon="15.186517661519195"><ele>457.0</ele><time>2026-04-26T13:22:27Z</time></trkpt><trkpt lat="38.025193287849056" lon="15.186666034888983"><ele>458.25</ele><time>2026-04-26T13:22:28Z</time></trkpt><trkpt lat="38.0251298137953" lon="15.18680912671881"><ele>459.5</ele><time>2026-04-26T13:22:29Z</time></trkpt><trkpt lat="38.02502902423204" lon="15.18690478586856"><ele>460.75</ele><time>2026-04-26T13:22:30Z</time></trkpt><trkpt lat="38.02492550494988" lon="15.18699378070117"><ele>462.0</ele><time>2026-04-26T13:22:31Z</time></trkpt><trkpt lat="38.02480750417984" lon="15.187049458790066"><ele>462.0</ele><time>2026-04-26T13:22:32Z</time></trkpt><trkpt lat="38.024680557621394" lon="15.187079908186321"><ele>462.0</ele><time>2026-04-26T13:22:33Z</time></trkpt><trkpt lat="38.02454202693977" lon="15.187087952830879"><ele>462.0</ele><time>2026-04-26T13:22:33.999Z</time></trkpt><trkpt lat="38.02439807278187" lon="15.187087301001535"><ele>462.0</ele><time>2026-04-26T13:22:34.999Z</time></trkpt><trkpt lat="38.024249997131506" lon="15.187087744624895"><ele>462.0</ele><time>2026-04-26T13:22:35.999Z</time></trkpt><trkpt lat="38.02410407091394" lon="15.187090500520796"><ele>462.0</ele><time>2026-04-26T13:22:36.999Z</time></trkpt><trkpt lat="38.023953841581765" lon="15.18711368239285"><ele>462.0</ele><time>2026-04-26T13:22:37.999Z</time></trkpt><trkpt lat="38.02380712731369" lon="15.187094830887828"><ele>462.0</ele><time>2026-04-26T13:22:38.999Z</time></trkpt><trkpt lat="38.0236595449528" lon="15.18709483088992"><ele>462.0</ele><time>2026-04-26T13:22:39.999Z</time></trkpt><trkpt lat="38.023508566295824" lon="15.187094830893809"><ele>462.0</ele><time>2026-04-26T13:22:40.999Z</time></trkpt><trkpt lat="38.023369112596214" lon="15.187109806400578"><ele>462.0</ele><time>2026-04-26T13:22:41.999Z</time></trkpt><trkpt lat="38.023222484496834" lon="15.187092534050675"><ele>462.0</ele><time>2026-04-26T13:22:42.999Z</time></trkpt><trkpt lat="38.023079296752584" lon="15.187043904240747"><ele>459.25</ele><time>2026-04-26T13:22:43.999Z</time></trkpt><trkpt lat="38.0229509113314" lon="15.186954911286982"><ele>456.5</ele><time>2026-04-26T13:22:44.999Z</time></trkpt><trkpt lat="38.02283406502804" lon="15.186855927701345"><ele>453.75</ele><time>2026-04-26T13:22:45.999Z</time></trkpt><trkpt lat="38.022715688655936" lon="15.186750269318592"><ele>451.0</ele><time>2026-04-26T13:22:46.999Z</time></trkpt><trkpt lat="38.022594275573596" lon="15.186654477370729"><ele>450.25</ele><time>2026-04-26T13:22:47.999Z</time></trkpt><trkpt lat="38.02248103169284" lon="15.186540725986406"><ele>449.5</ele><time>2026-04-26T13:22:48.999Z</time></trkpt><trkpt lat="38.02236114128738" lon="15.186436579258539"><ele>448.75</ele><time>2026-04-26T13:22:49.999Z</time></trkpt><trkpt lat="38.0222303482334" lon="15.186348074662394"><ele>448.0</ele><time>2026-04-26T13:22:50.999Z</time></trkpt><trkpt lat="38.02209373594422" lon="15.18628418867748"><ele>459.6666666666667</ele><time>2026-04-26T13:22:51.999Z</time></trkpt><trkpt lat="38.02194604610464" lon="15.186241499144"><ele>471.33333333333337</ele><time>2026-04-26T13:22:52.999Z</time></trkpt><trkpt lat="38.02179413060558" lon="15.186235323981723"><ele>483.0</ele><time>2026-04-26T13:22:53.999Z</time></trkpt><trkpt lat="38.0216472107148" lon="15.186248661497972"><ele>488.0</ele><time>2026-04-26T13:22:54.999Z</time></trkpt><trkpt lat="38.02150687708256" lon="15.18629529426902"><ele>493.0</ele><time>2026-04-26T13:22:55.999Z</time></trkpt><trkpt lat="38.02137846002009" lon="15.186377829147927"><ele>498.0</ele><time>2026-04-26T13:22:56.999Z</time></trkpt><trkpt lat="38.021253498413806" lon="15.186481596958869"><ele>503.0</ele><time>2026-04-26T13:22:57.999Z</time></trkpt><trkpt lat="38.021130431048384" lon="15.186586622398133"><ele>494.25</ele><time>2026-04-26T13:22:58.999Z</time></trkpt><trkpt lat="38.02101741683788" lon="15.18667139190149"><ele>485.5</ele><time>2026-04-26T13:22:59.999Z</time></trkpt><trkpt lat="38.020910006257196" lon="15.18673939066727"><ele>476.75</ele><time>2026-04-26T13:23:00.999Z</time></trkpt><trkpt lat="38.0207914206699" lon="15.18673150595592"><ele>468.0</ele><time>2026-04-26T13:23:01.999Z</time></trkpt><trkpt lat="38.02066946031822" lon="15.186722252406"><ele>468.0</ele><time>2026-04-26T13:23:02.999Z</time></trkpt><trkpt lat="38.020554483401256" lon="15.18672590082712"><ele>467.99999999999994</ele><time>2026-04-26T13:23:03.999Z</time></trkpt><trkpt lat="38.020458561522084" lon="15.186721607019836"><ele>467.99999999999994</ele><time>2026-04-26T13:23:04.999Z</time></trkpt><trkpt lat="38.02036216180757" lon="15.186742104167875"><ele>468.0</ele><time>2026-04-26T13:23:05.999Z</time></trkpt><trkpt lat="38.02026359339166" lon="15.186803500910367"><ele>468.0</ele><time>2026-04-26T13:23:06.999Z</time></trkpt><trkpt lat="38.02015937285632" lon="15.186852394666342"><ele>468.0</ele><time>2026-04-26T13:23:07.999Z</time></trkpt><trkpt lat="38.02004302639123" lon="15.186868711894297"><ele>468.0</ele><time>2026-04-26T13:23:08.999Z</time></trkpt><trkpt lat="38.01992776215335" lon="15.186849161707423"><ele>468.0</ele><time>2026-04-26T13:23:09.999Z</time></trkpt><trkpt lat="38.01980412783829" lon="15.186811047310742"><ele>468.0</ele><time>2026-04-26T13:23:10.999Z</time></trkpt><trkpt lat="38.01966671349722" lon="15.186778863360269"><ele>465.75</ele><time>2026-04-26T13:23:11.999Z</time></trkpt><trkpt lat="38.019530511012306" lon="15.186754752215373"><ele>463.5</ele><time>2026-04-26T13:23:12.999Z</time></trkpt><trkpt lat="38.01939664604098" lon="15.186715190962104"><ele>461.25</ele><time>2026-04-26T13:23:13.999Z</time></trkpt><trkpt lat="38.01925731619408" lon="15.186706132063595"><ele>459.0</ele><time>2026-04-26T13:23:14.999Z</time></trkpt><trkpt lat="38.019121809522176" lon="15.186730072570668"><ele>455.75</ele><time>2026-04-26T13:23:15.999Z</time></trkpt><trkpt lat="38.01898695342362" lon="15.186724582927425"><ele>452.5</ele><time>2026-04-26T13:23:16.999Z</time></trkpt><trkpt lat="38.018859335087996" lon="15.186700094386346"><ele>449.25</ele><time>2026-04-26T13:23:17.999Z</time></trkpt><trkpt lat="38.01873906324428" lon="15.186653184820843"><ele>446.0</ele><time>2026-04-26T13:23:18.999Z</time></trkpt><trkpt lat="38.01861412552691" lon="15.186592372689898"><ele>446.0</ele><time>2026-04-26T13:23:19.999Z</time></trkpt><trkpt lat="38.01848746785954" lon="15.186546664987542"><ele>446.0</ele><time>2026-04-26T13:23:20.999Z</time></trkpt><trkpt lat="38.01835436960906" lon="15.186523020030515"><ele>446.0</ele><time>2026-04-26T13:23:21.999Z</time></trkpt><trkpt lat="38.01821333356257" lon="15.186527965459659"><ele>446.0</ele><time>2026-04-26T13:23:22.999Z</time></trkpt><trkpt lat="38.018064959361524" lon="15.186554846241014"><ele>443.66666666666663</ele><time>2026-04-26T13:23:23.999Z</time></trkpt><trkpt lat="38.01791229046359" lon="15.186606991030317"><ele>441.33333333333337</ele><time>2026-04-26T13:23:24.999Z</time></trkpt><trkpt lat="38.01776596131324" lon="15.186679030048676"><ele>439.0</ele><time>2026-04-26T13:23:25.999Z</time></trkpt><trkpt lat="38.01761535693941" lon="15.186785216346161"><ele>439.25</ele><time>2026-04-26T13:23:26.999Z</time></trkpt><trkpt lat="38.017484846154225" lon="15.186900785310467"><ele>439.5</ele><time>2026-04-26T13:23:28Z</time></trkpt><trkpt lat="38.01737375013679" lon="15.187002718736874"><ele>439.75</ele><time>2026-04-26T13:23:29Z</time></trkpt><trkpt lat="38.017262456362694" lon="15.18710394300472"><ele>440.0</ele><time>2026-04-26T13:23:30Z</time></trkpt><trkpt lat="38.01715140017938" lon="15.18720046398917"><ele>440.0</ele><time>2026-04-26T13:23:31Z</time></trkpt><trkpt lat="38.01704804708456" lon="15.187301942405735"><ele>440.0</ele><time>2026-04-26T13:23:32Z</time></trkpt><trkpt lat="38.01695754938601" lon="15.187411393997449"><ele>440.0</ele><time>2026-04-26T13:23:33Z</time></trkpt><trkpt lat="38.01687059314147" lon="15.187527613836371"><ele>440.0</ele><time>2026-04-26T13:23:34Z</time></trkpt><trkpt lat="38.01677985963762" lon="15.187664081674692"><ele>440.0</ele><time>2026-04-26T13:23:35Z</time></trkpt><trkpt lat="38.01668819115238" lon="15.187807601209144"><ele>440.0</ele><time>2026-04-26T13:23:36Z</time></trkpt><trkpt lat="38.016599207324326" lon="15.187957543435692"><ele>440.0</ele><time>2026-04-26T13:23:37Z</time></trkpt><trkpt lat="38.016515011246604" lon="15.18809893032153"><ele>440.0</ele><time>2026-04-26T13:23:38Z</time></trkpt><trkpt lat="38.01643841343762" lon="15.188233957376285"><ele>440.0</ele><time>2026-04-26T13:23:39Z</time></trkpt><trkpt lat="38.016366888157016" lon="15.188367444237167"><ele>440.0</ele><time>2026-04-26T13:23:40Z</time></trkpt><trkpt lat="38.01629459284438" lon="15.188493351741771"><ele>440.0</ele><time>2026-04-26T13:23:41Z</time></trkpt><trkpt lat="38.0162207817087" lon="15.188619263458088"><ele>440.0</ele><time>2026-04-26T13:23:42Z</time></trkpt><trkpt lat="38.01614696477639" lon="15.188743580735588"><ele>440.0</ele><time>2026-04-26T13:23:43Z</time></trkpt><trkpt lat="38.01607198180134" lon="15.188866985001367"><ele>440.0</ele><time>2026-04-26T13:23:44Z</time></trkpt><trkpt lat="38.01598621115135" lon="15.18899335125598"><ele>440.0</ele><time>2026-04-26T13:23:45Z</time></trkpt><trkpt lat="38.01589770306225" lon="15.189115883548732"><ele>440.0</ele><time>2026-04-26T13:23:46Z</time></trkpt><trkpt lat="38.015803071852815" lon="15.189221405288384"><ele>441.0</ele><time>2026-04-26T13:23:47Z</time></trkpt><trkpt lat="38.015700761162954" lon="15.189319445429582"><ele>442.0</ele><time>2026-04-26T13:23:48Z</time></trkpt><trkpt lat="38.01558447433975" lon="15.18942131422326"><ele>443.0</ele><time>2026-04-26T13:23:49Z</time></trkpt><trkpt lat="38.015453254911286" lon="15.189504141371525"><ele>444.0</ele><time>2026-04-26T13:23:50Z</time></trkpt><trkpt lat="38.01532339092119" lon="15.189601741535737"><ele>444.0</ele><time>2026-04-26T13:23:51Z</time></trkpt><trkpt lat="38.015201842733944" lon="15.189720534803994"><ele>444.0</ele><time>2026-04-26T13:23:52Z</time></trkpt><trkpt lat="38.015076503134566" lon="15.189808548307647"><ele>444.0</ele><time>2026-04-26T13:23:53Z</time></trkpt><trkpt lat="38.01494316167929" lon="15.189880328492626"><ele>444.0</ele><time>2026-04-26T13:23:54Z</time></trkpt><trkpt lat="38.01480156122259" lon="15.189929983698965"><ele>441.25</ele><time>2026-04-26T13:23:55Z</time></trkpt><trkpt lat="38.014662424085145" lon="15.189992745288516"><ele>438.5</ele><time>2026-04-26T13:23:56Z</time></trkpt><trkpt lat="38.014518400568214" lon="15.190055794133228"><ele>435.75</ele><time>2026-04-26T13:23:57Z</time></trkpt><trkpt lat="38.01438089858785" lon="15.190119011048413"><ele>433.0</ele><time>2026-04-26T13:23:58Z</time></trkpt><trkpt lat="38.014237662175546" lon="15.190150038182004"><ele>432.0</ele><time>2026-04-26T13:23:59Z</time></trkpt><trkpt lat="38.01409303598482" lon="15.190157132318072"><ele>431.0</ele><time>2026-04-26T13:24:00Z</time></trkpt><trkpt lat="38.01395795480986" lon="15.190115342242349"><ele>430.0</ele><time>2026-04-26T13:24:01Z</time></trkpt><trkpt lat="38.0138219002885" lon="15.190075704609445"><ele>429.0</ele><time>2026-04-26T13:24:02Z</time></trkpt><trkpt lat="38.013695366744685" lon="15.190032497705571"><ele>429.0</ele><time>2026-04-26T13:24:03Z</time></trkpt><trkpt lat="38.01358729078174" lon="15.189982826085528"><ele>429.0</ele><time>2026-04-26T13:24:04Z</time></trkpt><trkpt lat="38.01348327517821" lon="15.189941657427212"><ele>429.0</ele><time>2026-04-26T13:24:05Z</time></trkpt><trkpt lat="38.01340432856451" lon="15.189845879617488"><ele>429.0</ele><time>2026-04-26T13:24:06Z</time></trkpt><trkpt lat="38.01332692414165" lon="15.189753502970717"><ele>429.0</ele><time>2026-04-26T13:24:07Z</time></trkpt><trkpt lat="38.01323883000253" lon="15.189676010823959"><ele>430.25</ele><time>2026-04-26T13:24:08Z</time></trkpt><trkpt lat="38.01316237004194" lon="15.189575563369083"><ele>431.5</ele><time>2026-04-26T13:24:09Z</time></trkpt><trkpt lat="38.0130750444466" lon="15.189488820946014"><ele>432.75</ele><time>2026-04-26T13:24:10Z</time></trkpt><trkpt lat="38.01297949437735" lon="15.189410160748587"><ele>434.0</ele><time>2026-04-26T13:24:11Z</time></trkpt><trkpt lat="38.01287747765918" lon="15.189339568076246"><ele>434.0</ele><time>2026-04-26T13:24:12Z</time></trkpt><trkpt lat="38.012769841338574" lon="15.189270712311233"><ele>434.0</ele><time>2026-04-26T13:24:13Z</time></trkpt><trkpt lat="38.01266294950867" lon="15.189213930995601"><ele>434.0</ele><time>2026-04-26T13:24:14Z</time></trkpt><trkpt lat="38.01254963788231" lon="15.18916604226654"><ele>434.0</ele><time>2026-04-26T13:24:15Z</time></trkpt><trkpt lat="38.01243334270647" lon="15.189124534264458"><ele>434.5</ele><time>2026-04-26T13:24:16Z</time></trkpt><trkpt lat="38.012309929827445" lon="15.189097518192197"><ele>435.0</ele><time>2026-04-26T13:24:17Z</time></trkpt><trkpt lat="38.01218417051901" lon="15.189088317626553"><ele>435.5</ele><time>2026-04-26T13:24:18Z</time></trkpt><trkpt lat="38.01205329113536" lon="15.189095091663203"><ele>436.0</ele><time>2026-04-26T13:24:19Z</time></trkpt><trkpt lat="38.01192123941145" lon="15.189109577935707"><ele>436.0</ele><time>2026-04-26T13:24:20Z</time></trkpt><trkpt lat="38.01179139210627" lon="15.18912544445111"><ele>436.0</ele><time>2026-04-26T13:24:21Z</time></trkpt><trkpt lat="38.011660601055" lon="15.189140429635012"><ele>436.0</ele><time>2026-04-26T13:24:22Z</time></trkpt><trkpt lat="38.011527208391286" lon="15.189147219104056"><ele>436.0</ele><time>2026-04-26T13:24:23Z</time></trkpt><trkpt lat="38.01138880414801" lon="15.189155049951902"><ele>437.25</ele><time>2026-04-26T13:24:24Z</time></trkpt><trkpt lat="38.01124753685627" lon="15.189166106154635"><ele>438.5</ele><time>2026-04-26T13:24:25Z</time></trkpt><trkpt lat="38.011101302635026" lon="15.189180767092608"><ele>439.75</ele><time>2026-04-26T13:24:26Z</time></trkpt><trkpt lat="38.010952100697715" lon="15.189191845196492"><ele>441.0</ele><time>2026-04-26T13:24:27Z</time></trkpt><trkpt lat="38.010795207960356" lon="15.189204943792515"><ele>441.66666666666663</ele><time>2026-04-26T13:24:28Z</time></trkpt><trkpt lat="38.010637841497214" lon="15.189224872142521"><ele>442.3333333333333</ele><time>2026-04-26T13:24:29Z</time></trkpt><trkpt lat="38.01047908727493" lon="15.189238587830474"><ele>443.0</ele><time>2026-04-26T13:24:30Z</time></trkpt><trkpt lat="38.01032272566123" lon="15.189246248205215"><ele>443.0</ele><time>2026-04-26T13:24:31Z</time></trkpt><trkpt lat="38.01016314721681" lon="15.189256167338877"><ele>443.0</ele><time>2026-04-26T13:24:32Z</time></trkpt><trkpt lat="38.01001035576666" lon="15.189269778371687"><ele>443.0</ele><time>2026-04-26T13:24:33Z</time></trkpt><trkpt lat="38.009861098224874" lon="15.189288820595705"><ele>442.75</ele><time>2026-04-26T13:24:34Z</time></trkpt><trkpt lat="38.00972983868572" lon="15.189324115201467"><ele>442.5</ele><time>2026-04-26T13:24:35Z</time></trkpt><trkpt lat="38.009600476697436" lon="15.189385616742005"><ele>442.25</ele><time>2026-04-26T13:24:36Z</time></trkpt><trkpt lat="38.009472590904295" lon="15.189469853232369"><ele>442.0</ele><time>2026-04-26T13:24:37Z</time></trkpt><trkpt lat="38.009349716832666" lon="15.189559192072153"><ele>442.0</ele><time>2026-04-26T13:24:38Z</time></trkpt><trkpt lat="38.00922496498663" lon="15.189655654269512"><ele>442.0</ele><time>2026-04-26T13:24:39Z</time></trkpt><trkpt lat="38.00910125965475" lon="15.189750244011655"><ele>442.0</ele><time>2026-04-26T13:24:40Z</time></trkpt><trkpt lat="38.00897710257048" lon="15.189858764713106"><ele>442.0</ele><time>2026-04-26T13:24:41Z</time></trkpt><trkpt lat="38.00885769443089" lon="15.189978145949649"><ele>441.5</ele><time>2026-04-26T13:24:42Z</time></trkpt><trkpt lat="38.008741221165145" lon="15.190106580984866"><ele>441.0</ele><time>2026-04-26T13:24:43Z</time></trkpt><trkpt lat="38.00863682312071" lon="15.190225019141133"><ele>440.5</ele><time>2026-04-26T13:24:44Z</time></trkpt><trkpt lat="38.00854209810418" lon="15.190327326987942"><ele>440.0</ele><time>2026-04-26T13:24:45Z</time></trkpt><trkpt lat="38.00845219855689" lon="15.190422917463938"><ele>440.0</ele><time>2026-04-26T13:24:46Z</time></trkpt><trkpt lat="38.00836329593427" lon="15.190528473346191"><ele>440.0</ele><time>2026-04-26T13:24:47Z</time></trkpt><trkpt lat="38.00826360658533" lon="15.190637908924009"><ele>440.0</ele><time>2026-04-26T13:24:48Z</time></trkpt><trkpt lat="38.00815571102289" lon="15.190753992532805"><ele>440.0</ele><time>2026-04-26T13:24:49Z</time></trkpt><trkpt lat="38.0080419321524" lon="15.19086967878297"><ele>442.3333333333333</ele><time>2026-04-26T13:24:50Z</time></trkpt><trkpt lat="38.00792402803142" lon="15.190983564605967"><ele>444.66666666666663</ele><time>2026-04-26T13:24:51Z</time></trkpt><trkpt lat="38.007800746176436" lon="15.191092032014899"><ele>447.0</ele><time>2026-04-26T13:24:52Z</time></trkpt><trkpt lat="38.00767335971259" lon="15.191199586824188"><ele>447.0</ele><time>2026-04-26T13:24:53Z</time></trkpt><trkpt lat="38.00754558785002" lon="15.19130011844766"><ele>447.0</ele><time>2026-04-26T13:24:54Z</time></trkpt><trkpt lat="38.00740985942356" lon="15.191399911928846"><ele>447.0</ele><time>2026-04-26T13:24:55Z</time></trkpt><trkpt lat="38.00727838846414" lon="15.191494013331171"><ele>448.5</ele><time>2026-04-26T13:24:55.999Z</time></trkpt><trkpt lat="38.00714368837284" lon="15.191585994231364"><ele>450.0</ele><time>2026-04-26T13:24:56.999Z</time></trkpt><trkpt lat="38.00701288383063" lon="15.191666924886324"><ele>451.5</ele><time>2026-04-26T13:24:57.999Z</time></trkpt><trkpt lat="38.00688381707006" lon="15.191728722177265"><ele>453.0</ele><time>2026-04-26T13:24:58.999Z</time></trkpt><trkpt lat="38.006756610764036" lon="15.191771936121615"><ele>454.25</ele><time>2026-04-26T13:24:59.999Z</time></trkpt><trkpt lat="38.006624947295556" lon="15.191791542991625"><ele>455.5</ele><time>2026-04-26T13:25:00.999Z</time></trkpt><trkpt lat="38.006485529195174" lon="15.191786078924734"><ele>456.75</ele><time>2026-04-26T13:25:01.999Z</time></trkpt><trkpt lat="38.00634137378292" lon="15.191760332079404"><ele>458.0</ele><time>2026-04-26T13:25:02.999Z</time></trkpt><trkpt lat="38.006196146973586" lon="15.191723291616254"><ele>458.0</ele><time>2026-04-26T13:25:03.999Z</time></trkpt><trkpt lat="38.006043307439505" lon="15.191678794040879"><ele>458.0</ele><time>2026-04-26T13:25:04.999Z</time></trkpt><trkpt lat="38.00589440817811" lon="15.191630752185539"><ele>458.0</ele><time>2026-04-26T13:25:05.999Z</time></trkpt><trkpt lat="38.005741474091515" lon="15.191589428030955"><ele>458.3333333333333</ele><time>2026-04-26T13:25:06.999Z</time></trkpt><trkpt lat="38.00558820914694" lon="15.191549950687929"><ele>458.66666666666663</ele><time>2026-04-26T13:25:07.999Z</time></trkpt><trkpt lat="38.005431630363205" lon="15.191509382261787"><ele>459.0</ele><time>2026-04-26T13:25:08.999Z</time></trkpt><trkpt lat="38.00528967099191" lon="15.19147222105625"><ele>460.75</ele><time>2026-04-26T13:25:09.999Z</time></trkpt><trkpt lat="38.005145396973234" lon="15.191430572026167"><ele>462.5</ele><time>2026-04-26T13:25:10.999Z</time></trkpt><trkpt lat="38.005005899147356" lon="15.19138136308236"><ele>464.25</ele><time>2026-04-26T13:25:11.999Z</time></trkpt><trkpt lat="38.00486464555856" lon="15.191319420467499"><ele>466.0</ele><time>2026-04-26T13:25:12.999Z</time></trkpt><trkpt lat="38.004726435686685" lon="15.19124751243641"><ele>466.0</ele><time>2026-04-26T13:25:13.999Z</time></trkpt><trkpt lat="38.00458438628144" lon="15.191169387661164"><ele>466.0</ele><time>2026-04-26T13:25:14.999Z</time></trkpt><trkpt lat="38.004445652978326" lon="15.19109224978107"><ele>466.0</ele><time>2026-04-26T13:25:15.999Z</time></trkpt><trkpt lat="38.00429741275627" lon="15.191010216717292"><ele>465.0</ele><time>2026-04-26T13:25:16.999Z</time></trkpt><trkpt lat="38.00414125093278" lon="15.19092629411178"><ele>464.0</ele><time>2026-04-26T13:25:17.999Z</time></trkpt><trkpt lat="38.003991346311686" lon="15.190845392004196"><ele>463.0</ele><time>2026-04-26T13:25:18.999Z</time></trkpt><trkpt lat="38.00384129714497" lon="15.190763870132967"><ele>463.0</ele><time>2026-04-26T13:25:19.999Z</time></trkpt><trkpt lat="38.0036866986593" lon="15.19068022684691"><ele>463.0</ele><time>2026-04-26T13:25:20.999Z</time></trkpt><trkpt lat="38.00354359378691" lon="15.190599591677882"><ele>463.0</ele><time>2026-04-26T13:25:21.999Z</time></trkpt><trkpt lat="38.0033984471084" lon="15.190519145736912"><ele>464.75</ele><time>2026-04-26T13:25:22.999Z</time></trkpt><trkpt lat="38.00325868507778" lon="15.19044255717109"><ele>466.5</ele><time>2026-04-26T13:25:23.999Z</time></trkpt><trkpt lat="38.003126794538844" lon="15.190367748245645"><ele>468.25</ele><time>2026-04-26T13:25:24.999Z</time></trkpt><trkpt lat="38.00300315625661" lon="15.190280907245088"><ele>470.0</ele><time>2026-04-26T13:25:25.999Z</time></trkpt><trkpt lat="38.002892238902476" lon="15.190164181454415"><ele>470.0</ele><time>2026-04-26T13:25:26.999Z</time></trkpt><trkpt lat="38.002814599024966" lon="15.190004314386519"><ele>470.0</ele><time>2026-04-26T13:25:27.999Z</time></trkpt><trkpt lat="38.00273085217215" lon="15.189838464552158"><ele>470.0</ele><time>2026-04-26T13:25:28.999Z</time></trkpt><trkpt lat="38.002632138190116" lon="15.189680528649685"><ele>471.0</ele><time>2026-04-26T13:25:29.999Z</time></trkpt><trkpt lat="38.002531219611306" lon="15.189535317808504"><ele>472.0</ele><time>2026-04-26T13:25:30.999Z</time></trkpt><trkpt lat="38.00240816799854" lon="15.189406812015534"><ele>473.0</ele><time>2026-04-26T13:25:31.999Z</time></trkpt><trkpt lat="38.00227651448188" lon="15.189297194394364"><ele>473.0</ele><time>2026-04-26T13:25:33Z</time></trkpt><trkpt lat="38.002144181808255" lon="15.18918417417707"><ele>473.0</ele><time>2026-04-26T13:25:34Z</time></trkpt><trkpt lat="38.002004771842095" lon="15.189074693531088"><ele>473.0</ele><time>2026-04-26T13:25:35Z</time></trkpt><trkpt lat="38.0018557993453" lon="15.188989553957114"><ele>479.0</ele><time>2026-04-26T13:25:36Z</time></trkpt><trkpt lat="38.00169653380204" lon="15.188919372944829"><ele>485.0</ele><time>2026-04-26T13:25:37Z</time></trkpt><trkpt lat="38.001531317134486" lon="15.188856633312229"><ele>491.0</ele><time>2026-04-26T13:25:38Z</time></trkpt><trkpt lat="38.00137333336441" lon="15.188789668585988"><ele>491.0</ele><time>2026-04-26T13:25:39Z</time></trkpt><trkpt lat="38.00122306173243" lon="15.188713366884896"><ele>491.0</ele><time>2026-04-26T13:25:40Z</time></trkpt><trkpt lat="38.001071871751726" lon="15.188645525874442"><ele>491.0</ele><time>2026-04-26T13:25:41Z</time></trkpt><trkpt lat="38.000920169781295" lon="15.188596169418936"><ele>489.3333333333333</ele><time>2026-04-26T13:25:42Z</time></trkpt><trkpt lat="38.00076376416989" lon="15.18855567042147"><ele>487.66666666666663</ele><time>2026-04-26T13:25:43Z</time></trkpt><trkpt lat="38.00061259255927" lon="15.188511806636766"><ele>486.0</ele><time>2026-04-26T13:25:44Z</time></trkpt><trkpt lat="38.00045825474957" lon="15.18846622675691"><ele>486.0</ele><time>2026-04-26T13:25:45Z</time></trkpt><trkpt lat="38.00030632005147" lon="15.188433167274225"><ele>486.0</ele><time>2026-04-26T13:25:46Z</time></trkpt><trkpt lat="38.000145822329515" lon="15.188407876315368"><ele>486.0</ele><time>2026-04-26T13:25:47Z</time></trkpt><trkpt lat="37.999980774962886" lon="15.188396922530911"><ele>486.0</ele><time>2026-04-26T13:25:48Z</time></trkpt><trkpt lat="37.99981541280589" lon="15.188395130401156"><ele>486.0</ele><time>2026-04-26T13:25:49Z</time></trkpt><trkpt lat="37.999649551887806" lon="15.188410055345997"><ele>486.0</ele><time>2026-04-26T13:25:50Z</time></trkpt><trkpt lat="37.9994849097108" lon="15.18844446653991"><ele>486.0</ele><time>2026-04-26T13:25:51Z</time></trkpt><trkpt lat="37.999326626131754" lon="15.188482873850312"><ele>486.0</ele><time>2026-04-26T13:25:52Z</time></trkpt><trkpt lat="37.99918844111783" lon="15.188507319910018"><ele>486.0</ele><time>2026-04-26T13:25:53Z</time></trkpt><trkpt lat="37.99906118557622" lon="15.188484663975974"><ele>486.0</ele><time>2026-04-26T13:25:54Z</time></trkpt><trkpt lat="37.998944003773296" lon="15.188433333914242"><ele>487.0</ele><time>2026-04-26T13:25:55Z</time></trkpt><trkpt lat="37.9988295689086" lon="15.188351113104677"><ele>488.0</ele><time>2026-04-26T13:25:56Z</time></trkpt><trkpt lat="37.9987126724998" lon="15.1882434684907"><ele>489.0</ele><time>2026-04-26T13:25:57Z</time></trkpt><trkpt lat="37.99858249217176" lon="15.188157827406792"><ele>490.0</ele><time>2026-04-26T13:25:58Z</time></trkpt><trkpt lat="37.998461762419595" lon="15.18805768549751"><ele>491.6666666666667</ele><time>2026-04-26T13:25:59Z</time></trkpt><trkpt lat="37.99833382475682" lon="15.187958733251572"><ele>493.33333333333337</ele><time>2026-04-26T13:26:00Z</time></trkpt><trkpt lat="37.998198580093096" lon="15.187877066886138"><ele>495.0</ele><time>2026-04-26T13:26:01Z</time></trkpt><trkpt lat="37.99804414537934" lon="15.187826851545521"><ele>495.0</ele><time>2026-04-26T13:26:02Z</time></trkpt><trkpt lat="37.99787763918024" lon="15.187800540662153"><ele>495.0</ele><time>2026-04-26T13:26:03Z</time></trkpt><trkpt lat="37.997715166378995" lon="15.18778955314925"><ele>495.0</ele><time>2026-04-26T13:26:04Z</time></trkpt><trkpt lat="37.99755458590021" lon="15.187790977922045"><ele>493.66666666666663</ele><time>2026-04-26T13:26:05Z</time></trkpt><trkpt lat="37.997388585617195" lon="15.187790558589864"><ele>492.3333333333333</ele><time>2026-04-26T13:26:06Z</time></trkpt><trkpt lat="37.997226011060555" lon="15.187790168423556"><ele>491.0</ele><time>2026-04-26T13:26:07Z</time></trkpt><trkpt lat="37.99705823596548" lon="15.18778655637489"><ele>491.0</ele><time>2026-04-26T13:26:08Z</time></trkpt><trkpt lat="37.99690326241807" lon="15.18777973801941"><ele>491.0</ele><time>2026-04-26T13:26:09Z</time></trkpt><trkpt lat="37.99674177988708" lon="15.187764066678549"><ele>491.0</ele><time>2026-04-26T13:26:10Z</time></trkpt><trkpt lat="37.99658431639625" lon="15.187737768850479"><ele>492.0</ele><time>2026-04-26T13:26:11Z</time></trkpt><trkpt lat="37.996437379747064" lon="15.18767671125738"><ele>493.0</ele><time>2026-04-26T13:26:12Z</time></trkpt><trkpt lat="37.99628121565072" lon="15.187647660639218"><ele>494.0</ele><time>2026-04-26T13:26:13Z</time></trkpt><trkpt lat="37.99612992441719" lon="15.187602561788223"><ele>494.0</ele><time>2026-04-26T13:26:14Z</time></trkpt><trkpt lat="37.995988947364026" lon="15.18756584772202"><ele>494.0</ele><time>2026-04-26T13:26:15Z</time></trkpt><trkpt lat="37.995862486144276" lon="15.187528919186795"><ele>494.0</ele><time>2026-04-26T13:26:16Z</time></trkpt><trkpt lat="37.995740226429824" lon="15.187495533314127"><ele>494.0</ele><time>2026-04-26T13:26:17Z</time></trkpt><trkpt lat="37.995615539686014" lon="15.187456546761549"><ele>494.79999999999995</ele><time>2026-04-26T13:26:18Z</time></trkpt><trkpt lat="37.99550403941677" lon="15.18742183575184"><ele>495.59999999999997</ele><time>2026-04-26T13:26:19Z</time></trkpt><trkpt lat="37.99540738951235" lon="15.18738847783775"><ele>496.4</ele><time>2026-04-26T13:26:20Z</time></trkpt><trkpt lat="37.995328433913166" lon="15.187354671609086"><ele>497.2</ele><time>2026-04-26T13:26:21Z</time></trkpt><trkpt lat="37.995255534218" lon="15.18730079032912"><ele>498.0</ele><time>2026-04-26T13:26:22Z</time></trkpt><trkpt lat="37.99518722944365" lon="15.187241220603203"><ele>501.1666666666667</ele><time>2026-04-26T13:26:23Z</time></trkpt><trkpt lat="37.99512850549471" lon="15.187178816072988"><ele>504.33333333333337</ele><time>2026-04-26T13:26:24Z</time></trkpt><trkpt lat="37.995075447358985" lon="15.187117495660177"><ele>507.5</ele><time>2026-04-26T13:26:25Z</time></trkpt><trkpt lat="37.99502551159353" lon="15.187063317675245"><ele>510.6666666666667</ele><time>2026-04-26T13:26:26Z</time></trkpt><trkpt lat="37.994944844853194" lon="15.186968648417812"><ele>513.8333333333334</ele><time>2026-04-26T13:26:28Z</time></trkpt><trkpt lat="37.99487888670853" lon="15.186897404048116"><ele>517.0</ele><time>2026-04-26T13:26:30Z</time></trkpt><trkpt lat="37.99482155230693" lon="15.186835392246541"><ele>517.0</ele><time>2026-04-26T13:26:33Z</time></trkpt><trkpt lat="37.99482155230693" lon="15.186835392246541"><ele>517.0</ele><time>2026-04-26T13:26:33Z</time></trkpt><trkpt lat="37.99482155230693" lon="15.186835392246541"><ele>517.0</ele><time>2026-04-26T13:26:33Z</time></trkpt><trkpt lat="37.99482155230693" lon="15.186835392246541"><ele>517.0</ele><time>2026-04-26T13:26:33Z</time></trkpt><trkpt lat="37.99482155230693" lon="15.186835392246541"><ele>517.0</ele><time>2026-04-26T13:26:33Z</time></trkpt><trkpt lat="37.99482155230693" lon="15.186835392246541"><ele>517.0</ele><time>2026-04-26T13:26:33Z</time></trkpt><trkpt lat="37.99482155230693" lon="15.186835392246541"><ele>517.0</ele><time>2026-04-26T13:26:33Z</time></trkpt><trkpt lat="37.99482155230693" lon="15.186835392246541"><ele>517.0</ele><time>2026-04-26T13:26:33Z</time></trkpt><trkpt lat="37.99482155230693" lon="15.186835392246541"><ele>517.0</ele><time>2026-04-26T13:26:33Z</time></trkpt></trkseg><trkseg><trkpt lat="37.99283090057538" lon="15.185479051583616"><ele>548.0</ele><time>2026-04-26T13:41:52.655Z</time></trkpt><trkpt lat="37.992770025934796" lon="15.185403509308903"><ele>548.0</ele><time>2026-04-26T13:41:53.655Z</time></trkpt><trkpt lat="37.99270045456449" lon="15.185313218617726"><ele>548.0</ele><time>2026-04-26T13:41:54.655Z</time></trkpt><trkpt lat="37.99263614016779" lon="15.185204188308449"><ele>548.0</ele><time>2026-04-26T13:41:55.655Z</time></trkpt><trkpt lat="37.99257216239308" lon="15.185098529250912"><ele>548.0</ele><time>2026-04-26T13:41:56.655Z</time></trkpt><trkpt lat="37.992486216274926" lon="15.18495792436138"><ele>547.0</ele><time>2026-04-26T13:41:58.001Z</time></trkpt><trkpt lat="37.992418437496816" lon="15.184855262608139"><ele>546.0</ele><time>2026-04-26T13:41:59.001Z</time></trkpt><trkpt lat="37.992345022357235" lon="15.184759554136274"><ele>545.0</ele><time>2026-04-26T13:42:00.001Z</time></trkpt><trkpt lat="37.99226329393975" lon="15.18467231193255"><ele>544.0</ele><time>2026-04-26T13:42:01.001Z</time></trkpt><trkpt lat="37.99217067625468" lon="15.18459498515511"><ele>543.0</ele><time>2026-04-26T13:42:02.001Z</time></trkpt><trkpt lat="37.992076533205584" lon="15.184525391108396"><ele>543.0</ele><time>2026-04-26T13:42:03.001Z</time></trkpt><trkpt lat="37.99197181951649" lon="15.184466873414005"><ele>543.0</ele><time>2026-04-26T13:42:04.001Z</time></trkpt><trkpt lat="37.99186729051467" lon="15.184429741215261"><ele>543.0</ele><time>2026-04-26T13:42:05.001Z</time></trkpt><trkpt lat="37.99178643201823" lon="15.18441498532269"><ele>543.0</ele><time>2026-04-26T13:42:06.001Z</time></trkpt><trkpt lat="37.99168954273773" lon="15.184403140825482"><ele>543.0</ele><time>2026-04-26T13:42:07.001Z</time></trkpt><trkpt lat="37.99158857420573" lon="15.184408086818685"><ele>539.4</ele><time>2026-04-26T13:42:08.001Z</time></trkpt><trkpt lat="37.99149226850679" lon="15.184427943337562"><ele>535.8</ele><time>2026-04-26T13:42:09.001Z</time></trkpt><trkpt lat="37.99140220101096" lon="15.184449134124328"><ele>532.2</ele><time>2026-04-26T13:42:10.001Z</time></trkpt><trkpt lat="37.991307435254036" lon="15.184479157231962"><ele>528.6</ele><time>2026-04-26T13:42:11.001Z</time></trkpt><trkpt lat="37.991214424440976" lon="15.184513956934557"><ele>525.0</ele><time>2026-04-26T13:42:12.001Z</time></trkpt><trkpt lat="37.991121512574075" lon="15.184567638113183"><ele>525.0</ele><time>2026-04-26T13:42:13.001Z</time></trkpt><trkpt lat="37.99101804714317" lon="15.184629989537575"><ele>525.0</ele><time>2026-04-26T13:42:14.001Z</time></trkpt><trkpt lat="37.99091254497745" lon="15.184693033985846"><ele>525.0</ele><time>2026-04-26T13:42:15.001Z</time></trkpt><trkpt lat="37.99080719998604" lon="15.184754527092146"><ele>525.0</ele><time>2026-04-26T13:42:16.001Z</time></trkpt><trkpt lat="37.99071753875015" lon="15.184811313886003"><ele>525.0</ele><time>2026-04-26T13:42:17.001Z</time></trkpt><trkpt lat="37.99064822314091" lon="15.184854590750255"><ele>523.6</ele><time>2026-04-26T13:42:18.001Z</time></trkpt><trkpt lat="37.99058537982881" lon="15.184893884998942"><ele>522.2</ele><time>2026-04-26T13:42:19.001Z</time></trkpt><trkpt lat="37.99052684271294" lon="15.184924773786415"><ele>520.8</ele><time>2026-04-26T13:42:20Z</time></trkpt><trkpt lat="37.9904137571832" lon="15.18498373131533"><ele>519.4</ele><time>2026-04-26T13:42:22Z</time></trkpt><trkpt lat="37.990282422954586" lon="15.185064176489089"><ele>518.0</ele><time>2026-04-26T13:42:24Z</time></trkpt><trkpt lat="37.99020002010973" lon="15.18511710417004"><ele>518.0</ele><time>2026-04-26T13:42:25Z</time></trkpt><trkpt lat="37.9901180685537" lon="15.185171094126629"><ele>518.0</ele><time>2026-04-26T13:42:26Z</time></trkpt><trkpt lat="37.990029810680156" lon="15.185217201642873"><ele>518.0</ele><time>2026-04-26T13:42:27Z</time></trkpt><trkpt lat="37.98994304642743" lon="15.185268008803032"><ele>518.0</ele><time>2026-04-26T13:42:28Z</time></trkpt><trkpt lat="37.989851501576275" lon="15.18532136452943"><ele>518.0</ele><time>2026-04-26T13:42:29Z</time></trkpt><trkpt lat="37.989753373017294" lon="15.185382895476936"><ele>523.75</ele><time>2026-04-26T13:42:30Z</time></trkpt><trkpt lat="37.989646689085475" lon="15.185438065409606"><ele>529.5</ele><time>2026-04-26T13:42:31Z</time></trkpt><trkpt lat="37.9895354525348" lon="15.185483614763598"><ele>535.25</ele><time>2026-04-26T13:42:32Z</time></trkpt><trkpt lat="37.98942219702233" lon="15.185514656238764"><ele>541.0</ele><time>2026-04-26T13:42:33Z</time></trkpt><trkpt lat="37.98930824905998" lon="15.185533464550918"><ele>541.0</ele><time>2026-04-26T13:42:34Z</time></trkpt><trkpt lat="37.98921467416437" lon="15.185539460127965"><ele>541.0</ele><time>2026-04-26T13:42:35Z</time></trkpt><trkpt lat="37.98913448809764" lon="15.185543680006592"><ele>541.0</ele><time>2026-04-26T13:42:36Z</time></trkpt><trkpt lat="37.989055378140286" lon="15.18556072813735"><ele>541.0</ele><time>2026-04-26T13:42:37Z</time></trkpt><trkpt lat="37.988964584106" lon="15.185569954887072"><ele>541.0</ele><time>2026-04-26T13:42:38Z</time></trkpt><trkpt lat="37.988869233852654" lon="15.185583030424224"><ele>541.0</ele><time>2026-04-26T13:42:39Z</time></trkpt><trkpt lat="37.98876914666512" lon="15.185598774660207"><ele>541.2</ele><time>2026-04-26T13:42:40Z</time></trkpt><trkpt lat="37.98867414113448" lon="15.18561590355714"><ele>541.4000000000001</ele><time>2026-04-26T13:42:41Z</time></trkpt><trkpt lat="37.98857000125792" lon="15.185622215032863"><ele>541.6</ele><time>2026-04-26T13:42:42Z</time></trkpt><trkpt lat="37.98847901451405" lon="15.185615616747375"><ele>541.8000000000001</ele><time>2026-04-26T13:42:43Z</time></trkpt><trkpt lat="37.98839014459748" lon="15.185602813587378"><ele>542.0</ele><time>2026-04-26T13:42:44Z</time></trkpt><trkpt lat="37.9883030871656" lon="15.185577857879467"><ele>542.0</ele><time>2026-04-26T13:42:45Z</time></trkpt><trkpt lat="37.98820634972005" lon="15.185543989188393"><ele>542.0</ele><time>2026-04-26T13:42:46Z</time></trkpt><trkpt lat="37.98810888963907" lon="15.185503659173845"><ele>542.0</ele><time>2026-04-26T13:42:47Z</time></trkpt><trkpt lat="37.988012378421644" lon="15.185454166544426"><ele>542.0</ele><time>2026-04-26T13:42:48Z</time></trkpt><trkpt lat="37.987916483726295" lon="15.185400993715932"><ele>542.0</ele><time>2026-04-26T13:42:49Z</time></trkpt><trkpt lat="37.987817226378304" lon="15.185347175112565"><ele>542.0</ele><time>2026-04-26T13:42:50Z</time></trkpt><trkpt lat="37.98771289748693" lon="15.185293675584493"><ele>542.0</ele><time>2026-04-26T13:42:51Z</time></trkpt><trkpt lat="37.98760388555305" lon="15.18524159393212"><ele>542.0</ele><time>2026-04-26T13:42:52Z</time></trkpt><trkpt lat="37.987498320616396" lon="15.185188108500284"><ele>542.0</ele><time>2026-04-26T13:42:53Z</time></trkpt><trkpt lat="37.98738748264584" lon="15.185135110821363"><ele>542.0</ele><time>2026-04-26T13:42:54Z</time></trkpt><trkpt lat="37.98727730812255" lon="15.185081775267196"><ele>542.0</ele><time>2026-04-26T13:42:55Z</time></trkpt><trkpt lat="37.987165434246826" lon="15.185026710339107"><ele>542.0</ele><time>2026-04-26T13:42:56Z</time></trkpt><trkpt lat="37.987052138861685" lon="15.1849691737005"><ele>542.0</ele><time>2026-04-26T13:42:57Z</time></trkpt><trkpt lat="37.986934024178375" lon="15.1849101325128"><ele>542.0</ele><time>2026-04-26T13:42:58Z</time></trkpt><trkpt lat="37.9868209288408" lon="15.184852848988356"><ele>542.0</ele><time>2026-04-26T13:42:59Z</time></trkpt><trkpt lat="37.98670679273599" lon="15.18479542829115"><ele>542.0</ele><time>2026-04-26T13:43:00Z</time></trkpt><trkpt lat="37.98659223389716" lon="15.184735033302715"><ele>542.0</ele><time>2026-04-26T13:43:01Z</time></trkpt><trkpt lat="37.98647755331472" lon="15.184674528590484"><ele>548.75</ele><time>2026-04-26T13:43:02Z</time></trkpt><trkpt lat="37.98636733220806" lon="15.18460585103628"><ele>555.5</ele><time>2026-04-26T13:43:03Z</time></trkpt><trkpt lat="37.98626193812286" lon="15.184533908964617"><ele>562.25</ele><time>2026-04-26T13:43:04Z</time></trkpt><trkpt lat="37.98616343736148" lon="15.184443540249472"><ele>569.0</ele><time>2026-04-26T13:43:05Z</time></trkpt><trkpt lat="37.986074624486236" lon="15.184329831737704"><ele>569.0</ele><time>2026-04-26T13:43:06Z</time></trkpt><trkpt lat="37.98600033963952" lon="15.184196525099283"><ele>569.0</ele><time>2026-04-26T13:43:07Z</time></trkpt><trkpt lat="37.985931500007865" lon="15.184051589589593"><ele>569.0</ele><time>2026-04-26T13:43:08Z</time></trkpt><trkpt lat="37.98586714864656" lon="15.183895710365311"><ele>569.0</ele><time>2026-04-26T13:43:09Z</time></trkpt><trkpt lat="37.98580104334355" lon="15.183737983015275"><ele>568.5</ele><time>2026-04-26T13:43:10Z</time></trkpt><trkpt lat="37.98573650891435" lon="15.183585556053044"><ele>568.0</ele><time>2026-04-26T13:43:11Z</time></trkpt><trkpt lat="37.98567554872878" lon="15.183444693003466"><ele>567.5</ele><time>2026-04-26T13:43:12Z</time></trkpt><trkpt lat="37.985608675365036" lon="15.183304813966181"><ele>567.0</ele><time>2026-04-26T13:43:13Z</time></trkpt><trkpt lat="37.98554262390068" lon="15.183162748404268"><ele>568.5</ele><time>2026-04-26T13:43:14Z</time></trkpt><trkpt lat="37.98547566335533" lon="15.183014719215153"><ele>570.0</ele><time>2026-04-26T13:43:15Z</time></trkpt><trkpt lat="37.985408204464775" lon="15.182867799724182"><ele>571.5</ele><time>2026-04-26T13:43:16Z</time></trkpt><trkpt lat="37.985338129054014" lon="15.182717077668798"><ele>573.0</ele><time>2026-04-26T13:43:17Z</time></trkpt><trkpt lat="37.98526933542268" lon="15.182563556130416"><ele>573.0</ele><time>2026-04-26T13:43:18Z</time></trkpt><trkpt lat="37.98519792391431" lon="15.182409581020465"><ele>573.0</ele><time>2026-04-26T13:43:19Z</time></trkpt><trkpt lat="37.98512647068396" lon="15.18225630541927"><ele>573.0</ele><time>2026-04-26T13:43:20Z</time></trkpt><trkpt lat="37.985055537790814" lon="15.182102492536263"><ele>573.0</ele><time>2026-04-26T13:43:21Z</time></trkpt><trkpt lat="37.98498363758533" lon="15.181943339477629"><ele>572.5</ele><time>2026-04-26T13:43:22Z</time></trkpt><trkpt lat="37.98490652796702" lon="15.18178801230964"><ele>572.0</ele><time>2026-04-26T13:43:23Z</time></trkpt><trkpt lat="37.98483033856347" lon="15.181629443913828"><ele>571.5</ele><time>2026-04-26T13:43:24Z</time></trkpt><trkpt lat="37.98475679873989" lon="15.181472547878174"><ele>571.0</ele><time>2026-04-26T13:43:25Z</time></trkpt><trkpt lat="37.984686498133264" lon="15.181324874077248"><ele>574.25</ele><time>2026-04-26T13:43:26Z</time></trkpt><trkpt lat="37.98461068929094" lon="15.181167912280152"><ele>577.5</ele><time>2026-04-26T13:43:27Z</time></trkpt><trkpt lat="37.98453437136136" lon="15.181013873082614"><ele>580.75</ele><time>2026-04-26T13:43:28Z</time></trkpt><trkpt lat="37.984465572524996" lon="15.18086009385636"><ele>584.0</ele><time>2026-04-26T13:43:29Z</time></trkpt><trkpt lat="37.984407009552974" lon="15.18070130386338"><ele>588.5</ele><time>2026-04-26T13:43:30Z</time></trkpt><trkpt lat="37.984362989804076" lon="15.18053296214671"><ele>593.0</ele><time>2026-04-26T13:43:31Z</time></trkpt><trkpt lat="37.98433955483309" lon="15.180352183337295"><ele>597.5</ele><time>2026-04-26T13:43:32Z</time></trkpt><trkpt lat="37.9843417195002" lon="15.180171139134398"><ele>602.0</ele><time>2026-04-26T13:43:33Z</time></trkpt><trkpt lat="37.984370355650874" lon="15.179998478411513"><ele>604.0</ele><time>2026-04-26T13:43:34Z</time></trkpt><trkpt lat="37.98441115257661" lon="15.1798276057462"><ele>606.0</ele><time>2026-04-26T13:43:35Z</time></trkpt><trkpt lat="37.98445675909038" lon="15.179647301856898"><ele>608.0</ele><time>2026-04-26T13:43:36Z</time></trkpt><trkpt lat="37.984499517858666" lon="15.179474599309764"><ele>610.0</ele><time>2026-04-26T13:43:37Z</time></trkpt><trkpt lat="37.98454258812729" lon="15.179295211007306"><ele>610.0</ele><time>2026-04-26T13:43:38Z</time></trkpt><trkpt lat="37.98458125683222" lon="15.179121137682868"><ele>610.0</ele><time>2026-04-26T13:43:39Z</time></trkpt><trkpt lat="37.98460733182349" lon="15.1789375392562"><ele>610.0</ele><time>2026-04-26T13:43:40Z</time></trkpt><trkpt lat="37.98462266898014" lon="15.178746844095572"><ele>610.0</ele><time>2026-04-26T13:43:41Z</time></trkpt><trkpt lat="37.98462281366016" lon="15.178551259703479"><ele>607.0</ele><time>2026-04-26T13:43:42Z</time></trkpt><trkpt lat="37.98460644137544" lon="15.178358182634895"><ele>604.0</ele><time>2026-04-26T13:43:42.999Z</time></trkpt><trkpt lat="37.98457463751331" lon="15.178163225536505"><ele>601.0</ele><time>2026-04-26T13:43:43.999Z</time></trkpt><trkpt lat="37.984543164662675" lon="15.177968605607871"><ele>600.75</ele><time>2026-04-26T13:43:44.999Z</time></trkpt><trkpt lat="37.98452099743211" lon="15.177785613133151"><ele>600.5</ele><time>2026-04-26T13:43:45.999Z</time></trkpt><trkpt lat="37.98449778488186" lon="15.177606896221185"><ele>600.25</ele><time>2026-04-26T13:43:46.999Z</time></trkpt><trkpt lat="37.984469868928734" lon="15.177426810360787"><ele>600.0</ele><time>2026-04-26T13:43:47.999Z</time></trkpt><trkpt lat="37.98444265581202" lon="15.177261694058394"><ele>602.0</ele><time>2026-04-26T13:43:48.999Z</time></trkpt><trkpt lat="37.9844087507123" lon="15.177107259432592"><ele>604.0</ele><time>2026-04-26T13:43:49.999Z</time></trkpt><trkpt lat="37.98436562771872" lon="15.176952483421331"><ele>606.0</ele><time>2026-04-26T13:43:50.999Z</time></trkpt><trkpt lat="37.98431444566052" lon="15.176793924890232"><ele>608.0</ele><time>2026-04-26T13:43:51.999Z</time></trkpt><trkpt lat="37.98424952476062" lon="15.176635916312138"><ele>608.0</ele><time>2026-04-26T13:43:52.999Z</time></trkpt><trkpt lat="37.9841757129483" lon="15.17648259596071"><ele>608.0</ele><time>2026-04-26T13:43:53.999Z</time></trkpt><trkpt lat="37.98409770405542" lon="15.176332456383724"><ele>608.0</ele><time>2026-04-26T13:43:54.999Z</time></trkpt><trkpt lat="37.984009684624795" lon="15.176185094149085"><ele>608.0</ele><time>2026-04-26T13:43:55.999Z</time></trkpt><trkpt lat="37.98392001866719" lon="15.1760342953903"><ele>608.0</ele><time>2026-04-26T13:43:56.999Z</time></trkpt><trkpt lat="37.983837592032714" lon="15.175879882771072"><ele>608.0</ele><time>2026-04-26T13:43:57.999Z</time></trkpt><trkpt lat="37.98376267351689" lon="15.175732044937842"><ele>608.0</ele><time>2026-04-26T13:43:58.999Z</time></trkpt><trkpt lat="37.9836972941472" lon="15.175604036308172"><ele>608.0</ele><time>2026-04-26T13:43:59.999Z</time></trkpt><trkpt lat="37.98363438165026" lon="15.17548498748422"><ele>610.0</ele><time>2026-04-26T13:44:00.999Z</time></trkpt><trkpt lat="37.98357023487478" lon="15.17536350546566"><ele>612.0</ele><time>2026-04-26T13:44:02.001Z</time></trkpt><trkpt lat="37.983508881244234" lon="15.175238202151867"><ele>614.0</ele><time>2026-04-26T13:44:03.001Z</time></trkpt><trkpt lat="37.98346832637622" lon="15.175109369105488"><ele>616.0</ele><time>2026-04-26T13:44:04.001Z</time></trkpt><trkpt lat="37.98346187148" lon="15.174998882809486"><ele>618.0</ele><time>2026-04-26T13:44:05.001Z</time></trkpt><trkpt lat="37.983466947710454" lon="15.174912518372413"><ele>618.0</ele><time>2026-04-26T13:44:06.001Z</time></trkpt><trkpt lat="37.98346701047053" lon="15.174809633516697"><ele>618.0</ele><time>2026-04-26T13:44:08.001Z</time></trkpt><trkpt lat="37.98337016416817" lon="15.174872606243827"><ele>618.0</ele><time>2026-04-26T13:44:13.001Z</time></trkpt><trkpt lat="37.98335893147808" lon="15.174988223296536"><ele>618.0</ele><time>2026-04-26T13:44:15.001Z</time></trkpt><trkpt lat="37.98341919524725" lon="15.175073352477803"><ele>618.0</ele><time>2026-04-26T13:44:17.001Z</time></trkpt><trkpt lat="37.9834818061456" lon="15.17502883501796"><ele>618.0</ele><time>2026-04-26T13:44:19.001Z</time></trkpt><trkpt lat="37.98348048027059" lon="15.174887220028303"><ele>619.8333333333334</ele><time>2026-04-26T13:44:21Z</time></trkpt><trkpt lat="37.98348532410894" lon="15.174801359015586"><ele>621.6666666666666</ele><time>2026-04-26T13:44:22Z</time></trkpt><trkpt lat="37.98351015413816" lon="15.17470842643758"><ele>623.5</ele><time>2026-04-26T13:44:23Z</time></trkpt><trkpt lat="37.98355954058565" lon="15.174616042309367"><ele>625.3333333333333</ele><time>2026-04-26T13:44:24Z</time></trkpt><trkpt lat="37.98362428654556" lon="15.17453668949406"><ele>627.1666666666666</ele><time>2026-04-26T13:44:25Z</time></trkpt><trkpt lat="37.98366938503129" lon="15.174447050217971"><ele>629.0</ele><time>2026-04-26T13:44:26Z</time></trkpt><trkpt lat="37.98367463861929" lon="15.174349488664978"><ele>629.0</ele><time>2026-04-26T13:44:27Z</time></trkpt><trkpt lat="37.98365418145709" lon="15.174257890168358"><ele>629.0</ele><time>2026-04-26T13:44:28Z</time></trkpt><trkpt lat="37.98361298186081" lon="15.174171631981373"><ele>629.0</ele><time>2026-04-26T13:44:29Z</time></trkpt><trkpt lat="37.98354467908663" lon="15.17408813808595"><ele>629.0</ele><time>2026-04-26T13:44:30Z</time></trkpt><trkpt lat="37.983460081714746" lon="15.174013090373796"><ele>629.0</ele><time>2026-04-26T13:44:31Z</time></trkpt><trkpt lat="37.983372247709774" lon="15.173935689730461"><ele>627.6</ele><time>2026-04-26T13:44:32Z</time></trkpt><trkpt lat="37.98328825138175" lon="15.173850153353165"><ele>626.2</ele><time>2026-04-26T13:44:33Z</time></trkpt><trkpt lat="37.9832117123665" lon="15.17376197446284"><ele>624.8000000000001</ele><time>2026-04-26T13:44:34Z</time></trkpt><trkpt lat="37.983133735632514" lon="15.173665095269035"><ele>623.4</ele><time>2026-04-26T13:44:35Z</time></trkpt><trkpt lat="37.98305614661595" lon="15.17357051710751"><ele>622.0</ele><time>2026-04-26T13:44:35.999Z</time></trkpt><trkpt lat="37.98296740247473" lon="15.173481958303558"><ele>622.0</ele><time>2026-04-26T13:44:36.999Z</time></trkpt><trkpt lat="37.98286953847872" lon="15.173390039238802"><ele>622.0</ele><time>2026-04-26T13:44:37.999Z</time></trkpt><trkpt lat="37.982769633346585" lon="15.173278720696024"><ele>622.0</ele><time>2026-04-26T13:44:38.999Z</time></trkpt><trkpt lat="37.98266836692566" lon="15.173171356096274"><ele>622.0</ele><time>2026-04-26T13:44:39.999Z</time></trkpt><trkpt lat="37.98257058850942" lon="15.173062539495561"><ele>624.5</ele><time>2026-04-26T13:44:40.999Z</time></trkpt><trkpt lat="37.98247507662872" lon="15.172956077508651"><ele>627.0</ele><time>2026-04-26T13:44:41.999Z</time></trkpt><trkpt lat="37.98237587694786" lon="15.172849374137598"><ele>629.5</ele><time>2026-04-26T13:44:42.999Z</time></trkpt><trkpt lat="37.982275491103294" lon="15.1727396687205"><ele>632.0</ele><time>2026-04-26T13:44:43.999Z</time></trkpt><trkpt lat="37.982196127101396" lon="15.172606729016632"><ele>632.0</ele><time>2026-04-26T13:44:44.999Z</time></trkpt><trkpt lat="37.98209457520804" lon="15.17249105896338"><ele>632.0</ele><time>2026-04-26T13:44:45.999Z</time></trkpt><trkpt lat="37.982001696915034" lon="15.172363152366037"><ele>632.0</ele><time>2026-04-26T13:44:46.999Z</time></trkpt><trkpt lat="37.981911687408726" lon="15.17222857400184"><ele>632.0</ele><time>2026-04-26T13:44:47.999Z</time></trkpt><trkpt lat="37.98181805642162" lon="15.172103477411667"><ele>634.25</ele><time>2026-04-26T13:44:48.999Z</time></trkpt><trkpt lat="37.98171787707607" lon="15.171974180982758"><ele>636.5</ele><time>2026-04-26T13:44:49.999Z</time></trkpt><trkpt lat="37.98162108266276" lon="15.171843928805329"><ele>638.75</ele><time>2026-04-26T13:44:50.999Z</time></trkpt><trkpt lat="37.98152720429387" lon="15.171716338271983"><ele>641.0</ele><time>2026-04-26T13:44:51.999Z</time></trkpt><trkpt lat="37.98142131274566" lon="15.171576492201897"><ele>647.3333333333333</ele><time>2026-04-26T13:44:52.999Z</time></trkpt><trkpt lat="37.981310588025195" lon="15.171433488623904"><ele>653.6666666666666</ele><time>2026-04-26T13:44:53.999Z</time></trkpt><trkpt lat="37.98120870211786" lon="15.171299674204956"><ele>660.0</ele><time>2026-04-26T13:44:54.999Z</time></trkpt><trkpt lat="37.981098913932904" lon="15.17115880999535"><ele>660.0</ele><time>2026-04-26T13:44:55.999Z</time></trkpt><trkpt lat="37.98100113243347" lon="15.171024649492793"><ele>660.0</ele><time>2026-04-26T13:44:56.999Z</time></trkpt><trkpt lat="37.98091428080263" lon="15.170893824427255"><ele>660.0</ele><time>2026-04-26T13:44:57.999Z</time></trkpt><trkpt lat="37.98084906777226" lon="15.170765851031401"><ele>660.0</ele><time>2026-04-26T13:44:58.999Z</time></trkpt><trkpt lat="37.98081068779517" lon="15.170632292852197"><ele>658.8</ele><time>2026-04-26T13:44:59.999Z</time></trkpt><trkpt lat="37.980785559451476" lon="15.170483758403785"><ele>657.6</ele><time>2026-04-26T13:45:00.999Z</time></trkpt><trkpt lat="37.9807568327783" lon="15.170329254224917"><ele>656.4000000000001</ele><time>2026-04-26T13:45:01.999Z</time></trkpt><trkpt lat="37.98073494183361" lon="15.170197087999464"><ele>655.2</ele><time>2026-04-26T13:45:02.999Z</time></trkpt><trkpt lat="37.980728518443435" lon="15.170081316787543"><ele>654.0</ele><time>2026-04-26T13:45:03.999Z</time></trkpt><trkpt lat="37.98072825468446" lon="15.169981629280729"><ele>654.0</ele><time>2026-04-26T13:45:04.999Z</time></trkpt><trkpt lat="37.98079728681371" lon="15.169901763568317"><ele>654.0</ele><time>2026-04-26T13:45:06.999Z</time></trkpt><trkpt lat="37.98063467001252" lon="15.1697863285272"><ele>654.0</ele><time>2026-04-26T13:45:07.999Z</time></trkpt><trkpt lat="37.980559561970566" lon="15.169741510104238"><ele>654.0</ele><time>2026-04-26T13:45:08.999Z</time></trkpt><trkpt lat="37.98047320727103" lon="15.169701371545957"><ele>655.1666666666666</ele><time>2026-04-26T13:45:09.999Z</time></trkpt><trkpt lat="37.98038277119666" lon="15.169656520099487"><ele>656.3333333333334</ele><time>2026-04-26T13:45:10.999Z</time></trkpt><trkpt lat="37.98029363894786" lon="15.169602159301308"><ele>657.5</ele><time>2026-04-26T13:45:11.999Z</time></trkpt><trkpt lat="37.98021978875454" lon="15.169556539359357"><ele>658.6666666666667</ele><time>2026-04-26T13:45:12.999Z</time></trkpt><trkpt lat="37.98016138428269" lon="15.169521797412328"><ele>659.8333333333334</ele><time>2026-04-26T13:45:13.999Z</time></trkpt><trkpt lat="37.98009211499894" lon="15.16946006533317"><ele>661.0</ele><time>2026-04-26T13:45:15.999Z</time></trkpt><trkpt lat="37.9800366680512" lon="15.169402280197557"><ele>659.5999999999999</ele><time>2026-04-26T13:45:18.999Z</time></trkpt><trkpt lat="37.97994071045794" lon="15.169421810286845"><ele>658.2</ele><time>2026-04-26T13:45:21.999Z</time></trkpt><trkpt lat="37.9798185241726" lon="15.169426793374184"><ele>656.8</ele><time>2026-04-26T13:45:23.999Z</time></trkpt><trkpt lat="37.97974454329477" lon="15.169423068237634"><ele>655.4000000000001</ele><time>2026-04-26T13:45:24.999Z</time></trkpt><trkpt lat="37.9796544376367" lon="15.169411783617425"><ele>654.0</ele><time>2026-04-26T13:45:25.999Z</time></trkpt><trkpt lat="37.9795665233381" lon="15.169407661837651"><ele>654.0</ele><time>2026-04-26T13:45:26.999Z</time></trkpt><trkpt lat="37.9794775774683" lon="15.16940048845777"><ele>654.0</ele><time>2026-04-26T13:45:27.999Z</time></trkpt><trkpt lat="37.97938020899576" lon="15.169400094268907"><ele>654.0</ele><time>2026-04-26T13:45:28.999Z</time></trkpt><trkpt lat="37.979282657134746" lon="15.169407997204656"><ele>654.0</ele><time>2026-04-26T13:45:29.999Z</time></trkpt><trkpt lat="37.97918459981316" lon="15.169418715667359"><ele>654.0</ele><time>2026-04-26T13:45:30.999Z</time></trkpt><trkpt lat="37.97908608730718" lon="15.169446937756353"><ele>655.2</ele><time>2026-04-26T13:45:31.999Z</time></trkpt><trkpt lat="37.97899074449934" lon="15.169485744230805"><ele>656.4000000000001</ele><time>2026-04-26T13:45:32.999Z</time></trkpt><trkpt lat="37.978889322170104" lon="15.16953882662045"><ele>657.6</ele><time>2026-04-26T13:45:33.999Z</time></trkpt><trkpt lat="37.97879475967289" lon="15.169593047008243"><ele>658.8</ele><time>2026-04-26T13:45:34.999Z</time></trkpt><trkpt lat="37.97868547683607" lon="15.169633407178885"><ele>660.0</ele><time>2026-04-26T13:45:35.999Z</time></trkpt><trkpt lat="37.978581776835746" lon="15.169672724417309"><ele>660.0</ele><time>2026-04-26T13:45:36.999Z</time></trkpt><trkpt lat="37.97847657977624" lon="15.169712980370013"><ele>660.0</ele><time>2026-04-26T13:45:37.999Z</time></trkpt><trkpt lat="37.97837010083634" lon="15.16975604402612"><ele>660.0</ele><time>2026-04-26T13:45:38.999Z</time></trkpt><trkpt lat="37.97826577324421" lon="15.169785661522646"><ele>660.0</ele><time>2026-04-26T13:45:39.999Z</time></trkpt><trkpt lat="37.97815862873368" lon="15.169799949828656"><ele>660.0</ele><time>2026-04-26T13:45:40.999Z</time></trkpt><trkpt lat="37.9780648812155" lon="15.169857273864146"><ele>661.6666666666666</ele><time>2026-04-26T13:45:41.999Z</time></trkpt><trkpt lat="37.97798556529803" lon="15.169904720489725"><ele>663.3333333333334</ele><time>2026-04-26T13:45:42.999Z</time></trkpt><trkpt lat="37.97790615824014" lon="15.169934944483481"><ele>665.0</ele><time>2026-04-26T13:45:43.999Z</time></trkpt><trkpt lat="37.977842341676066" lon="15.169972260491308"><ele>666.6666666666667</ele><time>2026-04-26T13:45:44.999Z</time></trkpt><trkpt lat="37.977776427537606" lon="15.169985006752343"><ele>668.3333333333334</ele><time>2026-04-26T13:45:45.999Z</time></trkpt><trkpt lat="37.97767043529717" lon="15.169898472902435"><ele>670.0</ele><time>2026-04-26T13:45:47.999Z</time></trkpt><trkpt lat="37.97760912647339" lon="15.169828411501388"><ele>670.0</ele><time>2026-04-26T13:45:48.999Z</time></trkpt><trkpt lat="37.977546763012704" lon="15.169769787715111"><ele>670.0</ele><time>2026-04-26T13:45:49.999Z</time></trkpt><trkpt lat="37.97746270199687" lon="15.1697077144631"><ele>670.0</ele><time>2026-04-26T13:45:50.999Z</time></trkpt><trkpt lat="37.97739232689777" lon="15.169628798301526"><ele>670.0</ele><time>2026-04-26T13:45:51.999Z</time></trkpt><trkpt lat="37.97734517254201" lon="15.169550055167708"><ele>670.0</ele><time>2026-04-26T13:45:52.999Z</time></trkpt><trkpt lat="37.97726617434044" lon="15.169495770364422"><ele>670.0</ele><time>2026-04-26T13:45:53.998Z</time></trkpt><trkpt lat="37.97713889657953" lon="15.169487464855829"><ele>672.0</ele><time>2026-04-26T13:45:55.998Z</time></trkpt><trkpt lat="37.97705423288351" lon="15.169516227169838"><ele>674.0</ele><time>2026-04-26T13:45:56.998Z</time></trkpt><trkpt lat="37.97696522104881" lon="15.169541876274002"><ele>676.0</ele><time>2026-04-26T13:45:57.998Z</time></trkpt><trkpt lat="37.97688043670171" lon="15.169565446382054"><ele>678.0</ele><time>2026-04-26T13:45:58.998Z</time></trkpt><trkpt lat="37.97680969003565" lon="15.169613615864359"><ele>680.0</ele><time>2026-04-26T13:45:59.998Z</time></trkpt><trkpt lat="37.97674657071512" lon="15.169691072729751"><ele>682.0</ele><time>2026-04-26T13:46:00.998Z</time></trkpt><trkpt lat="37.97668709655061" lon="15.169745143663363"><ele>681.6666666666667</ele><time>2026-04-26T13:46:01.998Z</time></trkpt><trkpt lat="37.97661726113099" lon="15.16976079079749"><ele>681.3333333333334</ele><time>2026-04-26T13:46:02.998Z</time></trkpt><trkpt lat="37.976541902196004" lon="15.169735984183406"><ele>681.0</ele><time>2026-04-26T13:46:03.998Z</time></trkpt><trkpt lat="37.97645781006804" lon="15.169752213966788"><ele>680.6666666666666</ele><time>2026-04-26T13:46:04.998Z</time></trkpt><trkpt lat="37.97637690277502" lon="15.169751845364717"><ele>680.3333333333333</ele><time>2026-04-26T13:46:05.998Z</time></trkpt><trkpt lat="37.97630250205255" lon="15.16976772846362"><ele>680.0</ele><time>2026-04-26T13:46:06.998Z</time></trkpt><trkpt lat="37.97623286166391" lon="15.16980427886695"><ele>680.0</ele><time>2026-04-26T13:46:08Z</time></trkpt><trkpt lat="37.976170216216296" lon="15.16985635676725"><ele>680.0</ele><time>2026-04-26T13:46:09Z</time></trkpt><trkpt lat="37.97613985862543" lon="15.16993986203125"><ele>680.0</ele><time>2026-04-26T13:46:10Z</time></trkpt><trkpt lat="37.976138337450344" lon="15.170040288655521"><ele>680.0</ele><time>2026-04-26T13:46:12Z</time></trkpt><trkpt lat="37.976055836295004" lon="15.170093943834758"><ele>680.0</ele><time>2026-04-26T13:46:14Z</time></trkpt><trkpt lat="37.97595289257193" lon="15.170159172319456"><ele>680.0</ele><time>2026-04-26T13:46:16Z</time></trkpt><trkpt lat="37.975877906793045" lon="15.170205105456896"><ele>679.4</ele><time>2026-04-26T13:46:17Z</time></trkpt><trkpt lat="37.975799102791285" lon="15.170253099427892"><ele>678.8</ele><time>2026-04-26T13:46:18Z</time></trkpt><trkpt lat="37.975711744983215" lon="15.170307901418989"><ele>678.2</ele><time>2026-04-26T13:46:19Z</time></trkpt><trkpt lat="37.975624192294596" lon="15.170348236187403"><ele>677.6</ele><time>2026-04-26T13:46:20Z</time></trkpt><trkpt lat="37.975534233418976" lon="15.170359731580172"><ele>677.0</ele><time>2026-04-26T13:46:21Z</time></trkpt><trkpt lat="37.97542878653773" lon="15.170317459040016"><ele>677.0</ele><time>2026-04-26T13:46:22Z</time></trkpt><trkpt lat="37.975322524234194" lon="15.170314740484232"><ele>677.0</ele><time>2026-04-26T13:46:23Z</time></trkpt><trkpt lat="37.97521059058337" lon="15.170318272349997"><ele>677.0</ele><time>2026-04-26T13:46:24Z</time></trkpt><trkpt lat="37.97510545409066" lon="15.170362642520258"><ele>677.0</ele><time>2026-04-26T13:46:25Z</time></trkpt><trkpt lat="37.97503332525884" lon="15.170424870285194"><ele>677.0</ele><time>2026-04-26T13:46:26Z</time></trkpt><trkpt lat="37.97497118867203" lon="15.170521370128775"><ele>677.0</ele><time>2026-04-26T13:46:26.999Z</time></trkpt><trkpt lat="37.97486894789181" lon="15.170557786507747"><ele>677.0</ele><time>2026-04-26T13:46:27.999Z</time></trkpt><trkpt lat="37.97483278781981" lon="15.17069120285173"><ele>677.0</ele><time>2026-04-26T13:46:28.999Z</time></trkpt><trkpt lat="37.974753104779104" lon="15.170748312060672"><ele>677.0</ele><time>2026-04-26T13:46:29.999Z</time></trkpt><trkpt lat="37.97468166804853" lon="15.17081666387684"><ele>677.0</ele><time>2026-04-26T13:46:30.999Z</time></trkpt><trkpt lat="37.97462153420637" lon="15.170896922339745"><ele>677.0</ele><time>2026-04-26T13:46:31.999Z</time></trkpt><trkpt lat="37.974550807694946" lon="15.170956565226"><ele>677.0</ele><time>2026-04-26T13:46:32.999Z</time></trkpt><trkpt lat="37.97448289099107" lon="15.171020342263205"><ele>677.0</ele><time>2026-04-26T13:46:33.999Z</time></trkpt><trkpt lat="37.97441675763698" lon="15.171105041602079"><ele>677.0</ele><time>2026-04-26T13:46:34.999Z</time></trkpt><trkpt lat="37.97435492967341" lon="15.171194709696096"><ele>677.0</ele><time>2026-04-26T13:46:35.999Z</time></trkpt><trkpt lat="37.97430198420998" lon="15.171289870959392"><ele>677.0</ele><time>2026-04-26T13:46:36.999Z</time></trkpt><trkpt lat="37.97423386023246" lon="15.171361428921385"><ele>678.2</ele><time>2026-04-26T13:46:37.999Z</time></trkpt><trkpt lat="37.97417103711548" lon="15.171438130025553"><ele>679.4000000000001</ele><time>2026-04-26T13:46:38.999Z</time></trkpt><trkpt lat="37.974090138524815" lon="15.17151352521567"><ele>680.5999999999999</ele><time>2026-04-26T13:46:39.999Z</time></trkpt><trkpt lat="37.97400944774131" lon="15.17157663806518"><ele>681.8</ele><time>2026-04-26T13:46:40.999Z</time></trkpt><trkpt lat="37.97393307994916" lon="15.171650133295353"><ele>683.0</ele><time>2026-04-26T13:46:41.999Z</time></trkpt><trkpt lat="37.97384248147278" lon="15.17170534337506"><ele>684.0</ele><time>2026-04-26T13:46:42.999Z</time></trkpt><trkpt lat="37.97376554246454" lon="15.17175861773169"><ele>685.0</ele><time>2026-04-26T13:46:43.999Z</time></trkpt><trkpt lat="37.973686050434424" lon="15.17180879104395"><ele>686.0</ele><time>2026-04-26T13:46:44.999Z</time></trkpt><trkpt lat="37.97359162196369" lon="15.171840387189437"><ele>687.0</ele><time>2026-04-26T13:46:45.999Z</time></trkpt><trkpt lat="37.97351210294451" lon="15.171871620031384"><ele>688.0</ele><time>2026-04-26T13:46:46.999Z</time></trkpt><trkpt lat="37.97342946373411" lon="15.17188984296987"><ele>689.0</ele><time>2026-04-26T13:46:47.999Z</time></trkpt><trkpt lat="37.97334571524451" lon="15.171895953420487"><ele>690.5</ele><time>2026-04-26T13:46:48.999Z</time></trkpt><trkpt lat="37.97325669168277" lon="15.171893323305936"><ele>692.0</ele><time>2026-04-26T13:46:49.999Z</time></trkpt><trkpt lat="37.973174245766984" lon="15.171898932189155"><ele>693.5</ele><time>2026-04-26T13:46:50.999Z</time></trkpt><trkpt lat="37.97308216790572" lon="15.17194274544822"><ele>695.0</ele><time>2026-04-26T13:46:51.999Z</time></trkpt><trkpt lat="37.972995409162614" lon="15.171973848416934"><ele>696.5</ele><time>2026-04-26T13:46:52.999Z</time></trkpt><trkpt lat="37.972912237921186" lon="15.171965781028023"><ele>698.0</ele><time>2026-04-26T13:46:53.999Z</time></trkpt><trkpt lat="37.97282361170157" lon="15.17194457784274"><ele>698.0</ele><time>2026-04-26T13:46:54.999Z</time></trkpt><trkpt lat="37.97274927930147" lon="15.171935896170467"><ele>698.0</ele><time>2026-04-26T13:46:55.999Z</time></trkpt><trkpt lat="37.972647947339716" lon="15.17194522114254"><ele>698.0</ele><time>2026-04-26T13:46:56.999Z</time></trkpt><trkpt lat="37.97254840600406" lon="15.171942289276348"><ele>698.0</ele><time>2026-04-26T13:46:57.999Z</time></trkpt><trkpt lat="37.972447167022935" lon="15.171957190444584"><ele>698.0</ele><time>2026-04-26T13:46:58.999Z</time></trkpt><trkpt lat="37.97233960757164" lon="15.171947846694591"><ele>701.0</ele><time>2026-04-26T13:46:59.999Z</time></trkpt><trkpt lat="37.97224400657573" lon="15.171944019063242"><ele>704.0</ele><time>2026-04-26T13:47:00.999Z</time></trkpt><trkpt lat="37.97213885333525" lon="15.171959534274198"><ele>707.0</ele><time>2026-04-26T13:47:01.999Z</time></trkpt><trkpt lat="37.972038703541934" lon="15.17199179687434"><ele>710.0</ele><time>2026-04-26T13:47:02.999Z</time></trkpt><trkpt lat="37.971938802983495" lon="15.17200479529013"><ele>713.0</ele><time>2026-04-26T13:47:03.999Z</time></trkpt><trkpt lat="37.97183904889258" lon="15.171997225188274"><ele>713.0</ele><time>2026-04-26T13:47:04.999Z</time></trkpt><trkpt lat="37.971758663358" lon="15.171990575069756"><ele>713.0</ele><time>2026-04-26T13:47:05.999Z</time></trkpt><trkpt lat="37.97165667250044" lon="15.17197672873955"><ele>713.0</ele><time>2026-04-26T13:47:06.999Z</time></trkpt><trkpt lat="37.97157124206426" lon="15.171990111987201"><ele>713.0</ele><time>2026-04-26T13:47:07.999Z</time></trkpt><trkpt lat="37.971481593099824" lon="15.172024926680168"><ele>713.0</ele><time>2026-04-26T13:47:08.999Z</time></trkpt><trkpt lat="37.97140155705754" lon="15.172067609814714"><ele>714.8333333333333</ele><time>2026-04-26T13:47:09.999Z</time></trkpt><trkpt lat="37.971316425168695" lon="15.172114997270478"><ele>716.6666666666666</ele><time>2026-04-26T13:47:10.999Z</time></trkpt><trkpt lat="37.97123476801207" lon="15.172145226623933"><ele>718.5</ele><time>2026-04-26T13:47:11.999Z</time></trkpt><trkpt lat="37.97114030872207" lon="15.172131221055706"><ele>720.3333333333334</ele><time>2026-04-26T13:47:12.999Z</time></trkpt><trkpt lat="37.97106313332674" lon="15.17215623902807"><ele>722.1666666666667</ele><time>2026-04-26T13:47:13.999Z</time></trkpt><trkpt lat="37.97096863931504" lon="15.172176026746456"><ele>724.0</ele><time>2026-04-26T13:47:14.999Z</time></trkpt><trkpt lat="37.97088387395012" lon="15.172218367386456"><ele>725.6666666666667</ele><time>2026-04-26T13:47:15.999Z</time></trkpt><trkpt lat="37.97080736332019" lon="15.172269347623972"><ele>727.3333333333334</ele><time>2026-04-26T13:47:16.999Z</time></trkpt><trkpt lat="37.97072406887523" lon="15.172314696882657"><ele>729.0</ele><time>2026-04-26T13:47:17.999Z</time></trkpt><trkpt lat="37.970640703130286" lon="15.172304670551238"><ele>730.6666666666666</ele><time>2026-04-26T13:47:18.999Z</time></trkpt><trkpt lat="37.97055757737624" lon="15.172306661029491"><ele>732.3333333333333</ele><time>2026-04-26T13:47:19.999Z</time></trkpt><trkpt lat="37.97047064765187" lon="15.172292627480601"><ele>734.0</ele><time>2026-04-26T13:47:20.999Z</time></trkpt><trkpt lat="37.970389289191324" lon="15.172318859515158"><ele>733.3333333333333</ele><time>2026-04-26T13:47:21.999Z</time></trkpt><trkpt lat="37.97031927701578" lon="15.172358113632463"><ele>732.6666666666666</ele><time>2026-04-26T13:47:22.999Z</time></trkpt><trkpt lat="37.97023324761899" lon="15.172384835472483"><ele>732.0</ele><time>2026-04-26T13:47:23.999Z</time></trkpt><trkpt lat="37.970132204693044" lon="15.172396560207572"><ele>731.3333333333334</ele><time>2026-04-26T13:47:24.999Z</time></trkpt><trkpt lat="37.97005736762782" lon="15.172384253809906"><ele>730.6666666666667</ele><time>2026-04-26T13:47:25.999Z</time></trkpt><trkpt lat="37.969958899466924" lon="15.17238693236564"><ele>730.0</ele><time>2026-04-26T13:47:26.999Z</time></trkpt><trkpt lat="37.96987700257611" lon="15.172371135100663"><ele>733.0</ele><time>2026-04-26T13:47:27.999Z</time></trkpt><trkpt lat="37.969802027661366" lon="15.172330776004383"><ele>736.0</ele><time>2026-04-26T13:47:28.999Z</time></trkpt><trkpt lat="37.96972356089279" lon="15.172266310189222"><ele>739.0</ele><time>2026-04-26T13:47:29.999Z</time></trkpt><trkpt lat="37.969660678161674" lon="15.172196380864095"><ele>742.0</ele><time>2026-04-26T13:47:30.999Z</time></trkpt><trkpt lat="37.96959474739148" lon="15.172147604220056"><ele>745.0</ele><time>2026-04-26T13:47:31.999Z</time></trkpt><trkpt lat="37.9695003216506" lon="15.172108478806315"><ele>748.0</ele><time>2026-04-26T13:47:32.999Z</time></trkpt><trkpt lat="37.96942744414195" lon="15.17207241321272"><ele>748.0</ele><time>2026-04-26T13:47:33.999Z</time></trkpt><trkpt lat="37.96934776766991" lon="15.17200882835719"><ele>748.0</ele><time>2026-04-26T13:47:34.999Z</time></trkpt><trkpt lat="37.9692823947555" lon="15.171943453480289"><ele>748.0</ele><time>2026-04-26T13:47:35.999Z</time></trkpt><trkpt lat="37.96922116456104" lon="15.17189550815375"><ele>748.0</ele><time>2026-04-26T13:47:36.999Z</time></trkpt><trkpt lat="37.96911141516461" lon="15.17182467229954"><ele>748.0</ele><time>2026-04-26T13:47:38.999Z</time></trkpt><trkpt lat="37.96899843635607" lon="15.171822633994028"><ele>750.4</ele><time>2026-04-26T13:47:40.999Z</time></trkpt><trkpt lat="37.96895827751408" lon="15.171939162774592"><ele>752.8</ele><time>2026-04-26T13:47:41.999Z</time></trkpt><trkpt lat="37.9688982264275" lon="15.172050780817315"><ele>755.2</ele><time>2026-04-26T13:47:43.999Z</time></trkpt><trkpt lat="37.96882514790973" lon="15.172004307145256"><ele>757.6</ele><time>2026-04-26T13:47:45.999Z</time></trkpt><trkpt lat="37.96871488641393" lon="15.17198558080457"><ele>760.0</ele><time>2026-04-26T13:47:47.999Z</time></trkpt><trkpt lat="37.96863055737894" lon="15.171957670663227"><ele>760.0</ele><time>2026-04-26T13:47:48.999Z</time></trkpt><trkpt lat="37.96853380551841" lon="15.171946479402939"><ele>760.0</ele><time>2026-04-26T13:47:49.999Z</time></trkpt><trkpt lat="37.968422594561815" lon="15.171935248772476"><ele>760.0</ele><time>2026-04-26T13:47:50.999Z</time></trkpt><trkpt lat="37.96830515668494" lon="15.171920673117572"><ele>760.0</ele><time>2026-04-26T13:47:51.999Z</time></trkpt><trkpt lat="37.96819878973902" lon="15.171899031485085"><ele>760.0</ele><time>2026-04-26T13:47:52.999Z</time></trkpt><trkpt lat="37.968088879312546" lon="15.171863813288955"><ele>760.8</ele><time>2026-04-26T13:47:53.999Z</time></trkpt><trkpt lat="37.96798020568391" lon="15.17182943995487"><ele>761.6</ele><time>2026-04-26T13:47:54.999Z</time></trkpt><trkpt lat="37.967868637653496" lon="15.171807467698539"><ele>762.4000000000001</ele><time>2026-04-26T13:47:55.999Z</time></trkpt><trkpt lat="37.96775530084016" lon="15.171796376205092"><ele>763.2</ele><time>2026-04-26T13:47:56.999Z</time></trkpt><trkpt lat="37.96765143727355" lon="15.171801871359598"><ele>764.0</ele><time>2026-04-26T13:47:57.999Z</time></trkpt><trkpt lat="37.967542239345086" lon="15.171803013563828"><ele>764.6</ele><time>2026-04-26T13:47:58.999Z</time></trkpt><trkpt lat="37.967432560093194" lon="15.171790675705289"><ele>765.2</ele><time>2026-04-26T13:47:59.999Z</time></trkpt><trkpt lat="37.96733199739314" lon="15.171772695955138"><ele>765.8000000000001</ele><time>2026-04-26T13:48:00.999Z</time></trkpt><trkpt lat="37.96723544399278" lon="15.171757634198995"><ele>766.4000000000001</ele><time>2026-04-26T13:48:01.999Z</time></trkpt><trkpt lat="37.96713567838573" lon="15.171755059332831"><ele>767.0</ele><time>2026-04-26T13:48:02.999Z</time></trkpt><trkpt lat="37.96704307038165" lon="15.17176330205487"><ele>767.0</ele><time>2026-04-26T13:48:03.999Z</time></trkpt><trkpt lat="37.96695240777542" lon="15.171732667687474"><ele>767.0</ele><time>2026-04-26T13:48:04.999Z</time></trkpt><trkpt lat="37.96687826156781" lon="15.171712814781069"><ele>767.0</ele><time>2026-04-26T13:48:05.999Z</time></trkpt><trkpt lat="37.9668022763266" lon="15.171690714079746"><ele>767.0</ele><time>2026-04-26T13:48:06.999Z</time></trkpt><trkpt lat="37.96673629916531" lon="15.171671699391048"><ele>767.0</ele><time>2026-04-26T13:48:07.998Z</time></trkpt><trkpt lat="37.96659603818301" lon="15.171648950231603"><ele>768.6666666666666</ele><time>2026-04-26T13:48:09.998Z</time></trkpt><trkpt lat="37.96653017607069" lon="15.171678012285769"><ele>770.3333333333333</ele><time>2026-04-26T13:48:10.998Z</time></trkpt><trkpt lat="37.966464847225375" lon="15.171721498975653"><ele>772.0</ele><time>2026-04-26T13:48:11.998Z</time></trkpt><trkpt lat="37.966385008525904" lon="15.171773820423745"><ele>773.6666666666666</ele><time>2026-04-26T13:48:12.998Z</time></trkpt><trkpt lat="37.966296979324085" lon="15.171832795634096"><ele>775.3333333333334</ele><time>2026-04-26T13:48:13.999Z</time></trkpt><trkpt lat="37.96622437256303" lon="15.171866223508307"><ele>777.0</ele><time>2026-04-26T13:48:14.999Z</time></trkpt><trkpt lat="37.966152163308934" lon="15.171880910762424"><ele>777.0</ele><time>2026-04-26T13:48:15.999Z</time></trkpt><trkpt lat="37.96607689639959" lon="15.171865835995169"><ele>777.0</ele><time>2026-04-26T13:48:16.999Z</time></trkpt><trkpt lat="37.966000760686924" lon="15.1718530937105"><ele>777.0</ele><time>2026-04-26T13:48:17.999Z</time></trkpt><trkpt lat="37.965931433763146" lon="15.171824144625633"><ele>777.0</ele><time>2026-04-26T13:48:18.999Z</time></trkpt><trkpt lat="37.965852607154666" lon="15.171799327322073"><ele>777.0</ele><time>2026-04-26T13:48:19.999Z</time></trkpt><trkpt lat="37.965785670453435" lon="15.17174923182253"><ele>777.0</ele><time>2026-04-26T13:48:20.999Z</time></trkpt><trkpt lat="37.96569289763026" lon="15.17170728398692"><ele>779.4000000000001</ele><time>2026-04-26T13:48:21.999Z</time></trkpt><trkpt lat="37.96559956072749" lon="15.171671287043004"><ele>781.8000000000001</ele><time>2026-04-26T13:48:22.999Z</time></trkpt><trkpt lat="37.965514917239794" lon="15.171639345045056"><ele>784.2</ele><time>2026-04-26T13:48:23.999Z</time></trkpt><trkpt lat="37.96541056866402" lon="15.171606395884117"><ele>786.6</ele><time>2026-04-26T13:48:24.999Z</time></trkpt><trkpt lat="37.96532430154265" lon="15.171580444221462"><ele>789.0</ele><time>2026-04-26T13:48:25.999Z</time></trkpt><trkpt lat="37.96523857407704" lon="15.17154640442133"><ele>789.3333333333334</ele><time>2026-04-26T13:48:26.999Z</time></trkpt><trkpt lat="37.965154626894794" lon="15.171510049679833"><ele>789.6666666666667</ele><time>2026-04-26T13:48:27.999Z</time></trkpt><trkpt lat="37.96506845090259" lon="15.171460892711613"><ele>790.0</ele><time>2026-04-26T13:48:28.999Z</time></trkpt><trkpt lat="37.965014027218515" lon="15.171405739653114"><ele>790.3333333333334</ele><time>2026-04-26T13:48:29.999Z</time></trkpt><trkpt lat="37.96494911133035" lon="15.171349919697125"><ele>790.6666666666667</ele><time>2026-04-26T13:48:30.999Z</time></trkpt><trkpt lat="37.96487251217336" lon="15.17130730171068"><ele>791.0</ele><time>2026-04-26T13:48:31.999Z</time></trkpt><trkpt lat="37.96478514089795" lon="15.171277896020928"><ele>794.0000000000001</ele><time>2026-04-26T13:48:32.999Z</time></trkpt><trkpt lat="37.96473300509896" lon="15.17123229413384"><ele>797.0</ele><time>2026-04-26T13:48:33.999Z</time></trkpt><trkpt lat="37.964667903016036" lon="15.17118093278505"><ele>800.0</ele><time>2026-04-26T13:48:34.999Z</time></trkpt><trkpt lat="37.96460164685556" lon="15.171127625292671"><ele>803.0</ele><time>2026-04-26T13:48:35.999Z</time></trkpt><trkpt lat="37.964549190996074" lon="15.17105564447468"><ele>806.0000000000001</ele><time>2026-04-26T13:48:36.999Z</time></trkpt><trkpt lat="37.96448078328118" lon="15.17100444343818"><ele>809.0</ele><time>2026-04-26T13:48:37.999Z</time></trkpt><trkpt lat="37.96439698035017" lon="15.170969397401898"><ele>809.0</ele><time>2026-04-26T13:48:38.999Z</time></trkpt><trkpt lat="37.96432602781266" lon="15.170929884313585"><ele>809.0</ele><time>2026-04-26T13:48:39.999Z</time></trkpt><trkpt lat="37.96426825652573" lon="15.170877039490284"><ele>809.0</ele><time>2026-04-26T13:48:40.999Z</time></trkpt><trkpt lat="37.964213994616735" lon="15.170814717897876"><ele>809.0</ele><time>2026-04-26T13:48:41.999Z</time></trkpt><trkpt lat="37.96415878391215" lon="15.170752404568363"><ele>809.0</ele><time>2026-04-26T13:48:42.999Z</time></trkpt><trkpt lat="37.96411585512121" lon="15.17067987874543"><ele>809.0</ele><time>2026-04-26T13:48:43.999Z</time></trkpt><trkpt lat="37.964084272295146" lon="15.170592493556988"><ele>809.0</ele><time>2026-04-26T13:48:44.999Z</time></trkpt><trkpt lat="37.96406711605836" lon="15.170497550671719"><ele>812.8333333333334</ele><time>2026-04-26T13:48:45.999Z</time></trkpt><trkpt lat="37.964061608989255" lon="15.170410829111482"><ele>816.6666666666667</ele><time>2026-04-26T13:48:46.999Z</time></trkpt><trkpt lat="37.96404065514397" lon="15.1703150995573"><ele>820.5</ele><time>2026-04-26T13:48:47.999Z</time></trkpt><trkpt lat="37.96397513457384" lon="15.170176389314305"><ele>824.3333333333333</ele><time>2026-04-26T13:48:49.999Z</time></trkpt><trkpt lat="37.96392876951888" lon="15.17010289320596"><ele>828.1666666666666</ele><time>2026-04-26T13:48:50.999Z</time></trkpt><trkpt lat="37.96389088843633" lon="15.170039022084719"><ele>832.0</ele><time>2026-04-26T13:48:51.999Z</time></trkpt><trkpt lat="37.96385123783078" lon="15.169945818344566"><ele>835.2857142857142</ele><time>2026-04-26T13:48:52.999Z</time></trkpt><trkpt lat="37.963822889625554" lon="15.169857677989766"><ele>838.5714285714287</ele><time>2026-04-26T13:48:53.999Z</time></trkpt><trkpt lat="37.96379638318477" lon="15.169778263419698"><ele>841.8571428571429</ele><time>2026-04-26T13:48:54.999Z</time></trkpt><trkpt lat="37.96376261530737" lon="15.169709539218488"><ele>845.1428571428571</ele><time>2026-04-26T13:48:55.999Z</time></trkpt><trkpt lat="37.96371898779173" lon="15.169636823251743"><ele>848.4285714285713</ele><time>2026-04-26T13:48:56.999Z</time></trkpt><trkpt lat="37.963673301131536" lon="15.169555140210974"><ele>851.7142857142858</ele><time>2026-04-26T13:48:57.999Z</time></trkpt><trkpt lat="37.96364480727745" lon="15.16948043868262"><ele>855.0</ele><time>2026-04-26T13:48:58.999Z</time></trkpt><trkpt lat="37.96363178679368" lon="15.16939767933121"><ele>855.0</ele><time>2026-04-26T13:48:59.999Z</time></trkpt><trkpt lat="37.96361750340246" lon="15.169301698834444"><ele>855.0</ele><time>2026-04-26T13:49:00.999Z</time></trkpt><trkpt lat="37.96359257808949" lon="15.169215059702674"><ele>855.0</ele><time>2026-04-26T13:49:01.999Z</time></trkpt><trkpt lat="37.963524307130164" lon="15.169058872544849"><ele>855.0</ele><time>2026-04-26T13:49:03.999Z</time></trkpt><trkpt lat="37.963483134011696" lon="15.168964432449378"><ele>855.0</ele><time>2026-04-26T13:49:04.999Z</time></trkpt><trkpt lat="37.963409925937874" lon="15.168824420852593"><ele>856.0</ele><time>2026-04-26T13:49:06.999Z</time></trkpt><trkpt lat="37.96338214408362" lon="15.16873232523922"><ele>857.0</ele><time>2026-04-26T13:49:07.999Z</time></trkpt><trkpt lat="37.963340536587495" lon="15.168628420273752"><ele>858.0</ele><time>2026-04-26T13:49:08.999Z</time></trkpt><trkpt lat="37.96330533492449" lon="15.168524399571108"><ele>859.0</ele><time>2026-04-26T13:49:09.999Z</time></trkpt><trkpt lat="37.96328948543463" lon="15.16841426521447"><ele>860.0</ele><time>2026-04-26T13:49:10.999Z</time></trkpt><trkpt lat="37.96325066807931" lon="15.168317221510081"><ele>861.0</ele><time>2026-04-26T13:49:11.999Z</time></trkpt><trkpt lat="37.96320749354365" lon="15.168242024900563"><ele>866.0</ele><time>2026-04-26T13:49:12.999Z</time></trkpt><trkpt lat="37.96317298349177" lon="15.168171414402009"><ele>871.0</ele><time>2026-04-26T13:49:14.999Z</time></trkpt><trkpt lat="37.96315543170023" lon="15.168079270130816"><ele>876.0</ele><time>2026-04-26T13:49:16.999Z</time></trkpt><trkpt lat="37.96313018440415" lon="15.16800587104494"><ele>881.0</ele><time>2026-04-26T13:49:17.999Z</time></trkpt><trkpt lat="37.96307053493688" lon="15.167883284801412"><ele>886.0</ele><time>2026-04-26T13:49:19.999Z</time></trkpt><trkpt lat="37.96302110531971" lon="15.167822872180151"><ele>891.0</ele><time>2026-04-26T13:49:20.999Z</time></trkpt><trkpt lat="37.96296568237371" lon="15.167750013927744"><ele>891.0</ele><time>2026-04-26T13:49:21.999Z</time></trkpt><trkpt lat="37.962909819746464" lon="15.167676708709015"><ele>891.0</ele><time>2026-04-26T13:49:22.999Z</time></trkpt><trkpt lat="37.96285871277667" lon="15.167617652491066"><ele>891.0</ele><time>2026-04-26T13:49:23.999Z</time></trkpt><trkpt lat="37.9628133021989" lon="15.16754606868155"><ele>891.0</ele><time>2026-04-26T13:49:24.999Z</time></trkpt><trkpt lat="37.96277272120039" lon="15.167468950200753"><ele>891.0</ele><time>2026-04-26T13:49:25.999Z</time></trkpt><trkpt lat="37.96274416329745" lon="15.16739205051754"><ele>891.0</ele><time>2026-04-26T13:49:26.999Z</time></trkpt><trkpt lat="37.96267929379222" lon="15.167283667778054"><ele>892.3333333333334</ele><time>2026-04-26T13:49:28.999Z</time></trkpt><trkpt lat="37.96263501980653" lon="15.167209681017015"><ele>893.6666666666667</ele><time>2026-04-26T13:49:29.999Z</time></trkpt><trkpt lat="37.96259686969672" lon="15.16713365712876"><ele>895.0</ele><time>2026-04-26T13:49:30.999Z</time></trkpt><trkpt lat="37.962549670144924" lon="15.167053848506342"><ele>896.3333333333334</ele><time>2026-04-26T13:49:31.999Z</time></trkpt><trkpt lat="37.96248962190454" lon="15.167012671796511"><ele>897.6666666666667</ele><time>2026-04-26T13:49:32.999Z</time></trkpt><trkpt lat="37.96240442952354" lon="15.166960447604762"><ele>899.0</ele><time>2026-04-26T13:49:34.999Z</time></trkpt><trkpt lat="37.9622984956581" lon="15.166913802690187"><ele>899.0</ele><time>2026-04-26T13:49:36.999Z</time></trkpt><trkpt lat="37.962225998851125" lon="15.166996776977248"><ele>899.0000000000001</ele><time>2026-04-26T13:49:38.999Z</time></trkpt><trkpt lat="37.96223989634049" lon="15.167113665110488"><ele>899.0000000000001</ele><time>2026-04-26T13:49:40.999Z</time></trkpt><trkpt lat="37.96226869556798" lon="15.167258730502502"><ele>899.0</ele><time>2026-04-26T13:49:42.999Z</time></trkpt><trkpt lat="37.96227431004715" lon="15.167361067054186"><ele>899.0</ele><time>2026-04-26T13:49:43.999Z</time></trkpt><trkpt lat="37.96227637527014" lon="15.16744112349209"><ele>896.0000000000001</ele><time>2026-04-26T13:49:44.999Z</time></trkpt><trkpt lat="37.9622655021348" lon="15.167530025574388"><ele>893.0</ele><time>2026-04-26T13:49:45.999Z</time></trkpt><trkpt lat="37.962194886616786" lon="15.167595908845241"><ele>890.0</ele><time>2026-04-26T13:49:47.999Z</time></trkpt><trkpt lat="37.96207806762532" lon="15.167567555979156"><ele>887.0</ele><time>2026-04-26T13:49:49.999Z</time></trkpt><trkpt lat="37.96199999161736" lon="15.167552817392957"><ele>884.0000000000001</ele><time>2026-04-26T13:49:50.999Z</time></trkpt><trkpt lat="37.96190803488276" lon="15.167557924642436"><ele>881.0</ele><time>2026-04-26T13:49:51.999Z</time></trkpt><trkpt lat="37.96183658481508" lon="15.167592104737373"><ele>881.0</ele><time>2026-04-26T13:49:52.999Z</time></trkpt><trkpt lat="37.961739620752304" lon="15.167570979034565"><ele>880.9999999999999</ele><time>2026-04-26T13:49:54.999Z</time></trkpt><trkpt lat="37.9616425472813" lon="15.167553830443808"><ele>880.9999999999999</ele><time>2026-04-26T13:49:56.999Z</time></trkpt><trkpt lat="37.961556361591356" lon="15.167571692754413"><ele>881.0</ele><time>2026-04-26T13:49:58.999Z</time></trkpt><trkpt lat="37.96147633055491" lon="15.16765348957522"><ele>881.0</ele><time>2026-04-26T13:50:00.999Z</time></trkpt><trkpt lat="37.96148459431854" lon="15.167760129970977"><ele>879.8</ele><time>2026-04-26T13:50:02.999Z</time></trkpt><trkpt lat="37.96154702401842" lon="15.167834297153355"><ele>878.5999999999999</ele><time>2026-04-26T13:50:04.999Z</time></trkpt><trkpt lat="37.961621674961556" lon="15.167894992854764"><ele>877.4</ele><time>2026-04-26T13:50:06.999Z</time></trkpt><trkpt lat="37.96165912184467" lon="15.168025517018657"><ele>876.2</ele><time>2026-04-26T13:50:08.999Z</time></trkpt><trkpt lat="37.96168779749519" lon="15.168178364880514"><ele>875.0</ele><time>2026-04-26T13:50:10.999Z</time></trkpt><trkpt lat="37.961790779591475" lon="15.168267942567367"><ele>875.0</ele><time>2026-04-26T13:50:12.999Z</time></trkpt><trkpt lat="37.96184106668975" lon="15.168336637851526"><ele>875.0</ele><time>2026-04-26T13:50:13.998Z</time></trkpt><trkpt lat="37.961883248332015" lon="15.168440654078166"><ele>875.0</ele><time>2026-04-26T13:50:14.998Z</time></trkpt><trkpt lat="37.96191104030028" lon="15.168548539596252"><ele>875.0</ele><time>2026-04-26T13:50:15.998Z</time></trkpt><trkpt lat="37.961940300082816" lon="15.168702558882204"><ele>875.0</ele><time>2026-04-26T13:50:17.998Z</time></trkpt><trkpt lat="37.96194029372057" lon="15.168815270916063"><ele>875.0000000000001</ele><time>2026-04-26T13:50:18.998Z</time></trkpt><trkpt lat="37.96192010031036" lon="15.16893032773096"><ele>875.0</ele><time>2026-04-26T13:50:19.999Z</time></trkpt><trkpt lat="37.96191237972627" lon="15.169028304802042"><ele>875.0</ele><time>2026-04-26T13:50:20.999Z</time></trkpt><trkpt lat="37.961939220732475" lon="15.169114275176657"><ele>875.0</ele><time>2026-04-26T13:50:21.999Z</time></trkpt><trkpt lat="37.961977360646074" lon="15.169191465663129"><ele>875.0000000000001</ele><time>2026-04-26T13:50:22.999Z</time></trkpt><trkpt lat="37.96199801359371" lon="15.169272287600498"><ele>875.0</ele><time>2026-04-26T13:50:23.999Z</time></trkpt><trkpt lat="37.961962345461394" lon="15.169375987265134"><ele>875.0000000000001</ele><time>2026-04-26T13:50:25.999Z</time></trkpt><trkpt lat="37.96188294302022" lon="15.169366605140155"><ele>875.0</ele><time>2026-04-26T13:50:27.999Z</time></trkpt><trkpt lat="37.96184897222896" lon="15.169258016322123"><ele>875.0</ele><time>2026-04-26T13:50:29.999Z</time></trkpt><trkpt lat="37.96186252634802" lon="15.169148777894597"><ele>875.0</ele><time>2026-04-26T13:50:31.999Z</time></trkpt><trkpt lat="37.96180994189807" lon="15.169046704124666"><ele>875.0000000000001</ele><time>2026-04-26T13:50:33.999Z</time></trkpt><trkpt lat="37.961774205443895" lon="15.168979321644056"><ele>875.0</ele><time>2026-04-26T13:50:34.999Z</time></trkpt><trkpt lat="37.961712560878034" lon="15.168837899331045"><ele>882.0000000000001</ele><time>2026-04-26T13:50:36.999Z</time></trkpt><trkpt lat="37.96167443120342" lon="15.1687519859972"><ele>889.0</ele><time>2026-04-26T13:50:37.999Z</time></trkpt><trkpt lat="37.961658845450444" lon="15.16865263147305"><ele>896.0</ele><time>2026-04-26T13:50:38.999Z</time></trkpt><trkpt lat="37.961607817937676" lon="15.16858068235962"><ele>903.0</ele><time>2026-04-26T13:50:39.999Z</time></trkpt><trkpt lat="37.96152862652282" lon="15.168494779069707"><ele>910.0000000000001</ele><time>2026-04-26T13:50:40.999Z</time></trkpt><trkpt lat="37.96146777941103" lon="15.16842495953426"><ele>917.0</ele><time>2026-04-26T13:50:41.999Z</time></trkpt><trkpt lat="37.961409820750255" lon="15.168348497438062"><ele>917.0000000000001</ele><time>2026-04-26T13:50:42.999Z</time></trkpt><trkpt lat="37.96136268625147" lon="15.168294363121964"><ele>917.0</ele><time>2026-04-26T13:50:43.999Z</time></trkpt><trkpt lat="37.96130780796342" lon="15.168247274862907"><ele>917.0</ele><time>2026-04-26T13:50:44.999Z</time></trkpt><trkpt lat="37.96124110081949" lon="15.168227012296683"><ele>917.0</ele><time>2026-04-26T13:50:45.999Z</time></trkpt><trkpt lat="37.96116592197744" lon="15.16819738706806"><ele>917.0000000000001</ele><time>2026-04-26T13:50:46.999Z</time></trkpt><trkpt lat="37.961089017569435" lon="15.168172133299803"><ele>917.0</ele><time>2026-04-26T13:50:47.999Z</time></trkpt><trkpt lat="37.961021233610694" lon="15.168085107821769"><ele>915.8</ele><time>2026-04-26T13:50:49.999Z</time></trkpt><trkpt lat="37.96094926596907" lon="15.167971961099651"><ele>914.6</ele><time>2026-04-26T13:50:51.999Z</time></trkpt><trkpt lat="37.96091158181477" lon="15.16789263129778"><ele>913.3999999999999</ele><time>2026-04-26T13:50:52.999Z</time></trkpt><trkpt lat="37.96084518976856" lon="15.167811876388448"><ele>912.1999999999999</ele><time>2026-04-26T13:50:53.999Z</time></trkpt><trkpt lat="37.96078084769454" lon="15.167776354110117"><ele>911.0</ele><time>2026-04-26T13:50:54.999Z</time></trkpt><trkpt lat="37.960679196590355" lon="15.167718841608721"><ele>911.8</ele><time>2026-04-26T13:50:56.999Z</time></trkpt><trkpt lat="37.960655793159425" lon="15.16760994749611"><ele>912.5999999999999</ele><time>2026-04-26T13:50:59.999Z</time></trkpt><trkpt lat="37.96072068556249" lon="15.16743899282944"><ele>913.4</ele><time>2026-04-26T13:51:01.999Z</time></trkpt><trkpt lat="37.96077842645504" lon="15.167350175949121"><ele>914.2</ele><time>2026-04-26T13:51:02.999Z</time></trkpt><trkpt lat="37.96085193983483" lon="15.16726490820752"><ele>915.0</ele><time>2026-04-26T13:51:03.999Z</time></trkpt><trkpt lat="37.96093467797118" lon="15.167225371328962"><ele>915.0</ele><time>2026-04-26T13:51:04.999Z</time></trkpt><trkpt lat="37.96103171939024" lon="15.167157977650312"><ele>915.0</ele><time>2026-04-26T13:51:05.999Z</time></trkpt><trkpt lat="37.961123726124264" lon="15.167068220868844"><ele>915.0</ele><time>2026-04-26T13:51:06.999Z</time></trkpt><trkpt lat="37.96122005214089" lon="15.167046816634352"><ele>915.0</ele><time>2026-04-26T13:51:07.999Z</time></trkpt><trkpt lat="37.96129453405004" lon="15.166968083123125"><ele>915.0</ele><time>2026-04-26T13:51:09.999Z</time></trkpt><trkpt lat="37.96121316252744" lon="15.16684967441387"><ele>915.0</ele><time>2026-04-26T13:51:11.999Z</time></trkpt><trkpt lat="37.96115104359601" lon="15.16681021679193"><ele>915.0</ele><time>2026-04-26T13:51:12.999Z</time></trkpt><trkpt lat="37.961081232509976" lon="15.166776428786347"><ele>915.0</ele><time>2026-04-26T13:51:13.999Z</time></trkpt><trkpt lat="37.961017547215484" lon="15.16673542714283"><ele>915.0</ele><time>2026-04-26T13:51:14.999Z</time></trkpt><trkpt lat="37.96095505515052" lon="15.16660421384194"><ele>915.0</ele><time>2026-04-26T13:51:16.999Z</time></trkpt><trkpt lat="37.96097062954408" lon="15.166503457615745"><ele>915.0</ele><time>2026-04-26T13:51:17.999Z</time></trkpt><trkpt lat="37.96096963861274" lon="15.166373531884622"><ele>916.8</ele><time>2026-04-26T13:51:18.999Z</time></trkpt><trkpt lat="37.9609708513726" lon="15.166251025252661"><ele>918.6</ele><time>2026-04-26T13:51:19.999Z</time></trkpt><trkpt lat="37.9608681873669" lon="15.166162808957633"><ele>920.4000000000001</ele><time>2026-04-26T13:51:21.999Z</time></trkpt><trkpt lat="37.96078730614162" lon="15.166087155885075"><ele>922.2</ele><time>2026-04-26T13:51:22.999Z</time></trkpt><trkpt lat="37.96071586471857" lon="15.166007994360754"><ele>924.0</ele><time>2026-04-26T13:51:23.999Z</time></trkpt><trkpt lat="37.960648100302976" lon="15.165940742013042"><ele>928.3333333333334</ele><time>2026-04-26T13:51:24.999Z</time></trkpt><trkpt lat="37.96052939879826" lon="15.165860589608624"><ele>932.6666666666667</ele><time>2026-04-26T13:51:26.999Z</time></trkpt><trkpt lat="37.960449839602795" lon="15.165855805059719"><ele>937.0</ele><time>2026-04-26T13:51:27.999Z</time></trkpt><trkpt lat="37.96038256073139" lon="15.165847387104323"><ele>941.3333333333334</ele><time>2026-04-26T13:51:28.999Z</time></trkpt><trkpt lat="37.960300581453474" lon="15.16583236002907"><ele>945.6666666666667</ele><time>2026-04-26T13:51:29.999Z</time></trkpt><trkpt lat="37.960228786200815" lon="15.165813932009739"><ele>950.0</ele><time>2026-04-26T13:51:30.999Z</time></trkpt><trkpt lat="37.96016884065291" lon="15.165784420200337"><ele>950.0</ele><time>2026-04-26T13:51:31.999Z</time></trkpt><trkpt lat="37.96006937034703" lon="15.165715160644135"><ele>950.0</ele><time>2026-04-26T13:51:33.999Z</time></trkpt><trkpt lat="37.9599849534499" lon="15.165614355672027"><ele>950.0</ele><time>2026-04-26T13:51:35.999Z</time></trkpt><trkpt lat="37.960002531200885" lon="15.165493069547475"><ele>950.0</ele><time>2026-04-26T13:51:37.999Z</time></trkpt><trkpt lat="37.9600490444189" lon="15.165431367011989"><ele>950.0</ele><time>2026-04-26T13:51:38.999Z</time></trkpt><trkpt lat="37.96011740091088" lon="15.165378788507825"><ele>951.3333333333334</ele><time>2026-04-26T13:51:39.999Z</time></trkpt><trkpt lat="37.960181059000035" lon="15.165345583359542"><ele>952.6666666666667</ele><time>2026-04-26T13:51:40.999Z</time></trkpt><trkpt lat="37.96023396117109" lon="15.165290804715081"><ele>954.0</ele><time>2026-04-26T13:51:42.999Z</time></trkpt><trkpt lat="37.96024254271769" lon="15.16520371147123"><ele>955.3333333333333</ele><time>2026-04-26T13:51:45.999Z</time></trkpt><trkpt lat="37.96028846646622" lon="15.16508683105706"><ele>956.6666666666666</ele><time>2026-04-26T13:51:47.999Z</time></trkpt><trkpt lat="37.9602357543402" lon="15.164980074634478"><ele>958.0</ele><time>2026-04-26T13:51:49.999Z</time></trkpt><trkpt lat="37.96019052217583" lon="15.16487910941103"><ele>965.2</ele><time>2026-04-26T13:51:51.999Z</time></trkpt><trkpt lat="37.960172879416824" lon="15.164710105205545"><ele>972.4</ele><time>2026-04-26T13:51:53.999Z</time></trkpt><trkpt lat="37.96014932444377" lon="15.16462866038958"><ele>979.6000000000001</ele><time>2026-04-26T13:51:54.999Z</time></trkpt><trkpt lat="37.96012835531404" lon="15.164503232686046"><ele>986.8000000000001</ele><time>2026-04-26T13:51:56.999Z</time></trkpt><trkpt lat="37.96017068216817" lon="15.164404535870744"><ele>994.0</ele><time>2026-04-26T13:51:58.999Z</time></trkpt><trkpt lat="37.96025746523192" lon="15.164393137401898"><ele>994.0</ele><time>2026-04-26T13:52:00.999Z</time></trkpt><trkpt lat="37.96032466503819" lon="15.164377823238041"><ele>994.0000000000001</ele><time>2026-04-26T13:52:01.999Z</time></trkpt><trkpt lat="37.96044862152369" lon="15.164398412489946"><ele>994.0000000000001</ele><time>2026-04-26T13:52:03.999Z</time></trkpt><trkpt lat="37.96058264045956" lon="15.164381514339587"><ele>994.0</ele><time>2026-04-26T13:52:05.999Z</time></trkpt><trkpt lat="37.96065517717416" lon="15.164333160651815"><ele>994.0</ele><time>2026-04-26T13:52:06.999Z</time></trkpt><trkpt lat="37.96073747634384" lon="15.164251699950519"><ele>994.0</ele><time>2026-04-26T13:52:08.999Z</time></trkpt><trkpt lat="37.96074220924942" lon="15.16416799674852"><ele>994.0</ele><time>2026-04-26T13:52:10.999Z</time></trkpt><trkpt lat="37.960672801147" lon="15.164154012038036"><ele>994.0</ele><time>2026-04-26T13:52:13.999Z</time></trkpt><trkpt lat="37.96058388775917" lon="15.16419796132949"><ele>994.0</ele><time>2026-04-26T13:52:15.999Z</time></trkpt><trkpt lat="37.96051487907048" lon="15.164209259238902"><ele>994.0</ele><time>2026-04-26T13:52:16.999Z</time></trkpt><trkpt lat="37.96044927339608" lon="15.164203051025622"><ele>994.0</ele><time>2026-04-26T13:52:17.999Z</time></trkpt><trkpt lat="37.96037794463729" lon="15.16415482417443"><ele>994.0</ele><time>2026-04-26T13:52:18.999Z</time></trkpt><trkpt lat="37.96030187844509" lon="15.164105828657608"><ele>993.9999999999999</ele><time>2026-04-26T13:52:19.999Z</time></trkpt><trkpt lat="37.960220889301134" lon="15.164073227190164"><ele>994.0</ele><time>2026-04-26T13:52:20.999Z</time></trkpt><trkpt lat="37.960142709731564" lon="15.164048327054573"><ele>994.0</ele><time>2026-04-26T13:52:21.999Z</time></trkpt><trkpt lat="37.960053063955016" lon="15.164002052151654"><ele>994.0</ele><time>2026-04-26T13:52:23.999Z</time></trkpt><trkpt lat="37.9599476255763" lon="15.164044174240967"><ele>993.9999999999999</ele><time>2026-04-26T13:52:26Z</time></trkpt><trkpt lat="37.95989487735887" lon="15.164096710322864"><ele>994.0</ele><time>2026-04-26T13:52:27Z</time></trkpt><trkpt lat="37.95985562898022" lon="15.164169021962469"><ele>996.8000000000001</ele><time>2026-04-26T13:52:28Z</time></trkpt><trkpt lat="37.95984475781329" lon="15.164320000670763"><ele>999.6000000000001</ele><time>2026-04-26T13:52:30Z</time></trkpt><trkpt lat="37.95979644785113" lon="15.164473061811709"><ele>1002.4</ele><time>2026-04-26T13:52:32Z</time></trkpt><trkpt lat="37.95977329308031" lon="15.164552352434086"><ele>1005.2</ele><time>2026-04-26T13:52:33Z</time></trkpt><trkpt lat="37.95976818959935" lon="15.164650508302666"><ele>1008.0</ele><time>2026-04-26T13:52:34Z</time></trkpt><trkpt lat="37.959754077688864" lon="15.164746860644101"><ele>1008.0</ele><time>2026-04-26T13:52:35Z</time></trkpt><trkpt lat="37.95971467150858" lon="15.164837977853384"><ele>1008.0</ele><time>2026-04-26T13:52:36Z</time></trkpt><trkpt lat="37.95966464529462" lon="15.164905725760198"><ele>1008.0</ele><time>2026-04-26T13:52:37Z</time></trkpt><trkpt lat="37.95961367487005" lon="15.164985074405507"><ele>1008.0</ele><time>2026-04-26T13:52:38Z</time></trkpt><trkpt lat="37.95955365301967" lon="15.165078811522616"><ele>1008.0</ele><time>2026-04-26T13:52:39Z</time></trkpt><trkpt lat="37.959500781397566" lon="15.165167310729814"><ele>1008.0</ele><time>2026-04-26T13:52:40Z</time></trkpt><trkpt lat="37.95943890253236" lon="15.165218178289452"><ele>1004.5999999999999</ele><time>2026-04-26T13:52:41Z</time></trkpt><trkpt lat="37.95931641789871" lon="15.165294419094664"><ele>1001.1999999999999</ele><time>2026-04-26T13:52:43Z</time></trkpt><trkpt lat="37.959218325868086" lon="15.16540963921234"><ele>997.8</ele><time>2026-04-26T13:52:45Z</time></trkpt><trkpt lat="37.95917680693535" lon="15.165506469564379"><ele>994.4</ele><time>2026-04-26T13:52:46Z</time></trkpt><trkpt lat="37.95914571814359" lon="15.165603470668588"><ele>991.0</ele><time>2026-04-26T13:52:47Z</time></trkpt><trkpt lat="37.959112730075226" lon="15.16567209139617"><ele>997.4999999999999</ele><time>2026-04-26T13:52:48Z</time></trkpt><trkpt lat="37.95902864349976" lon="15.16577151872254"><ele>1004.0</ele><time>2026-04-26T13:52:50Z</time></trkpt><trkpt lat="37.95897030296438" lon="15.16589434837278"><ele>1010.5</ele><time>2026-04-26T13:52:52Z</time></trkpt><trkpt lat="37.95899409785143" lon="15.165976484510974"><ele>1017.0</ele><time>2026-04-26T13:52:53Z</time></trkpt><trkpt lat="37.959039366912734" lon="15.166033766677478"><ele>1023.4999999999999</ele><time>2026-04-26T13:52:54Z</time></trkpt><trkpt lat="37.95911226914042" lon="15.166081970993886"><ele>1030.0</ele><time>2026-04-26T13:52:55Z</time></trkpt><trkpt lat="37.95917146878234" lon="15.16612905035051"><ele>1024.4</ele><time>2026-04-26T13:52:56Z</time></trkpt><trkpt lat="37.95922566662626" lon="15.166184259961268"><ele>1018.8</ele><time>2026-04-26T13:52:57Z</time></trkpt><trkpt lat="37.95927077978861" lon="15.166252547443191"><ele>1013.2</ele><time>2026-04-26T13:52:58Z</time></trkpt><trkpt lat="37.959324479378516" lon="15.166383616334382"><ele>1007.6</ele><time>2026-04-26T13:53:00Z</time></trkpt><trkpt lat="37.959362306053684" lon="15.166549823490726"><ele>1002.0</ele><time>2026-04-26T13:53:02Z</time></trkpt><trkpt lat="37.9593491925338" lon="15.16669472340051"><ele>1002.0</ele><time>2026-04-26T13:53:04Z</time></trkpt><trkpt lat="37.959302258005444" lon="15.16676704203454"><ele>1002.0</ele><time>2026-04-26T13:53:05Z</time></trkpt><trkpt lat="37.95926227342636" lon="15.166833745946905"><ele>1002.0</ele><time>2026-04-26T13:53:06Z</time></trkpt><trkpt lat="37.95923212519382" lon="15.166909152533123"><ele>1002.0</ele><time>2026-04-26T13:53:07Z</time></trkpt><trkpt lat="37.95917840770687" lon="15.167037259226944"><ele>1002.0</ele><time>2026-04-26T13:53:09Z</time></trkpt><trkpt lat="37.95912945119637" lon="15.16716522888309"><ele>1002.0</ele><time>2026-04-26T13:53:11Z</time></trkpt><trkpt lat="37.95912066323099" lon="15.167272967055027"><ele>1009.6666666666666</ele><time>2026-04-26T13:53:12Z</time></trkpt><trkpt lat="37.959114611627456" lon="15.16738073885795"><ele>1017.3333333333333</ele><time>2026-04-26T13:53:13Z</time></trkpt><trkpt lat="37.95911892227123" lon="15.167478331837499"><ele>1025.0</ele><time>2026-04-26T13:53:14Z</time></trkpt><trkpt lat="37.95913023595609" lon="15.16758577896458"><ele>1032.6666666666665</ele><time>2026-04-26T13:53:15Z</time></trkpt><trkpt lat="37.95913150687342" lon="15.167682506160604"><ele>1040.3333333333333</ele><time>2026-04-26T13:53:16Z</time></trkpt><trkpt lat="37.95913065375692" lon="15.167784177364295"><ele>1048.0</ele><time>2026-04-26T13:53:17Z</time></trkpt><trkpt lat="37.959140698358986" lon="15.167881405375686"><ele>1048.0</ele><time>2026-04-26T13:53:18Z</time></trkpt><trkpt lat="37.95916078151972" lon="15.168001546975411"><ele>1048.0</ele><time>2026-04-26T13:53:19Z</time></trkpt><trkpt lat="37.95913391399723" lon="15.168097453816454"><ele>1048.0</ele><time>2026-04-26T13:53:20Z</time></trkpt><trkpt lat="37.95902779074285" lon="15.168163131717547"><ele>1048.0</ele><time>2026-04-26T13:53:22Z</time></trkpt><trkpt lat="37.958959654245284" lon="15.168216566193145"><ele>1048.0</ele><time>2026-04-26T13:53:23Z</time></trkpt><trkpt lat="37.95889596066833" lon="15.168266598258299"><ele>1046.8333333333333</ele><time>2026-04-26T13:53:24Z</time></trkpt><trkpt lat="37.958822568783724" lon="15.16828102004718"><ele>1045.6666666666665</ele><time>2026-04-26T13:53:25Z</time></trkpt><trkpt lat="37.958746267657716" lon="15.16829937556418"><ele>1044.5</ele><time>2026-04-26T13:53:26Z</time></trkpt><trkpt lat="37.958671736659056" lon="15.168289058499987"><ele>1043.3333333333333</ele><time>2026-04-26T13:53:27Z</time></trkpt><trkpt lat="37.95860510192217" lon="15.168288432144458"><ele>1042.1666666666667</ele><time>2026-04-26T13:53:28Z</time></trkpt><trkpt lat="37.95853469296308" lon="15.168296009792062"><ele>1041.0</ele><time>2026-04-26T13:53:29Z</time></trkpt><trkpt lat="37.95844872954947" lon="15.168318205833"><ele>1045.6666666666667</ele><time>2026-04-26T13:53:30Z</time></trkpt><trkpt lat="37.9583654836548" lon="15.168365550200871"><ele>1050.3333333333333</ele><time>2026-04-26T13:53:30.999Z</time></trkpt><trkpt lat="37.958295325063325" lon="15.168411922903909"><ele>1055.0</ele><time>2026-04-26T13:53:31.999Z</time></trkpt><trkpt lat="37.95822684079491" lon="15.168455010682425"><ele>1059.6666666666665</ele><time>2026-04-26T13:53:32.999Z</time></trkpt><trkpt lat="37.958158769837866" lon="15.168516823379921"><ele>1064.3333333333333</ele><time>2026-04-26T13:53:33.999Z</time></trkpt><trkpt lat="37.95808805287888" lon="15.168589822470395"><ele>1069.0</ele><time>2026-04-26T13:53:34.999Z</time></trkpt><trkpt lat="37.958026405205224" lon="15.16866123753191"><ele>1069.0</ele><time>2026-04-26T13:53:35.999Z</time></trkpt><trkpt lat="37.95798084602322" lon="15.168737304291037"><ele>1069.0</ele><time>2026-04-26T13:53:36.999Z</time></trkpt><trkpt lat="37.95793135254063" lon="15.168835423282784"><ele>1069.0</ele><time>2026-04-26T13:53:37.999Z</time></trkpt><trkpt lat="37.95789104259732" lon="15.168920054079603"><ele>1069.0</ele><time>2026-04-26T13:53:38.999Z</time></trkpt><trkpt lat="37.957843331336534" lon="15.169001611646893"><ele>1069.0</ele><time>2026-04-26T13:53:39.999Z</time></trkpt><trkpt lat="37.95778190038946" lon="15.169045460414761"><ele>1069.0</ele><time>2026-04-26T13:53:40.999Z</time></trkpt><trkpt lat="37.95766064582469" lon="15.16917803321683"><ele>1071.0</ele><time>2026-04-26T13:53:42.999Z</time></trkpt><trkpt lat="37.95760838815642" lon="15.169237741659519"><ele>1073.0</ele><time>2026-04-26T13:53:43.999Z</time></trkpt><trkpt lat="37.957523794124604" lon="15.169260987383387"><ele>1075.0</ele><time>2026-04-26T13:53:44.999Z</time></trkpt><trkpt lat="37.95744178953559" lon="15.16925296805708"><ele>1077.0</ele><time>2026-04-26T13:53:45.999Z</time></trkpt><trkpt lat="37.95733006559571" lon="15.169304128270776"><ele>1079.0</ele><time>2026-04-26T13:53:47.999Z</time></trkpt><trkpt lat="37.957296722752105" lon="15.169431364924018"><ele>1079.0</ele><time>2026-04-26T13:53:49.999Z</time></trkpt><trkpt lat="37.95729659892739" lon="15.169532271783895"><ele>1079.0</ele><time>2026-04-26T13:53:50.999Z</time></trkpt><trkpt lat="37.9573038942324" lon="15.169626195951055"><ele>1079.0</ele><time>2026-04-26T13:53:51.999Z</time></trkpt><trkpt lat="37.95730592027492" lon="15.169727637363003"><ele>1079.0</ele><time>2026-04-26T13:53:52.999Z</time></trkpt><trkpt lat="37.957287378133564" lon="15.169827307051428"><ele>1079.0</ele><time>2026-04-26T13:53:53.999Z</time></trkpt><trkpt lat="37.95724849356468" lon="15.169898469997339"><ele>1079.0</ele><time>2026-04-26T13:53:54.999Z</time></trkpt><trkpt lat="37.95718829028042" lon="15.169960039072658"><ele>1077.6666666666667</ele><time>2026-04-26T13:53:55.999Z</time></trkpt><trkpt lat="37.95713209958057" lon="15.170046763656403"><ele>1076.3333333333335</ele><time>2026-04-26T13:53:56.999Z</time></trkpt><trkpt lat="37.95708095783271" lon="15.170135455817483"><ele>1075.0</ele><time>2026-04-26T13:53:57.999Z</time></trkpt><trkpt lat="37.95703640598346" lon="15.1702254933112"><ele>1073.6666666666667</ele><time>2026-04-26T13:53:58.999Z</time></trkpt><trkpt lat="37.95699542528187" lon="15.170320081672315"><ele>1072.3333333333333</ele><time>2026-04-26T13:53:59.999Z</time></trkpt><trkpt lat="37.95695329872329" lon="15.170399118157327"><ele>1071.0</ele><time>2026-04-26T13:54:00.999Z</time></trkpt><trkpt lat="37.95694237795748" lon="15.17052633653709"><ele>1071.0</ele><time>2026-04-26T13:54:01.999Z</time></trkpt><trkpt lat="37.95692544670008" lon="15.170644222362546"><ele>1071.0</ele><time>2026-04-26T13:54:02.999Z</time></trkpt><trkpt lat="37.95690609121723" lon="15.170754070469043"><ele>1071.0</ele><time>2026-04-26T13:54:03.999Z</time></trkpt><trkpt lat="37.956903793495684" lon="15.170881740810914"><ele>1071.0</ele><time>2026-04-26T13:54:04.999Z</time></trkpt><trkpt lat="37.956917149222875" lon="15.171007611511122"><ele>1071.0</ele><time>2026-04-26T13:54:05.999Z</time></trkpt><trkpt lat="37.95692849971143" lon="15.171118114281507"><ele>1071.0</ele><time>2026-04-26T13:54:06.999Z</time></trkpt><trkpt lat="37.95694400976436" lon="15.171234743076898"><ele>1071.0</ele><time>2026-04-26T13:54:07.999Z</time></trkpt><trkpt lat="37.95695248115592" lon="15.171361802293166"><ele>1071.0</ele><time>2026-04-26T13:54:08.999Z</time></trkpt><trkpt lat="37.95697579966592" lon="15.171480538197319"><ele>1071.0</ele><time>2026-04-26T13:54:09.999Z</time></trkpt><trkpt lat="37.95698848525691" lon="15.171563271915227"><ele>1071.0</ele><time>2026-04-26T13:54:10.999Z</time></trkpt><trkpt lat="37.9569700922023" lon="15.171698154714795"><ele>1071.0</ele><time>2026-04-26T13:54:12.999Z</time></trkpt><trkpt lat="37.95695842051906" lon="15.171780642082856"><ele>1071.0</ele><time>2026-04-26T13:54:13.999Z</time></trkpt><trkpt lat="37.956969882939276" lon="15.17190905600511"><ele>1071.0</ele><time>2026-04-26T13:54:15.999Z</time></trkpt><trkpt lat="37.95695965545249" lon="15.172007979531154"><ele>1071.0</ele><time>2026-04-26T13:54:18.999Z</time></trkpt><trkpt lat="37.95699457079908" lon="15.17208289818282"><ele>1071.0</ele><time>2026-04-26T13:54:39Z</time></trkpt><trkpt lat="37.95701406447968" lon="15.172212579465993"><ele>1071.0</ele><time>2026-04-26T13:54:41Z</time></trkpt><trkpt lat="37.957049904452695" lon="15.172324235186858"><ele>1072.3333333333333</ele><time>2026-04-26T13:54:42Z</time></trkpt><trkpt lat="37.95707763983112" lon="15.172431817148397"><ele>1073.6666666666667</ele><time>2026-04-26T13:54:43Z</time></trkpt><trkpt lat="37.957121315878965" lon="15.172524955058169"><ele>1075.0</ele><time>2026-04-26T13:54:44Z</time></trkpt><trkpt lat="37.957138272729416" lon="15.172623113164711"><ele>1076.3333333333335</ele><time>2026-04-26T13:54:45Z</time></trkpt><trkpt lat="37.957137132257266" lon="15.172736289810087"><ele>1077.6666666666667</ele><time>2026-04-26T13:54:46Z</time></trkpt><trkpt lat="37.95714156778313" lon="15.17283322830161"><ele>1079.0</ele><time>2026-04-26T13:54:47Z</time></trkpt><trkpt lat="37.957178538462706" lon="15.172944053487637"><ele>1079.0</ele><time>2026-04-26T13:54:48Z</time></trkpt><trkpt lat="37.95726889736268" lon="15.173034250543326"><ele>1079.0</ele><time>2026-04-26T13:54:49Z</time></trkpt><trkpt lat="37.95731031690504" lon="15.17316366541943"><ele>1079.0</ele><time>2026-04-26T13:54:50Z</time></trkpt><trkpt lat="37.95735348058729" lon="15.173275122340176"><ele>1079.0</ele><time>2026-04-26T13:54:51Z</time></trkpt><trkpt lat="37.95737326357802" lon="15.173390664618733"><ele>1079.0</ele><time>2026-04-26T13:54:52Z</time></trkpt><trkpt lat="37.95736780142733" lon="15.173512454454734"><ele>1079.4</ele><time>2026-04-26T13:54:53Z</time></trkpt><trkpt lat="37.957338211378605" lon="15.173620723253446"><ele>1079.8000000000002</ele><time>2026-04-26T13:54:54Z</time></trkpt><trkpt lat="37.957300666792754" lon="15.173731102975637"><ele>1080.1999999999998</ele><time>2026-04-26T13:54:55Z</time></trkpt><trkpt lat="37.95728475450826" lon="15.173835091426069"><ele>1080.6</ele><time>2026-04-26T13:54:56Z</time></trkpt><trkpt lat="37.95727170084688" lon="15.173945155131301"><ele>1081.0</ele><time>2026-04-26T13:54:57Z</time></trkpt><trkpt lat="37.957329809848815" lon="15.17406680961391"><ele>1081.0</ele><time>2026-04-26T13:54:58Z</time></trkpt><trkpt lat="37.957357827437434" lon="15.174204162290733"><ele>1081.0</ele><time>2026-04-26T13:54:59Z</time></trkpt><trkpt lat="37.957394930438724" lon="15.174330649143187"><ele>1081.0</ele><time>2026-04-26T13:55:00Z</time></trkpt><trkpt lat="37.957441333590346" lon="15.174448404685604"><ele>1081.0</ele><time>2026-04-26T13:55:01Z</time></trkpt><trkpt lat="37.95746193029635" lon="15.174582105739978"><ele>1081.0</ele><time>2026-04-26T13:55:02Z</time></trkpt><trkpt lat="37.957467808464685" lon="15.174696302785831"><ele>1081.0</ele><time>2026-04-26T13:55:03Z</time></trkpt><trkpt lat="37.95746916880961" lon="15.17484193426986"><ele>1081.0</ele><time>2026-04-26T13:55:04Z</time></trkpt><trkpt lat="37.95744077243056" lon="15.174990860390817"><ele>1081.0</ele><time>2026-04-26T13:55:05Z</time></trkpt><trkpt lat="37.95741548157021" lon="15.175153221707209"><ele>1081.0</ele><time>2026-04-26T13:55:06Z</time></trkpt><trkpt lat="37.957393184729234" lon="15.175316584612585"><ele>1080.0</ele><time>2026-04-26T13:55:07Z</time></trkpt><trkpt lat="37.95738418435906" lon="15.175473502381665"><ele>1079.0</ele><time>2026-04-26T13:55:08Z</time></trkpt><trkpt lat="37.95738341668468" lon="15.175623049526497"><ele>1078.0</ele><time>2026-04-26T13:55:09Z</time></trkpt><trkpt lat="37.957374005904015" lon="15.175770174064851"><ele>1077.0</ele><time>2026-04-26T13:55:10Z</time></trkpt><trkpt lat="37.9573524976376" lon="15.175919613371843"><ele>1076.0</ele><time>2026-04-26T13:55:11Z</time></trkpt><trkpt lat="37.9573372560008" lon="15.176062925881219"><ele>1075.0</ele><time>2026-04-26T13:55:12Z</time></trkpt><trkpt lat="37.95732508710602" lon="15.176213428683745"><ele>1074.0</ele><time>2026-04-26T13:55:13Z</time></trkpt><trkpt lat="37.95732255221686" lon="15.176356389270442"><ele>1073.0</ele><time>2026-04-26T13:55:14Z</time></trkpt><trkpt lat="37.95733977965991" lon="15.176495446730128"><ele>1073.0</ele><time>2026-04-26T13:55:15Z</time></trkpt><trkpt lat="37.9573586726046" lon="15.176648972160265"><ele>1073.0</ele><time>2026-04-26T13:55:16Z</time></trkpt><trkpt lat="37.957387969020935" lon="15.176797508783645"><ele>1073.0</ele><time>2026-04-26T13:55:17Z</time></trkpt><trkpt lat="37.957431303234564" lon="15.176954339920025"><ele>1073.0</ele><time>2026-04-26T13:55:18Z</time></trkpt><trkpt lat="37.95746802989981" lon="15.177114441059507"><ele>1073.0</ele><time>2026-04-26T13:55:19Z</time></trkpt><trkpt lat="37.95750157628218" lon="15.177273673002361"><ele>1073.0</ele><time>2026-04-26T13:55:20Z</time></trkpt><trkpt lat="37.95752799260591" lon="15.177443255244889"><ele>1073.0</ele><time>2026-04-26T13:55:21Z</time></trkpt><trkpt lat="37.9575718247201" lon="15.177610678410392"><ele>1073.0</ele><time>2026-04-26T13:55:22Z</time></trkpt><trkpt lat="37.95762505043626" lon="15.177783946783707"><ele>1068.5</ele><time>2026-04-26T13:55:23Z</time></trkpt><trkpt lat="37.957660988078736" lon="15.177945453804629"><ele>1064.0</ele><time>2026-04-26T13:55:24Z</time></trkpt><trkpt lat="37.9576957839945" lon="15.178116356215462"><ele>1059.5</ele><time>2026-04-26T13:55:25Z</time></trkpt><trkpt lat="37.95772710018319" lon="15.178274143201222"><ele>1055.0</ele><time>2026-04-26T13:55:26Z</time></trkpt><trkpt lat="37.957750399164965" lon="15.178428838121526"><ele>1055.0</ele><time>2026-04-26T13:55:27Z</time></trkpt><trkpt lat="37.95775518903229" lon="15.178573736807689"><ele>1055.0</ele><time>2026-04-26T13:55:28Z</time></trkpt><trkpt lat="37.957760202157964" lon="15.178715818087388"><ele>1055.0</ele><time>2026-04-26T13:55:29Z</time></trkpt><trkpt lat="37.9577605869943" lon="15.17885508354839"><ele>1055.0</ele><time>2026-04-26T13:55:30Z</time></trkpt><trkpt lat="37.95774098123878" lon="15.178980658453195"><ele>1055.0</ele><time>2026-04-26T13:55:31Z</time></trkpt><trkpt lat="37.957698471545534" lon="15.179094476665249"><ele>1057.25</ele><time>2026-04-26T13:55:32Z</time></trkpt><trkpt lat="37.95763408655112" lon="15.179170460724894"><ele>1059.5</ele><time>2026-04-26T13:55:33Z</time></trkpt><trkpt lat="37.95755748953906" lon="15.179259840131175"><ele>1061.75</ele><time>2026-04-26T13:55:35Z</time></trkpt><trkpt lat="37.95749218705524" lon="15.179236539857284"><ele>1064.0</ele><time>2026-04-26T13:55:36Z</time></trkpt><trkpt lat="37.95730066615045" lon="15.179203798694187"><ele>1064.0</ele><time>2026-04-26T13:55:39Z</time></trkpt><trkpt lat="37.957233425025095" lon="15.179065142129662"><ele>1064.0</ele><time>2026-04-26T13:55:41Z</time></trkpt><trkpt lat="37.95718587548038" lon="15.178983459503883"><ele>1064.0</ele><time>2026-04-26T13:55:42Z</time></trkpt><trkpt lat="37.95711680860538" lon="15.178907288412143"><ele>1064.0</ele><time>2026-04-26T13:55:43Z</time></trkpt><trkpt lat="37.95706792586168" lon="15.178808542442384"><ele>1064.0</ele><time>2026-04-26T13:55:44Z</time></trkpt><trkpt lat="37.95700972946737" lon="15.178714432354328"><ele>1064.6000000000001</ele><time>2026-04-26T13:55:45Z</time></trkpt><trkpt lat="37.95694922291372" lon="15.178625520266712"><ele>1065.2</ele><time>2026-04-26T13:55:46Z</time></trkpt><trkpt lat="37.956895013093714" lon="15.17851426342793"><ele>1065.8000000000002</ele><time>2026-04-26T13:55:47Z</time></trkpt><trkpt lat="37.95683964959116" lon="15.178419222955126"><ele>1066.4</ele><time>2026-04-26T13:55:48Z</time></trkpt><trkpt lat="37.956759105416936" lon="15.178337230674632"><ele>1067.0</ele><time>2026-04-26T13:55:49Z</time></trkpt><trkpt lat="37.9566674004939" lon="15.178294083866607"><ele>1068.4</ele><time>2026-04-26T13:55:50Z</time></trkpt><trkpt lat="37.95657605159878" lon="15.178281663103963"><ele>1069.8000000000002</ele><time>2026-04-26T13:55:51Z</time></trkpt><trkpt lat="37.95647904336814" lon="15.178231456722123"><ele>1071.2</ele><time>2026-04-26T13:55:52Z</time></trkpt><trkpt lat="37.95638550694177" lon="15.178164104135695"><ele>1072.6000000000001</ele><time>2026-04-26T13:55:53Z</time></trkpt><trkpt lat="37.95630529624304" lon="15.178087322027059"><ele>1074.0</ele><time>2026-04-26T13:55:54Z</time></trkpt><trkpt lat="37.956214861898005" lon="15.17800813082703"><ele>1074.0</ele><time>2026-04-26T13:55:55Z</time></trkpt><trkpt lat="37.956138299806696" lon="15.17796099729277"><ele>1074.0</ele><time>2026-04-26T13:55:56Z</time></trkpt><trkpt lat="37.95605375433765" lon="15.177881219071752"><ele>1074.0</ele><time>2026-04-26T13:55:57Z</time></trkpt><trkpt lat="37.95598337370028" lon="15.177786217638216"><ele>1074.0</ele><time>2026-04-26T13:55:58Z</time></trkpt><trkpt lat="37.95592251173827" lon="15.177688944752669"><ele>1074.0</ele><time>2026-04-26T13:55:58.999Z</time></trkpt><trkpt lat="37.95586213199071" lon="15.17759232768008"><ele>1070.4</ele><time>2026-04-26T13:55:59.999Z</time></trkpt><trkpt lat="37.955812992505386" lon="15.177479865730955"><ele>1066.8000000000002</ele><time>2026-04-26T13:56:00.999Z</time></trkpt><trkpt lat="37.95577321747022" lon="15.177352814488678"><ele>1063.1999999999998</ele><time>2026-04-26T13:56:01.999Z</time></trkpt><trkpt lat="37.95572639750821" lon="15.17724155635669"><ele>1059.6</ele><time>2026-04-26T13:56:02.999Z</time></trkpt><trkpt lat="37.95566891571769" lon="15.177139981593285"><ele>1056.0</ele><time>2026-04-26T13:56:03.999Z</time></trkpt><trkpt lat="37.95559512537429" lon="15.177061754572955"><ele>1056.0</ele><time>2026-04-26T13:56:04.999Z</time></trkpt><trkpt lat="37.95551527061198" lon="15.176982193431089"><ele>1056.0</ele><time>2026-04-26T13:56:05.999Z</time></trkpt><trkpt lat="37.95540901476257" lon="15.176896974435524"><ele>1056.0</ele><time>2026-04-26T13:56:06.999Z</time></trkpt><trkpt lat="37.95530042438771" lon="15.176815816434633"><ele>1056.0</ele><time>2026-04-26T13:56:07.999Z</time></trkpt><trkpt lat="37.955225764107105" lon="15.176725168311712"><ele>1056.0</ele><time>2026-04-26T13:56:08.999Z</time></trkpt><trkpt lat="37.955168062243544" lon="15.176607184103027"><ele>1056.0</ele><time>2026-04-26T13:56:09.999Z</time></trkpt><trkpt lat="37.95511328071452" lon="15.176496855844608"><ele>1056.0</ele><time>2026-04-26T13:56:10.999Z</time></trkpt><trkpt lat="37.955064027753586" lon="15.176407399374101"><ele>1056.0</ele><time>2026-04-26T13:56:11.999Z</time></trkpt><trkpt lat="37.95502898407975" lon="15.176309799219819"><ele>1056.0</ele><time>2026-04-26T13:56:12.999Z</time></trkpt><trkpt lat="37.95500851149171" lon="15.176201062962898"><ele>1049.8</ele><time>2026-04-26T13:56:13.999Z</time></trkpt><trkpt lat="37.954991527751886" lon="15.176080542424142"><ele>1043.6</ele><time>2026-04-26T13:56:14.999Z</time></trkpt><trkpt lat="37.954996723481294" lon="15.175971531366462"><ele>1037.4</ele><time>2026-04-26T13:56:15.999Z</time></trkpt><trkpt lat="37.95501133895018" lon="15.175829955016686"><ele>1031.2</ele><time>2026-04-26T13:56:16.999Z</time></trkpt><trkpt lat="37.95503432713254" lon="15.17568638042982"><ele>1025.0</ele><time>2026-04-26T13:56:17.999Z</time></trkpt><trkpt lat="37.95502882854231" lon="15.175557748760005"><ele>1024.5</ele><time>2026-04-26T13:56:18.999Z</time></trkpt><trkpt lat="37.955015968871926" lon="15.175422651070066"><ele>1024.0</ele><time>2026-04-26T13:56:19.999Z</time></trkpt><trkpt lat="37.954980493488065" lon="15.175291690037966"><ele>1023.5</ele><time>2026-04-26T13:56:20.999Z</time></trkpt><trkpt lat="37.954940899420855" lon="15.175135255932098"><ele>1023.0</ele><time>2026-04-26T13:56:21.999Z</time></trkpt><trkpt lat="37.95491996315288" lon="15.174994874505837"><ele>1023.0</ele><time>2026-04-26T13:56:22.999Z</time></trkpt><trkpt lat="37.95490666724891" lon="15.174858839341773"><ele>1023.0</ele><time>2026-04-26T13:56:23.999Z</time></trkpt><trkpt lat="37.95493039521701" lon="15.174763247103654"><ele>1023.0</ele><time>2026-04-26T13:56:24.999Z</time></trkpt><trkpt lat="37.954972978561024" lon="15.174682111286863"><ele>1023.0</ele><time>2026-04-26T13:56:25.999Z</time></trkpt><trkpt lat="37.955019671397395" lon="15.174626776232959"><ele>1023.0</ele><time>2026-04-26T13:56:26.999Z</time></trkpt><trkpt lat="37.95501869633438" lon="15.174514406116637"><ele>1023.0</ele><time>2026-04-26T13:56:28.999Z</time></trkpt><trkpt lat="37.9549191371577" lon="15.174448784832093"><ele>1024.0</ele><time>2026-04-26T13:56:30.999Z</time></trkpt><trkpt lat="37.95484345789294" lon="15.17444733273049"><ele>1025.0</ele><time>2026-04-26T13:56:31.999Z</time></trkpt><trkpt lat="37.95474877294345" lon="15.174464133801756"><ele>1026.0</ele><time>2026-04-26T13:56:32.999Z</time></trkpt><trkpt lat="37.954660041502095" lon="15.174474031722532"><ele>1027.0</ele><time>2026-04-26T13:56:33.999Z</time></trkpt><trkpt lat="37.95457661316615" lon="15.174451659249458"><ele>1028.0</ele><time>2026-04-26T13:56:34.999Z</time></trkpt><trkpt lat="37.95450495654003" lon="15.174395496836107"><ele>1029.0</ele><time>2026-04-26T13:56:35.999Z</time></trkpt><trkpt lat="37.954438366674026" lon="15.174318756757948"><ele>1029.0</ele><time>2026-04-26T13:56:37Z</time></trkpt><trkpt lat="37.95439740901353" lon="15.174226729803284"><ele>1029.0</ele><time>2026-04-26T13:56:38Z</time></trkpt><trkpt lat="37.954383559922675" lon="15.17412628936152"><ele>1029.0</ele><time>2026-04-26T13:56:39Z</time></trkpt><trkpt lat="37.95436810618694" lon="15.174031423526012"><ele>1029.0</ele><time>2026-04-26T13:56:40Z</time></trkpt><trkpt lat="37.95431983778572" lon="15.17383609273224"><ele>1029.0</ele><time>2026-04-26T13:56:42Z</time></trkpt><trkpt lat="37.95425870233735" lon="15.173710644742414"><ele>1029.5</ele><time>2026-04-26T13:56:44Z</time></trkpt><trkpt lat="37.95407117729867" lon="15.173723664518597"><ele>1030.0</ele><time>2026-04-26T13:56:45Z</time></trkpt><trkpt lat="37.95398504263527" lon="15.173689571888477"><ele>1030.5</ele><time>2026-04-26T13:56:46Z</time></trkpt><trkpt lat="37.9538905049659" lon="15.173646387203675"><ele>1031.0</ele><time>2026-04-26T13:56:47Z</time></trkpt><trkpt lat="37.953795743845426" lon="15.173577608641603"><ele>1031.0</ele><time>2026-04-26T13:56:48Z</time></trkpt><trkpt lat="37.95370607175657" lon="15.173513259086562"><ele>1031.0</ele><time>2026-04-26T13:56:49Z</time></trkpt><trkpt lat="37.953613670177205" lon="15.173458373289684"><ele>1031.0</ele><time>2026-04-26T13:56:50Z</time></trkpt><trkpt lat="37.95350840584765" lon="15.173399664295907"><ele>1031.0</ele><time>2026-04-26T13:56:51Z</time></trkpt><trkpt lat="37.95340507827849" lon="15.173366865071603"><ele>1031.0</ele><time>2026-04-26T13:56:52Z</time></trkpt><trkpt lat="37.95329707814878" lon="15.173338345924329"><ele>1032.3999999999999</ele><time>2026-04-26T13:56:53Z</time></trkpt><trkpt lat="37.953198980468876" lon="15.173306332236965"><ele>1033.8</ele><time>2026-04-26T13:56:54Z</time></trkpt><trkpt lat="37.95310203583954" lon="15.173245081830105"><ele>1035.1999999999998</ele><time>2026-04-26T13:56:55Z</time></trkpt><trkpt lat="37.95302313942949" lon="15.173187020755302"><ele>1036.6</ele><time>2026-04-26T13:56:56Z</time></trkpt><trkpt lat="37.95296509610306" lon="15.173131940041952"><ele>1038.0</ele><time>2026-04-26T13:56:57Z</time></trkpt><trkpt lat="37.952905732736134" lon="15.173030548862814"><ele>1038.0</ele><time>2026-04-26T13:56:58Z</time></trkpt><trkpt lat="37.95284887806324" lon="15.172933260329007"><ele>1038.0</ele><time>2026-04-26T13:56:59Z</time></trkpt><trkpt lat="37.95277550957667" lon="15.172842105017573"><ele>1038.0</ele><time>2026-04-26T13:57:00Z</time></trkpt><trkpt lat="37.95269547502243" lon="15.172776123077346"><ele>1038.0</ele><time>2026-04-26T13:57:01Z</time></trkpt><trkpt lat="37.95263521447666" lon="15.172742631087788"><ele>1038.0</ele><time>2026-04-26T13:57:02Z</time></trkpt><trkpt lat="37.9525464417774" lon="15.172757898282761"><ele>1038.0</ele><time>2026-04-26T13:57:03Z</time></trkpt><trkpt lat="37.952475554330626" lon="15.172805075871713"><ele>1036.2</ele><time>2026-04-26T13:57:04Z</time></trkpt><trkpt lat="37.95240957053054" lon="15.172981187769002"><ele>1034.4</ele><time>2026-04-26T13:57:05Z</time></trkpt><trkpt lat="37.95234249229945" lon="15.173031287756274"><ele>1032.6000000000001</ele><time>2026-04-26T13:57:06Z</time></trkpt><trkpt lat="37.952255775937815" lon="15.173040383542515"><ele>1030.8</ele><time>2026-04-26T13:57:07Z</time></trkpt><trkpt lat="37.95216730665997" lon="15.17300803690499"><ele>1029.0</ele><time>2026-04-26T13:57:08Z</time></trkpt><trkpt lat="37.95205977313398" lon="15.172984296960513"><ele>1029.0</ele><time>2026-04-26T13:57:09Z</time></trkpt><trkpt lat="37.95197442705278" lon="15.172930953517094"><ele>1029.0</ele><time>2026-04-26T13:57:10Z</time></trkpt><trkpt lat="37.95193118132774" lon="15.17285828399024"><ele>1029.0</ele><time>2026-04-26T13:57:11Z</time></trkpt><trkpt lat="37.951842060389396" lon="15.172779782518266"><ele>1029.0</ele><time>2026-04-26T13:57:12Z</time></trkpt><trkpt lat="37.95174166100629" lon="15.172721556184857"><ele>1029.0</ele><time>2026-04-26T13:57:13Z</time></trkpt><trkpt lat="37.95163515763303" lon="15.172655487453708"><ele>1027.6000000000001</ele><time>2026-04-26T13:57:14Z</time></trkpt><trkpt lat="37.951558623671154" lon="15.172586508314891"><ele>1026.2</ele><time>2026-04-26T13:57:15Z</time></trkpt><trkpt lat="37.95148890847995" lon="15.172508382293339"><ele>1024.8000000000002</ele><time>2026-04-26T13:57:16Z</time></trkpt><trkpt lat="37.95141397022409" lon="15.172404252557238"><ele>1023.4000000000001</ele><time>2026-04-26T13:57:17Z</time></trkpt><trkpt lat="37.951344733657045" lon="15.172332360384889"><ele>1022.0</ele><time>2026-04-26T13:57:18Z</time></trkpt><trkpt lat="37.951281325754884" lon="15.172248735124377"><ele>1022.0</ele><time>2026-04-26T13:57:19Z</time></trkpt><trkpt lat="37.95124474165818" lon="15.172105142146323"><ele>1022.0</ele><time>2026-04-26T13:57:20Z</time></trkpt><trkpt lat="37.95120631792377" lon="15.171970618339579"><ele>1022.0</ele><time>2026-04-26T13:57:21Z</time></trkpt><trkpt lat="37.951206492218354" lon="15.171813949907028"><ele>1022.0</ele><time>2026-04-26T13:57:22Z</time></trkpt><trkpt lat="37.951161335683324" lon="15.17173248676132"><ele>1022.0</ele><time>2026-04-26T13:57:23Z</time></trkpt><trkpt lat="37.95108481665763" lon="15.17167635963714"><ele>1022.0000000000001</ele><time>2026-04-26T13:57:24Z</time></trkpt><trkpt lat="37.95100337949522" lon="15.171621352318152"><ele>1022.0</ele><time>2026-04-26T13:57:25Z</time></trkpt><trkpt lat="37.95094222748582" lon="15.171552878799133"><ele>1022.0</ele><time>2026-04-26T13:57:26Z</time></trkpt><trkpt lat="37.9509031789049" lon="15.171457635445966"><ele>1022.0</ele><time>2026-04-26T13:57:27Z</time></trkpt><trkpt lat="37.950866545820226" lon="15.171345033577435"><ele>1022.0000000000001</ele><time>2026-04-26T13:57:28Z</time></trkpt><trkpt lat="37.950848670447236" lon="15.171239239253357"><ele>1022.0</ele><time>2026-04-26T13:57:29Z</time></trkpt><trkpt lat="37.950855218944575" lon="15.171116833065238"><ele>1017.2</ele><time>2026-04-26T13:57:30Z</time></trkpt><trkpt lat="37.95086828661706" lon="15.170993634547111"><ele>1012.4000000000001</ele><time>2026-04-26T13:57:31Z</time></trkpt><trkpt lat="37.9508616801808" lon="15.170862698151554"><ele>1007.5999999999999</ele><time>2026-04-26T13:57:32Z</time></trkpt><trkpt lat="37.95081086690993" lon="15.1707435534141"><ele>1002.8</ele><time>2026-04-26T13:57:33Z</time></trkpt><trkpt lat="37.95075737008789" lon="15.170628220251189"><ele>998.0</ele><time>2026-04-26T13:57:34Z</time></trkpt><trkpt lat="37.95072774492597" lon="15.170514768958984"><ele>998.0000000000001</ele><time>2026-04-26T13:57:35Z</time></trkpt><trkpt lat="37.95071160901837" lon="15.17041861605093"><ele>998.0</ele><time>2026-04-26T13:57:36Z</time></trkpt><trkpt lat="37.95071537531748" lon="15.170319401165377"><ele>998.0</ele><time>2026-04-26T13:57:37Z</time></trkpt><trkpt lat="37.950735089462555" lon="15.170204112203825"><ele>998.0</ele><time>2026-04-26T13:57:38Z</time></trkpt><trkpt lat="37.95076235663982" lon="15.170083597905759"><ele>998.0000000000001</ele><time>2026-04-26T13:57:39Z</time></trkpt><trkpt lat="37.950797280210736" lon="15.169967012852167"><ele>998.0</ele><time>2026-04-26T13:57:40Z</time></trkpt><trkpt lat="37.950805075518566" lon="15.169864880696396"><ele>997.4</ele><time>2026-04-26T13:57:41Z</time></trkpt><trkpt lat="37.95078870606569" lon="15.169768776424386"><ele>996.8</ele><time>2026-04-26T13:57:42Z</time></trkpt><trkpt lat="37.95075620863358" lon="15.169656602206219"><ele>996.2</ele><time>2026-04-26T13:57:43Z</time></trkpt><trkpt lat="37.9507136884204" lon="15.169536020615174"><ele>995.6</ele><time>2026-04-26T13:57:44Z</time></trkpt><trkpt lat="37.950687884608215" lon="15.169418235453874"><ele>995.0</ele><time>2026-04-26T13:57:45Z</time></trkpt><trkpt lat="37.9506687920465" lon="15.169297899844535"><ele>995.0</ele><time>2026-04-26T13:57:46Z</time></trkpt><trkpt lat="37.950667222287535" lon="15.169166896912824"><ele>995.0</ele><time>2026-04-26T13:57:47Z</time></trkpt><trkpt lat="37.950670466920045" lon="15.169034348180784"><ele>995.0</ele><time>2026-04-26T13:57:48Z</time></trkpt><trkpt lat="37.950693086516814" lon="15.168904050465148"><ele>995.0</ele><time>2026-04-26T13:57:49Z</time></trkpt><trkpt lat="37.95071503309403" lon="15.168767716918925"><ele>995.0</ele><time>2026-04-26T13:57:50Z</time></trkpt><trkpt lat="37.950762620347945" lon="15.168647169857415"><ele>992.8333333333334</ele><time>2026-04-26T13:57:51Z</time></trkpt><trkpt lat="37.950796970022495" lon="15.168540462255509"><ele>990.6666666666667</ele><time>2026-04-26T13:57:52Z</time></trkpt><trkpt lat="37.95083212811943" lon="15.168456225344462"><ele>988.5</ele><time>2026-04-26T13:57:53Z</time></trkpt><trkpt lat="37.95088229087445" lon="15.168364045919533"><ele>986.3333333333333</ele><time>2026-04-26T13:57:54Z</time></trkpt><trkpt lat="37.950930358816095" lon="15.168283952991297"><ele>984.1666666666666</ele><time>2026-04-26T13:57:55Z</time></trkpt><trkpt lat="37.950985887367324" lon="15.168156979507174"><ele>982.0</ele><time>2026-04-26T13:57:57Z</time></trkpt><trkpt lat="37.950914593968434" lon="15.168058708086864"><ele>982.0</ele><time>2026-04-26T13:57:59Z</time></trkpt><trkpt lat="37.950847617479546" lon="15.167992011388613"><ele>982.0</ele><time>2026-04-26T13:58:00Z</time></trkpt><trkpt lat="37.950755215829574" lon="15.16793130710111"><ele>982.0</ele><time>2026-04-26T13:58:01Z</time></trkpt><trkpt lat="37.95066281537726" lon="15.167871955425614"><ele>982.0</ele><time>2026-04-26T13:58:02Z</time></trkpt><trkpt lat="37.95057902515459" lon="15.16782782928602"><ele>982.0</ele><time>2026-04-26T13:58:03Z</time></trkpt><trkpt lat="37.950503378147836" lon="15.167772798441426"><ele>981.9999999999999</ele><time>2026-04-26T13:58:04Z</time></trkpt><trkpt lat="37.95044911660847" lon="15.167691653047081"><ele>982.0</ele><time>2026-04-26T13:58:05Z</time></trkpt><trkpt lat="37.95040760767011" lon="15.167588094802596"><ele>982.0</ele><time>2026-04-26T13:58:06Z</time></trkpt><trkpt lat="37.9503800435764" lon="15.167492798765828"><ele>982.0</ele><time>2026-04-26T13:58:07Z</time></trkpt><trkpt lat="37.950375925110194" lon="15.167332351520065"><ele>981.9999999999999</ele><time>2026-04-26T13:58:09Z</time></trkpt><trkpt lat="37.95042396355353" lon="15.167280354978024"><ele>982.0</ele><time>2026-04-26T13:58:10Z</time></trkpt><trkpt lat="37.95050016439696" lon="15.167261918672242"><ele>982.9999999999999</ele><time>2026-04-26T13:58:11Z</time></trkpt><trkpt lat="37.95056737372956" lon="15.167263275715102"><ele>984.0</ele><time>2026-04-26T13:58:12Z</time></trkpt><trkpt lat="37.95057900179098" lon="15.167128455313323"><ele>985.0</ele><time>2026-04-26T13:58:13.999Z</time></trkpt><trkpt lat="37.95052809168924" lon="15.167062166359418"><ele>986.0</ele><time>2026-04-26T13:58:14.999Z</time></trkpt><trkpt lat="37.95047355450982" lon="15.166990013305444"><ele>986.9999999999999</ele><time>2026-04-26T13:58:15.999Z</time></trkpt><trkpt lat="37.95041325108432" lon="15.166957257412097"><ele>988.0</ele><time>2026-04-26T13:58:16.999Z</time></trkpt><trkpt lat="37.95034713402537" lon="15.166894623452167"><ele>987.9999999999999</ele><time>2026-04-26T13:58:17.999Z</time></trkpt><trkpt lat="37.95026394876468" lon="15.166899906747478"><ele>988.0</ele><time>2026-04-26T13:58:18.999Z</time></trkpt><trkpt lat="37.95016913283947" lon="15.1668624970017"><ele>988.0</ele><time>2026-04-26T13:58:19.999Z</time></trkpt><trkpt lat="37.950107123181034" lon="15.166812262994148"><ele>988.0</ele><time>2026-04-26T13:58:20.999Z</time></trkpt><trkpt lat="37.95002896408708" lon="15.166763458736172"><ele>987.9999999999999</ele><time>2026-04-26T13:58:21.999Z</time></trkpt><trkpt lat="37.949945807467834" lon="15.166726218817331"><ele>988.0</ele><time>2026-04-26T13:58:22.999Z</time></trkpt><trkpt lat="37.94986332871404" lon="15.166704817699507"><ele>982.5999999999999</ele><time>2026-04-26T13:58:23.999Z</time></trkpt><trkpt lat="37.94976916074505" lon="15.166655830544283"><ele>977.1999999999999</ele><time>2026-04-26T13:58:24.999Z</time></trkpt><trkpt lat="37.94968146230606" lon="15.166626536093387"><ele>971.8</ele><time>2026-04-26T13:58:25.999Z</time></trkpt><trkpt lat="37.949589148925284" lon="15.166622363238304"><ele>966.4</ele><time>2026-04-26T13:58:26.999Z</time></trkpt><trkpt lat="37.94950765613158" lon="15.16661418484601"><ele>961.0</ele><time>2026-04-26T13:58:27.999Z</time></trkpt><trkpt lat="37.94942654436569" lon="15.16658250180969"><ele>961.0</ele><time>2026-04-26T13:58:28.999Z</time></trkpt><trkpt lat="37.94934849415532" lon="15.166539938447253"><ele>960.9999999999999</ele><time>2026-04-26T13:58:29.999Z</time></trkpt><trkpt lat="37.94928750755075" lon="15.166455651262323"><ele>960.9999999999999</ele><time>2026-04-26T13:58:30.999Z</time></trkpt><trkpt lat="37.94924046960212" lon="15.166349910473285"><ele>961.0</ele><time>2026-04-26T13:58:31.999Z</time></trkpt><trkpt lat="37.9491827350233" lon="15.166263259125351"><ele>961.0</ele><time>2026-04-26T13:58:32.999Z</time></trkpt><trkpt lat="37.949104279258194" lon="15.166202006784697"><ele>957.4</ele><time>2026-04-26T13:58:33.999Z</time></trkpt><trkpt lat="37.949019062684165" lon="15.166155011621594"><ele>953.8</ele><time>2026-04-26T13:58:34.999Z</time></trkpt><trkpt lat="37.9489490661883" lon="15.16607729307648"><ele>950.1999999999999</ele><time>2026-04-26T13:58:35.999Z</time></trkpt><trkpt lat="37.948898430413074" lon="15.165970588310064"><ele>946.5999999999999</ele><time>2026-04-26T13:58:36.999Z</time></trkpt><trkpt lat="37.948852973745055" lon="15.165858065048523"><ele>943.0</ele><time>2026-04-26T13:58:37.999Z</time></trkpt><trkpt lat="37.94880331552137" lon="15.16575759972085"><ele>941.6666666666666</ele><time>2026-04-26T13:58:38.999Z</time></trkpt><trkpt lat="37.948750160086846" lon="15.165660739417225"><ele>940.3333333333333</ele><time>2026-04-26T13:58:39.999Z</time></trkpt><trkpt lat="37.94870892632348" lon="15.165557870331805"><ele>939.0</ele><time>2026-04-26T13:58:40.999Z</time></trkpt><trkpt lat="37.94869300955742" lon="15.165444161717657"><ele>937.6666666666667</ele><time>2026-04-26T13:58:41.999Z</time></trkpt><trkpt lat="37.94868578775663" lon="15.165335197304094"><ele>936.3333333333334</ele><time>2026-04-26T13:58:43.001Z</time></trkpt><trkpt lat="37.94867250471445" lon="15.16523927611513"><ele>935.0</ele><time>2026-04-26T13:58:44.001Z</time></trkpt><trkpt lat="37.94864527479983" lon="15.165151999926156"><ele>935.0000000000001</ele><time>2026-04-26T13:58:45.001Z</time></trkpt><trkpt lat="37.948658792045684" lon="15.16503194812744"><ele>935.0</ele><time>2026-04-26T13:58:47.001Z</time></trkpt><trkpt lat="37.948709687810634" lon="15.164975351890961"><ele>935.0000000000001</ele><time>2026-04-26T13:58:48.001Z</time></trkpt><trkpt lat="37.94876718358196" lon="15.164920105616826"><ele>935.0000000000001</ele><time>2026-04-26T13:58:49.001Z</time></trkpt><trkpt lat="37.94880300949416" lon="15.164848461203714"><ele>935.0</ele><time>2026-04-26T13:58:50.001Z</time></trkpt><trkpt lat="37.94879004313063" lon="15.16476507357347"><ele>935.0000000000001</ele><time>2026-04-26T13:58:51.001Z</time></trkpt><trkpt lat="37.94876699720245" lon="15.164669945829356"><ele>935.0000000000001</ele><time>2026-04-26T13:58:52.001Z</time></trkpt><trkpt lat="37.94877726536639" lon="15.164588960194136"><ele>931.8</ele><time>2026-04-26T13:58:53.001Z</time></trkpt><trkpt lat="37.948915385118966" lon="15.164530857827044"><ele>928.6</ele><time>2026-04-26T13:58:55.001Z</time></trkpt><trkpt lat="37.94900225672115" lon="15.164500728728532"><ele>925.4000000000001</ele><time>2026-04-26T13:58:56.001Z</time></trkpt><trkpt lat="37.94907880085825" lon="15.16443522987014"><ele>922.2</ele><time>2026-04-26T13:58:57.001Z</time></trkpt><trkpt lat="37.949126663413466" lon="15.164349291638478"><ele>919.0</ele><time>2026-04-26T13:58:58Z</time></trkpt><trkpt lat="37.94916598549568" lon="15.164257914928422"><ele>918.9999999999999</ele><time>2026-04-26T13:58:59Z</time></trkpt><trkpt lat="37.94919360156564" lon="15.164170196469293"><ele>919.0</ele><time>2026-04-26T13:59:00Z</time></trkpt><trkpt lat="37.94917525920174" lon="15.16403851586386"><ele>919.0</ele><time>2026-04-26T13:59:02Z</time></trkpt><trkpt lat="37.94912119676052" lon="15.16398060924122"><ele>919.0</ele><time>2026-04-26T13:59:03Z</time></trkpt><trkpt lat="37.94905562771931" lon="15.163882427753522"><ele>918.9999999999999</ele><time>2026-04-26T13:59:04Z</time></trkpt><trkpt lat="37.94901689799794" lon="15.163792201716797"><ele>919.0</ele><time>2026-04-26T13:59:05Z</time></trkpt><trkpt lat="37.94898382140896" lon="15.163680456201895"><ele>919.8333333333333</ele><time>2026-04-26T13:59:06Z</time></trkpt><trkpt lat="37.94898239078163" lon="15.163571544486974"><ele>920.6666666666666</ele><time>2026-04-26T13:59:07Z</time></trkpt><trkpt lat="37.94898457484993" lon="15.163471834075452"><ele>921.5</ele><time>2026-04-26T13:59:08Z</time></trkpt><trkpt lat="37.94895615173387" lon="15.16338966335986"><ele>922.3333333333333</ele><time>2026-04-26T13:59:09Z</time></trkpt><trkpt lat="37.94888780274669" lon="15.163329329421343"><ele>923.1666666666666</ele><time>2026-04-26T13:59:10Z</time></trkpt><trkpt lat="37.94880356416002" lon="15.163266680316736"><ele>924.0</ele><time>2026-04-26T13:59:11Z</time></trkpt><trkpt lat="37.948743992481276" lon="15.163192348473567"><ele>926.3333333333334</ele><time>2026-04-26T13:59:12Z</time></trkpt><trkpt lat="37.94870419588324" lon="15.163109253482936"><ele>928.6666666666667</ele><time>2026-04-26T13:59:13Z</time></trkpt><trkpt lat="37.9486685134256" lon="15.163016570499302"><ele>931.0</ele><time>2026-04-26T13:59:14Z</time></trkpt><trkpt lat="37.948625262996224" lon="15.162935071600648"><ele>933.3333333333334</ele><time>2026-04-26T13:59:15Z</time></trkpt><trkpt lat="37.94858893992333" lon="15.162835405878557"><ele>935.6666666666667</ele><time>2026-04-26T13:59:16Z</time></trkpt><trkpt lat="37.948552110984345" lon="15.162738689904394"><ele>938.0</ele><time>2026-04-26T13:59:17Z</time></trkpt><trkpt lat="37.948498587031146" lon="15.162670059589095"><ele>938.0</ele><time>2026-04-26T13:59:18Z</time></trkpt><trkpt lat="37.94842625573773" lon="15.16260811772702"><ele>938.0</ele><time>2026-04-26T13:59:19Z</time></trkpt><trkpt lat="37.94835374555913" lon="15.162555300244543"><ele>938.0</ele><time>2026-04-26T13:59:20Z</time></trkpt><trkpt lat="37.948302569932075" lon="15.162501287131434"><ele>938.0</ele><time>2026-04-26T13:59:21Z</time></trkpt><trkpt lat="37.94822452245059" lon="15.162419092074844"><ele>938.0</ele><time>2026-04-26T13:59:23Z</time></trkpt><trkpt lat="37.948170065795104" lon="15.162293448247315"><ele>934.8333333333334</ele><time>2026-04-26T13:59:25Z</time></trkpt><trkpt lat="37.94813187286303" lon="15.162193582406383"><ele>931.6666666666667</ele><time>2026-04-26T13:59:26Z</time></trkpt><trkpt lat="37.948094321441566" lon="15.162101312715174"><ele>928.5</ele><time>2026-04-26T13:59:27Z</time></trkpt><trkpt lat="37.9480585142256" lon="15.162019787740139"><ele>925.3333333333333</ele><time>2026-04-26T13:59:28Z</time></trkpt><trkpt lat="37.94800325300981" lon="15.161959018928286"><ele>922.1666666666666</ele><time>2026-04-26T13:59:29Z</time></trkpt><trkpt lat="37.9479332478217" lon="15.161941443356367"><ele>919.0</ele><time>2026-04-26T13:59:30Z</time></trkpt><trkpt lat="37.94786717908518" lon="15.161927978277916"><ele>918.9999999999999</ele><time>2026-04-26T13:59:31Z</time></trkpt><trkpt lat="37.947806987689965" lon="15.161860828490905"><ele>919.0</ele><time>2026-04-26T13:59:32Z</time></trkpt><trkpt lat="37.94778147438509" lon="15.16178734623942"><ele>919.0</ele><time>2026-04-26T13:59:33Z</time></trkpt><trkpt lat="37.94776012955829" lon="15.16169783974761"><ele>919.0</ele><time>2026-04-26T13:59:34Z</time></trkpt><trkpt lat="37.94775074086166" lon="15.16160613053311"><ele>918.9999999999999</ele><time>2026-04-26T13:59:35Z</time></trkpt><trkpt lat="37.947697208018596" lon="15.161461348464933"><ele>919.0</ele><time>2026-04-26T13:59:37Z</time></trkpt><trkpt lat="37.947660929640996" lon="15.161306240139401"><ele>917.4999999999999</ele><time>2026-04-26T13:59:39Z</time></trkpt><trkpt lat="37.94765232965074" lon="15.16121416108483"><ele>916.0</ele><time>2026-04-26T13:59:40Z</time></trkpt><trkpt lat="37.94763083851328" lon="15.161131050654568"><ele>914.5</ele><time>2026-04-26T13:59:41Z</time></trkpt><trkpt lat="37.94759785440693" lon="15.16104953652177"><ele>913.0</ele><time>2026-04-26T13:59:42Z</time></trkpt><trkpt lat="37.94756610534047" lon="15.160966905618256"><ele>911.4999999999999</ele><time>2026-04-26T13:59:43Z</time></trkpt><trkpt lat="37.94752172362086" lon="15.160845223666916"><ele>910.0</ele><time>2026-04-26T13:59:45Z</time></trkpt><trkpt lat="37.94741906649684" lon="15.160852509261804"><ele>904.6</ele><time>2026-04-26T13:59:47Z</time></trkpt><trkpt lat="37.94738441160261" lon="15.161005569721844"><ele>899.2</ele><time>2026-04-26T13:59:49Z</time></trkpt><trkpt lat="37.94740011818663" lon="15.161104958535716"><ele>893.8</ele><time>2026-04-26T13:59:50Z</time></trkpt><trkpt lat="37.947431818967296" lon="15.161212749464173"><ele>888.4</ele><time>2026-04-26T13:59:51Z</time></trkpt><trkpt lat="37.947460201510864" lon="15.161320835741671"><ele>883.0</ele><time>2026-04-26T13:59:52Z</time></trkpt><trkpt lat="37.94748179688149" lon="15.161422260425237"><ele>882.9999999999999</ele><time>2026-04-26T13:59:53Z</time></trkpt><trkpt lat="37.94751132126095" lon="15.161497510763938"><ele>883.0</ele><time>2026-04-26T13:59:54Z</time></trkpt><trkpt lat="37.947554165085705" lon="15.16157598702533"><ele>883.0</ele><time>2026-04-26T13:59:55Z</time></trkpt><trkpt lat="37.947575126551214" lon="15.161679215599836"><ele>883.0</ele><time>2026-04-26T13:59:56Z</time></trkpt><trkpt lat="37.94756658744234" lon="15.161798292475593"><ele>882.9999999999999</ele><time>2026-04-26T13:59:57Z</time></trkpt><trkpt lat="37.9475417229918" lon="15.161893696696886"><ele>883.0</ele><time>2026-04-26T13:59:58Z</time></trkpt><trkpt lat="37.947523362542384" lon="15.161987539140807"><ele>883.1666666666666</ele><time>2026-04-26T13:59:59Z</time></trkpt><trkpt lat="37.947510009040236" lon="15.162075335572691"><ele>883.3333333333333</ele><time>2026-04-26T14:00:00Z</time></trkpt><trkpt lat="37.947522996574136" lon="15.162167536287026"><ele>883.5</ele><time>2026-04-26T14:00:01Z</time></trkpt><trkpt lat="37.94756763710691" lon="15.162236010677695"><ele>883.6666666666667</ele><time>2026-04-26T14:00:02Z</time></trkpt><trkpt lat="37.94763976519393" lon="15.162301639488025"><ele>883.8333333333334</ele><time>2026-04-26T14:00:03Z</time></trkpt><trkpt lat="37.94770659878765" lon="15.162369997640877"><ele>884.0</ele><time>2026-04-26T14:00:04Z</time></trkpt><trkpt lat="37.94773286117629" lon="15.162457790854823"><ele>888.1666666666667</ele><time>2026-04-26T14:00:05Z</time></trkpt><trkpt lat="37.94772803623592" lon="15.162553366247415"><ele>892.3333333333334</ele><time>2026-04-26T14:00:06Z</time></trkpt><trkpt lat="37.947716015162406" lon="15.162661869292675"><ele>896.5</ele><time>2026-04-26T14:00:07Z</time></trkpt><trkpt lat="37.94772069964528" lon="15.162751534839899"><ele>900.6666666666667</ele><time>2026-04-26T14:00:08Z</time></trkpt><trkpt lat="37.94770839461565" lon="15.162837380528764"><ele>904.8333333333334</ele><time>2026-04-26T14:00:09Z</time></trkpt><trkpt lat="37.94767977305301" lon="15.162917455917727"><ele>909.0</ele><time>2026-04-26T14:00:10Z</time></trkpt><trkpt lat="37.94761134928992" lon="15.16298080369977"><ele>909.0</ele><time>2026-04-26T14:00:11Z</time></trkpt><trkpt lat="37.947544268758755" lon="15.163024386595216"><ele>909.0</ele><time>2026-04-26T14:00:12Z</time></trkpt><trkpt lat="37.94750331014943" lon="15.163094005753774"><ele>909.0</ele><time>2026-04-26T14:00:13Z</time></trkpt><trkpt lat="37.94748336719532" lon="15.163189945073036"><ele>909.0</ele><time>2026-04-26T14:00:14Z</time></trkpt><trkpt lat="37.947487350189505" lon="15.163273573817825"><ele>909.0</ele><time>2026-04-26T14:00:15Z</time></trkpt><trkpt lat="37.94750631818318" lon="15.163352751436147"><ele>909.0</ele><time>2026-04-26T14:00:16Z</time></trkpt><trkpt lat="37.94750359799437" lon="15.163471033236222"><ele>909.0</ele><time>2026-04-26T14:00:18Z</time></trkpt><trkpt lat="37.94743220157262" lon="15.163515771858417"><ele>902.6</ele><time>2026-04-26T14:00:20Z</time></trkpt><trkpt lat="37.9473699870617" lon="15.16348522606766"><ele>896.2</ele><time>2026-04-26T14:00:24Z</time></trkpt><trkpt lat="37.947312326207964" lon="15.163395030921938"><ele>889.8000000000001</ele><time>2026-04-26T14:00:26Z</time></trkpt><trkpt lat="37.94731682496105" lon="15.163236028400883"><ele>883.4000000000001</ele><time>2026-04-26T14:00:27.999Z</time></trkpt><trkpt lat="37.94732267755263" lon="15.163132978947138"><ele>877.0</ele><time>2026-04-26T14:00:28.999Z</time></trkpt><trkpt lat="37.94733201976399" lon="15.16301866524499"><ele>876.9999999999999</ele><time>2026-04-26T14:00:29.999Z</time></trkpt><trkpt lat="37.94736368339518" lon="15.162916544078493"><ele>877.0</ele><time>2026-04-26T14:00:30.999Z</time></trkpt><trkpt lat="37.947391532710014" lon="15.162816683155699"><ele>877.0</ele><time>2026-04-26T14:00:31.999Z</time></trkpt><trkpt lat="37.94739437537425" lon="15.162732624770554"><ele>877.0</ele><time>2026-04-26T14:00:32.999Z</time></trkpt><trkpt lat="37.94737116392249" lon="15.16264619426732"><ele>876.9999999999999</ele><time>2026-04-26T14:00:33.999Z</time></trkpt><trkpt lat="37.947319261623576" lon="15.162581742265438"><ele>877.0</ele><time>2026-04-26T14:00:34.999Z</time></trkpt><trkpt lat="37.94725185369656" lon="15.162530542081427"><ele>876.9999999999999</ele><time>2026-04-26T14:00:35.999Z</time></trkpt><trkpt lat="37.94719152252082" lon="15.162477552629756"><ele>877.0</ele><time>2026-04-26T14:00:36.999Z</time></trkpt><trkpt lat="37.94714500181135" lon="15.162400382075848"><ele>877.0</ele><time>2026-04-26T14:00:37.999Z</time></trkpt><trkpt lat="37.947118998080285" lon="15.162299048346735"><ele>877.0</ele><time>2026-04-26T14:00:38.999Z</time></trkpt><trkpt lat="37.94709386989458" lon="15.162179064829855"><ele>876.9999999999999</ele><time>2026-04-26T14:00:39.999Z</time></trkpt><trkpt lat="37.94707906196005" lon="15.162084386563965"><ele>877.0</ele><time>2026-04-26T14:00:40.999Z</time></trkpt><trkpt lat="37.947086662041265" lon="15.161988312988688"><ele>877.9999999999999</ele><time>2026-04-26T14:00:41.999Z</time></trkpt><trkpt lat="37.947089924326924" lon="15.161907552760043"><ele>879.0</ele><time>2026-04-26T14:00:42.999Z</time></trkpt><trkpt lat="37.947047485369" lon="15.16181164739883"><ele>880.0</ele><time>2026-04-26T14:00:43.999Z</time></trkpt><trkpt lat="37.946970062216046" lon="15.16173753833906"><ele>881.0</ele><time>2026-04-26T14:00:44.999Z</time></trkpt><trkpt lat="37.94690803479611" lon="15.16165576158683"><ele>881.9999999999999</ele><time>2026-04-26T14:00:45.999Z</time></trkpt><trkpt lat="37.94684223384322" lon="15.161576016579623"><ele>883.0</ele><time>2026-04-26T14:00:46.999Z</time></trkpt><trkpt lat="37.946794299247976" lon="15.161467796437565"><ele>882.9999999999999</ele><time>2026-04-26T14:00:48.001Z</time></trkpt><trkpt lat="37.946739799127634" lon="15.161360813142913"><ele>883.0</ele><time>2026-04-26T14:00:49.001Z</time></trkpt><trkpt lat="37.94668174851716" lon="15.161255104855009"><ele>883.0</ele><time>2026-04-26T14:00:50.001Z</time></trkpt><trkpt lat="37.946638812189065" lon="15.161170078827109"><ele>883.0</ele><time>2026-04-26T14:00:51.001Z</time></trkpt><trkpt lat="37.94665083009688" lon="15.161075636615042"><ele>882.9999999999999</ele><time>2026-04-26T14:00:52.001Z</time></trkpt><trkpt lat="37.9466780984715" lon="15.160997909086062"><ele>883.0</ele><time>2026-04-26T14:00:53.001Z</time></trkpt><trkpt lat="37.946674606551724" lon="15.160870510679825"><ele>878.9999999999999</ele><time>2026-04-26T14:00:55.001Z</time></trkpt><trkpt lat="37.946604725687465" lon="15.160827767076851"><ele>875.0</ele><time>2026-04-26T14:00:56.001Z</time></trkpt><trkpt lat="37.946513509067564" lon="15.1608225281614"><ele>871.0</ele><time>2026-04-26T14:00:57.001Z</time></trkpt><trkpt lat="37.9464340249908" lon="15.160840220195315"><ele>867.0</ele><time>2026-04-26T14:00:58.001Z</time></trkpt><trkpt lat="37.94634889103914" lon="15.160869197190939"><ele>862.9999999999999</ele><time>2026-04-26T14:00:59.001Z</time></trkpt><trkpt lat="37.94627985690611" lon="15.160842890064798"><ele>859.0</ele><time>2026-04-26T14:01:00.001Z</time></trkpt><trkpt lat="37.946222669848446" lon="15.160770493679053"><ele>858.6666666666666</ele><time>2026-04-26T14:01:01.001Z</time></trkpt><trkpt lat="37.946172785954" lon="15.160670677945594"><ele>858.3333333333333</ele><time>2026-04-26T14:01:02.001Z</time></trkpt><trkpt lat="37.94613727695837" lon="15.16057650595939"><ele>858.0</ele><time>2026-04-26T14:01:03.001Z</time></trkpt><trkpt lat="37.946065290771166" lon="15.160500710778342"><ele>857.6666666666667</ele><time>2026-04-26T14:01:04.001Z</time></trkpt><trkpt lat="37.94598521921008" lon="15.160459983284511"><ele>857.3333333333334</ele><time>2026-04-26T14:01:05.001Z</time></trkpt><trkpt lat="37.94591963057015" lon="15.16038845697773"><ele>857.0</ele><time>2026-04-26T14:01:06.001Z</time></trkpt><trkpt lat="37.945890355307306" lon="15.160267884597827"><ele>853.6</ele><time>2026-04-26T14:01:07.001Z</time></trkpt><trkpt lat="37.94585407817174" lon="15.16013824662347"><ele>850.2</ele><time>2026-04-26T14:01:08Z</time></trkpt><trkpt lat="37.94581709770912" lon="15.160047473621086"><ele>846.8</ele><time>2026-04-26T14:01:09Z</time></trkpt><trkpt lat="37.94576723839468" lon="15.15995233993185"><ele>843.4</ele><time>2026-04-26T14:01:10Z</time></trkpt><trkpt lat="37.9457128704719" lon="15.159865210463693"><ele>840.0</ele><time>2026-04-26T14:01:11Z</time></trkpt><trkpt lat="37.9456462614518" lon="15.159789487451947"><ele>840.0</ele><time>2026-04-26T14:01:12Z</time></trkpt><trkpt lat="37.94557536828273" lon="15.159705669075802"><ele>840.0</ele><time>2026-04-26T14:01:13Z</time></trkpt><trkpt lat="37.94551329874445" lon="15.159632097334066"><ele>840.0</ele><time>2026-04-26T14:01:14Z</time></trkpt><trkpt lat="37.94545011784431" lon="15.159589327006476"><ele>840.0</ele><time>2026-04-26T14:01:15Z</time></trkpt><trkpt lat="37.945368870131055" lon="15.15953006002259"><ele>840.0</ele><time>2026-04-26T14:01:16Z</time></trkpt><trkpt lat="37.94529396669507" lon="15.159459530296996"><ele>840.0</ele><time>2026-04-26T14:01:17Z</time></trkpt><trkpt lat="37.94521802043971" lon="15.159390651091963"><ele>840.0</ele><time>2026-04-26T14:01:18Z</time></trkpt><trkpt lat="37.94513395175458" lon="15.159341573525799"><ele>840.0</ele><time>2026-04-26T14:01:19Z</time></trkpt><trkpt lat="37.94505760588859" lon="15.159318308260433"><ele>840.0</ele><time>2026-04-26T14:01:20Z</time></trkpt><trkpt lat="37.94497145621717" lon="15.15929674070191"><ele>840.0</ele><time>2026-04-26T14:01:21Z</time></trkpt><trkpt lat="37.94490867052702" lon="15.15924450297811"><ele>840.0</ele><time>2026-04-26T14:01:22Z</time></trkpt><trkpt lat="37.944863258888624" lon="15.15914407424001"><ele>840.0</ele><time>2026-04-26T14:01:23Z</time></trkpt><trkpt lat="37.94485642330812" lon="15.159034048372202"><ele>837.6</ele><time>2026-04-26T14:01:24Z</time></trkpt><trkpt lat="37.944852031091216" lon="15.158927949342065"><ele>835.2</ele><time>2026-04-26T14:01:25Z</time></trkpt><trkpt lat="37.94480448632149" lon="15.158830804744607"><ele>832.8</ele><time>2026-04-26T14:01:26Z</time></trkpt><trkpt lat="37.944727769318156" lon="15.158770224736697"><ele>830.4</ele><time>2026-04-26T14:01:27Z</time></trkpt><trkpt lat="37.94465387510825" lon="15.158707035066763"><ele>828.0</ele><time>2026-04-26T14:01:28Z</time></trkpt><trkpt lat="37.944569212913024" lon="15.158631767597788"><ele>828.0</ele><time>2026-04-26T14:01:29Z</time></trkpt><trkpt lat="37.94450653080938" lon="15.158563130835292"><ele>828.0</ele><time>2026-04-26T14:01:30Z</time></trkpt><trkpt lat="37.9444395556892" lon="15.158496897847584"><ele>828.0</ele><time>2026-04-26T14:01:31Z</time></trkpt><trkpt lat="37.944364061187514" lon="15.158421459200083"><ele>828.0</ele><time>2026-04-26T14:01:32Z</time></trkpt><trkpt lat="37.944300033227776" lon="15.15832846643825"><ele>828.0</ele><time>2026-04-26T14:01:33Z</time></trkpt><trkpt lat="37.94426762172322" lon="15.158230809575908"><ele>828.0</ele><time>2026-04-26T14:01:34Z</time></trkpt><trkpt lat="37.944259641306225" lon="15.158121236347233"><ele>824.5</ele><time>2026-04-26T14:01:35Z</time></trkpt><trkpt lat="37.94426243094375" lon="15.158025025574107"><ele>821.0</ele><time>2026-04-26T14:01:36Z</time></trkpt><trkpt lat="37.94421161775018" lon="15.157925250827876"><ele>817.5</ele><time>2026-04-26T14:01:38Z</time></trkpt><trkpt lat="37.94412508980603" lon="15.157878937672237"><ele>814.0</ele><time>2026-04-26T14:01:39Z</time></trkpt><trkpt lat="37.944044082698674" lon="15.15785378191703"><ele>810.5</ele><time>2026-04-26T14:01:40Z</time></trkpt><trkpt lat="37.943978098453" lon="15.157822338425897"><ele>807.0</ele><time>2026-04-26T14:01:41Z</time></trkpt><trkpt lat="37.94391590657268" lon="15.157774149099856"><ele>806.6666666666666</ele><time>2026-04-26T14:01:42Z</time></trkpt><trkpt lat="37.94387847480402" lon="15.157695905306339"><ele>806.3333333333333</ele><time>2026-04-26T14:01:43Z</time></trkpt><trkpt lat="37.943867490924724" lon="15.157600892714509"><ele>806.0</ele><time>2026-04-26T14:01:44Z</time></trkpt><trkpt lat="37.94388329011091" lon="15.157511339058608"><ele>805.6666666666666</ele><time>2026-04-26T14:01:45Z</time></trkpt><trkpt lat="37.943854147566405" lon="15.157399930575368"><ele>805.3333333333333</ele><time>2026-04-26T14:01:47Z</time></trkpt><trkpt lat="37.94375889185462" lon="15.157445629787949"><ele>805.0</ele><time>2026-04-26T14:01:49Z</time></trkpt><trkpt lat="37.9437812193372" lon="15.157605899357124"><ele>805.0</ele><time>2026-04-26T14:01:51Z</time></trkpt><trkpt lat="37.94380904248437" lon="15.157709688655263"><ele>805.0</ele><time>2026-04-26T14:01:52Z</time></trkpt><trkpt lat="37.94382541500163" lon="15.15781101579019"><ele>805.0</ele><time>2026-04-26T14:01:53Z</time></trkpt><trkpt lat="37.94383414429083" lon="15.157892257070046"><ele>805.0</ele><time>2026-04-26T14:01:54Z</time></trkpt><trkpt lat="37.943941222299635" lon="15.157996075867935"><ele>805.0</ele><time>2026-04-26T14:01:56Z</time></trkpt><trkpt lat="37.94401591080317" lon="15.15809492633589"><ele>804.9999999999999</ele><time>2026-04-26T14:01:58Z</time></trkpt><trkpt lat="37.94400044146891" lon="15.158172552062924"><ele>805.0</ele><time>2026-04-26T14:01:59Z</time></trkpt><trkpt lat="37.9439718756244" lon="15.158259356147106"><ele>805.0</ele><time>2026-04-26T14:02:00Z</time></trkpt><trkpt lat="37.943963119286295" lon="15.158353791479728"><ele>805.0</ele><time>2026-04-26T14:02:01Z</time></trkpt><trkpt lat="37.943990058854354" lon="15.158454813151781"><ele>804.9999999999999</ele><time>2026-04-26T14:02:02Z</time></trkpt><trkpt lat="37.944032743447394" lon="15.158527601319546"><ele>805.0</ele><time>2026-04-26T14:02:03Z</time></trkpt><trkpt lat="37.94405642343897" lon="15.158628586166463"><ele>804.4</ele><time>2026-04-26T14:02:05Z</time></trkpt><trkpt lat="37.94398210375578" lon="15.15864038940062"><ele>803.8</ele><time>2026-04-26T14:02:07Z</time></trkpt><trkpt lat="37.94389908396889" lon="15.158507188458358"><ele>803.2</ele><time>2026-04-26T14:02:09Z</time></trkpt><trkpt lat="37.94385497606261" lon="15.158408123198793"><ele>802.6</ele><time>2026-04-26T14:02:10Z</time></trkpt><trkpt lat="37.94382204571595" lon="15.158323650675834"><ele>802.0</ele><time>2026-04-26T14:02:11Z</time></trkpt><trkpt lat="37.94379482307135" lon="15.15822466061675"><ele>802.4999999999999</ele><time>2026-04-26T14:02:12Z</time></trkpt><trkpt lat="37.943742115090224" lon="15.158155920252655"><ele>803.0</ele><time>2026-04-26T14:02:13Z</time></trkpt><trkpt lat="37.94366233172866" lon="15.15811296667371"><ele>803.5</ele><time>2026-04-26T14:02:14Z</time></trkpt><trkpt lat="37.94358175995948" lon="15.158100091111406"><ele>804.0</ele><time>2026-04-26T14:02:15Z</time></trkpt><trkpt lat="37.9435012810309" lon="15.158069025046702"><ele>804.4999999999999</ele><time>2026-04-26T14:02:16Z</time></trkpt><trkpt lat="37.943442248561794" lon="15.157995697177668"><ele>805.0</ele><time>2026-04-26T14:02:17Z</time></trkpt><trkpt lat="37.94340253215928" lon="15.157895439985749"><ele>800.6666666666666</ele><time>2026-04-26T14:02:18Z</time></trkpt><trkpt lat="37.94334501199283" lon="15.157807170902746"><ele>796.3333333333333</ele><time>2026-04-26T14:02:19Z</time></trkpt><trkpt lat="37.943275278615985" lon="15.157769119322348"><ele>792.0</ele><time>2026-04-26T14:02:20Z</time></trkpt><trkpt lat="37.943201552525615" lon="15.157701763002418"><ele>787.6666666666667</ele><time>2026-04-26T14:02:21Z</time></trkpt><trkpt lat="37.9431679933177" lon="15.157595501159163"><ele>783.3333333333334</ele><time>2026-04-26T14:02:22Z</time></trkpt><trkpt lat="37.943155693017744" lon="15.157474889248272"><ele>779.0</ele><time>2026-04-26T14:02:23Z</time></trkpt><trkpt lat="37.94315528724677" lon="15.157352162662496"><ele>778.4000000000001</ele><time>2026-04-26T14:02:24Z</time></trkpt><trkpt lat="37.943155213673606" lon="15.157244256766575"><ele>777.8</ele><time>2026-04-26T14:02:25Z</time></trkpt><trkpt lat="37.943165248017706" lon="15.157113217837159"><ele>777.2</ele><time>2026-04-26T14:02:26Z</time></trkpt><trkpt lat="37.94316461524729" lon="15.157030302908884"><ele>776.5999999999999</ele><time>2026-04-26T14:02:27Z</time></trkpt><trkpt lat="37.943072101568724" lon="15.15691823196263"><ele>776.0</ele><time>2026-04-26T14:02:29Z</time></trkpt><trkpt lat="37.94299469536791" lon="15.156887923500118"><ele>776.0000000000001</ele><time>2026-04-26T14:02:30Z</time></trkpt><trkpt lat="37.94292582497021" lon="15.156831048173705"><ele>776.0</ele><time>2026-04-26T14:02:31Z</time></trkpt><trkpt lat="37.94286523895474" lon="15.156746386622878"><ele>776.0</ele><time>2026-04-26T14:02:32Z</time></trkpt><trkpt lat="37.94282347956044" lon="15.156657719189472"><ele>776.0</ele><time>2026-04-26T14:02:33Z</time></trkpt><trkpt lat="37.94278679881206" lon="15.15656123882996"><ele>776.0000000000001</ele><time>2026-04-26T14:02:34Z</time></trkpt><trkpt lat="37.94272698787034" lon="15.15647138928485"><ele>776.0</ele><time>2026-04-26T14:02:35Z</time></trkpt><trkpt lat="37.94265063582938" lon="15.15642358303917"><ele>771.1999999999999</ele><time>2026-04-26T14:02:36Z</time></trkpt><trkpt lat="37.94254800801294" lon="15.156388477469713"><ele>766.4</ele><time>2026-04-26T14:02:37Z</time></trkpt><trkpt lat="37.94246734550322" lon="15.156355317661582"><ele>761.6</ele><time>2026-04-26T14:02:38Z</time></trkpt><trkpt lat="37.942381070811294" lon="15.15633499155247"><ele>756.8</ele><time>2026-04-26T14:02:39Z</time></trkpt><trkpt lat="37.9422765568305" lon="15.156300408652251"><ele>752.0</ele><time>2026-04-26T14:02:40Z</time></trkpt><trkpt lat="37.94218215418289" lon="15.156268888018818"><ele>752.0</ele><time>2026-04-26T14:02:41Z</time></trkpt><trkpt lat="37.94209410844152" lon="15.15622166888465"><ele>752.0</ele><time>2026-04-26T14:02:41.999Z</time></trkpt><trkpt lat="37.942000201816526" lon="15.156158621590496"><ele>752.0</ele><time>2026-04-26T14:02:42.999Z</time></trkpt><trkpt lat="37.94191472161456" lon="15.156086478724394"><ele>752.0</ele><time>2026-04-26T14:02:43.999Z</time></trkpt><trkpt lat="37.941832279221344" lon="15.156014258878745"><ele>752.0</ele><time>2026-04-26T14:02:44.999Z</time></trkpt><trkpt lat="37.94173934670527" lon="15.155950332282352"><ele>749.6</ele><time>2026-04-26T14:02:45.999Z</time></trkpt><trkpt lat="37.941656330942266" lon="15.15587871973272"><ele>747.2</ele><time>2026-04-26T14:02:46.999Z</time></trkpt><trkpt lat="37.94160014589211" lon="15.155789857110653"><ele>744.8</ele><time>2026-04-26T14:02:47.999Z</time></trkpt><trkpt lat="37.941562677216794" lon="15.155695126693908"><ele>742.4</ele><time>2026-04-26T14:02:48.999Z</time></trkpt><trkpt lat="37.94150512195029" lon="15.155594638350594"><ele>740.0</ele><time>2026-04-26T14:02:49.999Z</time></trkpt><trkpt lat="37.94142332477896" lon="15.15552538919097"><ele>736.6</ele><time>2026-04-26T14:02:50.999Z</time></trkpt><trkpt lat="37.9413228727917" lon="15.15546060016318"><ele>733.2</ele><time>2026-04-26T14:02:51.999Z</time></trkpt><trkpt lat="37.94122228187344" lon="15.155384573569448"><ele>729.8</ele><time>2026-04-26T14:02:52.999Z</time></trkpt><trkpt lat="37.94112228421435" lon="15.155319530080169"><ele>726.4</ele><time>2026-04-26T14:02:54.001Z</time></trkpt><trkpt lat="37.941025841445054" lon="15.155270168874463"><ele>723.0</ele><time>2026-04-26T14:02:55.001Z</time></trkpt><trkpt lat="37.94093941961717" lon="15.155251887240043"><ele>723.0</ele><time>2026-04-26T14:02:56.001Z</time></trkpt><trkpt lat="37.94087074192096" lon="15.155244408316763"><ele>723.0</ele><time>2026-04-26T14:02:57.001Z</time></trkpt><trkpt lat="37.94079495986724" lon="15.15522836279089"><ele>723.0</ele><time>2026-04-26T14:02:58.001Z</time></trkpt><trkpt lat="37.9407370149071" lon="15.155133195725684"><ele>723.0</ele><time>2026-04-26T14:03:00.001Z</time></trkpt><trkpt lat="37.94074461617219" lon="15.154985629727484"><ele>723.0</ele><time>2026-04-26T14:03:02.001Z</time></trkpt><trkpt lat="37.940788362816626" lon="15.154927667663184"><ele>723.0</ele><time>2026-04-26T14:03:03.001Z</time></trkpt><trkpt lat="37.94091558416551" lon="15.154897749561139"><ele>723.0</ele><time>2026-04-26T14:03:05.001Z</time></trkpt><trkpt lat="37.941003679394385" lon="15.154899196604754"><ele>723.0</ele><time>2026-04-26T14:03:06.001Z</time></trkpt><trkpt lat="37.94107753941185" lon="15.154897629303212"><ele>723.0</ele><time>2026-04-26T14:03:07.001Z</time></trkpt><trkpt lat="37.941153696072654" lon="15.154908556740905"><ele>723.0</ele><time>2026-04-26T14:03:08.001Z</time></trkpt><trkpt lat="37.94123896640578" lon="15.154947376721523"><ele>723.0</ele><time>2026-04-26T14:03:09.001Z</time></trkpt><trkpt lat="37.941326035914415" lon="15.154990821352436"><ele>723.0</ele><time>2026-04-26T14:03:10.001Z</time></trkpt><trkpt lat="37.941408336990094" lon="15.155010502512138"><ele>723.0</ele><time>2026-04-26T14:03:11.001Z</time></trkpt><trkpt lat="37.94148094130256" lon="15.155008159602799"><ele>723.0</ele><time>2026-04-26T14:03:12.001Z</time></trkpt><trkpt lat="37.94156137941756" lon="15.155010551411337"><ele>723.0</ele><time>2026-04-26T14:03:13.001Z</time></trkpt><trkpt lat="37.941629730049605" lon="15.15502511320134"><ele>723.0</ele><time>2026-04-26T14:03:14.001Z</time></trkpt><trkpt lat="37.941685626686585" lon="15.154976831290826"><ele>723.0</ele><time>2026-04-26T14:03:16Z</time></trkpt><trkpt lat="37.941600438417495" lon="15.154882540747284"><ele>723.0</ele><time>2026-04-26T14:03:18Z</time></trkpt><trkpt lat="37.9415114348724" lon="15.154864478917567"><ele>717.5999999999999</ele><time>2026-04-26T14:03:19Z</time></trkpt><trkpt lat="37.94143693679298" lon="15.154832032157703"><ele>712.1999999999999</ele><time>2026-04-26T14:03:19.999Z</time></trkpt><trkpt lat="37.94131030227674" lon="15.154689872762162"><ele>706.8</ele><time>2026-04-26T14:03:21.999Z</time></trkpt><trkpt lat="37.94122365509642" lon="15.15465543504994"><ele>701.4</ele><time>2026-04-26T14:03:22.999Z</time></trkpt><trkpt lat="37.94113816547655" lon="15.154645351873581"><ele>696.0</ele><time>2026-04-26T14:03:23.999Z</time></trkpt><trkpt lat="37.94105582257918" lon="15.154609699516984"><ele>696.0</ele><time>2026-04-26T14:03:24.999Z</time></trkpt><trkpt lat="37.94099601520697" lon="15.15452250672562"><ele>696.0</ele><time>2026-04-26T14:03:25.999Z</time></trkpt><trkpt lat="37.94093806071793" lon="15.154444333397237"><ele>696.0</ele><time>2026-04-26T14:03:26.999Z</time></trkpt><trkpt lat="37.94086748521863" lon="15.154391430960851"><ele>696.0</ele><time>2026-04-26T14:03:27.999Z</time></trkpt><trkpt lat="37.94079340511428" lon="15.154384530368892"><ele>696.0</ele><time>2026-04-26T14:03:28.999Z</time></trkpt><trkpt lat="37.94072742468925" lon="15.154401292239742"><ele>696.0</ele><time>2026-04-26T14:03:29.999Z</time></trkpt><trkpt lat="37.940709526223905" lon="15.154315971018523"><ele>696.0</ele><time>2026-04-26T14:03:32.999Z</time></trkpt><trkpt lat="37.94082850988537" lon="15.154287098220879"><ele>696.0</ele><time>2026-04-26T14:03:34.999Z</time></trkpt><trkpt lat="37.940900596712005" lon="15.154299166984067"><ele>696.0</ele><time>2026-04-26T14:03:35.999Z</time></trkpt><trkpt lat="37.94097743877344" lon="15.154298021274831"><ele>696.0</ele><time>2026-04-26T14:03:36.999Z</time></trkpt><trkpt lat="37.94104951514756" lon="15.15432747375055"><ele>696.0</ele><time>2026-04-26T14:03:37.999Z</time></trkpt><trkpt lat="37.94111259189929" lon="15.154386075236054"><ele>696.0</ele><time>2026-04-26T14:03:38.999Z</time></trkpt><trkpt lat="37.9411793499716" lon="15.154432944419685"><ele>696.0</ele><time>2026-04-26T14:03:39.999Z</time></trkpt><trkpt lat="37.94125794885828" lon="15.154442940113272"><ele>696.0</ele><time>2026-04-26T14:03:40.999Z</time></trkpt><trkpt lat="37.941341790261596" lon="15.154417553000405"><ele>696.0</ele><time>2026-04-26T14:03:41.999Z</time></trkpt><trkpt lat="37.94142364421366" lon="15.15436080773284"><ele>696.0</ele><time>2026-04-26T14:03:42.999Z</time></trkpt><trkpt lat="37.94150827045253" lon="15.154307745286422"><ele>696.0</ele><time>2026-04-26T14:03:43.999Z</time></trkpt><trkpt lat="37.94157914988642" lon="15.154294432928248"><ele>696.0</ele><time>2026-04-26T14:03:44.999Z</time></trkpt><trkpt lat="37.941644295734356" lon="15.154275358457584"><ele>696.0</ele><time>2026-04-26T14:03:45.999Z</time></trkpt><trkpt lat="37.94169394534048" lon="15.15412845732763"><ele>696.0</ele><time>2026-04-26T14:03:47.999Z</time></trkpt><trkpt lat="37.94168677769508" lon="15.154040316810109"><ele>696.0</ele><time>2026-04-26T14:03:48.999Z</time></trkpt><trkpt lat="37.94175444993342" lon="15.153997589933276"><ele>696.0</ele><time>2026-04-26T14:03:50.999Z</time></trkpt><trkpt lat="37.94181484008141" lon="15.154033196103528"><ele>696.0</ele><time>2026-04-26T14:03:51.999Z</time></trkpt><trkpt lat="37.94187878610938" lon="15.154085092973707"><ele>696.0</ele><time>2026-04-26T14:03:52.999Z</time></trkpt><trkpt lat="37.941943971391986" lon="15.154119916848815"><ele>697.5</ele><time>2026-04-26T14:03:53.999Z</time></trkpt><trkpt lat="37.94204768450459" lon="15.154057242955846"><ele>699.0</ele><time>2026-04-26T14:03:55.999Z</time></trkpt><trkpt lat="37.942058630637675" lon="15.15397595477793"><ele>700.5</ele><time>2026-04-26T14:03:56.999Z</time></trkpt><trkpt lat="37.94202398562077" lon="15.153897156346137"><ele>702.0</ele><time>2026-04-26T14:03:57.999Z</time></trkpt><trkpt lat="37.94197788688466" lon="15.153817308093872"><ele>703.5</ele><time>2026-04-26T14:03:58.999Z</time></trkpt><trkpt lat="37.941970564145436" lon="15.153727424647064"><ele>705.0</ele><time>2026-04-26T14:03:59.999Z</time></trkpt><trkpt lat="37.94198326596214" lon="15.153620742664318"><ele>701.6666666666666</ele><time>2026-04-26T14:04:00.999Z</time></trkpt><trkpt lat="37.94199244229996" lon="15.153520926188314"><ele>698.3333333333334</ele><time>2026-04-26T14:04:01.999Z</time></trkpt><trkpt lat="37.94192957497328" lon="15.153417646898598"><ele>695.0</ele><time>2026-04-26T14:04:02.999Z</time></trkpt><trkpt lat="37.94194392428629" lon="15.15331499883138"><ele>691.6666666666667</ele><time>2026-04-26T14:04:03.999Z</time></trkpt><trkpt lat="37.94196925598487" lon="15.153218270903565"><ele>688.3333333333334</ele><time>2026-04-26T14:04:04.999Z</time></trkpt><trkpt lat="37.941964418720175" lon="15.153121466597765"><ele>685.0</ele><time>2026-04-26T14:04:05.999Z</time></trkpt><trkpt lat="37.94195110582234" lon="15.153033564022914"><ele>682.3333333333334</ele><time>2026-04-26T14:04:06.999Z</time></trkpt><trkpt lat="37.94202772797009" lon="15.152917194086333"><ele>679.6666666666667</ele><time>2026-04-26T14:04:08.999Z</time></trkpt><trkpt lat="37.94209930287801" lon="15.152883991556426"><ele>677.0</ele><time>2026-04-26T14:04:09.999Z</time></trkpt><trkpt lat="37.94216306332912" lon="15.152831738826613"><ele>674.3333333333334</ele><time>2026-04-26T14:04:10.999Z</time></trkpt><trkpt lat="37.94221691633545" lon="15.152768127092227"><ele>671.6666666666666</ele><time>2026-04-26T14:04:11.999Z</time></trkpt><trkpt lat="37.94226533629319" lon="15.152705005748963"><ele>669.0</ele><time>2026-04-26T14:04:12.999Z</time></trkpt><trkpt lat="37.942279476867014" lon="15.15255388381003"><ele>669.0</ele><time>2026-04-26T14:04:14.999Z</time></trkpt><trkpt lat="37.94226782824862" lon="15.152469189875648"><ele>669.0</ele><time>2026-04-26T14:04:15.999Z</time></trkpt><trkpt lat="37.94228566611807" lon="15.152390998153193"><ele>669.0</ele><time>2026-04-26T14:04:16.999Z</time></trkpt><trkpt lat="37.94234015930072" lon="15.152343154354439"><ele>669.0</ele><time>2026-04-26T14:04:17.999Z</time></trkpt><trkpt lat="37.94240743817636" lon="15.152316841501925"><ele>669.0</ele><time>2026-04-26T14:04:18.999Z</time></trkpt><trkpt lat="37.94248628340068" lon="15.15232714006906"><ele>669.0</ele><time>2026-04-26T14:04:19.999Z</time></trkpt><trkpt lat="37.942565690542" lon="15.152347492630527"><ele>669.0</ele><time>2026-04-26T14:04:20.999Z</time></trkpt><trkpt lat="37.94263300071184" lon="15.152381737552147"><ele>666.8333333333334</ele><time>2026-04-26T14:04:21.999Z</time></trkpt><trkpt lat="37.94268518187273" lon="15.15243303947802"><ele>664.6666666666666</ele><time>2026-04-26T14:04:22.999Z</time></trkpt><trkpt lat="37.94276950466689" lon="15.152457213633129"><ele>662.5</ele><time>2026-04-26T14:04:24.999Z</time></trkpt><trkpt lat="37.94273130514661" lon="15.152316693469848"><ele>660.3333333333333</ele><time>2026-04-26T14:04:26.999Z</time></trkpt><trkpt lat="37.94265774806051" lon="15.152276292623881"><ele>658.1666666666666</ele><time>2026-04-26T14:04:27.999Z</time></trkpt><trkpt lat="37.94257784123885" lon="15.152258397277583"><ele>656.0</ele><time>2026-04-26T14:04:28.999Z</time></trkpt><trkpt lat="37.94251794001405" lon="15.152216104343012"><ele>654.0</ele><time>2026-04-26T14:04:29.999Z</time></trkpt><trkpt lat="37.94249463172644" lon="15.152095751119841"><ele>652.0</ele><time>2026-04-26T14:04:31.999Z</time></trkpt><trkpt lat="37.94241348269963" lon="15.151919031479846"><ele>650.0</ele><time>2026-04-26T14:04:32.999Z</time></trkpt><trkpt lat="37.9423968308501" lon="15.151820085530066"><ele>648.0</ele><time>2026-04-26T14:04:33.999Z</time></trkpt><trkpt lat="37.942378431226224" lon="15.151721093682788"><ele>646.0</ele><time>2026-04-26T14:04:34.999Z</time></trkpt><trkpt lat="37.942344264479736" lon="15.151637676658211"><ele>646.0</ele><time>2026-04-26T14:04:35.999Z</time></trkpt><trkpt lat="37.942296428026346" lon="15.151573435241938"><ele>646.0</ele><time>2026-04-26T14:04:36.999Z</time></trkpt><trkpt lat="37.94224274468162" lon="15.151496328180139"><ele>646.0</ele><time>2026-04-26T14:04:37.999Z</time></trkpt><trkpt lat="37.94217998206374" lon="15.151417241495354"><ele>646.0</ele><time>2026-04-26T14:04:38.999Z</time></trkpt><trkpt lat="37.94214469185653" lon="15.151329177391169"><ele>646.0</ele><time>2026-04-26T14:04:39.999Z</time></trkpt><trkpt lat="37.942130212092735" lon="15.151227992616109"><ele>646.0</ele><time>2026-04-26T14:04:40.999Z</time></trkpt><trkpt lat="37.94212683841474" lon="15.151140003822992"><ele>642.6666666666667</ele><time>2026-04-26T14:04:41.999Z</time></trkpt><trkpt lat="37.94213686312729" lon="15.151057930336641"><ele>639.3333333333334</ele><time>2026-04-26T14:04:42.999Z</time></trkpt><trkpt lat="37.942161628304916" lon="15.150971566225245"><ele>636.0</ele><time>2026-04-26T14:04:43.999Z</time></trkpt><trkpt lat="37.942174748181884" lon="15.150889713818648"><ele>632.6666666666666</ele><time>2026-04-26T14:04:44.999Z</time></trkpt><trkpt lat="37.94209972847296" lon="15.150798070309548"><ele>629.3333333333333</ele><time>2026-04-26T14:04:46.999Z</time></trkpt><trkpt lat="37.942013880542" lon="15.150819089822939"><ele>626.0</ele><time>2026-04-26T14:04:47.999Z</time></trkpt><trkpt lat="37.94192686033466" lon="15.150871202933722"><ele>626.0</ele><time>2026-04-26T14:04:48.999Z</time></trkpt><trkpt lat="37.94186681422533" lon="15.150895536850813"><ele>626.0</ele><time>2026-04-26T14:04:49.999Z</time></trkpt><trkpt lat="37.9418358546716" lon="15.150750773979906"><ele>626.0</ele><time>2026-04-26T14:04:51.998Z</time></trkpt><trkpt lat="37.94186515874287" lon="15.150660601790296"><ele>626.0</ele><time>2026-04-26T14:04:52.998Z</time></trkpt><trkpt lat="37.941923746957315" lon="15.150581791202343"><ele>626.0</ele><time>2026-04-26T14:04:53.998Z</time></trkpt><trkpt lat="37.942002787930235" lon="15.150522013939286"><ele>626.0</ele><time>2026-04-26T14:04:54.998Z</time></trkpt><trkpt lat="37.941983600280935" lon="15.150392229171324"><ele>624.1666666666666</ele><time>2026-04-26T14:04:56.998Z</time></trkpt><trkpt lat="37.94191846651846" lon="15.150362499453092"><ele>622.3333333333333</ele><time>2026-04-26T14:04:57.998Z</time></trkpt><trkpt lat="37.941843919273126" lon="15.150362240373655"><ele>620.5</ele><time>2026-04-26T14:04:59Z</time></trkpt><trkpt lat="37.94177392602983" lon="15.150389801838825"><ele>618.6666666666666</ele><time>2026-04-26T14:05:00Z</time></trkpt><trkpt lat="37.941702935781464" lon="15.150424442004063"><ele>616.8333333333334</ele><time>2026-04-26T14:05:01Z</time></trkpt><trkpt lat="37.94168243373103" lon="15.150298229846054"><ele>615.0</ele><time>2026-04-26T14:05:04Z</time></trkpt><trkpt lat="37.94173468329907" lon="15.150237822497605"><ele>613.8571428571428</ele><time>2026-04-26T14:05:05Z</time></trkpt><trkpt lat="37.94180441809027" lon="15.150173020953758"><ele>612.7142857142858</ele><time>2026-04-26T14:05:06Z</time></trkpt><trkpt lat="37.941851625271966" lon="15.150118255132266"><ele>611.5714285714286</ele><time>2026-04-26T14:05:07Z</time></trkpt><trkpt lat="37.9418770200234" lon="15.15003521681906"><ele>610.4285714285713</ele><time>2026-04-26T14:05:08Z</time></trkpt><trkpt lat="37.94187641535215" lon="15.149954211701468"><ele>609.2857142857142</ele><time>2026-04-26T14:05:09Z</time></trkpt><trkpt lat="37.94187877187445" lon="15.149850357594607"><ele>608.1428571428571</ele><time>2026-04-26T14:05:10Z</time></trkpt><trkpt lat="37.94191546261402" lon="15.149785480672278"><ele>607.0</ele><time>2026-04-26T14:05:11Z</time></trkpt><trkpt lat="37.941960674962516" lon="15.149704848385124"><ele>605.8333333333334</ele><time>2026-04-26T14:05:12Z</time></trkpt><trkpt lat="37.94199375526323" lon="15.1496317345459"><ele>604.6666666666667</ele><time>2026-04-26T14:05:13Z</time></trkpt><trkpt lat="37.94196245246543" lon="15.149511458607773"><ele>603.5</ele><time>2026-04-26T14:05:15Z</time></trkpt><trkpt lat="37.94188667808603" lon="15.149481343657689"><ele>602.3333333333334</ele><time>2026-04-26T14:05:16Z</time></trkpt><trkpt lat="37.941776163815625" lon="15.149553596089918"><ele>601.1666666666666</ele><time>2026-04-26T14:05:18Z</time></trkpt><trkpt lat="37.94174903303998" lon="15.149647541076076"><ele>600.0</ele><time>2026-04-26T14:05:19Z</time></trkpt><trkpt lat="37.9417150631416" lon="15.149747811460212"><ele>600.0</ele><time>2026-04-26T14:05:20Z</time></trkpt><trkpt lat="37.94166062012873" lon="15.149818027544255"><ele>600.0</ele><time>2026-04-26T14:05:21Z</time></trkpt><trkpt lat="37.94158114522507" lon="15.149859330823011"><ele>600.0</ele><time>2026-04-26T14:05:22Z</time></trkpt><trkpt lat="37.94149461568979" lon="15.14987164998592"><ele>600.0</ele><time>2026-04-26T14:05:23Z</time></trkpt><trkpt lat="37.94140256875301" lon="15.149869521426549"><ele>600.0</ele><time>2026-04-26T14:05:24Z</time></trkpt><trkpt lat="37.94131557898234" lon="15.14987182280004"><ele>600.0</ele><time>2026-04-26T14:05:25Z</time></trkpt><trkpt lat="37.941243568893526" lon="15.14991106560793"><ele>599.8333333333334</ele><time>2026-04-26T14:05:26Z</time></trkpt><trkpt lat="37.94118712700765" lon="15.14996710944156"><ele>599.6666666666666</ele><time>2026-04-26T14:05:27Z</time></trkpt><trkpt lat="37.94113831890643" lon="15.150021067917478"><ele>599.5</ele><time>2026-04-26T14:05:27.999Z</time></trkpt><trkpt lat="37.94109203762936" lon="15.150080147719953"><ele>599.3333333333333</ele><time>2026-04-26T14:05:28.999Z</time></trkpt><trkpt lat="37.940990804092195" lon="15.150135631638369"><ele>599.1666666666666</ele><time>2026-04-26T14:05:30.999Z</time></trkpt><trkpt lat="37.94092113407551" lon="15.150113047722929"><ele>599.0</ele><time>2026-04-26T14:05:31.999Z</time></trkpt><trkpt lat="37.94085478480504" lon="15.15006980923657"><ele>599.0</ele><time>2026-04-26T14:05:32.999Z</time></trkpt><trkpt lat="37.94078502767719" lon="15.15000857312519"><ele>599.0</ele><time>2026-04-26T14:05:33.999Z</time></trkpt><trkpt lat="37.94073147902907" lon="15.149935397364851"><ele>599.0</ele><time>2026-04-26T14:05:34.999Z</time></trkpt><trkpt lat="37.940737529465636" lon="15.149814849406642"><ele>599.0</ele><time>2026-04-26T14:05:36.999Z</time></trkpt><trkpt lat="37.94084136101786" lon="15.149699445152375"><ele>599.0</ele><time>2026-04-26T14:05:38.999Z</time></trkpt><trkpt lat="37.94092199468558" lon="15.149634517937624"><ele>599.1666666666666</ele><time>2026-04-26T14:05:39.999Z</time></trkpt><trkpt lat="37.94100548884624" lon="15.149561821745076"><ele>599.3333333333333</ele><time>2026-04-26T14:05:40.999Z</time></trkpt><trkpt lat="37.94107045338323" lon="15.149492132990737"><ele>599.5</ele><time>2026-04-26T14:05:41.999Z</time></trkpt><trkpt lat="37.94111390467685" lon="15.149431740496965"><ele>599.6666666666666</ele><time>2026-04-26T14:05:42.999Z</time></trkpt><trkpt lat="37.94115481862623" lon="15.149365525433693"><ele>599.8333333333334</ele><time>2026-04-26T14:05:43.999Z</time></trkpt><trkpt lat="37.94121766730158" lon="15.149277550748643"><ele>600.0</ele><time>2026-04-26T14:05:45.999Z</time></trkpt><trkpt lat="37.94129382443988" lon="15.149167069913824"><ele>600.0</ele><time>2026-04-26T14:05:47.999Z</time></trkpt><trkpt lat="37.94135618030074" lon="15.149118862838291"><ele>600.0</ele><time>2026-04-26T14:05:48.999Z</time></trkpt><trkpt lat="37.94143068050598" lon="15.149085897768746"><ele>600.0</ele><time>2026-04-26T14:05:49.999Z</time></trkpt><trkpt lat="37.94149284759824" lon="15.149050790253913"><ele>600.0</ele><time>2026-04-26T14:05:50.999Z</time></trkpt><trkpt lat="37.94153512295494" lon="15.148977145987844"><ele>600.0</ele><time>2026-04-26T14:05:51.999Z</time></trkpt><trkpt lat="37.941572118171585" lon="15.14887963022659"><ele>600.0</ele><time>2026-04-26T14:05:52.999Z</time></trkpt><trkpt lat="37.941611435413684" lon="15.148782273923995"><ele>597.1666666666666</ele><time>2026-04-26T14:05:53.999Z</time></trkpt><trkpt lat="37.94166462048424" lon="15.1487121221087"><ele>594.3333333333334</ele><time>2026-04-26T14:05:54.999Z</time></trkpt><trkpt lat="37.94172448122381" lon="15.148681365524034"><ele>591.5</ele><time>2026-04-26T14:05:55.999Z</time></trkpt><trkpt lat="37.9418219947045" lon="15.148742478631476"><ele>588.6666666666667</ele><time>2026-04-26T14:05:57.999Z</time></trkpt><trkpt lat="37.94186353907487" lon="15.148817321814903"><ele>585.8333333333334</ele><time>2026-04-26T14:05:58.999Z</time></trkpt><trkpt lat="37.941912871020904" lon="15.14890816367831"><ele>583.0</ele><time>2026-04-26T14:05:59.999Z</time></trkpt><trkpt lat="37.94197156001732" lon="15.149002825767905"><ele>583.0</ele><time>2026-04-26T14:06:00.999Z</time></trkpt><trkpt lat="37.94203109534535" lon="15.149073580664037"><ele>583.0</ele><time>2026-04-26T14:06:01.999Z</time></trkpt><trkpt lat="37.942115550821484" lon="15.149137724421575"><ele>583.0</ele><time>2026-04-26T14:06:02.999Z</time></trkpt><trkpt lat="37.94219889642102" lon="15.14920341218615"><ele>583.0</ele><time>2026-04-26T14:06:03.999Z</time></trkpt><trkpt lat="37.94225454122374" lon="15.149277810474656"><ele>583.0</ele><time>2026-04-26T14:06:04.999Z</time></trkpt><trkpt lat="37.942303883118186" lon="15.149358456666763"><ele>583.0</ele><time>2026-04-26T14:06:05.999Z</time></trkpt><trkpt lat="37.942345560585565" lon="15.149437537904745"><ele>583.0</ele><time>2026-04-26T14:06:06.999Z</time></trkpt><trkpt lat="37.94241687242294" lon="15.14951316977787"><ele>583.0</ele><time>2026-04-26T14:06:07.999Z</time></trkpt><trkpt lat="37.94249184452977" lon="15.14957105127302"><ele>583.0</ele><time>2026-04-26T14:06:08.999Z</time></trkpt><trkpt lat="37.94257343573767" lon="15.14961350220162"><ele>583.0</ele><time>2026-04-26T14:06:09.999Z</time></trkpt><trkpt lat="37.94267043705494" lon="15.149644451775838"><ele>583.0</ele><time>2026-04-26T14:06:10.999Z</time></trkpt><trkpt lat="37.942757340651426" lon="15.149673711223071"><ele>582.5</ele><time>2026-04-26T14:06:11.999Z</time></trkpt><trkpt lat="37.94283825869691" lon="15.149718129265029"><ele>582.0</ele><time>2026-04-26T14:06:12.999Z</time></trkpt><trkpt lat="37.942889129310714" lon="15.149785910517023"><ele>581.5</ele><time>2026-04-26T14:06:13.999Z</time></trkpt><trkpt lat="37.942906970448306" lon="15.149874851397499"><ele>581.0</ele><time>2026-04-26T14:06:14.999Z</time></trkpt><trkpt lat="37.94289785035451" lon="15.149966788461263"><ele>580.5</ele><time>2026-04-26T14:06:15.999Z</time></trkpt><trkpt lat="37.94296537409367" lon="15.150063204305319"><ele>580.0</ele><time>2026-04-26T14:06:17.999Z</time></trkpt><trkpt lat="37.94302978896305" lon="15.150055135380123"><ele>580.0</ele><time>2026-04-26T14:06:18.999Z</time></trkpt><trkpt lat="37.943096387530034" lon="15.150025141722796"><ele>580.0</ele><time>2026-04-26T14:06:19.999Z</time></trkpt><trkpt lat="37.943177912433605" lon="15.150002487597831"><ele>580.0</ele><time>2026-04-26T14:06:20.999Z</time></trkpt><trkpt lat="37.94326978310884" lon="15.149977683525597"><ele>580.0</ele><time>2026-04-26T14:06:21.999Z</time></trkpt><trkpt lat="37.943325660502765" lon="15.149934988249266"><ele>580.0</ele><time>2026-04-26T14:06:22.999Z</time></trkpt><trkpt lat="37.943367667752526" lon="15.149864231082553"><ele>580.0</ele><time>2026-04-26T14:06:23.999Z</time></trkpt><trkpt lat="37.94341630531504" lon="15.149744136479002"><ele>581.5</ele><time>2026-04-26T14:06:25.999Z</time></trkpt><trkpt lat="37.943475780108976" lon="15.149696938730793"><ele>583.0</ele><time>2026-04-26T14:06:26.999Z</time></trkpt><trkpt lat="37.94355305012509" lon="15.149676165630973"><ele>584.5</ele><time>2026-04-26T14:06:27.999Z</time></trkpt><trkpt lat="37.943622129678346" lon="15.14965244367791"><ele>586.0</ele><time>2026-04-26T14:06:28.999Z</time></trkpt><trkpt lat="37.94367233107262" lon="15.149592722283442"><ele>587.5</ele><time>2026-04-26T14:06:29.999Z</time></trkpt><trkpt lat="37.943694489088" lon="15.149470966911"><ele>589.0</ele><time>2026-04-26T14:06:31.999Z</time></trkpt><trkpt lat="37.94366480142964" lon="15.149389362653093"><ele>589.0</ele><time>2026-04-26T14:06:32.999Z</time></trkpt><trkpt lat="37.94361669883966" lon="15.149271510183544"><ele>589.0</ele><time>2026-04-26T14:06:33.999Z</time></trkpt><trkpt lat="37.943583912954786" lon="15.149151576702613"><ele>589.0</ele><time>2026-04-26T14:06:34.999Z</time></trkpt><trkpt lat="37.94356810603847" lon="15.149046534428834"><ele>589.0</ele><time>2026-04-26T14:06:35.999Z</time></trkpt><trkpt lat="37.94356485017315" lon="15.148931887402108"><ele>589.0</ele><time>2026-04-26T14:06:36.999Z</time></trkpt><trkpt lat="37.94356697012535" lon="15.148748520493506"><ele>587.6</ele><time>2026-04-26T14:06:38.999Z</time></trkpt><trkpt lat="37.94356857294487" lon="15.14863786071203"><ele>586.2</ele><time>2026-04-26T14:06:39.999Z</time></trkpt><trkpt lat="37.94360225634876" lon="15.14855399163975"><ele>584.8000000000001</ele><time>2026-04-26T14:06:40.999Z</time></trkpt><trkpt lat="37.943655054491764" lon="15.148480298609558"><ele>583.4</ele><time>2026-04-26T14:06:41.999Z</time></trkpt><trkpt lat="37.94365648861057" lon="15.14831142102211"><ele>582.0</ele><time>2026-04-26T14:06:43.999Z</time></trkpt><trkpt lat="37.9436374806576" lon="15.14819269062448"><ele>580.1666666666666</ele><time>2026-04-26T14:06:44.999Z</time></trkpt><trkpt lat="37.94363548904562" lon="15.148094372990306"><ele>578.3333333333334</ele><time>2026-04-26T14:06:45.999Z</time></trkpt><trkpt lat="37.94364182083011" lon="15.1479934737694"><ele>576.5</ele><time>2026-04-26T14:06:46.999Z</time></trkpt><trkpt lat="37.943625728788156" lon="15.147902104978684"><ele>574.6666666666667</ele><time>2026-04-26T14:06:47.999Z</time></trkpt><trkpt lat="37.94358542705859" lon="15.14780546211793"><ele>572.8333333333334</ele><time>2026-04-26T14:06:48.999Z</time></trkpt><trkpt lat="37.943518299060884" lon="15.147736948376412"><ele>571.0</ele><time>2026-04-26T14:06:49.999Z</time></trkpt><trkpt lat="37.943440427701965" lon="15.147687365742877"><ele>569.8</ele><time>2026-04-26T14:06:50.999Z</time></trkpt><trkpt lat="37.94335096774267" lon="15.14762867597166"><ele>568.6</ele><time>2026-04-26T14:06:51.999Z</time></trkpt><trkpt lat="37.94328262375705" lon="15.147564458739621"><ele>567.4</ele><time>2026-04-26T14:06:52.999Z</time></trkpt><trkpt lat="37.94325124673" lon="15.147463374576153"><ele>566.2</ele><time>2026-04-26T14:06:53.999Z</time></trkpt><trkpt lat="37.94321650509919" lon="15.147345994781341"><ele>565.0</ele><time>2026-04-26T14:06:54.999Z</time></trkpt><trkpt lat="37.94315667221677" lon="15.14727130183885"><ele>563.6</ele><time>2026-04-26T14:06:55.999Z</time></trkpt><trkpt lat="37.94307711812081" lon="15.147212716676567"><ele>562.2</ele><time>2026-04-26T14:06:56.999Z</time></trkpt><trkpt lat="37.94299338759029" lon="15.147135587240301"><ele>560.8</ele><time>2026-04-26T14:06:57.999Z</time></trkpt><trkpt lat="37.94290992232382" lon="15.147058025549613"><ele>559.4</ele><time>2026-04-26T14:06:58.999Z</time></trkpt><trkpt lat="37.94281694857198" lon="15.146966817506067"><ele>558.0</ele><time>2026-04-26T14:06:59.999Z</time></trkpt><trkpt lat="37.94274452894672" lon="15.1468818866577"><ele>558.0</ele><time>2026-04-26T14:07:00.999Z</time></trkpt><trkpt lat="37.94268639470362" lon="15.146797602073928"><ele>558.0</ele><time>2026-04-26T14:07:01.999Z</time></trkpt><trkpt lat="37.9426149921412" lon="15.14670861209856"><ele>558.0</ele><time>2026-04-26T14:07:02.998Z</time></trkpt><trkpt lat="37.94253838765715" lon="15.14661540164406"><ele>558.0</ele><time>2026-04-26T14:07:03.998Z</time></trkpt><trkpt lat="37.94247872219094" lon="15.146537364564027"><ele>558.0</ele><time>2026-04-26T14:07:05Z</time></trkpt><trkpt lat="37.94243796930382" lon="15.146443668657026"><ele>555.6</ele><time>2026-04-26T14:07:06Z</time></trkpt><trkpt lat="37.9424246491552" lon="15.146343136470396"><ele>553.1999999999999</ele><time>2026-04-26T14:07:07Z</time></trkpt><trkpt lat="37.942402041021495" lon="15.146233123812957"><ele>550.8</ele><time>2026-04-26T14:07:08Z</time></trkpt><trkpt lat="37.942359260046054" lon="15.146145739305426"><ele>548.4</ele><time>2026-04-26T14:07:09Z</time></trkpt><trkpt lat="37.94229725503729" lon="15.146055466468766"><ele>546.0</ele><time>2026-04-26T14:07:10Z</time></trkpt><trkpt lat="37.94221884330122" lon="15.145964938060505"><ele>546.0</ele><time>2026-04-26T14:07:11Z</time></trkpt><trkpt lat="37.94213603744726" lon="15.145884483435145"><ele>546.0</ele><time>2026-04-26T14:07:12Z</time></trkpt><trkpt lat="37.94205189297133" lon="15.145818631172686"><ele>546.0</ele><time>2026-04-26T14:07:13Z</time></trkpt><trkpt lat="37.9419712177705" lon="15.145762238668064"><ele>546.0</ele><time>2026-04-26T14:07:14Z</time></trkpt><trkpt lat="37.94189364947156" lon="15.145710409424694"><ele>546.0</ele><time>2026-04-26T14:07:15Z</time></trkpt><trkpt lat="37.941807891257504" lon="15.145653562388368"><ele>544.8</ele><time>2026-04-26T14:07:16Z</time></trkpt><trkpt lat="37.9417266449252" lon="15.145615283863448"><ele>543.6</ele><time>2026-04-26T14:07:16.999Z</time></trkpt><trkpt lat="37.94163921161127" lon="15.145591828873533"><ele>542.4</ele><time>2026-04-26T14:07:17.999Z</time></trkpt><trkpt lat="37.94154965020982" lon="15.14560290047693"><ele>541.2</ele><time>2026-04-26T14:07:18.999Z</time></trkpt><trkpt lat="37.941460316901306" lon="15.145647800520873"><ele>540.0</ele><time>2026-04-26T14:07:19.999Z</time></trkpt><trkpt lat="37.94138066966758" lon="15.145706038389907"><ele>539.6</ele><time>2026-04-26T14:07:20.999Z</time></trkpt><trkpt lat="37.94129393553871" lon="15.145744575819899"><ele>539.2</ele><time>2026-04-26T14:07:21.999Z</time></trkpt><trkpt lat="37.94121293119317" lon="15.145730658308661"><ele>538.8</ele><time>2026-04-26T14:07:22.999Z</time></trkpt><trkpt lat="37.94111578860545" lon="15.145678015499625"><ele>538.4</ele><time>2026-04-26T14:07:23.999Z</time></trkpt><trkpt lat="37.941021731613844" lon="15.145643346299945"><ele>538.0</ele><time>2026-04-26T14:07:24.999Z</time></trkpt><trkpt lat="37.940929373045506" lon="15.145636153660572"><ele>535.6</ele><time>2026-04-26T14:07:25.999Z</time></trkpt><trkpt lat="37.940845985402916" lon="15.145648499752104"><ele>533.1999999999999</ele><time>2026-04-26T14:07:26.999Z</time></trkpt><trkpt lat="37.94075510872858" lon="15.14566281924877"><ele>530.8</ele><time>2026-04-26T14:07:27.999Z</time></trkpt><trkpt lat="37.94065668437018" lon="15.14565085359181"><ele>528.4</ele><time>2026-04-26T14:07:28.999Z</time></trkpt><trkpt lat="37.94055943521924" lon="15.145595832701112"><ele>526.0</ele><time>2026-04-26T14:07:29.999Z</time></trkpt><trkpt lat="37.940463107019106" lon="15.145547515286117"><ele>526.0</ele><time>2026-04-26T14:07:30.999Z</time></trkpt><trkpt lat="37.94036572112402" lon="15.145509368476292"><ele>526.0</ele><time>2026-04-26T14:07:31.999Z</time></trkpt><trkpt lat="37.94027858798451" lon="15.145467327731494"><ele>526.0</ele><time>2026-04-26T14:07:32.999Z</time></trkpt><trkpt lat="37.940199496048784" lon="15.145381125308932"><ele>526.0</ele><time>2026-04-26T14:07:33.999Z</time></trkpt><trkpt lat="37.940130704027155" lon="15.145282311822276"><ele>526.0</ele><time>2026-04-26T14:07:34.999Z</time></trkpt><trkpt lat="37.940061527678665" lon="15.145182741530736"><ele>523.8</ele><time>2026-04-26T14:07:35.999Z</time></trkpt><trkpt lat="37.94000610865455" lon="15.145098013042375"><ele>521.6</ele><time>2026-04-26T14:07:36.999Z</time></trkpt><trkpt lat="37.93995264486446" lon="15.145026869192467"><ele>519.4</ele><time>2026-04-26T14:07:37.999Z</time></trkpt><trkpt lat="37.93984140552843" lon="15.144962622578294"><ele>517.2</ele><time>2026-04-26T14:07:39.999Z</time></trkpt><trkpt lat="37.939753203360496" lon="15.144950043614974"><ele>515.0</ele><time>2026-04-26T14:07:40.999Z</time></trkpt><trkpt lat="37.939652854056774" lon="15.144951310012182"><ele>515.0</ele><time>2026-04-26T14:07:41.999Z</time></trkpt><trkpt lat="37.93954635841242" lon="15.144950826128772"><ele>515.0</ele><time>2026-04-26T14:07:42.999Z</time></trkpt><trkpt lat="37.93946017397924" lon="15.144949047699015"><ele>515.0</ele><time>2026-04-26T14:07:43.999Z</time></trkpt><trkpt lat="37.939369068839895" lon="15.144980287290016"><ele>515.0</ele><time>2026-04-26T14:07:44.999Z</time></trkpt><trkpt lat="37.939298838503724" lon="15.145021990645576"><ele>515.0</ele><time>2026-04-26T14:07:45.999Z</time></trkpt><trkpt lat="37.93920918241994" lon="15.145053251629806"><ele>513.3333333333333</ele><time>2026-04-26T14:07:46.999Z</time></trkpt><trkpt lat="37.93912340369037" lon="15.14504931916698"><ele>511.66666666666663</ele><time>2026-04-26T14:07:47.999Z</time></trkpt><trkpt lat="37.93904033850206" lon="15.145082704425873"><ele>510.0</ele><time>2026-04-26T14:07:48.999Z</time></trkpt><trkpt lat="37.93896243988617" lon="15.145134111354691"><ele>508.33333333333337</ele><time>2026-04-26T14:07:49.999Z</time></trkpt><trkpt lat="37.938880561735644" lon="15.145142285455904"><ele>506.6666666666667</ele><time>2026-04-26T14:07:50.999Z</time></trkpt><trkpt lat="37.93878984644816" lon="15.145123584846234"><ele>505.0</ele><time>2026-04-26T14:07:51.999Z</time></trkpt><trkpt lat="37.938702945180886" lon="15.14507228944623"><ele>505.0</ele><time>2026-04-26T14:07:52.999Z</time></trkpt><trkpt lat="37.93860444879812" lon="15.145054749504965"><ele>505.0</ele><time>2026-04-26T14:07:53.999Z</time></trkpt><trkpt lat="37.93850115608591" lon="15.14508307561294"><ele>505.0</ele><time>2026-04-26T14:07:54.999Z</time></trkpt><trkpt lat="37.9383969997696" lon="15.145118146208805"><ele>505.0</ele><time>2026-04-26T14:07:55.999Z</time></trkpt><trkpt lat="37.938306728652165" lon="15.145122476429409"><ele>505.0</ele><time>2026-04-26T14:07:56.999Z</time></trkpt><trkpt lat="37.938218104601546" lon="15.145084921456688"><ele>503.00000000000006</ele><time>2026-04-26T14:07:57.999Z</time></trkpt><trkpt lat="37.938144043901936" lon="15.145017461895529"><ele>501.0</ele><time>2026-04-26T14:07:58.999Z</time></trkpt><trkpt lat="37.938075960366525" lon="15.144951399329164"><ele>499.0</ele><time>2026-04-26T14:07:59.999Z</time></trkpt><trkpt lat="37.9379966548829" lon="15.144913560961294"><ele>497.0</ele><time>2026-04-26T14:08:00.999Z</time></trkpt><trkpt lat="37.937929331519044" lon="15.144944867614843"><ele>495.00000000000006</ele><time>2026-04-26T14:08:01.999Z</time></trkpt><trkpt lat="37.93786802739598" lon="15.145013618794081"><ele>493.0</ele><time>2026-04-26T14:08:02.999Z</time></trkpt><trkpt lat="37.93780298995716" lon="15.145100968365524"><ele>493.00000000000006</ele><time>2026-04-26T14:08:03.999Z</time></trkpt><trkpt lat="37.93773522073447" lon="15.14516183860355"><ele>493.0</ele><time>2026-04-26T14:08:04.999Z</time></trkpt><trkpt lat="37.93764974721171" lon="15.145182633281438"><ele>493.0</ele><time>2026-04-26T14:08:05.999Z</time></trkpt><trkpt lat="37.93757193400097" lon="15.145191073392553"><ele>493.0</ele><time>2026-04-26T14:08:06.999Z</time></trkpt><trkpt lat="37.937485101584656" lon="15.145210166604063"><ele>493.00000000000006</ele><time>2026-04-26T14:08:07.999Z</time></trkpt><trkpt lat="37.93740337800282" lon="15.145250358040125"><ele>493.0</ele><time>2026-04-26T14:08:08.999Z</time></trkpt><trkpt lat="37.93727298148391" lon="15.145263753895046"><ele>491.33333333333337</ele><time>2026-04-26T14:08:10.999Z</time></trkpt><trkpt lat="37.93721763229144" lon="15.145224834952225"><ele>489.6666666666667</ele><time>2026-04-26T14:08:11.999Z</time></trkpt><trkpt lat="37.93715863913995" lon="15.14515715430663"><ele>488.0</ele><time>2026-04-26T14:08:13.999Z</time></trkpt><trkpt lat="37.93706544256816" lon="15.145086654139321"><ele>486.33333333333337</ele><time>2026-04-26T14:08:15.999Z</time></trkpt><trkpt lat="37.93699086303682" lon="15.145103669210295"><ele>484.6666666666667</ele><time>2026-04-26T14:08:17.999Z</time></trkpt><trkpt lat="37.93692518117261" lon="15.145178481762008"><ele>483.0</ele><time>2026-04-26T14:08:19.999Z</time></trkpt><trkpt lat="37.93686044447363" lon="15.145256716454696"><ele>483.0</ele><time>2026-04-26T14:08:21.999Z</time></trkpt><trkpt lat="37.93679417305113" lon="15.14529374520979"><ele>483.0</ele><time>2026-04-26T14:08:23.999Z</time></trkpt><trkpt lat="37.93672463727138" lon="15.145323812089536"><ele>483.0</ele><time>2026-04-26T14:08:25.999Z</time></trkpt><trkpt lat="37.936622986212036" lon="15.145398121782282"><ele>483.0</ele><time>2026-04-26T14:08:27.999Z</time></trkpt><trkpt lat="37.93656209421668" lon="15.145420406762756"><ele>483.0</ele><time>2026-04-26T14:08:28.999Z</time></trkpt><trkpt lat="37.93646315276898" lon="15.145452653035049"><ele>483.0</ele><time>2026-04-26T14:08:29.999Z</time></trkpt><trkpt lat="37.936376385254306" lon="15.145496588876743"><ele>480.75</ele><time>2026-04-26T14:08:30.999Z</time></trkpt><trkpt lat="37.93628903970776" lon="15.14556403669991"><ele>478.5</ele><time>2026-04-26T14:08:31.999Z</time></trkpt><trkpt lat="37.93619549995632" lon="15.145651983860411"><ele>476.25</ele><time>2026-04-26T14:08:32.999Z</time></trkpt><trkpt lat="37.936094495992336" lon="15.145756679989654"><ele>474.0</ele><time>2026-04-26T14:08:33.999Z</time></trkpt><trkpt lat="37.935987145495616" lon="15.14586332947841"><ele>471.5</ele><time>2026-04-26T14:08:34.999Z</time></trkpt><trkpt lat="37.93588163783736" lon="15.145954034740763"><ele>469.0</ele><time>2026-04-26T14:08:35.999Z</time></trkpt><trkpt lat="37.935775062385126" lon="15.146026320327515"><ele>466.5</ele><time>2026-04-26T14:08:36.999Z</time></trkpt><trkpt lat="37.93566142211897" lon="15.146101859528887"><ele>464.0</ele><time>2026-04-26T14:08:37.999Z</time></trkpt><trkpt lat="37.93554665988408" lon="15.146159684807813"><ele>464.0</ele><time>2026-04-26T14:08:38.999Z</time></trkpt><trkpt lat="37.9354331743133" lon="15.146216061637704"><ele>464.0</ele><time>2026-04-26T14:08:39.999Z</time></trkpt><trkpt lat="37.9353215270931" lon="15.146269545181005"><ele>464.0</ele><time>2026-04-26T14:08:40.999Z</time></trkpt><trkpt lat="37.93519981572572" lon="15.14631856071502"><ele>464.0</ele><time>2026-04-26T14:08:41.999Z</time></trkpt><trkpt lat="37.935086949195394" lon="15.146349812997936"><ele>463.0</ele><time>2026-04-26T14:08:42.999Z</time></trkpt><trkpt lat="37.934953863252716" lon="15.146382749599148"><ele>462.0</ele><time>2026-04-26T14:08:43.999Z</time></trkpt><trkpt lat="37.93481373355104" lon="15.146412071371499"><ele>461.0</ele><time>2026-04-26T14:08:44.999Z</time></trkpt><trkpt lat="37.93468821149507" lon="15.146428279528172"><ele>460.0</ele><time>2026-04-26T14:08:45.999Z</time></trkpt><trkpt lat="37.93455723640355" lon="15.146457487882207"><ele>460.0</ele><time>2026-04-26T14:08:46.999Z</time></trkpt><trkpt lat="37.93442227049867" lon="15.146482548884295"><ele>460.0</ele><time>2026-04-26T14:08:47.999Z</time></trkpt><trkpt lat="37.93428915553435" lon="15.14650362113241"><ele>460.0</ele><time>2026-04-26T14:08:48.999Z</time></trkpt><trkpt lat="37.934144607553456" lon="15.146532114240815"><ele>460.0</ele><time>2026-04-26T14:08:49.999Z</time></trkpt><trkpt lat="37.93400127642285" lon="15.146557318965481"><ele>462.0</ele><time>2026-04-26T14:08:50.999Z</time></trkpt><trkpt lat="37.93385349158788" lon="15.146577145025907"><ele>464.0</ele><time>2026-04-26T14:08:51.999Z</time></trkpt><trkpt lat="37.93371186852222" lon="15.146596013302158"><ele>466.0</ele><time>2026-04-26T14:08:52.999Z</time></trkpt><trkpt lat="37.93356611931949" lon="15.146608053345293"><ele>468.0</ele><time>2026-04-26T14:08:53.999Z</time></trkpt><trkpt lat="37.93341652027682" lon="15.146612279558317"><ele>462.0</ele><time>2026-04-26T14:08:54.999Z</time></trkpt><trkpt lat="37.93324961614377" lon="15.14662352634523"><ele>456.0</ele><time>2026-04-26T14:08:55.999Z</time></trkpt><trkpt lat="37.933090454545194" lon="15.146649669632335"><ele>450.0</ele><time>2026-04-26T14:08:56.999Z</time></trkpt><trkpt lat="37.932927461990396" lon="15.146693349091004"><ele>450.0</ele><time>2026-04-26T14:08:57.999Z</time></trkpt><trkpt lat="37.93278179453194" lon="15.146721811843182"><ele>450.0</ele><time>2026-04-26T14:08:58.999Z</time></trkpt><trkpt lat="37.93263963371516" lon="15.146750782507688"><ele>450.0</ele><time>2026-04-26T14:08:59.999Z</time></trkpt><trkpt lat="37.93249402794808" lon="15.146781883694768"><ele>450.0</ele><time>2026-04-26T14:09:00.999Z</time></trkpt><trkpt lat="37.932366547997034" lon="15.146809990087808"><ele>448.0</ele><time>2026-04-26T14:09:01.999Z</time></trkpt><trkpt lat="37.93225018482311" lon="15.146818581522615"><ele>446.0</ele><time>2026-04-26T14:09:02.999Z</time></trkpt><trkpt lat="37.93213347593605" lon="15.146826871125239"><ele>444.0</ele><time>2026-04-26T14:09:03.999Z</time></trkpt><trkpt lat="37.932045954437825" lon="15.146848843530064"><ele>442.0</ele><time>2026-04-26T14:09:04.999Z</time></trkpt><trkpt lat="37.931952278623235" lon="15.146894523747134"><ele>440.0</ele><time>2026-04-26T14:09:05.999Z</time></trkpt><trkpt lat="37.93185008574857" lon="15.146955031723543"><ele>440.0</ele><time>2026-04-26T14:09:06.999Z</time></trkpt><trkpt lat="37.931741541276885" lon="15.147019240829694"><ele>440.0</ele><time>2026-04-26T14:09:07.999Z</time></trkpt><trkpt lat="37.931643216014514" lon="15.147087983409312"><ele>440.0</ele><time>2026-04-26T14:09:08.999Z</time></trkpt><trkpt lat="37.93154121896986" lon="15.147136860565142"><ele>440.0</ele><time>2026-04-26T14:09:09.999Z</time></trkpt><trkpt lat="37.93145121713209" lon="15.14716787185257"><ele>440.0</ele><time>2026-04-26T14:09:11Z</time></trkpt><trkpt lat="37.93137400236969" lon="15.147171940832575"><ele>439.4</ele><time>2026-04-26T14:09:12Z</time></trkpt><trkpt lat="37.93130452391587" lon="15.147168851242473"><ele>438.8</ele><time>2026-04-26T14:09:13Z</time></trkpt><trkpt lat="37.93119865515132" lon="15.147164463244287"><ele>438.20000000000005</ele><time>2026-04-26T14:09:14Z</time></trkpt><trkpt lat="37.93109147581953" lon="15.147174970817115"><ele>437.6</ele><time>2026-04-26T14:09:15Z</time></trkpt><trkpt lat="37.931002371776216" lon="15.147179022875887"><ele>437.0</ele><time>2026-04-26T14:09:16Z</time></trkpt><trkpt lat="37.93089375317752" lon="15.147174368381046"><ele>434.5</ele><time>2026-04-26T14:09:17Z</time></trkpt><trkpt lat="37.93079352288151" lon="15.147177122109612"><ele>432.0</ele><time>2026-04-26T14:09:18Z</time></trkpt><trkpt lat="37.93067865900796" lon="15.147183522994839"><ele>429.5</ele><time>2026-04-26T14:09:19Z</time></trkpt><trkpt lat="37.930558157933866" lon="15.14718994360807"><ele>427.0</ele><time>2026-04-26T14:09:20Z</time></trkpt><trkpt lat="37.93042586723479" lon="15.1471912078911"><ele>427.0</ele><time>2026-04-26T14:09:21Z</time></trkpt><trkpt lat="37.93029871914332" lon="15.14719330294682"><ele>427.0</ele><time>2026-04-26T14:09:22Z</time></trkpt><trkpt lat="37.930185945324446" lon="15.147192632195095"><ele>427.0</ele><time>2026-04-26T14:09:23Z</time></trkpt><trkpt lat="37.93007104053734" lon="15.147184375479867"><ele>427.0</ele><time>2026-04-26T14:09:24Z</time></trkpt><trkpt lat="37.929965007641265" lon="15.147165488520294"><ele>426.20000000000005</ele><time>2026-04-26T14:09:25Z</time></trkpt><trkpt lat="37.929862451483324" lon="15.147148750586126"><ele>425.40000000000003</ele><time>2026-04-26T14:09:26Z</time></trkpt><trkpt lat="37.92976708279005" lon="15.147117870825209"><ele>424.6</ele><time>2026-04-26T14:09:27Z</time></trkpt><trkpt lat="37.92968088036912" lon="15.147059605769394"><ele>423.79999999999995</ele><time>2026-04-26T14:09:28Z</time></trkpt><trkpt lat="37.929589603656645" lon="15.146993504310228"><ele>423.0</ele><time>2026-04-26T14:09:29Z</time></trkpt><trkpt lat="37.92951880339692" lon="15.146942279865705"><ele>423.0</ele><time>2026-04-26T14:09:30Z</time></trkpt><trkpt lat="37.9294383448058" lon="15.146895675234179"><ele>423.0</ele><time>2026-04-26T14:09:31Z</time></trkpt><trkpt lat="37.92935038356826" lon="15.146888666502056"><ele>423.0</ele><time>2026-04-26T14:09:32Z</time></trkpt><trkpt lat="37.929227809298006" lon="15.146898880023178"><ele>423.0</ele><time>2026-04-26T14:09:33Z</time></trkpt><trkpt lat="37.929103889009205" lon="15.146907811498497"><ele>423.0</ele><time>2026-04-26T14:09:33.999Z</time></trkpt><trkpt lat="37.92898689502438" lon="15.1469223442259"><ele>421.0</ele><time>2026-04-26T14:09:34.999Z</time></trkpt><trkpt lat="37.928886082150306" lon="15.146932095584939"><ele>419.0</ele><time>2026-04-26T14:09:35.999Z</time></trkpt><trkpt lat="37.928779182224396" lon="15.146917810740378"><ele>417.0</ele><time>2026-04-26T14:09:36.999Z</time></trkpt><trkpt lat="37.92867104265815" lon="15.146875752443409"><ele>415.0</ele><time>2026-04-26T14:09:37.999Z</time></trkpt><trkpt lat="37.92856302955582" lon="15.14684535014266"><ele>413.0</ele><time>2026-04-26T14:09:38.999Z</time></trkpt><trkpt lat="37.928452695795905" lon="15.146824534958345"><ele>412.25</ele><time>2026-04-26T14:09:39.999Z</time></trkpt><trkpt lat="37.92834208314144" lon="15.14681842134712"><ele>411.5</ele><time>2026-04-26T14:09:40.999Z</time></trkpt><trkpt lat="37.92822585795505" lon="15.146829030991006"><ele>410.75</ele><time>2026-04-26T14:09:41.999Z</time></trkpt><trkpt lat="37.928109439124015" lon="15.14684184571346"><ele>410.0</ele><time>2026-04-26T14:09:42.999Z</time></trkpt><trkpt lat="37.927998014936" lon="15.14684948651701"><ele>410.0</ele><time>2026-04-26T14:09:43.999Z</time></trkpt><trkpt lat="37.927906803939685" lon="15.146852007453258"><ele>410.0</ele><time>2026-04-26T14:09:44.999Z</time></trkpt><trkpt lat="37.92781523585786" lon="15.146845094886055"><ele>410.0</ele><time>2026-04-26T14:09:45.999Z</time></trkpt><trkpt lat="37.92772852477937" lon="15.146820987138284"><ele>410.0</ele><time>2026-04-26T14:09:46.999Z</time></trkpt><trkpt lat="37.92762487043777" lon="15.146757492335183"><ele>410.0</ele><time>2026-04-26T14:09:48.999Z</time></trkpt><trkpt lat="37.927575592446416" lon="15.146700507785921"><ele>408.8333333333333</ele><time>2026-04-26T14:09:49.999Z</time></trkpt><trkpt lat="37.927534111045475" lon="15.146629447717453"><ele>407.66666666666663</ele><time>2026-04-26T14:09:50.999Z</time></trkpt><trkpt lat="37.92749666406971" lon="15.14654262458278"><ele>406.5</ele><time>2026-04-26T14:09:51.999Z</time></trkpt><trkpt lat="37.92745268206618" lon="15.146470747157482"><ele>405.33333333333337</ele><time>2026-04-26T14:09:52.999Z</time></trkpt><trkpt lat="37.92739699386856" lon="15.146415800061886"><ele>404.1666666666667</ele><time>2026-04-26T14:09:53.999Z</time></trkpt><trkpt lat="37.927312893305526" lon="15.146377747113524"><ele>403.0</ele><time>2026-04-26T14:09:54.999Z</time></trkpt><trkpt lat="37.92722358584701" lon="15.146359045654501"><ele>402.75</ele><time>2026-04-26T14:09:55.999Z</time></trkpt><trkpt lat="37.9271088676005" lon="15.146303708955672"><ele>402.5</ele><time>2026-04-26T14:09:56.999Z</time></trkpt><trkpt lat="37.92699693919121" lon="15.146252686350426"><ele>402.25</ele><time>2026-04-26T14:09:57.999Z</time></trkpt><trkpt lat="37.92687886373478" lon="15.146206632925544"><ele>402.0</ele><time>2026-04-26T14:09:58.999Z</time></trkpt><trkpt lat="37.92675148667965" lon="15.146165543013405"><ele>400.40000000000003</ele><time>2026-04-26T14:09:59.999Z</time></trkpt><trkpt lat="37.92663907105565" lon="15.146127740062134"><ele>398.8</ele><time>2026-04-26T14:10:00.999Z</time></trkpt><trkpt lat="37.92654187543508" lon="15.146084023064493"><ele>397.2</ele><time>2026-04-26T14:10:01.999Z</time></trkpt><trkpt lat="37.92645806246082" lon="15.146031034448825"><ele>395.6</ele><time>2026-04-26T14:10:02.999Z</time></trkpt><trkpt lat="37.926392990238305" lon="15.145970564250707"><ele>394.0</ele><time>2026-04-26T14:10:03.999Z</time></trkpt><trkpt lat="37.92633855986666" lon="15.145919276664964"><ele>394.00000000000006</ele><time>2026-04-26T14:10:04.999Z</time></trkpt><trkpt lat="37.9262762917227" lon="15.145862871787635"><ele>394.0</ele><time>2026-04-26T14:10:05.999Z</time></trkpt><trkpt lat="37.92615247945296" lon="15.145774367669121"><ele>394.0</ele><time>2026-04-26T14:10:07.999Z</time></trkpt><trkpt lat="37.92607871259613" lon="15.145750829386722"><ele>394.0</ele><time>2026-04-26T14:10:08.999Z</time></trkpt><trkpt lat="37.9260087888122" lon="15.145744805889047"><ele>394.00000000000006</ele><time>2026-04-26T14:10:09.999Z</time></trkpt><trkpt lat="37.92593745719006" lon="15.145750965584707"><ele>394.0</ele><time>2026-04-26T14:10:10.999Z</time></trkpt><trkpt lat="37.92586339369513" lon="15.14577982254859"><ele>394.0</ele><time>2026-04-26T14:10:11.999Z</time></trkpt><trkpt lat="37.92578765722774" lon="15.145821146471894"><ele>394.0</ele><time>2026-04-26T14:10:12.999Z</time></trkpt><trkpt lat="37.92567613917084" lon="15.145826493352951"><ele>394.0</ele><time>2026-04-26T14:10:14.999Z</time></trkpt><trkpt lat="37.92558880911243" lon="15.14579903913497"><ele>394.0</ele><time>2026-04-26T14:10:15.999Z</time></trkpt><trkpt lat="37.92548013626053" lon="15.145761143418516"><ele>394.0</ele><time>2026-04-26T14:10:16.999Z</time></trkpt><trkpt lat="37.92538709292314" lon="15.145718633015196"><ele>393.50000000000006</ele><time>2026-04-26T14:10:17.999Z</time></trkpt><trkpt lat="37.925320300704215" lon="15.145661473881578"><ele>393.0</ele><time>2026-04-26T14:10:18.999Z</time></trkpt><trkpt lat="37.92524582940147" lon="15.145580579745088"><ele>392.5</ele><time>2026-04-26T14:10:19.999Z</time></trkpt><trkpt lat="37.92517271866607" lon="15.145508684050998"><ele>392.0</ele><time>2026-04-26T14:10:20.999Z</time></trkpt><trkpt lat="37.92509655283622" lon="15.145461827997718"><ele>391.50000000000006</ele><time>2026-04-26T14:10:21.999Z</time></trkpt><trkpt lat="37.92501401138415" lon="15.145438883174249"><ele>391.0</ele><time>2026-04-26T14:10:22.999Z</time></trkpt><trkpt lat="37.92491282775054" lon="15.14540777066079"><ele>389.6666666666667</ele><time>2026-04-26T14:10:23.999Z</time></trkpt><trkpt lat="37.924804632392146" lon="15.145367909383282"><ele>388.33333333333337</ele><time>2026-04-26T14:10:24.999Z</time></trkpt><trkpt lat="37.92472603414646" lon="15.145330073668005"><ele>387.0</ele><time>2026-04-26T14:10:25.999Z</time></trkpt><trkpt lat="37.924650383359456" lon="15.145285206239285"><ele>385.6666666666667</ele><time>2026-04-26T14:10:26.999Z</time></trkpt><trkpt lat="37.92458155391334" lon="15.145255567325949"><ele>384.33333333333337</ele><time>2026-04-26T14:10:27.999Z</time></trkpt><trkpt lat="37.92449256910107" lon="15.145254431977248"><ele>383.0</ele><time>2026-04-26T14:10:28.999Z</time></trkpt><trkpt lat="37.92438707879413" lon="15.145264274947614"><ele>383.0</ele><time>2026-04-26T14:10:29.999Z</time></trkpt><trkpt lat="37.924265934111745" lon="15.145274049152261"><ele>383.0</ele><time>2026-04-26T14:10:30.999Z</time></trkpt><trkpt lat="37.924132985707104" lon="15.145290407451364"><ele>383.0</ele><time>2026-04-26T14:10:31.999Z</time></trkpt><trkpt lat="37.92399981227611" lon="15.145298264917436"><ele>383.0</ele><time>2026-04-26T14:10:32.999Z</time></trkpt><trkpt lat="37.92386815565037" lon="15.145295574829683"><ele>382.0</ele><time>2026-04-26T14:10:33.999Z</time></trkpt><trkpt lat="37.923734435985224" lon="15.145296834620552"><ele>381.0</ele><time>2026-04-26T14:10:34.999Z</time></trkpt><trkpt lat="37.92359200082193" lon="15.145300016589228"><ele>380.0</ele><time>2026-04-26T14:10:35.999Z</time></trkpt><trkpt lat="37.923439692457535" lon="15.145306895546613"><ele>379.0</ele><time>2026-04-26T14:10:36.999Z</time></trkpt><trkpt lat="37.9233193392796" lon="15.145313738560617"><ele>378.4</ele><time>2026-04-26T14:10:37.999Z</time></trkpt><trkpt lat="37.92319972314366" lon="15.145318882288544"><ele>377.79999999999995</ele><time>2026-04-26T14:10:38.999Z</time></trkpt><trkpt lat="37.923093413887756" lon="15.145318820203583"><ele>377.20000000000005</ele><time>2026-04-26T14:10:39.999Z</time></trkpt><trkpt lat="37.92300209601169" lon="15.14531635207536"><ele>376.6</ele><time>2026-04-26T14:10:40.999Z</time></trkpt><trkpt lat="37.92292154634076" lon="15.145308120200943"><ele>376.0</ele><time>2026-04-26T14:10:41.999Z</time></trkpt><trkpt lat="37.92284445350609" lon="15.145301254472995"><ele>376.0</ele><time>2026-04-26T14:10:42.999Z</time></trkpt><trkpt lat="37.922734093079605" lon="15.145278694390601"><ele>376.0</ele><time>2026-04-26T14:10:44.999Z</time></trkpt><trkpt lat="37.92259471166255" lon="15.145278741680535"><ele>376.0</ele><time>2026-04-26T14:10:46.999Z</time></trkpt><trkpt lat="37.922494853186386" lon="15.145251618655857"><ele>376.0</ele><time>2026-04-26T14:10:47.999Z</time></trkpt><trkpt lat="37.92237061521084" lon="15.145266979426529"><ele>375.5</ele><time>2026-04-26T14:10:48.999Z</time></trkpt><trkpt lat="37.9222262505236" lon="15.14527941657999"><ele>375.0</ele><time>2026-04-26T14:10:49.999Z</time></trkpt><trkpt lat="37.92208051777401" lon="15.1452926834567"><ele>374.5</ele><time>2026-04-26T14:10:50.999Z</time></trkpt><trkpt lat="37.92193294431153" lon="15.145329630960008"><ele>374.0</ele><time>2026-04-26T14:10:51.999Z</time></trkpt><trkpt lat="37.92180177312731" lon="15.145308531461644"><ele>372.75</ele><time>2026-04-26T14:10:52.999Z</time></trkpt><trkpt lat="37.92166474361464" lon="15.14530175448494"><ele>371.5</ele><time>2026-04-26T14:10:53.999Z</time></trkpt><trkpt lat="37.92154431357602" lon="15.145275902502739"><ele>370.25</ele><time>2026-04-26T14:10:54.999Z</time></trkpt><trkpt lat="37.921461332843656" lon="15.145198361565274"><ele>369.0</ele><time>2026-04-26T14:10:55.999Z</time></trkpt><trkpt lat="37.921368652833976" lon="15.145127331646226"><ele>369.0</ele><time>2026-04-26T14:10:56.999Z</time></trkpt><trkpt lat="37.921257286420484" lon="15.145073016652908"><ele>369.0</ele><time>2026-04-26T14:10:57.999Z</time></trkpt><trkpt lat="37.9211364404813" lon="15.145043781920549"><ele>369.0</ele><time>2026-04-26T14:10:58.999Z</time></trkpt><trkpt lat="37.92102923516958" lon="15.145022671596935"><ele>369.0</ele><time>2026-04-26T14:10:59.999Z</time></trkpt><trkpt lat="37.92092570139691" lon="15.14504917350237"><ele>362.0</ele><time>2026-04-26T14:11:00.999Z</time></trkpt><trkpt lat="37.9205322443642" lon="15.145330359165099"><ele>362.0</ele><time>2026-04-26T14:11:01.999Z</time></trkpt><trkpt lat="37.92042144887514" lon="15.145245278516263"><ele>362.0</ele><time>2026-04-26T14:11:02.999Z</time></trkpt><trkpt lat="37.920292215482434" lon="15.145142016389686"><ele>362.0</ele><time>2026-04-26T14:11:03.999Z</time></trkpt><trkpt lat="37.92001632041633" lon="15.145082335562957"><ele>362.6666666666667</ele><time>2026-04-26T14:11:05.998Z</time></trkpt><trkpt lat="37.919910159132655" lon="15.145010268218854"><ele>363.3333333333333</ele><time>2026-04-26T14:11:06.998Z</time></trkpt><trkpt lat="37.91983514921281" lon="15.144929393135003"><ele>364.0</ele><time>2026-04-26T14:11:07.998Z</time></trkpt><trkpt lat="37.919601455793085" lon="15.144729484363125"><ele>361.5</ele><time>2026-04-26T14:11:08.998Z</time></trkpt><trkpt lat="37.91945740728003" lon="15.144443977778435"><ele>359.0</ele><time>2026-04-26T14:11:09.998Z</time></trkpt><trkpt lat="37.91924814691191" lon="15.144196725764438"><ele>359.0</ele><time>2026-04-26T14:11:11.998Z</time></trkpt><trkpt lat="37.91913332183073" lon="15.144090253083036"><ele>359.0</ele><time>2026-04-26T14:11:13.998Z</time></trkpt><trkpt lat="37.9189767474413" lon="15.143957724719472"><ele>359.0</ele><time>2026-04-26T14:11:14.998Z</time></trkpt><trkpt lat="37.91889823412173" lon="15.14390340556706"><ele>359.0</ele><time>2026-04-26T14:11:15.998Z</time></trkpt><trkpt lat="37.918815051831714" lon="15.143843060304528"><ele>357.6666666666667</ele><time>2026-04-26T14:11:16.999Z</time></trkpt><trkpt lat="37.91875260426145" lon="15.143770267268394"><ele>356.3333333333333</ele><time>2026-04-26T14:11:17.999Z</time></trkpt><trkpt lat="37.91847338292755" lon="15.14357050061572"><ele>355.0</ele><time>2026-04-26T14:11:19.999Z</time></trkpt><trkpt lat="37.91841851536775" lon="15.143458989484394"><ele>354.16666666666663</ele><time>2026-04-26T14:11:20.999Z</time></trkpt><trkpt lat="37.91838353308619" lon="15.143367183310001"><ele>353.3333333333333</ele><time>2026-04-26T14:11:21.999Z</time></trkpt><trkpt lat="37.91836318052477" lon="15.143255334929997"><ele>352.5</ele><time>2026-04-26T14:11:23.999Z</time></trkpt><trkpt lat="37.918325690732026" lon="15.143174713766335"><ele>351.6666666666667</ele><time>2026-04-26T14:11:24.999Z</time></trkpt><trkpt lat="37.91827529031969" lon="15.143083249219202"><ele>350.83333333333337</ele><time>2026-04-26T14:11:25.999Z</time></trkpt><trkpt lat="37.918252436445655" lon="15.14298069552025"><ele>350.0</ele><time>2026-04-26T14:11:28Z</time></trkpt><trkpt lat="37.9183356907713" lon="15.142544710616049"><ele>349.1666666666667</ele><time>2026-04-26T14:11:29Z</time></trkpt><trkpt lat="37.91827196797875" lon="15.142468752075388"><ele>348.33333333333337</ele><time>2026-04-26T14:11:31Z</time></trkpt><trkpt lat="37.91819967051953" lon="15.142410415760606"><ele>347.5</ele><time>2026-04-26T14:11:33Z</time></trkpt><trkpt lat="37.91811703963931" lon="15.142372877208647"><ele>346.6666666666667</ele><time>2026-04-26T14:11:56Z</time></trkpt><trkpt lat="37.918074593150145" lon="15.14227661951329"><ele>345.8333333333333</ele><time>2026-04-26T14:12:46.999Z</time></trkpt><trkpt lat="37.91805961002454" lon="15.142176796176233"><ele>345.0</ele><time>2026-04-26T14:12:49.999Z</time></trkpt><trkpt lat="37.918002686775345" lon="15.142067046069805"><ele>346.8333333333333</ele><time>2026-04-26T14:12:51.999Z</time></trkpt><trkpt lat="37.91794254420387" lon="15.142006676727016"><ele>348.6666666666667</ele><time>2026-04-26T14:12:53.999Z</time></trkpt><trkpt lat="37.917889291237145" lon="15.141956734499976"><ele>350.5</ele><time>2026-04-26T14:12:56.999Z</time></trkpt><trkpt lat="37.91780077666712" lon="15.14189766205797"><ele>352.33333333333337</ele><time>2026-04-26T14:12:59.999Z</time></trkpt><trkpt lat="37.91774032302988" lon="15.141866640430765"><ele>354.1666666666667</ele><time>2026-04-26T14:13:00.999Z</time></trkpt><trkpt lat="37.91766826784369" lon="15.141833112372236"><ele>356.0</ele><time>2026-04-26T14:13:01.999Z</time></trkpt><trkpt lat="37.91759496290542" lon="15.141811313384087"><ele>353.20000000000005</ele><time>2026-04-26T14:13:02.999Z</time></trkpt><trkpt lat="37.91751040709294" lon="15.141797938979666"><ele>350.40000000000003</ele><time>2026-04-26T14:13:03.999Z</time></trkpt><trkpt lat="37.91742385609505" lon="15.141778693676605"><ele>347.6</ele><time>2026-04-26T14:13:04.999Z</time></trkpt><trkpt lat="37.917328783916055" lon="15.141744779685048"><ele>344.8</ele><time>2026-04-26T14:13:05.999Z</time></trkpt><trkpt lat="37.917227167207635" lon="15.141710558634339"><ele>342.0</ele><time>2026-04-26T14:13:06.999Z</time></trkpt><trkpt lat="37.917140816645315" lon="15.141685320485347"><ele>342.0</ele><time>2026-04-26T14:13:07.999Z</time></trkpt><trkpt lat="37.91704348360481" lon="15.141662435976302"><ele>342.0</ele><time>2026-04-26T14:13:08.999Z</time></trkpt><trkpt lat="37.916946768481445" lon="15.141632861887228"><ele>342.0</ele><time>2026-04-26T14:13:09.999Z</time></trkpt><trkpt lat="37.91684857109046" lon="15.141601217595213"><ele>342.0</ele><time>2026-04-26T14:13:10.999Z</time></trkpt><trkpt lat="37.91674366617384" lon="15.14157558751354"><ele>342.0</ele><time>2026-04-26T14:13:11.999Z</time></trkpt><trkpt lat="37.9166425581642" lon="15.141560688081382"><ele>340.5</ele><time>2026-04-26T14:13:12.999Z</time></trkpt><trkpt lat="37.91653733115451" lon="15.141563979913421"><ele>339.0</ele><time>2026-04-26T14:13:13.999Z</time></trkpt><trkpt lat="37.91643667802024" lon="15.141562949564447"><ele>337.5</ele><time>2026-04-26T14:13:14.999Z</time></trkpt><trkpt lat="37.91631427454961" lon="15.14156646409984"><ele>336.0</ele><time>2026-04-26T14:13:15.999Z</time></trkpt><trkpt lat="37.91619314992856" lon="15.141549681611286"><ele>336.75</ele><time>2026-04-26T14:13:16.999Z</time></trkpt><trkpt lat="37.916070055937375" lon="15.141533122320048"><ele>337.5</ele><time>2026-04-26T14:13:17.999Z</time></trkpt><trkpt lat="37.91594291080574" lon="15.1415192650681"><ele>338.25</ele><time>2026-04-26T14:13:18.999Z</time></trkpt><trkpt lat="37.915810628652515" lon="15.141503711816856"><ele>339.0</ele><time>2026-04-26T14:13:19.999Z</time></trkpt><trkpt lat="37.91568803647994" lon="15.14148013377767"><ele>339.0</ele><time>2026-04-26T14:13:20.999Z</time></trkpt><trkpt lat="37.91556109676331" lon="15.14146062866044"><ele>339.0</ele><time>2026-04-26T14:13:21.999Z</time></trkpt><trkpt lat="37.915433760913764" lon="15.141447582836696"><ele>339.0</ele><time>2026-04-26T14:13:23Z</time></trkpt><trkpt lat="37.91530771447707" lon="15.141435835454116"><ele>339.0</ele><time>2026-04-26T14:13:24Z</time></trkpt><trkpt lat="37.915174860020244" lon="15.14144196669927"><ele>339.5</ele><time>2026-04-26T14:13:25Z</time></trkpt><trkpt lat="37.91503621416654" lon="15.141446642470992"><ele>340.0</ele><time>2026-04-26T14:13:26Z</time></trkpt><trkpt lat="37.91489110065421" lon="15.141443449855744"><ele>340.5</ele><time>2026-04-26T14:13:27Z</time></trkpt><trkpt lat="37.91475006046385" lon="15.141453889700204"><ele>341.0</ele><time>2026-04-26T14:13:28Z</time></trkpt><trkpt lat="37.9146049397105" lon="15.14147823442356"><ele>341.0</ele><time>2026-04-26T14:13:29Z</time></trkpt><trkpt lat="37.914457903094025" lon="15.141526561632352"><ele>341.0</ele><time>2026-04-26T14:13:30Z</time></trkpt><trkpt lat="37.91431631581382" lon="15.141568513974784"><ele>341.0</ele><time>2026-04-26T14:13:31Z</time></trkpt><trkpt lat="37.91418119980267" lon="15.141607666839038"><ele>341.0</ele><time>2026-04-26T14:13:32Z</time></trkpt><trkpt lat="37.91403112014622" lon="15.141644518498378"><ele>337.25</ele><time>2026-04-26T14:13:33Z</time></trkpt><trkpt lat="37.913881069084795" lon="15.141681942611465"><ele>333.5</ele><time>2026-04-26T14:13:34Z</time></trkpt><trkpt lat="37.91373944415178" lon="15.141708247824758"><ele>329.75</ele><time>2026-04-26T14:13:35Z</time></trkpt><trkpt lat="37.91359881841042" lon="15.14172226687278"><ele>326.0</ele><time>2026-04-26T14:13:36Z</time></trkpt><trkpt lat="37.91346717020813" lon="15.141734770332699"><ele>324.75</ele><time>2026-04-26T14:13:37Z</time></trkpt><trkpt lat="37.913330818539784" lon="15.141750281272802"><ele>323.5</ele><time>2026-04-26T14:13:38Z</time></trkpt><trkpt lat="37.91317701057018" lon="15.141760095991863"><ele>322.25</ele><time>2026-04-26T14:13:39Z</time></trkpt><trkpt lat="37.91302678769198" lon="15.141777187349671"><ele>321.0</ele><time>2026-04-26T14:13:40Z</time></trkpt><trkpt lat="37.912859118480725" lon="15.141791869888102"><ele>321.0</ele><time>2026-04-26T14:13:41Z</time></trkpt><trkpt lat="37.91270274455798" lon="15.141814078151171"><ele>321.0</ele><time>2026-04-26T14:13:42Z</time></trkpt><trkpt lat="37.912551154179816" lon="15.141840578009315"><ele>321.0</ele><time>2026-04-26T14:13:43Z</time></trkpt><trkpt lat="37.91240668071288" lon="15.14186440139853"><ele>321.0</ele><time>2026-04-26T14:13:44Z</time></trkpt><trkpt lat="37.912271639978485" lon="15.14188581915024"><ele>321.0</ele><time>2026-04-26T14:13:45Z</time></trkpt><trkpt lat="37.912156090167535" lon="15.14190172199975"><ele>321.0</ele><time>2026-04-26T14:13:46Z</time></trkpt><trkpt lat="37.91204954900691" lon="15.141925373071345"><ele>321.0</ele><time>2026-04-26T14:13:47Z</time></trkpt><trkpt lat="37.911954071459824" lon="15.141945486241612"><ele>321.0</ele><time>2026-04-26T14:13:48Z</time></trkpt><trkpt lat="37.91187008819826" lon="15.14196374643749"><ele>321.0</ele><time>2026-04-26T14:13:49Z</time></trkpt><trkpt lat="37.91177230377733" lon="15.141979038940931"><ele>321.0</ele><time>2026-04-26T14:13:50Z</time></trkpt><trkpt lat="37.911676518985914" lon="15.142001519501731"><ele>321.0</ele><time>2026-04-26T14:13:51Z</time></trkpt><trkpt lat="37.911582577347225" lon="15.142017064055171"><ele>321.0</ele><time>2026-04-26T14:13:52Z</time></trkpt><trkpt lat="37.91146712559189" lon="15.142036352830006"><ele>321.20000000000005</ele><time>2026-04-26T14:13:53Z</time></trkpt><trkpt lat="37.91137590182939" lon="15.142074089174061"><ele>321.40000000000003</ele><time>2026-04-26T14:13:54Z</time></trkpt><trkpt lat="37.91127455821899" lon="15.142117709125577"><ele>321.6</ele><time>2026-04-26T14:13:55Z</time></trkpt><trkpt lat="37.91117823457118" lon="15.142147249128351"><ele>321.8</ele><time>2026-04-26T14:13:56Z</time></trkpt><trkpt lat="37.91108449236055" lon="15.142169093064116"><ele>322.0</ele><time>2026-04-26T14:13:57Z</time></trkpt><trkpt lat="37.91099849722521" lon="15.142185601773507"><ele>322.0</ele><time>2026-04-26T14:13:58Z</time></trkpt><trkpt lat="37.91093054757244" lon="15.142191287202325"><ele>322.0</ele><time>2026-04-26T14:13:59Z</time></trkpt><trkpt lat="37.91083610663719" lon="15.142193666127088"><ele>322.0</ele><time>2026-04-26T14:14:01Z</time></trkpt><trkpt lat="37.910758060860296" lon="15.142205270415518"><ele>322.0</ele><time>2026-04-26T14:14:03Z</time></trkpt><trkpt lat="37.910663523351396" lon="15.142214927632443"><ele>322.0</ele><time>2026-04-26T14:14:05Z</time></trkpt><trkpt lat="37.91056435240762" lon="15.142186687862141"><ele>322.0</ele><time>2026-04-26T14:14:07Z</time></trkpt><trkpt lat="37.91046256783709" lon="15.142232314316818"><ele>322.0</ele><time>2026-04-26T14:14:09Z</time></trkpt><trkpt lat="37.91035816067315" lon="15.14225274992634"><ele>322.0</ele><time>2026-04-26T14:14:11Z</time></trkpt><trkpt lat="37.91025139778717" lon="15.142258733580402"><ele>322.0</ele><time>2026-04-26T14:14:13Z</time></trkpt><trkpt lat="37.910184330858954" lon="15.142256117123896"><ele>322.0</ele><time>2026-04-26T14:14:14Z</time></trkpt><trkpt lat="37.910115831061155" lon="15.142203520502186"><ele>322.0</ele><time>2026-04-26T14:14:15Z</time></trkpt><trkpt lat="37.91002243220695" lon="15.142169162953982"><ele>322.25</ele><time>2026-04-26T14:14:17Z</time></trkpt><trkpt lat="37.90992954141357" lon="15.142141098009134"><ele>322.5</ele><time>2026-04-26T14:14:19Z</time></trkpt><trkpt lat="37.90978447623255" lon="15.142301330686495"><ele>322.75</ele><time>2026-04-26T14:14:21Z</time></trkpt><trkpt lat="37.909703151222224" lon="15.142369430323827"><ele>323.0</ele><time>2026-04-26T14:14:22Z</time></trkpt><trkpt lat="37.90960744493681" lon="15.142438237232032"><ele>320.0</ele><time>2026-04-26T14:14:23Z</time></trkpt><trkpt lat="37.909505380963" lon="15.14250938137769"><ele>317.0</ele><time>2026-04-26T14:14:24Z</time></trkpt><trkpt lat="37.90941611660552" lon="15.142578041104931"><ele>314.0</ele><time>2026-04-26T14:14:25Z</time></trkpt><trkpt lat="37.90932759731941" lon="15.14264295895538"><ele>311.0</ele><time>2026-04-26T14:14:26Z</time></trkpt><trkpt lat="37.90923653981732" lon="15.142703979259704"><ele>308.0</ele><time>2026-04-26T14:14:27Z</time></trkpt><trkpt lat="37.90914727883234" lon="15.14277065918564"><ele>307.8</ele><time>2026-04-26T14:14:28Z</time></trkpt><trkpt lat="37.90905969341408" lon="15.142837822142594"><ele>307.6</ele><time>2026-04-26T14:14:29Z</time></trkpt><trkpt lat="37.90897619837415" lon="15.14290150576481"><ele>307.4</ele><time>2026-04-26T14:14:30Z</time></trkpt><trkpt lat="37.908902370129255" lon="15.14295581167799"><ele>307.2</ele><time>2026-04-26T14:14:30.999Z</time></trkpt><trkpt lat="37.90883181326198" lon="15.143011827038409"><ele>307.0</ele><time>2026-04-26T14:14:31.999Z</time></trkpt><trkpt lat="37.90876051879969" lon="15.143068238008903"><ele>307.0</ele><time>2026-04-26T14:14:32.999Z</time></trkpt><trkpt lat="37.908682922150525" lon="15.143123265103576"><ele>307.0</ele><time>2026-04-26T14:14:33.999Z</time></trkpt><trkpt lat="37.908609088709454" lon="15.14317286190193"><ele>307.0</ele><time>2026-04-26T14:14:34.999Z</time></trkpt><trkpt lat="37.908533107603375" lon="15.14323153761303"><ele>307.0</ele><time>2026-04-26T14:14:35.999Z</time></trkpt><trkpt lat="37.908446794789015" lon="15.143296279166691"><ele>307.0</ele><time>2026-04-26T14:14:36.999Z</time></trkpt><trkpt lat="37.908357884810485" lon="15.143366686399045"><ele>306.3333333333333</ele><time>2026-04-26T14:14:37.999Z</time></trkpt><trkpt lat="37.90827402260306" lon="15.143435414496958"><ele>305.66666666666663</ele><time>2026-04-26T14:14:38.999Z</time></trkpt><trkpt lat="37.90819838506923" lon="15.143494090188549"><ele>305.0</ele><time>2026-04-26T14:14:39.999Z</time></trkpt><trkpt lat="37.90812600505184" lon="15.14354412163336"><ele>304.3333333333333</ele><time>2026-04-26T14:14:40.999Z</time></trkpt><trkpt lat="37.90805368859395" lon="15.143595433155548"><ele>303.6666666666667</ele><time>2026-04-26T14:14:41.999Z</time></trkpt><trkpt lat="37.90798007729079" lon="15.143652313016299"><ele>303.0</ele><time>2026-04-26T14:14:42.999Z</time></trkpt><trkpt lat="37.90791347962256" lon="15.143701752904953"><ele>303.0</ele><time>2026-04-26T14:14:43.999Z</time></trkpt><trkpt lat="37.90785056220876" lon="15.143753656106032"><ele>303.0</ele><time>2026-04-26T14:14:44.999Z</time></trkpt><trkpt lat="37.907787677630736" lon="15.143784939522352"><ele>303.0</ele><time>2026-04-26T14:14:45.999Z</time></trkpt><trkpt lat="37.90768537896055" lon="15.143761930987644"><ele>303.0</ele><time>2026-04-26T14:14:47.999Z</time></trkpt><trkpt lat="37.907683842214844" lon="15.143609561691088"><ele>303.0</ele><time>2026-04-26T14:14:48.999Z</time></trkpt><trkpt lat="37.90765400703698" lon="15.143530684548848"><ele>303.0</ele><time>2026-04-26T14:14:49.999Z</time></trkpt><trkpt lat="37.907625280552715" lon="15.1434437138284"><ele>303.0</ele><time>2026-04-26T14:14:50.999Z</time></trkpt><trkpt lat="37.907587420645946" lon="15.143359559439476"><ele>303.0</ele><time>2026-04-26T14:14:51.999Z</time></trkpt><trkpt lat="37.90754958768363" lon="15.143272901379918"><ele>303.0</ele><time>2026-04-26T14:14:52.999Z</time></trkpt><trkpt lat="37.907509618768195" lon="15.143182022558381"><ele>303.0</ele><time>2026-04-26T14:14:53.999Z</time></trkpt><trkpt lat="37.9074672321413" lon="15.143096816645688"><ele>303.0</ele><time>2026-04-26T14:14:54.999Z</time></trkpt><trkpt lat="37.907418988730356" lon="15.143008974742079"><ele>303.0</ele><time>2026-04-26T14:14:55.999Z</time></trkpt><trkpt lat="37.90735397219078" lon="15.142920264071703"><ele>302.6</ele><time>2026-04-26T14:14:56.999Z</time></trkpt><trkpt lat="37.90726839808894" lon="15.142864084294391"><ele>302.20000000000005</ele><time>2026-04-26T14:14:57.999Z</time></trkpt><trkpt lat="37.907171100009414" lon="15.142819027878883"><ele>301.8</ele><time>2026-04-26T14:14:58.999Z</time></trkpt><trkpt lat="37.90706743957898" lon="15.1427691114591"><ele>301.40000000000003</ele><time>2026-04-26T14:14:59.999Z</time></trkpt><trkpt lat="37.906957151357574" lon="15.14271416026231"><ele>301.0</ele><time>2026-04-26T14:15:00.999Z</time></trkpt><trkpt lat="37.90684060360823" lon="15.142654620098698"><ele>299.75</ele><time>2026-04-26T14:15:01.999Z</time></trkpt><trkpt lat="37.90672858806391" lon="15.142601212986753"><ele>298.5</ele><time>2026-04-26T14:15:02.999Z</time></trkpt><trkpt lat="37.906617949564925" lon="15.142545239271104"><ele>297.25</ele><time>2026-04-26T14:15:03.999Z</time></trkpt><trkpt lat="37.90651164137603" lon="15.142473342523314"><ele>296.0</ele><time>2026-04-26T14:15:04.999Z</time></trkpt><trkpt lat="37.90642315739065" lon="15.14236162352884"><ele>295.75</ele><time>2026-04-26T14:15:05.999Z</time></trkpt><trkpt lat="37.90633132131045" lon="15.142263885995071"><ele>295.5</ele><time>2026-04-26T14:15:06.999Z</time></trkpt><trkpt lat="37.90624243208885" lon="15.142166147028776"><ele>295.25</ele><time>2026-04-26T14:15:07.999Z</time></trkpt><trkpt lat="37.90615305599724" lon="15.142071967896932"><ele>295.0</ele><time>2026-04-26T14:15:08.999Z</time></trkpt><trkpt lat="37.90606055263899" lon="15.142018418942394"><ele>295.0</ele><time>2026-04-26T14:15:09.999Z</time></trkpt><trkpt lat="37.905974678338914" lon="15.141960096894651"><ele>295.0</ele><time>2026-04-26T14:15:10.999Z</time></trkpt><trkpt lat="37.905871226514364" lon="15.14191469107859"><ele>295.0</ele><time>2026-04-26T14:15:11.999Z</time></trkpt><trkpt lat="37.90579259526718" lon="15.141827792890918"><ele>295.0</ele><time>2026-04-26T14:15:12.999Z</time></trkpt><trkpt lat="37.9057276443313" lon="15.141745460904799"><ele>295.0</ele><time>2026-04-26T14:15:13.999Z</time></trkpt><trkpt lat="37.905653285761716" lon="15.141655613299916"><ele>295.66666666666663</ele><time>2026-04-26T14:15:14.999Z</time></trkpt><trkpt lat="37.90558019917129" lon="15.141567436998113"><ele>296.3333333333333</ele><time>2026-04-26T14:15:15.999Z</time></trkpt><trkpt lat="37.90551888328466" lon="15.141493214637503"><ele>297.0</ele><time>2026-04-26T14:15:16.999Z</time></trkpt><trkpt lat="37.905463549170754" lon="15.141425615751603"><ele>297.6666666666667</ele><time>2026-04-26T14:15:17.999Z</time></trkpt><trkpt lat="37.90540765670682" lon="15.141357334671104"><ele>298.33333333333337</ele><time>2026-04-26T14:15:18.999Z</time></trkpt><trkpt lat="37.90535042014542" lon="15.141271905476929"><ele>299.0</ele><time>2026-04-26T14:15:19.999Z</time></trkpt><trkpt lat="37.9053027906154" lon="15.141165949196525"><ele>299.0</ele><time>2026-04-26T14:15:20.999Z</time></trkpt><trkpt lat="37.90526155684284" lon="15.141068920297991"><ele>299.0</ele><time>2026-04-26T14:15:21.999Z</time></trkpt><trkpt lat="37.905218598614226" lon="15.140958666503467"><ele>299.0</ele><time>2026-04-26T14:15:22.999Z</time></trkpt><trkpt lat="37.90517430818287" lon="15.140852513929426"><ele>299.0</ele><time>2026-04-26T14:15:23.999Z</time></trkpt><trkpt lat="37.905102524984365" lon="15.140753021268175"><ele>299.0</ele><time>2026-04-26T14:15:24.999Z</time></trkpt><trkpt lat="37.90506341331748" lon="15.140648054633754"><ele>300.6666666666667</ele><time>2026-04-26T14:15:25.999Z</time></trkpt><trkpt lat="37.90501626612364" lon="15.140549121893761"><ele>302.33333333333337</ele><time>2026-04-26T14:15:26.999Z</time></trkpt><trkpt lat="37.90497873569821" lon="15.140460904322325"><ele>304.0</ele><time>2026-04-26T14:15:28Z</time></trkpt><trkpt lat="37.90494638222139" lon="15.140377770986657"><ele>305.6666666666667</ele><time>2026-04-26T14:15:29Z</time></trkpt><trkpt lat="37.904905357046395" lon="15.140275140341236"><ele>307.3333333333333</ele><time>2026-04-26T14:15:30Z</time></trkpt><trkpt lat="37.90485884689452" lon="15.14016869409366"><ele>309.0</ele><time>2026-04-26T14:15:31Z</time></trkpt><trkpt lat="37.90480501741124" lon="15.140047522938533"><ele>309.0</ele><time>2026-04-26T14:15:32Z</time></trkpt><trkpt lat="37.90474743673539" lon="15.139920015723671"><ele>309.0</ele><time>2026-04-26T14:15:33Z</time></trkpt><trkpt lat="37.90469138440149" lon="15.13978869054357"><ele>309.0</ele><time>2026-04-26T14:15:34Z</time></trkpt><trkpt lat="37.90463711625169" lon="15.139656649768195"><ele>309.0</ele><time>2026-04-26T14:15:35Z</time></trkpt><trkpt lat="37.90457728264621" lon="15.139533686008612"><ele>308.25</ele><time>2026-04-26T14:15:36Z</time></trkpt><trkpt lat="37.904511765647534" lon="15.139406492060179"><ele>307.5</ele><time>2026-04-26T14:15:37Z</time></trkpt><trkpt lat="37.90445925809973" lon="15.139263527573746"><ele>306.75</ele><time>2026-04-26T14:15:38Z</time></trkpt><trkpt lat="37.904415324048266" lon="15.139122655009459"><ele>306.0</ele><time>2026-04-26T14:15:39Z</time></trkpt><trkpt lat="37.904354349256536" lon="15.138988748498708"><ele>305.25</ele><time>2026-04-26T14:15:40Z</time></trkpt><trkpt lat="37.904290650389925" lon="15.138856379689042"><ele>304.5</ele><time>2026-04-26T14:15:41Z</time></trkpt><trkpt lat="37.90421439115117" lon="15.13873719408702"><ele>303.75</ele><time>2026-04-26T14:15:42Z</time></trkpt><trkpt lat="37.90415810925829" lon="15.138600254726152"><ele>303.0</ele><time>2026-04-26T14:15:43Z</time></trkpt><trkpt lat="37.90410954391927" lon="15.138464312972946"><ele>306.75</ele><time>2026-04-26T14:15:44Z</time></trkpt><trkpt lat="37.90404689789812" lon="15.138340752287379"><ele>310.5</ele><time>2026-04-26T14:15:45Z</time></trkpt><trkpt lat="37.903985567284764" lon="15.138222255088904"><ele>314.25</ele><time>2026-04-26T14:15:46Z</time></trkpt><trkpt lat="37.9039224189358" lon="15.138104475891476"><ele>318.0</ele><time>2026-04-26T14:15:47Z</time></trkpt><trkpt lat="37.90385543150551" lon="15.13799159335353"><ele>318.3333333333333</ele><time>2026-04-26T14:15:48Z</time></trkpt><trkpt lat="37.90379662614358" lon="15.137901606300101"><ele>318.6666666666667</ele><time>2026-04-26T14:15:49Z</time></trkpt><trkpt lat="37.903738291011784" lon="15.137826139727954"><ele>319.0</ele><time>2026-04-26T14:15:50Z</time></trkpt><trkpt lat="37.90369993370034" lon="15.137748066294694"><ele>319.33333333333337</ele><time>2026-04-26T14:15:51Z</time></trkpt><trkpt lat="37.9036525466238" lon="15.137693651749252"><ele>319.6666666666667</ele><time>2026-04-26T14:15:52Z</time></trkpt><trkpt lat="37.90356380652717" lon="15.137626468260024"><ele>320.0</ele><time>2026-04-26T14:15:54Z</time></trkpt><trkpt lat="37.90347989835822" lon="15.137682736764962"><ele>320.0</ele><time>2026-04-26T14:15:55Z</time></trkpt><trkpt lat="37.90344672899705" lon="15.137562048991295"><ele>320.0</ele><time>2026-04-26T14:15:57Z</time></trkpt><trkpt lat="37.90343386295022" lon="15.137339497034967"><ele>320.0</ele><time>2026-04-26T14:15:59Z</time></trkpt><trkpt lat="37.90342535087629" lon="15.13723664106721"><ele>320.0</ele><time>2026-04-26T14:16:00Z</time></trkpt><trkpt lat="37.90341293814337" lon="15.137134220530365"><ele>320.0</ele><time>2026-04-26T14:16:01Z</time></trkpt><trkpt lat="37.903381299256054" lon="15.137054838127295"><ele>321.6666666666667</ele><time>2026-04-26T14:16:02Z</time></trkpt><trkpt lat="37.9033437695487" lon="15.136988756871366"><ele>323.33333333333337</ele><time>2026-04-26T14:16:03Z</time></trkpt><trkpt lat="37.90329509961997" lon="15.136871112665546"><ele>325.0</ele><time>2026-04-26T14:16:05Z</time></trkpt><trkpt lat="37.90327204779324" lon="15.136763876499657"><ele>326.6666666666667</ele><time>2026-04-26T14:16:07Z</time></trkpt><trkpt lat="37.903234361765975" lon="15.13665496813641"><ele>328.3333333333333</ele><time>2026-04-26T14:16:09Z</time></trkpt><trkpt lat="37.90319234776801" lon="15.136572735538861"><ele>330.0</ele><time>2026-04-26T14:16:11Z</time></trkpt><trkpt lat="37.90309465335722" lon="15.136536676890598"><ele>330.4</ele><time>2026-04-26T14:16:13Z</time></trkpt><trkpt lat="37.90301949853109" lon="15.136456256710876"><ele>330.8</ele><time>2026-04-26T14:16:15Z</time></trkpt><trkpt lat="37.90292895514644" lon="15.136402006630444"><ele>331.20000000000005</ele><time>2026-04-26T14:16:17Z</time></trkpt><trkpt lat="37.90284478872431" lon="15.136348505023882"><ele>331.6</ele><time>2026-04-26T14:16:19Z</time></trkpt><trkpt lat="37.90277832232923" lon="15.136294512675898"><ele>332.0</ele><time>2026-04-26T14:16:21Z</time></trkpt><trkpt lat="37.90270448743165" lon="15.136239524191422"><ele>332.0</ele><time>2026-04-26T14:16:23Z</time></trkpt><trkpt lat="37.90261435997021" lon="15.136174405828951"><ele>332.0</ele><time>2026-04-26T14:16:25Z</time></trkpt><trkpt lat="37.902535998577775" lon="15.136128844898124"><ele>332.0</ele><time>2026-04-26T14:16:27Z</time></trkpt><trkpt lat="37.902464880830394" lon="15.136068863624685"><ele>332.0</ele><time>2026-04-26T14:16:29Z</time></trkpt><trkpt lat="37.90238697899975" lon="15.13599986486866"><ele>332.0</ele><time>2026-04-26T14:16:32Z</time></trkpt><trkpt lat="37.902316634598435" lon="15.135947492600717"><ele>332.0</ele><time>2026-04-26T14:16:34Z</time></trkpt><trkpt lat="37.902252219615924" lon="15.135901920577565"><ele>332.0</ele><time>2026-04-26T14:16:36Z</time></trkpt><trkpt lat="37.90220421513962" lon="15.135830620388026"><ele>332.0</ele><time>2026-04-26T14:16:40Z</time></trkpt><trkpt lat="37.90225301950749" lon="15.13576987784161"><ele>332.0</ele><time>2026-04-26T14:16:42Z</time></trkpt><trkpt lat="37.902256934559816" lon="15.135687437178932"><ele>331.0</ele><time>2026-04-26T14:16:44Z</time></trkpt><trkpt lat="37.90227014023542" lon="15.135602773793483"><ele>331.0</ele><time>2026-04-26T14:16:47Z</time></trkpt><trkpt lat="37.90230072204282" lon="15.135529873224238"><ele>331.0</ele><time>2026-04-26T14:16:51Z</time></trkpt></trkseg></trk></gpx>